<?xml version='1.0' encoding='UTF-8'?><gpx version="1.1" creator="JPX - https://github.com/jenetics/jpx" xmlns="http://www.topografix.com/GPX/1/1"><trk><trkseg><trkpt lat="43.5049053" lon="10.6186975"><ele>312.0</ele><time>2026-04-19T06:18:12.027Z</time></trkpt><trkpt lat="43.5049813" lon="10.6186782"><ele>312.0</ele><time>2026-04-19T06:18:15.033Z</time></trkpt><trkpt lat="43.5049689" lon="10.6185737"><ele>312.0</ele><time>2026-04-19T06:18:18.034Z</time></trkpt><trkpt lat="43.5048928" lon="10.6184934"><ele>312.0</ele><time>2026-04-19T06:18:21.041Z</time></trkpt><trkpt lat="43.5048437" lon="10.6184378"><ele>312.0</ele><time>2026-04-19T06:18:23.036Z</time></trkpt><trkpt lat="43.5047774" lon="10.6183732"><ele>312.0</ele><time>2026-04-19T06:18:26.024Z</time></trkpt><trkpt lat="43.5047763" lon="10.6182561"><ele>313.0</ele><time>2026-04-19T06:19:35.03Z</time></trkpt><trkpt lat="43.5047309" lon="10.6181771"><ele>314.0</ele><time>2026-04-19T06:19:37.033Z</time></trkpt><trkpt lat="43.5046675" lon="10.618185"><ele>315.0</ele><time>2026-04-19T06:19:39.033Z</time></trkpt><trkpt lat="43.5046359" lon="10.6182904"><ele>316.0</ele><time>2026-04-19T06:19:41.025Z</time></trkpt><trkpt lat="43.5046909" lon="10.6183472"><ele>317.0</ele><time>2026-04-19T06:19:43.036Z</time></trkpt><trkpt lat="43.5047796" lon="10.6183798"><ele>318.0</ele><time>2026-04-19T06:19:45.037Z</time></trkpt><trkpt lat="43.5048667" lon="10.6184587"><ele>318.0</ele><time>2026-04-19T06:19:47.035Z</time></trkpt><trkpt lat="43.50489" lon="10.6185751"><ele>318.0</ele><time>2026-04-19T06:19:49.036Z</time></trkpt><trkpt lat="43.5048595" lon="10.6187351"><ele>318.0</ele><time>2026-04-19T06:19:51.038Z</time></trkpt><trkpt lat="43.5047734" lon="10.6188551"><ele>318.0</ele><time>2026-04-19T06:19:53.037Z</time></trkpt><trkpt lat="43.5047066" lon="10.618918"><ele>318.0</ele><time>2026-04-19T06:19:54.03Z</time></trkpt><trkpt lat="43.5046375" lon="10.6189742"><ele>318.3333333333333</ele><time>2026-04-19T06:19:55.033Z</time></trkpt><trkpt lat="43.5045674" lon="10.6190365"><ele>318.6666666666667</ele><time>2026-04-19T06:19:56.038Z</time></trkpt><trkpt lat="43.5045031" lon="10.6190983"><ele>319.0</ele><time>2026-04-19T06:19:57.034Z</time></trkpt><trkpt lat="43.5044601" lon="10.619172"><ele>319.33333333333337</ele><time>2026-04-19T06:19:58.025Z</time></trkpt><trkpt lat="43.5044104" lon="10.6192418"><ele>319.6666666666667</ele><time>2026-04-19T06:19:59.039Z</time></trkpt><trkpt lat="43.5043513" lon="10.6193314"><ele>320.0</ele><time>2026-04-19T06:20:01.026Z</time></trkpt><trkpt lat="43.5042996" lon="10.6193811"><ele>320.0</ele><time>2026-04-19T06:20:03.024Z</time></trkpt><trkpt lat="43.5042072" lon="10.6193084"><ele>320.0</ele><time>2026-04-19T06:20:06.033Z</time></trkpt><trkpt lat="43.5040923" lon="10.6192278"><ele>320.0</ele><time>2026-04-19T06:20:08.028Z</time></trkpt><trkpt lat="43.5040259" lon="10.6191832"><ele>320.0</ele><time>2026-04-19T06:20:09.033Z</time></trkpt><trkpt lat="43.5039552" lon="10.6191394"><ele>320.0</ele><time>2026-04-19T06:20:10.033Z</time></trkpt><trkpt lat="43.5038793" lon="10.6190907"><ele>320.0</ele><time>2026-04-19T06:20:11.033Z</time></trkpt><trkpt lat="43.5038066" lon="10.6190558"><ele>320.0</ele><time>2026-04-19T06:20:12.041Z</time></trkpt><trkpt lat="43.5037313" lon="10.6190321"><ele>320.0</ele><time>2026-04-19T06:20:13.029Z</time></trkpt><trkpt lat="43.503667" lon="10.6190493"><ele>320.0</ele><time>2026-04-19T06:20:14.033Z</time></trkpt><trkpt lat="43.5035992" lon="10.6190836"><ele>320.0</ele><time>2026-04-19T06:20:15.035Z</time></trkpt><trkpt lat="43.5034882" lon="10.6191318"><ele>320.0</ele><time>2026-04-19T06:20:17.035Z</time></trkpt><trkpt lat="43.5033993" lon="10.6191062"><ele>320.0</ele><time>2026-04-19T06:20:19.03Z</time></trkpt><trkpt lat="43.5032914" lon="10.6190297"><ele>320.0</ele><time>2026-04-19T06:20:21.036Z</time></trkpt><trkpt lat="43.5031827" lon="10.6189705"><ele>320.0</ele><time>2026-04-19T06:20:23.036Z</time></trkpt><trkpt lat="43.5030953" lon="10.6189469"><ele>320.0</ele><time>2026-04-19T06:20:25.034Z</time></trkpt><trkpt lat="43.5030159" lon="10.6189393"><ele>320.0</ele><time>2026-04-19T06:20:27.032Z</time></trkpt><trkpt lat="43.502936" lon="10.6189289"><ele>320.0</ele><time>2026-04-19T06:20:29.031Z</time></trkpt><trkpt lat="43.5028659" lon="10.6189232"><ele>320.0</ele><time>2026-04-19T06:20:31.03Z</time></trkpt><trkpt lat="43.5027979" lon="10.6189514"><ele>320.0</ele><time>2026-04-19T06:20:34.03Z</time></trkpt><trkpt lat="43.502814" lon="10.6188579"><ele>320.0</ele><time>2026-04-19T06:28:20.028Z</time></trkpt><trkpt lat="43.5029017" lon="10.618901"><ele>320.0</ele><time>2026-04-19T06:28:23.034Z</time></trkpt><trkpt lat="43.5029865" lon="10.6189304"><ele>320.0</ele><time>2026-04-19T06:28:25.033Z</time></trkpt><trkpt lat="43.503063" lon="10.61894"><ele>320.0</ele><time>2026-04-19T06:28:27.031Z</time></trkpt><trkpt lat="43.5031655" lon="10.618957"><ele>320.0</ele><time>2026-04-19T06:28:29.031Z</time></trkpt><trkpt lat="43.50328" lon="10.6190066"><ele>320.0</ele><time>2026-04-19T06:28:31.032Z</time></trkpt><trkpt lat="43.5033389" lon="10.6190436"><ele>320.0</ele><time>2026-04-19T06:28:32.034Z</time></trkpt><trkpt lat="43.5034363" lon="10.6191154"><ele>320.0</ele><time>2026-04-19T06:28:34.032Z</time></trkpt><trkpt lat="43.5035163" lon="10.6191193"><ele>320.0</ele><time>2026-04-19T06:28:36.038Z</time></trkpt><trkpt lat="43.5036149" lon="10.6190724"><ele>320.0</ele><time>2026-04-19T06:28:38.03Z</time></trkpt><trkpt lat="43.5037341" lon="10.6190281"><ele>320.0</ele><time>2026-04-19T06:28:40.038Z</time></trkpt><trkpt lat="43.5038134" lon="10.6190349"><ele>320.0</ele><time>2026-04-19T06:28:41.03Z</time></trkpt><trkpt lat="43.5038906" lon="10.6190614"><ele>320.0</ele><time>2026-04-19T06:28:42.043Z</time></trkpt><trkpt lat="43.5039473" lon="10.619104"><ele>320.0</ele><time>2026-04-19T06:28:43.041Z</time></trkpt><trkpt lat="43.5040039" lon="10.6191564"><ele>320.0</ele><time>2026-04-19T06:28:44.031Z</time></trkpt><trkpt lat="43.5040647" lon="10.6192013"><ele>320.0</ele><time>2026-04-19T06:28:45.035Z</time></trkpt><trkpt lat="43.5041803" lon="10.6192651"><ele>320.0</ele><time>2026-04-19T06:28:47.044Z</time></trkpt><trkpt lat="43.5042607" lon="10.6193527"><ele>320.0</ele><time>2026-04-19T06:28:49.029Z</time></trkpt><trkpt lat="43.5043197" lon="10.6194575"><ele>318.2</ele><time>2026-04-19T06:28:51.033Z</time></trkpt><trkpt lat="43.5043524" lon="10.6195628"><ele>316.4</ele><time>2026-04-19T06:28:53.035Z</time></trkpt><trkpt lat="43.504389" lon="10.6196852"><ele>314.6</ele><time>2026-04-19T06:28:55.026Z</time></trkpt><trkpt lat="43.5044315" lon="10.6198067"><ele>312.8</ele><time>2026-04-19T06:28:57.033Z</time></trkpt><trkpt lat="43.5044763" lon="10.6199196"><ele>311.0</ele><time>2026-04-19T06:28:59.04Z</time></trkpt><trkpt lat="43.5045218" lon="10.6200247"><ele>311.0</ele><time>2026-04-19T06:29:01.032Z</time></trkpt><trkpt lat="43.5045642" lon="10.620117"><ele>311.0</ele><time>2026-04-19T06:29:03.035Z</time></trkpt><trkpt lat="43.5046342" lon="10.6201747"><ele>311.0</ele><time>2026-04-19T06:29:05.036Z</time></trkpt><trkpt lat="43.5046942" lon="10.6202427"><ele>311.0</ele><time>2026-04-19T06:29:07.054Z</time></trkpt><trkpt lat="43.5047275" lon="10.6203268"><ele>311.0</ele><time>2026-04-19T06:29:09.032Z</time></trkpt><trkpt lat="43.5047593" lon="10.6204406"><ele>311.0</ele><time>2026-04-19T06:29:12.033Z</time></trkpt><trkpt lat="43.5047753" lon="10.6203405"><ele>311.0</ele><time>2026-04-19T06:45:00.041Z</time></trkpt><trkpt lat="43.5047041" lon="10.6202561"><ele>311.0</ele><time>2026-04-19T06:45:02.051Z</time></trkpt><trkpt lat="43.504604" lon="10.6201686"><ele>311.0</ele><time>2026-04-19T06:45:04.031Z</time></trkpt><trkpt lat="43.5045143" lon="10.6200525"><ele>311.0</ele><time>2026-04-19T06:45:06.037Z</time></trkpt><trkpt lat="43.504479" lon="10.6199721"><ele>311.0</ele><time>2026-04-19T06:45:07.043Z</time></trkpt><trkpt lat="43.5044499" lon="10.6198885"><ele>311.0</ele><time>2026-04-19T06:45:08.055Z</time></trkpt><trkpt lat="43.5044201" lon="10.6198116"><ele>311.0</ele><time>2026-04-19T06:45:09.034Z</time></trkpt><trkpt lat="43.5043735" lon="10.6196771"><ele>311.0</ele><time>2026-04-19T06:45:11.037Z</time></trkpt><trkpt lat="43.5043412" lon="10.6195482"><ele>311.0</ele><time>2026-04-19T06:45:13.029Z</time></trkpt><trkpt lat="43.5043174" lon="10.6194648"><ele>311.0</ele><time>2026-04-19T06:45:15.03Z</time></trkpt><trkpt lat="43.5043555" lon="10.6193462"><ele>311.0</ele><time>2026-04-19T06:45:18.028Z</time></trkpt><trkpt lat="43.5044111" lon="10.6192615"><ele>311.2</ele><time>2026-04-19T06:45:20.021Z</time></trkpt><trkpt lat="43.5044776" lon="10.6191724"><ele>311.40000000000003</ele><time>2026-04-19T06:45:22.037Z</time></trkpt><trkpt lat="43.5045523" lon="10.619047"><ele>311.6</ele><time>2026-04-19T06:45:24.03Z</time></trkpt><trkpt lat="43.5046003" lon="10.6189885"><ele>311.8</ele><time>2026-04-19T06:45:25.038Z</time></trkpt><trkpt lat="43.5047045" lon="10.6189055"><ele>312.0</ele><time>2026-04-19T06:45:27.034Z</time></trkpt><trkpt lat="43.5047858" lon="10.61882"><ele>312.0</ele><time>2026-04-19T06:45:29.021Z</time></trkpt><trkpt lat="43.5048372" lon="10.6187423"><ele>312.0</ele><time>2026-04-19T06:45:31.027Z</time></trkpt><trkpt lat="43.5048638" lon="10.6186589"><ele>312.0</ele><time>2026-04-19T06:45:33.024Z</time></trkpt><trkpt lat="43.5048405" lon="10.6187607"><ele>312.0</ele><time>2026-04-19T06:45:51.022Z</time></trkpt><trkpt lat="43.5047763" lon="10.6188505"><ele>312.0</ele><time>2026-04-19T06:45:54.04Z</time></trkpt><trkpt lat="43.5046984" lon="10.6189113"><ele>312.0</ele><time>2026-04-19T06:45:56.033Z</time></trkpt><trkpt lat="43.5046022" lon="10.6189931"><ele>311.8333333333333</ele><time>2026-04-19T06:45:58.026Z</time></trkpt><trkpt lat="43.5045463" lon="10.6190429"><ele>311.6666666666667</ele><time>2026-04-19T06:46:12.02Z</time></trkpt><trkpt lat="43.5044776" lon="10.6191181"><ele>311.5</ele><time>2026-04-19T06:46:14.019Z</time></trkpt><trkpt lat="43.5044064" lon="10.619219"><ele>311.33333333333337</ele><time>2026-04-19T06:46:16.017Z</time></trkpt><trkpt lat="43.5043571" lon="10.6193213"><ele>311.1666666666667</ele><time>2026-04-19T06:46:18.031Z</time></trkpt><trkpt lat="43.5043312" lon="10.6194128"><ele>311.0</ele><time>2026-04-19T06:46:20.025Z</time></trkpt><trkpt lat="43.5043286" lon="10.6195138"><ele>311.0</ele><time>2026-04-19T06:46:23.032Z</time></trkpt><trkpt lat="43.5043565" lon="10.6196319"><ele>311.0</ele><time>2026-04-19T06:46:26.031Z</time></trkpt><trkpt lat="43.5043905" lon="10.619749"><ele>311.0</ele><time>2026-04-19T06:46:28.031Z</time></trkpt><trkpt lat="43.5044361" lon="10.6198672"><ele>311.0</ele><time>2026-04-19T06:46:30.029Z</time></trkpt><trkpt lat="43.5044777" lon="10.6200016"><ele>311.0</ele><time>2026-04-19T06:46:32.045Z</time></trkpt><trkpt lat="43.5045569" lon="10.6201107"><ele>310.6666666666667</ele><time>2026-04-19T06:46:34.029Z</time></trkpt><trkpt lat="43.5046239" lon="10.6201897"><ele>310.33333333333337</ele><time>2026-04-19T06:46:36.029Z</time></trkpt><trkpt lat="43.5046782" lon="10.620259"><ele>310.0</ele><time>2026-04-19T06:46:38.044Z</time></trkpt><trkpt lat="43.5047258" lon="10.6203453"><ele>309.6666666666667</ele><time>2026-04-19T06:46:40.031Z</time></trkpt><trkpt lat="43.5047507" lon="10.6204286"><ele>309.3333333333333</ele><time>2026-04-19T06:46:42.029Z</time></trkpt><trkpt lat="43.5048065" lon="10.6205027"><ele>309.0</ele><time>2026-04-19T06:51:11.029Z</time></trkpt><trkpt lat="43.5048649" lon="10.6205755"><ele>308.1666666666667</ele><time>2026-04-19T06:51:13.032Z</time></trkpt><trkpt lat="43.5049126" lon="10.6206481"><ele>307.3333333333333</ele><time>2026-04-19T06:51:15.034Z</time></trkpt><trkpt lat="43.5049543" lon="10.6207141"><ele>306.5</ele><time>2026-04-19T06:51:17.04Z</time></trkpt><trkpt lat="43.5050095" lon="10.6208077"><ele>305.66666666666663</ele><time>2026-04-19T06:51:20.042Z</time></trkpt><trkpt lat="43.5050807" lon="10.6208379"><ele>304.8333333333333</ele><time>2026-04-19T06:51:23.035Z</time></trkpt><trkpt lat="43.5050782" lon="10.6207254"><ele>304.0</ele><time>2026-04-19T06:51:26.035Z</time></trkpt><trkpt lat="43.5050846" lon="10.6206015"><ele>304.0</ele><time>2026-04-19T06:51:28.03Z</time></trkpt><trkpt lat="43.5050315" lon="10.6205016"><ele>304.0</ele><time>2026-04-19T06:51:31.027Z</time></trkpt><trkpt lat="43.5049423" lon="10.620448"><ele>304.0</ele><time>2026-04-19T06:51:33.029Z</time></trkpt><trkpt lat="43.5048551" lon="10.6204231"><ele>304.0</ele><time>2026-04-19T06:51:35.043Z</time></trkpt><trkpt lat="43.5047853" lon="10.6204455"><ele>304.0</ele><time>2026-04-19T06:51:37.021Z</time></trkpt><trkpt lat="43.5047299" lon="10.6203737"><ele>304.0</ele><time>2026-04-19T06:51:41.028Z</time></trkpt><trkpt lat="43.5046629" lon="10.6202605"><ele>305.0</ele><time>2026-04-19T06:51:43.021Z</time></trkpt><trkpt lat="43.5045974" lon="10.6201727"><ele>306.0</ele><time>2026-04-19T06:51:45.027Z</time></trkpt><trkpt lat="43.5045272" lon="10.6200572"><ele>307.0</ele><time>2026-04-19T06:51:47.058Z</time></trkpt><trkpt lat="43.5044632" lon="10.6199229"><ele>308.0</ele><time>2026-04-19T06:51:49.031Z</time></trkpt><trkpt lat="43.5044158" lon="10.6197777"><ele>309.0</ele><time>2026-04-19T06:51:51.017Z</time></trkpt><trkpt lat="43.5043645" lon="10.6196477"><ele>309.3333333333333</ele><time>2026-04-19T06:51:53.029Z</time></trkpt><trkpt lat="43.5043368" lon="10.6195133"><ele>309.6666666666667</ele><time>2026-04-19T06:51:55.026Z</time></trkpt><trkpt lat="43.5043348" lon="10.6194244"><ele>310.0</ele><time>2026-04-19T06:51:57.03Z</time></trkpt><trkpt lat="43.5043655" lon="10.6193476"><ele>310.33333333333337</ele><time>2026-04-19T06:51:59.035Z</time></trkpt><trkpt lat="43.5044184" lon="10.6192427"><ele>310.6666666666667</ele><time>2026-04-19T06:52:01.033Z</time></trkpt><trkpt lat="43.5044888" lon="10.6191388"><ele>311.0</ele><time>2026-04-19T06:52:03.028Z</time></trkpt><trkpt lat="43.5045258" lon="10.6190678"><ele>311.2</ele><time>2026-04-19T06:52:04.035Z</time></trkpt><trkpt lat="43.5046299" lon="10.6189773"><ele>311.40000000000003</ele><time>2026-04-19T06:52:06.039Z</time></trkpt><trkpt lat="43.5046898" lon="10.6189286"><ele>311.6</ele><time>2026-04-19T06:52:07.033Z</time></trkpt><trkpt lat="43.5047915" lon="10.6188351"><ele>311.8</ele><time>2026-04-19T06:52:09.032Z</time></trkpt><trkpt lat="43.5048689" lon="10.6187388"><ele>312.0</ele><time>2026-04-19T06:52:11.029Z</time></trkpt><trkpt lat="43.5049335" lon="10.6186546"><ele>312.0</ele><time>2026-04-19T06:52:13.026Z</time></trkpt><trkpt lat="43.504882" lon="10.6185833"><ele>312.0</ele><time>2026-04-19T06:52:17.029Z</time></trkpt><trkpt lat="43.5048516" lon="10.6187068"><ele>312.0</ele><time>2026-04-19T06:52:20.028Z</time></trkpt><trkpt lat="43.5048274" lon="10.6187874"><ele>312.0</ele><time>2026-04-19T06:52:22.032Z</time></trkpt><trkpt lat="43.5047874" lon="10.61886"><ele>312.0</ele><time>2026-04-19T06:52:54.027Z</time></trkpt><trkpt lat="43.5047133" lon="10.6189061"><ele>312.0</ele><time>2026-04-19T06:52:56.032Z</time></trkpt><trkpt lat="43.5046129" lon="10.6189874"><ele>313.6</ele><time>2026-04-19T06:52:58.032Z</time></trkpt><trkpt lat="43.50452" lon="10.6190793"><ele>315.2</ele><time>2026-04-19T06:53:00.015Z</time></trkpt><trkpt lat="43.504437" lon="10.6191847"><ele>316.8</ele><time>2026-04-19T06:53:02.036Z</time></trkpt><trkpt lat="43.5043796" lon="10.619282"><ele>318.4</ele><time>2026-04-19T06:53:04.038Z</time></trkpt><trkpt lat="43.5043363" lon="10.6193641"><ele>320.0</ele><time>2026-04-19T06:53:06.026Z</time></trkpt><trkpt lat="43.5043162" lon="10.6194581"><ele>318.2</ele><time>2026-04-19T06:53:08.029Z</time></trkpt><trkpt lat="43.5043451" lon="10.6195703"><ele>316.4</ele><time>2026-04-19T06:53:10.031Z</time></trkpt><trkpt lat="43.50438" lon="10.6196858"><ele>314.6</ele><time>2026-04-19T06:53:12.028Z</time></trkpt><trkpt lat="43.5044319" lon="10.6198196"><ele>312.8</ele><time>2026-04-19T06:53:14.028Z</time></trkpt><trkpt lat="43.5044852" lon="10.6199634"><ele>311.0</ele><time>2026-04-19T06:53:16.03Z</time></trkpt><trkpt lat="43.5045409" lon="10.620092"><ele>310.6666666666667</ele><time>2026-04-19T06:53:18.027Z</time></trkpt><trkpt lat="43.5046096" lon="10.6201809"><ele>310.33333333333337</ele><time>2026-04-19T06:53:20.033Z</time></trkpt><trkpt lat="43.5046705" lon="10.6202432"><ele>310.0</ele><time>2026-04-19T06:53:22.023Z</time></trkpt><trkpt lat="43.5047173" lon="10.6203301"><ele>309.6666666666667</ele><time>2026-04-19T06:53:24.029Z</time></trkpt><trkpt lat="43.5047338" lon="10.620414"><ele>309.3333333333333</ele><time>2026-04-19T06:53:26.028Z</time></trkpt><trkpt lat="43.5047879" lon="10.62036"><ele>309.0</ele><time>2026-04-19T07:07:05.03Z</time></trkpt><trkpt lat="43.504788" lon="10.6202372"><ele>309.0</ele><time>2026-04-19T07:07:09.021Z</time></trkpt><trkpt lat="43.5048295" lon="10.6201676"><ele>309.0</ele><time>2026-04-19T07:07:11.031Z</time></trkpt><trkpt lat="43.5048815" lon="10.6200868"><ele>309.0</ele><time>2026-04-19T07:07:20.036Z</time></trkpt><trkpt lat="43.5049356" lon="10.6199574"><ele>309.0</ele><time>2026-04-19T07:07:22.058Z</time></trkpt><trkpt lat="43.5049724" lon="10.6198817"><ele>309.0</ele><time>2026-04-19T07:07:23.031Z</time></trkpt><trkpt lat="43.5050127" lon="10.6197931"><ele>309.0</ele><time>2026-04-19T07:07:24.022Z</time></trkpt><trkpt lat="43.5050516" lon="10.6197031"><ele>309.0</ele><time>2026-04-19T07:07:25.023Z</time></trkpt><trkpt lat="43.5050839" lon="10.6196136"><ele>309.0</ele><time>2026-04-19T07:07:26.015Z</time></trkpt><trkpt lat="43.5051105" lon="10.6195245"><ele>309.0</ele><time>2026-04-19T07:07:27.05Z</time></trkpt><trkpt lat="43.5051373" lon="10.6194381"><ele>309.0</ele><time>2026-04-19T07:07:28.018Z</time></trkpt><trkpt lat="43.5051732" lon="10.6193646"><ele>309.0</ele><time>2026-04-19T07:07:29.029Z</time></trkpt><trkpt lat="43.5052723" lon="10.6193312"><ele>309.0</ele><time>2026-04-19T07:07:31.04Z</time></trkpt><trkpt lat="43.5053482" lon="10.6193505"><ele>307.7142857142857</ele><time>2026-04-19T07:07:32.025Z</time></trkpt><trkpt lat="43.5054279" lon="10.6193673"><ele>306.42857142857144</ele><time>2026-04-19T07:07:33.035Z</time></trkpt><trkpt lat="43.5055152" lon="10.6194011"><ele>305.1428571428571</ele><time>2026-04-19T07:07:34.017Z</time></trkpt><trkpt lat="43.5055911" lon="10.6194217"><ele>303.8571428571429</ele><time>2026-04-19T07:07:35.031Z</time></trkpt><trkpt lat="43.5056533" lon="10.6194476"><ele>302.57142857142856</ele><time>2026-04-19T07:07:36.016Z</time></trkpt><trkpt lat="43.5057166" lon="10.6194595"><ele>301.2857142857143</ele><time>2026-04-19T07:07:37.015Z</time></trkpt><trkpt lat="43.5057877" lon="10.6194528"><ele>300.0</ele><time>2026-04-19T07:07:38.023Z</time></trkpt><trkpt lat="43.5058683" lon="10.6194387"><ele>300.0</ele><time>2026-04-19T07:07:39.021Z</time></trkpt><trkpt lat="43.5059612" lon="10.6194035"><ele>300.0</ele><time>2026-04-19T07:07:40.016Z</time></trkpt><trkpt lat="43.5060609" lon="10.6193589"><ele>300.0</ele><time>2026-04-19T07:07:41.017Z</time></trkpt><trkpt lat="43.5061628" lon="10.6193272"><ele>300.0</ele><time>2026-04-19T07:07:42.015Z</time></trkpt><trkpt lat="43.5062557" lon="10.6193075"><ele>300.0</ele><time>2026-04-19T07:07:43.018Z</time></trkpt><trkpt lat="43.5063526" lon="10.6193013"><ele>298.1666666666667</ele><time>2026-04-19T07:07:44.023Z</time></trkpt><trkpt lat="43.5064473" lon="10.6193101"><ele>296.3333333333333</ele><time>2026-04-19T07:07:45.014Z</time></trkpt><trkpt lat="43.5065317" lon="10.619317"><ele>294.5</ele><time>2026-04-19T07:07:46.011Z</time></trkpt><trkpt lat="43.5066057" lon="10.6192972"><ele>292.66666666666663</ele><time>2026-04-19T07:07:47.019Z</time></trkpt><trkpt lat="43.5066785" lon="10.6192674"><ele>290.8333333333333</ele><time>2026-04-19T07:07:48.018Z</time></trkpt><trkpt lat="43.5067404" lon="10.6192343"><ele>289.0</ele><time>2026-04-19T07:07:49.02Z</time></trkpt><trkpt lat="43.5068011" lon="10.6192053"><ele>289.0</ele><time>2026-04-19T07:07:50.017Z</time></trkpt><trkpt lat="43.5068635" lon="10.6191733"><ele>289.0</ele><time>2026-04-19T07:07:51.029Z</time></trkpt><trkpt lat="43.5069287" lon="10.6191233"><ele>289.0</ele><time>2026-04-19T07:07:52.02Z</time></trkpt><trkpt lat="43.5069919" lon="10.6190343"><ele>289.0</ele><time>2026-04-19T07:07:53.046Z</time></trkpt><trkpt lat="43.5070509" lon="10.6189512"><ele>289.0</ele><time>2026-04-19T07:07:54.018Z</time></trkpt><trkpt lat="43.5071147" lon="10.6188766"><ele>289.0</ele><time>2026-04-19T07:07:55.021Z</time></trkpt><trkpt lat="43.5071819" lon="10.6188129"><ele>288.2</ele><time>2026-04-19T07:07:56.033Z</time></trkpt><trkpt lat="43.507254" lon="10.6187503"><ele>287.4</ele><time>2026-04-19T07:07:57.016Z</time></trkpt><trkpt lat="43.5073381" lon="10.618704"><ele>286.6</ele><time>2026-04-19T07:07:58.028Z</time></trkpt><trkpt lat="43.507436" lon="10.6186761"><ele>285.8</ele><time>2026-04-19T07:07:59.035Z</time></trkpt><trkpt lat="43.5075355" lon="10.6186389"><ele>285.0</ele><time>2026-04-19T07:08:00.029Z</time></trkpt><trkpt lat="43.5076257" lon="10.6185795"><ele>285.0</ele><time>2026-04-19T07:08:01.025Z</time></trkpt><trkpt lat="43.5077068" lon="10.6184917"><ele>285.0</ele><time>2026-04-19T07:08:02.026Z</time></trkpt><trkpt lat="43.5077805" lon="10.6183938"><ele>285.0</ele><time>2026-04-19T07:08:03.025Z</time></trkpt><trkpt lat="43.507852" lon="10.6182902"><ele>285.0</ele><time>2026-04-19T07:08:04.04Z</time></trkpt><trkpt lat="43.5079196" lon="10.6181775"><ele>285.0</ele><time>2026-04-19T07:08:05.026Z</time></trkpt><trkpt lat="43.5079844" lon="10.6180485"><ele>286.0</ele><time>2026-04-19T07:08:06.032Z</time></trkpt><trkpt lat="43.5080489" lon="10.6178909"><ele>287.0</ele><time>2026-04-19T07:08:07.027Z</time></trkpt><trkpt lat="43.5081046" lon="10.6177388"><ele>288.0</ele><time>2026-04-19T07:08:08.028Z</time></trkpt><trkpt lat="43.5081619" lon="10.6175961"><ele>289.0</ele><time>2026-04-19T07:08:09.025Z</time></trkpt><trkpt lat="43.5082138" lon="10.6174582"><ele>289.0</ele><time>2026-04-19T07:08:10.027Z</time></trkpt><trkpt lat="43.508265" lon="10.6173158"><ele>289.0</ele><time>2026-04-19T07:08:11.013Z</time></trkpt><trkpt lat="43.5083108" lon="10.6171906"><ele>289.0</ele><time>2026-04-19T07:08:12.016Z</time></trkpt><trkpt lat="43.5083708" lon="10.6170722"><ele>289.0</ele><time>2026-04-19T07:08:13.023Z</time></trkpt><trkpt lat="43.5084405" lon="10.6169577"><ele>289.0</ele><time>2026-04-19T07:08:14.016Z</time></trkpt><trkpt lat="43.508523" lon="10.6168486"><ele>289.59999999999997</ele><time>2026-04-19T07:08:15.025Z</time></trkpt><trkpt lat="43.5086056" lon="10.6167361"><ele>290.2</ele><time>2026-04-19T07:08:16.017Z</time></trkpt><trkpt lat="43.5086932" lon="10.6166234"><ele>290.79999999999995</ele><time>2026-04-19T07:08:17.026Z</time></trkpt><trkpt lat="43.5087688" lon="10.616515"><ele>291.4</ele><time>2026-04-19T07:08:18.037Z</time></trkpt><trkpt lat="43.5088397" lon="10.6164228"><ele>292.0</ele><time>2026-04-19T07:08:19.026Z</time></trkpt><trkpt lat="43.5089011" lon="10.6163632"><ele>292.0</ele><time>2026-04-19T07:08:20.025Z</time></trkpt><trkpt lat="43.5089998" lon="10.6163128"><ele>292.0</ele><time>2026-04-19T07:08:22.03Z</time></trkpt><trkpt lat="43.5090582" lon="10.6161835"><ele>292.0</ele><time>2026-04-19T07:08:24.032Z</time></trkpt><trkpt lat="43.5090701" lon="10.6160531"><ele>292.0</ele><time>2026-04-19T07:08:26.038Z</time></trkpt><trkpt lat="43.5090888" lon="10.615963"><ele>292.0</ele><time>2026-04-19T07:08:27.028Z</time></trkpt><trkpt lat="43.5091395" lon="10.6158409"><ele>292.5</ele><time>2026-04-19T07:08:28.023Z</time></trkpt><trkpt lat="43.5091887" lon="10.6157193"><ele>293.0</ele><time>2026-04-19T07:08:29.021Z</time></trkpt><trkpt lat="43.5092248" lon="10.6155691"><ele>293.5</ele><time>2026-04-19T07:08:30.025Z</time></trkpt><trkpt lat="43.5092641" lon="10.6154168"><ele>294.0</ele><time>2026-04-19T07:08:31.021Z</time></trkpt><trkpt lat="43.5093086" lon="10.6152489"><ele>294.5</ele><time>2026-04-19T07:08:32.024Z</time></trkpt><trkpt lat="43.5093528" lon="10.6150746"><ele>295.0</ele><time>2026-04-19T07:08:33.019Z</time></trkpt><trkpt lat="43.5093979" lon="10.6149133"><ele>295.5</ele><time>2026-04-19T07:08:34.033Z</time></trkpt><trkpt lat="43.5094385" lon="10.6147715"><ele>296.0</ele><time>2026-04-19T07:08:35.031Z</time></trkpt><trkpt lat="43.5094772" lon="10.6146418"><ele>296.0</ele><time>2026-04-19T07:08:36.03Z</time></trkpt><trkpt lat="43.5095252" lon="10.61453"><ele>296.0</ele><time>2026-04-19T07:08:37.019Z</time></trkpt><trkpt lat="43.5095708" lon="10.6144442"><ele>296.0</ele><time>2026-04-19T07:08:38.028Z</time></trkpt><trkpt lat="43.5096301" lon="10.6143471"><ele>296.0</ele><time>2026-04-19T07:08:40.019Z</time></trkpt><trkpt lat="43.5095568" lon="10.6144072"><ele>296.0</ele><time>2026-04-19T07:08:52.024Z</time></trkpt><trkpt lat="43.5095273" lon="10.6145264"><ele>296.0</ele><time>2026-04-19T07:08:53.023Z</time></trkpt><trkpt lat="43.5094633" lon="10.6146811"><ele>296.0</ele><time>2026-04-19T07:08:54.017Z</time></trkpt><trkpt lat="43.5094007" lon="10.6148889"><ele>296.0</ele><time>2026-04-19T07:08:55.017Z</time></trkpt><trkpt lat="43.5093315" lon="10.6150838"><ele>296.0</ele><time>2026-04-19T07:08:56.029Z</time></trkpt><trkpt lat="43.5092801" lon="10.615277"><ele>295.6</ele><time>2026-04-19T07:08:57.022Z</time></trkpt><trkpt lat="43.5092473" lon="10.6154337"><ele>295.20000000000005</ele><time>2026-04-19T07:08:58.021Z</time></trkpt><trkpt lat="43.5092191" lon="10.6155762"><ele>294.79999999999995</ele><time>2026-04-19T07:08:59.021Z</time></trkpt><trkpt lat="43.5091826" lon="10.6156975"><ele>294.4</ele><time>2026-04-19T07:09:00.024Z</time></trkpt><trkpt lat="43.5091522" lon="10.6157856"><ele>294.0</ele><time>2026-04-19T07:09:01.015Z</time></trkpt><trkpt lat="43.5091204" lon="10.6158733"><ele>294.0</ele><time>2026-04-19T07:09:02.021Z</time></trkpt><trkpt lat="43.5090664" lon="10.6159387"><ele>294.0</ele><time>2026-04-19T07:09:03.021Z</time></trkpt><trkpt lat="43.5089626" lon="10.6159575"><ele>294.0</ele><time>2026-04-19T07:09:05.051Z</time></trkpt><trkpt lat="43.5089034" lon="10.6158141"><ele>294.0</ele><time>2026-04-19T07:09:07.027Z</time></trkpt><trkpt lat="43.5088818" lon="10.6156944"><ele>294.0</ele><time>2026-04-19T07:09:08.03Z</time></trkpt><trkpt lat="43.5088701" lon="10.6155437"><ele>294.0</ele><time>2026-04-19T07:09:09.034Z</time></trkpt><trkpt lat="43.5088326" lon="10.6153839"><ele>294.0</ele><time>2026-04-19T07:09:10.033Z</time></trkpt><trkpt lat="43.5087801" lon="10.6152346"><ele>294.0</ele><time>2026-04-19T07:09:11.031Z</time></trkpt><trkpt lat="43.5087132" lon="10.6151376"><ele>294.0</ele><time>2026-04-19T07:09:12.031Z</time></trkpt><trkpt lat="43.5086456" lon="10.6150987"><ele>294.0</ele><time>2026-04-19T07:09:13.023Z</time></trkpt><trkpt lat="43.5085555" lon="10.6151583"><ele>296.4</ele><time>2026-04-19T07:09:15.016Z</time></trkpt><trkpt lat="43.5084971" lon="10.6152536"><ele>298.79999999999995</ele><time>2026-04-19T07:09:16.026Z</time></trkpt><trkpt lat="43.5084334" lon="10.6153618"><ele>301.20000000000005</ele><time>2026-04-19T07:09:17.023Z</time></trkpt><trkpt lat="43.5083637" lon="10.6154456"><ele>303.6</ele><time>2026-04-19T07:09:18.03Z</time></trkpt><trkpt lat="43.5082596" lon="10.6155242"><ele>306.0</ele><time>2026-04-19T07:09:19.046Z</time></trkpt><trkpt lat="43.5081545" lon="10.6155839"><ele>306.0</ele><time>2026-04-19T07:09:20.03Z</time></trkpt><trkpt lat="43.5080375" lon="10.6156264"><ele>306.0</ele><time>2026-04-19T07:09:21.031Z</time></trkpt><trkpt lat="43.5079101" lon="10.6156654"><ele>306.0</ele><time>2026-04-19T07:09:22.031Z</time></trkpt><trkpt lat="43.5077835" lon="10.615732"><ele>306.0</ele><time>2026-04-19T07:09:23.018Z</time></trkpt><trkpt lat="43.5076494" lon="10.6158058"><ele>308.0</ele><time>2026-04-19T07:09:24.028Z</time></trkpt><trkpt lat="43.5075459" lon="10.6158754"><ele>310.0</ele><time>2026-04-19T07:09:25.025Z</time></trkpt><trkpt lat="43.5074454" lon="10.6159308"><ele>312.0</ele><time>2026-04-19T07:09:26.016Z</time></trkpt><trkpt lat="43.5073431" lon="10.6159734"><ele>314.0</ele><time>2026-04-19T07:09:27.014Z</time></trkpt><trkpt lat="43.5072424" lon="10.6159946"><ele>316.0</ele><time>2026-04-19T07:09:28.021Z</time></trkpt><trkpt lat="43.5071463" lon="10.6160085"><ele>317.4</ele><time>2026-04-19T07:09:29.013Z</time></trkpt><trkpt lat="43.5070408" lon="10.6160244"><ele>318.8</ele><time>2026-04-19T07:09:30.037Z</time></trkpt><trkpt lat="43.5069349" lon="10.6160387"><ele>320.2</ele><time>2026-04-19T07:09:31.022Z</time></trkpt><trkpt lat="43.5068328" lon="10.6160471"><ele>321.59999999999997</ele><time>2026-04-19T07:09:32.023Z</time></trkpt><trkpt lat="43.5067508" lon="10.6160344"><ele>323.0</ele><time>2026-04-19T07:09:33.02Z</time></trkpt><trkpt lat="43.5066938" lon="10.6159886"><ele>323.0</ele><time>2026-04-19T07:09:34.02Z</time></trkpt><trkpt lat="43.5066341" lon="10.6159161"><ele>323.0</ele><time>2026-04-19T07:09:35.028Z</time></trkpt><trkpt lat="43.5065716" lon="10.6158293"><ele>323.0</ele><time>2026-04-19T07:09:36.03Z</time></trkpt><trkpt lat="43.506506" lon="10.615726"><ele>323.0</ele><time>2026-04-19T07:09:37.023Z</time></trkpt><trkpt lat="43.5064405" lon="10.6156031"><ele>323.0</ele><time>2026-04-19T07:09:38.017Z</time></trkpt><trkpt lat="43.5063728" lon="10.6154827"><ele>323.0</ele><time>2026-04-19T07:09:39.016Z</time></trkpt><trkpt lat="43.5063116" lon="10.6153519"><ele>323.0</ele><time>2026-04-19T07:09:40.019Z</time></trkpt><trkpt lat="43.5062457" lon="10.615221"><ele>323.0</ele><time>2026-04-19T07:09:41.02Z</time></trkpt><trkpt lat="43.5061899" lon="10.6151016"><ele>323.0</ele><time>2026-04-19T07:09:42.024Z</time></trkpt><trkpt lat="43.5061357" lon="10.6149934"><ele>323.0</ele><time>2026-04-19T07:09:43.017Z</time></trkpt><trkpt lat="43.5060852" lon="10.6149035"><ele>324.33333333333337</ele><time>2026-04-19T07:09:44.025Z</time></trkpt><trkpt lat="43.5060416" lon="10.6148098"><ele>325.6666666666667</ele><time>2026-04-19T07:09:45.02Z</time></trkpt><trkpt lat="43.5060061" lon="10.6147061"><ele>327.0</ele><time>2026-04-19T07:09:46.019Z</time></trkpt><trkpt lat="43.5059734" lon="10.6145864"><ele>328.3333333333333</ele><time>2026-04-19T07:09:47.042Z</time></trkpt><trkpt lat="43.5059457" lon="10.6144728"><ele>329.66666666666663</ele><time>2026-04-19T07:09:48.017Z</time></trkpt><trkpt lat="43.5059205" lon="10.6143501"><ele>331.0</ele><time>2026-04-19T07:09:49.015Z</time></trkpt><trkpt lat="43.5058991" lon="10.6142191"><ele>331.0</ele><time>2026-04-19T07:09:50.025Z</time></trkpt><trkpt lat="43.5058789" lon="10.6140849"><ele>331.0</ele><time>2026-04-19T07:09:51.019Z</time></trkpt><trkpt lat="43.50586" lon="10.613955"><ele>331.0</ele><time>2026-04-19T07:09:52.056Z</time></trkpt><trkpt lat="43.5058406" lon="10.613823"><ele>331.0</ele><time>2026-04-19T07:09:53.022Z</time></trkpt><trkpt lat="43.5058224" lon="10.613692"><ele>331.0</ele><time>2026-04-19T07:09:54.022Z</time></trkpt><trkpt lat="43.5058005" lon="10.6135803"><ele>330.0</ele><time>2026-04-19T07:09:55.015Z</time></trkpt><trkpt lat="43.5057774" lon="10.613472"><ele>329.0</ele><time>2026-04-19T07:09:56.022Z</time></trkpt><trkpt lat="43.5057466" lon="10.6133742"><ele>328.0</ele><time>2026-04-19T07:09:57.016Z</time></trkpt><trkpt lat="43.5057159" lon="10.6132763"><ele>327.0</ele><time>2026-04-19T07:09:58.018Z</time></trkpt><trkpt lat="43.5056855" lon="10.6131831"><ele>326.0</ele><time>2026-04-19T07:09:59.017Z</time></trkpt><trkpt lat="43.505659" lon="10.6130949"><ele>325.0</ele><time>2026-04-19T07:10:00.033Z</time></trkpt><trkpt lat="43.5056188" lon="10.6130041"><ele>325.0</ele><time>2026-04-19T07:10:01.024Z</time></trkpt><trkpt lat="43.5055602" lon="10.6129027"><ele>325.0</ele><time>2026-04-19T07:10:02.017Z</time></trkpt><trkpt lat="43.5054836" lon="10.6127962"><ele>325.0</ele><time>2026-04-19T07:10:03.025Z</time></trkpt><trkpt lat="43.5054042" lon="10.612682"><ele>325.0</ele><time>2026-04-19T07:10:04.014Z</time></trkpt><trkpt lat="43.5053155" lon="10.6125668"><ele>325.0</ele><time>2026-04-19T07:10:05.015Z</time></trkpt><trkpt lat="43.5052499" lon="10.6124591"><ele>324.25</ele><time>2026-04-19T07:10:06.014Z</time></trkpt><trkpt lat="43.5051746" lon="10.6123811"><ele>323.5</ele><time>2026-04-19T07:10:07.018Z</time></trkpt><trkpt lat="43.5050835" lon="10.6123248"><ele>322.75</ele><time>2026-04-19T07:10:08.029Z</time></trkpt><trkpt lat="43.504957" lon="10.6122917"><ele>322.0</ele><time>2026-04-19T07:10:09.029Z</time></trkpt><trkpt lat="43.5048052" lon="10.6122815"><ele>322.0</ele><time>2026-04-19T07:10:10.023Z</time></trkpt><trkpt lat="43.5046724" lon="10.612284"><ele>322.0</ele><time>2026-04-19T07:10:11.018Z</time></trkpt><trkpt lat="43.5045682" lon="10.6122594"><ele>322.0</ele><time>2026-04-19T07:10:12.015Z</time></trkpt><trkpt lat="43.504462" lon="10.6122164"><ele>322.0</ele><time>2026-04-19T07:10:13.027Z</time></trkpt><trkpt lat="43.5043565" lon="10.6121267"><ele>321.25</ele><time>2026-04-19T07:10:14.021Z</time></trkpt><trkpt lat="43.5042374" lon="10.6120038"><ele>320.5</ele><time>2026-04-19T07:10:15.022Z</time></trkpt><trkpt lat="43.5041332" lon="10.6118847"><ele>319.75</ele><time>2026-04-19T07:10:16.028Z</time></trkpt><trkpt lat="43.504028" lon="10.6117747"><ele>319.0</ele><time>2026-04-19T07:10:17.024Z</time></trkpt><trkpt lat="43.5039218" lon="10.6116728"><ele>319.0</ele><time>2026-04-19T07:10:18.025Z</time></trkpt><trkpt lat="43.503816" lon="10.6115757"><ele>319.0</ele><time>2026-04-19T07:10:19.015Z</time></trkpt><trkpt lat="43.5037009" lon="10.6114989"><ele>319.0</ele><time>2026-04-19T07:10:20.038Z</time></trkpt><trkpt lat="43.5035813" lon="10.6114447"><ele>319.0</ele><time>2026-04-19T07:10:21.019Z</time></trkpt><trkpt lat="43.5034682" lon="10.6114122"><ele>320.6</ele><time>2026-04-19T07:10:22.015Z</time></trkpt><trkpt lat="43.5033674" lon="10.6114046"><ele>322.2</ele><time>2026-04-19T07:10:23.022Z</time></trkpt><trkpt lat="43.5032618" lon="10.6113951"><ele>323.8</ele><time>2026-04-19T07:10:24.017Z</time></trkpt><trkpt lat="43.5031774" lon="10.611418"><ele>325.40000000000003</ele><time>2026-04-19T07:10:25.018Z</time></trkpt><trkpt lat="43.50309" lon="10.6114792"><ele>327.0</ele><time>2026-04-19T07:10:26.014Z</time></trkpt><trkpt lat="43.5030035" lon="10.6115483"><ele>327.0</ele><time>2026-04-19T07:10:27.015Z</time></trkpt><trkpt lat="43.5029235" lon="10.6115941"><ele>327.0</ele><time>2026-04-19T07:10:28.013Z</time></trkpt><trkpt lat="43.5028599" lon="10.6115909"><ele>327.0</ele><time>2026-04-19T07:10:29.016Z</time></trkpt><trkpt lat="43.5028098" lon="10.6115016"><ele>327.0</ele><time>2026-04-19T07:10:31.018Z</time></trkpt><trkpt lat="43.5028235" lon="10.6113622"><ele>327.0</ele><time>2026-04-19T07:10:33.017Z</time></trkpt><trkpt lat="43.5028757" lon="10.6112796"><ele>327.0</ele><time>2026-04-19T07:10:34.01Z</time></trkpt><trkpt lat="43.502948" lon="10.6112007"><ele>326.20000000000005</ele><time>2026-04-19T07:10:35.009Z</time></trkpt><trkpt lat="43.5030298" lon="10.6111026"><ele>325.4</ele><time>2026-04-19T07:10:36.015Z</time></trkpt><trkpt lat="43.5031006" lon="10.6109842"><ele>324.6</ele><time>2026-04-19T07:10:37.016Z</time></trkpt><trkpt lat="43.5031448" lon="10.6108716"><ele>323.79999999999995</ele><time>2026-04-19T07:10:38.025Z</time></trkpt><trkpt lat="43.5031607" lon="10.6107386"><ele>323.0</ele><time>2026-04-19T07:10:39.018Z</time></trkpt><trkpt lat="43.503125" lon="10.6106224"><ele>323.0</ele><time>2026-04-19T07:10:40.014Z</time></trkpt><trkpt lat="43.5030771" lon="10.6105004"><ele>323.0</ele><time>2026-04-19T07:10:41.018Z</time></trkpt><trkpt lat="43.5030308" lon="10.6103698"><ele>323.0</ele><time>2026-04-19T07:10:42.013Z</time></trkpt><trkpt lat="43.50299" lon="10.6102316"><ele>323.0</ele><time>2026-04-19T07:10:43.021Z</time></trkpt><trkpt lat="43.5029777" lon="10.6100958"><ele>323.0</ele><time>2026-04-19T07:10:44.026Z</time></trkpt><trkpt lat="43.5029796" lon="10.6099582"><ele>322.4</ele><time>2026-04-19T07:10:45.017Z</time></trkpt><trkpt lat="43.5029817" lon="10.6098523"><ele>321.79999999999995</ele><time>2026-04-19T07:10:46.014Z</time></trkpt><trkpt lat="43.5029613" lon="10.6096959"><ele>321.2</ele><time>2026-04-19T07:10:48.023Z</time></trkpt><trkpt lat="43.5029337" lon="10.6096094"><ele>320.6</ele><time>2026-04-19T07:10:50.01Z</time></trkpt><trkpt lat="43.5028499" lon="10.6095045"><ele>320.0</ele><time>2026-04-19T07:10:53.018Z</time></trkpt><trkpt lat="43.502776" lon="10.6094289"><ele>322.1666666666667</ele><time>2026-04-19T07:10:54.021Z</time></trkpt><trkpt lat="43.5027077" lon="10.6093674"><ele>324.33333333333337</ele><time>2026-04-19T07:10:55.012Z</time></trkpt><trkpt lat="43.5026389" lon="10.6093388"><ele>326.5</ele><time>2026-04-19T07:10:56.021Z</time></trkpt><trkpt lat="43.5025662" lon="10.6093304"><ele>328.6666666666667</ele><time>2026-04-19T07:10:57.025Z</time></trkpt><trkpt lat="43.5024934" lon="10.6093374"><ele>330.8333333333333</ele><time>2026-04-19T07:10:58.01Z</time></trkpt><trkpt lat="43.5024062" lon="10.6093791"><ele>333.0</ele><time>2026-04-19T07:10:59.013Z</time></trkpt><trkpt lat="43.5023158" lon="10.6094465"><ele>336.5</ele><time>2026-04-19T07:11:00.022Z</time></trkpt><trkpt lat="43.502207" lon="10.6095141"><ele>340.0</ele><time>2026-04-19T07:11:01.016Z</time></trkpt><trkpt lat="43.5020981" lon="10.6095967"><ele>343.5</ele><time>2026-04-19T07:11:02.031Z</time></trkpt><trkpt lat="43.5019891" lon="10.6096508"><ele>347.0</ele><time>2026-04-19T07:11:03.022Z</time></trkpt><trkpt lat="43.5018778" lon="10.6096835"><ele>348.0</ele><time>2026-04-19T07:11:04.018Z</time></trkpt><trkpt lat="43.5017696" lon="10.609717"><ele>349.0</ele><time>2026-04-19T07:11:05.02Z</time></trkpt><trkpt lat="43.5016797" lon="10.6097021"><ele>350.0</ele><time>2026-04-19T07:11:06.015Z</time></trkpt><trkpt lat="43.5015851" lon="10.6096488"><ele>351.0</ele><time>2026-04-19T07:11:07.015Z</time></trkpt><trkpt lat="43.5015088" lon="10.6095787"><ele>352.0</ele><time>2026-04-19T07:11:08.028Z</time></trkpt><trkpt lat="43.5014292" lon="10.6095037"><ele>353.25</ele><time>2026-04-19T07:11:09.017Z</time></trkpt><trkpt lat="43.5013287" lon="10.6094469"><ele>354.5</ele><time>2026-04-19T07:11:10.021Z</time></trkpt><trkpt lat="43.5012281" lon="10.6094449"><ele>355.75</ele><time>2026-04-19T07:11:11.02Z</time></trkpt><trkpt lat="43.5011128" lon="10.6095054"><ele>357.0</ele><time>2026-04-19T07:11:12.026Z</time></trkpt><trkpt lat="43.5009925" lon="10.6095707"><ele>357.0</ele><time>2026-04-19T07:11:13.014Z</time></trkpt><trkpt lat="43.5008729" lon="10.6095767"><ele>357.0</ele><time>2026-04-19T07:11:14.021Z</time></trkpt><trkpt lat="43.5007542" lon="10.6095106"><ele>357.0</ele><time>2026-04-19T07:11:15.019Z</time></trkpt><trkpt lat="43.5006822" lon="10.6094333"><ele>357.0</ele><time>2026-04-19T07:11:16.022Z</time></trkpt><trkpt lat="43.5006227" lon="10.6092939"><ele>357.0</ele><time>2026-04-19T07:11:17.024Z</time></trkpt><trkpt lat="43.5005424" lon="10.6091667"><ele>357.0</ele><time>2026-04-19T07:11:18.014Z</time></trkpt><trkpt lat="43.5004302" lon="10.6090614"><ele>357.0</ele><time>2026-04-19T07:11:19.029Z</time></trkpt><trkpt lat="43.5003031" lon="10.6089625"><ele>357.0</ele><time>2026-04-19T07:11:20.013Z</time></trkpt><trkpt lat="43.5002161" lon="10.6088113"><ele>361.6666666666667</ele><time>2026-04-19T07:11:21.028Z</time></trkpt><trkpt lat="43.5001482" lon="10.6086067"><ele>366.33333333333337</ele><time>2026-04-19T07:11:22.016Z</time></trkpt><trkpt lat="43.5000575" lon="10.6083768"><ele>371.0</ele><time>2026-04-19T07:11:23.011Z</time></trkpt><trkpt lat="43.4999388" lon="10.6081641"><ele>371.0</ele><time>2026-04-19T07:11:24.013Z</time></trkpt><trkpt lat="43.4998242" lon="10.6079745"><ele>371.0</ele><time>2026-04-19T07:11:25.007Z</time></trkpt><trkpt lat="43.4997212" lon="10.6078489"><ele>371.0</ele><time>2026-04-19T07:11:26.025Z</time></trkpt><trkpt lat="43.4996389" lon="10.6077261"><ele>371.0</ele><time>2026-04-19T07:11:27.014Z</time></trkpt><trkpt lat="43.4995442" lon="10.6076489"><ele>374.0</ele><time>2026-04-19T07:11:28.011Z</time></trkpt><trkpt lat="43.4994173" lon="10.6075963"><ele>377.0</ele><time>2026-04-19T07:11:29.006Z</time></trkpt><trkpt lat="43.4993016" lon="10.6075372"><ele>380.0</ele><time>2026-04-19T07:11:30.014Z</time></trkpt><trkpt lat="43.4992154" lon="10.6074624"><ele>383.0</ele><time>2026-04-19T07:11:31.015Z</time></trkpt><trkpt lat="43.4991453" lon="10.6073678"><ele>383.0</ele><time>2026-04-19T07:11:32.025Z</time></trkpt><trkpt lat="43.4991303" lon="10.6072658"><ele>383.0</ele><time>2026-04-19T07:11:33.011Z</time></trkpt><trkpt lat="43.4991414" lon="10.6071589"><ele>383.0</ele><time>2026-04-19T07:11:34.017Z</time></trkpt><trkpt lat="43.4991671" lon="10.6069971"><ele>383.0</ele><time>2026-04-19T07:11:35.007Z</time></trkpt><trkpt lat="43.4991898" lon="10.6068469"><ele>383.0</ele><time>2026-04-19T07:11:36.02Z</time></trkpt><trkpt lat="43.4991704" lon="10.6067132"><ele>384.0</ele><time>2026-04-19T07:11:37.018Z</time></trkpt><trkpt lat="43.499116" lon="10.606587"><ele>385.0</ele><time>2026-04-19T07:11:38.017Z</time></trkpt><trkpt lat="43.4990161" lon="10.6064443"><ele>386.0</ele><time>2026-04-19T07:11:39.019Z</time></trkpt><trkpt lat="43.4989332" lon="10.6063072"><ele>387.0</ele><time>2026-04-19T07:11:40.012Z</time></trkpt><trkpt lat="43.498876" lon="10.6061461"><ele>387.25</ele><time>2026-04-19T07:11:41.013Z</time></trkpt><trkpt lat="43.4988678" lon="10.6059998"><ele>387.5</ele><time>2026-04-19T07:11:42.016Z</time></trkpt><trkpt lat="43.4988737" lon="10.6058163"><ele>387.75</ele><time>2026-04-19T07:11:43.011Z</time></trkpt><trkpt lat="43.4988557" lon="10.6056173"><ele>388.0</ele><time>2026-04-19T07:11:44.033Z</time></trkpt><trkpt lat="43.4988161" lon="10.6054114"><ele>387.5</ele><time>2026-04-19T07:11:45.014Z</time></trkpt><trkpt lat="43.4987733" lon="10.6052153"><ele>387.0</ele><time>2026-04-19T07:11:46.01Z</time></trkpt><trkpt lat="43.498732" lon="10.6050501"><ele>386.5</ele><time>2026-04-19T07:11:47.024Z</time></trkpt><trkpt lat="43.4986853" lon="10.6048945"><ele>386.0</ele><time>2026-04-19T07:11:48.014Z</time></trkpt><trkpt lat="43.4986156" lon="10.6047693"><ele>389.8</ele><time>2026-04-19T07:11:49.021Z</time></trkpt><trkpt lat="43.4985246" lon="10.6046798"><ele>393.6</ele><time>2026-04-19T07:11:50.019Z</time></trkpt><trkpt lat="43.4984366" lon="10.6046188"><ele>397.4</ele><time>2026-04-19T07:11:51.013Z</time></trkpt><trkpt lat="43.498335" lon="10.6045827"><ele>401.2</ele><time>2026-04-19T07:11:52.018Z</time></trkpt><trkpt lat="43.4982318" lon="10.6045567"><ele>405.0</ele><time>2026-04-19T07:11:53.017Z</time></trkpt><trkpt lat="43.4981313" lon="10.6045265"><ele>403.25</ele><time>2026-04-19T07:11:54.017Z</time></trkpt><trkpt lat="43.4980176" lon="10.6044661"><ele>401.5</ele><time>2026-04-19T07:11:55.018Z</time></trkpt><trkpt lat="43.497911" lon="10.6043878"><ele>399.75</ele><time>2026-04-19T07:11:56.028Z</time></trkpt><trkpt lat="43.4978108" lon="10.6043561"><ele>398.0</ele><time>2026-04-19T07:11:57.019Z</time></trkpt><trkpt lat="43.4977054" lon="10.6043433"><ele>401.2</ele><time>2026-04-19T07:11:58.021Z</time></trkpt><trkpt lat="43.4976154" lon="10.6043323"><ele>404.4</ele><time>2026-04-19T07:11:59.017Z</time></trkpt><trkpt lat="43.4975475" lon="10.6042657"><ele>407.59999999999997</ele><time>2026-04-19T07:12:00.021Z</time></trkpt><trkpt lat="43.4974975" lon="10.6041752"><ele>410.79999999999995</ele><time>2026-04-19T07:12:01.019Z</time></trkpt><trkpt lat="43.4974446" lon="10.6040182"><ele>414.0</ele><time>2026-04-19T07:12:02.021Z</time></trkpt><trkpt lat="43.4973988" lon="10.6038776"><ele>414.0</ele><time>2026-04-19T07:12:03.025Z</time></trkpt><trkpt lat="43.4973668" lon="10.6037374"><ele>414.0</ele><time>2026-04-19T07:12:04.051Z</time></trkpt><trkpt lat="43.4973251" lon="10.6036401"><ele>414.0</ele><time>2026-04-19T07:12:05.014Z</time></trkpt><trkpt lat="43.4972826" lon="10.6035673"><ele>414.0</ele><time>2026-04-19T07:12:06.01Z</time></trkpt><trkpt lat="43.4972282" lon="10.6035049"><ele>414.0</ele><time>2026-04-19T07:12:07.029Z</time></trkpt><trkpt lat="43.4971792" lon="10.6034253"><ele>414.0</ele><time>2026-04-19T07:12:08.026Z</time></trkpt><trkpt lat="43.4971725" lon="10.6033068"><ele>414.79999999999995</ele><time>2026-04-19T07:12:09.021Z</time></trkpt><trkpt lat="43.4971818" lon="10.6031778"><ele>415.59999999999997</ele><time>2026-04-19T07:12:10.046Z</time></trkpt><trkpt lat="43.4971828" lon="10.6030467"><ele>416.4</ele><time>2026-04-19T07:12:11.015Z</time></trkpt><trkpt lat="43.4971409" lon="10.6029091"><ele>417.2</ele><time>2026-04-19T07:12:12.03Z</time></trkpt><trkpt lat="43.4970594" lon="10.6027617"><ele>418.0</ele><time>2026-04-19T07:12:13.02Z</time></trkpt><trkpt lat="43.4969773" lon="10.6026066"><ele>421.5</ele><time>2026-04-19T07:12:14.018Z</time></trkpt><trkpt lat="43.4968994" lon="10.6024418"><ele>425.0</ele><time>2026-04-19T07:12:15.018Z</time></trkpt><trkpt lat="43.4968277" lon="10.602278"><ele>428.5</ele><time>2026-04-19T07:12:16.024Z</time></trkpt><trkpt lat="43.496765" lon="10.6021292"><ele>432.0</ele><time>2026-04-19T07:12:17.013Z</time></trkpt><trkpt lat="43.4967205" lon="10.6019751"><ele>432.0</ele><time>2026-04-19T07:12:18.03Z</time></trkpt><trkpt lat="43.4966947" lon="10.6018123"><ele>432.00000000000006</ele><time>2026-04-19T07:12:19.016Z</time></trkpt><trkpt lat="43.496698" lon="10.6016588"><ele>432.00000000000006</ele><time>2026-04-19T07:12:20.038Z</time></trkpt><trkpt lat="43.4966809" lon="10.6015393"><ele>432.0</ele><time>2026-04-19T07:12:21.023Z</time></trkpt><trkpt lat="43.4966342" lon="10.6014681"><ele>432.0</ele><time>2026-04-19T07:12:22.026Z</time></trkpt><trkpt lat="43.4965532" lon="10.6013985"><ele>432.0</ele><time>2026-04-19T07:12:23.019Z</time></trkpt><trkpt lat="43.4964499" lon="10.6013703"><ele>432.0</ele><time>2026-04-19T07:12:24.027Z</time></trkpt><trkpt lat="43.4963302" lon="10.6013458"><ele>432.0</ele><time>2026-04-19T07:12:25.026Z</time></trkpt><trkpt lat="43.4961982" lon="10.6013184"><ele>432.0</ele><time>2026-04-19T07:12:26.028Z</time></trkpt><trkpt lat="43.4960508" lon="10.601268"><ele>433.33333333333337</ele><time>2026-04-19T07:12:27.062Z</time></trkpt><trkpt lat="43.4958847" lon="10.6012186"><ele>434.6666666666667</ele><time>2026-04-19T07:12:28.024Z</time></trkpt><trkpt lat="43.4957022" lon="10.6011661"><ele>436.0</ele><time>2026-04-19T07:12:29.019Z</time></trkpt><trkpt lat="43.4955279" lon="10.6010889"><ele>438.6666666666667</ele><time>2026-04-19T07:12:30.016Z</time></trkpt><trkpt lat="43.4953658" lon="10.6010121"><ele>441.33333333333337</ele><time>2026-04-19T07:12:31.02Z</time></trkpt><trkpt lat="43.4952149" lon="10.6009438"><ele>444.0</ele><time>2026-04-19T07:12:32.025Z</time></trkpt><trkpt lat="43.4950923" lon="10.6008956"><ele>444.0</ele><time>2026-04-19T07:12:33.018Z</time></trkpt><trkpt lat="43.4949625" lon="10.6008742"><ele>444.0</ele><time>2026-04-19T07:12:34.021Z</time></trkpt><trkpt lat="43.4948418" lon="10.6008783"><ele>444.0</ele><time>2026-04-19T07:12:35.023Z</time></trkpt><trkpt lat="43.4947391" lon="10.6009085"><ele>444.0</ele><time>2026-04-19T07:12:36.021Z</time></trkpt><trkpt lat="43.494651" lon="10.6009676"><ele>445.79999999999995</ele><time>2026-04-19T07:12:37.018Z</time></trkpt><trkpt lat="43.4945479" lon="10.6010612"><ele>447.59999999999997</ele><time>2026-04-19T07:12:38.031Z</time></trkpt><trkpt lat="43.4944594" lon="10.6011487"><ele>449.4</ele><time>2026-04-19T07:12:39.02Z</time></trkpt><trkpt lat="43.4943894" lon="10.6012069"><ele>451.2</ele><time>2026-04-19T07:12:40.025Z</time></trkpt><trkpt lat="43.4943219" lon="10.601214"><ele>453.0</ele><time>2026-04-19T07:12:41.025Z</time></trkpt><trkpt lat="43.4942493" lon="10.6011644"><ele>453.0</ele><time>2026-04-19T07:12:42.028Z</time></trkpt><trkpt lat="43.4941517" lon="10.6010643"><ele>453.0</ele><time>2026-04-19T07:12:43.019Z</time></trkpt><trkpt lat="43.4940528" lon="10.6009534"><ele>453.0</ele><time>2026-04-19T07:12:44.028Z</time></trkpt><trkpt lat="43.4939195" lon="10.6008327"><ele>453.0</ele><time>2026-04-19T07:12:45.023Z</time></trkpt><trkpt lat="43.4937823" lon="10.6007332"><ele>456.0</ele><time>2026-04-19T07:12:46.035Z</time></trkpt><trkpt lat="43.4936373" lon="10.6006418"><ele>459.0</ele><time>2026-04-19T07:12:47.032Z</time></trkpt><trkpt lat="43.4935344" lon="10.600554"><ele>462.0</ele><time>2026-04-19T07:12:48.018Z</time></trkpt><trkpt lat="43.4934478" lon="10.6005017"><ele>465.0</ele><time>2026-04-19T07:12:49.061Z</time></trkpt><trkpt lat="43.4933454" lon="10.6005018"><ele>465.0</ele><time>2026-04-19T07:12:50.025Z</time></trkpt><trkpt lat="43.4932371" lon="10.600499"><ele>465.0</ele><time>2026-04-19T07:12:51.014Z</time></trkpt><trkpt lat="43.493119" lon="10.6005037"><ele>465.0</ele><time>2026-04-19T07:12:52.02Z</time></trkpt><trkpt lat="43.4929914" lon="10.6005304"><ele>465.0</ele><time>2026-04-19T07:12:53.024Z</time></trkpt><trkpt lat="43.4928702" lon="10.6005654"><ele>464.6666666666667</ele><time>2026-04-19T07:12:54.036Z</time></trkpt><trkpt lat="43.4927859" lon="10.6005719"><ele>464.33333333333337</ele><time>2026-04-19T07:12:55.023Z</time></trkpt><trkpt lat="43.4927189" lon="10.6005649"><ele>464.0</ele><time>2026-04-19T07:12:56.019Z</time></trkpt><trkpt lat="43.4926589" lon="10.6005293"><ele>463.6666666666667</ele><time>2026-04-19T07:12:57.02Z</time></trkpt><trkpt lat="43.4925932" lon="10.6004613"><ele>463.33333333333337</ele><time>2026-04-19T07:12:58.026Z</time></trkpt><trkpt lat="43.4925257" lon="10.6003686"><ele>463.0</ele><time>2026-04-19T07:12:59.018Z</time></trkpt><trkpt lat="43.492473" lon="10.6002893"><ele>463.79999999999995</ele><time>2026-04-19T07:13:00.018Z</time></trkpt><trkpt lat="43.4924149" lon="10.6001946"><ele>464.59999999999997</ele><time>2026-04-19T07:13:01.019Z</time></trkpt><trkpt lat="43.4923401" lon="10.6000683"><ele>465.40000000000003</ele><time>2026-04-19T07:13:02.024Z</time></trkpt><trkpt lat="43.4922622" lon="10.5999921"><ele>466.20000000000005</ele><time>2026-04-19T07:13:03.034Z</time></trkpt><trkpt lat="43.4921785" lon="10.5999388"><ele>467.0</ele><time>2026-04-19T07:13:04.024Z</time></trkpt><trkpt lat="43.4920993" lon="10.5998855"><ele>467.20000000000005</ele><time>2026-04-19T07:13:05.016Z</time></trkpt><trkpt lat="43.4920324" lon="10.5997945"><ele>467.40000000000003</ele><time>2026-04-19T07:13:06.029Z</time></trkpt><trkpt lat="43.4919931" lon="10.5996672"><ele>467.59999999999997</ele><time>2026-04-19T07:13:07.026Z</time></trkpt><trkpt lat="43.4919848" lon="10.599521"><ele>467.79999999999995</ele><time>2026-04-19T07:13:08.029Z</time></trkpt><trkpt lat="43.4919763" lon="10.5993374"><ele>468.0</ele><time>2026-04-19T07:13:09.024Z</time></trkpt><trkpt lat="43.4919759" lon="10.5991511"><ele>468.0</ele><time>2026-04-19T07:13:10.026Z</time></trkpt><trkpt lat="43.4919757" lon="10.5989663"><ele>468.0</ele><time>2026-04-19T07:13:11.029Z</time></trkpt><trkpt lat="43.4919835" lon="10.5987993"><ele>468.0</ele><time>2026-04-19T07:13:12.035Z</time></trkpt><trkpt lat="43.4920091" lon="10.5986331"><ele>468.0</ele><time>2026-04-19T07:13:13.031Z</time></trkpt><trkpt lat="43.4920406" lon="10.5984698"><ele>469.5</ele><time>2026-04-19T07:13:14.043Z</time></trkpt><trkpt lat="43.4920656" lon="10.5983235"><ele>471.0</ele><time>2026-04-19T07:13:15.02Z</time></trkpt><trkpt lat="43.4920693" lon="10.5981796"><ele>472.5</ele><time>2026-04-19T07:13:16.02Z</time></trkpt><trkpt lat="43.4920563" lon="10.5980329"><ele>474.0</ele><time>2026-04-19T07:13:17.019Z</time></trkpt><trkpt lat="43.4920364" lon="10.5978479"><ele>476.25</ele><time>2026-04-19T07:13:18.019Z</time></trkpt><trkpt lat="43.4920056" lon="10.5976417"><ele>478.5</ele><time>2026-04-19T07:13:19.031Z</time></trkpt><trkpt lat="43.4919775" lon="10.5974472"><ele>480.75</ele><time>2026-04-19T07:13:20.029Z</time></trkpt><trkpt lat="43.4919488" lon="10.5972777"><ele>483.0</ele><time>2026-04-19T07:13:21.065Z</time></trkpt><trkpt lat="43.4919164" lon="10.5971469"><ele>483.0</ele><time>2026-04-19T07:13:22.023Z</time></trkpt><trkpt lat="43.4919002" lon="10.5970352"><ele>483.0</ele><time>2026-04-19T07:13:23.026Z</time></trkpt><trkpt lat="43.4918965" lon="10.5969482"><ele>483.0</ele><time>2026-04-19T07:13:24.028Z</time></trkpt><trkpt lat="43.4919136" lon="10.5968477"><ele>483.0</ele><time>2026-04-19T07:13:26.036Z</time></trkpt><trkpt lat="43.4919797" lon="10.5968021"><ele>483.0</ele><time>2026-04-19T07:13:28.028Z</time></trkpt><trkpt lat="43.4921262" lon="10.596814"><ele>483.0</ele><time>2026-04-19T07:13:30.019Z</time></trkpt><trkpt lat="43.4922355" lon="10.5967876"><ele>484.25</ele><time>2026-04-19T07:13:31.026Z</time></trkpt><trkpt lat="43.4923498" lon="10.5967223"><ele>485.5</ele><time>2026-04-19T07:13:32.022Z</time></trkpt><trkpt lat="43.4924588" lon="10.5966259"><ele>486.75</ele><time>2026-04-19T07:13:33.019Z</time></trkpt><trkpt lat="43.4925854" lon="10.5965406"><ele>488.0</ele><time>2026-04-19T07:13:34.02Z</time></trkpt><trkpt lat="43.4926915" lon="10.5964405"><ele>488.0</ele><time>2026-04-19T07:13:35.026Z</time></trkpt><trkpt lat="43.4927667" lon="10.596334"><ele>487.99999999999994</ele><time>2026-04-19T07:13:36.028Z</time></trkpt><trkpt lat="43.4928284" lon="10.5962217"><ele>487.99999999999994</ele><time>2026-04-19T07:13:37.028Z</time></trkpt><trkpt lat="43.4928726" lon="10.5960727"><ele>488.0</ele><time>2026-04-19T07:13:38.029Z</time></trkpt><trkpt lat="43.492902" lon="10.595912"><ele>488.0</ele><time>2026-04-19T07:13:39.015Z</time></trkpt><trkpt lat="43.4929268" lon="10.5957725"><ele>487.4</ele><time>2026-04-19T07:13:40.021Z</time></trkpt><trkpt lat="43.4929515" lon="10.5956451"><ele>486.79999999999995</ele><time>2026-04-19T07:13:41.028Z</time></trkpt><trkpt lat="43.4929965" lon="10.5955362"><ele>486.2</ele><time>2026-04-19T07:13:42.03Z</time></trkpt><trkpt lat="43.4930613" lon="10.5954354"><ele>485.6</ele><time>2026-04-19T07:13:43.019Z</time></trkpt><trkpt lat="43.4931489" lon="10.5953631"><ele>485.0</ele><time>2026-04-19T07:13:44.016Z</time></trkpt><trkpt lat="43.4932444" lon="10.5953259"><ele>485.0</ele><time>2026-04-19T07:13:45.034Z</time></trkpt><trkpt lat="43.493347" lon="10.5953047"><ele>485.0</ele><time>2026-04-19T07:13:46.015Z</time></trkpt><trkpt lat="43.4934751" lon="10.5953133"><ele>485.0</ele><time>2026-04-19T07:13:47.019Z</time></trkpt><trkpt lat="43.4936215" lon="10.595335"><ele>485.0</ele><time>2026-04-19T07:13:48.027Z</time></trkpt><trkpt lat="43.4937511" lon="10.5953625"><ele>482.25</ele><time>2026-04-19T07:13:49.026Z</time></trkpt><trkpt lat="43.4938802" lon="10.5953996"><ele>479.5</ele><time>2026-04-19T07:13:50.014Z</time></trkpt><trkpt lat="43.4940023" lon="10.5954226"><ele>476.75</ele><time>2026-04-19T07:13:51.03Z</time></trkpt><trkpt lat="43.4941119" lon="10.5954097"><ele>474.0</ele><time>2026-04-19T07:13:52.024Z</time></trkpt><trkpt lat="43.4942217" lon="10.5953695"><ele>476.0</ele><time>2026-04-19T07:13:53.02Z</time></trkpt><trkpt lat="43.4943201" lon="10.5952946"><ele>478.0</ele><time>2026-04-19T07:13:54.026Z</time></trkpt><trkpt lat="43.4944206" lon="10.595192"><ele>480.0</ele><time>2026-04-19T07:13:55.022Z</time></trkpt><trkpt lat="43.4945153" lon="10.5950487"><ele>482.0</ele><time>2026-04-19T07:13:56.03Z</time></trkpt><trkpt lat="43.4945824" lon="10.5949015"><ele>480.0</ele><time>2026-04-19T07:13:57.027Z</time></trkpt><trkpt lat="43.4946341" lon="10.5947736"><ele>478.00000000000006</ele><time>2026-04-19T07:13:58.031Z</time></trkpt><trkpt lat="43.4946905" lon="10.5946618"><ele>476.00000000000006</ele><time>2026-04-19T07:13:59.024Z</time></trkpt><trkpt lat="43.4947445" lon="10.5945704"><ele>474.0</ele><time>2026-04-19T07:14:00.036Z</time></trkpt><trkpt lat="43.4948017" lon="10.5945104"><ele>472.0</ele><time>2026-04-19T07:14:01.028Z</time></trkpt><trkpt lat="43.4948883" lon="10.5944779"><ele>471.75</ele><time>2026-04-19T07:14:03.031Z</time></trkpt><trkpt lat="43.4949969" lon="10.5945526"><ele>471.5</ele><time>2026-04-19T07:14:05.031Z</time></trkpt><trkpt lat="43.4950924" lon="10.5946528"><ele>471.25</ele><time>2026-04-19T07:14:06.025Z</time></trkpt><trkpt lat="43.4952012" lon="10.5947692"><ele>471.0</ele><time>2026-04-19T07:14:07.036Z</time></trkpt><trkpt lat="43.4953054" lon="10.5948732"><ele>471.0</ele><time>2026-04-19T07:14:08.022Z</time></trkpt><trkpt lat="43.4953967" lon="10.5949638"><ele>471.0</ele><time>2026-04-19T07:14:09.035Z</time></trkpt><trkpt lat="43.495468" lon="10.5950507"><ele>471.0</ele><time>2026-04-19T07:14:10.031Z</time></trkpt><trkpt lat="43.4955537" lon="10.5951052"><ele>471.0</ele><time>2026-04-19T07:14:11.059Z</time></trkpt><trkpt lat="43.4956513" lon="10.5951434"><ele>471.0</ele><time>2026-04-19T07:14:12.024Z</time></trkpt><trkpt lat="43.4957421" lon="10.5951815"><ele>469.8</ele><time>2026-04-19T07:14:13.035Z</time></trkpt><trkpt lat="43.4958388" lon="10.5952244"><ele>468.6</ele><time>2026-04-19T07:14:14.03Z</time></trkpt><trkpt lat="43.4959332" lon="10.5952473"><ele>467.4</ele><time>2026-04-19T07:14:15.036Z</time></trkpt><trkpt lat="43.4960134" lon="10.5952562"><ele>466.2</ele><time>2026-04-19T07:14:16.033Z</time></trkpt><trkpt lat="43.4961239" lon="10.5952039"><ele>465.0</ele><time>2026-04-19T07:14:18.028Z</time></trkpt><trkpt lat="43.4961887" lon="10.5950876"><ele>465.0</ele><time>2026-04-19T07:14:20.033Z</time></trkpt><trkpt lat="43.4962492" lon="10.5950406"><ele>465.0</ele><time>2026-04-19T07:14:22.016Z</time></trkpt><trkpt lat="43.4963434" lon="10.5950906"><ele>465.0</ele><time>2026-04-19T07:14:24.018Z</time></trkpt><trkpt lat="43.4964507" lon="10.5951444"><ele>465.0</ele><time>2026-04-19T07:14:26.042Z</time></trkpt><trkpt lat="43.4965611" lon="10.5951876"><ele>465.0</ele><time>2026-04-19T07:14:28.019Z</time></trkpt><trkpt lat="43.4966598" lon="10.5952123"><ele>463.0</ele><time>2026-04-19T07:14:30.021Z</time></trkpt><trkpt lat="43.4967583" lon="10.5951735"><ele>461.0</ele><time>2026-04-19T07:14:32.033Z</time></trkpt><trkpt lat="43.4968135" lon="10.5950921"><ele>459.0</ele><time>2026-04-19T07:14:34.02Z</time></trkpt><trkpt lat="43.4968473" lon="10.594971"><ele>457.0</ele><time>2026-04-19T07:14:36.021Z</time></trkpt><trkpt lat="43.4968764" lon="10.594823"><ele>455.0</ele><time>2026-04-19T07:14:38.035Z</time></trkpt><trkpt lat="43.4969051" lon="10.5946928"><ele>454.99999999999994</ele><time>2026-04-19T07:14:40.029Z</time></trkpt><trkpt lat="43.4969314" lon="10.5945779"><ele>455.0</ele><time>2026-04-19T07:14:42.016Z</time></trkpt><trkpt lat="43.4969252" lon="10.5944881"><ele>455.0</ele><time>2026-04-19T07:14:46.026Z</time></trkpt><trkpt lat="43.4968283" lon="10.5944809"><ele>455.0</ele><time>2026-04-19T07:14:52.015Z</time></trkpt><trkpt lat="43.4967477" lon="10.5944649"><ele>454.99999999999994</ele><time>2026-04-19T07:14:53.019Z</time></trkpt><trkpt lat="43.4966769" lon="10.5944448"><ele>455.0</ele><time>2026-04-19T07:14:54.019Z</time></trkpt><trkpt lat="43.4966009" lon="10.5944185"><ele>453.16666666666663</ele><time>2026-04-19T07:14:55.045Z</time></trkpt><trkpt lat="43.4965301" lon="10.5943923"><ele>451.3333333333333</ele><time>2026-04-19T07:14:56.018Z</time></trkpt><trkpt lat="43.49647" lon="10.5943561"><ele>449.5</ele><time>2026-04-19T07:14:57.017Z</time></trkpt><trkpt lat="43.4964142" lon="10.5942949"><ele>447.66666666666663</ele><time>2026-04-19T07:14:58.019Z</time></trkpt><trkpt lat="43.4963637" lon="10.5942197"><ele>445.8333333333333</ele><time>2026-04-19T07:14:59.02Z</time></trkpt><trkpt lat="43.4963084" lon="10.5941043"><ele>444.0</ele><time>2026-04-19T07:15:00.024Z</time></trkpt><trkpt lat="43.4962573" lon="10.5939934"><ele>445.1666666666667</ele><time>2026-04-19T07:15:01.019Z</time></trkpt><trkpt lat="43.4962137" lon="10.593891"><ele>446.33333333333337</ele><time>2026-04-19T07:15:02.029Z</time></trkpt><trkpt lat="43.49618" lon="10.5937789"><ele>447.5</ele><time>2026-04-19T07:15:03.008Z</time></trkpt><trkpt lat="43.4961727" lon="10.5936537"><ele>448.6666666666667</ele><time>2026-04-19T07:15:04.02Z</time></trkpt><trkpt lat="43.4961845" lon="10.5935279"><ele>449.83333333333337</ele><time>2026-04-19T07:15:05.018Z</time></trkpt><trkpt lat="43.4962013" lon="10.593415"><ele>451.0</ele><time>2026-04-19T07:15:06.017Z</time></trkpt><trkpt lat="43.4962148" lon="10.5933215"><ele>451.00000000000006</ele><time>2026-04-19T07:15:07.02Z</time></trkpt><trkpt lat="43.4962123" lon="10.5932167"><ele>451.0</ele><time>2026-04-19T07:15:08.029Z</time></trkpt><trkpt lat="43.4962022" lon="10.5930484"><ele>451.0</ele><time>2026-04-19T07:15:10.018Z</time></trkpt><trkpt lat="43.4962012" lon="10.5929012"><ele>451.0</ele><time>2026-04-19T07:15:12.017Z</time></trkpt><trkpt lat="43.496237" lon="10.5928145"><ele>451.00000000000006</ele><time>2026-04-19T07:15:17.015Z</time></trkpt><trkpt lat="43.4962608" lon="10.5927215"><ele>451.0</ele><time>2026-04-19T07:15:21.016Z</time></trkpt><trkpt lat="43.4962856" lon="10.5926414"><ele>448.00000000000006</ele><time>2026-04-19T07:15:24.015Z</time></trkpt><trkpt lat="43.4962761" lon="10.5925422"><ele>445.0</ele><time>2026-04-19T07:15:28.011Z</time></trkpt><trkpt lat="43.496259" lon="10.5924493"><ele>442.0</ele><time>2026-04-19T07:15:32.009Z</time></trkpt><trkpt lat="43.4962585" lon="10.5923468"><ele>439.0</ele><time>2026-04-19T07:15:34.014Z</time></trkpt><trkpt lat="43.4962592" lon="10.592182"><ele>436.00000000000006</ele><time>2026-04-19T07:15:36.014Z</time></trkpt><trkpt lat="43.4962477" lon="10.592029"><ele>433.0</ele><time>2026-04-19T07:15:38.012Z</time></trkpt><trkpt lat="43.4962268" lon="10.5919341"><ele>431.00000000000006</ele><time>2026-04-19T07:15:40.007Z</time></trkpt><trkpt lat="43.496184" lon="10.5918394"><ele>429.0</ele><time>2026-04-19T07:15:43.023Z</time></trkpt><trkpt lat="43.4961355" lon="10.5917714"><ele>427.0</ele><time>2026-04-19T07:15:45.013Z</time></trkpt><trkpt lat="43.4960647" lon="10.5916809"><ele>425.0</ele><time>2026-04-19T07:15:47.042Z</time></trkpt><trkpt lat="43.4960125" lon="10.5916122"><ele>423.00000000000006</ele><time>2026-04-19T07:15:48.017Z</time></trkpt><trkpt lat="43.4959458" lon="10.5915345"><ele>421.0</ele><time>2026-04-19T07:15:49.01Z</time></trkpt><trkpt lat="43.4959028" lon="10.591456"><ele>421.00000000000006</ele><time>2026-04-19T07:15:50.014Z</time></trkpt><trkpt lat="43.4958667" lon="10.591369"><ele>421.0</ele><time>2026-04-19T07:15:51.013Z</time></trkpt><trkpt lat="43.4958284" lon="10.5912879"><ele>421.0</ele><time>2026-04-19T07:15:52.017Z</time></trkpt><trkpt lat="43.4957794" lon="10.5911948"><ele>421.0</ele><time>2026-04-19T07:15:53.017Z</time></trkpt><trkpt lat="43.4957146" lon="10.5911179"><ele>421.00000000000006</ele><time>2026-04-19T07:15:54.025Z</time></trkpt><trkpt lat="43.4956709" lon="10.5909845"><ele>421.0</ele><time>2026-04-19T07:15:56.018Z</time></trkpt><trkpt lat="43.4956832" lon="10.5908181"><ele>421.00000000000006</ele><time>2026-04-19T07:15:58.017Z</time></trkpt><trkpt lat="43.4956667" lon="10.5907025"><ele>421.0</ele><time>2026-04-19T07:16:00.02Z</time></trkpt><trkpt lat="43.4956907" lon="10.5906175"><ele>421.0</ele><time>2026-04-19T07:16:03.031Z</time></trkpt><trkpt lat="43.495749" lon="10.5905131"><ele>421.0</ele><time>2026-04-19T07:16:05.027Z</time></trkpt><trkpt lat="43.4958039" lon="10.5903733"><ele>421.00000000000006</ele><time>2026-04-19T07:16:07.019Z</time></trkpt><trkpt lat="43.4958639" lon="10.5903048"><ele>421.0</ele><time>2026-04-19T07:16:10.03Z</time></trkpt><trkpt lat="43.4959344" lon="10.5903049"><ele>421.0</ele><time>2026-04-19T07:16:25.029Z</time></trkpt><trkpt lat="43.4960347" lon="10.5902485"><ele>421.0</ele><time>2026-04-19T07:16:27.023Z</time></trkpt><trkpt lat="43.4961289" lon="10.5901613"><ele>421.0</ele><time>2026-04-19T07:16:29.016Z</time></trkpt><trkpt lat="43.4961729" lon="10.5900988"><ele>421.0</ele><time>2026-04-19T07:16:30.029Z</time></trkpt><trkpt lat="43.4962582" lon="10.589992"><ele>421.0</ele><time>2026-04-19T07:16:32.021Z</time></trkpt><trkpt lat="43.4963281" lon="10.5898892"><ele>418.50000000000006</ele><time>2026-04-19T07:16:34.019Z</time></trkpt><trkpt lat="43.4963879" lon="10.5897945"><ele>416.0</ele><time>2026-04-19T07:16:36.016Z</time></trkpt><trkpt lat="43.4964136" lon="10.589696"><ele>413.5</ele><time>2026-04-19T07:16:38.014Z</time></trkpt><trkpt lat="43.4964589" lon="10.5896075"><ele>411.0</ele><time>2026-04-19T07:16:40.008Z</time></trkpt><trkpt lat="43.4965206" lon="10.5894879"><ele>408.50000000000006</ele><time>2026-04-19T07:16:42.022Z</time></trkpt><trkpt lat="43.4965407" lon="10.5893861"><ele>406.0</ele><time>2026-04-19T07:16:44.018Z</time></trkpt><trkpt lat="43.4965649" lon="10.5892824"><ele>406.00000000000006</ele><time>2026-04-19T07:16:46.019Z</time></trkpt><trkpt lat="43.4965586" lon="10.5891812"><ele>406.0</ele><time>2026-04-19T07:16:48.021Z</time></trkpt><trkpt lat="43.49655" lon="10.589085"><ele>406.0</ele><time>2026-04-19T07:16:51.027Z</time></trkpt><trkpt lat="43.4965139" lon="10.5889945"><ele>406.0</ele><time>2026-04-19T07:16:56.017Z</time></trkpt><trkpt lat="43.4964943" lon="10.5888968"><ele>406.00000000000006</ele><time>2026-04-19T07:17:00.026Z</time></trkpt><trkpt lat="43.4964896" lon="10.5887776"><ele>406.0</ele><time>2026-04-19T07:17:02.021Z</time></trkpt><trkpt lat="43.4964667" lon="10.5886357"><ele>406.1666666666667</ele><time>2026-04-19T07:17:04.031Z</time></trkpt><trkpt lat="43.4964317" lon="10.5885408"><ele>406.33333333333337</ele><time>2026-04-19T07:17:06.022Z</time></trkpt><trkpt lat="43.4963716" lon="10.5884725"><ele>406.5</ele><time>2026-04-19T07:17:08.02Z</time></trkpt><trkpt lat="43.4963247" lon="10.5883902"><ele>406.66666666666663</ele><time>2026-04-19T07:17:11.027Z</time></trkpt><trkpt lat="43.4963017" lon="10.5882983"><ele>406.8333333333333</ele><time>2026-04-19T07:17:13.022Z</time></trkpt><trkpt lat="43.4962476" lon="10.5882105"><ele>407.0</ele><time>2026-04-19T07:17:16.022Z</time></trkpt><trkpt lat="43.4962263" lon="10.5881242"><ele>406.99999999999994</ele><time>2026-04-19T07:17:18.022Z</time></trkpt><trkpt lat="43.4962149" lon="10.5880384"><ele>407.0</ele><time>2026-04-19T07:17:20.024Z</time></trkpt><trkpt lat="43.4962337" lon="10.5879379"><ele>407.0</ele><time>2026-04-19T07:17:22.01Z</time></trkpt><trkpt lat="43.496275" lon="10.5878279"><ele>407.0</ele><time>2026-04-19T07:17:24.014Z</time></trkpt><trkpt lat="43.4962745" lon="10.5877317"><ele>406.99999999999994</ele><time>2026-04-19T07:17:26.011Z</time></trkpt><trkpt lat="43.4962402" lon="10.5875791"><ele>407.0</ele><time>2026-04-19T07:17:28.019Z</time></trkpt><trkpt lat="43.4962571" lon="10.5874178"><ele>404.49999999999994</ele><time>2026-04-19T07:17:30.023Z</time></trkpt><trkpt lat="43.4962912" lon="10.5873147"><ele>402.0</ele><time>2026-04-19T07:17:32.014Z</time></trkpt><trkpt lat="43.4962948" lon="10.5872088"><ele>399.5</ele><time>2026-04-19T07:17:34.023Z</time></trkpt><trkpt lat="43.4962931" lon="10.5871168"><ele>397.0</ele><time>2026-04-19T07:17:36.03Z</time></trkpt><trkpt lat="43.4963401" lon="10.5869899"><ele>394.49999999999994</ele><time>2026-04-19T07:17:38.01Z</time></trkpt><trkpt lat="43.4963593" lon="10.586873"><ele>392.0</ele><time>2026-04-19T07:17:40.008Z</time></trkpt><trkpt lat="43.4963735" lon="10.5867802"><ele>390.66666666666663</ele><time>2026-04-19T07:17:42.017Z</time></trkpt><trkpt lat="43.4963763" lon="10.5866274"><ele>389.3333333333333</ele><time>2026-04-19T07:17:44.022Z</time></trkpt><trkpt lat="43.4963799" lon="10.5865297"><ele>388.0</ele><time>2026-04-19T07:17:45.016Z</time></trkpt><trkpt lat="43.4963864" lon="10.5864272"><ele>386.66666666666663</ele><time>2026-04-19T07:17:46.013Z</time></trkpt><trkpt lat="43.4963876" lon="10.5863168"><ele>385.3333333333333</ele><time>2026-04-19T07:17:47.012Z</time></trkpt><trkpt lat="43.4963863" lon="10.5862109"><ele>384.0</ele><time>2026-04-19T07:17:48.011Z</time></trkpt><trkpt lat="43.4963762" lon="10.5861027"><ele>383.5</ele><time>2026-04-19T07:17:49.012Z</time></trkpt><trkpt lat="43.4963628" lon="10.5859973"><ele>383.0</ele><time>2026-04-19T07:17:50.017Z</time></trkpt><trkpt lat="43.4963413" lon="10.5858954"><ele>382.5</ele><time>2026-04-19T07:17:51.014Z</time></trkpt><trkpt lat="43.4962963" lon="10.5858006"><ele>382.0</ele><time>2026-04-19T07:17:52.02Z</time></trkpt><trkpt lat="43.4962507" lon="10.5857078"><ele>381.5</ele><time>2026-04-19T07:17:53.018Z</time></trkpt><trkpt lat="43.4962279" lon="10.5855936"><ele>381.0</ele><time>2026-04-19T07:17:54.019Z</time></trkpt><trkpt lat="43.4962218" lon="10.5854785"><ele>378.85714285714283</ele><time>2026-04-19T07:17:55.013Z</time></trkpt><trkpt lat="43.4962212" lon="10.5853725"><ele>376.7142857142857</ele><time>2026-04-19T07:17:56.008Z</time></trkpt><trkpt lat="43.4962319" lon="10.5852715"><ele>374.57142857142856</ele><time>2026-04-19T07:17:57.007Z</time></trkpt><trkpt lat="43.4962293" lon="10.585176"><ele>372.42857142857144</ele><time>2026-04-19T07:17:58.007Z</time></trkpt><trkpt lat="43.4962346" lon="10.585071"><ele>370.28571428571433</ele><time>2026-04-19T07:17:59.016Z</time></trkpt><trkpt lat="43.4962351" lon="10.5849837"><ele>368.14285714285717</ele><time>2026-04-19T07:18:00.003Z</time></trkpt><trkpt lat="43.4962186" lon="10.5848899"><ele>366.0</ele><time>2026-04-19T07:18:01.019Z</time></trkpt><trkpt lat="43.4962133" lon="10.5847754"><ele>366.1666666666667</ele><time>2026-04-19T07:18:02.012Z</time></trkpt><trkpt lat="43.4962238" lon="10.5846428"><ele>366.3333333333333</ele><time>2026-04-19T07:18:03.011Z</time></trkpt><trkpt lat="43.4962459" lon="10.5845334"><ele>366.5</ele><time>2026-04-19T07:18:04.006Z</time></trkpt><trkpt lat="43.49627" lon="10.584421"><ele>366.66666666666663</ele><time>2026-04-19T07:18:05.018Z</time></trkpt><trkpt lat="43.4962968" lon="10.5843062"><ele>366.8333333333333</ele><time>2026-04-19T07:18:06.012Z</time></trkpt><trkpt lat="43.4963107" lon="10.5841934"><ele>367.0</ele><time>2026-04-19T07:18:07.012Z</time></trkpt><trkpt lat="43.4963171" lon="10.5840831"><ele>367.0</ele><time>2026-04-19T07:18:08.014Z</time></trkpt><trkpt lat="43.4963262" lon="10.5839794"><ele>367.0</ele><time>2026-04-19T07:18:09.024Z</time></trkpt><trkpt lat="43.496374" lon="10.5838169"><ele>367.0</ele><time>2026-04-19T07:18:11.026Z</time></trkpt><trkpt lat="43.496415" lon="10.5837396"><ele>367.0</ele><time>2026-04-19T07:18:12.026Z</time></trkpt><trkpt lat="43.4964657" lon="10.5836517"><ele>367.0</ele><time>2026-04-19T07:18:13.023Z</time></trkpt><trkpt lat="43.4965344" lon="10.5835451"><ele>365.5</ele><time>2026-04-19T07:18:14.014Z</time></trkpt><trkpt lat="43.4966122" lon="10.5834248"><ele>364.0</ele><time>2026-04-19T07:18:15.026Z</time></trkpt><trkpt lat="43.4966905" lon="10.5833169"><ele>362.5</ele><time>2026-04-19T07:18:16.027Z</time></trkpt><trkpt lat="43.4967604" lon="10.5831992"><ele>361.0</ele><time>2026-04-19T07:18:17.023Z</time></trkpt><trkpt lat="43.4968347" lon="10.5830748"><ele>361.0</ele><time>2026-04-19T07:18:18.054Z</time></trkpt><trkpt lat="43.4969035" lon="10.5829547"><ele>361.0</ele><time>2026-04-19T07:18:19.019Z</time></trkpt><trkpt lat="43.4969621" lon="10.5828329"><ele>361.0</ele><time>2026-04-19T07:18:20.019Z</time></trkpt><trkpt lat="43.4970193" lon="10.5827183"><ele>361.0</ele><time>2026-04-19T07:18:21.015Z</time></trkpt><trkpt lat="43.497062" lon="10.5825892"><ele>361.0</ele><time>2026-04-19T07:18:22.021Z</time></trkpt><trkpt lat="43.4970993" lon="10.5824625"><ele>361.20000000000005</ele><time>2026-04-19T07:18:23.022Z</time></trkpt><trkpt lat="43.4971427" lon="10.5823388"><ele>361.40000000000003</ele><time>2026-04-19T07:18:24.018Z</time></trkpt><trkpt lat="43.497172" lon="10.5822269"><ele>361.6</ele><time>2026-04-19T07:18:25.022Z</time></trkpt><trkpt lat="43.4972127" lon="10.5821139"><ele>361.8</ele><time>2026-04-19T07:18:26.02Z</time></trkpt><trkpt lat="43.4972471" lon="10.5820072"><ele>362.0</ele><time>2026-04-19T07:18:27.021Z</time></trkpt><trkpt lat="43.4972896" lon="10.5818923"><ele>361.0</ele><time>2026-04-19T07:18:28.006Z</time></trkpt><trkpt lat="43.497347" lon="10.5817913"><ele>360.0</ele><time>2026-04-19T07:18:29.065Z</time></trkpt><trkpt lat="43.4973929" lon="10.5816797"><ele>359.0</ele><time>2026-04-19T07:18:30.023Z</time></trkpt><trkpt lat="43.4974498" lon="10.5815608"><ele>358.0</ele><time>2026-04-19T07:18:31.019Z</time></trkpt><trkpt lat="43.4974958" lon="10.581445"><ele>357.0</ele><time>2026-04-19T07:18:32.01Z</time></trkpt><trkpt lat="43.4975439" lon="10.5813214"><ele>357.0</ele><time>2026-04-19T07:18:33.015Z</time></trkpt><trkpt lat="43.4975858" lon="10.5811985"><ele>357.0</ele><time>2026-04-19T07:18:34.021Z</time></trkpt><trkpt lat="43.4976333" lon="10.5810723"><ele>357.0</ele><time>2026-04-19T07:18:35.022Z</time></trkpt><trkpt lat="43.49767" lon="10.5809411"><ele>357.0</ele><time>2026-04-19T07:18:36.031Z</time></trkpt><trkpt lat="43.4976873" lon="10.5808301"><ele>357.0</ele><time>2026-04-19T07:18:37.037Z</time></trkpt><trkpt lat="43.4977004" lon="10.5807307"><ele>356.1666666666667</ele><time>2026-04-19T07:18:38.017Z</time></trkpt><trkpt lat="43.4977146" lon="10.5806135"><ele>355.3333333333333</ele><time>2026-04-19T07:18:39.035Z</time></trkpt><trkpt lat="43.4977254" lon="10.5805003"><ele>354.5</ele><time>2026-04-19T07:18:40.046Z</time></trkpt><trkpt lat="43.4977297" lon="10.5803915"><ele>353.66666666666663</ele><time>2026-04-19T07:18:41.016Z</time></trkpt><trkpt lat="43.4977431" lon="10.5802818"><ele>352.8333333333333</ele><time>2026-04-19T07:18:42.029Z</time></trkpt><trkpt lat="43.4977451" lon="10.5801828"><ele>352.0</ele><time>2026-04-19T07:18:43.019Z</time></trkpt><trkpt lat="43.4977559" lon="10.580069"><ele>350.6</ele><time>2026-04-19T07:18:44.026Z</time></trkpt><trkpt lat="43.497779" lon="10.5799613"><ele>349.20000000000005</ele><time>2026-04-19T07:18:45.02Z</time></trkpt><trkpt lat="43.4978037" lon="10.5798442"><ele>347.8</ele><time>2026-04-19T07:18:46.023Z</time></trkpt><trkpt lat="43.4978493" lon="10.579726"><ele>346.4</ele><time>2026-04-19T07:18:47.017Z</time></trkpt><trkpt lat="43.4979005" lon="10.5796051"><ele>345.0</ele><time>2026-04-19T07:18:48.014Z</time></trkpt><trkpt lat="43.4979551" lon="10.5795012"><ele>345.0</ele><time>2026-04-19T07:18:49.016Z</time></trkpt><trkpt lat="43.4980143" lon="10.5793846"><ele>345.0</ele><time>2026-04-19T07:18:50.024Z</time></trkpt><trkpt lat="43.4980816" lon="10.5792744"><ele>345.0</ele><time>2026-04-19T07:18:51.024Z</time></trkpt><trkpt lat="43.4981327" lon="10.5791622"><ele>345.0</ele><time>2026-04-19T07:18:52.037Z</time></trkpt><trkpt lat="43.498194" lon="10.5790732"><ele>345.0</ele><time>2026-04-19T07:18:53.011Z</time></trkpt><trkpt lat="43.4982591" lon="10.5789862"><ele>345.0</ele><time>2026-04-19T07:18:54.021Z</time></trkpt><trkpt lat="43.4983168" lon="10.5789038"><ele>345.0</ele><time>2026-04-19T07:18:55.018Z</time></trkpt><trkpt lat="43.4983473" lon="10.5788273"><ele>345.0</ele><time>2026-04-19T07:18:56.011Z</time></trkpt><trkpt lat="43.4983881" lon="10.5786737"><ele>345.0</ele><time>2026-04-19T07:18:58.022Z</time></trkpt><trkpt lat="43.4984143" lon="10.5785741"><ele>345.0</ele><time>2026-04-19T07:18:59.009Z</time></trkpt><trkpt lat="43.4984371" lon="10.5784607"><ele>345.0</ele><time>2026-04-19T07:19:00.034Z</time></trkpt><trkpt lat="43.4984495" lon="10.5783724"><ele>342.2</ele><time>2026-04-19T07:19:01.015Z</time></trkpt><trkpt lat="43.4984777" lon="10.5782765"><ele>339.4</ele><time>2026-04-19T07:19:02.017Z</time></trkpt><trkpt lat="43.4985537" lon="10.5781263"><ele>336.6</ele><time>2026-04-19T07:19:04.024Z</time></trkpt><trkpt lat="43.498611" lon="10.5779941"><ele>333.8</ele><time>2026-04-19T07:19:06.003Z</time></trkpt><trkpt lat="43.4986154" lon="10.5778901"><ele>331.0</ele><time>2026-04-19T07:19:07.015Z</time></trkpt><trkpt lat="43.4986056" lon="10.5777908"><ele>328.8333333333333</ele><time>2026-04-19T07:19:08.019Z</time></trkpt><trkpt lat="43.4985955" lon="10.5776883"><ele>326.66666666666663</ele><time>2026-04-19T07:19:09.017Z</time></trkpt><trkpt lat="43.4985737" lon="10.5775911"><ele>324.5</ele><time>2026-04-19T07:19:10.021Z</time></trkpt><trkpt lat="43.4985393" lon="10.5775019"><ele>322.3333333333333</ele><time>2026-04-19T07:19:11.005Z</time></trkpt><trkpt lat="43.498528" lon="10.5773773"><ele>320.1666666666667</ele><time>2026-04-19T07:19:12.02Z</time></trkpt><trkpt lat="43.4985233" lon="10.5772768"><ele>318.0</ele><time>2026-04-19T07:19:13.01Z</time></trkpt><trkpt lat="43.4985162" lon="10.5771329"><ele>316.0</ele><time>2026-04-19T07:19:14.031Z</time></trkpt><trkpt lat="43.4984941" lon="10.5769438"><ele>314.0</ele><time>2026-04-19T07:19:15.015Z</time></trkpt><trkpt lat="43.4984706" lon="10.576738"><ele>312.0</ele><time>2026-04-19T07:19:16.008Z</time></trkpt><trkpt lat="43.4984588" lon="10.5765238"><ele>310.0</ele><time>2026-04-19T07:19:17.027Z</time></trkpt><trkpt lat="43.4984528" lon="10.5763202"><ele>309.5</ele><time>2026-04-19T07:19:18.011Z</time></trkpt><trkpt lat="43.4984566" lon="10.5761361"><ele>309.0</ele><time>2026-04-19T07:19:19.008Z</time></trkpt><trkpt lat="43.4984623" lon="10.5759538"><ele>308.5</ele><time>2026-04-19T07:19:20.002Z</time></trkpt><trkpt lat="43.4984689" lon="10.5757824"><ele>308.0</ele><time>2026-04-19T07:19:21.02Z</time></trkpt><trkpt lat="43.4984646" lon="10.575621"><ele>308.0</ele><time>2026-04-19T07:19:22.008Z</time></trkpt><trkpt lat="43.4984711" lon="10.5754849"><ele>308.0</ele><time>2026-04-19T07:19:23.007Z</time></trkpt><trkpt lat="43.4984947" lon="10.5753302"><ele>308.0</ele><time>2026-04-19T07:19:24.006Z</time></trkpt><trkpt lat="43.4985266" lon="10.5751759"><ele>308.0</ele><time>2026-04-19T07:19:25.008Z</time></trkpt><trkpt lat="43.4985686" lon="10.5750449"><ele>308.0</ele><time>2026-04-19T07:19:26.022Z</time></trkpt><trkpt lat="43.4986258" lon="10.5749019"><ele>307.8</ele><time>2026-04-19T07:19:27.018Z</time></trkpt><trkpt lat="43.4986998" lon="10.5747706"><ele>307.6</ele><time>2026-04-19T07:19:28.03Z</time></trkpt><trkpt lat="43.4987813" lon="10.5746711"><ele>307.4</ele><time>2026-04-19T07:19:29.002Z</time></trkpt><trkpt lat="43.4988633" lon="10.574567"><ele>307.2</ele><time>2026-04-19T07:19:30.012Z</time></trkpt><trkpt lat="43.4989394" lon="10.5744677"><ele>307.0</ele><time>2026-04-19T07:19:31.004Z</time></trkpt><trkpt lat="43.4990184" lon="10.5743684"><ele>306.4</ele><time>2026-04-19T07:19:32.01Z</time></trkpt><trkpt lat="43.4990894" lon="10.5742548"><ele>305.79999999999995</ele><time>2026-04-19T07:19:33.005Z</time></trkpt><trkpt lat="43.4991385" lon="10.5741405"><ele>305.2</ele><time>2026-04-19T07:19:34.017Z</time></trkpt><trkpt lat="43.499201" lon="10.5740164"><ele>304.59999999999997</ele><time>2026-04-19T07:19:35.032Z</time></trkpt><trkpt lat="43.4992673" lon="10.5738956"><ele>304.0</ele><time>2026-04-19T07:19:36.013Z</time></trkpt><trkpt lat="43.4993163" lon="10.573798"><ele>304.0</ele><time>2026-04-19T07:19:37.002Z</time></trkpt><trkpt lat="43.4993585" lon="10.5736994"><ele>304.0</ele><time>2026-04-19T07:19:38.012Z</time></trkpt><trkpt lat="43.4993819" lon="10.5735466"><ele>304.0</ele><time>2026-04-19T07:19:40.039Z</time></trkpt><trkpt lat="43.4993899" lon="10.57346"><ele>304.0</ele><time>2026-04-19T07:19:41.013Z</time></trkpt><trkpt lat="43.4993905" lon="10.573371"><ele>304.0</ele><time>2026-04-19T07:19:42.003Z</time></trkpt><trkpt lat="43.499379" lon="10.5732839"><ele>304.0</ele><time>2026-04-19T07:19:43.01Z</time></trkpt><trkpt lat="43.4993065" lon="10.5731265"><ele>302.4</ele><time>2026-04-19T07:19:45.004Z</time></trkpt><trkpt lat="43.4992662" lon="10.5730449"><ele>300.79999999999995</ele><time>2026-04-19T07:19:46.011Z</time></trkpt><trkpt lat="43.4992298" lon="10.5729167"><ele>299.20000000000005</ele><time>2026-04-19T07:19:47.022Z</time></trkpt><trkpt lat="43.4991795" lon="10.572757"><ele>297.6</ele><time>2026-04-19T07:19:48.015Z</time></trkpt><trkpt lat="43.4991449" lon="10.5726359"><ele>296.0</ele><time>2026-04-19T07:19:49.008Z</time></trkpt><trkpt lat="43.4991202" lon="10.5725302"><ele>292.40000000000003</ele><time>2026-04-19T07:19:50.011Z</time></trkpt><trkpt lat="43.4991219" lon="10.57241"><ele>288.8</ele><time>2026-04-19T07:19:51.009Z</time></trkpt><trkpt lat="43.4991252" lon="10.5723013"><ele>285.20000000000005</ele><time>2026-04-19T07:19:52.002Z</time></trkpt><trkpt lat="43.499121" lon="10.5721608"><ele>281.6</ele><time>2026-04-19T07:19:53.002Z</time></trkpt><trkpt lat="43.4990841" lon="10.5720139"><ele>278.0</ele><time>2026-04-19T07:19:54.016Z</time></trkpt><trkpt lat="43.4990671" lon="10.5718751"><ele>276.0</ele><time>2026-04-19T07:19:55.008Z</time></trkpt><trkpt lat="43.4990692" lon="10.5717467"><ele>274.0</ele><time>2026-04-19T07:19:56.012Z</time></trkpt><trkpt lat="43.4990718" lon="10.5715724"><ele>272.0</ele><time>2026-04-19T07:19:57.02Z</time></trkpt><trkpt lat="43.4990679" lon="10.5714011"><ele>270.0</ele><time>2026-04-19T07:19:58.021Z</time></trkpt><trkpt lat="43.4990529" lon="10.5712379"><ele>270.0</ele><time>2026-04-19T07:19:59.016Z</time></trkpt><trkpt lat="43.4990388" lon="10.5710814"><ele>270.0</ele><time>2026-04-19T07:20:00.025Z</time></trkpt><trkpt lat="43.4990601" lon="10.5708995"><ele>270.0</ele><time>2026-04-19T07:20:01.03Z</time></trkpt><trkpt lat="43.4990677" lon="10.5707262"><ele>270.0</ele><time>2026-04-19T07:20:02.019Z</time></trkpt><trkpt lat="43.4990697" lon="10.5705789"><ele>270.0</ele><time>2026-04-19T07:20:03.028Z</time></trkpt><trkpt lat="43.4990288" lon="10.5704015"><ele>270.0</ele><time>2026-04-19T07:20:05.011Z</time></trkpt><trkpt lat="43.4989654" lon="10.5703575"><ele>270.0</ele><time>2026-04-19T07:20:07.02Z</time></trkpt><trkpt lat="43.4988974" lon="10.5703876"><ele>270.0</ele><time>2026-04-19T07:20:09.015Z</time></trkpt><trkpt lat="43.4988492" lon="10.5704661"><ele>270.0</ele><time>2026-04-19T07:20:11.011Z</time></trkpt><trkpt lat="43.4987788" lon="10.5705187"><ele>270.0</ele><time>2026-04-19T07:20:13.025Z</time></trkpt><trkpt lat="43.4987861" lon="10.5704324"><ele>268.8333333333333</ele><time>2026-04-19T07:22:12.028Z</time></trkpt><trkpt lat="43.498819" lon="10.5703282"><ele>267.6666666666667</ele><time>2026-04-19T07:22:14.026Z</time></trkpt><trkpt lat="43.4988568" lon="10.570207"><ele>266.5</ele><time>2026-04-19T07:22:16.053Z</time></trkpt><trkpt lat="43.4989096" lon="10.5700693"><ele>265.33333333333337</ele><time>2026-04-19T07:22:18.032Z</time></trkpt><trkpt lat="43.4989334" lon="10.5699713"><ele>264.1666666666667</ele><time>2026-04-19T07:22:19.04Z</time></trkpt><trkpt lat="43.4989534" lon="10.569879"><ele>263.0</ele><time>2026-04-19T07:22:20.03Z</time></trkpt><trkpt lat="43.4989662" lon="10.569788"><ele>263.0</ele><time>2026-04-19T07:22:21.029Z</time></trkpt><trkpt lat="43.4989779" lon="10.5697024"><ele>263.0</ele><time>2026-04-19T07:22:22.019Z</time></trkpt><trkpt lat="43.4990127" lon="10.5695676"><ele>263.0</ele><time>2026-04-19T07:22:24.019Z</time></trkpt><trkpt lat="43.4990715" lon="10.5694572"><ele>263.0</ele><time>2026-04-19T07:22:26.013Z</time></trkpt><trkpt lat="43.49917" lon="10.5694258"><ele>263.0</ele><time>2026-04-19T07:22:28.018Z</time></trkpt><trkpt lat="43.499243" lon="10.5693667"><ele>259.6</ele><time>2026-04-19T07:22:30.019Z</time></trkpt><trkpt lat="43.499207" lon="10.5692775"><ele>256.20000000000005</ele><time>2026-04-19T07:22:31.999Z</time></trkpt><trkpt lat="43.4990951" lon="10.569221"><ele>252.8</ele><time>2026-04-19T07:22:34.017Z</time></trkpt><trkpt lat="43.4990312" lon="10.5692107"><ele>249.4</ele><time>2026-04-19T07:22:35.011Z</time></trkpt><trkpt lat="43.4989147" lon="10.5692341"><ele>246.0</ele><time>2026-04-19T07:22:37.019Z</time></trkpt><trkpt lat="43.4988292" lon="10.5692584"><ele>246.0</ele><time>2026-04-19T07:22:39.002Z</time></trkpt><trkpt lat="43.4988148" lon="10.5691419"><ele>246.0</ele><time>2026-04-19T07:22:41.007Z</time></trkpt><trkpt lat="43.4988822" lon="10.5690404"><ele>246.0</ele><time>2026-04-19T07:22:43.015Z</time></trkpt><trkpt lat="43.4988438" lon="10.5689622"><ele>246.0</ele><time>2026-04-19T07:22:45.017Z</time></trkpt><trkpt lat="43.4987507" lon="10.5690162"><ele>246.0</ele><time>2026-04-19T07:22:47.014Z</time></trkpt><trkpt lat="43.4987057" lon="10.5690914"><ele>246.0</ele><time>2026-04-19T07:22:48.016Z</time></trkpt><trkpt lat="43.4986564" lon="10.5691714"><ele>242.20000000000002</ele><time>2026-04-19T07:22:49.009Z</time></trkpt><trkpt lat="43.4986105" lon="10.5692538"><ele>238.40000000000003</ele><time>2026-04-19T07:22:50.011Z</time></trkpt><trkpt lat="43.4985322" lon="10.569369"><ele>234.6</ele><time>2026-04-19T07:22:52.004Z</time></trkpt><trkpt lat="43.4984678" lon="10.5693693"><ele>230.8</ele><time>2026-04-19T07:22:55.007Z</time></trkpt><trkpt lat="43.4984961" lon="10.5692704"><ele>227.0</ele><time>2026-04-19T07:22:57.003Z</time></trkpt><trkpt lat="43.4985897" lon="10.5691516"><ele>227.0</ele><time>2026-04-19T07:22:59.014Z</time></trkpt><trkpt lat="43.4986309" lon="10.5690648"><ele>227.00000000000003</ele><time>2026-04-19T07:23:00.022Z</time></trkpt><trkpt lat="43.4986674" lon="10.5689704"><ele>227.0</ele><time>2026-04-19T07:23:01.005Z</time></trkpt><trkpt lat="43.4987042" lon="10.5688859"><ele>227.0</ele><time>2026-04-19T07:23:02.004Z</time></trkpt><trkpt lat="43.4987442" lon="10.5688166"><ele>227.00000000000003</ele><time>2026-04-19T07:23:03.014Z</time></trkpt><trkpt lat="43.4987901" lon="10.5687561"><ele>227.0</ele><time>2026-04-19T07:23:04.022Z</time></trkpt><trkpt lat="43.498853" lon="10.5687072"><ele>227.0</ele><time>2026-04-19T07:23:05.007Z</time></trkpt><trkpt lat="43.4989233" lon="10.5686591"><ele>226.71428571428572</ele><time>2026-04-19T07:23:06.001Z</time></trkpt><trkpt lat="43.4989909" lon="10.5686142"><ele>226.42857142857144</ele><time>2026-04-19T07:23:07.01Z</time></trkpt><trkpt lat="43.4990567" lon="10.5685727"><ele>226.14285714285717</ele><time>2026-04-19T07:23:08.017Z</time></trkpt><trkpt lat="43.4991169" lon="10.5685259"><ele>225.8571428571429</ele><time>2026-04-19T07:23:08.999Z</time></trkpt><trkpt lat="43.49917" lon="10.5684728"><ele>225.57142857142858</ele><time>2026-04-19T07:23:10.003Z</time></trkpt><trkpt lat="43.4992281" lon="10.5684127"><ele>225.28571428571433</ele><time>2026-04-19T07:23:11.006Z</time></trkpt><trkpt lat="43.4992847" lon="10.5683469"><ele>225.00000000000003</ele><time>2026-04-19T07:23:12.005Z</time></trkpt><trkpt lat="43.4993486" lon="10.5682646"><ele>225.0</ele><time>2026-04-19T07:23:13.003Z</time></trkpt><trkpt lat="43.4993974" lon="10.5681881"><ele>225.0</ele><time>2026-04-19T07:23:14.01Z</time></trkpt><trkpt lat="43.4994496" lon="10.5681204"><ele>225.0</ele><time>2026-04-19T07:23:15.007Z</time></trkpt><trkpt lat="43.4994963" lon="10.5680364"><ele>225.0</ele><time>2026-04-19T07:23:16.003Z</time></trkpt><trkpt lat="43.4995408" lon="10.5679479"><ele>225.0</ele><time>2026-04-19T07:23:17.009Z</time></trkpt><trkpt lat="43.4995856" lon="10.5678436"><ele>225.0</ele><time>2026-04-19T07:23:18.006Z</time></trkpt><trkpt lat="43.4996288" lon="10.5677316"><ele>221.0</ele><time>2026-04-19T07:23:19.009Z</time></trkpt><trkpt lat="43.4996742" lon="10.5676236"><ele>217.0</ele><time>2026-04-19T07:23:20.006Z</time></trkpt><trkpt lat="43.4997272" lon="10.5675102"><ele>213.0</ele><time>2026-04-19T07:23:21.023Z</time></trkpt><trkpt lat="43.4997791" lon="10.5674078"><ele>209.0</ele><time>2026-04-19T07:23:22.004Z</time></trkpt><trkpt lat="43.4998268" lon="10.567301"><ele>205.0</ele><time>2026-04-19T07:23:23.01Z</time></trkpt><trkpt lat="43.499876" lon="10.5672021"><ele>204.99999999999997</ele><time>2026-04-19T07:23:24.02Z</time></trkpt><trkpt lat="43.4999257" lon="10.5671056"><ele>205.0</ele><time>2026-04-19T07:23:25.011Z</time></trkpt><trkpt lat="43.4999769" lon="10.5670166"><ele>205.0</ele><time>2026-04-19T07:23:26.009Z</time></trkpt><trkpt lat="43.5000467" lon="10.5669405"><ele>205.0</ele><time>2026-04-19T07:23:27.01Z</time></trkpt><trkpt lat="43.5001194" lon="10.5668752"><ele>204.99999999999997</ele><time>2026-04-19T07:23:28.014Z</time></trkpt><trkpt lat="43.5001953" lon="10.5668162"><ele>205.0</ele><time>2026-04-19T07:23:29.017Z</time></trkpt><trkpt lat="43.5002668" lon="10.5667509"><ele>202.49999999999997</ele><time>2026-04-19T07:23:30.016Z</time></trkpt><trkpt lat="43.500336" lon="10.5666892"><ele>200.0</ele><time>2026-04-19T07:23:31.014Z</time></trkpt><trkpt lat="43.5003943" lon="10.5666239"><ele>197.5</ele><time>2026-04-19T07:23:32.023Z</time></trkpt><trkpt lat="43.5004321" lon="10.5665465"><ele>195.0</ele><time>2026-04-19T07:23:33.017Z</time></trkpt><trkpt lat="43.5004541" lon="10.5664072"><ele>192.5</ele><time>2026-04-19T07:23:35.016Z</time></trkpt><trkpt lat="43.5005325" lon="10.5663846"><ele>190.0</ele><time>2026-04-19T07:23:38.02Z</time></trkpt><trkpt lat="43.5005825" lon="10.5665715"><ele>188.0</ele><time>2026-04-19T07:23:40.014Z</time></trkpt><trkpt lat="43.5006096" lon="10.5666677"><ele>186.0</ele><time>2026-04-19T07:23:41.005Z</time></trkpt><trkpt lat="43.5006269" lon="10.5668383"><ele>184.0</ele><time>2026-04-19T07:23:43.015Z</time></trkpt><trkpt lat="43.5006048" lon="10.5669791"><ele>182.0</ele><time>2026-04-19T07:23:45.008Z</time></trkpt><trkpt lat="43.5007096" lon="10.5669657"><ele>180.0</ele><time>2026-04-19T07:23:49.014Z</time></trkpt><trkpt lat="43.5007602" lon="10.5669013"><ele>180.0</ele><time>2026-04-19T07:23:50.009Z</time></trkpt><trkpt lat="43.5008168" lon="10.5668264"><ele>180.0</ele><time>2026-04-19T07:23:51.02Z</time></trkpt><trkpt lat="43.5008671" lon="10.5667513"><ele>180.0</ele><time>2026-04-19T07:23:52.01Z</time></trkpt><trkpt lat="43.5009198" lon="10.5666642"><ele>180.0</ele><time>2026-04-19T07:23:53.016Z</time></trkpt><trkpt lat="43.5009419" lon="10.5665706"><ele>180.0</ele><time>2026-04-19T07:23:54.028Z</time></trkpt><trkpt lat="43.5009647" lon="10.5664825"><ele>180.0</ele><time>2026-04-19T07:23:55.013Z</time></trkpt><trkpt lat="43.5009009" lon="10.5663235"><ele>180.0</ele><time>2026-04-19T07:23:57.013Z</time></trkpt><trkpt lat="43.5008618" lon="10.5662392"><ele>180.0</ele><time>2026-04-19T07:23:58.013Z</time></trkpt><trkpt lat="43.5008298" lon="10.566161"><ele>180.0</ele><time>2026-04-19T07:23:59.025Z</time></trkpt><trkpt lat="43.5007893" lon="10.5659884"><ele>180.0</ele><time>2026-04-19T07:24:01.044Z</time></trkpt><trkpt lat="43.5007641" lon="10.5659027"><ele>180.0</ele><time>2026-04-19T07:24:02.018Z</time></trkpt><trkpt lat="43.5007232" lon="10.5658154"><ele>180.0</ele><time>2026-04-19T07:24:03.022Z</time></trkpt><trkpt lat="43.5006753" lon="10.5657329"><ele>178.66666666666666</ele><time>2026-04-19T07:24:04.024Z</time></trkpt><trkpt lat="43.500621" lon="10.5656504"><ele>177.33333333333334</ele><time>2026-04-19T07:24:05.02Z</time></trkpt><trkpt lat="43.5005646" lon="10.5656061"><ele>176.0</ele><time>2026-04-19T07:24:06.02Z</time></trkpt><trkpt lat="43.5004962" lon="10.5655899"><ele>174.66666666666669</ele><time>2026-04-19T07:24:07.016Z</time></trkpt><trkpt lat="43.5004308" lon="10.5656013"><ele>173.33333333333334</ele><time>2026-04-19T07:24:08.01Z</time></trkpt><trkpt lat="43.5003079" lon="10.565614"><ele>172.0</ele><time>2026-04-19T07:24:10.006Z</time></trkpt><trkpt lat="43.5002163" lon="10.5655484"><ele>172.0</ele><time>2026-04-19T07:24:12.014Z</time></trkpt><trkpt lat="43.5002073" lon="10.5653868"><ele>172.0</ele><time>2026-04-19T07:24:14.008Z</time></trkpt><trkpt lat="43.500218" lon="10.565292"><ele>172.0</ele><time>2026-04-19T07:24:15Z</time></trkpt><trkpt lat="43.500237" lon="10.5652082"><ele>172.0</ele><time>2026-04-19T07:24:16.006Z</time></trkpt><trkpt lat="43.5003309" lon="10.5651206"><ele>172.0</ele><time>2026-04-19T07:24:18.012Z</time></trkpt><trkpt lat="43.5003824" lon="10.5650658"><ele>172.0</ele><time>2026-04-19T07:24:19.007Z</time></trkpt><trkpt lat="43.5004121" lon="10.5649362"><ele>172.0</ele><time>2026-04-19T07:24:21.021Z</time></trkpt><trkpt lat="43.5003684" lon="10.5648391"><ele>172.0</ele><time>2026-04-19T07:24:23.018Z</time></trkpt><trkpt lat="43.5002435" lon="10.5647865"><ele>172.0</ele><time>2026-04-19T07:24:25.014Z</time></trkpt><trkpt lat="43.5001618" lon="10.5647577"><ele>172.0</ele><time>2026-04-19T07:24:26.006Z</time></trkpt><trkpt lat="43.5000824" lon="10.5647124"><ele>172.0</ele><time>2026-04-19T07:24:27.006Z</time></trkpt><trkpt lat="43.4999908" lon="10.5646558"><ele>172.0</ele><time>2026-04-19T07:24:28.019Z</time></trkpt><trkpt lat="43.499893" lon="10.5645912"><ele>172.0</ele><time>2026-04-19T07:24:29.013Z</time></trkpt><trkpt lat="43.4997982" lon="10.5645096"><ele>172.0</ele><time>2026-04-19T07:24:30.015Z</time></trkpt><trkpt lat="43.4997281" lon="10.5644203"><ele>172.0</ele><time>2026-04-19T07:24:31.01Z</time></trkpt><trkpt lat="43.4996792" lon="10.5642876"><ele>172.0</ele><time>2026-04-19T07:24:33.021Z</time></trkpt><trkpt lat="43.4996144" lon="10.5642455"><ele>176.0</ele><time>2026-04-19T07:24:38.002Z</time></trkpt><trkpt lat="43.4995505" lon="10.5643269"><ele>180.0</ele><time>2026-04-19T07:24:40.015Z</time></trkpt><trkpt lat="43.4994847" lon="10.5644563"><ele>184.0</ele><time>2026-04-19T07:24:42.01Z</time></trkpt><trkpt lat="43.499454" lon="10.5645463"><ele>188.0</ele><time>2026-04-19T07:24:43.025Z</time></trkpt><trkpt lat="43.4993766" lon="10.5646873"><ele>192.0</ele><time>2026-04-19T07:24:45.006Z</time></trkpt><trkpt lat="43.4992872" lon="10.5648005"><ele>192.0</ele><time>2026-04-19T07:24:47.013Z</time></trkpt><trkpt lat="43.4991626" lon="10.5648171"><ele>192.0</ele><time>2026-04-19T07:24:49.016Z</time></trkpt><trkpt lat="43.4990942" lon="10.5648211"><ele>192.0</ele><time>2026-04-19T07:24:50.012Z</time></trkpt><trkpt lat="43.4991803" lon="10.5648269"><ele>192.0</ele><time>2026-04-19T07:24:57.016Z</time></trkpt><trkpt lat="43.499248" lon="10.5648102"><ele>192.0</ele><time>2026-04-19T07:24:58.017Z</time></trkpt><trkpt lat="43.4993599" lon="10.5647244"><ele>191.99999999999997</ele><time>2026-04-19T07:25:00.022Z</time></trkpt><trkpt lat="43.4994002" lon="10.564657"><ele>192.0</ele><time>2026-04-19T07:25:01.018Z</time></trkpt><trkpt lat="43.4994406" lon="10.5645814"><ele>192.0</ele><time>2026-04-19T07:25:02.018Z</time></trkpt><trkpt lat="43.4994808" lon="10.5645003"><ele>192.0</ele><time>2026-04-19T07:25:03.014Z</time></trkpt><trkpt lat="43.4995151" lon="10.5644207"><ele>192.0</ele><time>2026-04-19T07:25:04.014Z</time></trkpt><trkpt lat="43.4995473" lon="10.5643435"><ele>191.99999999999997</ele><time>2026-04-19T07:25:05.008Z</time></trkpt><trkpt lat="43.4996019" lon="10.5642395"><ele>192.0</ele><time>2026-04-19T07:25:07.013Z</time></trkpt><trkpt lat="43.4996794" lon="10.5641913"><ele>188.39999999999998</ele><time>2026-04-19T07:25:09.014Z</time></trkpt><trkpt lat="43.4997841" lon="10.5641851"><ele>184.79999999999998</ele><time>2026-04-19T07:25:11.035Z</time></trkpt><trkpt lat="43.4998788" lon="10.5641917"><ele>181.2</ele><time>2026-04-19T07:25:13.012Z</time></trkpt><trkpt lat="43.4999272" lon="10.5641206"><ele>177.6</ele><time>2026-04-19T07:25:15.02Z</time></trkpt><trkpt lat="43.4999575" lon="10.5639216"><ele>174.0</ele><time>2026-04-19T07:25:17.013Z</time></trkpt><trkpt lat="43.4999669" lon="10.5637993"><ele>174.6</ele><time>2026-04-19T07:25:18.014Z</time></trkpt><trkpt lat="43.499978" lon="10.5636777"><ele>175.2</ele><time>2026-04-19T07:25:19.009Z</time></trkpt><trkpt lat="43.5000008" lon="10.5635341"><ele>175.79999999999998</ele><time>2026-04-19T07:25:20.016Z</time></trkpt><trkpt lat="43.5000339" lon="10.5634016"><ele>176.39999999999998</ele><time>2026-04-19T07:25:21.003Z</time></trkpt><trkpt lat="43.5000688" lon="10.5632739"><ele>177.0</ele><time>2026-04-19T07:25:22.04Z</time></trkpt><trkpt lat="43.5000868" lon="10.5631491"><ele>177.0</ele><time>2026-04-19T07:25:23.02Z</time></trkpt><trkpt lat="43.5000947" lon="10.5630222"><ele>177.0</ele><time>2026-04-19T07:25:24.012Z</time></trkpt><trkpt lat="43.500101" lon="10.5629089"><ele>177.0</ele><time>2026-04-19T07:25:25.017Z</time></trkpt><trkpt lat="43.5001157" lon="10.5627984"><ele>177.0</ele><time>2026-04-19T07:25:26.015Z</time></trkpt><trkpt lat="43.5001799" lon="10.5626313"><ele>177.0</ele><time>2026-04-19T07:25:28.016Z</time></trkpt><trkpt lat="43.5002233" lon="10.5625574"><ele>177.57142857142858</ele><time>2026-04-19T07:25:29.02Z</time></trkpt><trkpt lat="43.5002704" lon="10.5624896"><ele>178.14285714285714</ele><time>2026-04-19T07:25:30.011Z</time></trkpt><trkpt lat="43.5003222" lon="10.5624233"><ele>178.71428571428572</ele><time>2026-04-19T07:25:31.027Z</time></trkpt><trkpt lat="43.5003853" lon="10.5623705"><ele>179.28571428571428</ele><time>2026-04-19T07:25:32.02Z</time></trkpt><trkpt lat="43.5004558" lon="10.5623198"><ele>179.85714285714283</ele><time>2026-04-19T07:25:33.018Z</time></trkpt><trkpt lat="43.5005183" lon="10.5622654"><ele>180.42857142857142</ele><time>2026-04-19T07:25:34.019Z</time></trkpt><trkpt lat="43.500562" lon="10.5621952"><ele>181.0</ele><time>2026-04-19T07:25:35.016Z</time></trkpt><trkpt lat="43.5006036" lon="10.5621205"><ele>175.25</ele><time>2026-04-19T07:25:36.016Z</time></trkpt><trkpt lat="43.5006367" lon="10.56193"><ele>169.5</ele><time>2026-04-19T07:25:38.031Z</time></trkpt><trkpt lat="43.5006253" lon="10.5617982"><ele>163.75</ele><time>2026-04-19T07:25:39.012Z</time></trkpt><trkpt lat="43.5006393" lon="10.5616559"><ele>158.0</ele><time>2026-04-19T07:25:40.027Z</time></trkpt><trkpt lat="43.500649" lon="10.5615061"><ele>158.0</ele><time>2026-04-19T07:25:41.009Z</time></trkpt><trkpt lat="43.5006546" lon="10.5613661"><ele>158.0</ele><time>2026-04-19T07:25:42.006Z</time></trkpt><trkpt lat="43.5006562" lon="10.5612223"><ele>158.0</ele><time>2026-04-19T07:25:43.014Z</time></trkpt><trkpt lat="43.5006535" lon="10.5610699"><ele>158.0</ele><time>2026-04-19T07:25:44.019Z</time></trkpt><trkpt lat="43.5006464" lon="10.560918"><ele>158.0</ele><time>2026-04-19T07:25:45.018Z</time></trkpt><trkpt lat="43.5006568" lon="10.5607892"><ele>157.20000000000002</ele><time>2026-04-19T07:25:46.008Z</time></trkpt><trkpt lat="43.50069" lon="10.5606748"><ele>156.4</ele><time>2026-04-19T07:25:46.999Z</time></trkpt><trkpt lat="43.5007376" lon="10.5605582"><ele>155.60000000000002</ele><time>2026-04-19T07:25:48.012Z</time></trkpt><trkpt lat="43.5007803" lon="10.5604248"><ele>154.8</ele><time>2026-04-19T07:25:49.024Z</time></trkpt><trkpt lat="43.500809" lon="10.5602853"><ele>154.0</ele><time>2026-04-19T07:25:50.004Z</time></trkpt><trkpt lat="43.5008301" lon="10.5601766"><ele>153.85714285714286</ele><time>2026-04-19T07:25:51.037Z</time></trkpt><trkpt lat="43.5008477" lon="10.5600792"><ele>153.71428571428572</ele><time>2026-04-19T07:25:52.016Z</time></trkpt><trkpt lat="43.5008659" lon="10.5599959"><ele>153.57142857142856</ele><time>2026-04-19T07:25:53.034Z</time></trkpt><trkpt lat="43.5008762" lon="10.559909"><ele>153.42857142857144</ele><time>2026-04-19T07:25:54.03Z</time></trkpt><trkpt lat="43.5008904" lon="10.5598064"><ele>153.28571428571428</ele><time>2026-04-19T07:25:55.015Z</time></trkpt><trkpt lat="43.5009096" lon="10.5596929"><ele>153.14285714285714</ele><time>2026-04-19T07:25:56.032Z</time></trkpt><trkpt lat="43.5009286" lon="10.5595728"><ele>153.0</ele><time>2026-04-19T07:25:57.031Z</time></trkpt><trkpt lat="43.5009358" lon="10.5594486"><ele>151.16666666666666</ele><time>2026-04-19T07:25:58.016Z</time></trkpt><trkpt lat="43.5009401" lon="10.5593228"><ele>149.33333333333334</ele><time>2026-04-19T07:25:59.031Z</time></trkpt><trkpt lat="43.5009437" lon="10.5592021"><ele>147.5</ele><time>2026-04-19T07:26:00.026Z</time></trkpt><trkpt lat="43.5009554" lon="10.5590846"><ele>145.66666666666669</ele><time>2026-04-19T07:26:01.037Z</time></trkpt><trkpt lat="43.500963" lon="10.5589767"><ele>143.83333333333334</ele><time>2026-04-19T07:26:02.025Z</time></trkpt><trkpt lat="43.5009762" lon="10.5588729"><ele>142.0</ele><time>2026-04-19T07:26:03.022Z</time></trkpt><trkpt lat="43.500977" lon="10.5587835"><ele>140.33333333333334</ele><time>2026-04-19T07:26:04.014Z</time></trkpt><trkpt lat="43.5009229" lon="10.5586447"><ele>138.66666666666669</ele><time>2026-04-19T07:26:06.008Z</time></trkpt><trkpt lat="43.5008441" lon="10.5585764"><ele>137.0</ele><time>2026-04-19T07:26:08.022Z</time></trkpt><trkpt lat="43.5007803" lon="10.5585294"><ele>135.33333333333334</ele><time>2026-04-19T07:26:10.007Z</time></trkpt><trkpt lat="43.5007129" lon="10.5585207"><ele>133.66666666666666</ele><time>2026-04-19T07:26:11.018Z</time></trkpt><trkpt lat="43.5006182" lon="10.5585183"><ele>132.0</ele><time>2026-04-19T07:26:12.014Z</time></trkpt><trkpt lat="43.5005124" lon="10.5585103"><ele>133.2</ele><time>2026-04-19T07:26:13.012Z</time></trkpt><trkpt lat="43.5004077" lon="10.5584892"><ele>134.39999999999998</ele><time>2026-04-19T07:26:14.008Z</time></trkpt><trkpt lat="43.500302" lon="10.5584634"><ele>135.60000000000002</ele><time>2026-04-19T07:26:15.028Z</time></trkpt><trkpt lat="43.5001946" lon="10.5584149"><ele>136.8</ele><time>2026-04-19T07:26:16.021Z</time></trkpt><trkpt lat="43.5000933" lon="10.5583792"><ele>138.0</ele><time>2026-04-19T07:26:17.02Z</time></trkpt><trkpt lat="43.4999844" lon="10.5583292"><ele>138.0</ele><time>2026-04-19T07:26:18.024Z</time></trkpt><trkpt lat="43.4998753" lon="10.558271"><ele>138.0</ele><time>2026-04-19T07:26:19.041Z</time></trkpt><trkpt lat="43.499767" lon="10.5582199"><ele>138.0</ele><time>2026-04-19T07:26:20.018Z</time></trkpt><trkpt lat="43.4996403" lon="10.5581774"><ele>138.0</ele><time>2026-04-19T07:26:21.026Z</time></trkpt><trkpt lat="43.4995077" lon="10.5581527"><ele>139.75</ele><time>2026-04-19T07:26:22.006Z</time></trkpt><trkpt lat="43.4993791" lon="10.558142"><ele>141.5</ele><time>2026-04-19T07:26:23.011Z</time></trkpt><trkpt lat="43.4992461" lon="10.5581523"><ele>143.25</ele><time>2026-04-19T07:26:24.015Z</time></trkpt><trkpt lat="43.4991084" lon="10.5581619"><ele>145.0</ele><time>2026-04-19T07:26:25.017Z</time></trkpt><trkpt lat="43.4989636" lon="10.5581632"><ele>145.0</ele><time>2026-04-19T07:26:26.015Z</time></trkpt><trkpt lat="43.49882" lon="10.5581504"><ele>145.0</ele><time>2026-04-19T07:26:27.018Z</time></trkpt><trkpt lat="43.4986964" lon="10.5580989"><ele>145.0</ele><time>2026-04-19T07:26:28.027Z</time></trkpt><trkpt lat="43.4985768" lon="10.5580239"><ele>145.0</ele><time>2026-04-19T07:26:29.016Z</time></trkpt><trkpt lat="43.4984647" lon="10.5579331"><ele>146.5</ele><time>2026-04-19T07:26:30.034Z</time></trkpt><trkpt lat="43.4983401" lon="10.5578699"><ele>148.0</ele><time>2026-04-19T07:26:31.019Z</time></trkpt><trkpt lat="43.4981904" lon="10.5578433"><ele>149.5</ele><time>2026-04-19T07:26:32.02Z</time></trkpt><trkpt lat="43.4980461" lon="10.5578382"><ele>151.0</ele><time>2026-04-19T07:26:33.027Z</time></trkpt><trkpt lat="43.497902" lon="10.5578515"><ele>151.25</ele><time>2026-04-19T07:26:34.021Z</time></trkpt><trkpt lat="43.4977624" lon="10.5578761"><ele>151.5</ele><time>2026-04-19T07:26:35.03Z</time></trkpt><trkpt lat="43.4976094" lon="10.5578904"><ele>151.75</ele><time>2026-04-19T07:26:36.02Z</time></trkpt><trkpt lat="43.4974721" lon="10.5579265"><ele>152.0</ele><time>2026-04-19T07:26:37.015Z</time></trkpt><trkpt lat="43.4973341" lon="10.5579679"><ele>152.0</ele><time>2026-04-19T07:26:38Z</time></trkpt><trkpt lat="43.4972095" lon="10.5580299"><ele>152.0</ele><time>2026-04-19T07:26:39.017Z</time></trkpt><trkpt lat="43.4971045" lon="10.5580902"><ele>152.0</ele><time>2026-04-19T07:26:40.019Z</time></trkpt><trkpt lat="43.4969782" lon="10.5581444"><ele>152.0</ele><time>2026-04-19T07:26:41.036Z</time></trkpt><trkpt lat="43.4968427" lon="10.5581748"><ele>151.0</ele><time>2026-04-19T07:26:42.02Z</time></trkpt><trkpt lat="43.4967022" lon="10.5582088"><ele>150.0</ele><time>2026-04-19T07:26:43.003Z</time></trkpt><trkpt lat="43.4965709" lon="10.5582445"><ele>149.0</ele><time>2026-04-19T07:26:44.035Z</time></trkpt><trkpt lat="43.4964478" lon="10.5583243"><ele>148.0</ele><time>2026-04-19T07:26:45.014Z</time></trkpt><trkpt lat="43.4963242" lon="10.5584187"><ele>146.25</ele><time>2026-04-19T07:26:46.019Z</time></trkpt><trkpt lat="43.4962117" lon="10.5585393"><ele>144.5</ele><time>2026-04-19T07:26:47.015Z</time></trkpt><trkpt lat="43.4961067" lon="10.5586833"><ele>142.75</ele><time>2026-04-19T07:26:48.016Z</time></trkpt><trkpt lat="43.495999" lon="10.5588309"><ele>141.0</ele><time>2026-04-19T07:26:49.022Z</time></trkpt><trkpt lat="43.4958881" lon="10.5589475"><ele>145.0</ele><time>2026-04-19T07:26:50.01Z</time></trkpt><trkpt lat="43.4957631" lon="10.5590336"><ele>149.0</ele><time>2026-04-19T07:26:51.011Z</time></trkpt><trkpt lat="43.4956347" lon="10.5590858"><ele>153.0</ele><time>2026-04-19T07:26:52.007Z</time></trkpt><trkpt lat="43.4955054" lon="10.5590948"><ele>157.0</ele><time>2026-04-19T07:26:53.003Z</time></trkpt><trkpt lat="43.4953808" lon="10.5590739"><ele>157.0</ele><time>2026-04-19T07:26:54.009Z</time></trkpt><trkpt lat="43.495253" lon="10.5590397"><ele>157.0</ele><time>2026-04-19T07:26:55.002Z</time></trkpt><trkpt lat="43.4951138" lon="10.5590091"><ele>157.0</ele><time>2026-04-19T07:26:56.013Z</time></trkpt><trkpt lat="43.4949629" lon="10.5590099"><ele>157.0</ele><time>2026-04-19T07:26:57.011Z</time></trkpt><trkpt lat="43.4948208" lon="10.5590682"><ele>157.0</ele><time>2026-04-19T07:26:58.024Z</time></trkpt><trkpt lat="43.494684" lon="10.5591303"><ele>157.0</ele><time>2026-04-19T07:26:59.016Z</time></trkpt><trkpt lat="43.49454" lon="10.5591893"><ele>157.0</ele><time>2026-04-19T07:27:00.005Z</time></trkpt><trkpt lat="43.4943941" lon="10.5592097"><ele>157.0</ele><time>2026-04-19T07:27:01.01Z</time></trkpt><trkpt lat="43.4942526" lon="10.5592039"><ele>157.33333333333334</ele><time>2026-04-19T07:27:02.006Z</time></trkpt><trkpt lat="43.494098" lon="10.5591509"><ele>157.66666666666666</ele><time>2026-04-19T07:27:03.028Z</time></trkpt><trkpt lat="43.4939465" lon="10.5590672"><ele>158.0</ele><time>2026-04-19T07:27:04.004Z</time></trkpt><trkpt lat="43.4937989" lon="10.5589869"><ele>158.66666666666666</ele><time>2026-04-19T07:27:05.008Z</time></trkpt><trkpt lat="43.4936513" lon="10.5589377"><ele>159.33333333333334</ele><time>2026-04-19T07:27:06.005Z</time></trkpt><trkpt lat="43.4934952" lon="10.55892"><ele>160.0</ele><time>2026-04-19T07:27:07.01Z</time></trkpt><trkpt lat="43.4933454" lon="10.5589511"><ele>160.0</ele><time>2026-04-19T07:27:08.019Z</time></trkpt><trkpt lat="43.4931988" lon="10.5589901"><ele>160.0</ele><time>2026-04-19T07:27:09.015Z</time></trkpt><trkpt lat="43.4930591" lon="10.5589967"><ele>160.0</ele><time>2026-04-19T07:27:10.014Z</time></trkpt><trkpt lat="43.4929178" lon="10.5589726"><ele>160.0</ele><time>2026-04-19T07:27:11.026Z</time></trkpt><trkpt lat="43.4927793" lon="10.5589649"><ele>159.75</ele><time>2026-04-19T07:27:12.009Z</time></trkpt><trkpt lat="43.4926505" lon="10.5589911"><ele>159.5</ele><time>2026-04-19T07:27:13.01Z</time></trkpt><trkpt lat="43.49254" lon="10.5590717"><ele>159.25</ele><time>2026-04-19T07:27:14.017Z</time></trkpt><trkpt lat="43.4924565" lon="10.5591863"><ele>159.0</ele><time>2026-04-19T07:27:15.009Z</time></trkpt><trkpt lat="43.4923768" lon="10.5593307"><ele>159.0</ele><time>2026-04-19T07:27:16.006Z</time></trkpt><trkpt lat="43.4922924" lon="10.5594766"><ele>159.0</ele><time>2026-04-19T07:27:17.015Z</time></trkpt><trkpt lat="43.4921974" lon="10.559634"><ele>159.0</ele><time>2026-04-19T07:27:18.013Z</time></trkpt><trkpt lat="43.4921101" lon="10.5597872"><ele>159.0</ele><time>2026-04-19T07:27:19.025Z</time></trkpt><trkpt lat="43.4920172" lon="10.5599465"><ele>159.0</ele><time>2026-04-19T07:27:20.009Z</time></trkpt><trkpt lat="43.4919196" lon="10.5601024"><ele>159.0</ele><time>2026-04-19T07:27:21.009Z</time></trkpt><trkpt lat="43.491816" lon="10.5602342"><ele>159.0</ele><time>2026-04-19T07:27:22.015Z</time></trkpt><trkpt lat="43.4916751" lon="10.5603156"><ele>159.0</ele><time>2026-04-19T07:27:23.019Z</time></trkpt><trkpt lat="43.4915355" lon="10.5604006"><ele>159.75</ele><time>2026-04-19T07:27:24.015Z</time></trkpt><trkpt lat="43.4913981" lon="10.5604756"><ele>160.5</ele><time>2026-04-19T07:27:25.012Z</time></trkpt><trkpt lat="43.4912641" lon="10.5605701"><ele>161.25</ele><time>2026-04-19T07:27:26.019Z</time></trkpt><trkpt lat="43.4911387" lon="10.5606816"><ele>162.0</ele><time>2026-04-19T07:27:27.015Z</time></trkpt><trkpt lat="43.4910389" lon="10.5608279"><ele>162.0</ele><time>2026-04-19T07:27:28.014Z</time></trkpt><trkpt lat="43.4909527" lon="10.5610011"><ele>162.0</ele><time>2026-04-19T07:27:29.036Z</time></trkpt><trkpt lat="43.490875" lon="10.5611711"><ele>162.0</ele><time>2026-04-19T07:27:30.008Z</time></trkpt><trkpt lat="43.4907896" lon="10.5613169"><ele>162.0</ele><time>2026-04-19T07:27:31.004Z</time></trkpt><trkpt lat="43.4906985" lon="10.5614175"><ele>164.75</ele><time>2026-04-19T07:27:32.01Z</time></trkpt><trkpt lat="43.4905975" lon="10.5614873"><ele>167.5</ele><time>2026-04-19T07:27:33.005Z</time></trkpt><trkpt lat="43.4904626" lon="10.5615137"><ele>170.25</ele><time>2026-04-19T07:27:34.009Z</time></trkpt><trkpt lat="43.4903197" lon="10.5615292"><ele>173.0</ele><time>2026-04-19T07:27:35.001Z</time></trkpt><trkpt lat="43.4901762" lon="10.5615727"><ele>173.0</ele><time>2026-04-19T07:27:36.013Z</time></trkpt><trkpt lat="43.4900377" lon="10.5616442"><ele>173.0</ele><time>2026-04-19T07:27:37.006Z</time></trkpt><trkpt lat="43.489926" lon="10.5617632"><ele>173.0</ele><time>2026-04-19T07:27:38.006Z</time></trkpt><trkpt lat="43.4898335" lon="10.5619038"><ele>173.0</ele><time>2026-04-19T07:27:39.011Z</time></trkpt><trkpt lat="43.4897582" lon="10.5620522"><ele>174.4</ele><time>2026-04-19T07:27:40.014Z</time></trkpt><trkpt lat="43.4896778" lon="10.5621721"><ele>175.8</ele><time>2026-04-19T07:27:41.008Z</time></trkpt><trkpt lat="43.4896035" lon="10.5622523"><ele>177.2</ele><time>2026-04-19T07:27:42.004Z</time></trkpt><trkpt lat="43.4895167" lon="10.5622969"><ele>178.6</ele><time>2026-04-19T07:27:43.001Z</time></trkpt><trkpt lat="43.4894298" lon="10.5622637"><ele>180.0</ele><time>2026-04-19T07:27:44.002Z</time></trkpt><trkpt lat="43.4893482" lon="10.5621772"><ele>180.0</ele><time>2026-04-19T07:27:45.003Z</time></trkpt><trkpt lat="43.4892709" lon="10.5620454"><ele>180.0</ele><time>2026-04-19T07:27:45.998Z</time></trkpt><trkpt lat="43.4892" lon="10.5619041"><ele>180.0</ele><time>2026-04-19T07:27:47Z</time></trkpt><trkpt lat="43.4891308" lon="10.5617342"><ele>180.0</ele><time>2026-04-19T07:27:48.018Z</time></trkpt><trkpt lat="43.4890395" lon="10.5615929"><ele>178.25</ele><time>2026-04-19T07:27:49.01Z</time></trkpt><trkpt lat="43.4889333" lon="10.5615127"><ele>176.5</ele><time>2026-04-19T07:27:50.015Z</time></trkpt><trkpt lat="43.4888118" lon="10.5614927"><ele>174.75</ele><time>2026-04-19T07:27:51.017Z</time></trkpt><trkpt lat="43.4886967" lon="10.561519"><ele>173.0</ele><time>2026-04-19T07:27:52.012Z</time></trkpt><trkpt lat="43.4885939" lon="10.5615906"><ele>172.75</ele><time>2026-04-19T07:27:53.01Z</time></trkpt><trkpt lat="43.4884903" lon="10.5616878"><ele>172.5</ele><time>2026-04-19T07:27:54.007Z</time></trkpt><trkpt lat="43.4883772" lon="10.5617827"><ele>172.25</ele><time>2026-04-19T07:27:55.006Z</time></trkpt><trkpt lat="43.4882609" lon="10.5618879"><ele>172.0</ele><time>2026-04-19T07:27:56.023Z</time></trkpt><trkpt lat="43.4881449" lon="10.5620092"><ele>173.0</ele><time>2026-04-19T07:27:57.012Z</time></trkpt><trkpt lat="43.4880381" lon="10.5621445"><ele>174.0</ele><time>2026-04-19T07:27:58.006Z</time></trkpt><trkpt lat="43.4879356" lon="10.5622851"><ele>175.0</ele><time>2026-04-19T07:27:59.012Z</time></trkpt><trkpt lat="43.4878346" lon="10.5624267"><ele>176.0</ele><time>2026-04-19T07:28:00.014Z</time></trkpt><trkpt lat="43.4877385" lon="10.562578"><ele>175.25</ele><time>2026-04-19T07:28:01.019Z</time></trkpt><trkpt lat="43.4876525" lon="10.5627236"><ele>174.5</ele><time>2026-04-19T07:28:02.02Z</time></trkpt><trkpt lat="43.4875772" lon="10.5628739"><ele>173.75</ele><time>2026-04-19T07:28:03.014Z</time></trkpt><trkpt lat="43.4875073" lon="10.5630087"><ele>173.0</ele><time>2026-04-19T07:28:04.014Z</time></trkpt><trkpt lat="43.4874447" lon="10.563126"><ele>173.0</ele><time>2026-04-19T07:28:05.012Z</time></trkpt><trkpt lat="43.4873678" lon="10.5632112"><ele>173.0</ele><time>2026-04-19T07:28:06.014Z</time></trkpt><trkpt lat="43.4872727" lon="10.5632615"><ele>173.0</ele><time>2026-04-19T07:28:07.016Z</time></trkpt><trkpt lat="43.4871589" lon="10.5632761"><ele>173.0</ele><time>2026-04-19T07:28:08.02Z</time></trkpt><trkpt lat="43.4870447" lon="10.5632707"><ele>173.0</ele><time>2026-04-19T07:28:09.015Z</time></trkpt><trkpt lat="43.4869278" lon="10.5632696"><ele>172.5</ele><time>2026-04-19T07:28:10.008Z</time></trkpt><trkpt lat="43.486816" lon="10.5632659"><ele>172.0</ele><time>2026-04-19T07:28:11.021Z</time></trkpt><trkpt lat="43.4867371" lon="10.5632498"><ele>171.5</ele><time>2026-04-19T07:28:12.035Z</time></trkpt><trkpt lat="43.486676" lon="10.5631906"><ele>171.0</ele><time>2026-04-19T07:28:13.011Z</time></trkpt><trkpt lat="43.4866303" lon="10.5630893"><ele>170.5</ele><time>2026-04-19T07:28:14.02Z</time></trkpt><trkpt lat="43.486603" lon="10.562978"><ele>170.0</ele><time>2026-04-19T07:28:15.025Z</time></trkpt><trkpt lat="43.4865901" lon="10.5628395"><ele>170.0</ele><time>2026-04-19T07:28:16.018Z</time></trkpt><trkpt lat="43.4865662" lon="10.5626787"><ele>170.0</ele><time>2026-04-19T07:28:17.006Z</time></trkpt><trkpt lat="43.4865218" lon="10.5625279"><ele>170.0</ele><time>2026-04-19T07:28:18.014Z</time></trkpt><trkpt lat="43.4864337" lon="10.5624094"><ele>170.0</ele><time>2026-04-19T07:28:19.015Z</time></trkpt><trkpt lat="43.4863159" lon="10.5623268"><ele>170.0</ele><time>2026-04-19T07:28:20.018Z</time></trkpt><trkpt lat="43.4862062" lon="10.5622447"><ele>170.0</ele><time>2026-04-19T07:28:21.007Z</time></trkpt><trkpt lat="43.4861125" lon="10.5621736"><ele>170.0</ele><time>2026-04-19T07:28:22.013Z</time></trkpt><trkpt lat="43.4860348" lon="10.5620943"><ele>170.0</ele><time>2026-04-19T07:28:23.014Z</time></trkpt><trkpt lat="43.4859581" lon="10.5620157"><ele>170.0</ele><time>2026-04-19T07:28:24.013Z</time></trkpt><trkpt lat="43.4858906" lon="10.561913"><ele>170.0</ele><time>2026-04-19T07:28:25.017Z</time></trkpt><trkpt lat="43.4858452" lon="10.5617926"><ele>170.0</ele><time>2026-04-19T07:28:26.054Z</time></trkpt><trkpt lat="43.4858074" lon="10.5616384"><ele>170.0</ele><time>2026-04-19T07:28:27.026Z</time></trkpt><trkpt lat="43.485769" lon="10.5614755"><ele>170.0</ele><time>2026-04-19T07:28:28.027Z</time></trkpt><trkpt lat="43.4857272" lon="10.5613085"><ele>169.0</ele><time>2026-04-19T07:28:29.02Z</time></trkpt><trkpt lat="43.4856862" lon="10.5611186"><ele>168.0</ele><time>2026-04-19T07:28:30.009Z</time></trkpt><trkpt lat="43.4856373" lon="10.5609273"><ele>167.0</ele><time>2026-04-19T07:28:31.02Z</time></trkpt><trkpt lat="43.4855813" lon="10.5607458"><ele>166.0</ele><time>2026-04-19T07:28:32.02Z</time></trkpt><trkpt lat="43.4855243" lon="10.5605578"><ele>166.0</ele><time>2026-04-19T07:28:33.037Z</time></trkpt><trkpt lat="43.4854716" lon="10.5603761"><ele>166.0</ele><time>2026-04-19T07:28:34.016Z</time></trkpt><trkpt lat="43.4854265" lon="10.5601994"><ele>166.0</ele><time>2026-04-19T07:28:35.015Z</time></trkpt><trkpt lat="43.4853732" lon="10.5600135"><ele>166.0</ele><time>2026-04-19T07:28:36.011Z</time></trkpt><trkpt lat="43.4853142" lon="10.5598105"><ele>165.33333333333334</ele><time>2026-04-19T07:28:37.022Z</time></trkpt><trkpt lat="43.4852423" lon="10.5595805"><ele>164.66666666666666</ele><time>2026-04-19T07:28:38.019Z</time></trkpt><trkpt lat="43.4851731" lon="10.5593189"><ele>164.0</ele><time>2026-04-19T07:28:39.019Z</time></trkpt><trkpt lat="43.4850858" lon="10.5590381"><ele>166.5</ele><time>2026-04-19T07:28:40Z</time></trkpt><trkpt lat="43.4849983" lon="10.5587377"><ele>169.0</ele><time>2026-04-19T07:28:41.013Z</time></trkpt><trkpt lat="43.4849148" lon="10.558459"><ele>169.0</ele><time>2026-04-19T07:28:42.012Z</time></trkpt><trkpt lat="43.4848286" lon="10.5582095"><ele>169.0</ele><time>2026-04-19T07:28:43.008Z</time></trkpt><trkpt lat="43.4847587" lon="10.5579949"><ele>169.0</ele><time>2026-04-19T07:28:44.01Z</time></trkpt><trkpt lat="43.4846929" lon="10.5577776"><ele>169.66666666666669</ele><time>2026-04-19T07:28:45.017Z</time></trkpt><trkpt lat="43.4846334" lon="10.5575539"><ele>170.33333333333334</ele><time>2026-04-19T07:28:46.048Z</time></trkpt><trkpt lat="43.484572" lon="10.5573432"><ele>171.0</ele><time>2026-04-19T07:28:47.009Z</time></trkpt><trkpt lat="43.4845097" lon="10.5571359"><ele>170.33333333333334</ele><time>2026-04-19T07:28:48.022Z</time></trkpt><trkpt lat="43.4844452" lon="10.5569236"><ele>169.66666666666669</ele><time>2026-04-19T07:28:49.016Z</time></trkpt><trkpt lat="43.4843843" lon="10.5567142"><ele>169.0</ele><time>2026-04-19T07:28:50.019Z</time></trkpt><trkpt lat="43.4843224" lon="10.5565087"><ele>169.0</ele><time>2026-04-19T07:28:51.009Z</time></trkpt><trkpt lat="43.4842616" lon="10.5563031"><ele>169.0</ele><time>2026-04-19T07:28:52.013Z</time></trkpt><trkpt lat="43.4842009" lon="10.5560901"><ele>169.0</ele><time>2026-04-19T07:28:53.023Z</time></trkpt><trkpt lat="43.4841339" lon="10.5558701"><ele>167.33333333333334</ele><time>2026-04-19T07:28:54.026Z</time></trkpt><trkpt lat="43.4840714" lon="10.5556517"><ele>165.66666666666666</ele><time>2026-04-19T07:28:55.022Z</time></trkpt><trkpt lat="43.4840036" lon="10.5554281"><ele>164.0</ele><time>2026-04-19T07:28:56.037Z</time></trkpt><trkpt lat="43.4839332" lon="10.5552002"><ele>164.0</ele><time>2026-04-19T07:28:57.025Z</time></trkpt><trkpt lat="43.4838659" lon="10.5549677"><ele>164.0</ele><time>2026-04-19T07:28:58.021Z</time></trkpt><trkpt lat="43.4837983" lon="10.5547329"><ele>164.0</ele><time>2026-04-19T07:28:59.017Z</time></trkpt><trkpt lat="43.4837319" lon="10.5545091"><ele>164.0</ele><time>2026-04-19T07:29:00.021Z</time></trkpt><trkpt lat="43.4836651" lon="10.5542647"><ele>164.0</ele><time>2026-04-19T07:29:01.02Z</time></trkpt><trkpt lat="43.483598" lon="10.5540332"><ele>164.0</ele><time>2026-04-19T07:29:02.018Z</time></trkpt><trkpt lat="43.4835463" lon="10.5538347"><ele>161.66666666666666</ele><time>2026-04-19T07:29:03.015Z</time></trkpt><trkpt lat="43.4834814" lon="10.5536463"><ele>159.33333333333334</ele><time>2026-04-19T07:29:04.016Z</time></trkpt><trkpt lat="43.4834177" lon="10.5534328"><ele>157.0</ele><time>2026-04-19T07:29:05.013Z</time></trkpt><trkpt lat="43.483347" lon="10.553169"><ele>157.0</ele><time>2026-04-19T07:29:06.028Z</time></trkpt><trkpt lat="43.4832471" lon="10.5528905"><ele>157.0</ele><time>2026-04-19T07:29:07.013Z</time></trkpt><trkpt lat="43.4831559" lon="10.5525827"><ele>156.33333333333334</ele><time>2026-04-19T07:29:08.013Z</time></trkpt><trkpt lat="43.4830811" lon="10.5522973"><ele>155.66666666666666</ele><time>2026-04-19T07:29:09.016Z</time></trkpt><trkpt lat="43.4830085" lon="10.5520499"><ele>155.0</ele><time>2026-04-19T07:29:10.009Z</time></trkpt><trkpt lat="43.4829406" lon="10.5518195"><ele>154.0</ele><time>2026-04-19T07:29:11.012Z</time></trkpt><trkpt lat="43.4828744" lon="10.5515965"><ele>153.0</ele><time>2026-04-19T07:29:12.019Z</time></trkpt><trkpt lat="43.4828083" lon="10.5513617"><ele>152.0</ele><time>2026-04-19T07:29:13.015Z</time></trkpt><trkpt lat="43.4827436" lon="10.5511336"><ele>151.33333333333331</ele><time>2026-04-19T07:29:14.011Z</time></trkpt><trkpt lat="43.4826779" lon="10.550898"><ele>150.66666666666666</ele><time>2026-04-19T07:29:15.015Z</time></trkpt><trkpt lat="43.4825979" lon="10.550694"><ele>150.0</ele><time>2026-04-19T07:29:16.024Z</time></trkpt><trkpt lat="43.4825092" lon="10.5505034"><ele>149.66666666666666</ele><time>2026-04-19T07:29:17.013Z</time></trkpt><trkpt lat="43.4824171" lon="10.550348"><ele>149.33333333333331</ele><time>2026-04-19T07:29:18.015Z</time></trkpt><trkpt lat="43.4823012" lon="10.5501999"><ele>149.0</ele><time>2026-04-19T07:29:19.011Z</time></trkpt><trkpt lat="43.4821779" lon="10.5500566"><ele>146.0</ele><time>2026-04-19T07:29:20.034Z</time></trkpt><trkpt lat="43.4820572" lon="10.5499079"><ele>143.0</ele><time>2026-04-19T07:29:21.026Z</time></trkpt><trkpt lat="43.4819387" lon="10.5497626"><ele>140.0</ele><time>2026-04-19T07:29:22.043Z</time></trkpt><trkpt lat="43.4818096" lon="10.5496136"><ele>141.0</ele><time>2026-04-19T07:29:23.018Z</time></trkpt><trkpt lat="43.4816892" lon="10.5494728"><ele>142.0</ele><time>2026-04-19T07:29:24.021Z</time></trkpt><trkpt lat="43.4815586" lon="10.5493232"><ele>143.0</ele><time>2026-04-19T07:29:25.022Z</time></trkpt><trkpt lat="43.4814269" lon="10.5491711"><ele>143.0</ele><time>2026-04-19T07:29:26.026Z</time></trkpt><trkpt lat="43.4812972" lon="10.5490237"><ele>143.0</ele><time>2026-04-19T07:29:27.048Z</time></trkpt><trkpt lat="43.4811674" lon="10.548872"><ele>143.0</ele><time>2026-04-19T07:29:28.013Z</time></trkpt><trkpt lat="43.4810424" lon="10.5487292"><ele>143.0</ele><time>2026-04-19T07:29:29.018Z</time></trkpt><trkpt lat="43.4809124" lon="10.5485806"><ele>143.0</ele><time>2026-04-19T07:29:30.019Z</time></trkpt><trkpt lat="43.4807805" lon="10.5484351"><ele>143.0</ele><time>2026-04-19T07:29:31.016Z</time></trkpt><trkpt lat="43.4806585" lon="10.5482788"><ele>143.0</ele><time>2026-04-19T07:29:32.02Z</time></trkpt><trkpt lat="43.4805252" lon="10.5481289"><ele>143.0</ele><time>2026-04-19T07:29:33.012Z</time></trkpt><trkpt lat="43.4803992" lon="10.5479638"><ele>143.0</ele><time>2026-04-19T07:29:34.005Z</time></trkpt><trkpt lat="43.4802731" lon="10.5478117"><ele>144.0</ele><time>2026-04-19T07:29:35.015Z</time></trkpt><trkpt lat="43.4801372" lon="10.5476655"><ele>145.0</ele><time>2026-04-19T07:29:36.03Z</time></trkpt><trkpt lat="43.4799987" lon="10.5475149"><ele>146.0</ele><time>2026-04-19T07:29:37.004Z</time></trkpt><trkpt lat="43.4798695" lon="10.5473528"><ele>146.0</ele><time>2026-04-19T07:29:38.014Z</time></trkpt><trkpt lat="43.4797619" lon="10.5471728"><ele>146.0</ele><time>2026-04-19T07:29:39.013Z</time></trkpt><trkpt lat="43.4796604" lon="10.5469801"><ele>146.0</ele><time>2026-04-19T07:29:40.014Z</time></trkpt><trkpt lat="43.4795887" lon="10.5467761"><ele>146.0</ele><time>2026-04-19T07:29:41.011Z</time></trkpt><trkpt lat="43.4795227" lon="10.5465517"><ele>146.0</ele><time>2026-04-19T07:29:42.029Z</time></trkpt><trkpt lat="43.4794961" lon="10.5463178"><ele>146.0</ele><time>2026-04-19T07:29:43.021Z</time></trkpt><trkpt lat="43.479476" lon="10.5461001"><ele>146.0</ele><time>2026-04-19T07:29:44.027Z</time></trkpt><trkpt lat="43.4794922" lon="10.5458921"><ele>146.0</ele><time>2026-04-19T07:29:45.023Z</time></trkpt><trkpt lat="43.4795194" lon="10.5456906"><ele>146.0</ele><time>2026-04-19T07:29:46.018Z</time></trkpt><trkpt lat="43.479565" lon="10.545493"><ele>145.25</ele><time>2026-04-19T07:29:47.033Z</time></trkpt><trkpt lat="43.4796442" lon="10.5453073"><ele>144.5</ele><time>2026-04-19T07:29:48.014Z</time></trkpt><trkpt lat="43.4797256" lon="10.5451436"><ele>143.75</ele><time>2026-04-19T07:29:49.016Z</time></trkpt><trkpt lat="43.4798142" lon="10.5449931"><ele>143.0</ele><time>2026-04-19T07:29:50.012Z</time></trkpt><trkpt lat="43.4798965" lon="10.5448672"><ele>143.0</ele><time>2026-04-19T07:29:51.015Z</time></trkpt><trkpt lat="43.4799663" lon="10.5447473"><ele>143.0</ele><time>2026-04-19T07:29:52.015Z</time></trkpt><trkpt lat="43.4800367" lon="10.5446299"><ele>143.0</ele><time>2026-04-19T07:29:53.018Z</time></trkpt><trkpt lat="43.4800993" lon="10.544525"><ele>143.0</ele><time>2026-04-19T07:29:54.009Z</time></trkpt><trkpt lat="43.4801527" lon="10.5444317"><ele>143.0</ele><time>2026-04-19T07:29:55.018Z</time></trkpt><trkpt lat="43.4801996" lon="10.5443437"><ele>142.83333333333331</ele><time>2026-04-19T07:29:56.015Z</time></trkpt><trkpt lat="43.4802102" lon="10.5442408"><ele>142.66666666666666</ele><time>2026-04-19T07:29:57.016Z</time></trkpt><trkpt lat="43.4802058" lon="10.544146"><ele>142.5</ele><time>2026-04-19T07:29:58.014Z</time></trkpt><trkpt lat="43.4801693" lon="10.5440624"><ele>142.33333333333334</ele><time>2026-04-19T07:29:59.043Z</time></trkpt><trkpt lat="43.4801236" lon="10.5439659"><ele>142.16666666666669</ele><time>2026-04-19T07:30:00.019Z</time></trkpt><trkpt lat="43.4800755" lon="10.5438502"><ele>142.0</ele><time>2026-04-19T07:30:01.02Z</time></trkpt><trkpt lat="43.4800316" lon="10.5437185"><ele>141.6</ele><time>2026-04-19T07:30:02.008Z</time></trkpt><trkpt lat="43.4799854" lon="10.5435779"><ele>141.2</ele><time>2026-04-19T07:30:03.011Z</time></trkpt><trkpt lat="43.4799552" lon="10.5434258"><ele>140.8</ele><time>2026-04-19T07:30:04.02Z</time></trkpt><trkpt lat="43.4799572" lon="10.5432841"><ele>140.4</ele><time>2026-04-19T07:30:05.013Z</time></trkpt><trkpt lat="43.4799864" lon="10.5431591"><ele>140.0</ele><time>2026-04-19T07:30:06.02Z</time></trkpt><trkpt lat="43.4800414" lon="10.5430271"><ele>140.0</ele><time>2026-04-19T07:30:07.019Z</time></trkpt><trkpt lat="43.4801233" lon="10.5429063"><ele>140.0</ele><time>2026-04-19T07:30:08.015Z</time></trkpt><trkpt lat="43.4802146" lon="10.5427888"><ele>140.0</ele><time>2026-04-19T07:30:09.023Z</time></trkpt><trkpt lat="43.4803082" lon="10.5426673"><ele>140.0</ele><time>2026-04-19T07:30:10.013Z</time></trkpt><trkpt lat="43.4803871" lon="10.5425182"><ele>137.33333333333331</ele><time>2026-04-19T07:30:11.019Z</time></trkpt><trkpt lat="43.480454" lon="10.5423483"><ele>134.66666666666666</ele><time>2026-04-19T07:30:12.024Z</time></trkpt><trkpt lat="43.4805146" lon="10.54216"><ele>132.0</ele><time>2026-04-19T07:30:13.024Z</time></trkpt><trkpt lat="43.4805671" lon="10.5419454"><ele>131.0</ele><time>2026-04-19T07:30:14.063Z</time></trkpt><trkpt lat="43.4806157" lon="10.541731"><ele>130.0</ele><time>2026-04-19T07:30:15.026Z</time></trkpt><trkpt lat="43.4806636" lon="10.5415051"><ele>129.0</ele><time>2026-04-19T07:30:16.018Z</time></trkpt><trkpt lat="43.4807119" lon="10.5412777"><ele>128.66666666666666</ele><time>2026-04-19T07:30:17.016Z</time></trkpt><trkpt lat="43.4807638" lon="10.5410351"><ele>128.33333333333331</ele><time>2026-04-19T07:30:18.006Z</time></trkpt><trkpt lat="43.4808157" lon="10.5407843"><ele>128.0</ele><time>2026-04-19T07:30:19.011Z</time></trkpt><trkpt lat="43.4808691" lon="10.5405324"><ele>128.33333333333331</ele><time>2026-04-19T07:30:20.014Z</time></trkpt><trkpt lat="43.4809186" lon="10.5402746"><ele>128.66666666666666</ele><time>2026-04-19T07:30:21.022Z</time></trkpt><trkpt lat="43.4809694" lon="10.5400128"><ele>129.0</ele><time>2026-04-19T07:30:22.02Z</time></trkpt><trkpt lat="43.4810232" lon="10.5397572"><ele>129.66666666666666</ele><time>2026-04-19T07:30:23.017Z</time></trkpt><trkpt lat="43.4810789" lon="10.539498"><ele>130.33333333333331</ele><time>2026-04-19T07:30:24.048Z</time></trkpt><trkpt lat="43.4811323" lon="10.5392403"><ele>131.0</ele><time>2026-04-19T07:30:25.021Z</time></trkpt><trkpt lat="43.4811836" lon="10.5389887"><ele>131.0</ele><time>2026-04-19T07:30:26.013Z</time></trkpt><trkpt lat="43.4812396" lon="10.5387378"><ele>131.0</ele><time>2026-04-19T07:30:27.018Z</time></trkpt><trkpt lat="43.4812966" lon="10.538489"><ele>131.0</ele><time>2026-04-19T07:30:28.016Z</time></trkpt><trkpt lat="43.4813447" lon="10.5382433"><ele>131.0</ele><time>2026-04-19T07:30:29.033Z</time></trkpt><trkpt lat="43.4813841" lon="10.5379996"><ele>131.0</ele><time>2026-04-19T07:30:30.02Z</time></trkpt><trkpt lat="43.4814026" lon="10.5377543"><ele>131.0</ele><time>2026-04-19T07:30:31.01Z</time></trkpt><trkpt lat="43.4813942" lon="10.5375033"><ele>131.0</ele><time>2026-04-19T07:30:32.009Z</time></trkpt><trkpt lat="43.4813647" lon="10.5372572"><ele>131.0</ele><time>2026-04-19T07:30:33.025Z</time></trkpt><trkpt lat="43.4813149" lon="10.5370155"><ele>131.0</ele><time>2026-04-19T07:30:34.009Z</time></trkpt><trkpt lat="43.4812587" lon="10.5367749"><ele>131.0</ele><time>2026-04-19T07:30:35.006Z</time></trkpt><trkpt lat="43.48121" lon="10.536528"><ele>131.0</ele><time>2026-04-19T07:30:36.005Z</time></trkpt><trkpt lat="43.4811599" lon="10.5362749"><ele>131.0</ele><time>2026-04-19T07:30:37.008Z</time></trkpt><trkpt lat="43.4811052" lon="10.5360293"><ele>132.33333333333331</ele><time>2026-04-19T07:30:38.009Z</time></trkpt><trkpt lat="43.4810494" lon="10.535785"><ele>133.66666666666666</ele><time>2026-04-19T07:30:39.019Z</time></trkpt><trkpt lat="43.4810036" lon="10.5355354"><ele>135.0</ele><time>2026-04-19T07:30:40.02Z</time></trkpt><trkpt lat="43.4809676" lon="10.5352931"><ele>135.0</ele><time>2026-04-19T07:30:41.021Z</time></trkpt><trkpt lat="43.4809215" lon="10.5350459"><ele>135.0</ele><time>2026-04-19T07:30:42.017Z</time></trkpt><trkpt lat="43.4808836" lon="10.534802"><ele>135.0</ele><time>2026-04-19T07:30:43.023Z</time></trkpt><trkpt lat="43.4808449" lon="10.5345543"><ele>135.33333333333334</ele><time>2026-04-19T07:30:44.013Z</time></trkpt><trkpt lat="43.480806" lon="10.5343104"><ele>135.66666666666669</ele><time>2026-04-19T07:30:45.022Z</time></trkpt><trkpt lat="43.4807718" lon="10.5340707"><ele>136.0</ele><time>2026-04-19T07:30:46.009Z</time></trkpt><trkpt lat="43.4807293" lon="10.5338525"><ele>135.0</ele><time>2026-04-19T07:30:47.016Z</time></trkpt><trkpt lat="43.4806897" lon="10.5336551"><ele>134.0</ele><time>2026-04-19T07:30:48.008Z</time></trkpt><trkpt lat="43.4806259" lon="10.5334562"><ele>133.0</ele><time>2026-04-19T07:30:49.005Z</time></trkpt><trkpt lat="43.4805389" lon="10.5332658"><ele>133.66666666666669</ele><time>2026-04-19T07:30:50.008Z</time></trkpt><trkpt lat="43.4804226" lon="10.5331019"><ele>134.33333333333334</ele><time>2026-04-19T07:30:51.019Z</time></trkpt><trkpt lat="43.4802905" lon="10.5329455"><ele>135.0</ele><time>2026-04-19T07:30:52.027Z</time></trkpt><trkpt lat="43.4801451" lon="10.5328056"><ele>135.0</ele><time>2026-04-19T07:30:53.018Z</time></trkpt><trkpt lat="43.4799844" lon="10.5326662"><ele>135.0</ele><time>2026-04-19T07:30:54.012Z</time></trkpt><trkpt lat="43.4798357" lon="10.5325264"><ele>135.0</ele><time>2026-04-19T07:30:55.011Z</time></trkpt><trkpt lat="43.4796872" lon="10.5323857"><ele>134.0</ele><time>2026-04-19T07:30:56.017Z</time></trkpt><trkpt lat="43.479544" lon="10.5322383"><ele>133.0</ele><time>2026-04-19T07:30:57.016Z</time></trkpt><trkpt lat="43.4794065" lon="10.5320628"><ele>132.0</ele><time>2026-04-19T07:30:58.027Z</time></trkpt><trkpt lat="43.479276" lon="10.5318619"><ele>132.0</ele><time>2026-04-19T07:30:59.025Z</time></trkpt><trkpt lat="43.479165" lon="10.5316519"><ele>132.0</ele><time>2026-04-19T07:31:00.019Z</time></trkpt><trkpt lat="43.4790551" lon="10.5314215"><ele>132.0</ele><time>2026-04-19T07:31:01.013Z</time></trkpt><trkpt lat="43.478953" lon="10.531185"><ele>131.66666666666666</ele><time>2026-04-19T07:31:02.058Z</time></trkpt><trkpt lat="43.4788665" lon="10.5309505"><ele>131.33333333333331</ele><time>2026-04-19T07:31:03.021Z</time></trkpt><trkpt lat="43.4787871" lon="10.530732"><ele>131.0</ele><time>2026-04-19T07:31:04.01Z</time></trkpt><trkpt lat="43.478707" lon="10.5305198"><ele>128.33333333333331</ele><time>2026-04-19T07:31:05.013Z</time></trkpt><trkpt lat="43.4786301" lon="10.5303212"><ele>125.66666666666666</ele><time>2026-04-19T07:31:06.019Z</time></trkpt><trkpt lat="43.4785602" lon="10.5301379"><ele>123.0</ele><time>2026-04-19T07:31:07.016Z</time></trkpt><trkpt lat="43.4784941" lon="10.5299544"><ele>123.0</ele><time>2026-04-19T07:31:08.008Z</time></trkpt><trkpt lat="43.4784309" lon="10.529787"><ele>123.0</ele><time>2026-04-19T07:31:09.015Z</time></trkpt><trkpt lat="43.4783625" lon="10.5296256"><ele>123.0</ele><time>2026-04-19T07:31:10.017Z</time></trkpt><trkpt lat="43.4783014" lon="10.5294658"><ele>123.0</ele><time>2026-04-19T07:31:11.02Z</time></trkpt><trkpt lat="43.478238" lon="10.5293049"><ele>123.0</ele><time>2026-04-19T07:31:12.015Z</time></trkpt><trkpt lat="43.4781746" lon="10.529143"><ele>123.0</ele><time>2026-04-19T07:31:13.012Z</time></trkpt><trkpt lat="43.4781119" lon="10.5289716"><ele>123.0</ele><time>2026-04-19T07:31:14.032Z</time></trkpt><trkpt lat="43.4780423" lon="10.5288014"><ele>123.0</ele><time>2026-04-19T07:31:15.013Z</time></trkpt><trkpt lat="43.4779697" lon="10.5286111"><ele>120.66666666666666</ele><time>2026-04-19T07:31:16.013Z</time></trkpt><trkpt lat="43.4778953" lon="10.5284178"><ele>118.33333333333333</ele><time>2026-04-19T07:31:17.034Z</time></trkpt><trkpt lat="43.4778154" lon="10.5282168"><ele>116.0</ele><time>2026-04-19T07:31:18.026Z</time></trkpt><trkpt lat="43.477733" lon="10.5280043"><ele>116.33333333333333</ele><time>2026-04-19T07:31:19.014Z</time></trkpt><trkpt lat="43.4776435" lon="10.5277839"><ele>116.66666666666666</ele><time>2026-04-19T07:31:20.024Z</time></trkpt><trkpt lat="43.4775515" lon="10.5275714"><ele>117.0</ele><time>2026-04-19T07:31:21.019Z</time></trkpt><trkpt lat="43.4774385" lon="10.5273836"><ele>117.0</ele><time>2026-04-19T07:31:22.014Z</time></trkpt><trkpt lat="43.4773232" lon="10.5271957"><ele>117.0</ele><time>2026-04-19T07:31:23.02Z</time></trkpt><trkpt lat="43.4771972" lon="10.5270356"><ele>117.0</ele><time>2026-04-19T07:31:24.03Z</time></trkpt><trkpt lat="43.4770624" lon="10.5268776"><ele>114.66666666666666</ele><time>2026-04-19T07:31:25.017Z</time></trkpt><trkpt lat="43.4769233" lon="10.5267315"><ele>112.33333333333333</ele><time>2026-04-19T07:31:26.022Z</time></trkpt><trkpt lat="43.4767822" lon="10.52659"><ele>110.0</ele><time>2026-04-19T07:31:27.021Z</time></trkpt><trkpt lat="43.4766321" lon="10.5264578"><ele>110.0</ele><time>2026-04-19T07:31:28.019Z</time></trkpt><trkpt lat="43.4764873" lon="10.5263162"><ele>110.0</ele><time>2026-04-19T07:31:29.021Z</time></trkpt><trkpt lat="43.4763366" lon="10.5261797"><ele>110.0</ele><time>2026-04-19T07:31:30.026Z</time></trkpt><trkpt lat="43.4761866" lon="10.5260411"><ele>109.33333333333333</ele><time>2026-04-19T07:31:31.024Z</time></trkpt><trkpt lat="43.476032" lon="10.5258876"><ele>108.66666666666666</ele><time>2026-04-19T07:31:32.017Z</time></trkpt><trkpt lat="43.475874" lon="10.5257366"><ele>108.0</ele><time>2026-04-19T07:31:33.017Z</time></trkpt><trkpt lat="43.4757216" lon="10.5255881"><ele>108.0</ele><time>2026-04-19T07:31:34.046Z</time></trkpt><trkpt lat="43.4756019" lon="10.5254418"><ele>108.0</ele><time>2026-04-19T07:31:35.021Z</time></trkpt><trkpt lat="43.4754979" lon="10.5252958"><ele>108.0</ele><time>2026-04-19T07:31:36.019Z</time></trkpt><trkpt lat="43.4753953" lon="10.5251504"><ele>106.66666666666666</ele><time>2026-04-19T07:31:37.021Z</time></trkpt><trkpt lat="43.4753014" lon="10.524979"><ele>105.33333333333333</ele><time>2026-04-19T07:31:38.018Z</time></trkpt><trkpt lat="43.4752187" lon="10.5247897"><ele>104.0</ele><time>2026-04-19T07:31:39.014Z</time></trkpt><trkpt lat="43.4751506" lon="10.5245873"><ele>104.66666666666666</ele><time>2026-04-19T07:31:40.025Z</time></trkpt><trkpt lat="43.4750978" lon="10.5243695"><ele>105.33333333333334</ele><time>2026-04-19T07:31:41.02Z</time></trkpt><trkpt lat="43.4750417" lon="10.5241569"><ele>106.0</ele><time>2026-04-19T07:31:42.028Z</time></trkpt><trkpt lat="43.4749891" lon="10.5239494"><ele>106.0</ele><time>2026-04-19T07:31:43.013Z</time></trkpt><trkpt lat="43.4749379" lon="10.5237368"><ele>106.0</ele><time>2026-04-19T07:31:44.021Z</time></trkpt><trkpt lat="43.4748826" lon="10.5235266"><ele>106.0</ele><time>2026-04-19T07:31:45.026Z</time></trkpt><trkpt lat="43.4748237" lon="10.5233189"><ele>105.66666666666667</ele><time>2026-04-19T07:31:46.031Z</time></trkpt><trkpt lat="43.4747673" lon="10.5231097"><ele>105.33333333333334</ele><time>2026-04-19T07:31:47.027Z</time></trkpt><trkpt lat="43.4747167" lon="10.5229049"><ele>105.0</ele><time>2026-04-19T07:31:48.021Z</time></trkpt><trkpt lat="43.4746669" lon="10.5226958"><ele>104.66666666666666</ele><time>2026-04-19T07:31:49.032Z</time></trkpt><trkpt lat="43.4746188" lon="10.5224907"><ele>104.33333333333333</ele><time>2026-04-19T07:31:50.017Z</time></trkpt><trkpt lat="43.4745714" lon="10.5222856"><ele>104.0</ele><time>2026-04-19T07:31:51.02Z</time></trkpt><trkpt lat="43.4745238" lon="10.5221003"><ele>103.0</ele><time>2026-04-19T07:31:52.013Z</time></trkpt><trkpt lat="43.4744827" lon="10.5219188"><ele>102.0</ele><time>2026-04-19T07:31:53.064Z</time></trkpt><trkpt lat="43.4744375" lon="10.5217499"><ele>101.0</ele><time>2026-04-19T07:31:54.022Z</time></trkpt><trkpt lat="43.4743909" lon="10.5215802"><ele>100.0</ele><time>2026-04-19T07:31:55.021Z</time></trkpt><trkpt lat="43.4743417" lon="10.5213961"><ele>100.0</ele><time>2026-04-19T07:31:56.023Z</time></trkpt><trkpt lat="43.4742994" lon="10.5212141"><ele>100.0</ele><time>2026-04-19T07:31:57.022Z</time></trkpt><trkpt lat="43.474247" lon="10.5210328"><ele>100.0</ele><time>2026-04-19T07:31:58.031Z</time></trkpt><trkpt lat="43.4741903" lon="10.5208367"><ele>100.0</ele><time>2026-04-19T07:31:59.022Z</time></trkpt><trkpt lat="43.4741223" lon="10.5206308"><ele>100.0</ele><time>2026-04-19T07:32:00.035Z</time></trkpt><trkpt lat="43.4740606" lon="10.5204418"><ele>100.0</ele><time>2026-04-19T07:32:01.025Z</time></trkpt><trkpt lat="43.4740046" lon="10.5202583"><ele>100.0</ele><time>2026-04-19T07:32:02.019Z</time></trkpt><trkpt lat="43.4739485" lon="10.5200825"><ele>100.0</ele><time>2026-04-19T07:32:03.014Z</time></trkpt><trkpt lat="43.4738894" lon="10.5199051"><ele>99.5</ele><time>2026-04-19T07:32:04.017Z</time></trkpt><trkpt lat="43.4738307" lon="10.5197307"><ele>99.0</ele><time>2026-04-19T07:32:05.035Z</time></trkpt><trkpt lat="43.4737712" lon="10.5195487"><ele>98.5</ele><time>2026-04-19T07:32:06.02Z</time></trkpt><trkpt lat="43.4737062" lon="10.5193573"><ele>98.0</ele><time>2026-04-19T07:32:07.017Z</time></trkpt><trkpt lat="43.4736399" lon="10.5191534"><ele>95.33333333333333</ele><time>2026-04-19T07:32:08.006Z</time></trkpt><trkpt lat="43.4735735" lon="10.5189431"><ele>92.66666666666666</ele><time>2026-04-19T07:32:09.007Z</time></trkpt><trkpt lat="43.4735076" lon="10.5187328"><ele>90.0</ele><time>2026-04-19T07:32:10.019Z</time></trkpt><trkpt lat="43.4734354" lon="10.5185087"><ele>89.0</ele><time>2026-04-19T07:32:11.015Z</time></trkpt><trkpt lat="43.4733658" lon="10.5182946"><ele>88.0</ele><time>2026-04-19T07:32:12.019Z</time></trkpt><trkpt lat="43.4732985" lon="10.5180865"><ele>87.0</ele><time>2026-04-19T07:32:13.009Z</time></trkpt><trkpt lat="43.4732399" lon="10.5178708"><ele>85.0</ele><time>2026-04-19T07:32:14.012Z</time></trkpt><trkpt lat="43.4731806" lon="10.5176526"><ele>83.0</ele><time>2026-04-19T07:32:15.012Z</time></trkpt><trkpt lat="43.4731345" lon="10.5174253"><ele>81.0</ele><time>2026-04-19T07:32:16.023Z</time></trkpt><trkpt lat="43.4730954" lon="10.5172051"><ele>78.66666666666667</ele><time>2026-04-19T07:32:17.026Z</time></trkpt><trkpt lat="43.4730648" lon="10.5169895"><ele>76.33333333333334</ele><time>2026-04-19T07:32:18.019Z</time></trkpt><trkpt lat="43.4730428" lon="10.5167792"><ele>74.0</ele><time>2026-04-19T07:32:19.015Z</time></trkpt><trkpt lat="43.4730344" lon="10.5165703"><ele>74.0</ele><time>2026-04-19T07:32:20.027Z</time></trkpt><trkpt lat="43.4730304" lon="10.5163516"><ele>74.0</ele><time>2026-04-19T07:32:21.015Z</time></trkpt><trkpt lat="43.4730262" lon="10.5161324"><ele>74.0</ele><time>2026-04-19T07:32:22.025Z</time></trkpt><trkpt lat="43.4730246" lon="10.5159161"><ele>72.0</ele><time>2026-04-19T07:32:23.005Z</time></trkpt><trkpt lat="43.4730227" lon="10.5157097"><ele>70.0</ele><time>2026-04-19T07:32:24.027Z</time></trkpt><trkpt lat="43.4730156" lon="10.5155104"><ele>68.0</ele><time>2026-04-19T07:32:25.018Z</time></trkpt><trkpt lat="43.4729947" lon="10.5153095"><ele>66.0</ele><time>2026-04-19T07:32:26.023Z</time></trkpt><trkpt lat="43.4729637" lon="10.5151136"><ele>65.0</ele><time>2026-04-19T07:32:27.021Z</time></trkpt><trkpt lat="43.4729162" lon="10.5149333"><ele>64.0</ele><time>2026-04-19T07:32:28.022Z</time></trkpt><trkpt lat="43.472854" lon="10.5147378"><ele>63.0</ele><time>2026-04-19T07:32:29.018Z</time></trkpt><trkpt lat="43.4727742" lon="10.5145398"><ele>63.0</ele><time>2026-04-19T07:32:30.015Z</time></trkpt><trkpt lat="43.4726803" lon="10.5143493"><ele>63.0</ele><time>2026-04-19T07:32:31.02Z</time></trkpt><trkpt lat="43.4725824" lon="10.5141635"><ele>63.0</ele><time>2026-04-19T07:32:32.018Z</time></trkpt><trkpt lat="43.4724928" lon="10.513979"><ele>63.0</ele><time>2026-04-19T07:32:33.033Z</time></trkpt><trkpt lat="43.4724059" lon="10.5137902"><ele>63.0</ele><time>2026-04-19T07:32:34.016Z</time></trkpt><trkpt lat="43.4723168" lon="10.5136084"><ele>63.0</ele><time>2026-04-19T07:32:35.034Z</time></trkpt><trkpt lat="43.4722292" lon="10.5134521"><ele>63.25</ele><time>2026-04-19T07:32:36.025Z</time></trkpt><trkpt lat="43.472135" lon="10.5133284"><ele>63.5</ele><time>2026-04-19T07:32:37.016Z</time></trkpt><trkpt lat="43.4720254" lon="10.5131942"><ele>63.75</ele><time>2026-04-19T07:32:38.03Z</time></trkpt><trkpt lat="43.4719128" lon="10.5130684"><ele>64.0</ele><time>2026-04-19T07:32:39.011Z</time></trkpt><trkpt lat="43.4717935" lon="10.5129433"><ele>65.5</ele><time>2026-04-19T07:32:40.02Z</time></trkpt><trkpt lat="43.4716737" lon="10.5128194"><ele>67.0</ele><time>2026-04-19T07:32:41.026Z</time></trkpt><trkpt lat="43.4715535" lon="10.5127039"><ele>68.5</ele><time>2026-04-19T07:32:42.026Z</time></trkpt><trkpt lat="43.4714262" lon="10.5126058"><ele>70.0</ele><time>2026-04-19T07:32:43.032Z</time></trkpt><trkpt lat="43.4713095" lon="10.5125164"><ele>70.8</ele><time>2026-04-19T07:32:44.021Z</time></trkpt><trkpt lat="43.4712212" lon="10.5124286"><ele>71.6</ele><time>2026-04-19T07:32:45.018Z</time></trkpt><trkpt lat="43.4711444" lon="10.5123312"><ele>72.4</ele><time>2026-04-19T07:32:46.013Z</time></trkpt><trkpt lat="43.4710658" lon="10.5122365"><ele>73.2</ele><time>2026-04-19T07:32:47.009Z</time></trkpt><trkpt lat="43.4709889" lon="10.512141"><ele>74.0</ele><time>2026-04-19T07:32:48.023Z</time></trkpt><trkpt lat="43.4709121" lon="10.5120568"><ele>74.0</ele><time>2026-04-19T07:32:49.022Z</time></trkpt><trkpt lat="43.4708415" lon="10.5119767"><ele>74.0</ele><time>2026-04-19T07:32:50.023Z</time></trkpt><trkpt lat="43.4707729" lon="10.5119044"><ele>74.0</ele><time>2026-04-19T07:32:51.015Z</time></trkpt><trkpt lat="43.4707037" lon="10.5118298"><ele>74.0</ele><time>2026-04-19T07:32:52.012Z</time></trkpt><trkpt lat="43.4706367" lon="10.5117427"><ele>74.0</ele><time>2026-04-19T07:32:53.018Z</time></trkpt><trkpt lat="43.4705639" lon="10.5116448"><ele>74.0</ele><time>2026-04-19T07:32:54.013Z</time></trkpt><trkpt lat="43.4704867" lon="10.5115509"><ele>74.0</ele><time>2026-04-19T07:32:55.01Z</time></trkpt><trkpt lat="43.4704027" lon="10.511452"><ele>74.0</ele><time>2026-04-19T07:32:56.018Z</time></trkpt><trkpt lat="43.4703267" lon="10.5113444"><ele>74.0</ele><time>2026-04-19T07:32:57.021Z</time></trkpt><trkpt lat="43.47026" lon="10.5112381"><ele>74.0</ele><time>2026-04-19T07:32:58.023Z</time></trkpt><trkpt lat="43.4702062" lon="10.5111529"><ele>74.4</ele><time>2026-04-19T07:32:59.014Z</time></trkpt><trkpt lat="43.4701462" lon="10.5110926"><ele>74.80000000000001</ele><time>2026-04-19T07:33:00.019Z</time></trkpt><trkpt lat="43.4700791" lon="10.511058"><ele>75.19999999999999</ele><time>2026-04-19T07:33:01.015Z</time></trkpt><trkpt lat="43.4699863" lon="10.5110357"><ele>75.6</ele><time>2026-04-19T07:33:02.019Z</time></trkpt><trkpt lat="43.4698849" lon="10.5110243"><ele>76.0</ele><time>2026-04-19T07:33:03.014Z</time></trkpt><trkpt lat="43.4697764" lon="10.5110139"><ele>76.0</ele><time>2026-04-19T07:33:04.026Z</time></trkpt><trkpt lat="43.4696672" lon="10.5110074"><ele>76.0</ele><time>2026-04-19T07:33:05.019Z</time></trkpt><trkpt lat="43.4695541" lon="10.5110126"><ele>76.0</ele><time>2026-04-19T07:33:06.017Z</time></trkpt><trkpt lat="43.4694379" lon="10.5110337"><ele>76.0</ele><time>2026-04-19T07:33:07.022Z</time></trkpt><trkpt lat="43.4693121" lon="10.5110637"><ele>76.5</ele><time>2026-04-19T07:33:08.019Z</time></trkpt><trkpt lat="43.4691814" lon="10.5111039"><ele>77.0</ele><time>2026-04-19T07:33:09.02Z</time></trkpt><trkpt lat="43.4690464" lon="10.5111463"><ele>77.5</ele><time>2026-04-19T07:33:10.019Z</time></trkpt><trkpt lat="43.4688909" lon="10.5112039"><ele>78.0</ele><time>2026-04-19T07:33:11.024Z</time></trkpt><trkpt lat="43.4687215" lon="10.5112761"><ele>75.33333333333333</ele><time>2026-04-19T07:33:12.027Z</time></trkpt><trkpt lat="43.4685632" lon="10.5113361"><ele>72.66666666666666</ele><time>2026-04-19T07:33:13.018Z</time></trkpt><trkpt lat="43.4683931" lon="10.5113753"><ele>70.0</ele><time>2026-04-19T07:33:14.023Z</time></trkpt><trkpt lat="43.4682086" lon="10.5113997"><ele>70.0</ele><time>2026-04-19T07:33:15.024Z</time></trkpt><trkpt lat="43.4680077" lon="10.5114071"><ele>70.0</ele><time>2026-04-19T07:33:16.019Z</time></trkpt><trkpt lat="43.4678236" lon="10.5114144"><ele>70.0</ele><time>2026-04-19T07:33:17.012Z</time></trkpt><trkpt lat="43.4676611" lon="10.5114281"><ele>70.5</ele><time>2026-04-19T07:33:18.027Z</time></trkpt><trkpt lat="43.4675113" lon="10.5114522"><ele>71.0</ele><time>2026-04-19T07:33:19.027Z</time></trkpt><trkpt lat="43.4673732" lon="10.5114843"><ele>71.5</ele><time>2026-04-19T07:33:20.01Z</time></trkpt><trkpt lat="43.4672471" lon="10.5115089"><ele>72.0</ele><time>2026-04-19T07:33:21.019Z</time></trkpt><trkpt lat="43.4671204" lon="10.5115167"><ele>72.33333333333333</ele><time>2026-04-19T07:33:22.021Z</time></trkpt><trkpt lat="43.4669693" lon="10.5115189"><ele>72.66666666666666</ele><time>2026-04-19T07:33:23.022Z</time></trkpt><trkpt lat="43.4668163" lon="10.5115258"><ele>73.0</ele><time>2026-04-19T07:33:24.038Z</time></trkpt><trkpt lat="43.4666625" lon="10.5115144"><ele>73.0</ele><time>2026-04-19T07:33:25.01Z</time></trkpt><trkpt lat="43.466491" lon="10.5114905"><ele>73.0</ele><time>2026-04-19T07:33:26.012Z</time></trkpt><trkpt lat="43.4663232" lon="10.5114679"><ele>73.0</ele><time>2026-04-19T07:33:27.014Z</time></trkpt><trkpt lat="43.4661469" lon="10.5114397"><ele>72.33333333333333</ele><time>2026-04-19T07:33:28.021Z</time></trkpt><trkpt lat="43.4659582" lon="10.5113936"><ele>71.66666666666667</ele><time>2026-04-19T07:33:29.014Z</time></trkpt><trkpt lat="43.4657751" lon="10.5113451"><ele>71.0</ele><time>2026-04-19T07:33:30.018Z</time></trkpt><trkpt lat="43.465596" lon="10.511309"><ele>71.33333333333334</ele><time>2026-04-19T07:33:31.02Z</time></trkpt><trkpt lat="43.4654062" lon="10.5112813"><ele>71.66666666666667</ele><time>2026-04-19T07:33:32.024Z</time></trkpt><trkpt lat="43.4652245" lon="10.5112448"><ele>72.0</ele><time>2026-04-19T07:33:33.015Z</time></trkpt><trkpt lat="43.4650519" lon="10.5112092"><ele>72.33333333333333</ele><time>2026-04-19T07:33:34.017Z</time></trkpt><trkpt lat="43.4648819" lon="10.5111704"><ele>72.66666666666666</ele><time>2026-04-19T07:33:35.028Z</time></trkpt><trkpt lat="43.4647098" lon="10.5111465"><ele>73.0</ele><time>2026-04-19T07:33:36.022Z</time></trkpt><trkpt lat="43.4645286" lon="10.5111427"><ele>73.0</ele><time>2026-04-19T07:33:37.017Z</time></trkpt><trkpt lat="43.4643367" lon="10.5111613"><ele>73.0</ele><time>2026-04-19T07:33:38.024Z</time></trkpt><trkpt lat="43.4641307" lon="10.5111841"><ele>73.0</ele><time>2026-04-19T07:33:39.014Z</time></trkpt><trkpt lat="43.4639318" lon="10.5111869"><ele>72.33333333333333</ele><time>2026-04-19T07:33:40.013Z</time></trkpt><trkpt lat="43.4637486" lon="10.5111974"><ele>71.66666666666667</ele><time>2026-04-19T07:33:41.005Z</time></trkpt><trkpt lat="43.4635826" lon="10.5111971"><ele>71.0</ele><time>2026-04-19T07:33:42.015Z</time></trkpt><trkpt lat="43.4634362" lon="10.5111935"><ele>71.0</ele><time>2026-04-19T07:33:43.033Z</time></trkpt><trkpt lat="43.4633104" lon="10.5111952"><ele>71.0</ele><time>2026-04-19T07:33:44.014Z</time></trkpt><trkpt lat="43.463213" lon="10.5111923"><ele>71.0</ele><time>2026-04-19T07:33:45.027Z</time></trkpt><trkpt lat="43.4631411" lon="10.5111936"><ele>71.0</ele><time>2026-04-19T07:33:46.011Z</time></trkpt><trkpt lat="43.4630159" lon="10.5112006"><ele>71.0</ele><time>2026-04-19T07:33:48.015Z</time></trkpt><trkpt lat="43.4629488" lon="10.511208"><ele>70.6</ele><time>2026-04-19T07:33:49.013Z</time></trkpt><trkpt lat="43.4628755" lon="10.5112031"><ele>70.19999999999999</ele><time>2026-04-19T07:33:50.018Z</time></trkpt><trkpt lat="43.462776" lon="10.5112118"><ele>69.80000000000001</ele><time>2026-04-19T07:33:51.022Z</time></trkpt><trkpt lat="43.4626509" lon="10.5112251"><ele>69.4</ele><time>2026-04-19T07:33:52.017Z</time></trkpt><trkpt lat="43.4625223" lon="10.5112348"><ele>69.0</ele><time>2026-04-19T07:33:53.018Z</time></trkpt><trkpt lat="43.4623762" lon="10.5112523"><ele>69.0</ele><time>2026-04-19T07:33:54.022Z</time></trkpt><trkpt lat="43.4622027" lon="10.5112838"><ele>69.0</ele><time>2026-04-19T07:33:55.019Z</time></trkpt><trkpt lat="43.4620291" lon="10.5113266"><ele>69.0</ele><time>2026-04-19T07:33:56.031Z</time></trkpt><trkpt lat="43.4618707" lon="10.5113963"><ele>69.5</ele><time>2026-04-19T07:33:57.013Z</time></trkpt><trkpt lat="43.4617335" lon="10.5114787"><ele>70.0</ele><time>2026-04-19T07:33:58.018Z</time></trkpt><trkpt lat="43.4616125" lon="10.511532"><ele>70.5</ele><time>2026-04-19T07:33:59.006Z</time></trkpt><trkpt lat="43.4614933" lon="10.5115446"><ele>71.0</ele><time>2026-04-19T07:34:00.015Z</time></trkpt><trkpt lat="43.4613522" lon="10.5115545"><ele>71.0</ele><time>2026-04-19T07:34:01.013Z</time></trkpt><trkpt lat="43.4612337" lon="10.5116051"><ele>71.0</ele><time>2026-04-19T07:34:02.017Z</time></trkpt><trkpt lat="43.4610954" lon="10.5116569"><ele>71.0</ele><time>2026-04-19T07:34:03.011Z</time></trkpt><trkpt lat="43.4609526" lon="10.5116787"><ele>71.0</ele><time>2026-04-19T07:34:04.017Z</time></trkpt><trkpt lat="43.4608161" lon="10.5116704"><ele>71.0</ele><time>2026-04-19T07:34:05.009Z</time></trkpt><trkpt lat="43.4606934" lon="10.5116647"><ele>71.0</ele><time>2026-04-19T07:34:06.024Z</time></trkpt><trkpt lat="43.4606006" lon="10.5116675"><ele>71.0</ele><time>2026-04-19T07:34:07.01Z</time></trkpt><trkpt lat="43.4605194" lon="10.5116765"><ele>71.0</ele><time>2026-04-19T07:34:08.034Z</time></trkpt><trkpt lat="43.4604525" lon="10.5116877"><ele>71.0</ele><time>2026-04-19T07:34:09.008Z</time></trkpt><trkpt lat="43.4603869" lon="10.5116963"><ele>71.0</ele><time>2026-04-19T07:34:10.02Z</time></trkpt><trkpt lat="43.460281" lon="10.5117148"><ele>71.39999999999999</ele><time>2026-04-19T07:34:12.018Z</time></trkpt><trkpt lat="43.4601983" lon="10.5117352"><ele>71.8</ele><time>2026-04-19T07:34:13.015Z</time></trkpt><trkpt lat="43.4601008" lon="10.5117736"><ele>72.19999999999999</ele><time>2026-04-19T07:34:14.013Z</time></trkpt><trkpt lat="43.4599946" lon="10.5118156"><ele>72.6</ele><time>2026-04-19T07:34:15.016Z</time></trkpt><trkpt lat="43.4598975" lon="10.511863"><ele>73.0</ele><time>2026-04-19T07:34:16.009Z</time></trkpt><trkpt lat="43.4598211" lon="10.5119201"><ele>73.0</ele><time>2026-04-19T07:34:17.01Z</time></trkpt><trkpt lat="43.459747" lon="10.5119837"><ele>73.0</ele><time>2026-04-19T07:34:18.016Z</time></trkpt><trkpt lat="43.4596699" lon="10.5120544"><ele>73.0</ele><time>2026-04-19T07:34:19.011Z</time></trkpt><trkpt lat="43.4595853" lon="10.5121275"><ele>73.0</ele><time>2026-04-19T07:34:20.004Z</time></trkpt><trkpt lat="43.4594865" lon="10.5121989"><ele>73.0</ele><time>2026-04-19T07:34:21.036Z</time></trkpt><trkpt lat="43.4593939" lon="10.5122617"><ele>73.5</ele><time>2026-04-19T07:34:22.021Z</time></trkpt><trkpt lat="43.4593037" lon="10.512324"><ele>74.0</ele><time>2026-04-19T07:34:23.018Z</time></trkpt><trkpt lat="43.459215" lon="10.5123867"><ele>74.5</ele><time>2026-04-19T07:34:24.019Z</time></trkpt><trkpt lat="43.4591003" lon="10.512451"><ele>75.0</ele><time>2026-04-19T07:34:25.017Z</time></trkpt><trkpt lat="43.4589748" lon="10.5125163"><ele>75.0</ele><time>2026-04-19T07:34:26.014Z</time></trkpt><trkpt lat="43.4588754" lon="10.5125642"><ele>75.0</ele><time>2026-04-19T07:34:27.004Z</time></trkpt><trkpt lat="43.458791" lon="10.5125797"><ele>75.0</ele><time>2026-04-19T07:34:28.009Z</time></trkpt><trkpt lat="43.4587329" lon="10.5126466"><ele>75.0</ele><time>2026-04-19T07:34:29.02Z</time></trkpt><trkpt lat="43.458674" lon="10.5128311"><ele>75.0</ele><time>2026-04-19T07:34:31.01Z</time></trkpt><trkpt lat="43.45865" lon="10.5129587"><ele>75.6</ele><time>2026-04-19T07:34:32.029Z</time></trkpt><trkpt lat="43.4586" lon="10.5130483"><ele>76.2</ele><time>2026-04-19T07:34:33.014Z</time></trkpt><trkpt lat="43.4585278" lon="10.5131273"><ele>76.8</ele><time>2026-04-19T07:34:34Z</time></trkpt><trkpt lat="43.4584266" lon="10.5132013"><ele>77.4</ele><time>2026-04-19T07:34:35.011Z</time></trkpt><trkpt lat="43.4583193" lon="10.5132888"><ele>78.0</ele><time>2026-04-19T07:34:36.022Z</time></trkpt><trkpt lat="43.458219" lon="10.513388"><ele>78.0</ele><time>2026-04-19T07:34:37.006Z</time></trkpt><trkpt lat="43.4581499" lon="10.5134852"><ele>78.0</ele><time>2026-04-19T07:34:38.012Z</time></trkpt><trkpt lat="43.4580858" lon="10.5135751"><ele>78.0</ele><time>2026-04-19T07:34:39.019Z</time></trkpt><trkpt lat="43.4580341" lon="10.5136424"><ele>78.0</ele><time>2026-04-19T07:34:40.019Z</time></trkpt><trkpt lat="43.4579328" lon="10.5137363"><ele>78.0</ele><time>2026-04-19T07:34:42.005Z</time></trkpt><trkpt lat="43.4578628" lon="10.5137812"><ele>77.33333333333333</ele><time>2026-04-19T07:34:43.019Z</time></trkpt><trkpt lat="43.4577783" lon="10.513807"><ele>76.66666666666667</ele><time>2026-04-19T07:34:44.004Z</time></trkpt><trkpt lat="43.4577026" lon="10.5138314"><ele>76.0</ele><time>2026-04-19T07:34:45.011Z</time></trkpt><trkpt lat="43.4576154" lon="10.5138511"><ele>75.33333333333334</ele><time>2026-04-19T07:34:46.023Z</time></trkpt><trkpt lat="43.4575315" lon="10.5138722"><ele>74.66666666666667</ele><time>2026-04-19T07:34:47.016Z</time></trkpt><trkpt lat="43.4574668" lon="10.51389"><ele>74.0</ele><time>2026-04-19T07:34:48.04Z</time></trkpt><trkpt lat="43.4574692" lon="10.5137607"><ele>74.60000000000001</ele><time>2026-04-19T07:34:54.016Z</time></trkpt><trkpt lat="43.4574947" lon="10.5136688"><ele>75.2</ele><time>2026-04-19T07:34:55.015Z</time></trkpt><trkpt lat="43.4575399" lon="10.5135644"><ele>75.80000000000001</ele><time>2026-04-19T07:34:56.012Z</time></trkpt><trkpt lat="43.4575866" lon="10.5134349"><ele>76.4</ele><time>2026-04-19T07:34:57.016Z</time></trkpt><trkpt lat="43.4576416" lon="10.5132925"><ele>77.0</ele><time>2026-04-19T07:34:58.01Z</time></trkpt><trkpt lat="43.4576962" lon="10.5131319"><ele>77.0</ele><time>2026-04-19T07:34:59.011Z</time></trkpt><trkpt lat="43.4577536" lon="10.5129692"><ele>77.0</ele><time>2026-04-19T07:35:00.018Z</time></trkpt><trkpt lat="43.4578016" lon="10.5127956"><ele>77.0</ele><time>2026-04-19T07:35:01.013Z</time></trkpt><trkpt lat="43.4578503" lon="10.5126161"><ele>77.0</ele><time>2026-04-19T07:35:02.026Z</time></trkpt><trkpt lat="43.4579024" lon="10.5124312"><ele>76.25</ele><time>2026-04-19T07:35:03.011Z</time></trkpt><trkpt lat="43.457948" lon="10.5122508"><ele>75.5</ele><time>2026-04-19T07:35:04.022Z</time></trkpt><trkpt lat="43.4579863" lon="10.5120774"><ele>74.75</ele><time>2026-04-19T07:35:05.018Z</time></trkpt><trkpt lat="43.4580279" lon="10.511908"><ele>74.0</ele><time>2026-04-19T07:35:06.005Z</time></trkpt><trkpt lat="43.4580711" lon="10.5117348"><ele>77.66666666666667</ele><time>2026-04-19T07:35:07.034Z</time></trkpt><trkpt lat="43.4581247" lon="10.5115454"><ele>81.33333333333333</ele><time>2026-04-19T07:35:08.022Z</time></trkpt><trkpt lat="43.4581833" lon="10.5113517"><ele>85.0</ele><time>2026-04-19T07:35:09.018Z</time></trkpt><trkpt lat="43.458247" lon="10.511154"><ele>86.25</ele><time>2026-04-19T07:35:10.023Z</time></trkpt><trkpt lat="43.4583025" lon="10.5109483"><ele>87.5</ele><time>2026-04-19T07:35:11.014Z</time></trkpt><trkpt lat="43.458341" lon="10.5107531"><ele>88.75</ele><time>2026-04-19T07:35:12.023Z</time></trkpt><trkpt lat="43.4583498" lon="10.5105765"><ele>90.0</ele><time>2026-04-19T07:35:13.011Z</time></trkpt><trkpt lat="43.4583384" lon="10.5104005"><ele>90.5</ele><time>2026-04-19T07:35:14.016Z</time></trkpt><trkpt lat="43.4583158" lon="10.5102052"><ele>91.0</ele><time>2026-04-19T07:35:15.016Z</time></trkpt><trkpt lat="43.4583007" lon="10.5100264"><ele>91.5</ele><time>2026-04-19T07:35:16.022Z</time></trkpt><trkpt lat="43.4582847" lon="10.5098524"><ele>92.0</ele><time>2026-04-19T07:35:17.027Z</time></trkpt><trkpt lat="43.4582591" lon="10.5096711"><ele>91.0</ele><time>2026-04-19T07:35:18.012Z</time></trkpt><trkpt lat="43.4582057" lon="10.5095018"><ele>90.0</ele><time>2026-04-19T07:35:19.045Z</time></trkpt><trkpt lat="43.4581433" lon="10.5093464"><ele>89.0</ele><time>2026-04-19T07:35:20.014Z</time></trkpt><trkpt lat="43.4580765" lon="10.5092071"><ele>88.0</ele><time>2026-04-19T07:35:21.02Z</time></trkpt><trkpt lat="43.458007" lon="10.5090463"><ele>88.0</ele><time>2026-04-19T07:35:22.009Z</time></trkpt><trkpt lat="43.4579402" lon="10.508892"><ele>88.0</ele><time>2026-04-19T07:35:23.01Z</time></trkpt><trkpt lat="43.4578806" lon="10.5087393"><ele>88.0</ele><time>2026-04-19T07:35:24.013Z</time></trkpt><trkpt lat="43.4578283" lon="10.5086211"><ele>88.0</ele><time>2026-04-19T07:35:25.023Z</time></trkpt><trkpt lat="43.457776" lon="10.5085161"><ele>88.0</ele><time>2026-04-19T07:35:26.013Z</time></trkpt><trkpt lat="43.4577217" lon="10.5084426"><ele>87.2</ele><time>2026-04-19T07:35:27.026Z</time></trkpt><trkpt lat="43.4576541" lon="10.5084096"><ele>86.4</ele><time>2026-04-19T07:35:28.011Z</time></trkpt><trkpt lat="43.4575574" lon="10.508391"><ele>85.60000000000001</ele><time>2026-04-19T07:35:29.019Z</time></trkpt><trkpt lat="43.4574561" lon="10.5083964"><ele>84.80000000000001</ele><time>2026-04-19T07:35:30.021Z</time></trkpt><trkpt lat="43.4573598" lon="10.5084176"><ele>84.0</ele><time>2026-04-19T07:35:31.01Z</time></trkpt><trkpt lat="43.4572779" lon="10.5084786"><ele>84.0</ele><time>2026-04-19T07:35:32.01Z</time></trkpt><trkpt lat="43.4572055" lon="10.5085717"><ele>84.0</ele><time>2026-04-19T07:35:33.014Z</time></trkpt><trkpt lat="43.4571234" lon="10.5086846"><ele>84.0</ele><time>2026-04-19T07:35:34.037Z</time></trkpt><trkpt lat="43.457039" lon="10.5087908"><ele>84.0</ele><time>2026-04-19T07:35:35.013Z</time></trkpt><trkpt lat="43.4569486" lon="10.5088737"><ele>84.0</ele><time>2026-04-19T07:35:36.013Z</time></trkpt><trkpt lat="43.4568634" lon="10.5089217"><ele>83.2</ele><time>2026-04-19T07:35:37.036Z</time></trkpt><trkpt lat="43.4567878" lon="10.5089416"><ele>82.4</ele><time>2026-04-19T07:35:38.02Z</time></trkpt><trkpt lat="43.4566877" lon="10.5089265"><ele>81.6</ele><time>2026-04-19T07:35:39.017Z</time></trkpt><trkpt lat="43.4565784" lon="10.5088912"><ele>80.8</ele><time>2026-04-19T07:35:40.013Z</time></trkpt><trkpt lat="43.4564616" lon="10.5088506"><ele>80.0</ele><time>2026-04-19T07:35:41.015Z</time></trkpt><trkpt lat="43.4563572" lon="10.5088257"><ele>79.6</ele><time>2026-04-19T07:35:42.012Z</time></trkpt><trkpt lat="43.4562623" lon="10.5088291"><ele>79.2</ele><time>2026-04-19T07:35:43.017Z</time></trkpt><trkpt lat="43.4561833" lon="10.5088331"><ele>78.8</ele><time>2026-04-19T07:35:44.01Z</time></trkpt><trkpt lat="43.4561072" lon="10.5088165"><ele>78.4</ele><time>2026-04-19T07:35:45.009Z</time></trkpt><trkpt lat="43.4560186" lon="10.5087849"><ele>78.0</ele><time>2026-04-19T07:35:46.012Z</time></trkpt><trkpt lat="43.4559131" lon="10.5087484"><ele>76.0</ele><time>2026-04-19T07:35:47.008Z</time></trkpt><trkpt lat="43.4558068" lon="10.5087082"><ele>74.0</ele><time>2026-04-19T07:35:48Z</time></trkpt><trkpt lat="43.455685" lon="10.5086534"><ele>72.0</ele><time>2026-04-19T07:35:49.013Z</time></trkpt><trkpt lat="43.4555544" lon="10.5085871"><ele>70.0</ele><time>2026-04-19T07:35:50.014Z</time></trkpt><trkpt lat="43.4554166" lon="10.5085209"><ele>70.0</ele><time>2026-04-19T07:35:50.995Z</time></trkpt><trkpt lat="43.4552786" lon="10.508446"><ele>70.0</ele><time>2026-04-19T07:35:52.007Z</time></trkpt><trkpt lat="43.4551493" lon="10.5083715"><ele>70.0</ele><time>2026-04-19T07:35:53.015Z</time></trkpt><trkpt lat="43.4550189" lon="10.5082944"><ele>70.0</ele><time>2026-04-19T07:35:54.031Z</time></trkpt><trkpt lat="43.4548915" lon="10.5082144"><ele>70.0</ele><time>2026-04-19T07:35:55.022Z</time></trkpt><trkpt lat="43.4547565" lon="10.5081463"><ele>70.0</ele><time>2026-04-19T07:35:56.017Z</time></trkpt><trkpt lat="43.4546284" lon="10.5080789"><ele>70.0</ele><time>2026-04-19T07:35:57.019Z</time></trkpt><trkpt lat="43.4544962" lon="10.5080449"><ele>70.0</ele><time>2026-04-19T07:35:58.017Z</time></trkpt><trkpt lat="43.4543565" lon="10.5080255"><ele>69.66666666666666</ele><time>2026-04-19T07:35:59.039Z</time></trkpt><trkpt lat="43.4542052" lon="10.5080081"><ele>69.33333333333333</ele><time>2026-04-19T07:36:00.027Z</time></trkpt><trkpt lat="43.4540551" lon="10.5079732"><ele>69.0</ele><time>2026-04-19T07:36:01.011Z</time></trkpt><trkpt lat="43.4539009" lon="10.5079237"><ele>67.33333333333333</ele><time>2026-04-19T07:36:02.031Z</time></trkpt><trkpt lat="43.4537583" lon="10.5078624"><ele>65.66666666666666</ele><time>2026-04-19T07:36:03.024Z</time></trkpt><trkpt lat="43.4536011" lon="10.5077826"><ele>64.0</ele><time>2026-04-19T07:36:04.021Z</time></trkpt><trkpt lat="43.4534677" lon="10.5076971"><ele>64.0</ele><time>2026-04-19T07:36:05.014Z</time></trkpt><trkpt lat="43.4533491" lon="10.5075974"><ele>64.0</ele><time>2026-04-19T07:36:06.023Z</time></trkpt><trkpt lat="43.4532503" lon="10.5075013"><ele>64.0</ele><time>2026-04-19T07:36:07.023Z</time></trkpt><trkpt lat="43.4531576" lon="10.5073896"><ele>64.0</ele><time>2026-04-19T07:36:08.024Z</time></trkpt><trkpt lat="43.4530629" lon="10.5072962"><ele>64.0</ele><time>2026-04-19T07:36:09.036Z</time></trkpt><trkpt lat="43.4529578" lon="10.5072134"><ele>64.0</ele><time>2026-04-19T07:36:10.022Z</time></trkpt><trkpt lat="43.4528303" lon="10.5071237"><ele>64.0</ele><time>2026-04-19T07:36:11.02Z</time></trkpt><trkpt lat="43.4527039" lon="10.50701"><ele>64.0</ele><time>2026-04-19T07:36:12.017Z</time></trkpt><trkpt lat="43.4525555" lon="10.5068945"><ele>64.0</ele><time>2026-04-19T07:36:13.024Z</time></trkpt><trkpt lat="43.4524034" lon="10.5067861"><ele>64.0</ele><time>2026-04-19T07:36:14.014Z</time></trkpt><trkpt lat="43.4522427" lon="10.506676"><ele>64.0</ele><time>2026-04-19T07:36:15.022Z</time></trkpt><trkpt lat="43.452103" lon="10.5065732"><ele>63.0</ele><time>2026-04-19T07:36:16.029Z</time></trkpt><trkpt lat="43.4519743" lon="10.506464"><ele>62.0</ele><time>2026-04-19T07:36:17.02Z</time></trkpt><trkpt lat="43.4518701" lon="10.506341"><ele>61.0</ele><time>2026-04-19T07:36:18.022Z</time></trkpt><trkpt lat="43.4517685" lon="10.5061953"><ele>60.0</ele><time>2026-04-19T07:36:19.043Z</time></trkpt><trkpt lat="43.4516707" lon="10.5060556"><ele>60.0</ele><time>2026-04-19T07:36:20.017Z</time></trkpt><trkpt lat="43.4515742" lon="10.5059336"><ele>60.0</ele><time>2026-04-19T07:36:21.011Z</time></trkpt><trkpt lat="43.4514947" lon="10.5058089"><ele>60.0</ele><time>2026-04-19T07:36:22.019Z</time></trkpt><trkpt lat="43.4514093" lon="10.5056821"><ele>60.0</ele><time>2026-04-19T07:36:23.018Z</time></trkpt><trkpt lat="43.4513333" lon="10.5055268"><ele>58.66666666666667</ele><time>2026-04-19T07:36:24.026Z</time></trkpt><trkpt lat="43.4512473" lon="10.505346"><ele>57.333333333333336</ele><time>2026-04-19T07:36:25.029Z</time></trkpt><trkpt lat="43.4511594" lon="10.505156"><ele>56.0</ele><time>2026-04-19T07:36:26.022Z</time></trkpt><trkpt lat="43.4510727" lon="10.504977"><ele>56.0</ele><time>2026-04-19T07:36:27.049Z</time></trkpt><trkpt lat="43.4509823" lon="10.5047921"><ele>56.0</ele><time>2026-04-19T07:36:28.027Z</time></trkpt><trkpt lat="43.4508877" lon="10.5046067"><ele>56.0</ele><time>2026-04-19T07:36:29.027Z</time></trkpt><trkpt lat="43.4508131" lon="10.5044519"><ele>55.199999999999996</ele><time>2026-04-19T07:36:30.015Z</time></trkpt><trkpt lat="43.4507533" lon="10.5043401"><ele>54.39999999999999</ele><time>2026-04-19T07:36:31.025Z</time></trkpt><trkpt lat="43.4506942" lon="10.5042353"><ele>53.6</ele><time>2026-04-19T07:36:32.019Z</time></trkpt><trkpt lat="43.4506224" lon="10.5041155"><ele>52.8</ele><time>2026-04-19T07:36:33.02Z</time></trkpt><trkpt lat="43.4505363" lon="10.5039748"><ele>52.0</ele><time>2026-04-19T07:36:34.014Z</time></trkpt><trkpt lat="43.450444" lon="10.5038191"><ele>50.5</ele><time>2026-04-19T07:36:35.021Z</time></trkpt><trkpt lat="43.4503472" lon="10.5036953"><ele>49.0</ele><time>2026-04-19T07:36:36.027Z</time></trkpt><trkpt lat="43.4502477" lon="10.5035841"><ele>47.5</ele><time>2026-04-19T07:36:37.061Z</time></trkpt><trkpt lat="43.4501554" lon="10.5034738"><ele>46.0</ele><time>2026-04-19T07:36:38.018Z</time></trkpt><trkpt lat="43.4500439" lon="10.5033686"><ele>46.0</ele><time>2026-04-19T07:36:39.025Z</time></trkpt><trkpt lat="43.4499325" lon="10.5032733"><ele>46.0</ele><time>2026-04-19T07:36:40.015Z</time></trkpt><trkpt lat="43.4498337" lon="10.5031913"><ele>46.0</ele><time>2026-04-19T07:36:41.015Z</time></trkpt><trkpt lat="43.4497637" lon="10.5031264"><ele>46.0</ele><time>2026-04-19T07:36:42.014Z</time></trkpt><trkpt lat="43.4497039" lon="10.5030597"><ele>46.0</ele><time>2026-04-19T07:36:43.009Z</time></trkpt><trkpt lat="43.4496466" lon="10.5030038"><ele>44.8</ele><time>2026-04-19T07:36:44.046Z</time></trkpt><trkpt lat="43.4495521" lon="10.5029117"><ele>43.599999999999994</ele><time>2026-04-19T07:36:46.017Z</time></trkpt><trkpt lat="43.4494741" lon="10.5028388"><ele>42.4</ele><time>2026-04-19T07:36:48.022Z</time></trkpt><trkpt lat="43.4493905" lon="10.5027628"><ele>41.2</ele><time>2026-04-19T07:36:50.013Z</time></trkpt><trkpt lat="43.4492921" lon="10.5026845"><ele>40.0</ele><time>2026-04-19T07:36:52.001Z</time></trkpt><trkpt lat="43.4491785" lon="10.5026063"><ele>40.0</ele><time>2026-04-19T07:36:54.018Z</time></trkpt><trkpt lat="43.4491117" lon="10.5025643"><ele>40.0</ele><time>2026-04-19T07:36:55.017Z</time></trkpt><trkpt lat="43.4490282" lon="10.5025248"><ele>40.0</ele><time>2026-04-19T07:36:56.021Z</time></trkpt><trkpt lat="43.4489307" lon="10.5024761"><ele>40.0</ele><time>2026-04-19T07:36:57.014Z</time></trkpt><trkpt lat="43.4488279" lon="10.5024393"><ele>40.0</ele><time>2026-04-19T07:36:58.019Z</time></trkpt><trkpt lat="43.4487146" lon="10.5024045"><ele>39.4</ele><time>2026-04-19T07:36:59.013Z</time></trkpt><trkpt lat="43.4486018" lon="10.5023825"><ele>38.8</ele><time>2026-04-19T07:37:00.018Z</time></trkpt><trkpt lat="43.448498" lon="10.5023667"><ele>38.2</ele><time>2026-04-19T07:37:01.018Z</time></trkpt><trkpt lat="43.4483999" lon="10.5023615"><ele>37.6</ele><time>2026-04-19T07:37:02.031Z</time></trkpt><trkpt lat="43.4483053" lon="10.5023753"><ele>37.0</ele><time>2026-04-19T07:37:03.022Z</time></trkpt><trkpt lat="43.4482018" lon="10.5024293"><ele>37.0</ele><time>2026-04-19T07:37:04.02Z</time></trkpt><trkpt lat="43.4480821" lon="10.5025304"><ele>37.0</ele><time>2026-04-19T07:37:05.011Z</time></trkpt><trkpt lat="43.447942" lon="10.5026334"><ele>37.0</ele><time>2026-04-19T07:37:06.011Z</time></trkpt><trkpt lat="43.4478225" lon="10.5027054"><ele>37.0</ele><time>2026-04-19T07:37:07.03Z</time></trkpt><trkpt lat="43.4477245" lon="10.5027504"><ele>36.800000000000004</ele><time>2026-04-19T07:37:08.01Z</time></trkpt><trkpt lat="43.4476407" lon="10.5027798"><ele>36.6</ele><time>2026-04-19T07:37:09.012Z</time></trkpt><trkpt lat="43.447546" lon="10.5027874"><ele>36.400000000000006</ele><time>2026-04-19T07:37:10Z</time></trkpt><trkpt lat="43.4474585" lon="10.5027489"><ele>36.2</ele><time>2026-04-19T07:37:11.016Z</time></trkpt><trkpt lat="43.4473779" lon="10.5026771"><ele>36.0</ele><time>2026-04-19T07:37:12.015Z</time></trkpt><trkpt lat="43.4472894" lon="10.5025526"><ele>36.0</ele><time>2026-04-19T07:37:13.01Z</time></trkpt><trkpt lat="43.4471924" lon="10.5023865"><ele>36.0</ele><time>2026-04-19T07:37:14.005Z</time></trkpt><trkpt lat="43.447091" lon="10.5022158"><ele>36.0</ele><time>2026-04-19T07:37:15.018Z</time></trkpt><trkpt lat="43.4470022" lon="10.5020728"><ele>36.0</ele><time>2026-04-19T07:37:16.019Z</time></trkpt><trkpt lat="43.4469144" lon="10.5019672"><ele>36.0</ele><time>2026-04-19T07:37:17.015Z</time></trkpt><trkpt lat="43.4468283" lon="10.5018925"><ele>36.0</ele><time>2026-04-19T07:37:18.033Z</time></trkpt><trkpt lat="43.4467454" lon="10.501861"><ele>36.0</ele><time>2026-04-19T07:37:19.017Z</time></trkpt><trkpt lat="43.4466734" lon="10.5018731"><ele>36.0</ele><time>2026-04-19T07:37:20.031Z</time></trkpt><trkpt lat="43.4465935" lon="10.5019183"><ele>36.0</ele><time>2026-04-19T07:37:21.009Z</time></trkpt><trkpt lat="43.4465011" lon="10.5020321"><ele>36.0</ele><time>2026-04-19T07:37:22.012Z</time></trkpt><trkpt lat="43.4463776" lon="10.5021789"><ele>36.0</ele><time>2026-04-19T07:37:23.003Z</time></trkpt><trkpt lat="43.4462401" lon="10.5023372"><ele>36.333333333333336</ele><time>2026-04-19T07:37:24.015Z</time></trkpt><trkpt lat="43.4460752" lon="10.5025043"><ele>36.66666666666667</ele><time>2026-04-19T07:37:25.019Z</time></trkpt><trkpt lat="43.4458974" lon="10.5026901"><ele>37.0</ele><time>2026-04-19T07:37:26.019Z</time></trkpt><trkpt lat="43.4457222" lon="10.5028685"><ele>36.66666666666667</ele><time>2026-04-19T07:37:27.009Z</time></trkpt><trkpt lat="43.4455588" lon="10.5030399"><ele>36.333333333333336</ele><time>2026-04-19T07:37:28.041Z</time></trkpt><trkpt lat="43.4453976" lon="10.5032101"><ele>36.0</ele><time>2026-04-19T07:37:29.015Z</time></trkpt><trkpt lat="43.4452455" lon="10.5033645"><ele>36.0</ele><time>2026-04-19T07:37:30.017Z</time></trkpt><trkpt lat="43.445089" lon="10.5035148"><ele>36.0</ele><time>2026-04-19T07:37:31.005Z</time></trkpt><trkpt lat="43.4449328" lon="10.5036722"><ele>36.0</ele><time>2026-04-19T07:37:32.017Z</time></trkpt><trkpt lat="43.4447775" lon="10.5038311"><ele>37.0</ele><time>2026-04-19T07:37:33.013Z</time></trkpt><trkpt lat="43.4446197" lon="10.5039975"><ele>38.0</ele><time>2026-04-19T07:37:34.014Z</time></trkpt><trkpt lat="43.4444663" lon="10.5041629"><ele>39.0</ele><time>2026-04-19T07:37:35.006Z</time></trkpt><trkpt lat="43.4443118" lon="10.5043263"><ele>39.0</ele><time>2026-04-19T07:37:36.013Z</time></trkpt><trkpt lat="43.4441571" lon="10.5044835"><ele>39.0</ele><time>2026-04-19T07:37:37.021Z</time></trkpt><trkpt lat="43.4440057" lon="10.5046348"><ele>39.0</ele><time>2026-04-19T07:37:38.02Z</time></trkpt><trkpt lat="43.4438597" lon="10.5047812"><ele>41.666666666666664</ele><time>2026-04-19T07:37:39.007Z</time></trkpt><trkpt lat="43.4437209" lon="10.504916"><ele>44.33333333333333</ele><time>2026-04-19T07:37:40.022Z</time></trkpt><trkpt lat="43.4435975" lon="10.5050494"><ele>47.0</ele><time>2026-04-19T07:37:41.013Z</time></trkpt><trkpt lat="43.4434864" lon="10.5051691"><ele>47.0</ele><time>2026-04-19T07:37:42.017Z</time></trkpt><trkpt lat="43.4433804" lon="10.5052749"><ele>47.0</ele><time>2026-04-19T07:37:43.014Z</time></trkpt><trkpt lat="43.4432852" lon="10.505364"><ele>47.0</ele><time>2026-04-19T07:37:44.025Z</time></trkpt><trkpt lat="43.4432053" lon="10.5054455"><ele>47.0</ele><time>2026-04-19T07:37:45.014Z</time></trkpt><trkpt lat="43.4431424" lon="10.5055074"><ele>47.0</ele><time>2026-04-19T07:37:46.039Z</time></trkpt><trkpt lat="43.4430859" lon="10.5055538"><ele>48.0</ele><time>2026-04-19T07:37:47.013Z</time></trkpt><trkpt lat="43.4429952" lon="10.5055794"><ele>49.0</ele><time>2026-04-19T07:37:49.01Z</time></trkpt><trkpt lat="43.4429403" lon="10.5055071"><ele>50.0</ele><time>2026-04-19T07:37:51.012Z</time></trkpt><trkpt lat="43.4429064" lon="10.5054138"><ele>51.0</ele><time>2026-04-19T07:37:52.011Z</time></trkpt><trkpt lat="43.4428724" lon="10.505294"><ele>52.0</ele><time>2026-04-19T07:37:53.01Z</time></trkpt><trkpt lat="43.442821" lon="10.5051498"><ele>52.0</ele><time>2026-04-19T07:37:54.023Z</time></trkpt><trkpt lat="43.4427634" lon="10.5050079"><ele>52.0</ele><time>2026-04-19T07:37:55.009Z</time></trkpt><trkpt lat="43.4426927" lon="10.5048515"><ele>52.0</ele><time>2026-04-19T07:37:56.016Z</time></trkpt><trkpt lat="43.4426179" lon="10.5046802"><ele>52.0</ele><time>2026-04-19T07:37:57.021Z</time></trkpt><trkpt lat="43.4425374" lon="10.5044915"><ele>50.666666666666664</ele><time>2026-04-19T07:37:58.02Z</time></trkpt><trkpt lat="43.442462" lon="10.5042951"><ele>49.33333333333333</ele><time>2026-04-19T07:37:59.008Z</time></trkpt><trkpt lat="43.4423895" lon="10.5040977"><ele>48.0</ele><time>2026-04-19T07:38:00.016Z</time></trkpt><trkpt lat="43.4423262" lon="10.5038956"><ele>47.5</ele><time>2026-04-19T07:38:01.02Z</time></trkpt><trkpt lat="43.4422742" lon="10.5036975"><ele>47.0</ele><time>2026-04-19T07:38:02.023Z</time></trkpt><trkpt lat="43.4422292" lon="10.5035115"><ele>46.5</ele><time>2026-04-19T07:38:03.023Z</time></trkpt><trkpt lat="43.4421933" lon="10.503349"><ele>46.0</ele><time>2026-04-19T07:38:04.012Z</time></trkpt><trkpt lat="43.4421556" lon="10.503192"><ele>46.333333333333336</ele><time>2026-04-19T07:38:05.032Z</time></trkpt><trkpt lat="43.4421237" lon="10.5030532"><ele>46.66666666666667</ele><time>2026-04-19T07:38:06.023Z</time></trkpt><trkpt lat="43.4420933" lon="10.5029309"><ele>47.0</ele><time>2026-04-19T07:38:07.015Z</time></trkpt><trkpt lat="43.4420601" lon="10.5028264"><ele>47.333333333333336</ele><time>2026-04-19T07:38:08.02Z</time></trkpt><trkpt lat="43.4420025" lon="10.5027529"><ele>47.666666666666664</ele><time>2026-04-19T07:38:09.019Z</time></trkpt><trkpt lat="43.4419326" lon="10.5027089"><ele>48.0</ele><time>2026-04-19T07:38:10.021Z</time></trkpt><trkpt lat="43.441841" lon="10.5026987"><ele>48.2</ele><time>2026-04-19T07:38:11.015Z</time></trkpt><trkpt lat="43.4417491" lon="10.5027148"><ele>48.4</ele><time>2026-04-19T07:38:12.009Z</time></trkpt><trkpt lat="43.4416528" lon="10.5027238"><ele>48.6</ele><time>2026-04-19T07:38:13.008Z</time></trkpt><trkpt lat="43.4415458" lon="10.5027346"><ele>48.800000000000004</ele><time>2026-04-19T07:38:14.008Z</time></trkpt><trkpt lat="43.4414318" lon="10.5027521"><ele>49.0</ele><time>2026-04-19T07:38:15.013Z</time></trkpt><trkpt lat="43.4413053" lon="10.5027772"><ele>49.0</ele><time>2026-04-19T07:38:16.02Z</time></trkpt><trkpt lat="43.4411789" lon="10.5028076"><ele>49.0</ele><time>2026-04-19T07:38:17.02Z</time></trkpt><trkpt lat="43.4410448" lon="10.5028323"><ele>49.0</ele><time>2026-04-19T07:38:18.016Z</time></trkpt><trkpt lat="43.4409092" lon="10.5028625"><ele>49.0</ele><time>2026-04-19T07:38:19.017Z</time></trkpt><trkpt lat="43.4407708" lon="10.5028874"><ele>49.0</ele><time>2026-04-19T07:38:20.02Z</time></trkpt><trkpt lat="43.4406375" lon="10.5029124"><ele>49.0</ele><time>2026-04-19T07:38:21.022Z</time></trkpt><trkpt lat="43.440512" lon="10.5029364"><ele>49.0</ele><time>2026-04-19T07:38:22.009Z</time></trkpt><trkpt lat="43.4403935" lon="10.5029688"><ele>49.0</ele><time>2026-04-19T07:38:23.018Z</time></trkpt><trkpt lat="43.4402761" lon="10.5029991"><ele>47.5</ele><time>2026-04-19T07:38:24.01Z</time></trkpt><trkpt lat="43.4401552" lon="10.5030124"><ele>46.0</ele><time>2026-04-19T07:38:25.01Z</time></trkpt><trkpt lat="43.4400207" lon="10.5030209"><ele>44.5</ele><time>2026-04-19T07:38:26.011Z</time></trkpt><trkpt lat="43.4398749" lon="10.5030161"><ele>43.0</ele><time>2026-04-19T07:38:27.026Z</time></trkpt><trkpt lat="43.4397272" lon="10.5030092"><ele>42.333333333333336</ele><time>2026-04-19T07:38:28.018Z</time></trkpt><trkpt lat="43.4395778" lon="10.5029977"><ele>41.666666666666664</ele><time>2026-04-19T07:38:29.02Z</time></trkpt><trkpt lat="43.4394251" lon="10.5029806"><ele>41.0</ele><time>2026-04-19T07:38:30.032Z</time></trkpt><trkpt lat="43.4392723" lon="10.5029694"><ele>41.0</ele><time>2026-04-19T07:38:31.01Z</time></trkpt><trkpt lat="43.4391227" lon="10.5029582"><ele>41.0</ele><time>2026-04-19T07:38:32.043Z</time></trkpt><trkpt lat="43.438977" lon="10.5029467"><ele>41.0</ele><time>2026-04-19T07:38:33.01Z</time></trkpt><trkpt lat="43.438836" lon="10.5029327"><ele>41.0</ele><time>2026-04-19T07:38:34.022Z</time></trkpt><trkpt lat="43.4386913" lon="10.502915"><ele>41.0</ele><time>2026-04-19T07:38:35.025Z</time></trkpt><trkpt lat="43.4385502" lon="10.5029001"><ele>41.0</ele><time>2026-04-19T07:38:36.011Z</time></trkpt><trkpt lat="43.43841" lon="10.5028967"><ele>41.0</ele><time>2026-04-19T07:38:37.009Z</time></trkpt><trkpt lat="43.4382686" lon="10.5028871"><ele>41.0</ele><time>2026-04-19T07:38:38.021Z</time></trkpt><trkpt lat="43.4381212" lon="10.5028729"><ele>41.0</ele><time>2026-04-19T07:38:39.007Z</time></trkpt><trkpt lat="43.4379769" lon="10.5028661"><ele>41.0</ele><time>2026-04-19T07:38:40.013Z</time></trkpt><trkpt lat="43.4378398" lon="10.5028511"><ele>41.0</ele><time>2026-04-19T07:38:41.011Z</time></trkpt><trkpt lat="43.4377126" lon="10.5028441"><ele>41.0</ele><time>2026-04-19T07:38:42.009Z</time></trkpt><trkpt lat="43.4375955" lon="10.5028261"><ele>40.4</ele><time>2026-04-19T07:38:43.009Z</time></trkpt><trkpt lat="43.4374792" lon="10.5028162"><ele>39.8</ele><time>2026-04-19T07:38:44.042Z</time></trkpt><trkpt lat="43.4373663" lon="10.502806"><ele>39.199999999999996</ele><time>2026-04-19T07:38:45.005Z</time></trkpt><trkpt lat="43.437253" lon="10.5027988"><ele>38.599999999999994</ele><time>2026-04-19T07:38:46.009Z</time></trkpt><trkpt lat="43.4371507" lon="10.5028127"><ele>38.0</ele><time>2026-04-19T07:38:47.022Z</time></trkpt><trkpt lat="43.4370532" lon="10.5028758"><ele>37.8</ele><time>2026-04-19T07:38:48.009Z</time></trkpt><trkpt lat="43.4369676" lon="10.5029693"><ele>37.599999999999994</ele><time>2026-04-19T07:38:49.009Z</time></trkpt><trkpt lat="43.4368814" lon="10.5030853"><ele>37.400000000000006</ele><time>2026-04-19T07:38:50.014Z</time></trkpt><trkpt lat="43.4368086" lon="10.5031964"><ele>37.2</ele><time>2026-04-19T07:38:51.02Z</time></trkpt><trkpt lat="43.4367328" lon="10.5032956"><ele>37.0</ele><time>2026-04-19T07:38:52.017Z</time></trkpt><trkpt lat="43.4366526" lon="10.5033683"><ele>37.0</ele><time>2026-04-19T07:38:53.012Z</time></trkpt><trkpt lat="43.436575" lon="10.5034308"><ele>37.0</ele><time>2026-04-19T07:38:54.01Z</time></trkpt><trkpt lat="43.4365144" lon="10.5035225"><ele>37.0</ele><time>2026-04-19T07:38:55.012Z</time></trkpt><trkpt lat="43.4364734" lon="10.5036604"><ele>37.0</ele><time>2026-04-19T07:38:56.005Z</time></trkpt><trkpt lat="43.4364471" lon="10.5038257"><ele>37.0</ele><time>2026-04-19T07:38:57.01Z</time></trkpt><trkpt lat="43.4364214" lon="10.5039952"><ele>36.5</ele><time>2026-04-19T07:38:58.015Z</time></trkpt><trkpt lat="43.4363854" lon="10.5041314"><ele>36.0</ele><time>2026-04-19T07:38:59.016Z</time></trkpt><trkpt lat="43.4363566" lon="10.5042671"><ele>35.5</ele><time>2026-04-19T07:39:00.008Z</time></trkpt><trkpt lat="43.4363326" lon="10.5043814"><ele>35.0</ele><time>2026-04-19T07:39:01.014Z</time></trkpt><trkpt lat="43.4363164" lon="10.5044904"><ele>34.5</ele><time>2026-04-19T07:39:02.006Z</time></trkpt><trkpt lat="43.4363276" lon="10.5045825"><ele>34.0</ele><time>2026-04-19T07:39:03.011Z</time></trkpt><trkpt lat="43.4363646" lon="10.504676"><ele>33.8</ele><time>2026-04-19T07:39:04.012Z</time></trkpt><trkpt lat="43.4364127" lon="10.504754"><ele>33.599999999999994</ele><time>2026-04-19T07:39:05.011Z</time></trkpt><trkpt lat="43.4364413" lon="10.5048626"><ele>33.4</ele><time>2026-04-19T07:39:06.01Z</time></trkpt><trkpt lat="43.4364433" lon="10.5049699"><ele>33.199999999999996</ele><time>2026-04-19T07:39:07.006Z</time></trkpt><trkpt lat="43.4364186" lon="10.5051138"><ele>33.0</ele><time>2026-04-19T07:39:08.016Z</time></trkpt><trkpt lat="43.4363687" lon="10.5052703"><ele>33.75</ele><time>2026-04-19T07:39:09.018Z</time></trkpt><trkpt lat="43.436312" lon="10.5054279"><ele>34.5</ele><time>2026-04-19T07:39:10.003Z</time></trkpt><trkpt lat="43.4362575" lon="10.5055871"><ele>35.25</ele><time>2026-04-19T07:39:11.014Z</time></trkpt><trkpt lat="43.436219" lon="10.505752"><ele>36.0</ele><time>2026-04-19T07:39:12.016Z</time></trkpt><trkpt lat="43.4362005" lon="10.5059219"><ele>36.0</ele><time>2026-04-19T07:39:13.015Z</time></trkpt><trkpt lat="43.4362004" lon="10.5061109"><ele>36.0</ele><time>2026-04-19T07:39:14.007Z</time></trkpt><trkpt lat="43.4362296" lon="10.5062998"><ele>36.0</ele><time>2026-04-19T07:39:15.019Z</time></trkpt><trkpt lat="43.4362569" lon="10.5064886"><ele>36.0</ele><time>2026-04-19T07:39:16.015Z</time></trkpt><trkpt lat="43.4362754" lon="10.5066638"><ele>36.0</ele><time>2026-04-19T07:39:17.011Z</time></trkpt><trkpt lat="43.4362812" lon="10.5068205"><ele>36.0</ele><time>2026-04-19T07:39:18.019Z</time></trkpt><trkpt lat="43.4362666" lon="10.5069535"><ele>36.0</ele><time>2026-04-19T07:39:19.01Z</time></trkpt><trkpt lat="43.4362511" lon="10.5070886"><ele>36.0</ele><time>2026-04-19T07:39:20.019Z</time></trkpt><trkpt lat="43.4362139" lon="10.5072254"><ele>36.0</ele><time>2026-04-19T07:39:21.025Z</time></trkpt><trkpt lat="43.4361687" lon="10.5073779"><ele>36.5</ele><time>2026-04-19T07:39:22.014Z</time></trkpt><trkpt lat="43.436132" lon="10.5075502"><ele>37.0</ele><time>2026-04-19T07:39:23.018Z</time></trkpt><trkpt lat="43.4361223" lon="10.5077204"><ele>37.5</ele><time>2026-04-19T07:39:24.031Z</time></trkpt><trkpt lat="43.4361488" lon="10.5078715"><ele>38.0</ele><time>2026-04-19T07:39:25.019Z</time></trkpt><trkpt lat="43.436201" lon="10.5080162"><ele>38.0</ele><time>2026-04-19T07:39:26.016Z</time></trkpt><trkpt lat="43.436246" lon="10.5081661"><ele>38.0</ele><time>2026-04-19T07:39:27.022Z</time></trkpt><trkpt lat="43.436284" lon="10.5083359"><ele>38.0</ele><time>2026-04-19T07:39:28.004Z</time></trkpt><trkpt lat="43.4363229" lon="10.508515"><ele>38.0</ele><time>2026-04-19T07:39:29.017Z</time></trkpt><trkpt lat="43.4363454" lon="10.5086964"><ele>38.5</ele><time>2026-04-19T07:39:30.009Z</time></trkpt><trkpt lat="43.4363553" lon="10.5088756"><ele>39.0</ele><time>2026-04-19T07:39:31Z</time></trkpt><trkpt lat="43.4363635" lon="10.5090553"><ele>39.5</ele><time>2026-04-19T07:39:32.013Z</time></trkpt><trkpt lat="43.4363718" lon="10.5092351"><ele>40.0</ele><time>2026-04-19T07:39:33.011Z</time></trkpt><trkpt lat="43.4363719" lon="10.509418"><ele>42.75</ele><time>2026-04-19T07:39:34.004Z</time></trkpt><trkpt lat="43.4363551" lon="10.5095974"><ele>45.5</ele><time>2026-04-19T07:39:35.049Z</time></trkpt><trkpt lat="43.436326" lon="10.5097763"><ele>48.25</ele><time>2026-04-19T07:39:36.023Z</time></trkpt><trkpt lat="43.4362987" lon="10.5099496"><ele>51.0</ele><time>2026-04-19T07:39:36.998Z</time></trkpt><trkpt lat="43.4362744" lon="10.5101347"><ele>51.25</ele><time>2026-04-19T07:39:38.003Z</time></trkpt><trkpt lat="43.4362538" lon="10.5103239"><ele>51.5</ele><time>2026-04-19T07:39:39.011Z</time></trkpt><trkpt lat="43.4362403" lon="10.510512"><ele>51.75</ele><time>2026-04-19T07:39:40.025Z</time></trkpt><trkpt lat="43.4362247" lon="10.5106942"><ele>52.0</ele><time>2026-04-19T07:39:41.012Z</time></trkpt><trkpt lat="43.4362088" lon="10.510865"><ele>52.83333333333333</ele><time>2026-04-19T07:39:42.004Z</time></trkpt><trkpt lat="43.4361929" lon="10.5110047"><ele>53.666666666666664</ele><time>2026-04-19T07:39:43.008Z</time></trkpt><trkpt lat="43.4361808" lon="10.511118"><ele>54.5</ele><time>2026-04-19T07:39:44.02Z</time></trkpt><trkpt lat="43.4361697" lon="10.5112301"><ele>55.33333333333333</ele><time>2026-04-19T07:39:45.023Z</time></trkpt><trkpt lat="43.4361618" lon="10.5113445"><ele>56.166666666666664</ele><time>2026-04-19T07:39:46.009Z</time></trkpt><trkpt lat="43.4361489" lon="10.5114636"><ele>57.0</ele><time>2026-04-19T07:39:47.008Z</time></trkpt><trkpt lat="43.4361452" lon="10.5115908"><ele>57.6</ele><time>2026-04-19T07:39:48.022Z</time></trkpt><trkpt lat="43.4361385" lon="10.5117259"><ele>58.2</ele><time>2026-04-19T07:39:49.014Z</time></trkpt><trkpt lat="43.4361232" lon="10.5118674"><ele>58.8</ele><time>2026-04-19T07:39:50.009Z</time></trkpt><trkpt lat="43.4361071" lon="10.51202"><ele>59.4</ele><time>2026-04-19T07:39:51.02Z</time></trkpt><trkpt lat="43.4360973" lon="10.5121739"><ele>60.0</ele><time>2026-04-19T07:39:52.023Z</time></trkpt><trkpt lat="43.4360894" lon="10.5123374"><ele>60.0</ele><time>2026-04-19T07:39:53.043Z</time></trkpt><trkpt lat="43.4360711" lon="10.5125044"><ele>60.0</ele><time>2026-04-19T07:39:54.012Z</time></trkpt><trkpt lat="43.4360554" lon="10.5126793"><ele>60.0</ele><time>2026-04-19T07:39:55.009Z</time></trkpt><trkpt lat="43.436029" lon="10.5128466"><ele>60.0</ele><time>2026-04-19T07:39:56.012Z</time></trkpt><trkpt lat="43.4360081" lon="10.5130144"><ele>60.8</ele><time>2026-04-19T07:39:57.012Z</time></trkpt><trkpt lat="43.4359934" lon="10.5131632"><ele>61.6</ele><time>2026-04-19T07:39:58.012Z</time></trkpt><trkpt lat="43.435976" lon="10.5132959"><ele>62.400000000000006</ele><time>2026-04-19T07:39:59.017Z</time></trkpt><trkpt lat="43.435965" lon="10.5134372"><ele>63.2</ele><time>2026-04-19T07:40:00.018Z</time></trkpt><trkpt lat="43.4359533" lon="10.5135793"><ele>64.0</ele><time>2026-04-19T07:40:01.017Z</time></trkpt><trkpt lat="43.4359401" lon="10.5137294"><ele>64.60000000000001</ele><time>2026-04-19T07:40:02.011Z</time></trkpt><trkpt lat="43.435923" lon="10.5138777"><ele>65.2</ele><time>2026-04-19T07:40:03.018Z</time></trkpt><trkpt lat="43.435913" lon="10.5140261"><ele>65.80000000000001</ele><time>2026-04-19T07:40:04.016Z</time></trkpt><trkpt lat="43.4358991" lon="10.5141678"><ele>66.4</ele><time>2026-04-19T07:40:05.018Z</time></trkpt><trkpt lat="43.4358874" lon="10.5142955"><ele>67.0</ele><time>2026-04-19T07:40:06.016Z</time></trkpt><trkpt lat="43.4358783" lon="10.5144297"><ele>67.0</ele><time>2026-04-19T07:40:07.011Z</time></trkpt><trkpt lat="43.4358663" lon="10.5145528"><ele>67.0</ele><time>2026-04-19T07:40:08.019Z</time></trkpt><trkpt lat="43.4358522" lon="10.514684"><ele>67.0</ele><time>2026-04-19T07:40:09.006Z</time></trkpt><trkpt lat="43.435843" lon="10.5148141"><ele>67.0</ele><time>2026-04-19T07:40:10.021Z</time></trkpt><trkpt lat="43.4358321" lon="10.5149489"><ele>67.0</ele><time>2026-04-19T07:40:11.009Z</time></trkpt><trkpt lat="43.4358248" lon="10.5150831"><ele>67.5</ele><time>2026-04-19T07:40:12.008Z</time></trkpt><trkpt lat="43.4358108" lon="10.5152248"><ele>68.0</ele><time>2026-04-19T07:40:13.01Z</time></trkpt><trkpt lat="43.4357979" lon="10.5153819"><ele>68.5</ele><time>2026-04-19T07:40:14.008Z</time></trkpt><trkpt lat="43.4357865" lon="10.5155383"><ele>69.0</ele><time>2026-04-19T07:40:15.009Z</time></trkpt><trkpt lat="43.435771" lon="10.5157043"><ele>69.75</ele><time>2026-04-19T07:40:16.026Z</time></trkpt><trkpt lat="43.4357575" lon="10.515876"><ele>70.5</ele><time>2026-04-19T07:40:17.016Z</time></trkpt><trkpt lat="43.4357424" lon="10.5160485"><ele>71.25</ele><time>2026-04-19T07:40:18.041Z</time></trkpt><trkpt lat="43.435722" lon="10.5162263"><ele>72.0</ele><time>2026-04-19T07:40:19.023Z</time></trkpt><trkpt lat="43.4356958" lon="10.5163961"><ele>72.5</ele><time>2026-04-19T07:40:20.008Z</time></trkpt><trkpt lat="43.4356655" lon="10.5165659"><ele>73.0</ele><time>2026-04-19T07:40:21.016Z</time></trkpt><trkpt lat="43.4356385" lon="10.5167322"><ele>73.5</ele><time>2026-04-19T07:40:22.009Z</time></trkpt><trkpt lat="43.4356125" lon="10.5169048"><ele>74.0</ele><time>2026-04-19T07:40:23.048Z</time></trkpt><trkpt lat="43.4355893" lon="10.5170777"><ele>74.0</ele><time>2026-04-19T07:40:24.011Z</time></trkpt><trkpt lat="43.4355591" lon="10.5172447"><ele>74.0</ele><time>2026-04-19T07:40:25.015Z</time></trkpt><trkpt lat="43.4355183" lon="10.5174052"><ele>74.0</ele><time>2026-04-19T07:40:26.025Z</time></trkpt><trkpt lat="43.4354796" lon="10.5175543"><ele>74.0</ele><time>2026-04-19T07:40:27.014Z</time></trkpt><trkpt lat="43.435444" lon="10.5177103"><ele>73.75</ele><time>2026-04-19T07:40:28.021Z</time></trkpt><trkpt lat="43.4354328" lon="10.5178777"><ele>73.5</ele><time>2026-04-19T07:40:29.009Z</time></trkpt><trkpt lat="43.4354362" lon="10.5180618"><ele>73.25</ele><time>2026-04-19T07:40:30.013Z</time></trkpt><trkpt lat="43.4354398" lon="10.5182526"><ele>73.0</ele><time>2026-04-19T07:40:31.003Z</time></trkpt><trkpt lat="43.4354512" lon="10.5184659"><ele>73.0</ele><time>2026-04-19T07:40:32.014Z</time></trkpt><trkpt lat="43.4354429" lon="10.5186791"><ele>73.0</ele><time>2026-04-19T07:40:33.021Z</time></trkpt><trkpt lat="43.4354202" lon="10.5188984"><ele>73.0</ele><time>2026-04-19T07:40:34.014Z</time></trkpt><trkpt lat="43.4353909" lon="10.5191227"><ele>72.66666666666666</ele><time>2026-04-19T07:40:35.014Z</time></trkpt><trkpt lat="43.4353666" lon="10.5193363"><ele>72.33333333333333</ele><time>2026-04-19T07:40:36.01Z</time></trkpt><trkpt lat="43.4353383" lon="10.5195629"><ele>72.0</ele><time>2026-04-19T07:40:37.004Z</time></trkpt><trkpt lat="43.4353135" lon="10.5197843"><ele>72.0</ele><time>2026-04-19T07:40:38.032Z</time></trkpt><trkpt lat="43.4352983" lon="10.520017"><ele>72.0</ele><time>2026-04-19T07:40:39.007Z</time></trkpt><trkpt lat="43.435292" lon="10.5202575"><ele>72.0</ele><time>2026-04-19T07:40:40.003Z</time></trkpt><trkpt lat="43.4352901" lon="10.5204892"><ele>73.66666666666667</ele><time>2026-04-19T07:40:41.018Z</time></trkpt><trkpt lat="43.4352972" lon="10.5207265"><ele>75.33333333333334</ele><time>2026-04-19T07:40:42.008Z</time></trkpt><trkpt lat="43.4352988" lon="10.5209585"><ele>77.0</ele><time>2026-04-19T07:40:43.016Z</time></trkpt><trkpt lat="43.4353069" lon="10.5211859"><ele>77.66666666666667</ele><time>2026-04-19T07:40:44.017Z</time></trkpt><trkpt lat="43.435327" lon="10.5213969"><ele>78.33333333333333</ele><time>2026-04-19T07:40:45.005Z</time></trkpt><trkpt lat="43.4353576" lon="10.5215977"><ele>79.0</ele><time>2026-04-19T07:40:46.025Z</time></trkpt><trkpt lat="43.4354114" lon="10.5217847"><ele>79.66666666666666</ele><time>2026-04-19T07:40:47.007Z</time></trkpt><trkpt lat="43.4354987" lon="10.521957"><ele>80.33333333333333</ele><time>2026-04-19T07:40:48.009Z</time></trkpt><trkpt lat="43.4355884" lon="10.522134"><ele>81.0</ele><time>2026-04-19T07:40:49.009Z</time></trkpt><trkpt lat="43.4356989" lon="10.5222968"><ele>81.0</ele><time>2026-04-19T07:40:50.012Z</time></trkpt><trkpt lat="43.4358153" lon="10.5224592"><ele>81.0</ele><time>2026-04-19T07:40:51.017Z</time></trkpt><trkpt lat="43.4359248" lon="10.522624"><ele>81.0</ele><time>2026-04-19T07:40:52.026Z</time></trkpt><trkpt lat="43.4360214" lon="10.5227969"><ele>80.75</ele><time>2026-04-19T07:40:53.049Z</time></trkpt><trkpt lat="43.4361196" lon="10.5229717"><ele>80.5</ele><time>2026-04-19T07:40:54.01Z</time></trkpt><trkpt lat="43.4361799" lon="10.5231432"><ele>80.25</ele><time>2026-04-19T07:40:55.012Z</time></trkpt><trkpt lat="43.4362151" lon="10.5233148"><ele>80.0</ele><time>2026-04-19T07:40:56.008Z</time></trkpt><trkpt lat="43.4362469" lon="10.5234653"><ele>80.0</ele><time>2026-04-19T07:40:57.017Z</time></trkpt><trkpt lat="43.4362661" lon="10.5236125"><ele>80.0</ele><time>2026-04-19T07:40:58.008Z</time></trkpt><trkpt lat="43.4362856" lon="10.5237658"><ele>80.0</ele><time>2026-04-19T07:40:59.022Z</time></trkpt><trkpt lat="43.4363016" lon="10.5239191"><ele>80.0</ele><time>2026-04-19T07:41:00.01Z</time></trkpt><trkpt lat="43.4363105" lon="10.5240663"><ele>80.0</ele><time>2026-04-19T07:41:01.011Z</time></trkpt><trkpt lat="43.4363167" lon="10.5242232"><ele>80.25</ele><time>2026-04-19T07:41:02.008Z</time></trkpt><trkpt lat="43.4363219" lon="10.5243841"><ele>80.5</ele><time>2026-04-19T07:41:03.009Z</time></trkpt><trkpt lat="43.4363219" lon="10.5245523"><ele>80.75</ele><time>2026-04-19T07:41:04.008Z</time></trkpt><trkpt lat="43.4363266" lon="10.5247215"><ele>81.0</ele><time>2026-04-19T07:41:05.025Z</time></trkpt><trkpt lat="43.4363418" lon="10.5248864"><ele>82.5</ele><time>2026-04-19T07:41:06.009Z</time></trkpt><trkpt lat="43.4363617" lon="10.5250496"><ele>84.0</ele><time>2026-04-19T07:41:07.018Z</time></trkpt><trkpt lat="43.4363857" lon="10.5252011"><ele>85.5</ele><time>2026-04-19T07:41:08.016Z</time></trkpt><trkpt lat="43.4364082" lon="10.5253523"><ele>87.0</ele><time>2026-04-19T07:41:09Z</time></trkpt><trkpt lat="43.4364247" lon="10.5255071"><ele>87.5</ele><time>2026-04-19T07:41:10.015Z</time></trkpt><trkpt lat="43.4364381" lon="10.525656"><ele>88.0</ele><time>2026-04-19T07:41:11.014Z</time></trkpt><trkpt lat="43.4364561" lon="10.5258156"><ele>88.5</ele><time>2026-04-19T07:41:12.016Z</time></trkpt><trkpt lat="43.4364789" lon="10.5259673"><ele>89.0</ele><time>2026-04-19T07:41:13.008Z</time></trkpt><trkpt lat="43.4364946" lon="10.5261229"><ele>89.25</ele><time>2026-04-19T07:41:14.01Z</time></trkpt><trkpt lat="43.4365092" lon="10.5262818"><ele>89.5</ele><time>2026-04-19T07:41:15.017Z</time></trkpt><trkpt lat="43.4365256" lon="10.5264406"><ele>89.75</ele><time>2026-04-19T07:41:16.015Z</time></trkpt><trkpt lat="43.4365428" lon="10.5266007"><ele>90.0</ele><time>2026-04-19T07:41:17.024Z</time></trkpt><trkpt lat="43.436563" lon="10.526764"><ele>90.0</ele><time>2026-04-19T07:41:18.013Z</time></trkpt><trkpt lat="43.4365831" lon="10.5269226"><ele>90.0</ele><time>2026-04-19T07:41:19.062Z</time></trkpt><trkpt lat="43.4366057" lon="10.5270864"><ele>90.0</ele><time>2026-04-19T07:41:20.012Z</time></trkpt><trkpt lat="43.4366249" lon="10.5272502"><ele>90.0</ele><time>2026-04-19T07:41:21.007Z</time></trkpt><trkpt lat="43.4366553" lon="10.5274054"><ele>90.4</ele><time>2026-04-19T07:41:22.027Z</time></trkpt><trkpt lat="43.4366843" lon="10.5275587"><ele>90.8</ele><time>2026-04-19T07:41:23.005Z</time></trkpt><trkpt lat="43.436716" lon="10.5276997"><ele>91.19999999999999</ele><time>2026-04-19T07:41:24.023Z</time></trkpt><trkpt lat="43.4367521" lon="10.527834"><ele>91.6</ele><time>2026-04-19T07:41:25.029Z</time></trkpt><trkpt lat="43.4367925" lon="10.5279613"><ele>92.0</ele><time>2026-04-19T07:41:26.009Z</time></trkpt><trkpt lat="43.4368388" lon="10.5280927"><ele>92.75</ele><time>2026-04-19T07:41:27.024Z</time></trkpt><trkpt lat="43.4368896" lon="10.5282357"><ele>93.5</ele><time>2026-04-19T07:41:28.011Z</time></trkpt><trkpt lat="43.4369637" lon="10.5283941"><ele>94.25</ele><time>2026-04-19T07:41:29.015Z</time></trkpt><trkpt lat="43.4370484" lon="10.528551"><ele>95.0</ele><time>2026-04-19T07:41:30.013Z</time></trkpt><trkpt lat="43.4371474" lon="10.5286891"><ele>96.25</ele><time>2026-04-19T07:41:31.02Z</time></trkpt><trkpt lat="43.4372446" lon="10.5288137"><ele>97.5</ele><time>2026-04-19T07:41:32.014Z</time></trkpt><trkpt lat="43.437351" lon="10.5289314"><ele>98.75</ele><time>2026-04-19T07:41:33.009Z</time></trkpt><trkpt lat="43.4374397" lon="10.5290527"><ele>100.0</ele><time>2026-04-19T07:41:34.008Z</time></trkpt><trkpt lat="43.4375275" lon="10.5291627"><ele>100.0</ele><time>2026-04-19T07:41:35.017Z</time></trkpt><trkpt lat="43.4376089" lon="10.5292672"><ele>100.0</ele><time>2026-04-19T07:41:36.011Z</time></trkpt><trkpt lat="43.4376861" lon="10.5293762"><ele>100.0</ele><time>2026-04-19T07:41:37.016Z</time></trkpt><trkpt lat="43.4377706" lon="10.5294961"><ele>100.0</ele><time>2026-04-19T07:41:38.014Z</time></trkpt><trkpt lat="43.4378518" lon="10.5296151"><ele>99.75</ele><time>2026-04-19T07:41:39.008Z</time></trkpt><trkpt lat="43.4379319" lon="10.5297431"><ele>99.5</ele><time>2026-04-19T07:41:40.009Z</time></trkpt><trkpt lat="43.4380111" lon="10.529867"><ele>99.25</ele><time>2026-04-19T07:41:41.017Z</time></trkpt><trkpt lat="43.4380805" lon="10.5299742"><ele>99.0</ele><time>2026-04-19T07:41:42.01Z</time></trkpt><trkpt lat="43.4381471" lon="10.5300863"><ele>100.0</ele><time>2026-04-19T07:41:43.011Z</time></trkpt><trkpt lat="43.4382151" lon="10.5302031"><ele>101.0</ele><time>2026-04-19T07:41:44.016Z</time></trkpt><trkpt lat="43.4382788" lon="10.5303262"><ele>102.0</ele><time>2026-04-19T07:41:45.01Z</time></trkpt><trkpt lat="43.4383475" lon="10.5304585"><ele>103.0</ele><time>2026-04-19T07:41:46.022Z</time></trkpt><trkpt lat="43.4384136" lon="10.5306089"><ele>103.0</ele><time>2026-04-19T07:41:47.013Z</time></trkpt><trkpt lat="43.4384644" lon="10.5307677"><ele>103.0</ele><time>2026-04-19T07:41:48.025Z</time></trkpt><trkpt lat="43.4385074" lon="10.530934"><ele>103.0</ele><time>2026-04-19T07:41:49.014Z</time></trkpt><trkpt lat="43.4385421" lon="10.5311012"><ele>103.0</ele><time>2026-04-19T07:41:50.058Z</time></trkpt><trkpt lat="43.438572" lon="10.5312847"><ele>103.75</ele><time>2026-04-19T07:41:51.02Z</time></trkpt><trkpt lat="43.4386006" lon="10.5314709"><ele>104.5</ele><time>2026-04-19T07:41:52.009Z</time></trkpt><trkpt lat="43.4386328" lon="10.5316502"><ele>105.25</ele><time>2026-04-19T07:41:53.006Z</time></trkpt><trkpt lat="43.4386674" lon="10.5318227"><ele>106.0</ele><time>2026-04-19T07:41:54.016Z</time></trkpt><trkpt lat="43.4387025" lon="10.5319929"><ele>106.0</ele><time>2026-04-19T07:41:55.009Z</time></trkpt><trkpt lat="43.4387396" lon="10.5321599"><ele>106.0</ele><time>2026-04-19T07:41:56.012Z</time></trkpt><trkpt lat="43.4387799" lon="10.5323288"><ele>106.0</ele><time>2026-04-19T07:41:57.013Z</time></trkpt><trkpt lat="43.438823" lon="10.5325025"><ele>106.0</ele><time>2026-04-19T07:41:58.011Z</time></trkpt><trkpt lat="43.4388676" lon="10.5326799"><ele>106.25</ele><time>2026-04-19T07:41:59.019Z</time></trkpt><trkpt lat="43.4389106" lon="10.5328689"><ele>106.5</ele><time>2026-04-19T07:42:00.026Z</time></trkpt><trkpt lat="43.4389451" lon="10.5330603"><ele>106.75</ele><time>2026-04-19T07:42:01.014Z</time></trkpt><trkpt lat="43.4389709" lon="10.5332499"><ele>107.0</ele><time>2026-04-19T07:42:02.019Z</time></trkpt><trkpt lat="43.4389896" lon="10.5334553"><ele>107.0</ele><time>2026-04-19T07:42:03.015Z</time></trkpt><trkpt lat="43.4390098" lon="10.5336682"><ele>107.0</ele><time>2026-04-19T07:42:04.017Z</time></trkpt><trkpt lat="43.4390268" lon="10.5338767"><ele>107.0</ele><time>2026-04-19T07:42:05.003Z</time></trkpt><trkpt lat="43.4390379" lon="10.53409"><ele>107.0</ele><time>2026-04-19T07:42:06.011Z</time></trkpt><trkpt lat="43.4390523" lon="10.5343103"><ele>107.0</ele><time>2026-04-19T07:42:07.02Z</time></trkpt><trkpt lat="43.4390645" lon="10.5345316"><ele>107.0</ele><time>2026-04-19T07:42:08.02Z</time></trkpt><trkpt lat="43.4390762" lon="10.5347518"><ele>107.0</ele><time>2026-04-19T07:42:09.014Z</time></trkpt><trkpt lat="43.4390903" lon="10.5349613"><ele>107.0</ele><time>2026-04-19T07:42:10.021Z</time></trkpt><trkpt lat="43.4391056" lon="10.5351637"><ele>107.0</ele><time>2026-04-19T07:42:11.027Z</time></trkpt><trkpt lat="43.4391219" lon="10.5353644"><ele>107.0</ele><time>2026-04-19T07:42:12.029Z</time></trkpt><trkpt lat="43.4391371" lon="10.5355659"><ele>107.25</ele><time>2026-04-19T07:42:13.011Z</time></trkpt><trkpt lat="43.4391579" lon="10.5357727"><ele>107.5</ele><time>2026-04-19T07:42:14.023Z</time></trkpt><trkpt lat="43.4391821" lon="10.5359691"><ele>107.75</ele><time>2026-04-19T07:42:15.029Z</time></trkpt><trkpt lat="43.4392242" lon="10.5361457"><ele>108.0</ele><time>2026-04-19T07:42:16.012Z</time></trkpt><trkpt lat="43.4392747" lon="10.5363226"><ele>108.0</ele><time>2026-04-19T07:42:17.025Z</time></trkpt><trkpt lat="43.4393107" lon="10.5365101"><ele>108.0</ele><time>2026-04-19T07:42:18.01Z</time></trkpt><trkpt lat="43.439335" lon="10.5366937"><ele>108.0</ele><time>2026-04-19T07:42:19.005Z</time></trkpt><trkpt lat="43.4393529" lon="10.5368703"><ele>108.0</ele><time>2026-04-19T07:42:20.016Z</time></trkpt><trkpt lat="43.4393711" lon="10.5370466"><ele>108.5</ele><time>2026-04-19T07:42:21.011Z</time></trkpt><trkpt lat="43.4393796" lon="10.5372242"><ele>109.0</ele><time>2026-04-19T07:42:22.009Z</time></trkpt><trkpt lat="43.4393829" lon="10.5374122"><ele>109.5</ele><time>2026-04-19T07:42:23.016Z</time></trkpt><trkpt lat="43.4393813" lon="10.5375961"><ele>110.0</ele><time>2026-04-19T07:42:24.029Z</time></trkpt><trkpt lat="43.4393816" lon="10.5377823"><ele>110.25</ele><time>2026-04-19T07:42:25.012Z</time></trkpt><trkpt lat="43.4394012" lon="10.537958"><ele>110.5</ele><time>2026-04-19T07:42:26.007Z</time></trkpt><trkpt lat="43.4394456" lon="10.5381301"><ele>110.75</ele><time>2026-04-19T07:42:27.005Z</time></trkpt><trkpt lat="43.4394907" lon="10.5383037"><ele>111.0</ele><time>2026-04-19T07:42:28.013Z</time></trkpt><trkpt lat="43.4395468" lon="10.5384794"><ele>111.0</ele><time>2026-04-19T07:42:29.005Z</time></trkpt><trkpt lat="43.4395989" lon="10.5386642"><ele>111.0</ele><time>2026-04-19T07:42:30.022Z</time></trkpt><trkpt lat="43.4396455" lon="10.5388521"><ele>111.0</ele><time>2026-04-19T07:42:31.026Z</time></trkpt><trkpt lat="43.4396871" lon="10.5390389"><ele>111.0</ele><time>2026-04-19T07:42:32.009Z</time></trkpt><trkpt lat="43.4397257" lon="10.5392282"><ele>110.0</ele><time>2026-04-19T07:42:33.006Z</time></trkpt><trkpt lat="43.439764" lon="10.5394265"><ele>109.0</ele><time>2026-04-19T07:42:34.016Z</time></trkpt><trkpt lat="43.4397959" lon="10.5396245"><ele>108.0</ele><time>2026-04-19T07:42:35.007Z</time></trkpt><trkpt lat="43.4398304" lon="10.5398282"><ele>107.0</ele><time>2026-04-19T07:42:36.039Z</time></trkpt><trkpt lat="43.4398598" lon="10.5400324"><ele>107.0</ele><time>2026-04-19T07:42:37.014Z</time></trkpt><trkpt lat="43.4398902" lon="10.5402392"><ele>107.0</ele><time>2026-04-19T07:42:38.007Z</time></trkpt><trkpt lat="43.4399213" lon="10.5404246"><ele>107.0</ele><time>2026-04-19T07:42:39.001Z</time></trkpt><trkpt lat="43.4399394" lon="10.5405981"><ele>107.0</ele><time>2026-04-19T07:42:40.01Z</time></trkpt><trkpt lat="43.439958" lon="10.5407742"><ele>107.25</ele><time>2026-04-19T07:42:41.008Z</time></trkpt><trkpt lat="43.4399826" lon="10.5409472"><ele>107.5</ele><time>2026-04-19T07:42:42.013Z</time></trkpt><trkpt lat="43.4400165" lon="10.5411159"><ele>107.75</ele><time>2026-04-19T07:42:43.012Z</time></trkpt><trkpt lat="43.4400422" lon="10.5412688"><ele>108.0</ele><time>2026-04-19T07:42:43.999Z</time></trkpt><trkpt lat="43.4400539" lon="10.5414203"><ele>108.4</ele><time>2026-04-19T07:42:45.004Z</time></trkpt><trkpt lat="43.4400485" lon="10.5415793"><ele>108.80000000000001</ele><time>2026-04-19T07:42:46.007Z</time></trkpt><trkpt lat="43.4400119" lon="10.5417218"><ele>109.2</ele><time>2026-04-19T07:42:47.004Z</time></trkpt><trkpt lat="43.4399486" lon="10.5418362"><ele>109.6</ele><time>2026-04-19T07:42:48.028Z</time></trkpt><trkpt lat="43.4398692" lon="10.5419417"><ele>110.0</ele><time>2026-04-19T07:42:49.006Z</time></trkpt><trkpt lat="43.439778" lon="10.5420356"><ele>110.2</ele><time>2026-04-19T07:42:50.02Z</time></trkpt><trkpt lat="43.4396923" lon="10.5421041"><ele>110.4</ele><time>2026-04-19T07:42:51.008Z</time></trkpt><trkpt lat="43.4396286" lon="10.5421707"><ele>110.6</ele><time>2026-04-19T07:42:52.014Z</time></trkpt><trkpt lat="43.4395526" lon="10.5423007"><ele>110.8</ele><time>2026-04-19T07:42:54.013Z</time></trkpt><trkpt lat="43.4395185" lon="10.5424644"><ele>111.0</ele><time>2026-04-19T07:42:56.009Z</time></trkpt><trkpt lat="43.4395168" lon="10.5425535"><ele>111.0</ele><time>2026-04-19T07:42:57.008Z</time></trkpt><trkpt lat="43.4395636" lon="10.5427037"><ele>111.0</ele><time>2026-04-19T07:42:59.007Z</time></trkpt><trkpt lat="43.4396356" lon="10.5428319"><ele>111.0</ele><time>2026-04-19T07:43:01.018Z</time></trkpt><trkpt lat="43.4397109" lon="10.5429607"><ele>111.0</ele><time>2026-04-19T07:43:03.016Z</time></trkpt><trkpt lat="43.4397871" lon="10.5430893"><ele>111.0</ele><time>2026-04-19T07:43:05.038Z</time></trkpt><trkpt lat="43.43986" lon="10.5432295"><ele>111.0</ele><time>2026-04-19T07:43:07.006Z</time></trkpt><trkpt lat="43.4399016" lon="10.5433043"><ele>111.0</ele><time>2026-04-19T07:43:08.009Z</time></trkpt><trkpt lat="43.4399435" lon="10.5433747"><ele>111.0</ele><time>2026-04-19T07:43:09.007Z</time></trkpt><trkpt lat="43.4399867" lon="10.5434427"><ele>111.0</ele><time>2026-04-19T07:43:10.018Z</time></trkpt><trkpt lat="43.4400279" lon="10.5435124"><ele>111.0</ele><time>2026-04-19T07:43:11.01Z</time></trkpt><trkpt lat="43.4400673" lon="10.5435863"><ele>111.0</ele><time>2026-04-19T07:43:12.016Z</time></trkpt><trkpt lat="43.4401062" lon="10.5436689"><ele>111.0</ele><time>2026-04-19T07:43:13.003Z</time></trkpt><trkpt lat="43.4401486" lon="10.5437472"><ele>111.0</ele><time>2026-04-19T07:43:14.03Z</time></trkpt><trkpt lat="43.4401899" lon="10.5438293"><ele>111.0</ele><time>2026-04-19T07:43:15.011Z</time></trkpt><trkpt lat="43.440225" lon="10.5439278"><ele>111.0</ele><time>2026-04-19T07:43:16.014Z</time></trkpt><trkpt lat="43.440256" lon="10.5440324"><ele>111.0</ele><time>2026-04-19T07:43:17.011Z</time></trkpt><trkpt lat="43.4402691" lon="10.5441492"><ele>111.66666666666667</ele><time>2026-04-19T07:43:18.006Z</time></trkpt><trkpt lat="43.4402605" lon="10.544257"><ele>112.33333333333334</ele><time>2026-04-19T07:43:19.008Z</time></trkpt><trkpt lat="43.440237" lon="10.544372"><ele>113.0</ele><time>2026-04-19T07:43:20.02Z</time></trkpt><trkpt lat="43.4401965" lon="10.5444753"><ele>113.66666666666667</ele><time>2026-04-19T07:43:21.013Z</time></trkpt><trkpt lat="43.4401578" lon="10.5445691"><ele>114.33333333333334</ele><time>2026-04-19T07:43:22.037Z</time></trkpt><trkpt lat="43.4401051" lon="10.5446417"><ele>115.0</ele><time>2026-04-19T07:43:23.012Z</time></trkpt><trkpt lat="43.4400427" lon="10.544712"><ele>115.50000000000001</ele><time>2026-04-19T07:43:24.009Z</time></trkpt><trkpt lat="43.4399767" lon="10.5447719"><ele>116.0</ele><time>2026-04-19T07:43:25.012Z</time></trkpt><trkpt lat="43.4399144" lon="10.5448362"><ele>116.5</ele><time>2026-04-19T07:43:26.017Z</time></trkpt><trkpt lat="43.4398519" lon="10.5448969"><ele>117.0</ele><time>2026-04-19T07:43:27.009Z</time></trkpt><trkpt lat="43.4397826" lon="10.5449598"><ele>117.50000000000001</ele><time>2026-04-19T07:43:28.006Z</time></trkpt><trkpt lat="43.4397106" lon="10.5450221"><ele>118.0</ele><time>2026-04-19T07:43:29.012Z</time></trkpt><trkpt lat="43.4396355" lon="10.5450875"><ele>118.2</ele><time>2026-04-19T07:43:30.012Z</time></trkpt><trkpt lat="43.4395573" lon="10.545154"><ele>118.4</ele><time>2026-04-19T07:43:31.022Z</time></trkpt><trkpt lat="43.4394822" lon="10.5452163"><ele>118.60000000000001</ele><time>2026-04-19T07:43:32.011Z</time></trkpt><trkpt lat="43.4394047" lon="10.5452819"><ele>118.80000000000001</ele><time>2026-04-19T07:43:33.006Z</time></trkpt><trkpt lat="43.4393213" lon="10.5453421"><ele>119.0</ele><time>2026-04-19T07:43:34.007Z</time></trkpt><trkpt lat="43.4392392" lon="10.5454004"><ele>119.2</ele><time>2026-04-19T07:43:35.007Z</time></trkpt><trkpt lat="43.4391514" lon="10.5454483"><ele>119.4</ele><time>2026-04-19T07:43:36.01Z</time></trkpt><trkpt lat="43.4390566" lon="10.5454816"><ele>119.6</ele><time>2026-04-19T07:43:37.004Z</time></trkpt><trkpt lat="43.43896" lon="10.5455025"><ele>119.8</ele><time>2026-04-19T07:43:38.006Z</time></trkpt><trkpt lat="43.4388551" lon="10.5455197"><ele>120.0</ele><time>2026-04-19T07:43:39.013Z</time></trkpt><trkpt lat="43.4387443" lon="10.5455261"><ele>119.5</ele><time>2026-04-19T07:43:40.011Z</time></trkpt><trkpt lat="43.4386288" lon="10.5455435"><ele>119.0</ele><time>2026-04-19T07:43:41.027Z</time></trkpt><trkpt lat="43.4385084" lon="10.545571"><ele>118.5</ele><time>2026-04-19T07:43:42.009Z</time></trkpt><trkpt lat="43.4383776" lon="10.5456097"><ele>118.0</ele><time>2026-04-19T07:43:43.019Z</time></trkpt><trkpt lat="43.4382428" lon="10.5456522"><ele>118.0</ele><time>2026-04-19T07:43:44.019Z</time></trkpt><trkpt lat="43.4381123" lon="10.5457004"><ele>118.0</ele><time>2026-04-19T07:43:45.041Z</time></trkpt><trkpt lat="43.4379836" lon="10.5457581"><ele>118.0</ele><time>2026-04-19T07:43:46.014Z</time></trkpt><trkpt lat="43.4378611" lon="10.5458169"><ele>118.0</ele><time>2026-04-19T07:43:47.011Z</time></trkpt><trkpt lat="43.4377435" lon="10.5458625"><ele>117.66666666666667</ele><time>2026-04-19T07:43:48.003Z</time></trkpt><trkpt lat="43.4376365" lon="10.545904"><ele>117.33333333333334</ele><time>2026-04-19T07:43:49.009Z</time></trkpt><trkpt lat="43.4375446" lon="10.5459516"><ele>117.0</ele><time>2026-04-19T07:43:50.003Z</time></trkpt><trkpt lat="43.4374718" lon="10.5460159"><ele>116.66666666666666</ele><time>2026-04-19T07:43:51.017Z</time></trkpt><trkpt lat="43.4374281" lon="10.5460905"><ele>116.33333333333333</ele><time>2026-04-19T07:43:52.013Z</time></trkpt><trkpt lat="43.437406" lon="10.5461768"><ele>116.0</ele><time>2026-04-19T07:43:53.042Z</time></trkpt><trkpt lat="43.4374193" lon="10.5462877"><ele>117.0</ele><time>2026-04-19T07:43:54.025Z</time></trkpt><trkpt lat="43.437474" lon="10.5464139"><ele>118.0</ele><time>2026-04-19T07:43:55.015Z</time></trkpt><trkpt lat="43.4375342" lon="10.5465691"><ele>119.0</ele><time>2026-04-19T07:43:56.019Z</time></trkpt><trkpt lat="43.437601" lon="10.5467339"><ele>120.0</ele><time>2026-04-19T07:43:57.044Z</time></trkpt><trkpt lat="43.4376689" lon="10.5469034"><ele>120.75</ele><time>2026-04-19T07:43:58.023Z</time></trkpt><trkpt lat="43.4377425" lon="10.5470772"><ele>121.5</ele><time>2026-04-19T07:43:59.017Z</time></trkpt><trkpt lat="43.4378176" lon="10.5472445"><ele>122.25</ele><time>2026-04-19T07:44:00.018Z</time></trkpt><trkpt lat="43.4378935" lon="10.547417"><ele>123.0</ele><time>2026-04-19T07:44:01.016Z</time></trkpt><trkpt lat="43.437973" lon="10.5475964"><ele>123.0</ele><time>2026-04-19T07:44:02.016Z</time></trkpt><trkpt lat="43.4380478" lon="10.5477715"><ele>123.0</ele><time>2026-04-19T07:44:03.022Z</time></trkpt><trkpt lat="43.4381222" lon="10.5479492"><ele>123.0</ele><time>2026-04-19T07:44:04.017Z</time></trkpt><trkpt lat="43.4381964" lon="10.5481346"><ele>123.66666666666666</ele><time>2026-04-19T07:44:05.023Z</time></trkpt><trkpt lat="43.4382784" lon="10.5483199"><ele>124.33333333333333</ele><time>2026-04-19T07:44:06.019Z</time></trkpt><trkpt lat="43.4383568" lon="10.5485081"><ele>125.0</ele><time>2026-04-19T07:44:07.014Z</time></trkpt><trkpt lat="43.4384333" lon="10.548698"><ele>126.33333333333333</ele><time>2026-04-19T07:44:08.011Z</time></trkpt><trkpt lat="43.4385074" lon="10.5488919"><ele>127.66666666666666</ele><time>2026-04-19T07:44:09.019Z</time></trkpt><trkpt lat="43.4385876" lon="10.5490773"><ele>129.0</ele><time>2026-04-19T07:44:10.018Z</time></trkpt><trkpt lat="43.4386594" lon="10.5492419"><ele>129.0</ele><time>2026-04-19T07:44:11.045Z</time></trkpt><trkpt lat="43.4387172" lon="10.5494021"><ele>129.0</ele><time>2026-04-19T07:44:12.027Z</time></trkpt><trkpt lat="43.4387732" lon="10.5495512"><ele>129.0</ele><time>2026-04-19T07:44:13.012Z</time></trkpt><trkpt lat="43.4388226" lon="10.5496885"><ele>129.0</ele><time>2026-04-19T07:44:14.013Z</time></trkpt><trkpt lat="43.4388762" lon="10.5498309"><ele>129.8</ele><time>2026-04-19T07:44:15.007Z</time></trkpt><trkpt lat="43.438929" lon="10.5499759"><ele>130.60000000000002</ele><time>2026-04-19T07:44:16.016Z</time></trkpt><trkpt lat="43.4389857" lon="10.5501089"><ele>131.4</ele><time>2026-04-19T07:44:17.013Z</time></trkpt><trkpt lat="43.4390445" lon="10.5502334"><ele>132.20000000000002</ele><time>2026-04-19T07:44:18.038Z</time></trkpt><trkpt lat="43.4390966" lon="10.5503566"><ele>133.0</ele><time>2026-04-19T07:44:19.022Z</time></trkpt><trkpt lat="43.4391425" lon="10.5504807"><ele>134.0</ele><time>2026-04-19T07:44:20.016Z</time></trkpt><trkpt lat="43.4391898" lon="10.5506061"><ele>135.0</ele><time>2026-04-19T07:44:21.016Z</time></trkpt><trkpt lat="43.4392459" lon="10.5507444"><ele>136.0</ele><time>2026-04-19T07:44:22.026Z</time></trkpt><trkpt lat="43.4392994" lon="10.5508829"><ele>137.0</ele><time>2026-04-19T07:44:23.008Z</time></trkpt><trkpt lat="43.4393493" lon="10.5510412"><ele>137.0</ele><time>2026-04-19T07:44:24.014Z</time></trkpt><trkpt lat="43.4393881" lon="10.5511919"><ele>137.0</ele><time>2026-04-19T07:44:25.036Z</time></trkpt><trkpt lat="43.4394265" lon="10.5513561"><ele>137.0</ele><time>2026-04-19T07:44:26.028Z</time></trkpt><trkpt lat="43.43948" lon="10.5515192"><ele>137.0</ele><time>2026-04-19T07:44:27.044Z</time></trkpt><trkpt lat="43.4395503" lon="10.5516753"><ele>137.25</ele><time>2026-04-19T07:44:28.011Z</time></trkpt><trkpt lat="43.4396258" lon="10.5518329"><ele>137.5</ele><time>2026-04-19T07:44:29.007Z</time></trkpt><trkpt lat="43.4397128" lon="10.5519849"><ele>137.75</ele><time>2026-04-19T07:44:30.003Z</time></trkpt><trkpt lat="43.4397897" lon="10.5521449"><ele>138.0</ele><time>2026-04-19T07:44:31.009Z</time></trkpt><trkpt lat="43.4398543" lon="10.5523164"><ele>139.5</ele><time>2026-04-19T07:44:32.008Z</time></trkpt><trkpt lat="43.4399106" lon="10.552494"><ele>141.0</ele><time>2026-04-19T07:44:33.014Z</time></trkpt><trkpt lat="43.4399692" lon="10.5526728"><ele>142.5</ele><time>2026-04-19T07:44:34.055Z</time></trkpt><trkpt lat="43.440025" lon="10.5528515"><ele>144.0</ele><time>2026-04-19T07:44:35.004Z</time></trkpt><trkpt lat="43.4400727" lon="10.5530387"><ele>144.5</ele><time>2026-04-19T07:44:36.008Z</time></trkpt><trkpt lat="43.4401192" lon="10.5532183"><ele>145.0</ele><time>2026-04-19T07:44:37.012Z</time></trkpt><trkpt lat="43.4401735" lon="10.5533938"><ele>145.5</ele><time>2026-04-19T07:44:38.013Z</time></trkpt><trkpt lat="43.4402351" lon="10.553565"><ele>146.0</ele><time>2026-04-19T07:44:39.03Z</time></trkpt><trkpt lat="43.4402982" lon="10.5537418"><ele>146.25</ele><time>2026-04-19T07:44:40.014Z</time></trkpt><trkpt lat="43.4403574" lon="10.5539223"><ele>146.5</ele><time>2026-04-19T07:44:41.009Z</time></trkpt><trkpt lat="43.4404121" lon="10.5541013"><ele>146.75</ele><time>2026-04-19T07:44:42.012Z</time></trkpt><trkpt lat="43.4404718" lon="10.5542854"><ele>147.0</ele><time>2026-04-19T07:44:43.012Z</time></trkpt><trkpt lat="43.4405308" lon="10.5544579"><ele>148.0</ele><time>2026-04-19T07:44:44.042Z</time></trkpt><trkpt lat="43.4405751" lon="10.5546056"><ele>149.0</ele><time>2026-04-19T07:44:45.008Z</time></trkpt><trkpt lat="43.4406153" lon="10.5547335"><ele>150.0</ele><time>2026-04-19T07:44:46.022Z</time></trkpt><trkpt lat="43.4406535" lon="10.5548441"><ele>151.0</ele><time>2026-04-19T07:44:47.009Z</time></trkpt><trkpt lat="43.4406938" lon="10.5549647"><ele>152.0</ele><time>2026-04-19T07:44:48.012Z</time></trkpt><trkpt lat="43.4407422" lon="10.5551099"><ele>152.0</ele><time>2026-04-19T07:44:49.009Z</time></trkpt><trkpt lat="43.4407872" lon="10.5552589"><ele>152.0</ele><time>2026-04-19T07:44:50.018Z</time></trkpt><trkpt lat="43.4408316" lon="10.5553913"><ele>152.0</ele><time>2026-04-19T07:44:51.043Z</time></trkpt><trkpt lat="43.4408719" lon="10.5555208"><ele>152.0</ele><time>2026-04-19T07:44:52.019Z</time></trkpt><trkpt lat="43.4409157" lon="10.5556541"><ele>152.0</ele><time>2026-04-19T07:44:53.01Z</time></trkpt><trkpt lat="43.4409561" lon="10.5557945"><ele>152.5</ele><time>2026-04-19T07:44:54.016Z</time></trkpt><trkpt lat="43.4409953" lon="10.5559356"><ele>153.0</ele><time>2026-04-19T07:44:55.016Z</time></trkpt><trkpt lat="43.4410399" lon="10.5560806"><ele>153.5</ele><time>2026-04-19T07:44:56.042Z</time></trkpt><trkpt lat="43.4410863" lon="10.5562219"><ele>154.0</ele><time>2026-04-19T07:44:57.014Z</time></trkpt><trkpt lat="43.4411313" lon="10.5563722"><ele>154.0</ele><time>2026-04-19T07:44:58.011Z</time></trkpt><trkpt lat="43.4411709" lon="10.5565146"><ele>154.0</ele><time>2026-04-19T07:44:59.013Z</time></trkpt><trkpt lat="43.4412187" lon="10.556649"><ele>154.0</ele><time>2026-04-19T07:45:00.025Z</time></trkpt><trkpt lat="43.4412586" lon="10.5567946"><ele>154.0</ele><time>2026-04-19T07:45:01.017Z</time></trkpt><trkpt lat="43.441304" lon="10.5569411"><ele>154.0</ele><time>2026-04-19T07:45:02.018Z</time></trkpt><trkpt lat="43.4413323" lon="10.5571023"><ele>155.0</ele><time>2026-04-19T07:45:03.029Z</time></trkpt><trkpt lat="43.4413625" lon="10.5572554"><ele>156.0</ele><time>2026-04-19T07:45:04.01Z</time></trkpt><trkpt lat="43.4413924" lon="10.5574114"><ele>157.0</ele><time>2026-04-19T07:45:05.015Z</time></trkpt><trkpt lat="43.4414079" lon="10.5575715"><ele>158.0</ele><time>2026-04-19T07:45:06.014Z</time></trkpt><trkpt lat="43.4414344" lon="10.5577341"><ele>158.5</ele><time>2026-04-19T07:45:07.028Z</time></trkpt><trkpt lat="43.4414593" lon="10.5579032"><ele>159.0</ele><time>2026-04-19T07:45:08.02Z</time></trkpt><trkpt lat="43.4414871" lon="10.5580787"><ele>159.5</ele><time>2026-04-19T07:45:09.02Z</time></trkpt><trkpt lat="43.4415102" lon="10.5582577"><ele>160.0</ele><time>2026-04-19T07:45:10.012Z</time></trkpt><trkpt lat="43.4415326" lon="10.5584418"><ele>160.0</ele><time>2026-04-19T07:45:11.009Z</time></trkpt><trkpt lat="43.4415593" lon="10.558626"><ele>160.0</ele><time>2026-04-19T07:45:12.015Z</time></trkpt><trkpt lat="43.4415866" lon="10.5588171"><ele>160.0</ele><time>2026-04-19T07:45:13.007Z</time></trkpt><trkpt lat="43.4416124" lon="10.5590065"><ele>160.0</ele><time>2026-04-19T07:45:14.019Z</time></trkpt><trkpt lat="43.4416371" lon="10.5591961"><ele>160.25</ele><time>2026-04-19T07:45:15.021Z</time></trkpt><trkpt lat="43.4416661" lon="10.5593815"><ele>160.5</ele><time>2026-04-19T07:45:16.012Z</time></trkpt><trkpt lat="43.4417027" lon="10.5595528"><ele>160.75</ele><time>2026-04-19T07:45:17.014Z</time></trkpt><trkpt lat="43.4417416" lon="10.5597227"><ele>161.0</ele><time>2026-04-19T07:45:18.021Z</time></trkpt><trkpt lat="43.4417843" lon="10.5598867"><ele>161.0</ele><time>2026-04-19T07:45:19.048Z</time></trkpt><trkpt lat="43.4418346" lon="10.5600585"><ele>161.0</ele><time>2026-04-19T07:45:20.01Z</time></trkpt><trkpt lat="43.4418893" lon="10.5602363"><ele>161.0</ele><time>2026-04-19T07:45:21.019Z</time></trkpt><trkpt lat="43.4419464" lon="10.5604179"><ele>161.0</ele><time>2026-04-19T07:45:22.008Z</time></trkpt><trkpt lat="43.4420187" lon="10.5605958"><ele>161.0</ele><time>2026-04-19T07:45:23.008Z</time></trkpt><trkpt lat="43.4421006" lon="10.5607786"><ele>161.0</ele><time>2026-04-19T07:45:24.01Z</time></trkpt><trkpt lat="43.442193" lon="10.5609591"><ele>161.0</ele><time>2026-04-19T07:45:25.01Z</time></trkpt><trkpt lat="43.4422956" lon="10.56113"><ele>160.33333333333331</ele><time>2026-04-19T07:45:26.015Z</time></trkpt><trkpt lat="43.4424074" lon="10.5612977"><ele>159.66666666666666</ele><time>2026-04-19T07:45:27.004Z</time></trkpt><trkpt lat="43.4425255" lon="10.5614658"><ele>159.0</ele><time>2026-04-19T07:45:28.016Z</time></trkpt><trkpt lat="43.4426488" lon="10.5616348"><ele>159.0</ele><time>2026-04-19T07:45:29.015Z</time></trkpt><trkpt lat="43.4427734" lon="10.5618031"><ele>159.0</ele><time>2026-04-19T07:45:30.016Z</time></trkpt><trkpt lat="43.4428942" lon="10.5619644"><ele>159.0</ele><time>2026-04-19T07:45:31.013Z</time></trkpt><trkpt lat="43.4430088" lon="10.5621206"><ele>159.66666666666666</ele><time>2026-04-19T07:45:32.017Z</time></trkpt><trkpt lat="43.4431184" lon="10.5622787"><ele>160.33333333333331</ele><time>2026-04-19T07:45:33.011Z</time></trkpt><trkpt lat="43.4432243" lon="10.5624259"><ele>161.0</ele><time>2026-04-19T07:45:34.018Z</time></trkpt><trkpt lat="43.4433295" lon="10.5625759"><ele>161.0</ele><time>2026-04-19T07:45:35.022Z</time></trkpt><trkpt lat="43.4434323" lon="10.5627291"><ele>161.0</ele><time>2026-04-19T07:45:36.017Z</time></trkpt><trkpt lat="43.4435214" lon="10.5628854"><ele>161.0</ele><time>2026-04-19T07:45:37.017Z</time></trkpt><trkpt lat="43.4435859" lon="10.5630498"><ele>161.0</ele><time>2026-04-19T07:45:38.012Z</time></trkpt><trkpt lat="43.4436477" lon="10.5632081"><ele>161.25</ele><time>2026-04-19T07:45:39.023Z</time></trkpt><trkpt lat="43.4437041" lon="10.5633838"><ele>161.5</ele><time>2026-04-19T07:45:40.012Z</time></trkpt><trkpt lat="43.443753" lon="10.5635613"><ele>161.75</ele><time>2026-04-19T07:45:41.011Z</time></trkpt><trkpt lat="43.4438089" lon="10.5637431"><ele>162.0</ele><time>2026-04-19T07:45:42.006Z</time></trkpt><trkpt lat="43.4438752" lon="10.5639263"><ele>164.25</ele><time>2026-04-19T07:45:43.005Z</time></trkpt><trkpt lat="43.4439424" lon="10.5641126"><ele>166.5</ele><time>2026-04-19T07:45:44.004Z</time></trkpt><trkpt lat="43.4440155" lon="10.5642873"><ele>168.75</ele><time>2026-04-19T07:45:45Z</time></trkpt><trkpt lat="43.4440845" lon="10.5644682"><ele>171.0</ele><time>2026-04-19T07:45:46.017Z</time></trkpt><trkpt lat="43.4441441" lon="10.5646622"><ele>172.0</ele><time>2026-04-19T07:45:47.014Z</time></trkpt><trkpt lat="43.4442034" lon="10.564872"><ele>173.0</ele><time>2026-04-19T07:45:48.004Z</time></trkpt><trkpt lat="43.4442575" lon="10.5650968"><ele>174.0</ele><time>2026-04-19T07:45:49.016Z</time></trkpt><trkpt lat="43.4443127" lon="10.5653234"><ele>173.66666666666666</ele><time>2026-04-19T07:45:50.023Z</time></trkpt><trkpt lat="43.4443665" lon="10.5655497"><ele>173.33333333333331</ele><time>2026-04-19T07:45:51.013Z</time></trkpt><trkpt lat="43.4444256" lon="10.5657728"><ele>173.0</ele><time>2026-04-19T07:45:52.007Z</time></trkpt><trkpt lat="43.4444854" lon="10.5659906"><ele>174.0</ele><time>2026-04-19T07:45:53.008Z</time></trkpt><trkpt lat="43.4445402" lon="10.5661968"><ele>175.0</ele><time>2026-04-19T07:45:54.019Z</time></trkpt><trkpt lat="43.4446" lon="10.5663944"><ele>176.0</ele><time>2026-04-19T07:45:55.015Z</time></trkpt><trkpt lat="43.4446568" lon="10.56659"><ele>178.75</ele><time>2026-04-19T07:45:56.042Z</time></trkpt><trkpt lat="43.4447121" lon="10.5667616"><ele>181.5</ele><time>2026-04-19T07:45:57.029Z</time></trkpt><trkpt lat="43.4447748" lon="10.566917"><ele>184.25</ele><time>2026-04-19T07:45:58.014Z</time></trkpt><trkpt lat="43.444842" lon="10.5670527"><ele>187.0</ele><time>2026-04-19T07:45:59.009Z</time></trkpt><trkpt lat="43.4448969" lon="10.5671723"><ele>187.0</ele><time>2026-04-19T07:46:00.021Z</time></trkpt><trkpt lat="43.4449565" lon="10.5672755"><ele>187.0</ele><time>2026-04-19T07:46:01.008Z</time></trkpt><trkpt lat="43.4450132" lon="10.5673738"><ele>187.0</ele><time>2026-04-19T07:46:02.005Z</time></trkpt><trkpt lat="43.4450625" lon="10.5674761"><ele>187.0</ele><time>2026-04-19T07:46:03.021Z</time></trkpt><trkpt lat="43.445105" lon="10.56759"><ele>187.0</ele><time>2026-04-19T07:46:04.015Z</time></trkpt><trkpt lat="43.4451538" lon="10.5676914"><ele>187.0</ele><time>2026-04-19T07:46:05.006Z</time></trkpt><trkpt lat="43.445193" lon="10.567779"><ele>187.0</ele><time>2026-04-19T07:46:06.007Z</time></trkpt><trkpt lat="43.4452342" lon="10.567858"><ele>187.0</ele><time>2026-04-19T07:46:07.016Z</time></trkpt><trkpt lat="43.4452852" lon="10.5679671"><ele>187.0</ele><time>2026-04-19T07:46:09.016Z</time></trkpt><trkpt lat="43.4453599" lon="10.5679914"><ele>187.0</ele><time>2026-04-19T07:46:13.007Z</time></trkpt><trkpt lat="43.4454512" lon="10.5678605"><ele>187.0</ele><time>2026-04-19T07:46:15.004Z</time></trkpt><trkpt lat="43.4455083" lon="10.5677754"><ele>187.39999999999998</ele><time>2026-04-19T07:46:16.008Z</time></trkpt><trkpt lat="43.445584" lon="10.5676895"><ele>187.79999999999998</ele><time>2026-04-19T07:46:17.001Z</time></trkpt><trkpt lat="43.445676" lon="10.5676236"><ele>188.2</ele><time>2026-04-19T07:46:18.019Z</time></trkpt><trkpt lat="43.4457706" lon="10.5675744"><ele>188.6</ele><time>2026-04-19T07:46:19.01Z</time></trkpt><trkpt lat="43.4458625" lon="10.5675511"><ele>189.0</ele><time>2026-04-19T07:46:20.014Z</time></trkpt><trkpt lat="43.4459415" lon="10.567561"><ele>189.0</ele><time>2026-04-19T07:46:21.024Z</time></trkpt><trkpt lat="43.4460344" lon="10.5675864"><ele>189.0</ele><time>2026-04-19T07:46:22.011Z</time></trkpt><trkpt lat="43.446136" lon="10.5676153"><ele>189.0</ele><time>2026-04-19T07:46:23.018Z</time></trkpt><trkpt lat="43.4462325" lon="10.5676498"><ele>189.0</ele><time>2026-04-19T07:46:24.009Z</time></trkpt><trkpt lat="43.4463249" lon="10.5676987"><ele>189.0</ele><time>2026-04-19T07:46:25.004Z</time></trkpt><trkpt lat="43.4464161" lon="10.567776"><ele>190.79999999999998</ele><time>2026-04-19T07:46:26.012Z</time></trkpt><trkpt lat="43.446493" lon="10.5678641"><ele>192.6</ele><time>2026-04-19T07:46:27.001Z</time></trkpt><trkpt lat="43.446579" lon="10.5679748"><ele>194.4</ele><time>2026-04-19T07:46:28.01Z</time></trkpt><trkpt lat="43.4466652" lon="10.5680894"><ele>196.2</ele><time>2026-04-19T07:46:29Z</time></trkpt><trkpt lat="43.4467468" lon="10.5681857"><ele>198.0</ele><time>2026-04-19T07:46:30.01Z</time></trkpt><trkpt lat="43.4468286" lon="10.5682645"><ele>198.0</ele><time>2026-04-19T07:46:31.014Z</time></trkpt><trkpt lat="43.4469191" lon="10.5683105"><ele>198.0</ele><time>2026-04-19T07:46:32.008Z</time></trkpt><trkpt lat="43.4470114" lon="10.5683169"><ele>198.0</ele><time>2026-04-19T07:46:33.008Z</time></trkpt><trkpt lat="43.447097" lon="10.568284"><ele>198.0</ele><time>2026-04-19T07:46:34.028Z</time></trkpt><trkpt lat="43.4471857" lon="10.5682004"><ele>198.0</ele><time>2026-04-19T07:46:35.012Z</time></trkpt><trkpt lat="43.4472452" lon="10.5680937"><ele>196.60000000000002</ele><time>2026-04-19T07:46:36.008Z</time></trkpt><trkpt lat="43.4472716" lon="10.5679762"><ele>195.20000000000002</ele><time>2026-04-19T07:46:36.997Z</time></trkpt><trkpt lat="43.4472656" lon="10.5678543"><ele>193.8</ele><time>2026-04-19T07:46:38.002Z</time></trkpt><trkpt lat="43.4472303" lon="10.5677189"><ele>192.4</ele><time>2026-04-19T07:46:39.024Z</time></trkpt><trkpt lat="43.447171" lon="10.5675767"><ele>191.0</ele><time>2026-04-19T07:46:40.005Z</time></trkpt><trkpt lat="43.4471033" lon="10.5674227"><ele>189.5</ele><time>2026-04-19T07:46:41.011Z</time></trkpt><trkpt lat="43.447058" lon="10.5672528"><ele>188.0</ele><time>2026-04-19T07:46:42.023Z</time></trkpt><trkpt lat="43.4470361" lon="10.5670687"><ele>186.5</ele><time>2026-04-19T07:46:43.004Z</time></trkpt><trkpt lat="43.4470408" lon="10.5669057"><ele>185.0</ele><time>2026-04-19T07:46:44.036Z</time></trkpt><trkpt lat="43.4470696" lon="10.566752"><ele>187.25</ele><time>2026-04-19T07:46:45.003Z</time></trkpt><trkpt lat="43.4471392" lon="10.5666179"><ele>189.5</ele><time>2026-04-19T07:46:46.01Z</time></trkpt><trkpt lat="43.4472408" lon="10.5664902"><ele>191.75</ele><time>2026-04-19T07:46:47.012Z</time></trkpt><trkpt lat="43.4473448" lon="10.5663519"><ele>194.0</ele><time>2026-04-19T07:46:48.009Z</time></trkpt><trkpt lat="43.4474582" lon="10.5662061"><ele>192.25</ele><time>2026-04-19T07:46:49.031Z</time></trkpt><trkpt lat="43.4475678" lon="10.5660563"><ele>190.5</ele><time>2026-04-19T07:46:50.013Z</time></trkpt><trkpt lat="43.4476448" lon="10.56589"><ele>188.75</ele><time>2026-04-19T07:46:51.012Z</time></trkpt><trkpt lat="43.4476795" lon="10.56569"><ele>187.0</ele><time>2026-04-19T07:46:52.01Z</time></trkpt><trkpt lat="43.4476916" lon="10.5654831"><ele>185.75</ele><time>2026-04-19T07:46:53.009Z</time></trkpt><trkpt lat="43.4477113" lon="10.5652786"><ele>184.5</ele><time>2026-04-19T07:46:54.002Z</time></trkpt><trkpt lat="43.4477656" lon="10.5651087"><ele>183.25</ele><time>2026-04-19T07:46:55.007Z</time></trkpt><trkpt lat="43.4478312" lon="10.5649805"><ele>182.0</ele><time>2026-04-19T07:46:56.006Z</time></trkpt><trkpt lat="43.4478983" lon="10.5648637"><ele>183.6</ele><time>2026-04-19T07:46:57.015Z</time></trkpt><trkpt lat="43.447976" lon="10.5647827"><ele>185.2</ele><time>2026-04-19T07:46:58.018Z</time></trkpt><trkpt lat="43.4480733" lon="10.5647546"><ele>186.8</ele><time>2026-04-19T07:46:59.018Z</time></trkpt><trkpt lat="43.4481688" lon="10.5647951"><ele>188.4</ele><time>2026-04-19T07:47:00.009Z</time></trkpt><trkpt lat="43.448242" lon="10.5648616"><ele>190.0</ele><time>2026-04-19T07:47:00.999Z</time></trkpt><trkpt lat="43.4483087" lon="10.5649858"><ele>190.0</ele><time>2026-04-19T07:47:02.05Z</time></trkpt><trkpt lat="43.4483844" lon="10.5651369"><ele>190.0</ele><time>2026-04-19T07:47:03.011Z</time></trkpt><trkpt lat="43.4484727" lon="10.5652952"><ele>190.0</ele><time>2026-04-19T07:47:04.017Z</time></trkpt><trkpt lat="43.4485831" lon="10.565452"><ele>190.0</ele><time>2026-04-19T07:47:05.006Z</time></trkpt><trkpt lat="43.4486901" lon="10.5655806"><ele>192.5</ele><time>2026-04-19T07:47:06.01Z</time></trkpt><trkpt lat="43.4488002" lon="10.565664"><ele>195.0</ele><time>2026-04-19T07:47:07.014Z</time></trkpt><trkpt lat="43.4489213" lon="10.5656997"><ele>197.5</ele><time>2026-04-19T07:47:08.005Z</time></trkpt><trkpt lat="43.4490576" lon="10.5656744"><ele>200.0</ele><time>2026-04-19T07:47:09.011Z</time></trkpt><trkpt lat="43.4491838" lon="10.5655899"><ele>200.0</ele><time>2026-04-19T07:47:10.001Z</time></trkpt><trkpt lat="43.449321" lon="10.5654742"><ele>200.0</ele><time>2026-04-19T07:47:11.019Z</time></trkpt><trkpt lat="43.4494715" lon="10.5653521"><ele>200.0</ele><time>2026-04-19T07:47:12.003Z</time></trkpt><trkpt lat="43.4496385" lon="10.5652616"><ele>196.33333333333334</ele><time>2026-04-19T07:47:13.007Z</time></trkpt><trkpt lat="43.4498101" lon="10.5651991"><ele>192.66666666666669</ele><time>2026-04-19T07:47:14.013Z</time></trkpt><trkpt lat="43.4499835" lon="10.5651429"><ele>189.0</ele><time>2026-04-19T07:47:15.013Z</time></trkpt><trkpt lat="43.4501389" lon="10.565069"><ele>189.0</ele><time>2026-04-19T07:47:16.012Z</time></trkpt><trkpt lat="43.4502857" lon="10.5649818"><ele>189.0</ele><time>2026-04-19T07:47:17.003Z</time></trkpt><trkpt lat="43.4504195" lon="10.5648714"><ele>189.0</ele><time>2026-04-19T07:47:18.007Z</time></trkpt><trkpt lat="43.4505516" lon="10.564746"><ele>188.33333333333334</ele><time>2026-04-19T07:47:19.018Z</time></trkpt><trkpt lat="43.450677" lon="10.5646001"><ele>187.66666666666669</ele><time>2026-04-19T07:47:20.023Z</time></trkpt><trkpt lat="43.4508061" lon="10.5644537"><ele>187.0</ele><time>2026-04-19T07:47:21.036Z</time></trkpt><trkpt lat="43.4509387" lon="10.5643076"><ele>187.0</ele><time>2026-04-19T07:47:22.009Z</time></trkpt><trkpt lat="43.4510732" lon="10.564168"><ele>187.0</ele><time>2026-04-19T07:47:23.022Z</time></trkpt><trkpt lat="43.4512024" lon="10.564038"><ele>187.0</ele><time>2026-04-19T07:47:24.021Z</time></trkpt><trkpt lat="43.4513157" lon="10.5639228"><ele>187.8</ele><time>2026-04-19T07:47:25.009Z</time></trkpt><trkpt lat="43.4514158" lon="10.5638226"><ele>188.6</ele><time>2026-04-19T07:47:26.01Z</time></trkpt><trkpt lat="43.4515075" lon="10.5637518"><ele>189.4</ele><time>2026-04-19T07:47:27.007Z</time></trkpt><trkpt lat="43.4516011" lon="10.5637465"><ele>190.20000000000002</ele><time>2026-04-19T07:47:28.007Z</time></trkpt><trkpt lat="43.4516906" lon="10.5637861"><ele>191.0</ele><time>2026-04-19T07:47:29.003Z</time></trkpt><trkpt lat="43.4517477" lon="10.563866"><ele>191.0</ele><time>2026-04-19T07:47:30.024Z</time></trkpt><trkpt lat="43.4518013" lon="10.5639979"><ele>191.0</ele><time>2026-04-19T07:47:31.017Z</time></trkpt><trkpt lat="43.4518223" lon="10.564147"><ele>191.0</ele><time>2026-04-19T07:47:32.028Z</time></trkpt><trkpt lat="43.4518272" lon="10.5643324"><ele>191.0</ele><time>2026-04-19T07:47:33.011Z</time></trkpt><trkpt lat="43.4518219" lon="10.5645229"><ele>192.25</ele><time>2026-04-19T07:47:34Z</time></trkpt><trkpt lat="43.4517818" lon="10.5647124"><ele>193.5</ele><time>2026-04-19T07:47:35.002Z</time></trkpt><trkpt lat="43.4517132" lon="10.5648899"><ele>194.75</ele><time>2026-04-19T07:47:36.005Z</time></trkpt><trkpt lat="43.4516424" lon="10.56506"><ele>196.0</ele><time>2026-04-19T07:47:37.015Z</time></trkpt><trkpt lat="43.4515918" lon="10.5652284"><ele>197.5</ele><time>2026-04-19T07:47:38.002Z</time></trkpt><trkpt lat="43.451572" lon="10.5653868"><ele>199.0</ele><time>2026-04-19T07:47:39.004Z</time></trkpt><trkpt lat="43.4515676" lon="10.5655351"><ele>200.5</ele><time>2026-04-19T07:47:40.013Z</time></trkpt><trkpt lat="43.4515936" lon="10.5656899"><ele>202.0</ele><time>2026-04-19T07:47:41.01Z</time></trkpt><trkpt lat="43.4516581" lon="10.5658137"><ele>202.0</ele><time>2026-04-19T07:47:41.992Z</time></trkpt><trkpt lat="43.451749" lon="10.5658842"><ele>202.0</ele><time>2026-04-19T07:47:43.003Z</time></trkpt><trkpt lat="43.4518531" lon="10.5659192"><ele>202.0</ele><time>2026-04-19T07:47:43.998Z</time></trkpt><trkpt lat="43.4519754" lon="10.565923"><ele>202.0</ele><time>2026-04-19T07:47:45.007Z</time></trkpt><trkpt lat="43.4521053" lon="10.5659243"><ele>201.8</ele><time>2026-04-19T07:47:46.006Z</time></trkpt><trkpt lat="43.4522169" lon="10.5659453"><ele>201.6</ele><time>2026-04-19T07:47:47Z</time></trkpt><trkpt lat="43.4523105" lon="10.5660168"><ele>201.4</ele><time>2026-04-19T07:47:48.001Z</time></trkpt><trkpt lat="43.4523654" lon="10.5661208"><ele>201.20000000000002</ele><time>2026-04-19T07:47:48.999Z</time></trkpt><trkpt lat="43.4524111" lon="10.5662568"><ele>201.0</ele><time>2026-04-19T07:47:50.007Z</time></trkpt><trkpt lat="43.4524191" lon="10.566411"><ele>201.0</ele><time>2026-04-19T07:47:51Z</time></trkpt><trkpt lat="43.4524128" lon="10.5665737"><ele>201.0</ele><time>2026-04-19T07:47:52.003Z</time></trkpt><trkpt lat="43.4523985" lon="10.5667641"><ele>201.0</ele><time>2026-04-19T07:47:53.03Z</time></trkpt><trkpt lat="43.4523867" lon="10.5669152"><ele>201.0</ele><time>2026-04-19T07:47:54.01Z</time></trkpt><trkpt lat="43.4523791" lon="10.5670302"><ele>202.33333333333334</ele><time>2026-04-19T07:47:55.004Z</time></trkpt><trkpt lat="43.4523737" lon="10.567125"><ele>203.66666666666669</ele><time>2026-04-19T07:47:56.01Z</time></trkpt><trkpt lat="43.4524153" lon="10.5672758"><ele>205.0</ele><time>2026-04-19T07:47:58.002Z</time></trkpt><trkpt lat="43.452501" lon="10.5673791"><ele>206.33333333333334</ele><time>2026-04-19T07:47:59.999Z</time></trkpt><trkpt lat="43.4525347" lon="10.5674638"><ele>207.66666666666669</ele><time>2026-04-19T07:48:01.003Z</time></trkpt><trkpt lat="43.4525677" lon="10.5675584"><ele>209.0</ele><time>2026-04-19T07:48:01.999Z</time></trkpt><trkpt lat="43.4525952" lon="10.5676487"><ele>209.00000000000003</ele><time>2026-04-19T07:48:03.009Z</time></trkpt><trkpt lat="43.4525904" lon="10.5677807"><ele>209.0</ele><time>2026-04-19T07:48:05.004Z</time></trkpt><trkpt lat="43.4525351" lon="10.5678496"><ele>209.0</ele><time>2026-04-19T07:48:07.005Z</time></trkpt><trkpt lat="43.4524654" lon="10.567753"><ele>209.0</ele><time>2026-04-19T07:48:10Z</time></trkpt><trkpt lat="43.4524303" lon="10.5676628"><ele>209.00000000000003</ele><time>2026-04-19T07:48:11.013Z</time></trkpt><trkpt lat="43.4523771" lon="10.5675573"><ele>209.0</ele><time>2026-04-19T07:48:11.997Z</time></trkpt><trkpt lat="43.4523181" lon="10.5674268"><ele>209.0</ele><time>2026-04-19T07:48:13.012Z</time></trkpt><trkpt lat="43.4522638" lon="10.5672867"><ele>209.0</ele><time>2026-04-19T07:48:13.997Z</time></trkpt><trkpt lat="43.4522198" lon="10.5671491"><ele>209.0</ele><time>2026-04-19T07:48:15.006Z</time></trkpt><trkpt lat="43.4521923" lon="10.5670036"><ele>209.0</ele><time>2026-04-19T07:48:16.024Z</time></trkpt><trkpt lat="43.4521691" lon="10.5668746"><ele>209.0</ele><time>2026-04-19T07:48:17.011Z</time></trkpt><trkpt lat="43.4521381" lon="10.5667601"><ele>211.0</ele><time>2026-04-19T07:48:17.998Z</time></trkpt><trkpt lat="43.4521092" lon="10.566673"><ele>213.0</ele><time>2026-04-19T07:48:19Z</time></trkpt><trkpt lat="43.4520064" lon="10.566643"><ele>214.99999999999997</ele><time>2026-04-19T07:48:21.03Z</time></trkpt><trkpt lat="43.4519271" lon="10.5666943"><ele>217.0</ele><time>2026-04-19T07:48:22.005Z</time></trkpt><trkpt lat="43.4518337" lon="10.5667361"><ele>219.0</ele><time>2026-04-19T07:48:23.025Z</time></trkpt><trkpt lat="43.4517308" lon="10.566781"><ele>219.0</ele><time>2026-04-19T07:48:24.01Z</time></trkpt><trkpt lat="43.4516237" lon="10.5668356"><ele>219.0</ele><time>2026-04-19T07:48:24.998Z</time></trkpt><trkpt lat="43.4514999" lon="10.5668827"><ele>219.0</ele><time>2026-04-19T07:48:26.018Z</time></trkpt><trkpt lat="43.4513699" lon="10.5669202"><ele>219.0</ele><time>2026-04-19T07:48:27.007Z</time></trkpt><trkpt lat="43.4512322" lon="10.5669441"><ele>219.0</ele><time>2026-04-19T07:48:28.036Z</time></trkpt><trkpt lat="43.4510992" lon="10.5669595"><ele>218.99999999999997</ele><time>2026-04-19T07:48:28.999Z</time></trkpt><trkpt lat="43.4509852" lon="10.5669626"><ele>218.99999999999997</ele><time>2026-04-19T07:48:29.995Z</time></trkpt><trkpt lat="43.4508979" lon="10.566986"><ele>219.0</ele><time>2026-04-19T07:48:31.001Z</time></trkpt><trkpt lat="43.4508257" lon="10.5670501"><ele>219.0</ele><time>2026-04-19T07:48:32.001Z</time></trkpt><trkpt lat="43.4507746" lon="10.5671452"><ele>223.39999999999998</ele><time>2026-04-19T07:48:32.996Z</time></trkpt><trkpt lat="43.450728" lon="10.5672759"><ele>227.79999999999998</ele><time>2026-04-19T07:48:33.999Z</time></trkpt><trkpt lat="43.4506857" lon="10.5674255"><ele>232.20000000000002</ele><time>2026-04-19T07:48:35.012Z</time></trkpt><trkpt lat="43.4506425" lon="10.567571"><ele>236.60000000000002</ele><time>2026-04-19T07:48:35.998Z</time></trkpt><trkpt lat="43.4505966" lon="10.5677005"><ele>241.0</ele><time>2026-04-19T07:48:37.01Z</time></trkpt><trkpt lat="43.4505411" lon="10.5678091"><ele>242.5</ele><time>2026-04-19T07:48:38.002Z</time></trkpt><trkpt lat="43.4504769" lon="10.567896"><ele>244.0</ele><time>2026-04-19T07:48:39Z</time></trkpt><trkpt lat="43.4503931" lon="10.5679672"><ele>245.5</ele><time>2026-04-19T07:48:40.001Z</time></trkpt><trkpt lat="43.4502782" lon="10.5680402"><ele>247.0</ele><time>2026-04-19T07:48:41.003Z</time></trkpt><trkpt lat="43.4501596" lon="10.5681416"><ele>247.0</ele><time>2026-04-19T07:48:42.003Z</time></trkpt><trkpt lat="43.4500427" lon="10.5682556"><ele>247.0</ele><time>2026-04-19T07:48:43.027Z</time></trkpt><trkpt lat="43.4499487" lon="10.5683589"><ele>247.0</ele><time>2026-04-19T07:48:44.002Z</time></trkpt><trkpt lat="43.4498728" lon="10.5684494"><ele>247.0</ele><time>2026-04-19T07:48:44.997Z</time></trkpt><trkpt lat="43.449813" lon="10.5685731"><ele>249.2</ele><time>2026-04-19T07:48:45.996Z</time></trkpt><trkpt lat="43.4497822" lon="10.5687298"><ele>251.39999999999998</ele><time>2026-04-19T07:48:47Z</time></trkpt><trkpt lat="43.4497688" lon="10.5688939"><ele>253.60000000000002</ele><time>2026-04-19T07:48:47.999Z</time></trkpt><trkpt lat="43.4497517" lon="10.5690409"><ele>255.8</ele><time>2026-04-19T07:48:48.997Z</time></trkpt><trkpt lat="43.44975" lon="10.5691688"><ele>258.0</ele><time>2026-04-19T07:48:49.998Z</time></trkpt><trkpt lat="43.4497723" lon="10.5692683"><ele>258.0</ele><time>2026-04-19T07:48:51.004Z</time></trkpt><trkpt lat="43.4498129" lon="10.5693628"><ele>258.0</ele><time>2026-04-19T07:48:51.997Z</time></trkpt><trkpt lat="43.4498684" lon="10.5694476"><ele>258.0</ele><time>2026-04-19T07:48:53.029Z</time></trkpt><trkpt lat="43.449928" lon="10.5695187"><ele>258.0</ele><time>2026-04-19T07:48:54Z</time></trkpt><trkpt lat="43.4499893" lon="10.5695895"><ele>258.0</ele><time>2026-04-19T07:48:55.006Z</time></trkpt><trkpt lat="43.450031" lon="10.5696578"><ele>258.0</ele><time>2026-04-19T07:48:56.016Z</time></trkpt><trkpt lat="43.4500815" lon="10.5697988"><ele>257.99999999999994</ele><time>2026-04-19T07:48:58.008Z</time></trkpt><trkpt lat="43.450108" lon="10.5698791"><ele>258.0</ele><time>2026-04-19T07:48:59.011Z</time></trkpt><trkpt lat="43.4501372" lon="10.5699664"><ele>258.0</ele><time>2026-04-19T07:49:00.03Z</time></trkpt><trkpt lat="43.4501768" lon="10.5700419"><ele>258.0</ele><time>2026-04-19T07:49:01.004Z</time></trkpt><trkpt lat="43.4502259" lon="10.5701069"><ele>258.0</ele><time>2026-04-19T07:49:02.008Z</time></trkpt><trkpt lat="43.4502906" lon="10.570164"><ele>257.99999999999994</ele><time>2026-04-19T07:49:03.004Z</time></trkpt><trkpt lat="43.4503768" lon="10.5702294"><ele>258.0</ele><time>2026-04-19T07:49:04.004Z</time></trkpt><trkpt lat="43.4504888" lon="10.5702875"><ele>259.0</ele><time>2026-04-19T07:49:05.006Z</time></trkpt><trkpt lat="43.4506093" lon="10.5703403"><ele>260.0</ele><time>2026-04-19T07:49:06.004Z</time></trkpt><trkpt lat="43.4507182" lon="10.570395"><ele>261.0</ele><time>2026-04-19T07:49:07.023Z</time></trkpt><trkpt lat="43.4508133" lon="10.5704598"><ele>262.0</ele><time>2026-04-19T07:49:08.005Z</time></trkpt><trkpt lat="43.4509075" lon="10.5705616"><ele>263.5</ele><time>2026-04-19T07:49:09.005Z</time></trkpt><trkpt lat="43.4509998" lon="10.5706878"><ele>265.0</ele><time>2026-04-19T07:49:10.008Z</time></trkpt><trkpt lat="43.4510915" lon="10.570812"><ele>266.5</ele><time>2026-04-19T07:49:11.003Z</time></trkpt><trkpt lat="43.4511859" lon="10.5709362"><ele>268.0</ele><time>2026-04-19T07:49:12.01Z</time></trkpt><trkpt lat="43.4512755" lon="10.5710467"><ele>267.8</ele><time>2026-04-19T07:49:13.004Z</time></trkpt><trkpt lat="43.4513455" lon="10.5711695"><ele>267.6</ele><time>2026-04-19T07:49:14.007Z</time></trkpt><trkpt lat="43.4513915" lon="10.5712999"><ele>267.4</ele><time>2026-04-19T07:49:15Z</time></trkpt><trkpt lat="43.4514074" lon="10.5714337"><ele>267.2</ele><time>2026-04-19T07:49:16Z</time></trkpt><trkpt lat="43.4513935" lon="10.5715434"><ele>267.0</ele><time>2026-04-19T07:49:16.994Z</time></trkpt><trkpt lat="43.4513576" lon="10.571633"><ele>270.25</ele><time>2026-04-19T07:49:17.996Z</time></trkpt><trkpt lat="43.4512885" lon="10.571704"><ele>273.5</ele><time>2026-04-19T07:49:19.004Z</time></trkpt><trkpt lat="43.4511852" lon="10.57176"><ele>276.75</ele><time>2026-04-19T07:49:19.999Z</time></trkpt><trkpt lat="43.4510646" lon="10.5718401"><ele>280.0</ele><time>2026-04-19T07:49:20.996Z</time></trkpt><trkpt lat="43.4509308" lon="10.5719169"><ele>280.0</ele><time>2026-04-19T07:49:21.999Z</time></trkpt><trkpt lat="43.4507965" lon="10.5720002"><ele>280.0</ele><time>2026-04-19T07:49:23.007Z</time></trkpt><trkpt lat="43.4506839" lon="10.5720448"><ele>280.0</ele><time>2026-04-19T07:49:23.998Z</time></trkpt><trkpt lat="43.4505691" lon="10.5720613"><ele>280.0</ele><time>2026-04-19T07:49:24.994Z</time></trkpt><trkpt lat="43.4504522" lon="10.5720796"><ele>283.0</ele><time>2026-04-19T07:49:26.006Z</time></trkpt><trkpt lat="43.4503359" lon="10.5720852"><ele>286.0</ele><time>2026-04-19T07:49:27.01Z</time></trkpt><trkpt lat="43.4502116" lon="10.5720981"><ele>289.0</ele><time>2026-04-19T07:49:28.006Z</time></trkpt><trkpt lat="43.4500883" lon="10.5721277"><ele>292.0</ele><time>2026-04-19T07:49:29.003Z</time></trkpt><trkpt lat="43.4499731" lon="10.5721589"><ele>292.0</ele><time>2026-04-19T07:49:29.999Z</time></trkpt><trkpt lat="43.4498881" lon="10.5721843"><ele>292.0</ele><time>2026-04-19T07:49:31.005Z</time></trkpt><trkpt lat="43.4498069" lon="10.5722342"><ele>292.0</ele><time>2026-04-19T07:49:33.002Z</time></trkpt><trkpt lat="43.4498129" lon="10.5723867"><ele>292.0</ele><time>2026-04-19T07:49:35.006Z</time></trkpt><trkpt lat="43.4498603" lon="10.5724938"><ele>292.0</ele><time>2026-04-19T07:49:36.019Z</time></trkpt><trkpt lat="43.449935" lon="10.5725796"><ele>292.0</ele><time>2026-04-19T07:49:37.006Z</time></trkpt><trkpt lat="43.4500206" lon="10.5727049"><ele>292.0</ele><time>2026-04-19T07:49:38.005Z</time></trkpt><trkpt lat="43.45014" lon="10.5728664"><ele>292.0</ele><time>2026-04-19T07:49:39.007Z</time></trkpt><trkpt lat="43.4502435" lon="10.5730213"><ele>292.0</ele><time>2026-04-19T07:49:40.002Z</time></trkpt><trkpt lat="43.4503256" lon="10.573185"><ele>289.25</ele><time>2026-04-19T07:49:41.014Z</time></trkpt><trkpt lat="43.450386" lon="10.5733601"><ele>286.5</ele><time>2026-04-19T07:49:42.005Z</time></trkpt><trkpt lat="43.4504543" lon="10.5735362"><ele>283.75</ele><time>2026-04-19T07:49:43.005Z</time></trkpt><trkpt lat="43.4505189" lon="10.573689"><ele>281.0</ele><time>2026-04-19T07:49:44.009Z</time></trkpt><trkpt lat="43.4505941" lon="10.5737905"><ele>286.40000000000003</ele><time>2026-04-19T07:49:45.008Z</time></trkpt><trkpt lat="43.4506969" lon="10.5738555"><ele>291.8</ele><time>2026-04-19T07:49:46.003Z</time></trkpt><trkpt lat="43.4507848" lon="10.5739268"><ele>297.20000000000005</ele><time>2026-04-19T07:49:47.002Z</time></trkpt><trkpt lat="43.4508538" lon="10.5740263"><ele>302.6</ele><time>2026-04-19T07:49:48.001Z</time></trkpt><trkpt lat="43.4509272" lon="10.5741246"><ele>308.0</ele><time>2026-04-19T07:49:49.01Z</time></trkpt><trkpt lat="43.451018" lon="10.5742471"><ele>308.0</ele><time>2026-04-19T07:49:50.005Z</time></trkpt><trkpt lat="43.4511196" lon="10.5743984"><ele>308.0</ele><time>2026-04-19T07:49:50.997Z</time></trkpt><trkpt lat="43.4512177" lon="10.5745528"><ele>308.0</ele><time>2026-04-19T07:49:51.999Z</time></trkpt><trkpt lat="43.4513106" lon="10.5747058"><ele>308.0</ele><time>2026-04-19T07:49:53.003Z</time></trkpt><trkpt lat="43.451412" lon="10.5748388"><ele>311.4</ele><time>2026-04-19T07:49:54.003Z</time></trkpt><trkpt lat="43.451514" lon="10.5749351"><ele>314.8</ele><time>2026-04-19T07:49:55.009Z</time></trkpt><trkpt lat="43.4515937" lon="10.575026"><ele>318.2</ele><time>2026-04-19T07:49:56.012Z</time></trkpt><trkpt lat="43.4516492" lon="10.5751066"><ele>321.6</ele><time>2026-04-19T07:49:57.012Z</time></trkpt><trkpt lat="43.4516799" lon="10.5752063"><ele>325.0</ele><time>2026-04-19T07:49:58.009Z</time></trkpt><trkpt lat="43.4516994" lon="10.5753311"><ele>326.0</ele><time>2026-04-19T07:49:59.004Z</time></trkpt><trkpt lat="43.4517112" lon="10.5754749"><ele>327.0</ele><time>2026-04-19T07:50:00.009Z</time></trkpt><trkpt lat="43.4516977" lon="10.5756248"><ele>328.0</ele><time>2026-04-19T07:50:00.999Z</time></trkpt><trkpt lat="43.4516668" lon="10.5757639"><ele>329.0</ele><time>2026-04-19T07:50:02.004Z</time></trkpt><trkpt lat="43.4516452" lon="10.5759057"><ele>330.0</ele><time>2026-04-19T07:50:03.01Z</time></trkpt><trkpt lat="43.451672" lon="10.5760353"><ele>330.0</ele><time>2026-04-19T07:50:04.017Z</time></trkpt><trkpt lat="43.4517322" lon="10.5761646"><ele>330.0</ele><time>2026-04-19T07:50:05.001Z</time></trkpt><trkpt lat="43.4517962" lon="10.576309"><ele>330.0</ele><time>2026-04-19T07:50:06.008Z</time></trkpt><trkpt lat="43.4518767" lon="10.5764645"><ele>330.0</ele><time>2026-04-19T07:50:07.004Z</time></trkpt><trkpt lat="43.4519629" lon="10.5765925"><ele>330.0</ele><time>2026-04-19T07:50:08.011Z</time></trkpt><trkpt lat="43.4520575" lon="10.5766736"><ele>330.0</ele><time>2026-04-19T07:50:09Z</time></trkpt><trkpt lat="43.4521559" lon="10.5767306"><ele>330.0</ele><time>2026-04-19T07:50:10.002Z</time></trkpt><trkpt lat="43.4522571" lon="10.5767551"><ele>330.0</ele><time>2026-04-19T07:50:11.001Z</time></trkpt><trkpt lat="43.4523512" lon="10.5767583"><ele>330.0</ele><time>2026-04-19T07:50:12.009Z</time></trkpt><trkpt lat="43.4524463" lon="10.5767377"><ele>332.6</ele><time>2026-04-19T07:50:13.023Z</time></trkpt><trkpt lat="43.4525355" lon="10.5766755"><ele>335.2</ele><time>2026-04-19T07:50:14.008Z</time></trkpt><trkpt lat="43.4526231" lon="10.5765969"><ele>337.79999999999995</ele><time>2026-04-19T07:50:15.009Z</time></trkpt><trkpt lat="43.4527099" lon="10.5765247"><ele>340.4</ele><time>2026-04-19T07:50:16.004Z</time></trkpt><trkpt lat="43.4527805" lon="10.5764999"><ele>343.0</ele><time>2026-04-19T07:50:17.006Z</time></trkpt><trkpt lat="43.4528572" lon="10.5765201"><ele>343.0</ele><time>2026-04-19T07:50:17.996Z</time></trkpt><trkpt lat="43.4529383" lon="10.5765704"><ele>343.0</ele><time>2026-04-19T07:50:19.006Z</time></trkpt><trkpt lat="43.4530169" lon="10.5766422"><ele>343.0</ele><time>2026-04-19T07:50:20.005Z</time></trkpt><trkpt lat="43.4530958" lon="10.5767085"><ele>343.0</ele><time>2026-04-19T07:50:21.016Z</time></trkpt><trkpt lat="43.4531784" lon="10.5767528"><ele>343.0</ele><time>2026-04-19T07:50:22.001Z</time></trkpt><trkpt lat="43.4532703" lon="10.5767795"><ele>345.79999999999995</ele><time>2026-04-19T07:50:23.011Z</time></trkpt><trkpt lat="43.4533778" lon="10.5768014"><ele>348.6</ele><time>2026-04-19T07:50:24.025Z</time></trkpt><trkpt lat="43.4534829" lon="10.5768561"><ele>351.4</ele><time>2026-04-19T07:50:25.018Z</time></trkpt><trkpt lat="43.453567" lon="10.5769286"><ele>354.20000000000005</ele><time>2026-04-19T07:50:26.01Z</time></trkpt><trkpt lat="43.4536441" lon="10.5770003"><ele>357.0</ele><time>2026-04-19T07:50:27.005Z</time></trkpt><trkpt lat="43.4537223" lon="10.5770928"><ele>357.0</ele><time>2026-04-19T07:50:28.008Z</time></trkpt><trkpt lat="43.4537864" lon="10.5772056"><ele>357.0</ele><time>2026-04-19T07:50:29.011Z</time></trkpt><trkpt lat="43.453843" lon="10.5773381"><ele>357.0</ele><time>2026-04-19T07:50:30.001Z</time></trkpt><trkpt lat="43.45391" lon="10.5774847"><ele>357.0</ele><time>2026-04-19T07:50:31.038Z</time></trkpt><trkpt lat="43.4539712" lon="10.5776465"><ele>361.0</ele><time>2026-04-19T07:50:32.007Z</time></trkpt><trkpt lat="43.4540248" lon="10.5778229"><ele>365.0</ele><time>2026-04-19T07:50:33.005Z</time></trkpt><trkpt lat="43.4540691" lon="10.5779903"><ele>369.0</ele><time>2026-04-19T07:50:34.01Z</time></trkpt><trkpt lat="43.4541084" lon="10.5781487"><ele>373.0</ele><time>2026-04-19T07:50:35.024Z</time></trkpt><trkpt lat="43.4541481" lon="10.5783168"><ele>373.0</ele><time>2026-04-19T07:50:36.023Z</time></trkpt><trkpt lat="43.4541901" lon="10.5784823"><ele>373.0</ele><time>2026-04-19T07:50:37.01Z</time></trkpt><trkpt lat="43.4542417" lon="10.5786412"><ele>373.0</ele><time>2026-04-19T07:50:38.012Z</time></trkpt><trkpt lat="43.4543049" lon="10.5787948"><ele>373.0</ele><time>2026-04-19T07:50:39.02Z</time></trkpt><trkpt lat="43.4543697" lon="10.578945"><ele>373.0</ele><time>2026-04-19T07:50:40.006Z</time></trkpt><trkpt lat="43.4544468" lon="10.5790643"><ele>373.0</ele><time>2026-04-19T07:50:41.004Z</time></trkpt><trkpt lat="43.4545335" lon="10.5791683"><ele>373.0</ele><time>2026-04-19T07:50:42.01Z</time></trkpt><trkpt lat="43.4546186" lon="10.5792483"><ele>373.0</ele><time>2026-04-19T07:50:43.003Z</time></trkpt><trkpt lat="43.454692" lon="10.5793231"><ele>373.0</ele><time>2026-04-19T07:50:44.008Z</time></trkpt><trkpt lat="43.4547593" lon="10.5794064"><ele>373.66666666666663</ele><time>2026-04-19T07:50:45.005Z</time></trkpt><trkpt lat="43.4548059" lon="10.5794883"><ele>374.3333333333333</ele><time>2026-04-19T07:50:46.009Z</time></trkpt><trkpt lat="43.4548379" lon="10.5795668"><ele>375.0</ele><time>2026-04-19T07:50:47.005Z</time></trkpt><trkpt lat="43.4548448" lon="10.5796721"><ele>375.6666666666667</ele><time>2026-04-19T07:50:48.007Z</time></trkpt><trkpt lat="43.4548309" lon="10.5797812"><ele>376.33333333333337</ele><time>2026-04-19T07:50:48.998Z</time></trkpt><trkpt lat="43.4547945" lon="10.5799113"><ele>377.0</ele><time>2026-04-19T07:50:50.043Z</time></trkpt><trkpt lat="43.4547673" lon="10.5800468"><ele>379.40000000000003</ele><time>2026-04-19T07:50:50.999Z</time></trkpt><trkpt lat="43.4547568" lon="10.5801934"><ele>381.8</ele><time>2026-04-19T07:50:52.011Z</time></trkpt><trkpt lat="43.4547452" lon="10.5803448"><ele>384.2</ele><time>2026-04-19T07:50:53.004Z</time></trkpt><trkpt lat="43.454738" lon="10.5804879"><ele>386.6</ele><time>2026-04-19T07:50:54.011Z</time></trkpt><trkpt lat="43.4547616" lon="10.5805888"><ele>389.0</ele><time>2026-04-19T07:50:55.008Z</time></trkpt><trkpt lat="43.4548121" lon="10.5806786"><ele>390.8333333333333</ele><time>2026-04-19T07:50:56.003Z</time></trkpt><trkpt lat="43.4548847" lon="10.5807643"><ele>392.66666666666663</ele><time>2026-04-19T07:50:57.012Z</time></trkpt><trkpt lat="43.4549472" lon="10.580855"><ele>394.5</ele><time>2026-04-19T07:50:58.01Z</time></trkpt><trkpt lat="43.4549904" lon="10.5809533"><ele>396.33333333333337</ele><time>2026-04-19T07:50:59.002Z</time></trkpt><trkpt lat="43.4550227" lon="10.5810394"><ele>398.1666666666667</ele><time>2026-04-19T07:51:00.014Z</time></trkpt><trkpt lat="43.4550604" lon="10.5811607"><ele>400.0</ele><time>2026-04-19T07:51:01.003Z</time></trkpt><trkpt lat="43.4551115" lon="10.5812947"><ele>401.75</ele><time>2026-04-19T07:51:02.016Z</time></trkpt><trkpt lat="43.4551698" lon="10.581439"><ele>403.5</ele><time>2026-04-19T07:51:03.014Z</time></trkpt><trkpt lat="43.4552239" lon="10.581597"><ele>405.25</ele><time>2026-04-19T07:51:04.001Z</time></trkpt><trkpt lat="43.4552682" lon="10.5817491"><ele>407.0</ele><time>2026-04-19T07:51:05.004Z</time></trkpt><trkpt lat="43.4552948" lon="10.581894"><ele>407.5</ele><time>2026-04-19T07:51:06.004Z</time></trkpt><trkpt lat="43.4553197" lon="10.5820445"><ele>408.0</ele><time>2026-04-19T07:51:07.008Z</time></trkpt><trkpt lat="43.4553454" lon="10.582213"><ele>408.5</ele><time>2026-04-19T07:51:08.011Z</time></trkpt><trkpt lat="43.4553744" lon="10.5824022"><ele>409.0</ele><time>2026-04-19T07:51:09.032Z</time></trkpt><trkpt lat="43.4553963" lon="10.5825945"><ele>409.0</ele><time>2026-04-19T07:51:10.011Z</time></trkpt><trkpt lat="43.4554169" lon="10.5827794"><ele>409.0</ele><time>2026-04-19T07:51:11.009Z</time></trkpt><trkpt lat="43.4554182" lon="10.5829647"><ele>409.0</ele><time>2026-04-19T07:51:12.003Z</time></trkpt><trkpt lat="43.4554014" lon="10.5831484"><ele>409.0</ele><time>2026-04-19T07:51:13.008Z</time></trkpt><trkpt lat="43.4553719" lon="10.5833365"><ele>410.5</ele><time>2026-04-19T07:51:14.008Z</time></trkpt><trkpt lat="43.4553572" lon="10.5835158"><ele>412.0</ele><time>2026-04-19T07:51:15.01Z</time></trkpt><trkpt lat="43.4553665" lon="10.583699"><ele>413.5</ele><time>2026-04-19T07:51:16.01Z</time></trkpt><trkpt lat="43.4554028" lon="10.5839135"><ele>415.0</ele><time>2026-04-19T07:51:17.004Z</time></trkpt><trkpt lat="43.4554297" lon="10.584113"><ele>417.25</ele><time>2026-04-19T07:51:17.998Z</time></trkpt><trkpt lat="43.4554801" lon="10.584297"><ele>419.5</ele><time>2026-04-19T07:51:19Z</time></trkpt><trkpt lat="43.4555388" lon="10.5844605"><ele>421.75</ele><time>2026-04-19T07:51:20.006Z</time></trkpt><trkpt lat="43.4555968" lon="10.5846394"><ele>424.0</ele><time>2026-04-19T07:51:21.008Z</time></trkpt><trkpt lat="43.455659" lon="10.5848178"><ele>426.6666666666667</ele><time>2026-04-19T07:51:22.002Z</time></trkpt><trkpt lat="43.4557282" lon="10.5849931"><ele>429.33333333333337</ele><time>2026-04-19T07:51:22.993Z</time></trkpt><trkpt lat="43.4558067" lon="10.5851849"><ele>432.0</ele><time>2026-04-19T07:51:24.013Z</time></trkpt><trkpt lat="43.4558859" lon="10.5853795"><ele>434.0</ele><time>2026-04-19T07:51:25.008Z</time></trkpt><trkpt lat="43.4559511" lon="10.5855675"><ele>436.0</ele><time>2026-04-19T07:51:26.011Z</time></trkpt><trkpt lat="43.4560128" lon="10.5857571"><ele>438.0</ele><time>2026-04-19T07:51:27.001Z</time></trkpt><trkpt lat="43.4560726" lon="10.585955"><ele>438.0</ele><time>2026-04-19T07:51:28.009Z</time></trkpt><trkpt lat="43.4561344" lon="10.5861417"><ele>438.0</ele><time>2026-04-19T07:51:29.004Z</time></trkpt><trkpt lat="43.456203" lon="10.586331"><ele>438.0</ele><time>2026-04-19T07:51:30.003Z</time></trkpt><trkpt lat="43.4562879" lon="10.5865108"><ele>439.0</ele><time>2026-04-19T07:51:31.004Z</time></trkpt><trkpt lat="43.456388" lon="10.586677"><ele>440.0</ele><time>2026-04-19T07:51:31.998Z</time></trkpt><trkpt lat="43.4564758" lon="10.5868361"><ele>441.0</ele><time>2026-04-19T07:51:33.008Z</time></trkpt><trkpt lat="43.4565488" lon="10.5869915"><ele>442.0</ele><time>2026-04-19T07:51:34.002Z</time></trkpt><trkpt lat="43.456604" lon="10.5871495"><ele>445.25</ele><time>2026-04-19T07:51:35.021Z</time></trkpt><trkpt lat="43.4566461" lon="10.5873191"><ele>448.5</ele><time>2026-04-19T07:51:36.007Z</time></trkpt><trkpt lat="43.4566796" lon="10.5874943"><ele>451.75</ele><time>2026-04-19T07:51:37.01Z</time></trkpt><trkpt lat="43.4567143" lon="10.5876744"><ele>455.0</ele><time>2026-04-19T07:51:38.006Z</time></trkpt><trkpt lat="43.4567652" lon="10.5878362"><ele>457.5</ele><time>2026-04-19T07:51:39.007Z</time></trkpt><trkpt lat="43.4568378" lon="10.5879692"><ele>460.0</ele><time>2026-04-19T07:51:40.012Z</time></trkpt><trkpt lat="43.4569369" lon="10.5880761"><ele>462.5</ele><time>2026-04-19T07:51:40.995Z</time></trkpt><trkpt lat="43.457042" lon="10.5881784"><ele>465.0</ele><time>2026-04-19T07:51:42.014Z</time></trkpt><trkpt lat="43.4571382" lon="10.5882765"><ele>465.0</ele><time>2026-04-19T07:51:43Z</time></trkpt><trkpt lat="43.4572217" lon="10.5883827"><ele>465.0</ele><time>2026-04-19T07:51:44.017Z</time></trkpt><trkpt lat="43.4572985" lon="10.5885072"><ele>465.0</ele><time>2026-04-19T07:51:45.006Z</time></trkpt><trkpt lat="43.457381" lon="10.5886201"><ele>465.0</ele><time>2026-04-19T07:51:46Z</time></trkpt><trkpt lat="43.4574741" lon="10.5887048"><ele>470.0</ele><time>2026-04-19T07:51:47.009Z</time></trkpt><trkpt lat="43.4575815" lon="10.5887507"><ele>475.0</ele><time>2026-04-19T07:51:48.006Z</time></trkpt><trkpt lat="43.4576948" lon="10.5887957"><ele>480.0</ele><time>2026-04-19T07:51:49.015Z</time></trkpt><trkpt lat="43.4577955" lon="10.5888697"><ele>485.0</ele><time>2026-04-19T07:51:50.009Z</time></trkpt><trkpt lat="43.4578924" lon="10.5889681"><ele>485.75</ele><time>2026-04-19T07:51:51.004Z</time></trkpt><trkpt lat="43.4579875" lon="10.5891042"><ele>486.5</ele><time>2026-04-19T07:51:52.011Z</time></trkpt><trkpt lat="43.4580764" lon="10.5892606"><ele>487.25</ele><time>2026-04-19T07:51:53.012Z</time></trkpt><trkpt lat="43.4581718" lon="10.5894256"><ele>488.0</ele><time>2026-04-19T07:51:54.007Z</time></trkpt><trkpt lat="43.4582543" lon="10.5895917"><ele>488.0</ele><time>2026-04-19T07:51:55.014Z</time></trkpt><trkpt lat="43.4583264" lon="10.5897428"><ele>487.99999999999994</ele><time>2026-04-19T07:51:56.011Z</time></trkpt><trkpt lat="43.458401" lon="10.5898571"><ele>487.99999999999994</ele><time>2026-04-19T07:51:57.009Z</time></trkpt><trkpt lat="43.4584865" lon="10.5899308"><ele>488.0</ele><time>2026-04-19T07:51:58.01Z</time></trkpt><trkpt lat="43.458565" lon="10.5899892"><ele>488.0</ele><time>2026-04-19T07:51:59.005Z</time></trkpt><trkpt lat="43.4586587" lon="10.5900913"><ele>488.0</ele><time>2026-04-19T07:52:00.009Z</time></trkpt><trkpt lat="43.4587302" lon="10.5902486"><ele>488.0</ele><time>2026-04-19T07:52:01.013Z</time></trkpt><trkpt lat="43.4588083" lon="10.5904118"><ele>488.0</ele><time>2026-04-19T07:52:02.014Z</time></trkpt><trkpt lat="43.4588905" lon="10.5905744"><ele>488.0</ele><time>2026-04-19T07:52:03.006Z</time></trkpt><trkpt lat="43.4589974" lon="10.5906935"><ele>488.0</ele><time>2026-04-19T07:52:04.003Z</time></trkpt><trkpt lat="43.4591103" lon="10.5907674"><ele>488.0</ele><time>2026-04-19T07:52:05.025Z</time></trkpt><trkpt lat="43.4592276" lon="10.5908366"><ele>488.0</ele><time>2026-04-19T07:52:06.004Z</time></trkpt><trkpt lat="43.4593606" lon="10.5908846"><ele>488.0</ele><time>2026-04-19T07:52:07.013Z</time></trkpt><trkpt lat="43.4594768" lon="10.5909369"><ele>488.0</ele><time>2026-04-19T07:52:08.008Z</time></trkpt><trkpt lat="43.4595761" lon="10.5910127"><ele>488.0</ele><time>2026-04-19T07:52:09.014Z</time></trkpt><trkpt lat="43.4596638" lon="10.5911271"><ele>488.0</ele><time>2026-04-19T07:52:10.007Z</time></trkpt><trkpt lat="43.4597566" lon="10.5912597"><ele>488.0</ele><time>2026-04-19T07:52:11.023Z</time></trkpt><trkpt lat="43.4598427" lon="10.5914123"><ele>488.0</ele><time>2026-04-19T07:52:12.014Z</time></trkpt><trkpt lat="43.459932" lon="10.5915889"><ele>488.0</ele><time>2026-04-19T07:52:13.011Z</time></trkpt><trkpt lat="43.4600087" lon="10.5917639"><ele>488.0</ele><time>2026-04-19T07:52:14.013Z</time></trkpt><trkpt lat="43.4600576" lon="10.5919189"><ele>488.0</ele><time>2026-04-19T07:52:15.015Z</time></trkpt><trkpt lat="43.4600836" lon="10.5920558"><ele>487.99999999999994</ele><time>2026-04-19T07:52:16.009Z</time></trkpt><trkpt lat="43.4601089" lon="10.5921669"><ele>488.0</ele><time>2026-04-19T07:52:17.011Z</time></trkpt><trkpt lat="43.4601488" lon="10.5922679"><ele>488.0</ele><time>2026-04-19T07:52:18.01Z</time></trkpt><trkpt lat="43.4602123" lon="10.5923371"><ele>488.0</ele><time>2026-04-19T07:52:19.006Z</time></trkpt><trkpt lat="43.4602739" lon="10.5923759"><ele>487.99999999999994</ele><time>2026-04-19T07:52:20.035Z</time></trkpt><trkpt lat="43.4603564" lon="10.592407"><ele>488.0</ele><time>2026-04-19T07:52:21.01Z</time></trkpt><trkpt lat="43.4604622" lon="10.592432"><ele>486.4</ele><time>2026-04-19T07:52:22.007Z</time></trkpt><trkpt lat="43.4605764" lon="10.5924519"><ele>484.79999999999995</ele><time>2026-04-19T07:52:23.001Z</time></trkpt><trkpt lat="43.4606767" lon="10.5924656"><ele>483.2</ele><time>2026-04-19T07:52:24.011Z</time></trkpt><trkpt lat="43.4607726" lon="10.5924843"><ele>481.6</ele><time>2026-04-19T07:52:25.007Z</time></trkpt><trkpt lat="43.4608577" lon="10.5924976"><ele>480.0</ele><time>2026-04-19T07:52:26.004Z</time></trkpt><trkpt lat="43.4609266" lon="10.592508"><ele>480.0</ele><time>2026-04-19T07:52:27.018Z</time></trkpt><trkpt lat="43.4609938" lon="10.5925232"><ele>480.0</ele><time>2026-04-19T07:52:28.014Z</time></trkpt><trkpt lat="43.4610534" lon="10.592566"><ele>480.0</ele><time>2026-04-19T07:52:29.007Z</time></trkpt><trkpt lat="43.461115" lon="10.5926057"><ele>480.0</ele><time>2026-04-19T07:52:30.011Z</time></trkpt><trkpt lat="43.461212" lon="10.5926983"><ele>480.0</ele><time>2026-04-19T07:52:32.013Z</time></trkpt><trkpt lat="43.4612794" lon="10.5927896"><ele>480.0</ele><time>2026-04-19T07:52:34.015Z</time></trkpt><trkpt lat="43.4613613" lon="10.592807"><ele>478.8</ele><time>2026-04-19T07:52:36.003Z</time></trkpt><trkpt lat="43.4614364" lon="10.5927146"><ele>477.6</ele><time>2026-04-19T07:52:38.006Z</time></trkpt><trkpt lat="43.461479" lon="10.5925757"><ele>476.4</ele><time>2026-04-19T07:52:40.012Z</time></trkpt><trkpt lat="43.4615432" lon="10.592438"><ele>475.2</ele><time>2026-04-19T07:52:42.038Z</time></trkpt><trkpt lat="43.4616028" lon="10.5923643"><ele>474.0</ele><time>2026-04-19T07:52:44.014Z</time></trkpt><trkpt lat="43.4616918" lon="10.5923673"><ele>474.0</ele><time>2026-04-19T07:52:46.011Z</time></trkpt><trkpt lat="43.4617374" lon="10.5924446"><ele>474.0</ele><time>2026-04-19T07:52:48.003Z</time></trkpt><trkpt lat="43.4617528" lon="10.5925507"><ele>474.0</ele><time>2026-04-19T07:52:49.996Z</time></trkpt><trkpt lat="43.4617689" lon="10.5926623"><ele>474.0</ele><time>2026-04-19T07:52:52.009Z</time></trkpt><trkpt lat="43.4618004" lon="10.5927916"><ele>474.0</ele><time>2026-04-19T07:52:54.017Z</time></trkpt><trkpt lat="43.4618274" lon="10.5928805"><ele>474.0</ele><time>2026-04-19T07:52:55.005Z</time></trkpt><trkpt lat="43.4618543" lon="10.5929842"><ele>473.2857142857142</ele><time>2026-04-19T07:52:56.015Z</time></trkpt><trkpt lat="43.4618851" lon="10.5930839"><ele>472.57142857142856</ele><time>2026-04-19T07:52:57.014Z</time></trkpt><trkpt lat="43.4619139" lon="10.5931843"><ele>471.85714285714283</ele><time>2026-04-19T07:52:58.012Z</time></trkpt><trkpt lat="43.4619386" lon="10.5932819"><ele>471.1428571428571</ele><time>2026-04-19T07:52:59.011Z</time></trkpt><trkpt lat="43.4619576" lon="10.5933818"><ele>470.42857142857144</ele><time>2026-04-19T07:53:00.009Z</time></trkpt><trkpt lat="43.4619818" lon="10.5934747"><ele>469.7142857142857</ele><time>2026-04-19T07:53:01.01Z</time></trkpt><trkpt lat="43.462002" lon="10.5935663"><ele>469.0</ele><time>2026-04-19T07:53:02.017Z</time></trkpt><trkpt lat="43.4620175" lon="10.593652"><ele>469.0</ele><time>2026-04-19T07:53:03.01Z</time></trkpt><trkpt lat="43.4620216" lon="10.5938211"><ele>469.0</ele><time>2026-04-19T07:53:05.002Z</time></trkpt><trkpt lat="43.4620145" lon="10.5939087"><ele>469.0</ele><time>2026-04-19T07:53:06.002Z</time></trkpt><trkpt lat="43.46201" lon="10.5940714"><ele>469.0</ele><time>2026-04-19T07:53:08.01Z</time></trkpt><trkpt lat="43.4620294" lon="10.5941553"><ele>469.0</ele><time>2026-04-19T07:53:09.043Z</time></trkpt><trkpt lat="43.4620782" lon="10.5943041"><ele>469.00000000000006</ele><time>2026-04-19T07:53:11.011Z</time></trkpt><trkpt lat="43.4621038" lon="10.5944367"><ele>469.0</ele><time>2026-04-19T07:53:13.014Z</time></trkpt><trkpt lat="43.4620734" lon="10.5945922"><ele>469.0</ele><time>2026-04-19T07:53:15.002Z</time></trkpt><trkpt lat="43.4620465" lon="10.5946824"><ele>469.0</ele><time>2026-04-19T07:53:16.039Z</time></trkpt><trkpt lat="43.4620214" lon="10.5947637"><ele>469.00000000000006</ele><time>2026-04-19T07:53:17.007Z</time></trkpt><trkpt lat="43.4620115" lon="10.5948873"><ele>469.0</ele><time>2026-04-19T07:53:19.005Z</time></trkpt><trkpt lat="43.4620227" lon="10.5950283"><ele>468.57142857142856</ele><time>2026-04-19T07:53:21.022Z</time></trkpt><trkpt lat="43.4620356" lon="10.5951137"><ele>468.1428571428571</ele><time>2026-04-19T07:53:22.004Z</time></trkpt><trkpt lat="43.4620436" lon="10.5952077"><ele>467.7142857142857</ele><time>2026-04-19T07:53:23.01Z</time></trkpt><trkpt lat="43.4620548" lon="10.5953146"><ele>467.2857142857143</ele><time>2026-04-19T07:53:24.015Z</time></trkpt><trkpt lat="43.4620633" lon="10.5954209"><ele>466.85714285714283</ele><time>2026-04-19T07:53:25.006Z</time></trkpt><trkpt lat="43.462062" lon="10.5955235"><ele>466.42857142857144</ele><time>2026-04-19T07:53:26.001Z</time></trkpt><trkpt lat="43.4620648" lon="10.595635"><ele>466.0</ele><time>2026-04-19T07:53:27.01Z</time></trkpt><trkpt lat="43.4620641" lon="10.5957655"><ele>465.0</ele><time>2026-04-19T07:53:28.001Z</time></trkpt><trkpt lat="43.4620662" lon="10.5959157"><ele>464.0</ele><time>2026-04-19T07:53:29Z</time></trkpt><trkpt lat="43.4620663" lon="10.5960503"><ele>463.0</ele><time>2026-04-19T07:53:30.007Z</time></trkpt><trkpt lat="43.4620719" lon="10.5961742"><ele>462.0</ele><time>2026-04-19T07:53:31Z</time></trkpt><trkpt lat="43.4620845" lon="10.5962912"><ele>461.0</ele><time>2026-04-19T07:53:32.009Z</time></trkpt><trkpt lat="43.46211" lon="10.5963932"><ele>461.16666666666663</ele><time>2026-04-19T07:53:33.002Z</time></trkpt><trkpt lat="43.4621402" lon="10.5964856"><ele>461.3333333333333</ele><time>2026-04-19T07:53:34.006Z</time></trkpt><trkpt lat="43.462177" lon="10.5965839"><ele>461.5</ele><time>2026-04-19T07:53:35.027Z</time></trkpt><trkpt lat="43.4622173" lon="10.5966985"><ele>461.66666666666663</ele><time>2026-04-19T07:53:36.003Z</time></trkpt><trkpt lat="43.4622494" lon="10.5968171"><ele>461.8333333333333</ele><time>2026-04-19T07:53:37.003Z</time></trkpt><trkpt lat="43.4622606" lon="10.5969247"><ele>462.0</ele><time>2026-04-19T07:53:38.003Z</time></trkpt><trkpt lat="43.4622774" lon="10.5970368"><ele>460.8571428571429</ele><time>2026-04-19T07:53:38.996Z</time></trkpt><trkpt lat="43.4622979" lon="10.5971296"><ele>459.7142857142857</ele><time>2026-04-19T07:53:40.029Z</time></trkpt><trkpt lat="43.4623228" lon="10.5972217"><ele>458.57142857142856</ele><time>2026-04-19T07:53:41.009Z</time></trkpt><trkpt lat="43.462348" lon="10.597316"><ele>457.42857142857144</ele><time>2026-04-19T07:53:42.017Z</time></trkpt><trkpt lat="43.4623768" lon="10.5974165"><ele>456.28571428571433</ele><time>2026-04-19T07:53:43.009Z</time></trkpt><trkpt lat="43.4624088" lon="10.5975128"><ele>455.14285714285717</ele><time>2026-04-19T07:53:44.011Z</time></trkpt><trkpt lat="43.4624438" lon="10.5975983"><ele>454.0</ele><time>2026-04-19T07:53:45.006Z</time></trkpt><trkpt lat="43.4624968" lon="10.5977338"><ele>453.6666666666667</ele><time>2026-04-19T07:53:47.01Z</time></trkpt><trkpt lat="43.4624838" lon="10.5978455"><ele>453.33333333333337</ele><time>2026-04-19T07:53:49.044Z</time></trkpt><trkpt lat="43.4624406" lon="10.5979356"><ele>453.0</ele><time>2026-04-19T07:53:50.003Z</time></trkpt><trkpt lat="43.4624052" lon="10.5980521"><ele>452.66666666666663</ele><time>2026-04-19T07:53:51.003Z</time></trkpt><trkpt lat="43.4623772" lon="10.5981424"><ele>452.3333333333333</ele><time>2026-04-19T07:53:51.998Z</time></trkpt><trkpt lat="43.4623822" lon="10.5983002"><ele>452.0</ele><time>2026-04-19T07:53:54.004Z</time></trkpt><trkpt lat="43.4624036" lon="10.5984045"><ele>451.99999999999994</ele><time>2026-04-19T07:53:55.009Z</time></trkpt><trkpt lat="43.4624207" lon="10.5985001"><ele>452.0</ele><time>2026-04-19T07:53:56Z</time></trkpt><trkpt lat="43.4624402" lon="10.5985855"><ele>452.0</ele><time>2026-04-19T07:53:57.001Z</time></trkpt><trkpt lat="43.462451" lon="10.5986834"><ele>452.0</ele><time>2026-04-19T07:53:58.01Z</time></trkpt><trkpt lat="43.4624518" lon="10.5987761"><ele>451.99999999999994</ele><time>2026-04-19T07:53:59.002Z</time></trkpt><trkpt lat="43.4624495" lon="10.5989"><ele>452.0</ele><time>2026-04-19T07:54:01Z</time></trkpt><trkpt lat="43.4624855" lon="10.5990249"><ele>451.66666666666663</ele><time>2026-04-19T07:54:03.042Z</time></trkpt><trkpt lat="43.4625094" lon="10.599126"><ele>451.3333333333333</ele><time>2026-04-19T07:54:04.007Z</time></trkpt><trkpt lat="43.4625154" lon="10.5992288"><ele>451.0</ele><time>2026-04-19T07:54:05.003Z</time></trkpt><trkpt lat="43.4625148" lon="10.5993383"><ele>450.66666666666663</ele><time>2026-04-19T07:54:06.008Z</time></trkpt><trkpt lat="43.4625061" lon="10.5994542"><ele>450.3333333333333</ele><time>2026-04-19T07:54:07.006Z</time></trkpt><trkpt lat="43.4625028" lon="10.5995611"><ele>450.0</ele><time>2026-04-19T07:54:08.003Z</time></trkpt><trkpt lat="43.4625044" lon="10.5996623"><ele>449.1666666666667</ele><time>2026-04-19T07:54:09.006Z</time></trkpt><trkpt lat="43.4625093" lon="10.5997729"><ele>448.33333333333337</ele><time>2026-04-19T07:54:10.003Z</time></trkpt><trkpt lat="43.462507" lon="10.5998892"><ele>447.5</ele><time>2026-04-19T07:54:11.005Z</time></trkpt><trkpt lat="43.4624951" lon="10.6000033"><ele>446.6666666666667</ele><time>2026-04-19T07:54:12Z</time></trkpt><trkpt lat="43.4624756" lon="10.6001049"><ele>445.83333333333337</ele><time>2026-04-19T07:54:13.006Z</time></trkpt><trkpt lat="43.462469" lon="10.6002507"><ele>445.0</ele><time>2026-04-19T07:54:15.004Z</time></trkpt><trkpt lat="43.4624834" lon="10.6003436"><ele>444.83333333333337</ele><time>2026-04-19T07:54:16.002Z</time></trkpt><trkpt lat="43.4624911" lon="10.6004608"><ele>444.6666666666667</ele><time>2026-04-19T07:54:17.005Z</time></trkpt><trkpt lat="43.4624848" lon="10.600577"><ele>444.5</ele><time>2026-04-19T07:54:18.006Z</time></trkpt><trkpt lat="43.4624597" lon="10.6006963"><ele>444.33333333333337</ele><time>2026-04-19T07:54:19.003Z</time></trkpt><trkpt lat="43.462439" lon="10.600794"><ele>444.1666666666667</ele><time>2026-04-19T07:54:20.003Z</time></trkpt><trkpt lat="43.4624316" lon="10.6008903"><ele>444.0</ele><time>2026-04-19T07:54:21.003Z</time></trkpt><trkpt lat="43.4624168" lon="10.6010085"><ele>444.0</ele><time>2026-04-19T07:54:21.996Z</time></trkpt><trkpt lat="43.4623803" lon="10.6011368"><ele>444.0</ele><time>2026-04-19T07:54:23.005Z</time></trkpt><trkpt lat="43.4623275" lon="10.6012746"><ele>444.0</ele><time>2026-04-19T07:54:24.014Z</time></trkpt><trkpt lat="43.4622727" lon="10.6013967"><ele>444.0</ele><time>2026-04-19T07:54:25.008Z</time></trkpt><trkpt lat="43.4622288" lon="10.6014898"><ele>444.0</ele><time>2026-04-19T07:54:26.015Z</time></trkpt><trkpt lat="43.4621922" lon="10.6016673"><ele>442.0</ele><time>2026-04-19T07:54:28.008Z</time></trkpt><trkpt lat="43.462189" lon="10.6017953"><ele>440.0</ele><time>2026-04-19T07:54:29.029Z</time></trkpt><trkpt lat="43.4621841" lon="10.6019447"><ele>438.0</ele><time>2026-04-19T07:54:30Z</time></trkpt><trkpt lat="43.462197" lon="10.6020898"><ele>436.0</ele><time>2026-04-19T07:54:31.003Z</time></trkpt><trkpt lat="43.4622104" lon="10.6022301"><ele>434.0</ele><time>2026-04-19T07:54:32.009Z</time></trkpt><trkpt lat="43.4622334" lon="10.6023398"><ele>432.49999999999994</ele><time>2026-04-19T07:54:33.001Z</time></trkpt><trkpt lat="43.4622578" lon="10.6024775"><ele>431.0</ele><time>2026-04-19T07:54:35.011Z</time></trkpt><trkpt lat="43.4623048" lon="10.6025843"><ele>429.5</ele><time>2026-04-19T07:54:37.001Z</time></trkpt><trkpt lat="43.4623808" lon="10.6026456"><ele>428.0</ele><time>2026-04-19T07:54:38.995Z</time></trkpt><trkpt lat="43.4624562" lon="10.6026929"><ele>426.49999999999994</ele><time>2026-04-19T07:54:41.006Z</time></trkpt><trkpt lat="43.4625189" lon="10.6027481"><ele>425.0</ele><time>2026-04-19T07:54:43.006Z</time></trkpt><trkpt lat="43.4625838" lon="10.6028146"><ele>425.16666666666663</ele><time>2026-04-19T07:54:45.001Z</time></trkpt><trkpt lat="43.4626627" lon="10.6029491"><ele>425.3333333333333</ele><time>2026-04-19T07:54:47.002Z</time></trkpt><trkpt lat="43.4626885" lon="10.6030401"><ele>425.5</ele><time>2026-04-19T07:54:47.997Z</time></trkpt><trkpt lat="43.4626938" lon="10.6031398"><ele>425.66666666666663</ele><time>2026-04-19T07:54:48.998Z</time></trkpt><trkpt lat="43.4626715" lon="10.6032261"><ele>425.8333333333333</ele><time>2026-04-19T07:54:49.993Z</time></trkpt><trkpt lat="43.4625933" lon="10.6033043"><ele>426.0</ele><time>2026-04-19T07:54:51.991Z</time></trkpt><trkpt lat="43.4625243" lon="10.6033717"><ele>426.0</ele><time>2026-04-19T07:54:53.994Z</time></trkpt><trkpt lat="43.4624144" lon="10.6034728"><ele>426.0</ele><time>2026-04-19T07:54:56.004Z</time></trkpt><trkpt lat="43.462358" lon="10.6035223"><ele>426.0</ele><time>2026-04-19T07:54:56.99Z</time></trkpt><trkpt lat="43.4623052" lon="10.6035817"><ele>426.0</ele><time>2026-04-19T07:54:57.996Z</time></trkpt><trkpt lat="43.4622631" lon="10.6036652"><ele>426.0</ele><time>2026-04-19T07:54:59.001Z</time></trkpt><trkpt lat="43.4622221" lon="10.6037436"><ele>426.0</ele><time>2026-04-19T07:55:00.012Z</time></trkpt><trkpt lat="43.4621972" lon="10.6038394"><ele>425.8333333333333</ele><time>2026-04-19T07:55:00.992Z</time></trkpt><trkpt lat="43.462175" lon="10.6039822"><ele>425.66666666666663</ele><time>2026-04-19T07:55:02.99Z</time></trkpt><trkpt lat="43.4621452" lon="10.6040698"><ele>425.5</ele><time>2026-04-19T07:55:06.002Z</time></trkpt><trkpt lat="43.4621226" lon="10.6041521"><ele>425.3333333333333</ele><time>2026-04-19T07:55:15.012Z</time></trkpt><trkpt lat="43.4620964" lon="10.6043044"><ele>425.16666666666663</ele><time>2026-04-19T07:55:16.999Z</time></trkpt><trkpt lat="43.4620637" lon="10.6044001"><ele>425.0</ele><time>2026-04-19T07:55:18.012Z</time></trkpt><trkpt lat="43.4620287" lon="10.6045167"><ele>425.0</ele><time>2026-04-19T07:55:19.005Z</time></trkpt><trkpt lat="43.4619889" lon="10.6046327"><ele>425.0</ele><time>2026-04-19T07:55:20Z</time></trkpt><trkpt lat="43.4619455" lon="10.604752"><ele>425.0</ele><time>2026-04-19T07:55:21.008Z</time></trkpt><trkpt lat="43.461894" lon="10.6048676"><ele>425.0</ele><time>2026-04-19T07:55:21.996Z</time></trkpt><trkpt lat="43.461844" lon="10.6049849"><ele>425.0</ele><time>2026-04-19T07:55:22.998Z</time></trkpt><trkpt lat="43.4617813" lon="10.6051063"><ele>425.0</ele><time>2026-04-19T07:55:24.019Z</time></trkpt><trkpt lat="43.4617271" lon="10.6052089"><ele>425.0</ele><time>2026-04-19T07:55:25.01Z</time></trkpt><trkpt lat="43.4617072" lon="10.6052937"><ele>425.0</ele><time>2026-04-19T07:55:26.009Z</time></trkpt><trkpt lat="43.4616849" lon="10.605434"><ele>425.0</ele><time>2026-04-19T07:55:27.999Z</time></trkpt><trkpt lat="43.4616573" lon="10.6055977"><ele>425.0</ele><time>2026-04-19T07:55:29.994Z</time></trkpt><trkpt lat="43.4616216" lon="10.6056946"><ele>428.75</ele><time>2026-04-19T07:55:31.02Z</time></trkpt><trkpt lat="43.4615623" lon="10.6058091"><ele>432.5</ele><time>2026-04-19T07:55:31.997Z</time></trkpt><trkpt lat="43.4614867" lon="10.6059326"><ele>436.25</ele><time>2026-04-19T07:55:32.995Z</time></trkpt><trkpt lat="43.4614052" lon="10.6060699"><ele>440.0</ele><time>2026-04-19T07:55:33.997Z</time></trkpt><trkpt lat="43.4613262" lon="10.6062062"><ele>436.8</ele><time>2026-04-19T07:55:35.006Z</time></trkpt><trkpt lat="43.4612606" lon="10.6063466"><ele>433.6</ele><time>2026-04-19T07:55:36.004Z</time></trkpt><trkpt lat="43.461215" lon="10.6064719"><ele>430.4</ele><time>2026-04-19T07:55:37.003Z</time></trkpt><trkpt lat="43.4611937" lon="10.6065904"><ele>427.2</ele><time>2026-04-19T07:55:37.997Z</time></trkpt><trkpt lat="43.4611872" lon="10.606713"><ele>424.0</ele><time>2026-04-19T07:55:39.001Z</time></trkpt><trkpt lat="43.4611854" lon="10.6068539"><ele>427.0</ele><time>2026-04-19T07:55:40.009Z</time></trkpt><trkpt lat="43.4611871" lon="10.6070229"><ele>430.0</ele><time>2026-04-19T07:55:40.994Z</time></trkpt><trkpt lat="43.4611809" lon="10.6071977"><ele>433.0</ele><time>2026-04-19T07:55:42.002Z</time></trkpt><trkpt lat="43.4611659" lon="10.6073882"><ele>436.0</ele><time>2026-04-19T07:55:43Z</time></trkpt><trkpt lat="43.4611596" lon="10.6075847"><ele>436.0</ele><time>2026-04-19T07:55:44.002Z</time></trkpt><trkpt lat="43.461145" lon="10.6077837"><ele>436.0</ele><time>2026-04-19T07:55:45.006Z</time></trkpt><trkpt lat="43.4611161" lon="10.6079647"><ele>436.0</ele><time>2026-04-19T07:55:45.993Z</time></trkpt><trkpt lat="43.4610795" lon="10.6081266"><ele>436.0</ele><time>2026-04-19T07:55:46.994Z</time></trkpt><trkpt lat="43.4610225" lon="10.6082522"><ele>437.8</ele><time>2026-04-19T07:55:47.997Z</time></trkpt><trkpt lat="43.4609518" lon="10.6083581"><ele>439.6</ele><time>2026-04-19T07:55:48.996Z</time></trkpt><trkpt lat="43.4608703" lon="10.6084233"><ele>441.4</ele><time>2026-04-19T07:55:49.999Z</time></trkpt><trkpt lat="43.4607785" lon="10.6084469"><ele>443.2</ele><time>2026-04-19T07:55:50.992Z</time></trkpt><trkpt lat="43.4606894" lon="10.6084243"><ele>445.0</ele><time>2026-04-19T07:55:51.999Z</time></trkpt><trkpt lat="43.4606027" lon="10.6083565"><ele>445.0</ele><time>2026-04-19T07:55:52.998Z</time></trkpt><trkpt lat="43.4605245" lon="10.6082836"><ele>445.0</ele><time>2026-04-19T07:55:53.999Z</time></trkpt><trkpt lat="43.460435" lon="10.6082034"><ele>445.0</ele><time>2026-04-19T07:55:54.995Z</time></trkpt><trkpt lat="43.4603585" lon="10.6081549"><ele>445.0</ele><time>2026-04-19T07:55:56.012Z</time></trkpt><trkpt lat="43.4602762" lon="10.6081558"><ele>445.0</ele><time>2026-04-19T07:55:57.006Z</time></trkpt><trkpt lat="43.460195" lon="10.6082066"><ele>444.75</ele><time>2026-04-19T07:55:58Z</time></trkpt><trkpt lat="43.4601388" lon="10.6083061"><ele>444.5</ele><time>2026-04-19T07:55:59.002Z</time></trkpt><trkpt lat="43.4600799" lon="10.6084466"><ele>444.25</ele><time>2026-04-19T07:56:00.006Z</time></trkpt><trkpt lat="43.4600385" lon="10.6086075"><ele>444.0</ele><time>2026-04-19T07:56:01.002Z</time></trkpt><trkpt lat="43.4600182" lon="10.6087875"><ele>444.0</ele><time>2026-04-19T07:56:02.003Z</time></trkpt><trkpt lat="43.4599947" lon="10.6089647"><ele>444.0</ele><time>2026-04-19T07:56:02.998Z</time></trkpt><trkpt lat="43.4599471" lon="10.6091089"><ele>444.0</ele><time>2026-04-19T07:56:04.001Z</time></trkpt><trkpt lat="43.4598918" lon="10.6092609"><ele>444.0</ele><time>2026-04-19T07:56:05.016Z</time></trkpt><trkpt lat="43.4598405" lon="10.6093782"><ele>442.2</ele><time>2026-04-19T07:56:05.996Z</time></trkpt><trkpt lat="43.459783" lon="10.6094941"><ele>440.4</ele><time>2026-04-19T07:56:07.023Z</time></trkpt><trkpt lat="43.4597258" lon="10.6096228"><ele>438.6</ele><time>2026-04-19T07:56:08.01Z</time></trkpt><trkpt lat="43.4596584" lon="10.6097548"><ele>436.8</ele><time>2026-04-19T07:56:08.999Z</time></trkpt><trkpt lat="43.459595" lon="10.6098948"><ele>435.0</ele><time>2026-04-19T07:56:10.008Z</time></trkpt><trkpt lat="43.4595275" lon="10.6100524"><ele>435.0</ele><time>2026-04-19T07:56:11Z</time></trkpt><trkpt lat="43.4594461" lon="10.6101994"><ele>435.0</ele><time>2026-04-19T07:56:12.012Z</time></trkpt><trkpt lat="43.4593638" lon="10.6103397"><ele>435.0</ele><time>2026-04-19T07:56:12.999Z</time></trkpt><trkpt lat="43.4592874" lon="10.6104775"><ele>435.0</ele><time>2026-04-19T07:56:14.002Z</time></trkpt><trkpt lat="43.4592127" lon="10.6106247"><ele>437.5</ele><time>2026-04-19T07:56:15.007Z</time></trkpt><trkpt lat="43.459126" lon="10.6107747"><ele>440.0</ele><time>2026-04-19T07:56:16.012Z</time></trkpt><trkpt lat="43.4590322" lon="10.6109037"><ele>442.5</ele><time>2026-04-19T07:56:17.01Z</time></trkpt><trkpt lat="43.4589165" lon="10.611029"><ele>445.0</ele><time>2026-04-19T07:56:18.008Z</time></trkpt><trkpt lat="43.4587942" lon="10.6111455"><ele>443.0</ele><time>2026-04-19T07:56:19.009Z</time></trkpt><trkpt lat="43.4586795" lon="10.6112745"><ele>441.0</ele><time>2026-04-19T07:56:20.015Z</time></trkpt><trkpt lat="43.4585961" lon="10.611395"><ele>439.0</ele><time>2026-04-19T07:56:21.003Z</time></trkpt><trkpt lat="43.4585183" lon="10.6115101"><ele>437.0</ele><time>2026-04-19T07:56:22.01Z</time></trkpt><trkpt lat="43.4584681" lon="10.6116016"><ele>436.99999999999994</ele><time>2026-04-19T07:56:23.005Z</time></trkpt><trkpt lat="43.4584055" lon="10.6116519"><ele>437.0</ele><time>2026-04-19T07:56:24.004Z</time></trkpt><trkpt lat="43.458321" lon="10.6116897"><ele>437.0</ele><time>2026-04-19T07:56:25.012Z</time></trkpt><trkpt lat="43.458242" lon="10.6117393"><ele>437.0</ele><time>2026-04-19T07:56:26.01Z</time></trkpt><trkpt lat="43.4581949" lon="10.6118486"><ele>436.99999999999994</ele><time>2026-04-19T07:56:27.002Z</time></trkpt><trkpt lat="43.4581723" lon="10.6119845"><ele>437.0</ele><time>2026-04-19T07:56:28.011Z</time></trkpt><trkpt lat="43.4581709" lon="10.6121564"><ele>440.66666666666663</ele><time>2026-04-19T07:56:29.006Z</time></trkpt><trkpt lat="43.4581517" lon="10.6123765"><ele>444.33333333333337</ele><time>2026-04-19T07:56:30.011Z</time></trkpt><trkpt lat="43.4581153" lon="10.6125961"><ele>448.0</ele><time>2026-04-19T07:56:30.999Z</time></trkpt><trkpt lat="43.4580821" lon="10.6127858"><ele>451.59999999999997</ele><time>2026-04-19T07:56:32.016Z</time></trkpt><trkpt lat="43.4580278" lon="10.6129209"><ele>455.19999999999993</ele><time>2026-04-19T07:56:33.008Z</time></trkpt><trkpt lat="43.4579671" lon="10.6129828"><ele>458.8</ele><time>2026-04-19T07:56:33.997Z</time></trkpt><trkpt lat="43.4578733" lon="10.6130213"><ele>462.4</ele><time>2026-04-19T07:56:34.999Z</time></trkpt><trkpt lat="43.4577703" lon="10.6130563"><ele>466.0</ele><time>2026-04-19T07:56:36.011Z</time></trkpt><trkpt lat="43.4576935" lon="10.6131153"><ele>460.20000000000005</ele><time>2026-04-19T07:56:37.002Z</time></trkpt><trkpt lat="43.4576285" lon="10.6132153"><ele>454.40000000000003</ele><time>2026-04-19T07:56:38.014Z</time></trkpt><trkpt lat="43.4575717" lon="10.6133339"><ele>448.6</ele><time>2026-04-19T07:56:38.999Z</time></trkpt><trkpt lat="43.4575246" lon="10.6134685"><ele>442.8</ele><time>2026-04-19T07:56:40.005Z</time></trkpt><trkpt lat="43.4574876" lon="10.6136088"><ele>437.0</ele><time>2026-04-19T07:56:41.013Z</time></trkpt><trkpt lat="43.4574691" lon="10.6137778"><ele>437.0</ele><time>2026-04-19T07:56:42.016Z</time></trkpt><trkpt lat="43.4574622" lon="10.6139533"><ele>437.0</ele><time>2026-04-19T07:56:43.004Z</time></trkpt><trkpt lat="43.4574459" lon="10.6141354"><ele>437.0</ele><time>2026-04-19T07:56:44.006Z</time></trkpt><trkpt lat="43.4574448" lon="10.6143086"><ele>437.0</ele><time>2026-04-19T07:56:44.997Z</time></trkpt><trkpt lat="43.4574595" lon="10.6144716"><ele>436.8</ele><time>2026-04-19T07:56:46.023Z</time></trkpt><trkpt lat="43.4574807" lon="10.6146197"><ele>436.6</ele><time>2026-04-19T07:56:47.005Z</time></trkpt><trkpt lat="43.4575056" lon="10.614749"><ele>436.40000000000003</ele><time>2026-04-19T07:56:48.003Z</time></trkpt><trkpt lat="43.4575451" lon="10.6148718"><ele>436.20000000000005</ele><time>2026-04-19T07:56:49.007Z</time></trkpt><trkpt lat="43.4575797" lon="10.6150026"><ele>436.0</ele><time>2026-04-19T07:56:50.02Z</time></trkpt><trkpt lat="43.4575912" lon="10.6151397"><ele>436.0</ele><time>2026-04-19T07:56:51.008Z</time></trkpt><trkpt lat="43.4575849" lon="10.615273"><ele>436.0</ele><time>2026-04-19T07:56:52.013Z</time></trkpt><trkpt lat="43.4575962" lon="10.6154106"><ele>436.0</ele><time>2026-04-19T07:56:53.012Z</time></trkpt><trkpt lat="43.4576274" lon="10.6155284"><ele>436.0</ele><time>2026-04-19T07:56:54.006Z</time></trkpt><trkpt lat="43.4576667" lon="10.6156403"><ele>436.0</ele><time>2026-04-19T07:56:55.004Z</time></trkpt><trkpt lat="43.4577224" lon="10.6157682"><ele>434.75</ele><time>2026-04-19T07:56:55.995Z</time></trkpt><trkpt lat="43.4577943" lon="10.6159147"><ele>433.5</ele><time>2026-04-19T07:56:57.002Z</time></trkpt><trkpt lat="43.4578685" lon="10.6160702"><ele>432.25</ele><time>2026-04-19T07:56:58.008Z</time></trkpt><trkpt lat="43.4579159" lon="10.6162062"><ele>431.0</ele><time>2026-04-19T07:56:58.999Z</time></trkpt><trkpt lat="43.4579448" lon="10.6163412"><ele>430.20000000000005</ele><time>2026-04-19T07:57:00.009Z</time></trkpt><trkpt lat="43.4579698" lon="10.6164636"><ele>429.40000000000003</ele><time>2026-04-19T07:57:01.006Z</time></trkpt><trkpt lat="43.4579633" lon="10.6165835"><ele>428.6</ele><time>2026-04-19T07:57:02.011Z</time></trkpt><trkpt lat="43.4579394" lon="10.6167176"><ele>427.8</ele><time>2026-04-19T07:57:03.001Z</time></trkpt><trkpt lat="43.4579279" lon="10.6168919"><ele>427.0</ele><time>2026-04-19T07:57:04.005Z</time></trkpt><trkpt lat="43.4579207" lon="10.6171041"><ele>427.0</ele><time>2026-04-19T07:57:04.995Z</time></trkpt><trkpt lat="43.4579268" lon="10.6173428"><ele>427.0</ele><time>2026-04-19T07:57:06.006Z</time></trkpt><trkpt lat="43.4579229" lon="10.617538"><ele>427.0</ele><time>2026-04-19T07:57:07.01Z</time></trkpt><trkpt lat="43.4579312" lon="10.6177098"><ele>427.0</ele><time>2026-04-19T07:57:08Z</time></trkpt><trkpt lat="43.457944" lon="10.6178729"><ele>433.5</ele><time>2026-04-19T07:57:09.013Z</time></trkpt><trkpt lat="43.4579802" lon="10.6180515"><ele>440.0</ele><time>2026-04-19T07:57:09.998Z</time></trkpt><trkpt lat="43.4580402" lon="10.6182389"><ele>446.5</ele><time>2026-04-19T07:57:11.004Z</time></trkpt><trkpt lat="43.458104" lon="10.6184361"><ele>453.0</ele><time>2026-04-19T07:57:12.012Z</time></trkpt><trkpt lat="43.4581759" lon="10.6185905"><ele>451.59999999999997</ele><time>2026-04-19T07:57:13.002Z</time></trkpt><trkpt lat="43.4582402" lon="10.6187222"><ele>450.19999999999993</ele><time>2026-04-19T07:57:14.007Z</time></trkpt><trkpt lat="43.4582988" lon="10.6188397"><ele>448.8</ele><time>2026-04-19T07:57:15.01Z</time></trkpt><trkpt lat="43.4583388" lon="10.6189604"><ele>447.4</ele><time>2026-04-19T07:57:16.013Z</time></trkpt><trkpt lat="43.4583487" lon="10.619089"><ele>446.0</ele><time>2026-04-19T07:57:17.008Z</time></trkpt><trkpt lat="43.4583389" lon="10.619265"><ele>446.0</ele><time>2026-04-19T07:57:18.011Z</time></trkpt><trkpt lat="43.4583324" lon="10.6194657"><ele>446.0</ele><time>2026-04-19T07:57:19.007Z</time></trkpt><trkpt lat="43.4583175" lon="10.6196368"><ele>446.0</ele><time>2026-04-19T07:57:20.026Z</time></trkpt><trkpt lat="43.4582935" lon="10.619794"><ele>446.0</ele><time>2026-04-19T07:57:21.003Z</time></trkpt><trkpt lat="43.4582617" lon="10.6199407"><ele>446.0</ele><time>2026-04-19T07:57:22.005Z</time></trkpt><trkpt lat="43.4582304" lon="10.6200766"><ele>446.0</ele><time>2026-04-19T07:57:23.011Z</time></trkpt><trkpt lat="43.4582081" lon="10.6202148"><ele>446.0</ele><time>2026-04-19T07:57:24.003Z</time></trkpt><trkpt lat="43.4581844" lon="10.6203458"><ele>446.0</ele><time>2026-04-19T07:57:25.004Z</time></trkpt><trkpt lat="43.4581742" lon="10.6204714"><ele>446.0</ele><time>2026-04-19T07:57:26.009Z</time></trkpt><trkpt lat="43.4581805" lon="10.6206026"><ele>446.0</ele><time>2026-04-19T07:57:27.002Z</time></trkpt><trkpt lat="43.4582051" lon="10.6207456"><ele>446.0</ele><time>2026-04-19T07:57:28.041Z</time></trkpt><trkpt lat="43.4582271" lon="10.6209008"><ele>446.0</ele><time>2026-04-19T07:57:29.011Z</time></trkpt><trkpt lat="43.458256" lon="10.6210558"><ele>446.0</ele><time>2026-04-19T07:57:30.005Z</time></trkpt><trkpt lat="43.4582854" lon="10.6211871"><ele>446.0</ele><time>2026-04-19T07:57:31.013Z</time></trkpt><trkpt lat="43.4583361" lon="10.6213001"><ele>443.4</ele><time>2026-04-19T07:57:32.001Z</time></trkpt><trkpt lat="43.4583838" lon="10.6214134"><ele>440.8</ele><time>2026-04-19T07:57:33.006Z</time></trkpt><trkpt lat="43.458446" lon="10.6215224"><ele>438.19999999999993</ele><time>2026-04-19T07:57:34.02Z</time></trkpt><trkpt lat="43.458509" lon="10.6216322"><ele>435.59999999999997</ele><time>2026-04-19T07:57:35.006Z</time></trkpt><trkpt lat="43.4585762" lon="10.6217433"><ele>433.0</ele><time>2026-04-19T07:57:36.005Z</time></trkpt><trkpt lat="43.4586458" lon="10.6218494"><ele>433.0</ele><time>2026-04-19T07:57:37.005Z</time></trkpt><trkpt lat="43.458722" lon="10.6219523"><ele>432.99999999999994</ele><time>2026-04-19T07:57:38.017Z</time></trkpt><trkpt lat="43.4587899" lon="10.6220598"><ele>432.99999999999994</ele><time>2026-04-19T07:57:39.009Z</time></trkpt><trkpt lat="43.4588584" lon="10.6221664"><ele>433.0</ele><time>2026-04-19T07:57:40.015Z</time></trkpt><trkpt lat="43.458916" lon="10.6222497"><ele>433.0</ele><time>2026-04-19T07:57:41.017Z</time></trkpt><trkpt lat="43.4589844" lon="10.6222989"><ele>435.0</ele><time>2026-04-19T07:57:42.011Z</time></trkpt><trkpt lat="43.4590712" lon="10.6223267"><ele>436.99999999999994</ele><time>2026-04-19T07:57:43Z</time></trkpt><trkpt lat="43.4591811" lon="10.6223325"><ele>438.99999999999994</ele><time>2026-04-19T07:57:44.008Z</time></trkpt><trkpt lat="43.4592938" lon="10.6223329"><ele>441.0</ele><time>2026-04-19T07:57:45.006Z</time></trkpt><trkpt lat="43.4594024" lon="10.6223419"><ele>443.0</ele><time>2026-04-19T07:57:46.006Z</time></trkpt><trkpt lat="43.4594817" lon="10.6223555"><ele>442.99999999999994</ele><time>2026-04-19T07:57:47.001Z</time></trkpt><trkpt lat="43.4595466" lon="10.6223529"><ele>443.0</ele><time>2026-04-19T07:57:48.011Z</time></trkpt><trkpt lat="43.4596125" lon="10.6223197"><ele>443.0</ele><time>2026-04-19T07:57:49.007Z</time></trkpt><trkpt lat="43.4596819" lon="10.6222702"><ele>443.0</ele><time>2026-04-19T07:57:50.003Z</time></trkpt><trkpt lat="43.4597439" lon="10.6221981"><ele>442.99999999999994</ele><time>2026-04-19T07:57:50.998Z</time></trkpt><trkpt lat="43.4597962" lon="10.6220916"><ele>443.0</ele><time>2026-04-19T07:57:52.042Z</time></trkpt><trkpt lat="43.4598392" lon="10.6219817"><ele>445.79999999999995</ele><time>2026-04-19T07:57:53.002Z</time></trkpt><trkpt lat="43.459876" lon="10.6218577"><ele>448.59999999999997</ele><time>2026-04-19T07:57:53.991Z</time></trkpt><trkpt lat="43.4599146" lon="10.6217301"><ele>451.40000000000003</ele><time>2026-04-19T07:57:55.015Z</time></trkpt><trkpt lat="43.4599648" lon="10.6216018"><ele>454.20000000000005</ele><time>2026-04-19T07:57:56.014Z</time></trkpt><trkpt lat="43.4600176" lon="10.6214655"><ele>457.0</ele><time>2026-04-19T07:57:56.994Z</time></trkpt><trkpt lat="43.4600738" lon="10.6213241"><ele>457.0</ele><time>2026-04-19T07:57:57.998Z</time></trkpt><trkpt lat="43.4601262" lon="10.6211847"><ele>457.0</ele><time>2026-04-19T07:57:58.998Z</time></trkpt><trkpt lat="43.4601775" lon="10.6210428"><ele>457.0</ele><time>2026-04-19T07:58:00.003Z</time></trkpt><trkpt lat="43.4602251" lon="10.6208668"><ele>457.0</ele><time>2026-04-19T07:58:01.004Z</time></trkpt><trkpt lat="43.4602731" lon="10.6206814"><ele>453.75</ele><time>2026-04-19T07:58:02.006Z</time></trkpt><trkpt lat="43.4603217" lon="10.620494"><ele>450.5</ele><time>2026-04-19T07:58:03Z</time></trkpt><trkpt lat="43.460372" lon="10.620313"><ele>447.25</ele><time>2026-04-19T07:58:04.002Z</time></trkpt><trkpt lat="43.4604301" lon="10.6201541"><ele>444.0</ele><time>2026-04-19T07:58:05.009Z</time></trkpt><trkpt lat="43.4604597" lon="10.6200135"><ele>444.0</ele><time>2026-04-19T07:58:06.02Z</time></trkpt><trkpt lat="43.4604841" lon="10.6198824"><ele>444.0</ele><time>2026-04-19T07:58:07.002Z</time></trkpt><trkpt lat="43.460511" lon="10.6197327"><ele>444.0</ele><time>2026-04-19T07:58:08.011Z</time></trkpt><trkpt lat="43.4605267" lon="10.6196025"><ele>444.0</ele><time>2026-04-19T07:58:09.01Z</time></trkpt><trkpt lat="43.4605382" lon="10.6194974"><ele>444.0</ele><time>2026-04-19T07:58:10Z</time></trkpt><trkpt lat="43.4605549" lon="10.6194048"><ele>448.4</ele><time>2026-04-19T07:58:10.995Z</time></trkpt><trkpt lat="43.4606109" lon="10.6193153"><ele>452.79999999999995</ele><time>2026-04-19T07:58:11.999Z</time></trkpt><trkpt lat="43.4606777" lon="10.6192178"><ele>457.20000000000005</ele><time>2026-04-19T07:58:12.996Z</time></trkpt><trkpt lat="43.4607566" lon="10.6191181"><ele>461.6</ele><time>2026-04-19T07:58:13.999Z</time></trkpt><trkpt lat="43.4608354" lon="10.6189897"><ele>466.0</ele><time>2026-04-19T07:58:15.009Z</time></trkpt><trkpt lat="43.4609186" lon="10.6188489"><ele>466.0</ele><time>2026-04-19T07:58:16.015Z</time></trkpt><trkpt lat="43.4609898" lon="10.6187028"><ele>466.0</ele><time>2026-04-19T07:58:16.999Z</time></trkpt><trkpt lat="43.4610512" lon="10.6185707"><ele>466.0</ele><time>2026-04-19T07:58:17.996Z</time></trkpt><trkpt lat="43.4610967" lon="10.6184437"><ele>466.0</ele><time>2026-04-19T07:58:19Z</time></trkpt><trkpt lat="43.4611317" lon="10.618317"><ele>466.0</ele><time>2026-04-19T07:58:19.998Z</time></trkpt><trkpt lat="43.4611491" lon="10.6181957"><ele>468.6666666666667</ele><time>2026-04-19T07:58:21.008Z</time></trkpt><trkpt lat="43.4611376" lon="10.6180822"><ele>471.33333333333337</ele><time>2026-04-19T07:58:22.003Z</time></trkpt><trkpt lat="43.4611206" lon="10.6179911"><ele>474.0</ele><time>2026-04-19T07:58:23Z</time></trkpt><trkpt lat="43.4611049" lon="10.6178867"><ele>476.66666666666663</ele><time>2026-04-19T07:58:24.01Z</time></trkpt><trkpt lat="43.4610974" lon="10.6177898"><ele>479.3333333333333</ele><time>2026-04-19T07:58:25Z</time></trkpt><trkpt lat="43.4611303" lon="10.6176563"><ele>482.0</ele><time>2026-04-19T07:58:27.012Z</time></trkpt><trkpt lat="43.4612219" lon="10.6175342"><ele>483.16666666666663</ele><time>2026-04-19T07:58:28.996Z</time></trkpt><trkpt lat="43.4612748" lon="10.6174587"><ele>484.3333333333333</ele><time>2026-04-19T07:58:30.027Z</time></trkpt><trkpt lat="43.4613361" lon="10.6173727"><ele>485.5</ele><time>2026-04-19T07:58:31.008Z</time></trkpt><trkpt lat="43.461406" lon="10.6172916"><ele>486.66666666666663</ele><time>2026-04-19T07:58:31.999Z</time></trkpt><trkpt lat="43.4614787" lon="10.6172189"><ele>487.8333333333333</ele><time>2026-04-19T07:58:33.001Z</time></trkpt><trkpt lat="43.4615401" lon="10.6171332"><ele>489.0</ele><time>2026-04-19T07:58:33.993Z</time></trkpt><trkpt lat="43.4615942" lon="10.6170387"><ele>485.8333333333333</ele><time>2026-04-19T07:58:35.026Z</time></trkpt><trkpt lat="43.4616373" lon="10.6169314"><ele>482.66666666666663</ele><time>2026-04-19T07:58:35.999Z</time></trkpt><trkpt lat="43.4616639" lon="10.6168363"><ele>479.5</ele><time>2026-04-19T07:58:37.002Z</time></trkpt><trkpt lat="43.4616828" lon="10.6167439"><ele>476.3333333333333</ele><time>2026-04-19T07:58:38Z</time></trkpt><trkpt lat="43.4617268" lon="10.6166331"><ele>473.16666666666663</ele><time>2026-04-19T07:58:40.005Z</time></trkpt><trkpt lat="43.4617468" lon="10.6165504"><ele>470.0</ele><time>2026-04-19T08:09:16.997Z</time></trkpt><trkpt lat="43.4617927" lon="10.6164726"><ele>470.0</ele><time>2026-04-19T08:09:20.014Z</time></trkpt><trkpt lat="43.4618368" lon="10.6163622"><ele>470.0</ele><time>2026-04-19T08:09:22.013Z</time></trkpt><trkpt lat="43.4619087" lon="10.6162319"><ele>470.0</ele><time>2026-04-19T08:09:24.01Z</time></trkpt><trkpt lat="43.4619988" lon="10.6161243"><ele>470.0</ele><time>2026-04-19T08:09:25.994Z</time></trkpt><trkpt lat="43.4620708" lon="10.6160928"><ele>470.0</ele><time>2026-04-19T08:09:27.002Z</time></trkpt><trkpt lat="43.4621343" lon="10.6160928"><ele>468.6</ele><time>2026-04-19T08:09:28.01Z</time></trkpt><trkpt lat="43.4621964" lon="10.6161223"><ele>467.2</ele><time>2026-04-19T08:09:29.022Z</time></trkpt><trkpt lat="43.4622662" lon="10.6162107"><ele>465.79999999999995</ele><time>2026-04-19T08:09:30.003Z</time></trkpt><trkpt lat="43.4623449" lon="10.6163321"><ele>464.4</ele><time>2026-04-19T08:09:31Z</time></trkpt><trkpt lat="43.4624217" lon="10.6164659"><ele>463.0</ele><time>2026-04-19T08:09:32.011Z</time></trkpt><trkpt lat="43.4624979" lon="10.6166157"><ele>463.0</ele><time>2026-04-19T08:09:32.995Z</time></trkpt><trkpt lat="43.4625722" lon="10.6167439"><ele>462.99999999999994</ele><time>2026-04-19T08:09:34.005Z</time></trkpt><trkpt lat="43.4626484" lon="10.6168377"><ele>462.99999999999994</ele><time>2026-04-19T08:09:35.003Z</time></trkpt><trkpt lat="43.4627297" lon="10.6168973"><ele>463.0</ele><time>2026-04-19T08:09:36.003Z</time></trkpt><trkpt lat="43.4628069" lon="10.6169354"><ele>463.0</ele><time>2026-04-19T08:09:36.995Z</time></trkpt><trkpt lat="43.4628982" lon="10.6169257"><ele>462.75</ele><time>2026-04-19T08:09:38.004Z</time></trkpt><trkpt lat="43.4629996" lon="10.6168674"><ele>462.5</ele><time>2026-04-19T08:09:39.003Z</time></trkpt><trkpt lat="43.4631037" lon="10.6167672"><ele>462.25</ele><time>2026-04-19T08:09:40.002Z</time></trkpt><trkpt lat="43.4631902" lon="10.6166598"><ele>462.0</ele><time>2026-04-19T08:09:41.002Z</time></trkpt><trkpt lat="43.4632523" lon="10.6165517"><ele>462.0</ele><time>2026-04-19T08:09:42.006Z</time></trkpt><trkpt lat="43.4632921" lon="10.616413"><ele>462.0</ele><time>2026-04-19T08:09:43.006Z</time></trkpt><trkpt lat="43.4633037" lon="10.6162656"><ele>462.0</ele><time>2026-04-19T08:09:44.01Z</time></trkpt><trkpt lat="43.4632912" lon="10.6161029"><ele>462.0</ele><time>2026-04-19T08:09:44.997Z</time></trkpt><trkpt lat="43.4632726" lon="10.6159176"><ele>464.75</ele><time>2026-04-19T08:09:46Z</time></trkpt><trkpt lat="43.4632433" lon="10.6157203"><ele>467.5</ele><time>2026-04-19T08:09:47.002Z</time></trkpt><trkpt lat="43.4632287" lon="10.6155347"><ele>470.25</ele><time>2026-04-19T08:09:48.004Z</time></trkpt><trkpt lat="43.463227" lon="10.6153803"><ele>473.0</ele><time>2026-04-19T08:09:49Z</time></trkpt><trkpt lat="43.4632309" lon="10.6152856"><ele>473.0</ele><time>2026-04-19T08:09:49.999Z</time></trkpt><trkpt lat="43.4632782" lon="10.6151382"><ele>472.99999999999994</ele><time>2026-04-19T08:09:52.006Z</time></trkpt><trkpt lat="43.4633522" lon="10.615122"><ele>472.99999999999994</ele><time>2026-04-19T08:09:54.005Z</time></trkpt><trkpt lat="43.4633998" lon="10.6152209"><ele>473.0</ele><time>2026-04-19T08:09:55.002Z</time></trkpt><trkpt lat="43.4634635" lon="10.6153612"><ele>473.0</ele><time>2026-04-19T08:09:55.997Z</time></trkpt><trkpt lat="43.4635364" lon="10.6155264"><ele>473.0</ele><time>2026-04-19T08:09:57.007Z</time></trkpt><trkpt lat="43.4636183" lon="10.6156794"><ele>473.0</ele><time>2026-04-19T08:09:57.996Z</time></trkpt><trkpt lat="43.4637112" lon="10.6158131"><ele>473.0</ele><time>2026-04-19T08:09:59.017Z</time></trkpt><trkpt lat="43.4638012" lon="10.6159531"><ele>473.0</ele><time>2026-04-19T08:10:00.008Z</time></trkpt><trkpt lat="43.463894" lon="10.6160997"><ele>469.0</ele><time>2026-04-19T08:10:01.005Z</time></trkpt><trkpt lat="43.4639717" lon="10.6162623"><ele>465.0</ele><time>2026-04-19T08:10:02.001Z</time></trkpt><trkpt lat="43.4640194" lon="10.6164214"><ele>461.0</ele><time>2026-04-19T08:10:03.004Z</time></trkpt><trkpt lat="43.464054" lon="10.6165802"><ele>457.0</ele><time>2026-04-19T08:10:04.007Z</time></trkpt><trkpt lat="43.4640838" lon="10.6167067"><ele>457.0</ele><time>2026-04-19T08:10:05.016Z</time></trkpt><trkpt lat="43.4641333" lon="10.6167807"><ele>457.00000000000006</ele><time>2026-04-19T08:10:07.004Z</time></trkpt><trkpt lat="43.4642195" lon="10.6167105"><ele>457.00000000000006</ele><time>2026-04-19T08:10:10.011Z</time></trkpt><trkpt lat="43.4643014" lon="10.6165641"><ele>457.0</ele><time>2026-04-19T08:10:12.005Z</time></trkpt><trkpt lat="43.4643431" lon="10.6164683"><ele>457.0</ele><time>2026-04-19T08:10:13.001Z</time></trkpt><trkpt lat="43.4643652" lon="10.6163681"><ele>457.0</ele><time>2026-04-19T08:10:14.013Z</time></trkpt><trkpt lat="43.4643874" lon="10.6162668"><ele>457.00000000000006</ele><time>2026-04-19T08:10:15.017Z</time></trkpt><trkpt lat="43.4644152" lon="10.6161617"><ele>457.00000000000006</ele><time>2026-04-19T08:10:16.007Z</time></trkpt><trkpt lat="43.4644687" lon="10.616064"><ele>457.0</ele><time>2026-04-19T08:10:17.024Z</time></trkpt><trkpt lat="43.4645453" lon="10.6159667"><ele>457.0</ele><time>2026-04-19T08:10:18.004Z</time></trkpt><trkpt lat="43.4646234" lon="10.6158654"><ele>459.0</ele><time>2026-04-19T08:10:19.006Z</time></trkpt><trkpt lat="43.4646918" lon="10.6157525"><ele>461.00000000000006</ele><time>2026-04-19T08:10:20.005Z</time></trkpt><trkpt lat="43.464754" lon="10.6156245"><ele>463.00000000000006</ele><time>2026-04-19T08:10:21.006Z</time></trkpt><trkpt lat="43.4648168" lon="10.6155173"><ele>465.0</ele><time>2026-04-19T08:10:22.001Z</time></trkpt><trkpt lat="43.4648733" lon="10.615404"><ele>467.0</ele><time>2026-04-19T08:10:23Z</time></trkpt><trkpt lat="43.4649203" lon="10.615294"><ele>467.0</ele><time>2026-04-19T08:10:24.015Z</time></trkpt><trkpt lat="43.4649653" lon="10.6151915"><ele>467.00000000000006</ele><time>2026-04-19T08:10:24.997Z</time></trkpt><trkpt lat="43.4650178" lon="10.6150832"><ele>467.00000000000006</ele><time>2026-04-19T08:10:26.017Z</time></trkpt><trkpt lat="43.4650783" lon="10.6149934"><ele>467.0</ele><time>2026-04-19T08:10:27.004Z</time></trkpt><trkpt lat="43.4651484" lon="10.6148899"><ele>467.0</ele><time>2026-04-19T08:10:28.004Z</time></trkpt><trkpt lat="43.4652031" lon="10.6147867"><ele>466.99999999999994</ele><time>2026-04-19T08:10:29.022Z</time></trkpt><trkpt lat="43.4652549" lon="10.6147028"><ele>467.0</ele><time>2026-04-19T08:10:30.004Z</time></trkpt><trkpt lat="43.4653079" lon="10.6146159"><ele>467.0</ele><time>2026-04-19T08:10:31.005Z</time></trkpt><trkpt lat="43.4653633" lon="10.6145235"><ele>467.0</ele><time>2026-04-19T08:10:32.004Z</time></trkpt><trkpt lat="43.4654156" lon="10.6144249"><ele>466.99999999999994</ele><time>2026-04-19T08:10:32.998Z</time></trkpt><trkpt lat="43.4654649" lon="10.6143361"><ele>467.0</ele><time>2026-04-19T08:10:34.019Z</time></trkpt><trkpt lat="43.4655272" lon="10.6142463"><ele>463.8</ele><time>2026-04-19T08:10:34.999Z</time></trkpt><trkpt lat="43.4655987" lon="10.6141529"><ele>460.6</ele><time>2026-04-19T08:10:36.001Z</time></trkpt><trkpt lat="43.4656651" lon="10.6140463"><ele>457.40000000000003</ele><time>2026-04-19T08:10:37.013Z</time></trkpt><trkpt lat="43.4657329" lon="10.6139549"><ele>454.20000000000005</ele><time>2026-04-19T08:10:38.008Z</time></trkpt><trkpt lat="43.4658015" lon="10.6138586"><ele>451.0</ele><time>2026-04-19T08:10:39.001Z</time></trkpt><trkpt lat="43.4658522" lon="10.6137628"><ele>451.00000000000006</ele><time>2026-04-19T08:10:40.003Z</time></trkpt><trkpt lat="43.4659059" lon="10.6136687"><ele>451.0</ele><time>2026-04-19T08:10:40.998Z</time></trkpt><trkpt lat="43.4659548" lon="10.6135893"><ele>451.0</ele><time>2026-04-19T08:10:42.002Z</time></trkpt><trkpt lat="43.4659989" lon="10.6135204"><ele>451.0</ele><time>2026-04-19T08:10:42.998Z</time></trkpt><trkpt lat="43.4660523" lon="10.6134579"><ele>451.00000000000006</ele><time>2026-04-19T08:10:44.003Z</time></trkpt><trkpt lat="43.466168" lon="10.6134303"><ele>451.0</ele><time>2026-04-19T08:10:45.999Z</time></trkpt><trkpt lat="43.4662211" lon="10.6134982"><ele>451.00000000000006</ele><time>2026-04-19T08:10:46.996Z</time></trkpt><trkpt lat="43.4662506" lon="10.6135818"><ele>451.0</ele><time>2026-04-19T08:10:48.008Z</time></trkpt><trkpt lat="43.4662543" lon="10.6136806"><ele>451.0</ele><time>2026-04-19T08:10:49Z</time></trkpt><trkpt lat="43.4662345" lon="10.6137775"><ele>451.0</ele><time>2026-04-19T08:10:49.995Z</time></trkpt><trkpt lat="43.466195" lon="10.6138773"><ele>451.00000000000006</ele><time>2026-04-19T08:10:51.004Z</time></trkpt><trkpt lat="43.4661401" lon="10.6139872"><ele>451.0</ele><time>2026-04-19T08:10:51.99Z</time></trkpt><trkpt lat="43.4660758" lon="10.6140988"><ele>451.0</ele><time>2026-04-19T08:10:52.999Z</time></trkpt><trkpt lat="43.4660108" lon="10.6142185"><ele>451.0</ele><time>2026-04-19T08:10:53.999Z</time></trkpt><trkpt lat="43.4659561" lon="10.614345"><ele>451.0</ele><time>2026-04-19T08:10:55.014Z</time></trkpt><trkpt lat="43.4658899" lon="10.6144725"><ele>451.0</ele><time>2026-04-19T08:10:56.002Z</time></trkpt><trkpt lat="43.4658349" lon="10.6146044"><ele>451.0</ele><time>2026-04-19T08:10:56.996Z</time></trkpt><trkpt lat="43.4657891" lon="10.6147261"><ele>449.20000000000005</ele><time>2026-04-19T08:10:58.004Z</time></trkpt><trkpt lat="43.4657684" lon="10.6148474"><ele>447.40000000000003</ele><time>2026-04-19T08:10:58.999Z</time></trkpt><trkpt lat="43.4657653" lon="10.6149891"><ele>445.6</ele><time>2026-04-19T08:11:00.012Z</time></trkpt><trkpt lat="43.4657699" lon="10.6151348"><ele>443.8</ele><time>2026-04-19T08:11:01.016Z</time></trkpt><trkpt lat="43.4657574" lon="10.6152626"><ele>442.0</ele><time>2026-04-19T08:11:02.019Z</time></trkpt><trkpt lat="43.4657155" lon="10.6153909"><ele>441.8</ele><time>2026-04-19T08:11:02.995Z</time></trkpt><trkpt lat="43.4656483" lon="10.6154968"><ele>441.6</ele><time>2026-04-19T08:11:04.012Z</time></trkpt><trkpt lat="43.4655908" lon="10.6155989"><ele>441.40000000000003</ele><time>2026-04-19T08:11:04.998Z</time></trkpt><trkpt lat="43.4655565" lon="10.6156952"><ele>441.20000000000005</ele><time>2026-04-19T08:11:05.996Z</time></trkpt><trkpt lat="43.4655524" lon="10.6158084"><ele>441.0</ele><time>2026-04-19T08:11:07.003Z</time></trkpt><trkpt lat="43.4655788" lon="10.6159324"><ele>441.0</ele><time>2026-04-19T08:11:08.006Z</time></trkpt><trkpt lat="43.465635" lon="10.6160995"><ele>441.0</ele><time>2026-04-19T08:11:09.013Z</time></trkpt><trkpt lat="43.4656987" lon="10.6163057"><ele>441.0</ele><time>2026-04-19T08:11:10.007Z</time></trkpt><trkpt lat="43.4657521" lon="10.6165004"><ele>441.0</ele><time>2026-04-19T08:11:11.018Z</time></trkpt><trkpt lat="43.4658078" lon="10.6167011"><ele>438.75</ele><time>2026-04-19T08:11:12.004Z</time></trkpt><trkpt lat="43.4658474" lon="10.6168849"><ele>436.5</ele><time>2026-04-19T08:11:13.014Z</time></trkpt><trkpt lat="43.4658871" lon="10.6170446"><ele>434.25</ele><time>2026-04-19T08:11:14.005Z</time></trkpt><trkpt lat="43.465937" lon="10.6171915"><ele>432.0</ele><time>2026-04-19T08:11:14.999Z</time></trkpt><trkpt lat="43.4659969" lon="10.6173316"><ele>428.40000000000003</ele><time>2026-04-19T08:11:16.004Z</time></trkpt><trkpt lat="43.4660508" lon="10.6174622"><ele>424.80000000000007</ele><time>2026-04-19T08:11:17.004Z</time></trkpt><trkpt lat="43.4661007" lon="10.6175926"><ele>421.2</ele><time>2026-04-19T08:11:17.997Z</time></trkpt><trkpt lat="43.4661494" lon="10.6177126"><ele>417.6</ele><time>2026-04-19T08:11:19.007Z</time></trkpt><trkpt lat="43.4661863" lon="10.6178345"><ele>414.0</ele><time>2026-04-19T08:11:19.999Z</time></trkpt><trkpt lat="43.4662365" lon="10.6179647"><ele>416.2</ele><time>2026-04-19T08:11:20.998Z</time></trkpt><trkpt lat="43.4663049" lon="10.6180934"><ele>418.4</ele><time>2026-04-19T08:11:22.003Z</time></trkpt><trkpt lat="43.466369" lon="10.61822"><ele>420.6</ele><time>2026-04-19T08:11:23.002Z</time></trkpt><trkpt lat="43.4664224" lon="10.6183269"><ele>422.8</ele><time>2026-04-19T08:11:23.998Z</time></trkpt><trkpt lat="43.4664801" lon="10.6184271"><ele>425.0</ele><time>2026-04-19T08:11:25.006Z</time></trkpt><trkpt lat="43.4665376" lon="10.6185272"><ele>424.99999999999994</ele><time>2026-04-19T08:11:26.003Z</time></trkpt><trkpt lat="43.466586" lon="10.6186197"><ele>425.0</ele><time>2026-04-19T08:11:26.997Z</time></trkpt><trkpt lat="43.466628" lon="10.6187216"><ele>425.0</ele><time>2026-04-19T08:11:27.998Z</time></trkpt><trkpt lat="43.4666589" lon="10.6188193"><ele>425.0</ele><time>2026-04-19T08:11:28.999Z</time></trkpt><trkpt lat="43.4666614" lon="10.6189344"><ele>424.99999999999994</ele><time>2026-04-19T08:11:30.001Z</time></trkpt><trkpt lat="43.4666502" lon="10.6190882"><ele>425.0</ele><time>2026-04-19T08:11:30.993Z</time></trkpt><trkpt lat="43.4666622" lon="10.6192597"><ele>422.4</ele><time>2026-04-19T08:11:32.007Z</time></trkpt><trkpt lat="43.4666768" lon="10.6194123"><ele>419.8</ele><time>2026-04-19T08:11:33.001Z</time></trkpt><trkpt lat="43.466688" lon="10.6195541"><ele>417.20000000000005</ele><time>2026-04-19T08:11:34.008Z</time></trkpt><trkpt lat="43.4666886" lon="10.6197041"><ele>414.6</ele><time>2026-04-19T08:11:35Z</time></trkpt><trkpt lat="43.4666697" lon="10.6198562"><ele>412.0</ele><time>2026-04-19T08:11:36.004Z</time></trkpt><trkpt lat="43.4666457" lon="10.6199896"><ele>411.00000000000006</ele><time>2026-04-19T08:11:37.004Z</time></trkpt><trkpt lat="43.466624" lon="10.6201101"><ele>410.0</ele><time>2026-04-19T08:11:37.999Z</time></trkpt><trkpt lat="43.4666295" lon="10.6202409"><ele>409.0</ele><time>2026-04-19T08:11:39.013Z</time></trkpt><trkpt lat="43.4666449" lon="10.6203461"><ele>408.0</ele><time>2026-04-19T08:11:39.995Z</time></trkpt><trkpt lat="43.4666715" lon="10.62044"><ele>407.00000000000006</ele><time>2026-04-19T08:11:40.999Z</time></trkpt><trkpt lat="43.4667052" lon="10.6205232"><ele>406.0</ele><time>2026-04-19T08:11:41.997Z</time></trkpt><trkpt lat="43.4667644" lon="10.6206184"><ele>405.50000000000006</ele><time>2026-04-19T08:11:43.002Z</time></trkpt><trkpt lat="43.466828" lon="10.6207109"><ele>405.0</ele><time>2026-04-19T08:11:44.021Z</time></trkpt><trkpt lat="43.4668858" lon="10.6207945"><ele>404.5</ele><time>2026-04-19T08:11:44.996Z</time></trkpt><trkpt lat="43.4669178" lon="10.6208808"><ele>404.0</ele><time>2026-04-19T08:11:46.016Z</time></trkpt><trkpt lat="43.4669253" lon="10.6209869"><ele>403.50000000000006</ele><time>2026-04-19T08:11:47.001Z</time></trkpt><trkpt lat="43.4669148" lon="10.6211023"><ele>403.0</ele><time>2026-04-19T08:11:48Z</time></trkpt><trkpt lat="43.4669018" lon="10.6212199"><ele>403.00000000000006</ele><time>2026-04-19T08:11:49.001Z</time></trkpt><trkpt lat="43.4668683" lon="10.6213112"><ele>403.0</ele><time>2026-04-19T08:11:49.995Z</time></trkpt><trkpt lat="43.4668128" lon="10.6213847"><ele>403.0</ele><time>2026-04-19T08:11:50.994Z</time></trkpt><trkpt lat="43.4667413" lon="10.6214347"><ele>403.0</ele><time>2026-04-19T08:11:52.001Z</time></trkpt><trkpt lat="43.4666504" lon="10.6214896"><ele>403.00000000000006</ele><time>2026-04-19T08:11:53Z</time></trkpt><trkpt lat="43.4665813" lon="10.6215388"><ele>403.0</ele><time>2026-04-19T08:11:53.998Z</time></trkpt><trkpt lat="43.466533" lon="10.6216176"><ele>403.0</ele><time>2026-04-19T08:11:54.996Z</time></trkpt><trkpt lat="43.4665057" lon="10.6217406"><ele>403.0</ele><time>2026-04-19T08:11:55.998Z</time></trkpt><trkpt lat="43.4664938" lon="10.6218817"><ele>403.0</ele><time>2026-04-19T08:11:56.997Z</time></trkpt><trkpt lat="43.4664814" lon="10.6220449"><ele>403.0</ele><time>2026-04-19T08:11:58.006Z</time></trkpt><trkpt lat="43.4664751" lon="10.6222017"><ele>403.0</ele><time>2026-04-19T08:11:58.996Z</time></trkpt><trkpt lat="43.4664863" lon="10.6223507"><ele>402.4</ele><time>2026-04-19T08:12:00Z</time></trkpt><trkpt lat="43.46649" lon="10.6224747"><ele>401.79999999999995</ele><time>2026-04-19T08:12:01.002Z</time></trkpt><trkpt lat="43.4664654" lon="10.6225741"><ele>401.2</ele><time>2026-04-19T08:12:01.996Z</time></trkpt><trkpt lat="43.4663931" lon="10.6226606"><ele>400.6</ele><time>2026-04-19T08:12:02.997Z</time></trkpt><trkpt lat="43.4663" lon="10.6227524"><ele>400.0</ele><time>2026-04-19T08:12:03.998Z</time></trkpt><trkpt lat="43.4662152" lon="10.6228466"><ele>400.0</ele><time>2026-04-19T08:12:04.995Z</time></trkpt><trkpt lat="43.4661209" lon="10.6229193"><ele>400.0</ele><time>2026-04-19T08:12:06.003Z</time></trkpt><trkpt lat="43.4660107" lon="10.622947"><ele>400.0</ele><time>2026-04-19T08:12:06.989Z</time></trkpt><trkpt lat="43.4659015" lon="10.622966"><ele>400.0</ele><time>2026-04-19T08:12:07.996Z</time></trkpt><trkpt lat="43.4658007" lon="10.6229833"><ele>400.0</ele><time>2026-04-19T08:12:08.997Z</time></trkpt><trkpt lat="43.4657154" lon="10.6230421"><ele>400.0</ele><time>2026-04-19T08:12:10Z</time></trkpt><trkpt lat="43.4656446" lon="10.6231436"><ele>400.0</ele><time>2026-04-19T08:12:10.992Z</time></trkpt><trkpt lat="43.4655987" lon="10.6232303"><ele>400.0</ele><time>2026-04-19T08:12:12.001Z</time></trkpt><trkpt lat="43.4655546" lon="10.623371"><ele>400.0</ele><time>2026-04-19T08:12:12.996Z</time></trkpt><trkpt lat="43.4655072" lon="10.6235299"><ele>400.0</ele><time>2026-04-19T08:12:13.996Z</time></trkpt><trkpt lat="43.4654296" lon="10.6236792"><ele>396.8</ele><time>2026-04-19T08:12:15Z</time></trkpt><trkpt lat="43.4653503" lon="10.6237874"><ele>393.6</ele><time>2026-04-19T08:12:16.015Z</time></trkpt><trkpt lat="43.4652926" lon="10.6239054"><ele>390.4</ele><time>2026-04-19T08:12:17.024Z</time></trkpt><trkpt lat="43.4652531" lon="10.6240375"><ele>387.2</ele><time>2026-04-19T08:12:18.005Z</time></trkpt><trkpt lat="43.465205" lon="10.6241888"><ele>384.0</ele><time>2026-04-19T08:12:19.005Z</time></trkpt><trkpt lat="43.4651354" lon="10.6243488"><ele>387.25</ele><time>2026-04-19T08:12:20.006Z</time></trkpt><trkpt lat="43.4650579" lon="10.6244969"><ele>390.5</ele><time>2026-04-19T08:12:21.009Z</time></trkpt><trkpt lat="43.4649714" lon="10.6246091"><ele>393.75</ele><time>2026-04-19T08:12:21.992Z</time></trkpt><trkpt lat="43.4648828" lon="10.6247118"><ele>397.0</ele><time>2026-04-19T08:12:23.014Z</time></trkpt><trkpt lat="43.4648171" lon="10.6248148"><ele>397.00000000000006</ele><time>2026-04-19T08:12:23.994Z</time></trkpt><trkpt lat="43.46477" lon="10.6249114"><ele>397.0</ele><time>2026-04-19T08:12:25.002Z</time></trkpt><trkpt lat="43.4647531" lon="10.6250131"><ele>397.0</ele><time>2026-04-19T08:12:25.999Z</time></trkpt><trkpt lat="43.4647554" lon="10.6251177"><ele>397.0</ele><time>2026-04-19T08:12:27.001Z</time></trkpt><trkpt lat="43.4647688" lon="10.6252305"><ele>397.00000000000006</ele><time>2026-04-19T08:12:27.998Z</time></trkpt><trkpt lat="43.4647758" lon="10.6253499"><ele>397.0</ele><time>2026-04-19T08:12:29.001Z</time></trkpt><trkpt lat="43.4647513" lon="10.6254663"><ele>398.20000000000005</ele><time>2026-04-19T08:12:29.987Z</time></trkpt><trkpt lat="43.4646971" lon="10.6255634"><ele>399.4</ele><time>2026-04-19T08:12:30.991Z</time></trkpt><trkpt lat="43.4646272" lon="10.6256703"><ele>400.6</ele><time>2026-04-19T08:12:32.005Z</time></trkpt><trkpt lat="43.4645567" lon="10.6257711"><ele>401.79999999999995</ele><time>2026-04-19T08:12:33.009Z</time></trkpt><trkpt lat="43.464494" lon="10.6258916"><ele>403.0</ele><time>2026-04-19T08:12:34.004Z</time></trkpt><trkpt lat="43.4644513" lon="10.6260273"><ele>394.79999999999995</ele><time>2026-04-19T08:12:35.005Z</time></trkpt><trkpt lat="43.4644256" lon="10.6261624"><ele>386.6</ele><time>2026-04-19T08:12:36.004Z</time></trkpt><trkpt lat="43.4644218" lon="10.626303"><ele>378.4</ele><time>2026-04-19T08:12:37.015Z</time></trkpt><trkpt lat="43.464437" lon="10.6264341"><ele>370.20000000000005</ele><time>2026-04-19T08:12:38.008Z</time></trkpt><trkpt lat="43.4644647" lon="10.6265525"><ele>362.0</ele><time>2026-04-19T08:12:38.991Z</time></trkpt><trkpt lat="43.4645065" lon="10.6266611"><ele>362.0</ele><time>2026-04-19T08:12:40.014Z</time></trkpt><trkpt lat="43.4645629" lon="10.6267524"><ele>362.0</ele><time>2026-04-19T08:12:40.996Z</time></trkpt><trkpt lat="43.4646302" lon="10.6268414"><ele>362.0</ele><time>2026-04-19T08:12:42.008Z</time></trkpt><trkpt lat="43.4647155" lon="10.6269193"><ele>362.0</ele><time>2026-04-19T08:12:43.005Z</time></trkpt><trkpt lat="43.4648002" lon="10.6269678"><ele>362.0</ele><time>2026-04-19T08:12:44.004Z</time></trkpt><trkpt lat="43.4648741" lon="10.6270024"><ele>363.8</ele><time>2026-04-19T08:12:45Z</time></trkpt><trkpt lat="43.4649601" lon="10.6270187"><ele>365.6</ele><time>2026-04-19T08:12:46.013Z</time></trkpt><trkpt lat="43.4650587" lon="10.6270399"><ele>367.40000000000003</ele><time>2026-04-19T08:12:47.017Z</time></trkpt><trkpt lat="43.4651632" lon="10.6270701"><ele>369.20000000000005</ele><time>2026-04-19T08:12:48.004Z</time></trkpt><trkpt lat="43.4652688" lon="10.6270971"><ele>371.0</ele><time>2026-04-19T08:12:49.004Z</time></trkpt><trkpt lat="43.4653625" lon="10.6271209"><ele>371.0</ele><time>2026-04-19T08:12:50.002Z</time></trkpt><trkpt lat="43.4654394" lon="10.6271454"><ele>371.0</ele><time>2026-04-19T08:12:51.015Z</time></trkpt><trkpt lat="43.4655062" lon="10.6271715"><ele>371.0</ele><time>2026-04-19T08:12:52.003Z</time></trkpt><trkpt lat="43.4655296" lon="10.6273219"><ele>371.0</ele><time>2026-04-19T08:12:54.003Z</time></trkpt><trkpt lat="43.4655209" lon="10.6274155"><ele>371.0</ele><time>2026-04-19T08:12:54.996Z</time></trkpt><trkpt lat="43.4654933" lon="10.6275216"><ele>371.0</ele><time>2026-04-19T08:12:56.028Z</time></trkpt><trkpt lat="43.4654048" lon="10.6276372"><ele>371.0</ele><time>2026-04-19T08:12:56.998Z</time></trkpt><trkpt lat="43.4652928" lon="10.6277905"><ele>371.0</ele><time>2026-04-19T08:12:58.01Z</time></trkpt><trkpt lat="43.4652003" lon="10.6279581"><ele>371.0</ele><time>2026-04-19T08:12:59.002Z</time></trkpt><trkpt lat="43.4651263" lon="10.6280889"><ele>371.0</ele><time>2026-04-19T08:13:00.002Z</time></trkpt><trkpt lat="43.4650789" lon="10.6282093"><ele>370.20000000000005</ele><time>2026-04-19T08:13:01.012Z</time></trkpt><trkpt lat="43.4650615" lon="10.6283184"><ele>369.40000000000003</ele><time>2026-04-19T08:13:01.999Z</time></trkpt><trkpt lat="43.4650723" lon="10.6284265"><ele>368.6</ele><time>2026-04-19T08:13:03.005Z</time></trkpt><trkpt lat="43.4651148" lon="10.6285378"><ele>367.8</ele><time>2026-04-19T08:13:04.012Z</time></trkpt><trkpt lat="43.4651789" lon="10.6286417"><ele>367.0</ele><time>2026-04-19T08:13:05.008Z</time></trkpt><trkpt lat="43.465251" lon="10.6287581"><ele>365.0</ele><time>2026-04-19T08:13:05.999Z</time></trkpt><trkpt lat="43.4653197" lon="10.6288852"><ele>363.0</ele><time>2026-04-19T08:13:07.008Z</time></trkpt><trkpt lat="43.4654029" lon="10.6289936"><ele>361.0</ele><time>2026-04-19T08:13:08.007Z</time></trkpt><trkpt lat="43.4654922" lon="10.6290847"><ele>359.0</ele><time>2026-04-19T08:13:08.999Z</time></trkpt><trkpt lat="43.4655834" lon="10.6291709"><ele>360.0</ele><time>2026-04-19T08:13:10.004Z</time></trkpt><trkpt lat="43.4656543" lon="10.629239"><ele>361.0</ele><time>2026-04-19T08:13:11.017Z</time></trkpt><trkpt lat="43.4657111" lon="10.6293243"><ele>362.0</ele><time>2026-04-19T08:13:12.01Z</time></trkpt><trkpt lat="43.4657636" lon="10.6294149"><ele>363.0</ele><time>2026-04-19T08:13:13.01Z</time></trkpt><trkpt lat="43.4658243" lon="10.6295037"><ele>364.0</ele><time>2026-04-19T08:13:14.002Z</time></trkpt><trkpt lat="43.4658913" lon="10.6296133"><ele>365.0</ele><time>2026-04-19T08:13:15.001Z</time></trkpt><trkpt lat="43.4659586" lon="10.6297295"><ele>365.0</ele><time>2026-04-19T08:13:16.001Z</time></trkpt><trkpt lat="43.4660176" lon="10.6298345"><ele>365.0</ele><time>2026-04-19T08:13:17.016Z</time></trkpt><trkpt lat="43.4660459" lon="10.6299403"><ele>365.0</ele><time>2026-04-19T08:13:18.012Z</time></trkpt><trkpt lat="43.4660609" lon="10.6300582"><ele>365.0</ele><time>2026-04-19T08:13:19.014Z</time></trkpt><trkpt lat="43.4660568" lon="10.6301818"><ele>365.0</ele><time>2026-04-19T08:13:20.011Z</time></trkpt><trkpt lat="43.4660419" lon="10.630311"><ele>364.6666666666667</ele><time>2026-04-19T08:13:21.004Z</time></trkpt><trkpt lat="43.466036" lon="10.6304257"><ele>364.33333333333337</ele><time>2026-04-19T08:13:22.012Z</time></trkpt><trkpt lat="43.4660453" lon="10.6305182"><ele>364.0</ele><time>2026-04-19T08:13:23.006Z</time></trkpt><trkpt lat="43.466069" lon="10.6306429"><ele>363.6666666666667</ele><time>2026-04-19T08:13:25.004Z</time></trkpt><trkpt lat="43.4660941" lon="10.6307273"><ele>363.3333333333333</ele><time>2026-04-19T08:13:27.003Z</time></trkpt><trkpt lat="43.4661769" lon="10.6308432"><ele>363.0</ele><time>2026-04-19T08:13:28.998Z</time></trkpt><trkpt lat="43.4662486" lon="10.6308919"><ele>363.2</ele><time>2026-04-19T08:13:30.006Z</time></trkpt><trkpt lat="43.466342" lon="10.6309302"><ele>363.4</ele><time>2026-04-19T08:13:31.019Z</time></trkpt><trkpt lat="43.4664432" lon="10.6309414"><ele>363.59999999999997</ele><time>2026-04-19T08:13:32.005Z</time></trkpt><trkpt lat="43.4665576" lon="10.6309265"><ele>363.79999999999995</ele><time>2026-04-19T08:13:33.013Z</time></trkpt><trkpt lat="43.4666807" lon="10.6308749"><ele>364.0</ele><time>2026-04-19T08:13:34Z</time></trkpt><trkpt lat="43.4667933" lon="10.6308334"><ele>364.0</ele><time>2026-04-19T08:13:35.005Z</time></trkpt><trkpt lat="43.4668979" lon="10.6307981"><ele>364.0</ele><time>2026-04-19T08:13:36.004Z</time></trkpt><trkpt lat="43.4669973" lon="10.6307804"><ele>364.0</ele><time>2026-04-19T08:13:37.009Z</time></trkpt><trkpt lat="43.467109" lon="10.6307899"><ele>364.0</ele><time>2026-04-19T08:13:37.998Z</time></trkpt><trkpt lat="43.467234" lon="10.6308343"><ele>364.0</ele><time>2026-04-19T08:13:39.007Z</time></trkpt><trkpt lat="43.4673591" lon="10.6308938"><ele>364.25</ele><time>2026-04-19T08:13:40Z</time></trkpt><trkpt lat="43.4674937" lon="10.6309555"><ele>364.5</ele><time>2026-04-19T08:13:41.008Z</time></trkpt><trkpt lat="43.4676332" lon="10.6310205"><ele>364.75</ele><time>2026-04-19T08:13:42.013Z</time></trkpt><trkpt lat="43.4677742" lon="10.6310865"><ele>365.0</ele><time>2026-04-19T08:13:43.009Z</time></trkpt><trkpt lat="43.4679079" lon="10.631157"><ele>358.75</ele><time>2026-04-19T08:13:44.011Z</time></trkpt><trkpt lat="43.4680302" lon="10.6312218"><ele>352.5</ele><time>2026-04-19T08:13:45.005Z</time></trkpt><trkpt lat="43.468145" lon="10.6312674"><ele>346.25</ele><time>2026-04-19T08:13:46.002Z</time></trkpt><trkpt lat="43.4682447" lon="10.6312658"><ele>340.0</ele><time>2026-04-19T08:13:47.001Z</time></trkpt><trkpt lat="43.4683397" lon="10.6312236"><ele>346.0</ele><time>2026-04-19T08:13:48Z</time></trkpt><trkpt lat="43.4684258" lon="10.6311197"><ele>352.0</ele><time>2026-04-19T08:13:49.013Z</time></trkpt><trkpt lat="43.4684803" lon="10.6309813"><ele>358.0</ele><time>2026-04-19T08:13:50.003Z</time></trkpt><trkpt lat="43.4685306" lon="10.6307973"><ele>364.0</ele><time>2026-04-19T08:13:51.001Z</time></trkpt><trkpt lat="43.4685652" lon="10.6306072"><ele>364.0</ele><time>2026-04-19T08:13:52.007Z</time></trkpt><trkpt lat="43.4686062" lon="10.6304152"><ele>364.0</ele><time>2026-04-19T08:13:52.993Z</time></trkpt><trkpt lat="43.4686491" lon="10.6302411"><ele>364.0</ele><time>2026-04-19T08:13:54.011Z</time></trkpt><trkpt lat="43.4687053" lon="10.6300882"><ele>364.0</ele><time>2026-04-19T08:13:55.008Z</time></trkpt><trkpt lat="43.4687939" lon="10.6299439"><ele>362.75</ele><time>2026-04-19T08:13:56.002Z</time></trkpt><trkpt lat="43.4688995" lon="10.629845"><ele>361.5</ele><time>2026-04-19T08:13:57.052Z</time></trkpt><trkpt lat="43.4690159" lon="10.6297667"><ele>360.25</ele><time>2026-04-19T08:13:57.999Z</time></trkpt><trkpt lat="43.4691147" lon="10.6296845"><ele>359.0</ele><time>2026-04-19T08:13:58.995Z</time></trkpt><trkpt lat="43.4691979" lon="10.6296018"><ele>359.0</ele><time>2026-04-19T08:14:00Z</time></trkpt><trkpt lat="43.4692776" lon="10.6295518"><ele>359.0</ele><time>2026-04-19T08:14:01.002Z</time></trkpt><trkpt lat="43.4693511" lon="10.6295542"><ele>359.0</ele><time>2026-04-19T08:14:02.013Z</time></trkpt><trkpt lat="43.4694327" lon="10.6296056"><ele>359.0</ele><time>2026-04-19T08:14:03.005Z</time></trkpt><trkpt lat="43.4694884" lon="10.6296774"><ele>359.0</ele><time>2026-04-19T08:14:03.999Z</time></trkpt><trkpt lat="43.4695038" lon="10.6297702"><ele>359.0</ele><time>2026-04-19T08:14:05Z</time></trkpt><trkpt lat="43.4694781" lon="10.6298915"><ele>359.0</ele><time>2026-04-19T08:14:05.999Z</time></trkpt><trkpt lat="43.4694446" lon="10.6300178"><ele>359.0</ele><time>2026-04-19T08:14:07.003Z</time></trkpt><trkpt lat="43.4693906" lon="10.6301446"><ele>359.0</ele><time>2026-04-19T08:14:07.996Z</time></trkpt><trkpt lat="43.469315" lon="10.6302628"><ele>359.0</ele><time>2026-04-19T08:14:08.999Z</time></trkpt><trkpt lat="43.4692449" lon="10.6303711"><ele>359.0</ele><time>2026-04-19T08:14:09.992Z</time></trkpt><trkpt lat="43.4691958" lon="10.6304881"><ele>356.5</ele><time>2026-04-19T08:14:11.011Z</time></trkpt><trkpt lat="43.4692047" lon="10.6306407"><ele>354.0</ele><time>2026-04-19T08:14:11.997Z</time></trkpt><trkpt lat="43.4692466" lon="10.6308058"><ele>351.5</ele><time>2026-04-19T08:14:12.997Z</time></trkpt><trkpt lat="43.4693105" lon="10.6309716"><ele>349.0</ele><time>2026-04-19T08:14:13.992Z</time></trkpt><trkpt lat="43.4693665" lon="10.6311436"><ele>346.5</ele><time>2026-04-19T08:14:15.003Z</time></trkpt><trkpt lat="43.469401" lon="10.6313194"><ele>344.0</ele><time>2026-04-19T08:14:16.004Z</time></trkpt><trkpt lat="43.4693915" lon="10.6314772"><ele>341.5</ele><time>2026-04-19T08:14:17.008Z</time></trkpt><trkpt lat="43.469388" lon="10.6316254"><ele>339.0</ele><time>2026-04-19T08:14:18.003Z</time></trkpt><trkpt lat="43.4694121" lon="10.6317603"><ele>339.0</ele><time>2026-04-19T08:14:18.999Z</time></trkpt><trkpt lat="43.4694931" lon="10.6318671"><ele>339.0</ele><time>2026-04-19T08:14:20.002Z</time></trkpt><trkpt lat="43.4696044" lon="10.6319273"><ele>339.0</ele><time>2026-04-19T08:14:20.994Z</time></trkpt><trkpt lat="43.4697423" lon="10.6319553"><ele>339.0</ele><time>2026-04-19T08:14:22.018Z</time></trkpt><trkpt lat="43.4698838" lon="10.6320115"><ele>343.0</ele><time>2026-04-19T08:14:23.001Z</time></trkpt><trkpt lat="43.4700063" lon="10.6321262"><ele>347.0</ele><time>2026-04-19T08:14:24.015Z</time></trkpt><trkpt lat="43.4701288" lon="10.6322891"><ele>351.0</ele><time>2026-04-19T08:14:25.002Z</time></trkpt><trkpt lat="43.4702448" lon="10.6324622"><ele>351.0</ele><time>2026-04-19T08:14:26.002Z</time></trkpt><trkpt lat="43.4703708" lon="10.6326364"><ele>351.0</ele><time>2026-04-19T08:14:27.001Z</time></trkpt><trkpt lat="43.4704934" lon="10.6327953"><ele>351.0</ele><time>2026-04-19T08:14:28.003Z</time></trkpt><trkpt lat="43.4706231" lon="10.6329456"><ele>353.6666666666667</ele><time>2026-04-19T08:14:29.001Z</time></trkpt><trkpt lat="43.4707326" lon="10.6331254"><ele>356.33333333333337</ele><time>2026-04-19T08:14:30.007Z</time></trkpt><trkpt lat="43.4708199" lon="10.633318"><ele>359.0</ele><time>2026-04-19T08:14:31.006Z</time></trkpt><trkpt lat="43.4709107" lon="10.6335235"><ele>356.6666666666667</ele><time>2026-04-19T08:14:32.006Z</time></trkpt><trkpt lat="43.4709889" lon="10.6337271"><ele>354.3333333333333</ele><time>2026-04-19T08:14:32.995Z</time></trkpt><trkpt lat="43.4710654" lon="10.6339359"><ele>352.0</ele><time>2026-04-19T08:14:34.011Z</time></trkpt><trkpt lat="43.4711436" lon="10.6341474"><ele>352.0</ele><time>2026-04-19T08:14:35.002Z</time></trkpt><trkpt lat="43.4712316" lon="10.6343644"><ele>352.0</ele><time>2026-04-19T08:14:36.007Z</time></trkpt><trkpt lat="43.4713114" lon="10.6345777"><ele>352.0</ele><time>2026-04-19T08:14:37.001Z</time></trkpt><trkpt lat="43.4713935" lon="10.6347926"><ele>354.66666666666663</ele><time>2026-04-19T08:14:38.007Z</time></trkpt><trkpt lat="43.4714695" lon="10.6349976"><ele>357.3333333333333</ele><time>2026-04-19T08:14:38.999Z</time></trkpt><trkpt lat="43.471544" lon="10.6351889"><ele>360.0</ele><time>2026-04-19T08:14:40.007Z</time></trkpt><trkpt lat="43.4716126" lon="10.6353581"><ele>360.0</ele><time>2026-04-19T08:14:41.011Z</time></trkpt><trkpt lat="43.471676" lon="10.6355141"><ele>360.0</ele><time>2026-04-19T08:14:42.008Z</time></trkpt><trkpt lat="43.4717295" lon="10.6356585"><ele>360.0</ele><time>2026-04-19T08:14:43.03Z</time></trkpt><trkpt lat="43.47179" lon="10.6357924"><ele>360.0</ele><time>2026-04-19T08:14:44Z</time></trkpt><trkpt lat="43.4718425" lon="10.6359035"><ele>360.0</ele><time>2026-04-19T08:14:45Z</time></trkpt><trkpt lat="43.4719059" lon="10.6359909"><ele>360.0</ele><time>2026-04-19T08:14:45.997Z</time></trkpt><trkpt lat="43.4719678" lon="10.636054"><ele>360.0</ele><time>2026-04-19T08:14:46.993Z</time></trkpt><trkpt lat="43.4720286" lon="10.6361009"><ele>360.0</ele><time>2026-04-19T08:14:48.02Z</time></trkpt><trkpt lat="43.472085" lon="10.6361409"><ele>360.0</ele><time>2026-04-19T08:14:49.023Z</time></trkpt><trkpt lat="43.4721952" lon="10.636169"><ele>360.0</ele><time>2026-04-19T08:14:50.989Z</time></trkpt><trkpt lat="43.4723044" lon="10.6361797"><ele>360.3333333333333</ele><time>2026-04-19T08:14:53.005Z</time></trkpt><trkpt lat="43.4723724" lon="10.6361699"><ele>360.6666666666667</ele><time>2026-04-19T08:14:53.996Z</time></trkpt><trkpt lat="43.4724385" lon="10.6361345"><ele>361.0</ele><time>2026-04-19T08:14:55.02Z</time></trkpt><trkpt lat="43.4725167" lon="10.6361107"><ele>361.33333333333337</ele><time>2026-04-19T08:14:57.028Z</time></trkpt><trkpt lat="43.4725085" lon="10.6362239"><ele>361.6666666666667</ele><time>2026-04-19T08:15:00.014Z</time></trkpt><trkpt lat="43.4724029" lon="10.6363091"><ele>362.0</ele><time>2026-04-19T08:15:01.991Z</time></trkpt><trkpt lat="43.4723256" lon="10.6363812"><ele>360.5</ele><time>2026-04-19T08:15:03.02Z</time></trkpt><trkpt lat="43.4722415" lon="10.6364586"><ele>359.0</ele><time>2026-04-19T08:15:04.005Z</time></trkpt><trkpt lat="43.4721441" lon="10.6365343"><ele>357.5</ele><time>2026-04-19T08:15:04.99Z</time></trkpt><trkpt lat="43.4720403" lon="10.6366209"><ele>356.0</ele><time>2026-04-19T08:15:06.038Z</time></trkpt><trkpt lat="43.4719295" lon="10.6367054"><ele>356.0</ele><time>2026-04-19T08:15:07.023Z</time></trkpt><trkpt lat="43.4718146" lon="10.6367935"><ele>356.0</ele><time>2026-04-19T08:15:08.035Z</time></trkpt><trkpt lat="43.471697" lon="10.6368809"><ele>356.0</ele><time>2026-04-19T08:15:09.017Z</time></trkpt><trkpt lat="43.4715826" lon="10.6369668"><ele>356.0</ele><time>2026-04-19T08:15:10.014Z</time></trkpt><trkpt lat="43.4714807" lon="10.6370425"><ele>354.5</ele><time>2026-04-19T08:15:11.017Z</time></trkpt><trkpt lat="43.4713211" lon="10.6371993"><ele>353.0</ele><time>2026-04-19T08:15:13.004Z</time></trkpt><trkpt lat="43.4712486" lon="10.6372719"><ele>351.5</ele><time>2026-04-19T08:15:14.011Z</time></trkpt><trkpt lat="43.4711654" lon="10.6373534"><ele>350.0</ele><time>2026-04-19T08:15:15.009Z</time></trkpt><trkpt lat="43.4710804" lon="10.6374312"><ele>350.0</ele><time>2026-04-19T08:15:16.013Z</time></trkpt><trkpt lat="43.4709976" lon="10.6375083"><ele>350.0</ele><time>2026-04-19T08:15:16.997Z</time></trkpt><trkpt lat="43.4709223" lon="10.637588"><ele>350.0</ele><time>2026-04-19T08:15:17.998Z</time></trkpt><trkpt lat="43.4708457" lon="10.6376471"><ele>350.0</ele><time>2026-04-19T08:15:19.006Z</time></trkpt><trkpt lat="43.4707468" lon="10.6376767"><ele>350.0</ele><time>2026-04-19T08:15:20.002Z</time></trkpt><trkpt lat="43.4706276" lon="10.63773"><ele>350.0</ele><time>2026-04-19T08:15:21.007Z</time></trkpt><trkpt lat="43.4705003" lon="10.637789"><ele>350.0</ele><time>2026-04-19T08:15:22.006Z</time></trkpt><trkpt lat="43.4703798" lon="10.6378495"><ele>350.0</ele><time>2026-04-19T08:15:23.013Z</time></trkpt><trkpt lat="43.4702671" lon="10.6378979"><ele>350.0</ele><time>2026-04-19T08:15:24.008Z</time></trkpt><trkpt lat="43.4701694" lon="10.6379521"><ele>349.1666666666667</ele><time>2026-04-19T08:15:25.007Z</time></trkpt><trkpt lat="43.4700844" lon="10.6379987"><ele>348.33333333333337</ele><time>2026-04-19T08:15:26.01Z</time></trkpt><trkpt lat="43.4700088" lon="10.6380387"><ele>347.5</ele><time>2026-04-19T08:15:27.002Z</time></trkpt><trkpt lat="43.4699373" lon="10.6380801"><ele>346.6666666666667</ele><time>2026-04-19T08:15:28.003Z</time></trkpt><trkpt lat="43.4698758" lon="10.638136"><ele>345.8333333333333</ele><time>2026-04-19T08:15:29.003Z</time></trkpt><trkpt lat="43.4698181" lon="10.6381963"><ele>345.0</ele><time>2026-04-19T08:15:30.003Z</time></trkpt><trkpt lat="43.4697634" lon="10.6382619"><ele>345.0</ele><time>2026-04-19T08:15:30.997Z</time></trkpt><trkpt lat="43.469706" lon="10.6383387"><ele>345.0</ele><time>2026-04-19T08:15:32.004Z</time></trkpt><trkpt lat="43.469646" lon="10.6384131"><ele>345.0</ele><time>2026-04-19T08:15:32.996Z</time></trkpt><trkpt lat="43.4696009" lon="10.6385007"><ele>345.0</ele><time>2026-04-19T08:15:34.002Z</time></trkpt><trkpt lat="43.46957" lon="10.638619"><ele>345.0</ele><time>2026-04-19T08:15:35Z</time></trkpt><trkpt lat="43.4695338" lon="10.6387489"><ele>345.0</ele><time>2026-04-19T08:15:36.005Z</time></trkpt><trkpt lat="43.4695044" lon="10.6388754"><ele>342.6</ele><time>2026-04-19T08:15:37.006Z</time></trkpt><trkpt lat="43.4694697" lon="10.6389862"><ele>340.2</ele><time>2026-04-19T08:15:37.999Z</time></trkpt><trkpt lat="43.4694238" lon="10.6390915"><ele>337.79999999999995</ele><time>2026-04-19T08:15:39.003Z</time></trkpt><trkpt lat="43.4693615" lon="10.639191"><ele>335.4</ele><time>2026-04-19T08:15:40.002Z</time></trkpt><trkpt lat="43.4692896" lon="10.6392849"><ele>333.0</ele><time>2026-04-19T08:15:40.999Z</time></trkpt><trkpt lat="43.4692088" lon="10.6393706"><ele>333.0</ele><time>2026-04-19T08:15:42.004Z</time></trkpt><trkpt lat="43.4691328" lon="10.6394434"><ele>333.0</ele><time>2026-04-19T08:15:43.013Z</time></trkpt><trkpt lat="43.4690548" lon="10.6395131"><ele>333.0</ele><time>2026-04-19T08:15:44.008Z</time></trkpt><trkpt lat="43.4689794" lon="10.6395818"><ele>333.0</ele><time>2026-04-19T08:15:45.003Z</time></trkpt><trkpt lat="43.4689081" lon="10.6396528"><ele>333.0</ele><time>2026-04-19T08:15:46.009Z</time></trkpt><trkpt lat="43.4688391" lon="10.6397061"><ele>333.0</ele><time>2026-04-19T08:15:47.008Z</time></trkpt><trkpt lat="43.4687761" lon="10.639748"><ele>332.8571428571429</ele><time>2026-04-19T08:15:48.004Z</time></trkpt><trkpt lat="43.4687116" lon="10.6397825"><ele>332.71428571428567</ele><time>2026-04-19T08:15:49.009Z</time></trkpt><trkpt lat="43.4686436" lon="10.639815"><ele>332.57142857142856</ele><time>2026-04-19T08:15:50.008Z</time></trkpt><trkpt lat="43.4685713" lon="10.6398388"><ele>332.42857142857144</ele><time>2026-04-19T08:15:51.011Z</time></trkpt><trkpt lat="43.4685036" lon="10.6398658"><ele>332.28571428571433</ele><time>2026-04-19T08:15:52.007Z</time></trkpt><trkpt lat="43.4684407" lon="10.6398891"><ele>332.1428571428571</ele><time>2026-04-19T08:15:53.019Z</time></trkpt><trkpt lat="43.4683789" lon="10.6399123"><ele>332.0</ele><time>2026-04-19T08:15:54.008Z</time></trkpt><trkpt lat="43.468266" lon="10.6399813"><ele>332.0</ele><time>2026-04-19T08:15:56.017Z</time></trkpt><trkpt lat="43.4682074" lon="10.6400479"><ele>332.0</ele><time>2026-04-19T08:15:57.003Z</time></trkpt><trkpt lat="43.4681536" lon="10.6401077"><ele>332.0</ele><time>2026-04-19T08:15:58.006Z</time></trkpt><trkpt lat="43.4681065" lon="10.6401863"><ele>332.0</ele><time>2026-04-19T08:15:59.008Z</time></trkpt><trkpt lat="43.4680619" lon="10.6402771"><ele>332.0</ele><time>2026-04-19T08:16:00Z</time></trkpt><trkpt lat="43.468028" lon="10.6403854"><ele>332.0</ele><time>2026-04-19T08:16:01.028Z</time></trkpt><trkpt lat="43.4679879" lon="10.6405126"><ele>330.83333333333337</ele><time>2026-04-19T08:16:02.001Z</time></trkpt><trkpt lat="43.4679487" lon="10.6406299"><ele>329.6666666666667</ele><time>2026-04-19T08:16:03.01Z</time></trkpt><trkpt lat="43.4679048" lon="10.6407327"><ele>328.5</ele><time>2026-04-19T08:16:04.004Z</time></trkpt><trkpt lat="43.4678727" lon="10.6408332"><ele>327.3333333333333</ele><time>2026-04-19T08:16:05.006Z</time></trkpt><trkpt lat="43.4678349" lon="10.6409209"><ele>326.16666666666663</ele><time>2026-04-19T08:16:06.01Z</time></trkpt><trkpt lat="43.4678021" lon="10.6410174"><ele>325.0</ele><time>2026-04-19T08:16:07.008Z</time></trkpt><trkpt lat="43.4677632" lon="10.6411125"><ele>323.8</ele><time>2026-04-19T08:16:08.008Z</time></trkpt><trkpt lat="43.46772" lon="10.6412226"><ele>322.6</ele><time>2026-04-19T08:16:09.007Z</time></trkpt><trkpt lat="43.4676742" lon="10.6413385"><ele>321.4</ele><time>2026-04-19T08:16:10.005Z</time></trkpt><trkpt lat="43.4676365" lon="10.6414513"><ele>320.2</ele><time>2026-04-19T08:16:11.013Z</time></trkpt><trkpt lat="43.4675946" lon="10.6415712"><ele>319.0</ele><time>2026-04-19T08:16:12.006Z</time></trkpt><trkpt lat="43.4675405" lon="10.6416918"><ele>319.0</ele><time>2026-04-19T08:16:13.012Z</time></trkpt><trkpt lat="43.4674853" lon="10.6418209"><ele>319.0</ele><time>2026-04-19T08:16:14.004Z</time></trkpt><trkpt lat="43.4674267" lon="10.6419505"><ele>319.0</ele><time>2026-04-19T08:16:15.011Z</time></trkpt><trkpt lat="43.4673602" lon="10.6420764"><ele>319.0</ele><time>2026-04-19T08:16:16.001Z</time></trkpt><trkpt lat="43.4672927" lon="10.6421865"><ele>319.0</ele><time>2026-04-19T08:16:17.015Z</time></trkpt><trkpt lat="43.4672245" lon="10.6422844"><ele>317.8333333333333</ele><time>2026-04-19T08:16:18.005Z</time></trkpt><trkpt lat="43.4671514" lon="10.6423806"><ele>316.66666666666663</ele><time>2026-04-19T08:16:18.999Z</time></trkpt><trkpt lat="43.4670753" lon="10.6424621"><ele>315.5</ele><time>2026-04-19T08:16:19.992Z</time></trkpt><trkpt lat="43.4670087" lon="10.6425398"><ele>314.3333333333333</ele><time>2026-04-19T08:16:21.014Z</time></trkpt><trkpt lat="43.4669573" lon="10.6426182"><ele>313.1666666666667</ele><time>2026-04-19T08:16:22.005Z</time></trkpt><trkpt lat="43.4669216" lon="10.6426951"><ele>312.0</ele><time>2026-04-19T08:16:23.004Z</time></trkpt><trkpt lat="43.4669087" lon="10.6427846"><ele>310.0</ele><time>2026-04-19T08:16:24.008Z</time></trkpt><trkpt lat="43.4669256" lon="10.6428749"><ele>308.0</ele><time>2026-04-19T08:16:25.011Z</time></trkpt><trkpt lat="43.4669535" lon="10.6429777"><ele>306.0</ele><time>2026-04-19T08:16:26Z</time></trkpt><trkpt lat="43.4669482" lon="10.6430907"><ele>304.0</ele><time>2026-04-19T08:16:27.015Z</time></trkpt><trkpt lat="43.4668989" lon="10.6432282"><ele>302.0</ele><time>2026-04-19T08:16:28.004Z</time></trkpt><trkpt lat="43.4668457" lon="10.6433754"><ele>302.0</ele><time>2026-04-19T08:16:29.005Z</time></trkpt><trkpt lat="43.4667808" lon="10.6435322"><ele>302.0</ele><time>2026-04-19T08:16:30.012Z</time></trkpt><trkpt lat="43.4667184" lon="10.6436958"><ele>302.0</ele><time>2026-04-19T08:16:31.009Z</time></trkpt><trkpt lat="43.4666457" lon="10.6438852"><ele>302.0</ele><time>2026-04-19T08:16:32.009Z</time></trkpt><trkpt lat="43.4665689" lon="10.6440807"><ele>300.33333333333337</ele><time>2026-04-19T08:16:33.01Z</time></trkpt><trkpt lat="43.4664891" lon="10.6442914"><ele>298.6666666666667</ele><time>2026-04-19T08:16:34.004Z</time></trkpt><trkpt lat="43.466418" lon="10.6444928"><ele>297.0</ele><time>2026-04-19T08:16:35.008Z</time></trkpt><trkpt lat="43.466355" lon="10.6446802"><ele>295.6666666666667</ele><time>2026-04-19T08:16:36.011Z</time></trkpt><trkpt lat="43.4662983" lon="10.6448673"><ele>294.33333333333337</ele><time>2026-04-19T08:16:37.006Z</time></trkpt><trkpt lat="43.4662522" lon="10.6450603"><ele>293.0</ele><time>2026-04-19T08:16:38.017Z</time></trkpt><trkpt lat="43.4662064" lon="10.6452665"><ele>291.75</ele><time>2026-04-19T08:16:39.011Z</time></trkpt><trkpt lat="43.4661601" lon="10.6454592"><ele>290.5</ele><time>2026-04-19T08:16:40.007Z</time></trkpt><trkpt lat="43.4661173" lon="10.6456459"><ele>289.25</ele><time>2026-04-19T08:16:40.997Z</time></trkpt><trkpt lat="43.4660751" lon="10.6458274"><ele>288.0</ele><time>2026-04-19T08:16:42.005Z</time></trkpt><trkpt lat="43.4660402" lon="10.6459994"><ele>287.25</ele><time>2026-04-19T08:16:43.006Z</time></trkpt><trkpt lat="43.4660075" lon="10.6461784"><ele>286.5</ele><time>2026-04-19T08:16:44.001Z</time></trkpt><trkpt lat="43.4659901" lon="10.6463572"><ele>285.75</ele><time>2026-04-19T08:16:45.003Z</time></trkpt><trkpt lat="43.4659691" lon="10.6465529"><ele>285.0</ele><time>2026-04-19T08:16:46.024Z</time></trkpt><trkpt lat="43.4659505" lon="10.6467506"><ele>285.0</ele><time>2026-04-19T08:16:47.012Z</time></trkpt><trkpt lat="43.4659284" lon="10.6469568"><ele>285.0</ele><time>2026-04-19T08:16:48.01Z</time></trkpt><trkpt lat="43.4659134" lon="10.6471682"><ele>285.0</ele><time>2026-04-19T08:16:49.009Z</time></trkpt><trkpt lat="43.4658909" lon="10.6473739"><ele>285.75</ele><time>2026-04-19T08:16:50.008Z</time></trkpt><trkpt lat="43.4658657" lon="10.6475795"><ele>286.5</ele><time>2026-04-19T08:16:51.01Z</time></trkpt><trkpt lat="43.4658363" lon="10.647781"><ele>287.25</ele><time>2026-04-19T08:16:51.996Z</time></trkpt><trkpt lat="43.4658068" lon="10.6479782"><ele>288.0</ele><time>2026-04-19T08:16:52.998Z</time></trkpt><trkpt lat="43.4657779" lon="10.6481791"><ele>290.3333333333333</ele><time>2026-04-19T08:16:54.005Z</time></trkpt><trkpt lat="43.465751" lon="10.6483861"><ele>292.66666666666663</ele><time>2026-04-19T08:16:54.996Z</time></trkpt><trkpt lat="43.4657171" lon="10.6485941"><ele>295.0</ele><time>2026-04-19T08:16:56.012Z</time></trkpt><trkpt lat="43.4656769" lon="10.6488015"><ele>299.0</ele><time>2026-04-19T08:16:57.009Z</time></trkpt><trkpt lat="43.4656377" lon="10.6490103"><ele>303.0</ele><time>2026-04-19T08:16:58.016Z</time></trkpt><trkpt lat="43.4655972" lon="10.6492203"><ele>307.0</ele><time>2026-04-19T08:16:59.003Z</time></trkpt><trkpt lat="43.4655531" lon="10.6494196"><ele>307.0</ele><time>2026-04-19T08:17:00.011Z</time></trkpt><trkpt lat="43.4655132" lon="10.6496023"><ele>307.0</ele><time>2026-04-19T08:17:01.005Z</time></trkpt><trkpt lat="43.4654817" lon="10.6497612"><ele>307.0</ele><time>2026-04-19T08:17:02.003Z</time></trkpt><trkpt lat="43.4654556" lon="10.6498954"><ele>307.0</ele><time>2026-04-19T08:17:03.011Z</time></trkpt><trkpt lat="43.465435" lon="10.6500193"><ele>307.0</ele><time>2026-04-19T08:17:03.991Z</time></trkpt><trkpt lat="43.4654092" lon="10.6501543"><ele>307.0</ele><time>2026-04-19T08:17:04.996Z</time></trkpt><trkpt lat="43.4653801" lon="10.6503091"><ele>307.0</ele><time>2026-04-19T08:17:06.011Z</time></trkpt><trkpt lat="43.4653597" lon="10.6505048"><ele>307.0</ele><time>2026-04-19T08:17:07.009Z</time></trkpt><trkpt lat="43.465331" lon="10.6507145"><ele>307.3333333333333</ele><time>2026-04-19T08:17:08.009Z</time></trkpt><trkpt lat="43.465311" lon="10.6509204"><ele>307.6666666666667</ele><time>2026-04-19T08:17:09.01Z</time></trkpt><trkpt lat="43.4652845" lon="10.6511442"><ele>308.0</ele><time>2026-04-19T08:17:10.001Z</time></trkpt><trkpt lat="43.4652575" lon="10.6513723"><ele>307.33333333333337</ele><time>2026-04-19T08:17:11.001Z</time></trkpt><trkpt lat="43.4652247" lon="10.6515948"><ele>306.6666666666667</ele><time>2026-04-19T08:17:11.991Z</time></trkpt><trkpt lat="43.4651906" lon="10.6518084"><ele>306.0</ele><time>2026-04-19T08:17:13.003Z</time></trkpt><trkpt lat="43.4651649" lon="10.6520026"><ele>305.5</ele><time>2026-04-19T08:17:14.009Z</time></trkpt><trkpt lat="43.4651374" lon="10.6521822"><ele>305.0</ele><time>2026-04-19T08:17:15.002Z</time></trkpt><trkpt lat="43.4651191" lon="10.6523561"><ele>304.5</ele><time>2026-04-19T08:17:16.001Z</time></trkpt><trkpt lat="43.4651175" lon="10.6525132"><ele>304.0</ele><time>2026-04-19T08:17:16.999Z</time></trkpt><trkpt lat="43.4651359" lon="10.6526586"><ele>303.25</ele><time>2026-04-19T08:17:18.001Z</time></trkpt><trkpt lat="43.4651737" lon="10.6528114"><ele>302.5</ele><time>2026-04-19T08:17:19.002Z</time></trkpt><trkpt lat="43.4652162" lon="10.652973"><ele>301.75</ele><time>2026-04-19T08:17:20.003Z</time></trkpt><trkpt lat="43.4652524" lon="10.6531336"><ele>301.0</ele><time>2026-04-19T08:17:21.008Z</time></trkpt><trkpt lat="43.4652878" lon="10.653301"><ele>301.0</ele><time>2026-04-19T08:17:22.001Z</time></trkpt><trkpt lat="43.4653257" lon="10.6534646"><ele>301.0</ele><time>2026-04-19T08:17:23.006Z</time></trkpt><trkpt lat="43.465372" lon="10.6536252"><ele>301.0</ele><time>2026-04-19T08:17:24.005Z</time></trkpt><trkpt lat="43.4654078" lon="10.6537899"><ele>301.0</ele><time>2026-04-19T08:17:24.999Z</time></trkpt><trkpt lat="43.4654427" lon="10.6539611"><ele>299.5</ele><time>2026-04-19T08:17:26.014Z</time></trkpt><trkpt lat="43.4654778" lon="10.6541303"><ele>298.0</ele><time>2026-04-19T08:17:27.006Z</time></trkpt><trkpt lat="43.4655156" lon="10.6543077"><ele>296.5</ele><time>2026-04-19T08:17:28.004Z</time></trkpt><trkpt lat="43.4655563" lon="10.6544839"><ele>295.0</ele><time>2026-04-19T08:17:29.001Z</time></trkpt><trkpt lat="43.4655969" lon="10.6546579"><ele>294.0</ele><time>2026-04-19T08:17:30.004Z</time></trkpt><trkpt lat="43.465637" lon="10.6548198"><ele>293.0</ele><time>2026-04-19T08:17:31.012Z</time></trkpt><trkpt lat="43.4656738" lon="10.6549747"><ele>292.0</ele><time>2026-04-19T08:17:32.013Z</time></trkpt><trkpt lat="43.4657065" lon="10.6551189"><ele>291.0</ele><time>2026-04-19T08:17:33.006Z</time></trkpt><trkpt lat="43.4657437" lon="10.6552591"><ele>290.0</ele><time>2026-04-19T08:17:33.999Z</time></trkpt><trkpt lat="43.4657808" lon="10.6554093"><ele>289.0</ele><time>2026-04-19T08:17:35.001Z</time></trkpt><trkpt lat="43.4658184" lon="10.6555669"><ele>288.0</ele><time>2026-04-19T08:17:36.002Z</time></trkpt><trkpt lat="43.4658575" lon="10.6557351"><ele>287.0</ele><time>2026-04-19T08:17:37.017Z</time></trkpt><trkpt lat="43.4658951" lon="10.6559143"><ele>287.0</ele><time>2026-04-19T08:17:38Z</time></trkpt><trkpt lat="43.4659301" lon="10.6560906"><ele>287.0</ele><time>2026-04-19T08:17:39.008Z</time></trkpt><trkpt lat="43.465969" lon="10.6562648"><ele>287.0</ele><time>2026-04-19T08:17:39.995Z</time></trkpt><trkpt lat="43.466012" lon="10.6564263"><ele>287.0</ele><time>2026-04-19T08:17:41.002Z</time></trkpt><trkpt lat="43.4660508" lon="10.6565922"><ele>285.5</ele><time>2026-04-19T08:17:42.004Z</time></trkpt><trkpt lat="43.4660871" lon="10.6567545"><ele>284.0</ele><time>2026-04-19T08:17:42.999Z</time></trkpt><trkpt lat="43.4661261" lon="10.6569083"><ele>282.5</ele><time>2026-04-19T08:17:44.007Z</time></trkpt><trkpt lat="43.4661609" lon="10.657063"><ele>281.0</ele><time>2026-04-19T08:17:45.012Z</time></trkpt><trkpt lat="43.4661951" lon="10.6572135"><ele>280.0</ele><time>2026-04-19T08:17:46.014Z</time></trkpt><trkpt lat="43.4662266" lon="10.6573528"><ele>279.0</ele><time>2026-04-19T08:17:47.001Z</time></trkpt><trkpt lat="43.4662575" lon="10.6574884"><ele>278.0</ele><time>2026-04-19T08:17:48.007Z</time></trkpt><trkpt lat="43.4663016" lon="10.6575954"><ele>277.0</ele><time>2026-04-19T08:17:48.997Z</time></trkpt><trkpt lat="43.4663641" lon="10.6576957"><ele>276.0</ele><time>2026-04-19T08:17:50.011Z</time></trkpt><trkpt lat="43.4664436" lon="10.6577926"><ele>274.5</ele><time>2026-04-19T08:17:51.005Z</time></trkpt><trkpt lat="43.4665313" lon="10.6578905"><ele>273.0</ele><time>2026-04-19T08:17:52.004Z</time></trkpt><trkpt lat="43.4666249" lon="10.6579868"><ele>271.5</ele><time>2026-04-19T08:17:53.001Z</time></trkpt><trkpt lat="43.466721" lon="10.6580948"><ele>270.0</ele><time>2026-04-19T08:17:54.001Z</time></trkpt><trkpt lat="43.466818" lon="10.6581935"><ele>270.0</ele><time>2026-04-19T08:17:55.008Z</time></trkpt><trkpt lat="43.466917" lon="10.6582997"><ele>270.0</ele><time>2026-04-19T08:17:56.001Z</time></trkpt><trkpt lat="43.4670104" lon="10.6584029"><ele>270.0</ele><time>2026-04-19T08:17:57.006Z</time></trkpt><trkpt lat="43.4671054" lon="10.6585085"><ele>270.0</ele><time>2026-04-19T08:17:58.007Z</time></trkpt><trkpt lat="43.4672023" lon="10.658615"><ele>266.75</ele><time>2026-04-19T08:17:59.004Z</time></trkpt><trkpt lat="43.467296" lon="10.6587164"><ele>263.5</ele><time>2026-04-19T08:18:00.02Z</time></trkpt><trkpt lat="43.4673906" lon="10.6588164"><ele>260.25</ele><time>2026-04-19T08:18:01Z</time></trkpt><trkpt lat="43.4674827" lon="10.6589146"><ele>257.0</ele><time>2026-04-19T08:18:02.004Z</time></trkpt><trkpt lat="43.4675752" lon="10.6590178"><ele>257.0</ele><time>2026-04-19T08:18:03.001Z</time></trkpt><trkpt lat="43.4676646" lon="10.6591354"><ele>257.0</ele><time>2026-04-19T08:18:04.011Z</time></trkpt><trkpt lat="43.4677564" lon="10.6592641"><ele>257.0</ele><time>2026-04-19T08:18:05Z</time></trkpt><trkpt lat="43.4678605" lon="10.6594086"><ele>257.0</ele><time>2026-04-19T08:18:06Z</time></trkpt><trkpt lat="43.4679621" lon="10.6595564"><ele>252.66666666666669</ele><time>2026-04-19T08:18:07.007Z</time></trkpt><trkpt lat="43.4680714" lon="10.6597217"><ele>248.33333333333331</ele><time>2026-04-19T08:18:08.006Z</time></trkpt><trkpt lat="43.4681849" lon="10.6598764"><ele>244.0</ele><time>2026-04-19T08:18:09.018Z</time></trkpt><trkpt lat="43.4682959" lon="10.6600349"><ele>244.0</ele><time>2026-04-19T08:18:10.01Z</time></trkpt><trkpt lat="43.4684056" lon="10.6601925"><ele>244.0</ele><time>2026-04-19T08:18:11.001Z</time></trkpt><trkpt lat="43.4685136" lon="10.6603447"><ele>244.0</ele><time>2026-04-19T08:18:12.008Z</time></trkpt><trkpt lat="43.4686184" lon="10.6604976"><ele>241.33333333333331</ele><time>2026-04-19T08:18:13.021Z</time></trkpt><trkpt lat="43.4687198" lon="10.660665"><ele>238.66666666666669</ele><time>2026-04-19T08:18:14.007Z</time></trkpt><trkpt lat="43.4688172" lon="10.6608335"><ele>236.0</ele><time>2026-04-19T08:18:15.011Z</time></trkpt><trkpt lat="43.4689077" lon="10.6610096"><ele>235.5</ele><time>2026-04-19T08:18:16.012Z</time></trkpt><trkpt lat="43.4689908" lon="10.6611919"><ele>235.0</ele><time>2026-04-19T08:18:17.006Z</time></trkpt><trkpt lat="43.4690655" lon="10.6613622"><ele>234.5</ele><time>2026-04-19T08:18:18.012Z</time></trkpt><trkpt lat="43.4691396" lon="10.661528"><ele>234.0</ele><time>2026-04-19T08:18:19.004Z</time></trkpt><trkpt lat="43.469214" lon="10.6616731"><ele>234.0</ele><time>2026-04-19T08:18:20.007Z</time></trkpt><trkpt lat="43.4692756" lon="10.6618068"><ele>233.99999999999997</ele><time>2026-04-19T08:18:21.012Z</time></trkpt><trkpt lat="43.4693266" lon="10.6619216"><ele>233.99999999999997</ele><time>2026-04-19T08:18:22.013Z</time></trkpt><trkpt lat="43.4693828" lon="10.6620228"><ele>234.0</ele><time>2026-04-19T08:18:23.008Z</time></trkpt><trkpt lat="43.4694517" lon="10.6621161"><ele>234.0</ele><time>2026-04-19T08:18:24.019Z</time></trkpt><trkpt lat="43.4695316" lon="10.6622014"><ele>232.5</ele><time>2026-04-19T08:18:25.003Z</time></trkpt><trkpt lat="43.4696166" lon="10.6623028"><ele>231.0</ele><time>2026-04-19T08:18:26.006Z</time></trkpt><trkpt lat="43.469701" lon="10.6624112"><ele>229.5</ele><time>2026-04-19T08:18:27.004Z</time></trkpt><trkpt lat="43.4697844" lon="10.6625225"><ele>228.0</ele><time>2026-04-19T08:18:28.013Z</time></trkpt><trkpt lat="43.4698708" lon="10.6626319"><ele>228.0</ele><time>2026-04-19T08:18:29.001Z</time></trkpt><trkpt lat="43.469957" lon="10.6627353"><ele>228.0</ele><time>2026-04-19T08:18:29.999Z</time></trkpt><trkpt lat="43.4700394" lon="10.6628377"><ele>228.0</ele><time>2026-04-19T08:18:31.008Z</time></trkpt><trkpt lat="43.4701151" lon="10.6629375"><ele>228.0</ele><time>2026-04-19T08:18:32.004Z</time></trkpt><trkpt lat="43.4701854" lon="10.6630409"><ele>228.0</ele><time>2026-04-19T08:18:33.007Z</time></trkpt><trkpt lat="43.4702412" lon="10.6631552"><ele>227.2</ele><time>2026-04-19T08:18:34.009Z</time></trkpt><trkpt lat="43.4702735" lon="10.6632772"><ele>226.4</ele><time>2026-04-19T08:18:35Z</time></trkpt><trkpt lat="43.4702896" lon="10.6634204"><ele>225.59999999999997</ele><time>2026-04-19T08:18:36Z</time></trkpt><trkpt lat="43.4702898" lon="10.6635752"><ele>224.79999999999998</ele><time>2026-04-19T08:18:36.998Z</time></trkpt><trkpt lat="43.4702874" lon="10.66373"><ele>224.0</ele><time>2026-04-19T08:18:38.003Z</time></trkpt><trkpt lat="43.4702834" lon="10.6638828"><ele>223.0</ele><time>2026-04-19T08:18:39.005Z</time></trkpt><trkpt lat="43.4702721" lon="10.6640309"><ele>221.99999999999997</ele><time>2026-04-19T08:18:40.001Z</time></trkpt><trkpt lat="43.4702729" lon="10.6641724"><ele>220.99999999999997</ele><time>2026-04-19T08:18:41Z</time></trkpt><trkpt lat="43.4702891" lon="10.6643128"><ele>220.0</ele><time>2026-04-19T08:18:42Z</time></trkpt><trkpt lat="43.4703284" lon="10.6644502"><ele>219.0</ele><time>2026-04-19T08:18:43.001Z</time></trkpt><trkpt lat="43.4703805" lon="10.6645981"><ele>214.5</ele><time>2026-04-19T08:18:43.999Z</time></trkpt><trkpt lat="43.4704491" lon="10.6647418"><ele>210.0</ele><time>2026-04-19T08:18:45.001Z</time></trkpt><trkpt lat="43.4705191" lon="10.6648906"><ele>205.5</ele><time>2026-04-19T08:18:46.008Z</time></trkpt><trkpt lat="43.4705915" lon="10.6650394"><ele>201.0</ele><time>2026-04-19T08:18:47.009Z</time></trkpt><trkpt lat="43.4706649" lon="10.6651776"><ele>199.25</ele><time>2026-04-19T08:18:47.999Z</time></trkpt><trkpt lat="43.4707607" lon="10.6653006"><ele>197.5</ele><time>2026-04-19T08:18:49.008Z</time></trkpt><trkpt lat="43.4708635" lon="10.6653929"><ele>195.75</ele><time>2026-04-19T08:18:50.006Z</time></trkpt><trkpt lat="43.470984" lon="10.6654807"><ele>194.0</ele><time>2026-04-19T08:18:51.007Z</time></trkpt><trkpt lat="43.4711138" lon="10.6655798"><ele>194.0</ele><time>2026-04-19T08:18:52.013Z</time></trkpt><trkpt lat="43.4712482" lon="10.6656861"><ele>194.0</ele><time>2026-04-19T08:18:53.008Z</time></trkpt><trkpt lat="43.4713899" lon="10.6657901"><ele>194.0</ele><time>2026-04-19T08:18:54.001Z</time></trkpt><trkpt lat="43.4715312" lon="10.6659008"><ele>193.33333333333334</ele><time>2026-04-19T08:18:55.003Z</time></trkpt><trkpt lat="43.4716757" lon="10.6660114"><ele>192.66666666666669</ele><time>2026-04-19T08:18:55.998Z</time></trkpt><trkpt lat="43.4718104" lon="10.6661226"><ele>192.0</ele><time>2026-04-19T08:18:57.006Z</time></trkpt><trkpt lat="43.4719522" lon="10.6662282"><ele>190.33333333333334</ele><time>2026-04-19T08:18:58.004Z</time></trkpt><trkpt lat="43.472091" lon="10.6663349"><ele>188.66666666666669</ele><time>2026-04-19T08:18:59.012Z</time></trkpt><trkpt lat="43.4722247" lon="10.6664384"><ele>187.0</ele><time>2026-04-19T08:19:00.018Z</time></trkpt><trkpt lat="43.47236" lon="10.6665418"><ele>187.0</ele><time>2026-04-19T08:19:00.997Z</time></trkpt><trkpt lat="43.472481" lon="10.6666442"><ele>187.0</ele><time>2026-04-19T08:19:02.007Z</time></trkpt><trkpt lat="43.4725942" lon="10.666742"><ele>187.0</ele><time>2026-04-19T08:19:03.002Z</time></trkpt><trkpt lat="43.4726998" lon="10.6668323"><ele>187.0</ele><time>2026-04-19T08:19:03.997Z</time></trkpt><trkpt lat="43.472801" lon="10.6669147"><ele>186.25</ele><time>2026-04-19T08:19:05.005Z</time></trkpt><trkpt lat="43.4728917" lon="10.6670111"><ele>185.5</ele><time>2026-04-19T08:19:06.002Z</time></trkpt><trkpt lat="43.4729595" lon="10.6671152"><ele>184.75</ele><time>2026-04-19T08:19:07.005Z</time></trkpt><trkpt lat="43.4730259" lon="10.6672494"><ele>184.0</ele><time>2026-04-19T08:19:08.017Z</time></trkpt><trkpt lat="43.4730853" lon="10.6673923"><ele>183.0</ele><time>2026-04-19T08:19:09.002Z</time></trkpt><trkpt lat="43.4731508" lon="10.6675269"><ele>182.0</ele><time>2026-04-19T08:19:09.999Z</time></trkpt><trkpt lat="43.4732277" lon="10.6676448"><ele>181.0</ele><time>2026-04-19T08:19:11.006Z</time></trkpt><trkpt lat="43.4733221" lon="10.6677364"><ele>180.0</ele><time>2026-04-19T08:19:12.002Z</time></trkpt><trkpt lat="43.4734237" lon="10.6678014"><ele>178.75</ele><time>2026-04-19T08:19:13.018Z</time></trkpt><trkpt lat="43.4735446" lon="10.6678568"><ele>177.5</ele><time>2026-04-19T08:19:14.001Z</time></trkpt><trkpt lat="43.4736653" lon="10.6679125"><ele>176.25</ele><time>2026-04-19T08:19:14.999Z</time></trkpt><trkpt lat="43.4737923" lon="10.6679695"><ele>175.0</ele><time>2026-04-19T08:19:16.001Z</time></trkpt><trkpt lat="43.4739162" lon="10.668027"><ele>174.0</ele><time>2026-04-19T08:19:17.01Z</time></trkpt><trkpt lat="43.4740456" lon="10.6680872"><ele>173.0</ele><time>2026-04-19T08:19:18.004Z</time></trkpt><trkpt lat="43.4741823" lon="10.6681579"><ele>172.0</ele><time>2026-04-19T08:19:19.004Z</time></trkpt><trkpt lat="43.4743181" lon="10.6682233"><ele>171.0</ele><time>2026-04-19T08:19:20.004Z</time></trkpt><trkpt lat="43.4744523" lon="10.6682926"><ele>171.0</ele><time>2026-04-19T08:19:21.005Z</time></trkpt><trkpt lat="43.4745857" lon="10.6683461"><ele>171.0</ele><time>2026-04-19T08:19:22.018Z</time></trkpt><trkpt lat="43.4747013" lon="10.6683994"><ele>171.0</ele><time>2026-04-19T08:19:23.001Z</time></trkpt><trkpt lat="43.4748069" lon="10.668456"><ele>171.0</ele><time>2026-04-19T08:19:24.001Z</time></trkpt><trkpt lat="43.4749043" lon="10.6685225"><ele>170.0</ele><time>2026-04-19T08:19:25.003Z</time></trkpt><trkpt lat="43.4749967" lon="10.668612"><ele>169.0</ele><time>2026-04-19T08:19:26.008Z</time></trkpt><trkpt lat="43.4750902" lon="10.6687117"><ele>168.0</ele><time>2026-04-19T08:19:27.012Z</time></trkpt><trkpt lat="43.475185" lon="10.6688042"><ele>167.0</ele><time>2026-04-19T08:19:28.002Z</time></trkpt><trkpt lat="43.4752785" lon="10.6688888"><ele>167.0</ele><time>2026-04-19T08:19:29.012Z</time></trkpt><trkpt lat="43.4753821" lon="10.6689436"><ele>167.0</ele><time>2026-04-19T08:19:30.001Z</time></trkpt><trkpt lat="43.4755069" lon="10.6689645"><ele>167.0</ele><time>2026-04-19T08:19:31.008Z</time></trkpt><trkpt lat="43.4756401" lon="10.6689386"><ele>167.0</ele><time>2026-04-19T08:19:31.996Z</time></trkpt><trkpt lat="43.4757839" lon="10.668904"><ele>163.33333333333331</ele><time>2026-04-19T08:19:32.998Z</time></trkpt><trkpt lat="43.4759374" lon="10.6688625"><ele>159.66666666666666</ele><time>2026-04-19T08:19:34.003Z</time></trkpt><trkpt lat="43.4760971" lon="10.668819"><ele>156.0</ele><time>2026-04-19T08:19:34.998Z</time></trkpt><trkpt lat="43.4762692" lon="10.6687673"><ele>156.0</ele><time>2026-04-19T08:19:36.008Z</time></trkpt><trkpt lat="43.4764483" lon="10.6687154"><ele>156.0</ele><time>2026-04-19T08:19:37.005Z</time></trkpt><trkpt lat="43.476636" lon="10.668663"><ele>156.0</ele><time>2026-04-19T08:19:38.001Z</time></trkpt><trkpt lat="43.4768197" lon="10.6686043"><ele>156.0</ele><time>2026-04-19T08:19:39.003Z</time></trkpt><trkpt lat="43.4769967" lon="10.6685469"><ele>156.0</ele><time>2026-04-19T08:19:39.999Z</time></trkpt><trkpt lat="43.4771676" lon="10.6684914"><ele>156.0</ele><time>2026-04-19T08:19:41.007Z</time></trkpt><trkpt lat="43.477337" lon="10.6684479"><ele>157.0</ele><time>2026-04-19T08:19:42.002Z</time></trkpt><trkpt lat="43.4775022" lon="10.6684201"><ele>158.0</ele><time>2026-04-19T08:19:43.001Z</time></trkpt><trkpt lat="43.477667" lon="10.6683919"><ele>159.0</ele><time>2026-04-19T08:19:44.003Z</time></trkpt><trkpt lat="43.4778279" lon="10.6683618"><ele>158.0</ele><time>2026-04-19T08:19:44.994Z</time></trkpt><trkpt lat="43.4779846" lon="10.6683525"><ele>157.0</ele><time>2026-04-19T08:19:46.001Z</time></trkpt><trkpt lat="43.478138" lon="10.6683713"><ele>156.0</ele><time>2026-04-19T08:19:47.003Z</time></trkpt><trkpt lat="43.4782856" lon="10.6684151"><ele>156.0</ele><time>2026-04-19T08:19:48.004Z</time></trkpt><trkpt lat="43.4784327" lon="10.6684606"><ele>156.0</ele><time>2026-04-19T08:19:49.012Z</time></trkpt><trkpt lat="43.4785773" lon="10.6685038"><ele>156.0</ele><time>2026-04-19T08:19:50.007Z</time></trkpt><trkpt lat="43.4787129" lon="10.6685351"><ele>156.0</ele><time>2026-04-19T08:19:51Z</time></trkpt><trkpt lat="43.4788261" lon="10.6685586"><ele>156.0</ele><time>2026-04-19T08:19:51.99Z</time></trkpt><trkpt lat="43.478933" lon="10.668575"><ele>156.0</ele><time>2026-04-19T08:19:53Z</time></trkpt><trkpt lat="43.4790312" lon="10.6685676"><ele>156.0</ele><time>2026-04-19T08:19:54.012Z</time></trkpt><trkpt lat="43.4791249" lon="10.6685501"><ele>156.0</ele><time>2026-04-19T08:19:55.002Z</time></trkpt><trkpt lat="43.4792155" lon="10.6685249"><ele>156.0</ele><time>2026-04-19T08:19:56.011Z</time></trkpt><trkpt lat="43.479307" lon="10.6684716"><ele>156.0</ele><time>2026-04-19T08:19:57.003Z</time></trkpt><trkpt lat="43.4793941" lon="10.6684014"><ele>156.0</ele><time>2026-04-19T08:19:58.002Z</time></trkpt><trkpt lat="43.4794799" lon="10.6683412"><ele>156.0</ele><time>2026-04-19T08:19:59Z</time></trkpt><trkpt lat="43.479573" lon="10.6683066"><ele>156.0</ele><time>2026-04-19T08:20:00.008Z</time></trkpt><trkpt lat="43.4796608" lon="10.6683123"><ele>156.0</ele><time>2026-04-19T08:20:01.008Z</time></trkpt><trkpt lat="43.4797543" lon="10.668359"><ele>155.75</ele><time>2026-04-19T08:20:02.003Z</time></trkpt><trkpt lat="43.479837" lon="10.6684449"><ele>155.5</ele><time>2026-04-19T08:20:03.01Z</time></trkpt><trkpt lat="43.4799029" lon="10.6685595"><ele>155.25</ele><time>2026-04-19T08:20:04.018Z</time></trkpt><trkpt lat="43.4799816" lon="10.6686955"><ele>155.0</ele><time>2026-04-19T08:20:05.009Z</time></trkpt><trkpt lat="43.4800591" lon="10.6688485"><ele>155.0</ele><time>2026-04-19T08:20:05.999Z</time></trkpt><trkpt lat="43.480132" lon="10.6690116"><ele>155.0</ele><time>2026-04-19T08:20:07.008Z</time></trkpt><trkpt lat="43.4802263" lon="10.6691882"><ele>155.0</ele><time>2026-04-19T08:20:08.007Z</time></trkpt><trkpt lat="43.4803343" lon="10.6693683"><ele>156.0</ele><time>2026-04-19T08:20:09.016Z</time></trkpt><trkpt lat="43.4804526" lon="10.6695469"><ele>157.0</ele><time>2026-04-19T08:20:10Z</time></trkpt><trkpt lat="43.4805642" lon="10.6697291"><ele>158.0</ele><time>2026-04-19T08:20:11Z</time></trkpt><trkpt lat="43.4806663" lon="10.6698847"><ele>158.0</ele><time>2026-04-19T08:20:12.001Z</time></trkpt><trkpt lat="43.4807555" lon="10.6700339"><ele>158.0</ele><time>2026-04-19T08:20:13.012Z</time></trkpt><trkpt lat="43.4808362" lon="10.6701705"><ele>158.0</ele><time>2026-04-19T08:20:14.008Z</time></trkpt><trkpt lat="43.480891" lon="10.6703044"><ele>158.0</ele><time>2026-04-19T08:20:15Z</time></trkpt><trkpt lat="43.4809259" lon="10.6704364"><ele>158.4</ele><time>2026-04-19T08:20:16.002Z</time></trkpt><trkpt lat="43.480927" lon="10.670578"><ele>158.8</ele><time>2026-04-19T08:20:17Z</time></trkpt><trkpt lat="43.4809119" lon="10.6707265"><ele>159.2</ele><time>2026-04-19T08:20:18.002Z</time></trkpt><trkpt lat="43.4808797" lon="10.670874"><ele>159.6</ele><time>2026-04-19T08:20:18.997Z</time></trkpt><trkpt lat="43.4808534" lon="10.6710043"><ele>160.0</ele><time>2026-04-19T08:20:20Z</time></trkpt><trkpt lat="43.4808486" lon="10.6711429"><ele>158.0</ele><time>2026-04-19T08:20:21.007Z</time></trkpt><trkpt lat="43.480882" lon="10.6712955"><ele>156.0</ele><time>2026-04-19T08:20:22Z</time></trkpt><trkpt lat="43.4809313" lon="10.6714858"><ele>154.0</ele><time>2026-04-19T08:20:22.993Z</time></trkpt><trkpt lat="43.4809904" lon="10.6717069"><ele>152.0</ele><time>2026-04-19T08:20:23.997Z</time></trkpt><trkpt lat="43.4810422" lon="10.6719321"><ele>149.33333333333331</ele><time>2026-04-19T08:20:25.002Z</time></trkpt><trkpt lat="43.4810966" lon="10.6721575"><ele>146.66666666666666</ele><time>2026-04-19T08:20:26.006Z</time></trkpt><trkpt lat="43.4811428" lon="10.6723756"><ele>144.0</ele><time>2026-04-19T08:20:27.014Z</time></trkpt><trkpt lat="43.4811897" lon="10.6725845"><ele>143.25</ele><time>2026-04-19T08:20:27.998Z</time></trkpt><trkpt lat="43.4812434" lon="10.6727914"><ele>142.5</ele><time>2026-04-19T08:20:29.004Z</time></trkpt><trkpt lat="43.4813013" lon="10.6729817"><ele>141.75</ele><time>2026-04-19T08:20:30.002Z</time></trkpt><trkpt lat="43.4813655" lon="10.6731522"><ele>141.0</ele><time>2026-04-19T08:20:31.004Z</time></trkpt><trkpt lat="43.4814191" lon="10.673311"><ele>140.2</ele><time>2026-04-19T08:20:32.008Z</time></trkpt><trkpt lat="43.4814806" lon="10.6734534"><ele>139.39999999999998</ele><time>2026-04-19T08:20:33Z</time></trkpt><trkpt lat="43.4815578" lon="10.6735764"><ele>138.6</ele><time>2026-04-19T08:20:34.003Z</time></trkpt><trkpt lat="43.4816423" lon="10.6736695"><ele>137.79999999999998</ele><time>2026-04-19T08:20:35.014Z</time></trkpt><trkpt lat="43.4817355" lon="10.6737187"><ele>137.0</ele><time>2026-04-19T08:20:36.001Z</time></trkpt><trkpt lat="43.4818348" lon="10.6737432"><ele>137.0</ele><time>2026-04-19T08:20:36.999Z</time></trkpt><trkpt lat="43.481929" lon="10.673755"><ele>137.0</ele><time>2026-04-19T08:20:38.007Z</time></trkpt><trkpt lat="43.4820026" lon="10.6737669"><ele>137.0</ele><time>2026-04-19T08:20:39.003Z</time></trkpt><trkpt lat="43.4820694" lon="10.6737842"><ele>137.0</ele><time>2026-04-19T08:20:39.997Z</time></trkpt><trkpt lat="43.4821742" lon="10.6738339"><ele>137.0</ele><time>2026-04-19T08:20:41.997Z</time></trkpt><trkpt lat="43.4822237" lon="10.6739101"><ele>137.0</ele><time>2026-04-19T08:20:42.996Z</time></trkpt><trkpt lat="43.4822664" lon="10.6740377"><ele>137.0</ele><time>2026-04-19T08:20:43.994Z</time></trkpt><trkpt lat="43.4822947" lon="10.6741809"><ele>137.0</ele><time>2026-04-19T08:20:45.009Z</time></trkpt><trkpt lat="43.4823296" lon="10.67434"><ele>137.0</ele><time>2026-04-19T08:20:45.998Z</time></trkpt><trkpt lat="43.4823506" lon="10.6745177"><ele>137.0</ele><time>2026-04-19T08:20:46.998Z</time></trkpt><trkpt lat="43.4823555" lon="10.6747082"><ele>137.5</ele><time>2026-04-19T08:20:47.997Z</time></trkpt><trkpt lat="43.4823371" lon="10.6749064"><ele>138.0</ele><time>2026-04-19T08:20:48.996Z</time></trkpt><trkpt lat="43.4823048" lon="10.6751014"><ele>138.5</ele><time>2026-04-19T08:20:50.008Z</time></trkpt><trkpt lat="43.4822541" lon="10.6752951"><ele>139.0</ele><time>2026-04-19T08:20:51.001Z</time></trkpt><trkpt lat="43.4822005" lon="10.6754961"><ele>137.33333333333334</ele><time>2026-04-19T08:20:52.009Z</time></trkpt><trkpt lat="43.4821432" lon="10.6756965"><ele>135.66666666666666</ele><time>2026-04-19T08:20:52.996Z</time></trkpt><trkpt lat="43.4820857" lon="10.6758856"><ele>134.0</ele><time>2026-04-19T08:20:54.007Z</time></trkpt><trkpt lat="43.4820307" lon="10.6760708"><ele>133.0</ele><time>2026-04-19T08:20:55.005Z</time></trkpt><trkpt lat="43.4819699" lon="10.6762574"><ele>132.0</ele><time>2026-04-19T08:20:56.001Z</time></trkpt><trkpt lat="43.4819154" lon="10.6764418"><ele>131.0</ele><time>2026-04-19T08:20:57.009Z</time></trkpt><trkpt lat="43.481857" lon="10.6766327"><ele>130.0</ele><time>2026-04-19T08:20:58.005Z</time></trkpt><trkpt lat="43.4817989" lon="10.6768274"><ele>129.0</ele><time>2026-04-19T08:20:59.011Z</time></trkpt><trkpt lat="43.4817381" lon="10.6770299"><ele>128.0</ele><time>2026-04-19T08:21:00.005Z</time></trkpt><trkpt lat="43.4816781" lon="10.6772307"><ele>127.0</ele><time>2026-04-19T08:21:00.999Z</time></trkpt><trkpt lat="43.4816162" lon="10.677434"><ele>127.0</ele><time>2026-04-19T08:21:02.014Z</time></trkpt><trkpt lat="43.4815558" lon="10.6776437"><ele>127.0</ele><time>2026-04-19T08:21:03.01Z</time></trkpt><trkpt lat="43.4814969" lon="10.6778499"><ele>127.0</ele><time>2026-04-19T08:21:04.019Z</time></trkpt><trkpt lat="43.4814578" lon="10.6780691"><ele>126.33333333333334</ele><time>2026-04-19T08:21:05.004Z</time></trkpt><trkpt lat="43.4814232" lon="10.6782908"><ele>125.66666666666666</ele><time>2026-04-19T08:21:06.001Z</time></trkpt><trkpt lat="43.4814011" lon="10.6785082"><ele>125.0</ele><time>2026-04-19T08:21:07.01Z</time></trkpt><trkpt lat="43.4813905" lon="10.6787298"><ele>124.33333333333333</ele><time>2026-04-19T08:21:08.001Z</time></trkpt><trkpt lat="43.4813747" lon="10.6789536"><ele>123.66666666666666</ele><time>2026-04-19T08:21:09.033Z</time></trkpt><trkpt lat="43.4813623" lon="10.6791754"><ele>123.0</ele><time>2026-04-19T08:21:10.014Z</time></trkpt><trkpt lat="43.4813503" lon="10.6794025"><ele>122.33333333333334</ele><time>2026-04-19T08:21:11.002Z</time></trkpt><trkpt lat="43.4813358" lon="10.6796381"><ele>121.66666666666667</ele><time>2026-04-19T08:21:12.013Z</time></trkpt><trkpt lat="43.4813237" lon="10.6798791"><ele>121.0</ele><time>2026-04-19T08:21:13.006Z</time></trkpt><trkpt lat="43.4813085" lon="10.6801206"><ele>120.66666666666667</ele><time>2026-04-19T08:21:14.011Z</time></trkpt><trkpt lat="43.4812872" lon="10.6803692"><ele>120.33333333333334</ele><time>2026-04-19T08:21:15.007Z</time></trkpt><trkpt lat="43.481268" lon="10.6806176"><ele>120.0</ele><time>2026-04-19T08:21:16.001Z</time></trkpt><trkpt lat="43.4812504" lon="10.6808709"><ele>119.66666666666666</ele><time>2026-04-19T08:21:17.01Z</time></trkpt><trkpt lat="43.4812357" lon="10.6811281"><ele>119.33333333333333</ele><time>2026-04-19T08:21:18.006Z</time></trkpt><trkpt lat="43.4812174" lon="10.6813822"><ele>119.0</ele><time>2026-04-19T08:21:19.005Z</time></trkpt><trkpt lat="43.4812051" lon="10.6816361"><ele>119.0</ele><time>2026-04-19T08:21:20.003Z</time></trkpt><trkpt lat="43.4811915" lon="10.6818894"><ele>119.0</ele><time>2026-04-19T08:21:20.997Z</time></trkpt><trkpt lat="43.4811798" lon="10.6821449"><ele>119.0</ele><time>2026-04-19T08:21:22Z</time></trkpt><trkpt lat="43.4811662" lon="10.6823886"><ele>118.66666666666666</ele><time>2026-04-19T08:21:23.001Z</time></trkpt><trkpt lat="43.4811556" lon="10.6826188"><ele>118.33333333333334</ele><time>2026-04-19T08:21:24.018Z</time></trkpt><trkpt lat="43.4811468" lon="10.6828347"><ele>118.0</ele><time>2026-04-19T08:21:25.001Z</time></trkpt><trkpt lat="43.4811395" lon="10.6830358"><ele>117.5</ele><time>2026-04-19T08:21:26.001Z</time></trkpt><trkpt lat="43.4811477" lon="10.6832315"><ele>117.0</ele><time>2026-04-19T08:21:27.003Z</time></trkpt><trkpt lat="43.4811928" lon="10.6834244"><ele>116.5</ele><time>2026-04-19T08:21:28.008Z</time></trkpt><trkpt lat="43.4812555" lon="10.6836112"><ele>116.0</ele><time>2026-04-19T08:21:29.002Z</time></trkpt><trkpt lat="43.4813379" lon="10.6838121"><ele>116.0</ele><time>2026-04-19T08:21:30.006Z</time></trkpt><trkpt lat="43.4814225" lon="10.6840037"><ele>116.0</ele><time>2026-04-19T08:21:30.996Z</time></trkpt><trkpt lat="43.4814996" lon="10.684209"><ele>116.0</ele><time>2026-04-19T08:21:32.004Z</time></trkpt><trkpt lat="43.4815598" lon="10.6844092"><ele>115.66666666666666</ele><time>2026-04-19T08:21:33.003Z</time></trkpt><trkpt lat="43.4816097" lon="10.6846217"><ele>115.33333333333334</ele><time>2026-04-19T08:21:34.008Z</time></trkpt><trkpt lat="43.4816435" lon="10.6848444"><ele>115.0</ele><time>2026-04-19T08:21:34.995Z</time></trkpt><trkpt lat="43.4816748" lon="10.6850688"><ele>114.33333333333334</ele><time>2026-04-19T08:21:36Z</time></trkpt><trkpt lat="43.4817025" lon="10.6853001"><ele>113.66666666666666</ele><time>2026-04-19T08:21:36.993Z</time></trkpt><trkpt lat="43.4817201" lon="10.6855134"><ele>113.0</ele><time>2026-04-19T08:21:38.007Z</time></trkpt><trkpt lat="43.4817213" lon="10.6857245"><ele>113.0</ele><time>2026-04-19T08:21:39.002Z</time></trkpt><trkpt lat="43.4816977" lon="10.6859203"><ele>113.0</ele><time>2026-04-19T08:21:40.004Z</time></trkpt><trkpt lat="43.4816466" lon="10.6861195"><ele>113.0</ele><time>2026-04-19T08:21:41.001Z</time></trkpt><trkpt lat="43.4815913" lon="10.6863308"><ele>113.33333333333333</ele><time>2026-04-19T08:21:41.993Z</time></trkpt><trkpt lat="43.4815467" lon="10.6865534"><ele>113.66666666666666</ele><time>2026-04-19T08:21:43.006Z</time></trkpt><trkpt lat="43.4815036" lon="10.6867758"><ele>114.0</ele><time>2026-04-19T08:21:43.994Z</time></trkpt><trkpt lat="43.4814606" lon="10.687004"><ele>115.0</ele><time>2026-04-19T08:21:45.017Z</time></trkpt><trkpt lat="43.4814177" lon="10.6872287"><ele>116.0</ele><time>2026-04-19T08:21:45.995Z</time></trkpt><trkpt lat="43.4813854" lon="10.687458"><ele>117.0</ele><time>2026-04-19T08:21:46.994Z</time></trkpt><trkpt lat="43.4813509" lon="10.6876818"><ele>117.33333333333334</ele><time>2026-04-19T08:21:48.003Z</time></trkpt><trkpt lat="43.481328" lon="10.6879087"><ele>117.66666666666667</ele><time>2026-04-19T08:21:48.996Z</time></trkpt><trkpt lat="43.4813247" lon="10.6881269"><ele>118.0</ele><time>2026-04-19T08:21:50.001Z</time></trkpt><trkpt lat="43.4813317" lon="10.6883404"><ele>118.0</ele><time>2026-04-19T08:21:50.995Z</time></trkpt><trkpt lat="43.4813525" lon="10.6885421"><ele>118.0</ele><time>2026-04-19T08:21:52.006Z</time></trkpt><trkpt lat="43.4813742" lon="10.6887336"><ele>118.0</ele><time>2026-04-19T08:21:52.999Z</time></trkpt><trkpt lat="43.4813871" lon="10.6889166"><ele>118.0</ele><time>2026-04-19T08:21:53.99Z</time></trkpt><trkpt lat="43.4813961" lon="10.6891032"><ele>117.0</ele><time>2026-04-19T08:21:54.995Z</time></trkpt><trkpt lat="43.4814048" lon="10.6893022"><ele>116.0</ele><time>2026-04-19T08:21:56.005Z</time></trkpt><trkpt lat="43.4814154" lon="10.6895087"><ele>115.0</ele><time>2026-04-19T08:21:57.002Z</time></trkpt><trkpt lat="43.4814287" lon="10.6897149"><ele>114.0</ele><time>2026-04-19T08:21:57.998Z</time></trkpt><trkpt lat="43.4814323" lon="10.6899282"><ele>113.0</ele><time>2026-04-19T08:21:59.002Z</time></trkpt><trkpt lat="43.4814126" lon="10.6901439"><ele>112.0</ele><time>2026-04-19T08:21:59.999Z</time></trkpt><trkpt lat="43.4813843" lon="10.6903682"><ele>111.0</ele><time>2026-04-19T08:22:01.001Z</time></trkpt><trkpt lat="43.4813455" lon="10.6905919"><ele>111.0</ele><time>2026-04-19T08:22:02.001Z</time></trkpt><trkpt lat="43.4813027" lon="10.690814"><ele>111.0</ele><time>2026-04-19T08:22:02.999Z</time></trkpt><trkpt lat="43.4812611" lon="10.691044"><ele>111.0</ele><time>2026-04-19T08:22:04Z</time></trkpt><trkpt lat="43.481223" lon="10.6912781"><ele>110.33333333333334</ele><time>2026-04-19T08:22:05Z</time></trkpt><trkpt lat="43.481176" lon="10.6915083"><ele>109.66666666666667</ele><time>2026-04-19T08:22:05.999Z</time></trkpt><trkpt lat="43.4811277" lon="10.6917451"><ele>109.0</ele><time>2026-04-19T08:22:07.004Z</time></trkpt><trkpt lat="43.4810886" lon="10.691975"><ele>108.33333333333334</ele><time>2026-04-19T08:22:08.008Z</time></trkpt><trkpt lat="43.4810503" lon="10.6921988"><ele>107.66666666666666</ele><time>2026-04-19T08:22:09.002Z</time></trkpt><trkpt lat="43.4810193" lon="10.6924164"><ele>107.0</ele><time>2026-04-19T08:22:10.002Z</time></trkpt><trkpt lat="43.4809953" lon="10.6926148"><ele>106.75</ele><time>2026-04-19T08:22:11.004Z</time></trkpt><trkpt lat="43.4809578" lon="10.692799"><ele>106.5</ele><time>2026-04-19T08:22:12.015Z</time></trkpt><trkpt lat="43.4809071" lon="10.6929652"><ele>106.25</ele><time>2026-04-19T08:22:13.001Z</time></trkpt><trkpt lat="43.4808514" lon="10.6931108"><ele>106.0</ele><time>2026-04-19T08:22:14.005Z</time></trkpt><trkpt lat="43.4807861" lon="10.693267"><ele>106.0</ele><time>2026-04-19T08:22:15.008Z</time></trkpt><trkpt lat="43.4807244" lon="10.6934238"><ele>106.0</ele><time>2026-04-19T08:22:16.001Z</time></trkpt><trkpt lat="43.4806473" lon="10.6935673"><ele>106.0</ele><time>2026-04-19T08:22:17.023Z</time></trkpt><trkpt lat="43.4805481" lon="10.6936846"><ele>106.0</ele><time>2026-04-19T08:22:18.007Z</time></trkpt><trkpt lat="43.480427" lon="10.693775"><ele>106.25</ele><time>2026-04-19T08:22:19.001Z</time></trkpt><trkpt lat="43.480291" lon="10.693833"><ele>106.5</ele><time>2026-04-19T08:22:19.992Z</time></trkpt><trkpt lat="43.4801579" lon="10.6939082"><ele>106.75</ele><time>2026-04-19T08:22:20.998Z</time></trkpt><trkpt lat="43.4800382" lon="10.6940245"><ele>107.0</ele><time>2026-04-19T08:22:21.999Z</time></trkpt><trkpt lat="43.4799216" lon="10.694162"><ele>107.0</ele><time>2026-04-19T08:22:23.001Z</time></trkpt><trkpt lat="43.4798018" lon="10.6943097"><ele>107.0</ele><time>2026-04-19T08:22:24.002Z</time></trkpt><trkpt lat="43.4796883" lon="10.694478"><ele>107.0</ele><time>2026-04-19T08:22:25.006Z</time></trkpt><trkpt lat="43.479574" lon="10.6946529"><ele>105.66666666666666</ele><time>2026-04-19T08:22:26Z</time></trkpt><trkpt lat="43.4794595" lon="10.6948417"><ele>104.33333333333334</ele><time>2026-04-19T08:22:27.005Z</time></trkpt><trkpt lat="43.4793605" lon="10.6950396"><ele>103.0</ele><time>2026-04-19T08:22:28.002Z</time></trkpt><trkpt lat="43.479275" lon="10.6952503"><ele>103.66666666666667</ele><time>2026-04-19T08:22:29.005Z</time></trkpt><trkpt lat="43.4791993" lon="10.6954675"><ele>104.33333333333334</ele><time>2026-04-19T08:22:30.001Z</time></trkpt><trkpt lat="43.4791268" lon="10.6956927"><ele>105.0</ele><time>2026-04-19T08:22:31.007Z</time></trkpt><trkpt lat="43.4790613" lon="10.695924"><ele>104.66666666666666</ele><time>2026-04-19T08:22:32.005Z</time></trkpt><trkpt lat="43.4790203" lon="10.6961416"><ele>104.33333333333333</ele><time>2026-04-19T08:22:33Z</time></trkpt><trkpt lat="43.4789782" lon="10.6963567"><ele>104.0</ele><time>2026-04-19T08:22:34.005Z</time></trkpt><trkpt lat="43.4789438" lon="10.6965558"><ele>104.0</ele><time>2026-04-19T08:22:35.008Z</time></trkpt><trkpt lat="43.47891" lon="10.6967423"><ele>104.0</ele><time>2026-04-19T08:22:35.999Z</time></trkpt><trkpt lat="43.4788762" lon="10.6969226"><ele>104.0</ele><time>2026-04-19T08:22:37.011Z</time></trkpt><trkpt lat="43.4788339" lon="10.6970839"><ele>104.0</ele><time>2026-04-19T08:22:38.009Z</time></trkpt><trkpt lat="43.4787888" lon="10.6972374"><ele>102.5</ele><time>2026-04-19T08:22:39.011Z</time></trkpt><trkpt lat="43.4787196" lon="10.6973743"><ele>101.0</ele><time>2026-04-19T08:22:39.996Z</time></trkpt><trkpt lat="43.4786244" lon="10.69748"><ele>99.5</ele><time>2026-04-19T08:22:41.007Z</time></trkpt><trkpt lat="43.4785139" lon="10.6975803"><ele>98.0</ele><time>2026-04-19T08:22:41.999Z</time></trkpt><trkpt lat="43.478402" lon="10.6976693"><ele>97.5</ele><time>2026-04-19T08:22:43.002Z</time></trkpt><trkpt lat="43.4782781" lon="10.6977561"><ele>97.0</ele><time>2026-04-19T08:22:44.005Z</time></trkpt><trkpt lat="43.478155" lon="10.6978495"><ele>96.5</ele><time>2026-04-19T08:22:45.006Z</time></trkpt><trkpt lat="43.4780411" lon="10.6979404"><ele>96.0</ele><time>2026-04-19T08:22:46Z</time></trkpt><trkpt lat="43.4779266" lon="10.6980316"><ele>96.0</ele><time>2026-04-19T08:22:47.019Z</time></trkpt><trkpt lat="43.4778313" lon="10.6981142"><ele>96.0</ele><time>2026-04-19T08:22:48.01Z</time></trkpt><trkpt lat="43.477752" lon="10.6981955"><ele>96.0</ele><time>2026-04-19T08:22:49.008Z</time></trkpt><trkpt lat="43.4776907" lon="10.69828"><ele>96.0</ele><time>2026-04-19T08:22:50.007Z</time></trkpt><trkpt lat="43.4776401" lon="10.6983595"><ele>96.0</ele><time>2026-04-19T08:22:51Z</time></trkpt><trkpt lat="43.4775998" lon="10.6984273"><ele>96.0</ele><time>2026-04-19T08:22:52.005Z</time></trkpt><trkpt lat="43.4775303" lon="10.6985042"><ele>96.0</ele><time>2026-04-19T08:22:54.004Z</time></trkpt><trkpt lat="43.4774678" lon="10.6984711"><ele>96.0</ele><time>2026-04-19T08:22:56.015Z</time></trkpt><trkpt lat="43.4774105" lon="10.6983861"><ele>96.0</ele><time>2026-04-19T08:22:59.012Z</time></trkpt><trkpt lat="43.4773384" lon="10.6983679"><ele>96.0</ele><time>2026-04-19T08:23:02.005Z</time></trkpt><trkpt lat="43.4772327" lon="10.6984193"><ele>96.0</ele><time>2026-04-19T08:23:03.994Z</time></trkpt><trkpt lat="43.4771755" lon="10.6984594"><ele>96.0</ele><time>2026-04-19T08:23:04.997Z</time></trkpt><trkpt lat="43.4771215" lon="10.6985145"><ele>95.8</ele><time>2026-04-19T08:23:06.001Z</time></trkpt><trkpt lat="43.4770385" lon="10.6986247"><ele>95.6</ele><time>2026-04-19T08:23:08.001Z</time></trkpt><trkpt lat="43.4769545" lon="10.6987486"><ele>95.4</ele><time>2026-04-19T08:23:10.002Z</time></trkpt><trkpt lat="43.4769311" lon="10.6988333"><ele>95.2</ele><time>2026-04-19T08:23:10.996Z</time></trkpt><trkpt lat="43.4769261" lon="10.6989323"><ele>95.0</ele><time>2026-04-19T08:23:12.006Z</time></trkpt><trkpt lat="43.4769147" lon="10.6990361"><ele>95.0</ele><time>2026-04-19T08:23:13.001Z</time></trkpt><trkpt lat="43.4769046" lon="10.6991402"><ele>95.0</ele><time>2026-04-19T08:23:14.004Z</time></trkpt><trkpt lat="43.476904" lon="10.6992371"><ele>95.0</ele><time>2026-04-19T08:23:14.998Z</time></trkpt><trkpt lat="43.4769127" lon="10.6993463"><ele>95.0</ele><time>2026-04-19T08:23:15.994Z</time></trkpt><trkpt lat="43.4769257" lon="10.6994686"><ele>95.0</ele><time>2026-04-19T08:23:17.004Z</time></trkpt><trkpt lat="43.4769255" lon="10.6996013"><ele>95.0</ele><time>2026-04-19T08:23:18.001Z</time></trkpt><trkpt lat="43.4769128" lon="10.699728"><ele>95.0</ele><time>2026-04-19T08:23:18.997Z</time></trkpt><trkpt lat="43.476887" lon="10.6998926"><ele>95.0</ele><time>2026-04-19T08:23:20.017Z</time></trkpt><trkpt lat="43.476855" lon="10.7001209"><ele>95.0</ele><time>2026-04-19T08:23:20.998Z</time></trkpt><trkpt lat="43.4768136" lon="10.7003471"><ele>95.33333333333334</ele><time>2026-04-19T08:23:22.001Z</time></trkpt><trkpt lat="43.4767538" lon="10.7005807"><ele>95.66666666666667</ele><time>2026-04-19T08:23:23.005Z</time></trkpt><trkpt lat="43.4766924" lon="10.7008405"><ele>96.0</ele><time>2026-04-19T08:23:24.008Z</time></trkpt><trkpt lat="43.4766109" lon="10.7011218"><ele>95.0</ele><time>2026-04-19T08:23:25.005Z</time></trkpt><trkpt lat="43.4765182" lon="10.7014235"><ele>94.0</ele><time>2026-04-19T08:23:26.003Z</time></trkpt><trkpt lat="43.4764161" lon="10.7017466"><ele>94.5</ele><time>2026-04-19T08:23:26.999Z</time></trkpt><trkpt lat="43.4763214" lon="10.7020639"><ele>95.0</ele><time>2026-04-19T08:23:28.003Z</time></trkpt><trkpt lat="43.4762249" lon="10.702386"><ele>95.0</ele><time>2026-04-19T08:23:29.012Z</time></trkpt><trkpt lat="43.4761241" lon="10.7027338"><ele>95.0</ele><time>2026-04-19T08:23:29.998Z</time></trkpt><trkpt lat="43.4760263" lon="10.70307"><ele>95.0</ele><time>2026-04-19T08:23:30.998Z</time></trkpt><trkpt lat="43.475932" lon="10.7033868"><ele>95.0</ele><time>2026-04-19T08:23:31.995Z</time></trkpt><trkpt lat="43.4758462" lon="10.7036799"><ele>94.66666666666667</ele><time>2026-04-19T08:23:33.006Z</time></trkpt><trkpt lat="43.4757655" lon="10.7039471"><ele>94.33333333333333</ele><time>2026-04-19T08:23:34.003Z</time></trkpt><trkpt lat="43.4756851" lon="10.7042"><ele>94.0</ele><time>2026-04-19T08:23:34.997Z</time></trkpt><trkpt lat="43.4756167" lon="10.7044244"><ele>94.0</ele><time>2026-04-19T08:23:35.997Z</time></trkpt><trkpt lat="43.4755603" lon="10.7046301"><ele>94.0</ele><time>2026-04-19T08:23:36.999Z</time></trkpt><trkpt lat="43.4755073" lon="10.704801"><ele>94.0</ele><time>2026-04-19T08:23:38.016Z</time></trkpt><trkpt lat="43.4754476" lon="10.7049611"><ele>94.0</ele><time>2026-04-19T08:23:39.019Z</time></trkpt><trkpt lat="43.475376" lon="10.7051051"><ele>94.66666666666666</ele><time>2026-04-19T08:23:40.009Z</time></trkpt><trkpt lat="43.4752797" lon="10.7052328"><ele>95.33333333333333</ele><time>2026-04-19T08:23:41.012Z</time></trkpt><trkpt lat="43.4751494" lon="10.7053613"><ele>96.0</ele><time>2026-04-19T08:23:42.002Z</time></trkpt><trkpt lat="43.4750105" lon="10.7054673"><ele>96.0</ele><time>2026-04-19T08:23:43.005Z</time></trkpt><trkpt lat="43.4748608" lon="10.7055816"><ele>96.0</ele><time>2026-04-19T08:23:44.013Z</time></trkpt><trkpt lat="43.474717" lon="10.7056916"><ele>96.0</ele><time>2026-04-19T08:23:45.006Z</time></trkpt><trkpt lat="43.4746" lon="10.7057932"><ele>96.5</ele><time>2026-04-19T08:23:46.011Z</time></trkpt><trkpt lat="43.4744858" lon="10.7058955"><ele>97.0</ele><time>2026-04-19T08:23:47.015Z</time></trkpt><trkpt lat="43.4743986" lon="10.7060187"><ele>97.5</ele><time>2026-04-19T08:23:48.008Z</time></trkpt><trkpt lat="43.4743479" lon="10.7061704"><ele>98.0</ele><time>2026-04-19T08:23:49.004Z</time></trkpt><trkpt lat="43.4743149" lon="10.7063577"><ele>98.0</ele><time>2026-04-19T08:23:50.014Z</time></trkpt><trkpt lat="43.4742945" lon="10.7065686"><ele>98.0</ele><time>2026-04-19T08:23:51.008Z</time></trkpt><trkpt lat="43.4742824" lon="10.7068098"><ele>98.0</ele><time>2026-04-19T08:23:52.01Z</time></trkpt><trkpt lat="43.4742595" lon="10.7070821"><ele>98.5</ele><time>2026-04-19T08:23:52.999Z</time></trkpt><trkpt lat="43.4742528" lon="10.707308"><ele>99.0</ele><time>2026-04-19T08:23:54.01Z</time></trkpt><trkpt lat="43.4742451" lon="10.7074754"><ele>99.5</ele><time>2026-04-19T08:23:55.009Z</time></trkpt><trkpt lat="43.4742502" lon="10.7076079"><ele>100.0</ele><time>2026-04-19T08:23:56.011Z</time></trkpt><trkpt lat="43.4742738" lon="10.707733"><ele>101.4</ele><time>2026-04-19T08:23:57.008Z</time></trkpt><trkpt lat="43.4743161" lon="10.707843"><ele>102.8</ele><time>2026-04-19T08:23:57.997Z</time></trkpt><trkpt lat="43.4743763" lon="10.7079274"><ele>104.19999999999999</ele><time>2026-04-19T08:23:59.014Z</time></trkpt><trkpt lat="43.4744635" lon="10.7079935"><ele>105.6</ele><time>2026-04-19T08:24:00.01Z</time></trkpt><trkpt lat="43.4745553" lon="10.708022"><ele>107.0</ele><time>2026-04-19T08:24:01Z</time></trkpt><trkpt lat="43.4746481" lon="10.7079877"><ele>108.25</ele><time>2026-04-19T08:24:02.009Z</time></trkpt><trkpt lat="43.4747368" lon="10.7079024"><ele>109.5</ele><time>2026-04-19T08:24:03.002Z</time></trkpt><trkpt lat="43.4748335" lon="10.7078026"><ele>110.75</ele><time>2026-04-19T08:24:04.008Z</time></trkpt><trkpt lat="43.4749441" lon="10.7077391"><ele>112.0</ele><time>2026-04-19T08:24:05Z</time></trkpt><trkpt lat="43.475057" lon="10.7077104"><ele>112.25</ele><time>2026-04-19T08:24:05.998Z</time></trkpt><trkpt lat="43.475191" lon="10.707694"><ele>112.5</ele><time>2026-04-19T08:24:07.004Z</time></trkpt><trkpt lat="43.4753435" lon="10.7076992"><ele>112.75</ele><time>2026-04-19T08:24:07.999Z</time></trkpt><trkpt lat="43.4754855" lon="10.7077239"><ele>113.0</ele><time>2026-04-19T08:24:09.003Z</time></trkpt><trkpt lat="43.47562" lon="10.7077687"><ele>113.0</ele><time>2026-04-19T08:24:10.006Z</time></trkpt><trkpt lat="43.4757319" lon="10.707821"><ele>113.00000000000001</ele><time>2026-04-19T08:24:10.998Z</time></trkpt><trkpt lat="43.4758127" lon="10.7078894"><ele>113.00000000000001</ele><time>2026-04-19T08:24:12.015Z</time></trkpt><trkpt lat="43.4758949" lon="10.7079718"><ele>113.0</ele><time>2026-04-19T08:24:13.003Z</time></trkpt><trkpt lat="43.4759714" lon="10.7080821"><ele>113.0</ele><time>2026-04-19T08:24:14.004Z</time></trkpt><trkpt lat="43.4760485" lon="10.7082295"><ele>113.0</ele><time>2026-04-19T08:24:15.006Z</time></trkpt><trkpt lat="43.4761095" lon="10.7083781"><ele>113.00000000000001</ele><time>2026-04-19T08:24:16.004Z</time></trkpt><trkpt lat="43.4761632" lon="10.7085164"><ele>113.00000000000001</ele><time>2026-04-19T08:24:17.002Z</time></trkpt><trkpt lat="43.4761891" lon="10.7086532"><ele>113.0</ele><time>2026-04-19T08:24:18Z</time></trkpt><trkpt lat="43.4761932" lon="10.7087853"><ele>113.0</ele><time>2026-04-19T08:24:19.006Z</time></trkpt><trkpt lat="43.4761789" lon="10.708906"><ele>114.75</ele><time>2026-04-19T08:24:20.007Z</time></trkpt><trkpt lat="43.4761567" lon="10.7090384"><ele>116.5</ele><time>2026-04-19T08:24:20.998Z</time></trkpt><trkpt lat="43.4761117" lon="10.7091768"><ele>118.25</ele><time>2026-04-19T08:24:21.996Z</time></trkpt><trkpt lat="43.4760501" lon="10.7093573"><ele>120.0</ele><time>2026-04-19T08:24:22.997Z</time></trkpt><trkpt lat="43.4759852" lon="10.7095361"><ele>120.0</ele><time>2026-04-19T08:24:23.997Z</time></trkpt><trkpt lat="43.4759242" lon="10.7096987"><ele>120.0</ele><time>2026-04-19T08:24:25.004Z</time></trkpt><trkpt lat="43.475843" lon="10.709854"><ele>120.0</ele><time>2026-04-19T08:24:26.003Z</time></trkpt><trkpt lat="43.475739" lon="10.7099918"><ele>120.0</ele><time>2026-04-19T08:24:26.998Z</time></trkpt><trkpt lat="43.4756157" lon="10.7101297"><ele>120.0</ele><time>2026-04-19T08:24:27.997Z</time></trkpt><trkpt lat="43.4754895" lon="10.710278"><ele>120.0</ele><time>2026-04-19T08:24:29.005Z</time></trkpt><trkpt lat="43.4753741" lon="10.710424"><ele>120.0</ele><time>2026-04-19T08:24:30.008Z</time></trkpt><trkpt lat="43.4752862" lon="10.7106177"><ele>123.66666666666666</ele><time>2026-04-19T08:24:30.994Z</time></trkpt><trkpt lat="43.4752073" lon="10.7108473"><ele>127.33333333333333</ele><time>2026-04-19T08:24:32.004Z</time></trkpt><trkpt lat="43.475127" lon="10.7110958"><ele>131.0</ele><time>2026-04-19T08:24:33.001Z</time></trkpt><trkpt lat="43.4750581" lon="10.7113336"><ele>131.0</ele><time>2026-04-19T08:24:34.008Z</time></trkpt><trkpt lat="43.4749956" lon="10.7115332"><ele>131.0</ele><time>2026-04-19T08:24:35.001Z</time></trkpt><trkpt lat="43.4749333" lon="10.7117024"><ele>131.0</ele><time>2026-04-19T08:24:36Z</time></trkpt><trkpt lat="43.4748777" lon="10.7118307"><ele>131.0</ele><time>2026-04-19T08:24:36.996Z</time></trkpt><trkpt lat="43.4748111" lon="10.7119345"><ele>131.25</ele><time>2026-04-19T08:24:38.006Z</time></trkpt><trkpt lat="43.4747247" lon="10.7119925"><ele>131.5</ele><time>2026-04-19T08:24:39.01Z</time></trkpt><trkpt lat="43.4746211" lon="10.7120179"><ele>131.75</ele><time>2026-04-19T08:24:39.997Z</time></trkpt><trkpt lat="43.4744939" lon="10.712031"><ele>132.0</ele><time>2026-04-19T08:24:41.005Z</time></trkpt><trkpt lat="43.4743358" lon="10.712035"><ele>133.2</ele><time>2026-04-19T08:24:42.002Z</time></trkpt><trkpt lat="43.4741991" lon="10.7120361"><ele>134.39999999999998</ele><time>2026-04-19T08:24:43Z</time></trkpt><trkpt lat="43.474089" lon="10.7120532"><ele>135.60000000000002</ele><time>2026-04-19T08:24:44.008Z</time></trkpt><trkpt lat="43.4739989" lon="10.7120875"><ele>136.8</ele><time>2026-04-19T08:24:45.006Z</time></trkpt><trkpt lat="43.4739304" lon="10.7121414"><ele>138.0</ele><time>2026-04-19T08:24:46.004Z</time></trkpt><trkpt lat="43.4738712" lon="10.7122565"><ele>138.0</ele><time>2026-04-19T08:24:46.999Z</time></trkpt><trkpt lat="43.4738354" lon="10.712415"><ele>138.0</ele><time>2026-04-19T08:24:48.004Z</time></trkpt><trkpt lat="43.4738245" lon="10.7126172"><ele>138.0</ele><time>2026-04-19T08:24:49.001Z</time></trkpt><trkpt lat="43.4738102" lon="10.7128515"><ele>138.0</ele><time>2026-04-19T08:24:50.008Z</time></trkpt><trkpt lat="43.4738009" lon="10.7131007"><ele>139.0</ele><time>2026-04-19T08:24:51.005Z</time></trkpt><trkpt lat="43.4737884" lon="10.7133341"><ele>140.0</ele><time>2026-04-19T08:24:52.025Z</time></trkpt><trkpt lat="43.4737758" lon="10.7135579"><ele>141.0</ele><time>2026-04-19T08:24:53.003Z</time></trkpt><trkpt lat="43.4737593" lon="10.7137688"><ele>140.5</ele><time>2026-04-19T08:24:54Z</time></trkpt><trkpt lat="43.47376" lon="10.7139594"><ele>140.0</ele><time>2026-04-19T08:24:54.992Z</time></trkpt><trkpt lat="43.4737539" lon="10.7141298"><ele>139.5</ele><time>2026-04-19T08:24:56.002Z</time></trkpt><trkpt lat="43.4737599" lon="10.7142945"><ele>139.0</ele><time>2026-04-19T08:24:57.007Z</time></trkpt><trkpt lat="43.4737886" lon="10.7144576"><ele>139.0</ele><time>2026-04-19T08:24:58.005Z</time></trkpt><trkpt lat="43.473849" lon="10.714633"><ele>139.0</ele><time>2026-04-19T08:24:59.007Z</time></trkpt><trkpt lat="43.4739173" lon="10.7148104"><ele>139.0</ele><time>2026-04-19T08:25:00.016Z</time></trkpt><trkpt lat="43.4739809" lon="10.7149973"><ele>139.0</ele><time>2026-04-19T08:25:01.003Z</time></trkpt><trkpt lat="43.4740298" lon="10.7151727"><ele>138.75</ele><time>2026-04-19T08:25:01.999Z</time></trkpt><trkpt lat="43.4740623" lon="10.7153403"><ele>138.5</ele><time>2026-04-19T08:25:02.995Z</time></trkpt><trkpt lat="43.474083" lon="10.7154981"><ele>138.25</ele><time>2026-04-19T08:25:04.017Z</time></trkpt><trkpt lat="43.474084" lon="10.7156602"><ele>138.0</ele><time>2026-04-19T08:25:05.006Z</time></trkpt><trkpt lat="43.4740816" lon="10.7158284"><ele>138.0</ele><time>2026-04-19T08:25:05.995Z</time></trkpt><trkpt lat="43.4740642" lon="10.7159932"><ele>138.0</ele><time>2026-04-19T08:25:06.994Z</time></trkpt><trkpt lat="43.4740325" lon="10.716149"><ele>138.0</ele><time>2026-04-19T08:25:08.01Z</time></trkpt><trkpt lat="43.4739912" lon="10.7162774"><ele>138.0</ele><time>2026-04-19T08:25:09.001Z</time></trkpt><trkpt lat="43.4739475" lon="10.7163965"><ele>138.0</ele><time>2026-04-19T08:25:10.002Z</time></trkpt><trkpt lat="43.4739" lon="10.7165081"><ele>137.6</ele><time>2026-04-19T08:25:11.001Z</time></trkpt><trkpt lat="43.4738418" lon="10.7166035"><ele>137.20000000000002</ele><time>2026-04-19T08:25:12.007Z</time></trkpt><trkpt lat="43.473779" lon="10.7167064"><ele>136.8</ele><time>2026-04-19T08:25:13.007Z</time></trkpt><trkpt lat="43.4737144" lon="10.7168135"><ele>136.4</ele><time>2026-04-19T08:25:13.997Z</time></trkpt><trkpt lat="43.473647" lon="10.716912"><ele>136.0</ele><time>2026-04-19T08:25:15.003Z</time></trkpt><trkpt lat="43.473579" lon="10.7170102"><ele>137.0</ele><time>2026-04-19T08:25:15.998Z</time></trkpt><trkpt lat="43.4735079" lon="10.7171199"><ele>138.0</ele><time>2026-04-19T08:25:17.002Z</time></trkpt><trkpt lat="43.4734285" lon="10.7172357"><ele>139.0</ele><time>2026-04-19T08:25:17.996Z</time></trkpt><trkpt lat="43.473343" lon="10.717364"><ele>140.0</ele><time>2026-04-19T08:25:19.002Z</time></trkpt><trkpt lat="43.473247" lon="10.7174964"><ele>140.0</ele><time>2026-04-19T08:25:19.998Z</time></trkpt><trkpt lat="43.4731492" lon="10.7176231"><ele>140.0</ele><time>2026-04-19T08:25:21.009Z</time></trkpt><trkpt lat="43.4730425" lon="10.7177605"><ele>140.0</ele><time>2026-04-19T08:25:22.007Z</time></trkpt><trkpt lat="43.4729363" lon="10.7179036"><ele>140.0</ele><time>2026-04-19T08:25:23.004Z</time></trkpt><trkpt lat="43.4728176" lon="10.7180646"><ele>139.66666666666666</ele><time>2026-04-19T08:25:24.009Z</time></trkpt><trkpt lat="43.4726944" lon="10.7182351"><ele>139.33333333333334</ele><time>2026-04-19T08:25:25.004Z</time></trkpt><trkpt lat="43.47257" lon="10.7184127"><ele>139.0</ele><time>2026-04-19T08:25:26.003Z</time></trkpt><trkpt lat="43.4724407" lon="10.7185908"><ele>139.0</ele><time>2026-04-19T08:25:27.009Z</time></trkpt><trkpt lat="43.4723081" lon="10.718777"><ele>139.0</ele><time>2026-04-19T08:25:28.004Z</time></trkpt><trkpt lat="43.4721762" lon="10.71896"><ele>139.0</ele><time>2026-04-19T08:25:28.999Z</time></trkpt><trkpt lat="43.4720426" lon="10.7191409"><ele>141.0</ele><time>2026-04-19T08:25:30.01Z</time></trkpt><trkpt lat="43.4719128" lon="10.7193206"><ele>143.0</ele><time>2026-04-19T08:25:31.011Z</time></trkpt><trkpt lat="43.4717875" lon="10.7194921"><ele>145.0</ele><time>2026-04-19T08:25:32.002Z</time></trkpt><trkpt lat="43.4716799" lon="10.7196497"><ele>145.66666666666669</ele><time>2026-04-19T08:25:33.002Z</time></trkpt><trkpt lat="43.4715729" lon="10.7198062"><ele>146.33333333333334</ele><time>2026-04-19T08:25:33.998Z</time></trkpt><trkpt lat="43.4714616" lon="10.7199587"><ele>147.0</ele><time>2026-04-19T08:25:35.001Z</time></trkpt><trkpt lat="43.4713436" lon="10.7201082"><ele>147.66666666666666</ele><time>2026-04-19T08:25:35.999Z</time></trkpt><trkpt lat="43.4712355" lon="10.720261"><ele>148.33333333333331</ele><time>2026-04-19T08:25:37.005Z</time></trkpt><trkpt lat="43.4711278" lon="10.7204177"><ele>149.0</ele><time>2026-04-19T08:25:37.998Z</time></trkpt><trkpt lat="43.4710189" lon="10.720569"><ele>149.0</ele><time>2026-04-19T08:25:39.003Z</time></trkpt><trkpt lat="43.4709042" lon="10.7207261"><ele>149.0</ele><time>2026-04-19T08:25:40.001Z</time></trkpt><trkpt lat="43.4707907" lon="10.7208801"><ele>149.0</ele><time>2026-04-19T08:25:41.001Z</time></trkpt><trkpt lat="43.4706807" lon="10.7210224"><ele>149.25</ele><time>2026-04-19T08:25:42Z</time></trkpt><trkpt lat="43.4705769" lon="10.7211588"><ele>149.5</ele><time>2026-04-19T08:25:43.011Z</time></trkpt><trkpt lat="43.4704833" lon="10.7212825"><ele>149.75</ele><time>2026-04-19T08:25:44.001Z</time></trkpt><trkpt lat="43.4703979" lon="10.7213958"><ele>150.0</ele><time>2026-04-19T08:25:45.003Z</time></trkpt><trkpt lat="43.470321" lon="10.7215052"><ele>151.6</ele><time>2026-04-19T08:25:46.003Z</time></trkpt><trkpt lat="43.4702663" lon="10.7216067"><ele>153.2</ele><time>2026-04-19T08:25:47.002Z</time></trkpt><trkpt lat="43.4702352" lon="10.721719"><ele>154.8</ele><time>2026-04-19T08:25:48.011Z</time></trkpt><trkpt lat="43.4702313" lon="10.7218347"><ele>156.4</ele><time>2026-04-19T08:25:49.004Z</time></trkpt><trkpt lat="43.4702539" lon="10.7219641"><ele>158.0</ele><time>2026-04-19T08:25:50.005Z</time></trkpt><trkpt lat="43.4702998" lon="10.7220886"><ele>157.0</ele><time>2026-04-19T08:25:51.003Z</time></trkpt><trkpt lat="43.4703603" lon="10.7222171"><ele>156.0</ele><time>2026-04-19T08:25:51.997Z</time></trkpt><trkpt lat="43.470412" lon="10.7223352"><ele>155.0</ele><time>2026-04-19T08:25:53.01Z</time></trkpt><trkpt lat="43.4704404" lon="10.7224672"><ele>154.0</ele><time>2026-04-19T08:25:54Z</time></trkpt><trkpt lat="43.4704425" lon="10.7225954"><ele>153.0</ele><time>2026-04-19T08:25:55.005Z</time></trkpt><trkpt lat="43.4704187" lon="10.7227258"><ele>157.75</ele><time>2026-04-19T08:25:56.002Z</time></trkpt><trkpt lat="43.4703712" lon="10.7228675"><ele>162.5</ele><time>2026-04-19T08:25:57Z</time></trkpt><trkpt lat="43.470312" lon="10.7230084"><ele>167.25</ele><time>2026-04-19T08:25:58.002Z</time></trkpt><trkpt lat="43.4702449" lon="10.7231515"><ele>172.0</ele><time>2026-04-19T08:25:59.007Z</time></trkpt><trkpt lat="43.4701733" lon="10.7232992"><ele>172.0</ele><time>2026-04-19T08:26:00.005Z</time></trkpt><trkpt lat="43.4701101" lon="10.7234458"><ele>172.0</ele><time>2026-04-19T08:26:00.999Z</time></trkpt><trkpt lat="43.4700462" lon="10.7235923"><ele>172.0</ele><time>2026-04-19T08:26:01.997Z</time></trkpt><trkpt lat="43.469989" lon="10.7237328"><ele>172.0</ele><time>2026-04-19T08:26:03.002Z</time></trkpt><trkpt lat="43.4699414" lon="10.7238591"><ele>171.6</ele><time>2026-04-19T08:26:03.999Z</time></trkpt><trkpt lat="43.4698956" lon="10.7239567"><ele>171.2</ele><time>2026-04-19T08:26:04.999Z</time></trkpt><trkpt lat="43.4698366" lon="10.7240648"><ele>170.8</ele><time>2026-04-19T08:26:07.002Z</time></trkpt><trkpt lat="43.4697586" lon="10.7240698"><ele>170.4</ele><time>2026-04-19T08:26:09.996Z</time></trkpt><trkpt lat="43.4697413" lon="10.7239195"><ele>170.0</ele><time>2026-04-19T08:26:12.005Z</time></trkpt><trkpt lat="43.4697439" lon="10.7237886"><ele>170.0</ele><time>2026-04-19T08:26:12.999Z</time></trkpt><trkpt lat="43.4697415" lon="10.7236442"><ele>170.0</ele><time>2026-04-19T08:26:14.001Z</time></trkpt><trkpt lat="43.4697315" lon="10.7234764"><ele>170.0</ele><time>2026-04-19T08:26:14.996Z</time></trkpt><trkpt lat="43.469735" lon="10.7232918"><ele>170.0</ele><time>2026-04-19T08:26:16Z</time></trkpt><trkpt lat="43.4697349" lon="10.7231013"><ele>170.5</ele><time>2026-04-19T08:26:17.006Z</time></trkpt><trkpt lat="43.4697311" lon="10.7229189"><ele>171.0</ele><time>2026-04-19T08:26:18.001Z</time></trkpt><trkpt lat="43.4697114" lon="10.7227508"><ele>171.5</ele><time>2026-04-19T08:26:19.007Z</time></trkpt><trkpt lat="43.4696939" lon="10.7225858"><ele>172.0</ele><time>2026-04-19T08:26:20.009Z</time></trkpt><trkpt lat="43.469643" lon="10.7224449"><ele>172.5</ele><time>2026-04-19T08:26:21.002Z</time></trkpt><trkpt lat="43.4695459" lon="10.7223447"><ele>173.0</ele><time>2026-04-19T08:26:22.006Z</time></trkpt><trkpt lat="43.469427" lon="10.7222666"><ele>173.5</ele><time>2026-04-19T08:26:23.004Z</time></trkpt><trkpt lat="43.4692981" lon="10.7222131"><ele>174.0</ele><time>2026-04-19T08:26:24.002Z</time></trkpt><trkpt lat="43.4691828" lon="10.7221971"><ele>174.0</ele><time>2026-04-19T08:26:24.997Z</time></trkpt><trkpt lat="43.4690635" lon="10.7222025"><ele>174.0</ele><time>2026-04-19T08:26:26.006Z</time></trkpt><trkpt lat="43.4689386" lon="10.7221913"><ele>174.0</ele><time>2026-04-19T08:26:27.001Z</time></trkpt><trkpt lat="43.468804" lon="10.7221583"><ele>174.0</ele><time>2026-04-19T08:26:27.997Z</time></trkpt><trkpt lat="43.4686753" lon="10.7221078"><ele>172.0</ele><time>2026-04-19T08:26:28.996Z</time></trkpt><trkpt lat="43.4685422" lon="10.7220396"><ele>170.0</ele><time>2026-04-19T08:26:29.999Z</time></trkpt><trkpt lat="43.4684092" lon="10.7219509"><ele>168.0</ele><time>2026-04-19T08:26:31Z</time></trkpt><trkpt lat="43.4682833" lon="10.7218657"><ele>166.0</ele><time>2026-04-19T08:26:32.022Z</time></trkpt><trkpt lat="43.4681528" lon="10.7217743"><ele>166.0</ele><time>2026-04-19T08:26:33.002Z</time></trkpt><trkpt lat="43.4680155" lon="10.7216843"><ele>166.0</ele><time>2026-04-19T08:26:34Z</time></trkpt><trkpt lat="43.4678863" lon="10.7215964"><ele>166.0</ele><time>2026-04-19T08:26:34.998Z</time></trkpt><trkpt lat="43.4677651" lon="10.7215063"><ele>166.0</ele><time>2026-04-19T08:26:35.999Z</time></trkpt><trkpt lat="43.4676578" lon="10.721424"><ele>166.0</ele><time>2026-04-19T08:26:37.011Z</time></trkpt><trkpt lat="43.4675511" lon="10.7213534"><ele>166.0</ele><time>2026-04-19T08:26:38Z</time></trkpt><trkpt lat="43.4674459" lon="10.7212847"><ele>166.0</ele><time>2026-04-19T08:26:39Z</time></trkpt><trkpt lat="43.4673455" lon="10.7212086"><ele>166.0</ele><time>2026-04-19T08:26:40.006Z</time></trkpt><trkpt lat="43.4672502" lon="10.721125"><ele>165.75</ele><time>2026-04-19T08:26:40.999Z</time></trkpt><trkpt lat="43.4671534" lon="10.7210299"><ele>165.5</ele><time>2026-04-19T08:26:41.994Z</time></trkpt><trkpt lat="43.4670738" lon="10.7209092"><ele>165.25</ele><time>2026-04-19T08:26:43.005Z</time></trkpt><trkpt lat="43.4670232" lon="10.7207627"><ele>165.0</ele><time>2026-04-19T08:26:44.005Z</time></trkpt><trkpt lat="43.4669992" lon="10.7206003"><ele>167.5</ele><time>2026-04-19T08:26:45.005Z</time></trkpt><trkpt lat="43.4669639" lon="10.7204435"><ele>170.0</ele><time>2026-04-19T08:26:46.002Z</time></trkpt><trkpt lat="43.4669055" lon="10.7202893"><ele>172.5</ele><time>2026-04-19T08:26:47.005Z</time></trkpt><trkpt lat="43.4668416" lon="10.7201512"><ele>175.0</ele><time>2026-04-19T08:26:48.006Z</time></trkpt><trkpt lat="43.4667751" lon="10.7200163"><ele>175.2</ele><time>2026-04-19T08:26:49.015Z</time></trkpt><trkpt lat="43.4667133" lon="10.7198858"><ele>175.4</ele><time>2026-04-19T08:26:50.009Z</time></trkpt><trkpt lat="43.46666" lon="10.7197638"><ele>175.60000000000002</ele><time>2026-04-19T08:26:50.999Z</time></trkpt><trkpt lat="43.4666143" lon="10.7196518"><ele>175.8</ele><time>2026-04-19T08:26:52.021Z</time></trkpt><trkpt lat="43.4665679" lon="10.7195267"><ele>176.0</ele><time>2026-04-19T08:26:53.01Z</time></trkpt><trkpt lat="43.4665291" lon="10.7193943"><ele>175.5</ele><time>2026-04-19T08:26:53.998Z</time></trkpt><trkpt lat="43.4665017" lon="10.7192504"><ele>175.0</ele><time>2026-04-19T08:26:55.005Z</time></trkpt><trkpt lat="43.4664808" lon="10.7190939"><ele>174.5</ele><time>2026-04-19T08:26:55.998Z</time></trkpt><trkpt lat="43.4664526" lon="10.7189292"><ele>174.0</ele><time>2026-04-19T08:26:57.013Z</time></trkpt><trkpt lat="43.4664149" lon="10.7187652"><ele>174.0</ele><time>2026-04-19T08:26:58.004Z</time></trkpt><trkpt lat="43.4663642" lon="10.7186079"><ele>174.0</ele><time>2026-04-19T08:26:58.996Z</time></trkpt><trkpt lat="43.4662894" lon="10.7184607"><ele>174.0</ele><time>2026-04-19T08:27:00.007Z</time></trkpt><trkpt lat="43.4661997" lon="10.7183289"><ele>174.0</ele><time>2026-04-19T08:27:01.004Z</time></trkpt><trkpt lat="43.4660802" lon="10.7182015"><ele>173.75</ele><time>2026-04-19T08:27:02.001Z</time></trkpt><trkpt lat="43.4659682" lon="10.7180843"><ele>173.5</ele><time>2026-04-19T08:27:03.011Z</time></trkpt><trkpt lat="43.4658523" lon="10.7179564"><ele>173.25</ele><time>2026-04-19T08:27:04.007Z</time></trkpt><trkpt lat="43.4657394" lon="10.7178281"><ele>173.0</ele><time>2026-04-19T08:27:05.007Z</time></trkpt><trkpt lat="43.4656396" lon="10.7176936"><ele>172.60000000000002</ele><time>2026-04-19T08:27:06.007Z</time></trkpt><trkpt lat="43.4655571" lon="10.7175694"><ele>172.20000000000002</ele><time>2026-04-19T08:27:06.998Z</time></trkpt><trkpt lat="43.465493" lon="10.7174522"><ele>171.8</ele><time>2026-04-19T08:27:08.004Z</time></trkpt><trkpt lat="43.4654291" lon="10.7173509"><ele>171.4</ele><time>2026-04-19T08:27:09.01Z</time></trkpt><trkpt lat="43.4653786" lon="10.7172449"><ele>171.0</ele><time>2026-04-19T08:27:10.007Z</time></trkpt><trkpt lat="43.4653421" lon="10.7171281"><ele>171.0</ele><time>2026-04-19T08:27:11.008Z</time></trkpt><trkpt lat="43.4653249" lon="10.7170017"><ele>171.0</ele><time>2026-04-19T08:27:12.005Z</time></trkpt><trkpt lat="43.4653046" lon="10.7168497"><ele>171.0</ele><time>2026-04-19T08:27:13.008Z</time></trkpt><trkpt lat="43.4652803" lon="10.7166837"><ele>171.0</ele><time>2026-04-19T08:27:13.997Z</time></trkpt><trkpt lat="43.4652502" lon="10.7164946"><ele>169.33333333333334</ele><time>2026-04-19T08:27:15.003Z</time></trkpt><trkpt lat="43.4652017" lon="10.7162966"><ele>167.66666666666669</ele><time>2026-04-19T08:27:16.002Z</time></trkpt><trkpt lat="43.4651435" lon="10.7160905"><ele>166.0</ele><time>2026-04-19T08:27:17.002Z</time></trkpt><trkpt lat="43.4650715" lon="10.7158821"><ele>164.33333333333334</ele><time>2026-04-19T08:27:18.009Z</time></trkpt><trkpt lat="43.4649934" lon="10.7156724"><ele>162.66666666666666</ele><time>2026-04-19T08:27:18.998Z</time></trkpt><trkpt lat="43.464909" lon="10.7154562"><ele>161.0</ele><time>2026-04-19T08:27:20.006Z</time></trkpt><trkpt lat="43.4648291" lon="10.7152529"><ele>159.66666666666666</ele><time>2026-04-19T08:27:21.004Z</time></trkpt><trkpt lat="43.4647444" lon="10.7150682"><ele>158.33333333333334</ele><time>2026-04-19T08:27:21.999Z</time></trkpt><trkpt lat="43.4646503" lon="10.7148936"><ele>157.0</ele><time>2026-04-19T08:27:23Z</time></trkpt><trkpt lat="43.4645419" lon="10.7147309"><ele>156.66666666666669</ele><time>2026-04-19T08:27:24.013Z</time></trkpt><trkpt lat="43.4644248" lon="10.7145738"><ele>156.33333333333334</ele><time>2026-04-19T08:27:24.996Z</time></trkpt><trkpt lat="43.4643094" lon="10.7144128"><ele>156.0</ele><time>2026-04-19T08:27:26.006Z</time></trkpt><trkpt lat="43.4642062" lon="10.7142484"><ele>155.66666666666666</ele><time>2026-04-19T08:27:27Z</time></trkpt><trkpt lat="43.4641069" lon="10.7140812"><ele>155.33333333333331</ele><time>2026-04-19T08:27:27.997Z</time></trkpt><trkpt lat="43.464027" lon="10.7139095"><ele>155.0</ele><time>2026-04-19T08:27:29.004Z</time></trkpt><trkpt lat="43.4639591" lon="10.713733"><ele>154.75</ele><time>2026-04-19T08:27:30.001Z</time></trkpt><trkpt lat="43.4638864" lon="10.7135563"><ele>154.5</ele><time>2026-04-19T08:27:31.009Z</time></trkpt><trkpt lat="43.4638031" lon="10.7133823"><ele>154.25</ele><time>2026-04-19T08:27:32.006Z</time></trkpt><trkpt lat="43.4637204" lon="10.7132148"><ele>154.0</ele><time>2026-04-19T08:27:32.999Z</time></trkpt><trkpt lat="43.4636431" lon="10.7130643"><ele>154.0</ele><time>2026-04-19T08:27:33.995Z</time></trkpt><trkpt lat="43.4635803" lon="10.7129465"><ele>154.0</ele><time>2026-04-19T08:27:35.005Z</time></trkpt><trkpt lat="43.4635205" lon="10.7128637"><ele>154.0</ele><time>2026-04-19T08:27:35.996Z</time></trkpt><trkpt lat="43.4634531" lon="10.7127932"><ele>154.0</ele><time>2026-04-19T08:27:37.009Z</time></trkpt><trkpt lat="43.4633485" lon="10.7127572"><ele>154.0</ele><time>2026-04-19T08:27:38.009Z</time></trkpt><trkpt lat="43.4632392" lon="10.7127369"><ele>154.75</ele><time>2026-04-19T08:27:38.996Z</time></trkpt><trkpt lat="43.4631214" lon="10.7127119"><ele>155.5</ele><time>2026-04-19T08:27:40.002Z</time></trkpt><trkpt lat="43.4630083" lon="10.7126759"><ele>156.25</ele><time>2026-04-19T08:27:41.004Z</time></trkpt><trkpt lat="43.4629003" lon="10.7126328"><ele>157.0</ele><time>2026-04-19T08:27:42.005Z</time></trkpt><trkpt lat="43.4627923" lon="10.7125464"><ele>157.5</ele><time>2026-04-19T08:27:43.007Z</time></trkpt><trkpt lat="43.4626822" lon="10.7124437"><ele>158.0</ele><time>2026-04-19T08:27:44.024Z</time></trkpt><trkpt lat="43.462568" lon="10.7123167"><ele>158.5</ele><time>2026-04-19T08:27:45.01Z</time></trkpt><trkpt lat="43.4624552" lon="10.7121816"><ele>159.0</ele><time>2026-04-19T08:27:46.008Z</time></trkpt><trkpt lat="43.4623562" lon="10.7120382"><ele>160.25</ele><time>2026-04-19T08:27:47.003Z</time></trkpt><trkpt lat="43.4622707" lon="10.7118888"><ele>161.5</ele><time>2026-04-19T08:27:48.009Z</time></trkpt><trkpt lat="43.4622069" lon="10.7117485"><ele>162.75</ele><time>2026-04-19T08:27:49.011Z</time></trkpt><trkpt lat="43.4621244" lon="10.711645"><ele>164.0</ele><time>2026-04-19T08:27:50.016Z</time></trkpt><trkpt lat="43.4620156" lon="10.7115729"><ele>164.75</ele><time>2026-04-19T08:27:51.01Z</time></trkpt><trkpt lat="43.4619085" lon="10.7115385"><ele>165.5</ele><time>2026-04-19T08:27:52.004Z</time></trkpt><trkpt lat="43.4617917" lon="10.7115311"><ele>166.25</ele><time>2026-04-19T08:27:53.019Z</time></trkpt><trkpt lat="43.4616542" lon="10.711538"><ele>167.0</ele><time>2026-04-19T08:27:54.002Z</time></trkpt><trkpt lat="43.4615199" lon="10.7115265"><ele>167.0</ele><time>2026-04-19T08:27:55.011Z</time></trkpt><trkpt lat="43.4613777" lon="10.7115145"><ele>167.0</ele><time>2026-04-19T08:27:56.006Z</time></trkpt><trkpt lat="43.4612315" lon="10.7114923"><ele>167.0</ele><time>2026-04-19T08:27:57.01Z</time></trkpt><trkpt lat="43.46108" lon="10.7114672"><ele>167.0</ele><time>2026-04-19T08:27:58.003Z</time></trkpt><trkpt lat="43.460925" lon="10.7114476"><ele>168.66666666666666</ele><time>2026-04-19T08:27:59.006Z</time></trkpt><trkpt lat="43.4607704" lon="10.7114219"><ele>170.33333333333334</ele><time>2026-04-19T08:28:00.012Z</time></trkpt><trkpt lat="43.4606163" lon="10.7113841"><ele>172.0</ele><time>2026-04-19T08:28:01.004Z</time></trkpt><trkpt lat="43.4604656" lon="10.7113205"><ele>173.0</ele><time>2026-04-19T08:28:02.001Z</time></trkpt><trkpt lat="43.4603167" lon="10.7112383"><ele>174.0</ele><time>2026-04-19T08:28:03.005Z</time></trkpt><trkpt lat="43.4601717" lon="10.711143"><ele>175.0</ele><time>2026-04-19T08:28:04.003Z</time></trkpt><trkpt lat="43.4600372" lon="10.7110487"><ele>176.8</ele><time>2026-04-19T08:28:04.998Z</time></trkpt><trkpt lat="43.4599414" lon="10.7109427"><ele>178.6</ele><time>2026-04-19T08:28:06.012Z</time></trkpt><trkpt lat="43.4598853" lon="10.710828"><ele>180.39999999999998</ele><time>2026-04-19T08:28:07.014Z</time></trkpt><trkpt lat="43.4598517" lon="10.7107162"><ele>182.2</ele><time>2026-04-19T08:28:08.006Z</time></trkpt><trkpt lat="43.4598605" lon="10.7105917"><ele>184.0</ele><time>2026-04-19T08:28:09.005Z</time></trkpt><trkpt lat="43.4598934" lon="10.7104612"><ele>184.0</ele><time>2026-04-19T08:28:10.006Z</time></trkpt><trkpt lat="43.4599374" lon="10.7103443"><ele>184.0</ele><time>2026-04-19T08:28:11.008Z</time></trkpt><trkpt lat="43.4599629" lon="10.7101769"><ele>184.0</ele><time>2026-04-19T08:28:13.006Z</time></trkpt><trkpt lat="43.4599553" lon="10.7100162"><ele>184.0</ele><time>2026-04-19T08:28:15.009Z</time></trkpt><trkpt lat="43.4599255" lon="10.7099334"><ele>184.0</ele><time>2026-04-19T08:28:16.005Z</time></trkpt><trkpt lat="43.459877" lon="10.709862"><ele>184.0</ele><time>2026-04-19T08:28:16.995Z</time></trkpt><trkpt lat="43.4598219" lon="10.7098117"><ele>184.0</ele><time>2026-04-19T08:28:18.003Z</time></trkpt><trkpt lat="43.4597538" lon="10.7097666"><ele>184.0</ele><time>2026-04-19T08:28:19.019Z</time></trkpt><trkpt lat="43.459668" lon="10.7097316"><ele>184.0</ele><time>2026-04-19T08:28:20.003Z</time></trkpt><trkpt lat="43.4595454" lon="10.7097058"><ele>184.0</ele><time>2026-04-19T08:28:20.996Z</time></trkpt><trkpt lat="43.4593997" lon="10.7096797"><ele>184.0</ele><time>2026-04-19T08:28:22.003Z</time></trkpt><trkpt lat="43.4592424" lon="10.709651"><ele>184.0</ele><time>2026-04-19T08:28:23.003Z</time></trkpt><trkpt lat="43.4590683" lon="10.7096255"><ele>184.0</ele><time>2026-04-19T08:28:24.006Z</time></trkpt><trkpt lat="43.4588847" lon="10.7095928"><ele>183.33333333333334</ele><time>2026-04-19T08:28:25.014Z</time></trkpt><trkpt lat="43.4586883" lon="10.7095548"><ele>182.66666666666666</ele><time>2026-04-19T08:28:26.009Z</time></trkpt><trkpt lat="43.4584888" lon="10.7095156"><ele>182.0</ele><time>2026-04-19T08:28:26.997Z</time></trkpt><trkpt lat="43.4582832" lon="10.7094719"><ele>182.0</ele><time>2026-04-19T08:28:27.998Z</time></trkpt><trkpt lat="43.4580798" lon="10.7094307"><ele>182.0</ele><time>2026-04-19T08:28:29.006Z</time></trkpt><trkpt lat="43.4578837" lon="10.7093898"><ele>182.0</ele><time>2026-04-19T08:28:30.007Z</time></trkpt><trkpt lat="43.4577052" lon="10.7093568"><ele>181.5</ele><time>2026-04-19T08:28:31.001Z</time></trkpt><trkpt lat="43.4575468" lon="10.7093313"><ele>181.0</ele><time>2026-04-19T08:28:31.999Z</time></trkpt><trkpt lat="43.4574178" lon="10.709308"><ele>180.5</ele><time>2026-04-19T08:28:33.003Z</time></trkpt><trkpt lat="43.4573119" lon="10.7092771"><ele>180.0</ele><time>2026-04-19T08:28:34.009Z</time></trkpt><trkpt lat="43.4572369" lon="10.7092433"><ele>180.0</ele><time>2026-04-19T08:28:34.998Z</time></trkpt><trkpt lat="43.457173" lon="10.7091839"><ele>180.0</ele><time>2026-04-19T08:28:36.004Z</time></trkpt><trkpt lat="43.4571186" lon="10.7090968"><ele>180.0</ele><time>2026-04-19T08:28:37.006Z</time></trkpt><trkpt lat="43.4570566" lon="10.7089699"><ele>180.0</ele><time>2026-04-19T08:28:38Z</time></trkpt><trkpt lat="43.4570045" lon="10.7088158"><ele>180.0</ele><time>2026-04-19T08:28:39.004Z</time></trkpt><trkpt lat="43.4569492" lon="10.7086431"><ele>180.25</ele><time>2026-04-19T08:28:40.001Z</time></trkpt><trkpt lat="43.4568859" lon="10.7084705"><ele>180.5</ele><time>2026-04-19T08:28:41Z</time></trkpt><trkpt lat="43.4568145" lon="10.7082948"><ele>180.75</ele><time>2026-04-19T08:28:42.015Z</time></trkpt><trkpt lat="43.4567354" lon="10.708121"><ele>181.0</ele><time>2026-04-19T08:28:42.995Z</time></trkpt><trkpt lat="43.456635" lon="10.7079559"><ele>181.0</ele><time>2026-04-19T08:28:43.999Z</time></trkpt><trkpt lat="43.4565276" lon="10.7077961"><ele>181.0</ele><time>2026-04-19T08:28:45.004Z</time></trkpt><trkpt lat="43.4564054" lon="10.7076361"><ele>181.0</ele><time>2026-04-19T08:28:46.003Z</time></trkpt><trkpt lat="43.4562744" lon="10.7074864"><ele>183.0</ele><time>2026-04-19T08:28:47.008Z</time></trkpt><trkpt lat="43.4561391" lon="10.7073419"><ele>185.0</ele><time>2026-04-19T08:28:48.009Z</time></trkpt><trkpt lat="43.4560052" lon="10.707176"><ele>187.0</ele><time>2026-04-19T08:28:49Z</time></trkpt><trkpt lat="43.4558766" lon="10.7070125"><ele>188.66666666666669</ele><time>2026-04-19T08:28:50.001Z</time></trkpt><trkpt lat="43.4557674" lon="10.7068557"><ele>190.33333333333334</ele><time>2026-04-19T08:28:50.987Z</time></trkpt><trkpt lat="43.4556772" lon="10.7066969"><ele>192.0</ele><time>2026-04-19T08:28:51.996Z</time></trkpt><trkpt lat="43.455595" lon="10.706511"><ele>192.0</ele><time>2026-04-19T08:28:53.001Z</time></trkpt><trkpt lat="43.4555203" lon="10.7063111"><ele>192.0</ele><time>2026-04-19T08:28:54.006Z</time></trkpt><trkpt lat="43.4554377" lon="10.706125"><ele>192.0</ele><time>2026-04-19T08:28:54.998Z</time></trkpt><trkpt lat="43.4553349" lon="10.7059909"><ele>194.25</ele><time>2026-04-19T08:28:56.006Z</time></trkpt><trkpt lat="43.4552378" lon="10.7058743"><ele>196.5</ele><time>2026-04-19T08:28:57.015Z</time></trkpt><trkpt lat="43.4551305" lon="10.7057677"><ele>198.75</ele><time>2026-04-19T08:28:58.003Z</time></trkpt><trkpt lat="43.4550267" lon="10.7056664"><ele>201.0</ele><time>2026-04-19T08:28:59.007Z</time></trkpt><trkpt lat="43.454939" lon="10.7055547"><ele>201.0</ele><time>2026-04-19T08:29:00.019Z</time></trkpt><trkpt lat="43.45485" lon="10.7054129"><ele>201.0</ele><time>2026-04-19T08:29:00.996Z</time></trkpt><trkpt lat="43.4547585" lon="10.7052379"><ele>201.0</ele><time>2026-04-19T08:29:02.007Z</time></trkpt><trkpt lat="43.4546586" lon="10.7050707"><ele>205.0</ele><time>2026-04-19T08:29:03.003Z</time></trkpt><trkpt lat="43.4545603" lon="10.7049246"><ele>209.0</ele><time>2026-04-19T08:29:04.011Z</time></trkpt><trkpt lat="43.4544876" lon="10.7047833"><ele>213.0</ele><time>2026-04-19T08:29:05.003Z</time></trkpt><trkpt lat="43.4544461" lon="10.7046479"><ele>217.0</ele><time>2026-04-19T08:29:06.01Z</time></trkpt><trkpt lat="43.4544188" lon="10.7044973"><ele>217.39999999999998</ele><time>2026-04-19T08:29:07.003Z</time></trkpt><trkpt lat="43.4543936" lon="10.7043414"><ele>217.79999999999998</ele><time>2026-04-19T08:29:08.013Z</time></trkpt><trkpt lat="43.4543572" lon="10.7042016"><ele>218.2</ele><time>2026-04-19T08:29:09Z</time></trkpt><trkpt lat="43.4543053" lon="10.7041027"><ele>218.6</ele><time>2026-04-19T08:29:10.004Z</time></trkpt><trkpt lat="43.4542412" lon="10.7040465"><ele>219.0</ele><time>2026-04-19T08:29:11.005Z</time></trkpt><trkpt lat="43.4541533" lon="10.7040224"><ele>219.0</ele><time>2026-04-19T08:29:11.999Z</time></trkpt><trkpt lat="43.4540326" lon="10.7040271"><ele>219.0</ele><time>2026-04-19T08:29:13.002Z</time></trkpt><trkpt lat="43.453895" lon="10.704033"><ele>219.0</ele><time>2026-04-19T08:29:14.004Z</time></trkpt><trkpt lat="43.4537308" lon="10.7040531"><ele>219.0</ele><time>2026-04-19T08:29:15.002Z</time></trkpt><trkpt lat="43.4535521" lon="10.7040588"><ele>221.0</ele><time>2026-04-19T08:29:15.993Z</time></trkpt><trkpt lat="43.4533807" lon="10.7040773"><ele>223.0</ele><time>2026-04-19T08:29:16.999Z</time></trkpt><trkpt lat="43.4532286" lon="10.7041041"><ele>225.0</ele><time>2026-04-19T08:29:17.998Z</time></trkpt><trkpt lat="43.4530851" lon="10.7041358"><ele>227.66666666666669</ele><time>2026-04-19T08:29:18.998Z</time></trkpt><trkpt lat="43.4529417" lon="10.7041962"><ele>230.33333333333334</ele><time>2026-04-19T08:29:19.999Z</time></trkpt><trkpt lat="43.4527913" lon="10.7042803"><ele>233.0</ele><time>2026-04-19T08:29:20.999Z</time></trkpt><trkpt lat="43.4526224" lon="10.7043875"><ele>233.33333333333334</ele><time>2026-04-19T08:29:22.006Z</time></trkpt><trkpt lat="43.4524524" lon="10.7045062"><ele>233.66666666666669</ele><time>2026-04-19T08:29:23.002Z</time></trkpt><trkpt lat="43.4523041" lon="10.7046228"><ele>234.0</ele><time>2026-04-19T08:29:23.999Z</time></trkpt><trkpt lat="43.4521863" lon="10.70473"><ele>237.75</ele><time>2026-04-19T08:29:25Z</time></trkpt><trkpt lat="43.4520873" lon="10.7048333"><ele>241.5</ele><time>2026-04-19T08:29:26.004Z</time></trkpt><trkpt lat="43.4520109" lon="10.7049487"><ele>245.25</ele><time>2026-04-19T08:29:27.001Z</time></trkpt><trkpt lat="43.451954" lon="10.7050698"><ele>249.0</ele><time>2026-04-19T08:29:28.003Z</time></trkpt><trkpt lat="43.4519208" lon="10.7052238"><ele>248.0</ele><time>2026-04-19T08:29:28.995Z</time></trkpt><trkpt lat="43.4518925" lon="10.7053956"><ele>247.0</ele><time>2026-04-19T08:29:30.003Z</time></trkpt><trkpt lat="43.4518395" lon="10.705551"><ele>246.0</ele><time>2026-04-19T08:29:31.007Z</time></trkpt><trkpt lat="43.451758" lon="10.705716"><ele>245.0</ele><time>2026-04-19T08:29:32.014Z</time></trkpt><trkpt lat="43.4516828" lon="10.7058705"><ele>245.0</ele><time>2026-04-19T08:29:33.006Z</time></trkpt><trkpt lat="43.4515926" lon="10.7060105"><ele>245.0</ele><time>2026-04-19T08:29:34.001Z</time></trkpt><trkpt lat="43.4515091" lon="10.706147"><ele>245.0</ele><time>2026-04-19T08:29:35.015Z</time></trkpt><trkpt lat="43.4514194" lon="10.7062665"><ele>245.0</ele><time>2026-04-19T08:29:36.01Z</time></trkpt><trkpt lat="43.4513352" lon="10.7063823"><ele>244.50000000000003</ele><time>2026-04-19T08:29:37.009Z</time></trkpt><trkpt lat="43.451272" lon="10.706462"><ele>244.0</ele><time>2026-04-19T08:29:38.016Z</time></trkpt><trkpt lat="43.4512249" lon="10.7065289"><ele>243.5</ele><time>2026-04-19T08:29:39.007Z</time></trkpt><trkpt lat="43.4511834" lon="10.7065965"><ele>243.0</ele><time>2026-04-19T08:29:40.005Z</time></trkpt><trkpt lat="43.4511722" lon="10.7067727"><ele>242.50000000000003</ele><time>2026-04-19T08:29:42.015Z</time></trkpt><trkpt lat="43.4511824" lon="10.7068888"><ele>242.0</ele><time>2026-04-19T08:29:43.008Z</time></trkpt><trkpt lat="43.4511904" lon="10.7070192"><ele>240.6</ele><time>2026-04-19T08:29:44.011Z</time></trkpt><trkpt lat="43.4512022" lon="10.7071539"><ele>239.2</ele><time>2026-04-19T08:29:45.004Z</time></trkpt><trkpt lat="43.4512025" lon="10.7072952"><ele>237.8</ele><time>2026-04-19T08:29:46.01Z</time></trkpt><trkpt lat="43.4511965" lon="10.7074439"><ele>236.4</ele><time>2026-04-19T08:29:47.003Z</time></trkpt><trkpt lat="43.4511982" lon="10.7075728"><ele>235.0</ele><time>2026-04-19T08:29:48.006Z</time></trkpt><trkpt lat="43.4512019" lon="10.7076852"><ele>234.4</ele><time>2026-04-19T08:29:49.005Z</time></trkpt><trkpt lat="43.4511897" lon="10.7077997"><ele>233.8</ele><time>2026-04-19T08:29:50.996Z</time></trkpt><trkpt lat="43.4511768" lon="10.7079357"><ele>233.2</ele><time>2026-04-19T08:29:53.001Z</time></trkpt><trkpt lat="43.4511644" lon="10.7080843"><ele>232.6</ele><time>2026-04-19T08:29:54.996Z</time></trkpt><trkpt lat="43.451154" lon="10.7082277"><ele>232.0</ele><time>2026-04-19T08:29:57Z</time></trkpt><trkpt lat="43.4510917" lon="10.7083742"><ele>231.99999999999997</ele><time>2026-04-19T08:29:58.997Z</time></trkpt><trkpt lat="43.4510356" lon="10.7085163"><ele>232.0</ele><time>2026-04-19T08:30:01.003Z</time></trkpt><trkpt lat="43.45101" lon="10.7085979"><ele>232.0</ele><time>2026-04-19T08:30:02.001Z</time></trkpt><trkpt lat="43.4509838" lon="10.7086794"><ele>232.0</ele><time>2026-04-19T08:30:03.002Z</time></trkpt><trkpt lat="43.4509572" lon="10.7087778"><ele>231.99999999999997</ele><time>2026-04-19T08:30:04.009Z</time></trkpt><trkpt lat="43.4509184" lon="10.7088801"><ele>232.0</ele><time>2026-04-19T08:30:05.002Z</time></trkpt><trkpt lat="43.4508546" lon="10.7089817"><ele>231.83333333333331</ele><time>2026-04-19T08:30:06.007Z</time></trkpt><trkpt lat="43.4507941" lon="10.7090716"><ele>231.66666666666666</ele><time>2026-04-19T08:30:07.015Z</time></trkpt><trkpt lat="43.4507484" lon="10.7091615"><ele>231.5</ele><time>2026-04-19T08:30:07.994Z</time></trkpt><trkpt lat="43.4507156" lon="10.7092771"><ele>231.33333333333331</ele><time>2026-04-19T08:30:09.013Z</time></trkpt><trkpt lat="43.4506894" lon="10.7093883"><ele>231.16666666666666</ele><time>2026-04-19T08:30:10.008Z</time></trkpt><trkpt lat="43.4506526" lon="10.7094771"><ele>231.0</ele><time>2026-04-19T08:30:11.005Z</time></trkpt><trkpt lat="43.4506015" lon="10.7095589"><ele>230.0</ele><time>2026-04-19T08:30:12.009Z</time></trkpt><trkpt lat="43.4505244" lon="10.7096464"><ele>229.00000000000003</ele><time>2026-04-19T08:30:13.003Z</time></trkpt><trkpt lat="43.4504563" lon="10.709742"><ele>228.00000000000003</ele><time>2026-04-19T08:30:14.003Z</time></trkpt><trkpt lat="43.4504034" lon="10.7098621"><ele>227.0</ele><time>2026-04-19T08:30:15.013Z</time></trkpt><trkpt lat="43.450359" lon="10.7099813"><ele>226.0</ele><time>2026-04-19T08:30:16.004Z</time></trkpt><trkpt lat="43.4503256" lon="10.7101233"><ele>223.0</ele><time>2026-04-19T08:30:16.994Z</time></trkpt><trkpt lat="43.4503176" lon="10.7102846"><ele>220.0</ele><time>2026-04-19T08:30:18.015Z</time></trkpt><trkpt lat="43.450318" lon="10.7104607"><ele>217.0</ele><time>2026-04-19T08:30:19.008Z</time></trkpt><trkpt lat="43.4503154" lon="10.710624"><ele>214.0</ele><time>2026-04-19T08:30:19.997Z</time></trkpt><trkpt lat="43.4503126" lon="10.7107804"><ele>214.0</ele><time>2026-04-19T08:30:21.003Z</time></trkpt><trkpt lat="43.450305" lon="10.7109354"><ele>213.99999999999997</ele><time>2026-04-19T08:30:22.007Z</time></trkpt><trkpt lat="43.4502905" lon="10.7110787"><ele>213.99999999999997</ele><time>2026-04-19T08:30:22.998Z</time></trkpt><trkpt lat="43.450267" lon="10.7112243"><ele>214.0</ele><time>2026-04-19T08:30:24.004Z</time></trkpt><trkpt lat="43.450239" lon="10.7113726"><ele>214.0</ele><time>2026-04-19T08:30:25Z</time></trkpt><trkpt lat="43.450211" lon="10.7115351"><ele>214.0</ele><time>2026-04-19T08:30:25.996Z</time></trkpt><trkpt lat="43.4501781" lon="10.7116936"><ele>213.99999999999997</ele><time>2026-04-19T08:30:27.002Z</time></trkpt><trkpt lat="43.4501356" lon="10.7118264"><ele>213.99999999999997</ele><time>2026-04-19T08:30:28.008Z</time></trkpt><trkpt lat="43.4500948" lon="10.7119425"><ele>214.0</ele><time>2026-04-19T08:30:29.005Z</time></trkpt><trkpt lat="43.4500548" lon="10.7120881"><ele>214.0</ele><time>2026-04-19T08:30:30.009Z</time></trkpt><trkpt lat="43.4500106" lon="10.7122448"><ele>214.0</ele><time>2026-04-19T08:30:31Z</time></trkpt><trkpt lat="43.4499768" lon="10.7124136"><ele>214.0</ele><time>2026-04-19T08:30:32.01Z</time></trkpt><trkpt lat="43.4499364" lon="10.7125888"><ele>214.0</ele><time>2026-04-19T08:30:33.003Z</time></trkpt><trkpt lat="43.4498867" lon="10.7127605"><ele>214.0</ele><time>2026-04-19T08:30:33.999Z</time></trkpt><trkpt lat="43.4498287" lon="10.7129074"><ele>213.49999999999997</ele><time>2026-04-19T08:30:35.007Z</time></trkpt><trkpt lat="43.4497563" lon="10.7130203"><ele>213.0</ele><time>2026-04-19T08:30:36.015Z</time></trkpt><trkpt lat="43.4497022" lon="10.7131073"><ele>212.5</ele><time>2026-04-19T08:30:37.009Z</time></trkpt><trkpt lat="43.449677" lon="10.7132028"><ele>212.0</ele><time>2026-04-19T08:30:38.01Z</time></trkpt><trkpt lat="43.4496891" lon="10.7132941"><ele>211.49999999999997</ele><time>2026-04-19T08:30:39.003Z</time></trkpt><trkpt lat="43.4497358" lon="10.7133963"><ele>211.0</ele><time>2026-04-19T08:30:40.005Z</time></trkpt><trkpt lat="43.449785" lon="10.713488"><ele>211.0</ele><time>2026-04-19T08:30:40.997Z</time></trkpt><trkpt lat="43.4498515" lon="10.7135546"><ele>211.0</ele><time>2026-04-19T08:30:42.01Z</time></trkpt><trkpt lat="43.4499118" lon="10.7136145"><ele>211.0</ele><time>2026-04-19T08:30:43.004Z</time></trkpt><trkpt lat="43.4499832" lon="10.7136825"><ele>211.0</ele><time>2026-04-19T08:30:44.007Z</time></trkpt><trkpt lat="43.4500646" lon="10.7137594"><ele>211.0</ele><time>2026-04-19T08:30:45.001Z</time></trkpt><trkpt lat="43.4501621" lon="10.7138496"><ele>209.0</ele><time>2026-04-19T08:30:46.01Z</time></trkpt><trkpt lat="43.4502634" lon="10.7139497"><ele>207.0</ele><time>2026-04-19T08:30:47.003Z</time></trkpt><trkpt lat="43.4503589" lon="10.7140325"><ele>205.0</ele><time>2026-04-19T08:30:48.013Z</time></trkpt><trkpt lat="43.4504652" lon="10.7141069"><ele>203.0</ele><time>2026-04-19T08:30:49.006Z</time></trkpt><trkpt lat="43.4505709" lon="10.714167"><ele>200.5</ele><time>2026-04-19T08:30:50.009Z</time></trkpt><trkpt lat="43.450676" lon="10.7142216"><ele>198.0</ele><time>2026-04-19T08:30:51.008Z</time></trkpt><trkpt lat="43.4507805" lon="10.7142895"><ele>195.5</ele><time>2026-04-19T08:30:52.005Z</time></trkpt><trkpt lat="43.4508628" lon="10.7143827"><ele>193.0</ele><time>2026-04-19T08:30:53.002Z</time></trkpt><trkpt lat="43.4509259" lon="10.7145224"><ele>192.5</ele><time>2026-04-19T08:30:54.011Z</time></trkpt><trkpt lat="43.4509871" lon="10.7146747"><ele>192.0</ele><time>2026-04-19T08:30:55.004Z</time></trkpt><trkpt lat="43.451073" lon="10.7148387"><ele>191.5</ele><time>2026-04-19T08:30:56.006Z</time></trkpt><trkpt lat="43.4511861" lon="10.7150146"><ele>191.0</ele><time>2026-04-19T08:30:57.001Z</time></trkpt><trkpt lat="43.4512903" lon="10.7151684"><ele>190.0</ele><time>2026-04-19T08:30:58.003Z</time></trkpt><trkpt lat="43.4513685" lon="10.7152928"><ele>189.0</ele><time>2026-04-19T08:30:59.002Z</time></trkpt><trkpt lat="43.4514465" lon="10.7154028"><ele>188.0</ele><time>2026-04-19T08:31:00.01Z</time></trkpt><trkpt lat="43.4515444" lon="10.7154937"><ele>187.0</ele><time>2026-04-19T08:31:01.008Z</time></trkpt><trkpt lat="43.4516443" lon="10.7155833"><ele>187.0</ele><time>2026-04-19T08:31:02.008Z</time></trkpt><trkpt lat="43.4517124" lon="10.7157088"><ele>187.0</ele><time>2026-04-19T08:31:03.007Z</time></trkpt><trkpt lat="43.451754" lon="10.7158151"><ele>187.0</ele><time>2026-04-19T08:31:04.004Z</time></trkpt><trkpt lat="43.451736" lon="10.7158988"><ele>187.0</ele><time>2026-04-19T08:31:04.996Z</time></trkpt><trkpt lat="43.4517446" lon="10.7160802"><ele>187.0</ele><time>2026-04-19T08:31:06.999Z</time></trkpt><trkpt lat="43.4517955" lon="10.7161756"><ele>186.2</ele><time>2026-04-19T08:31:08.004Z</time></trkpt><trkpt lat="43.4518684" lon="10.7162635"><ele>185.39999999999998</ele><time>2026-04-19T08:31:09.002Z</time></trkpt><trkpt lat="43.4519655" lon="10.7163386"><ele>184.60000000000002</ele><time>2026-04-19T08:31:10.009Z</time></trkpt><trkpt lat="43.4520693" lon="10.716407"><ele>183.8</ele><time>2026-04-19T08:31:11.006Z</time></trkpt><trkpt lat="43.4521584" lon="10.7164897"><ele>183.0</ele><time>2026-04-19T08:31:12.009Z</time></trkpt><trkpt lat="43.452221" lon="10.7165598"><ele>183.0</ele><time>2026-04-19T08:31:12.999Z</time></trkpt><trkpt lat="43.4522573" lon="10.716666"><ele>183.0</ele><time>2026-04-19T08:31:14.008Z</time></trkpt><trkpt lat="43.4523108" lon="10.7168097"><ele>183.0</ele><time>2026-04-19T08:31:15.002Z</time></trkpt><trkpt lat="43.4523605" lon="10.7169833"><ele>183.0</ele><time>2026-04-19T08:31:16.006Z</time></trkpt><trkpt lat="43.4524238" lon="10.7171286"><ele>184.0</ele><time>2026-04-19T08:31:17.002Z</time></trkpt><trkpt lat="43.4524911" lon="10.7172321"><ele>185.0</ele><time>2026-04-19T08:31:17.998Z</time></trkpt><trkpt lat="43.4525553" lon="10.7173156"><ele>186.0</ele><time>2026-04-19T08:31:18.999Z</time></trkpt><trkpt lat="43.4526114" lon="10.7173855"><ele>187.0</ele><time>2026-04-19T08:31:20.007Z</time></trkpt><trkpt lat="43.4526564" lon="10.7174998"><ele>188.0</ele><time>2026-04-19T08:31:21.008Z</time></trkpt><trkpt lat="43.452693" lon="10.717655"><ele>186.5</ele><time>2026-04-19T08:31:22.005Z</time></trkpt><trkpt lat="43.452729" lon="10.7177958"><ele>185.0</ele><time>2026-04-19T08:31:23.013Z</time></trkpt><trkpt lat="43.4527621" lon="10.7179221"><ele>183.5</ele><time>2026-04-19T08:31:24.004Z</time></trkpt><trkpt lat="43.4527855" lon="10.7180805"><ele>182.0</ele><time>2026-04-19T08:31:25.008Z</time></trkpt><trkpt lat="43.4528148" lon="10.7182555"><ele>182.0</ele><time>2026-04-19T08:31:26.008Z</time></trkpt><trkpt lat="43.452841" lon="10.7184336"><ele>182.0</ele><time>2026-04-19T08:31:27.007Z</time></trkpt><trkpt lat="43.4528867" lon="10.7186087"><ele>182.0</ele><time>2026-04-19T08:31:28.014Z</time></trkpt><trkpt lat="43.4529466" lon="10.7187748"><ele>182.0</ele><time>2026-04-19T08:31:29.007Z</time></trkpt><trkpt lat="43.4530174" lon="10.7189262"><ele>180.5</ele><time>2026-04-19T08:31:29.997Z</time></trkpt><trkpt lat="43.4530896" lon="10.7190706"><ele>179.0</ele><time>2026-04-19T08:31:31.009Z</time></trkpt><trkpt lat="43.4531695" lon="10.7192213"><ele>177.5</ele><time>2026-04-19T08:31:32.014Z</time></trkpt><trkpt lat="43.4532638" lon="10.7193729"><ele>176.0</ele><time>2026-04-19T08:31:33Z</time></trkpt><trkpt lat="43.4533678" lon="10.7195501"><ele>174.33333333333331</ele><time>2026-04-19T08:31:34.009Z</time></trkpt><trkpt lat="43.4534704" lon="10.7197404"><ele>172.66666666666666</ele><time>2026-04-19T08:31:35.01Z</time></trkpt><trkpt lat="43.4535609" lon="10.7199192"><ele>171.0</ele><time>2026-04-19T08:31:35.996Z</time></trkpt><trkpt lat="43.4536539" lon="10.7201093"><ele>169.66666666666666</ele><time>2026-04-19T08:31:37.007Z</time></trkpt><trkpt lat="43.4537439" lon="10.7202924"><ele>168.33333333333331</ele><time>2026-04-19T08:31:38.002Z</time></trkpt><trkpt lat="43.4538345" lon="10.7204685"><ele>167.0</ele><time>2026-04-19T08:31:39.003Z</time></trkpt><trkpt lat="43.453919" lon="10.7206402"><ele>167.0</ele><time>2026-04-19T08:31:40.002Z</time></trkpt><trkpt lat="43.4540032" lon="10.7208023"><ele>167.0</ele><time>2026-04-19T08:31:41.008Z</time></trkpt><trkpt lat="43.454074" lon="10.7209894"><ele>167.0</ele><time>2026-04-19T08:31:42.005Z</time></trkpt><trkpt lat="43.4541344" lon="10.7211533"><ele>167.0</ele><time>2026-04-19T08:31:43.009Z</time></trkpt><trkpt lat="43.4542043" lon="10.7212863"><ele>167.8</ele><time>2026-04-19T08:31:43.995Z</time></trkpt><trkpt lat="43.4543039" lon="10.721384"><ele>168.6</ele><time>2026-04-19T08:31:44.999Z</time></trkpt><trkpt lat="43.4544071" lon="10.7214569"><ele>169.4</ele><time>2026-04-19T08:31:46.003Z</time></trkpt><trkpt lat="43.4544809" lon="10.7215167"><ele>170.20000000000002</ele><time>2026-04-19T08:31:47.008Z</time></trkpt><trkpt lat="43.4545195" lon="10.7215927"><ele>171.0</ele><time>2026-04-19T08:31:47.996Z</time></trkpt><trkpt lat="43.4545416" lon="10.7216951"><ele>171.0</ele><time>2026-04-19T08:31:49.011Z</time></trkpt><trkpt lat="43.4545467" lon="10.7218081"><ele>171.0</ele><time>2026-04-19T08:31:50.006Z</time></trkpt><trkpt lat="43.4545361" lon="10.7219404"><ele>171.0</ele><time>2026-04-19T08:31:51.003Z</time></trkpt><trkpt lat="43.4545357" lon="10.722089"><ele>171.0</ele><time>2026-04-19T08:31:51.991Z</time></trkpt><trkpt lat="43.4545445" lon="10.7222449"><ele>171.0</ele><time>2026-04-19T08:31:53Z</time></trkpt><trkpt lat="43.4545671" lon="10.7223858"><ele>172.5</ele><time>2026-04-19T08:31:54.013Z</time></trkpt><trkpt lat="43.4546095" lon="10.7225151"><ele>174.0</ele><time>2026-04-19T08:31:55.006Z</time></trkpt><trkpt lat="43.4546742" lon="10.7226498"><ele>175.5</ele><time>2026-04-19T08:31:55.994Z</time></trkpt><trkpt lat="43.4547489" lon="10.7228016"><ele>177.0</ele><time>2026-04-19T08:31:57.007Z</time></trkpt><trkpt lat="43.4548187" lon="10.7229711"><ele>178.5</ele><time>2026-04-19T08:31:58.004Z</time></trkpt><trkpt lat="43.4548937" lon="10.7231297"><ele>180.0</ele><time>2026-04-19T08:31:59.003Z</time></trkpt><trkpt lat="43.4549653" lon="10.7232853"><ele>181.5</ele><time>2026-04-19T08:32:00.006Z</time></trkpt><trkpt lat="43.4550261" lon="10.7234547"><ele>183.0</ele><time>2026-04-19T08:32:01.008Z</time></trkpt><trkpt lat="43.4550977" lon="10.7235972"><ele>183.0</ele><time>2026-04-19T08:32:02.005Z</time></trkpt><trkpt lat="43.4551549" lon="10.7237163"><ele>183.0</ele><time>2026-04-19T08:32:03.002Z</time></trkpt><trkpt lat="43.455212" lon="10.7238178"><ele>183.0</ele><time>2026-04-19T08:32:04.007Z</time></trkpt><trkpt lat="43.4552809" lon="10.7239363"><ele>183.0</ele><time>2026-04-19T08:32:04.998Z</time></trkpt><trkpt lat="43.4553695" lon="10.7240776"><ele>183.0</ele><time>2026-04-19T08:32:05.992Z</time></trkpt><trkpt lat="43.4554723" lon="10.7242295"><ele>181.66666666666666</ele><time>2026-04-19T08:32:06.999Z</time></trkpt><trkpt lat="43.4555824" lon="10.7243956"><ele>180.33333333333331</ele><time>2026-04-19T08:32:08.011Z</time></trkpt><trkpt lat="43.4557035" lon="10.7245641"><ele>179.0</ele><time>2026-04-19T08:32:09.008Z</time></trkpt><trkpt lat="43.455826" lon="10.7247388"><ele>179.0</ele><time>2026-04-19T08:32:10.008Z</time></trkpt><trkpt lat="43.4559409" lon="10.7249077"><ele>179.0</ele><time>2026-04-19T08:32:11.006Z</time></trkpt><trkpt lat="43.4560432" lon="10.7250728"><ele>179.0</ele><time>2026-04-19T08:32:12.01Z</time></trkpt><trkpt lat="43.4561395" lon="10.7252105"><ele>176.75</ele><time>2026-04-19T08:32:12.999Z</time></trkpt><trkpt lat="43.4562254" lon="10.7253344"><ele>174.5</ele><time>2026-04-19T08:32:14.013Z</time></trkpt><trkpt lat="43.4563073" lon="10.725448"><ele>172.25</ele><time>2026-04-19T08:32:14.999Z</time></trkpt><trkpt lat="43.4564084" lon="10.7255882"><ele>170.0</ele><time>2026-04-19T08:32:16Z</time></trkpt><trkpt lat="43.4565318" lon="10.7257622"><ele>169.33333333333331</ele><time>2026-04-19T08:32:17.003Z</time></trkpt><trkpt lat="43.4566548" lon="10.7259352"><ele>168.66666666666666</ele><time>2026-04-19T08:32:18.007Z</time></trkpt><trkpt lat="43.4567688" lon="10.7261215"><ele>168.0</ele><time>2026-04-19T08:32:19.004Z</time></trkpt><trkpt lat="43.4568788" lon="10.7263043"><ele>166.0</ele><time>2026-04-19T08:32:20.009Z</time></trkpt><trkpt lat="43.4569842" lon="10.7264831"><ele>164.0</ele><time>2026-04-19T08:32:21.011Z</time></trkpt><trkpt lat="43.4570694" lon="10.7266482"><ele>162.0</ele><time>2026-04-19T08:32:21.999Z</time></trkpt><trkpt lat="43.457153" lon="10.7268117"><ele>161.0</ele><time>2026-04-19T08:32:23.007Z</time></trkpt><trkpt lat="43.4572097" lon="10.7269755"><ele>160.0</ele><time>2026-04-19T08:32:24.007Z</time></trkpt><trkpt lat="43.4572642" lon="10.7271704"><ele>159.0</ele><time>2026-04-19T08:32:25.004Z</time></trkpt><trkpt lat="43.4573081" lon="10.7274066"><ele>159.0</ele><time>2026-04-19T08:32:26.003Z</time></trkpt><trkpt lat="43.4573598" lon="10.7276546"><ele>159.0</ele><time>2026-04-19T08:32:26.999Z</time></trkpt><trkpt lat="43.4574026" lon="10.7278871"><ele>159.0</ele><time>2026-04-19T08:32:28.006Z</time></trkpt><trkpt lat="43.4574427" lon="10.7280716"><ele>158.33333333333334</ele><time>2026-04-19T08:32:29.008Z</time></trkpt><trkpt lat="43.4574846" lon="10.7282637"><ele>157.66666666666669</ele><time>2026-04-19T08:32:30.007Z</time></trkpt><trkpt lat="43.4575238" lon="10.7284726"><ele>157.0</ele><time>2026-04-19T08:32:31.007Z</time></trkpt><trkpt lat="43.4575622" lon="10.7287034"><ele>156.0</ele><time>2026-04-19T08:32:32.01Z</time></trkpt><trkpt lat="43.4576085" lon="10.7289271"><ele>155.0</ele><time>2026-04-19T08:32:33.001Z</time></trkpt><trkpt lat="43.4576472" lon="10.7291313"><ele>154.0</ele><time>2026-04-19T08:32:34.016Z</time></trkpt><trkpt lat="43.4576931" lon="10.729312"><ele>153.0</ele><time>2026-04-19T08:32:35.003Z</time></trkpt><trkpt lat="43.4577168" lon="10.7294624"><ele>152.0</ele><time>2026-04-19T08:32:36.012Z</time></trkpt><trkpt lat="43.4577156" lon="10.7296205"><ele>151.0</ele><time>2026-04-19T08:32:37.008Z</time></trkpt><trkpt lat="43.4577022" lon="10.7297502"><ele>150.0</ele><time>2026-04-19T08:32:38.002Z</time></trkpt><trkpt lat="43.4576769" lon="10.7298675"><ele>149.0</ele><time>2026-04-19T08:32:39.005Z</time></trkpt><trkpt lat="43.457626" lon="10.7299773"><ele>149.0</ele><time>2026-04-19T08:32:40.012Z</time></trkpt><trkpt lat="43.4575331" lon="10.7301117"><ele>149.0</ele><time>2026-04-19T08:32:41.019Z</time></trkpt><trkpt lat="43.4574066" lon="10.7302743"><ele>149.0</ele><time>2026-04-19T08:32:42.013Z</time></trkpt><trkpt lat="43.4572725" lon="10.7304409"><ele>147.0</ele><time>2026-04-19T08:32:43.022Z</time></trkpt><trkpt lat="43.457147" lon="10.7305973"><ele>145.0</ele><time>2026-04-19T08:32:44.005Z</time></trkpt><trkpt lat="43.4570277" lon="10.7307532"><ele>143.0</ele><time>2026-04-19T08:32:45.009Z</time></trkpt><trkpt lat="43.4569177" lon="10.7308893"><ele>140.75</ele><time>2026-04-19T08:32:46.01Z</time></trkpt><trkpt lat="43.4568112" lon="10.7310298"><ele>138.5</ele><time>2026-04-19T08:32:46.996Z</time></trkpt><trkpt lat="43.4566985" lon="10.7311657"><ele>136.25</ele><time>2026-04-19T08:32:48.003Z</time></trkpt><trkpt lat="43.4565939" lon="10.7313071"><ele>134.0</ele><time>2026-04-19T08:32:48.998Z</time></trkpt><trkpt lat="43.4564948" lon="10.7314491"><ele>133.0</ele><time>2026-04-19T08:32:50.003Z</time></trkpt><trkpt lat="43.4564008" lon="10.7315805"><ele>132.0</ele><time>2026-04-19T08:32:51.017Z</time></trkpt><trkpt lat="43.4563174" lon="10.731693"><ele>131.0</ele><time>2026-04-19T08:32:52.003Z</time></trkpt><trkpt lat="43.4562565" lon="10.7317877"><ele>130.0</ele><time>2026-04-19T08:32:53Z</time></trkpt><trkpt lat="43.456203" lon="10.7318599"><ele>129.0</ele><time>2026-04-19T08:32:55.006Z</time></trkpt><trkpt lat="43.4561341" lon="10.7318472"><ele>128.0</ele><time>2026-04-19T08:33:06.999Z</time></trkpt><trkpt lat="43.4559929" lon="10.7317694"><ele>127.0</ele><time>2026-04-19T08:33:09.003Z</time></trkpt><trkpt lat="43.4558947" lon="10.7316736"><ele>126.0</ele><time>2026-04-19T08:33:10.008Z</time></trkpt><trkpt lat="43.4557778" lon="10.7315671"><ele>125.0</ele><time>2026-04-19T08:33:11.005Z</time></trkpt><trkpt lat="43.4556344" lon="10.7314377"><ele>125.0</ele><time>2026-04-19T08:33:12.004Z</time></trkpt><trkpt lat="43.4554675" lon="10.731292"><ele>125.0</ele><time>2026-04-19T08:33:12.998Z</time></trkpt><trkpt lat="43.4552911" lon="10.7311421"><ele>125.0</ele><time>2026-04-19T08:33:14.012Z</time></trkpt><trkpt lat="43.455101" lon="10.7309884"><ele>125.0</ele><time>2026-04-19T08:33:15.009Z</time></trkpt><trkpt lat="43.4549133" lon="10.730825"><ele>125.0</ele><time>2026-04-19T08:33:16.016Z</time></trkpt><trkpt lat="43.454721" lon="10.7306619"><ele>125.0</ele><time>2026-04-19T08:33:17Z</time></trkpt><trkpt lat="43.4545247" lon="10.730503"><ele>125.0</ele><time>2026-04-19T08:33:18.005Z</time></trkpt><trkpt lat="43.4543319" lon="10.7303396"><ele>125.0</ele><time>2026-04-19T08:33:19.013Z</time></trkpt><trkpt lat="43.4541388" lon="10.7301795"><ele>126.0</ele><time>2026-04-19T08:33:20.003Z</time></trkpt><trkpt lat="43.4539487" lon="10.7300138"><ele>127.0</ele><time>2026-04-19T08:33:20.993Z</time></trkpt><trkpt lat="43.4537715" lon="10.7298579"><ele>128.0</ele><time>2026-04-19T08:33:21.998Z</time></trkpt><trkpt lat="43.4536116" lon="10.7297204"><ele>128.0</ele><time>2026-04-19T08:33:23.01Z</time></trkpt><trkpt lat="43.4534592" lon="10.7295934"><ele>128.0</ele><time>2026-04-19T08:33:24.014Z</time></trkpt><trkpt lat="43.4533276" lon="10.7294869"><ele>128.0</ele><time>2026-04-19T08:33:25.002Z</time></trkpt><trkpt lat="43.4532296" lon="10.7294143"><ele>128.0</ele><time>2026-04-19T08:33:26.011Z</time></trkpt><trkpt lat="43.4531631" lon="10.7293496"><ele>128.5</ele><time>2026-04-19T08:33:27.008Z</time></trkpt><trkpt lat="43.4531727" lon="10.7292472"><ele>129.0</ele><time>2026-04-19T08:33:30.992Z</time></trkpt><trkpt lat="43.4531722" lon="10.7291572"><ele>129.5</ele><time>2026-04-19T08:33:32.002Z</time></trkpt><trkpt lat="43.4531594" lon="10.7290646"><ele>130.0</ele><time>2026-04-19T08:33:33.012Z</time></trkpt><trkpt lat="43.4531604" lon="10.7289468"><ele>130.5</ele><time>2026-04-19T08:33:34.006Z</time></trkpt><trkpt lat="43.453162" lon="10.7287975"><ele>131.0</ele><time>2026-04-19T08:33:35Z</time></trkpt><trkpt lat="43.4531414" lon="10.7286165"><ele>131.2</ele><time>2026-04-19T08:33:36.007Z</time></trkpt><trkpt lat="43.453115" lon="10.7284561"><ele>131.39999999999998</ele><time>2026-04-19T08:33:36.996Z</time></trkpt><trkpt lat="43.4530997" lon="10.7283203"><ele>131.6</ele><time>2026-04-19T08:33:37.995Z</time></trkpt><trkpt lat="43.4530707" lon="10.7281912"><ele>131.79999999999998</ele><time>2026-04-19T08:33:39.003Z</time></trkpt><trkpt lat="43.4530154" lon="10.7280725"><ele>132.0</ele><time>2026-04-19T08:33:40.008Z</time></trkpt><trkpt lat="43.4529485" lon="10.7279553"><ele>132.0</ele><time>2026-04-19T08:33:41.001Z</time></trkpt><trkpt lat="43.4528784" lon="10.7278351"><ele>132.0</ele><time>2026-04-19T08:33:42.003Z</time></trkpt><trkpt lat="43.4527979" lon="10.7277255"><ele>132.0</ele><time>2026-04-19T08:33:42.998Z</time></trkpt><trkpt lat="43.4527127" lon="10.727637"><ele>132.0</ele><time>2026-04-19T08:33:44.012Z</time></trkpt><trkpt lat="43.4526668" lon="10.7275401"><ele>132.0</ele><time>2026-04-19T08:33:45.009Z</time></trkpt><trkpt lat="43.4526565" lon="10.727419"><ele>132.2</ele><time>2026-04-19T08:33:46.009Z</time></trkpt><trkpt lat="43.4526531" lon="10.7273101"><ele>132.39999999999998</ele><time>2026-04-19T08:33:47.001Z</time></trkpt><trkpt lat="43.4526613" lon="10.7271513"><ele>132.60000000000002</ele><time>2026-04-19T08:33:49.004Z</time></trkpt><trkpt lat="43.4526292" lon="10.7269988"><ele>132.8</ele><time>2026-04-19T08:33:51Z</time></trkpt><trkpt lat="43.4525802" lon="10.7268827"><ele>133.0</ele><time>2026-04-19T08:33:51.996Z</time></trkpt><trkpt lat="43.4525339" lon="10.7267366"><ele>133.25</ele><time>2026-04-19T08:33:53.001Z</time></trkpt><trkpt lat="43.4524987" lon="10.726572"><ele>133.5</ele><time>2026-04-19T08:33:54.004Z</time></trkpt><trkpt lat="43.4524557" lon="10.7263942"><ele>133.75</ele><time>2026-04-19T08:33:55.005Z</time></trkpt><trkpt lat="43.4524048" lon="10.7262169"><ele>134.0</ele><time>2026-04-19T08:33:56.003Z</time></trkpt><trkpt lat="43.4523464" lon="10.7260451"><ele>134.5</ele><time>2026-04-19T08:33:57.001Z</time></trkpt><trkpt lat="43.4523027" lon="10.7259023"><ele>135.0</ele><time>2026-04-19T08:33:58.016Z</time></trkpt><trkpt lat="43.4522705" lon="10.7257773"><ele>135.5</ele><time>2026-04-19T08:33:59Z</time></trkpt><trkpt lat="43.4522012" lon="10.7256449"><ele>136.0</ele><time>2026-04-19T08:34:00Z</time></trkpt><trkpt lat="43.4520954" lon="10.7254961"><ele>136.0</ele><time>2026-04-19T08:34:01.006Z</time></trkpt><trkpt lat="43.4519822" lon="10.7253597"><ele>136.0</ele><time>2026-04-19T08:34:02.005Z</time></trkpt><trkpt lat="43.4518997" lon="10.7252229"><ele>136.0</ele><time>2026-04-19T08:34:03Z</time></trkpt><trkpt lat="43.4518598" lon="10.7250891"><ele>136.0</ele><time>2026-04-19T08:34:04.005Z</time></trkpt><trkpt lat="43.4518209" lon="10.7249447"><ele>136.25</ele><time>2026-04-19T08:34:05.004Z</time></trkpt><trkpt lat="43.45177" lon="10.7247767"><ele>136.5</ele><time>2026-04-19T08:34:05.997Z</time></trkpt><trkpt lat="43.4516959" lon="10.7246152"><ele>136.75</ele><time>2026-04-19T08:34:07Z</time></trkpt><trkpt lat="43.4516378" lon="10.7244595"><ele>137.0</ele><time>2026-04-19T08:34:08.003Z</time></trkpt><trkpt lat="43.4516097" lon="10.7242785"><ele>137.25</ele><time>2026-04-19T08:34:09.002Z</time></trkpt><trkpt lat="43.4515934" lon="10.7240906"><ele>137.5</ele><time>2026-04-19T08:34:10.005Z</time></trkpt><trkpt lat="43.4515699" lon="10.7239066"><ele>137.75</ele><time>2026-04-19T08:34:11.001Z</time></trkpt><trkpt lat="43.4515448" lon="10.723721"><ele>138.0</ele><time>2026-04-19T08:34:12.001Z</time></trkpt><trkpt lat="43.4515316" lon="10.7235524"><ele>138.4</ele><time>2026-04-19T08:34:13.006Z</time></trkpt><trkpt lat="43.451501" lon="10.7234157"><ele>138.8</ele><time>2026-04-19T08:34:14.008Z</time></trkpt><trkpt lat="43.4514336" lon="10.7233079"><ele>139.2</ele><time>2026-04-19T08:34:15.001Z</time></trkpt><trkpt lat="43.4513799" lon="10.7232033"><ele>139.6</ele><time>2026-04-19T08:34:16.01Z</time></trkpt><trkpt lat="43.4513244" lon="10.723106"><ele>140.0</ele><time>2026-04-19T08:34:17.004Z</time></trkpt><trkpt lat="43.4512846" lon="10.7230267"><ele>140.0</ele><time>2026-04-19T08:34:17.999Z</time></trkpt><trkpt lat="43.4512264" lon="10.722876"><ele>140.0</ele><time>2026-04-19T08:34:20.004Z</time></trkpt><trkpt lat="43.4511912" lon="10.722734"><ele>140.0</ele><time>2026-04-19T08:34:22.001Z</time></trkpt><trkpt lat="43.4511268" lon="10.7226782"><ele>140.0</ele><time>2026-04-19T08:34:25.004Z</time></trkpt><trkpt lat="43.4510533" lon="10.7226336"><ele>140.0</ele><time>2026-04-19T08:36:51.015Z</time></trkpt><trkpt lat="43.4509644" lon="10.7226414"><ele>140.6</ele><time>2026-04-19T08:36:53.002Z</time></trkpt><trkpt lat="43.4508993" lon="10.7226616"><ele>141.2</ele><time>2026-04-19T08:36:54.009Z</time></trkpt><trkpt lat="43.4507946" lon="10.722707"><ele>141.8</ele><time>2026-04-19T08:36:56.013Z</time></trkpt><trkpt lat="43.4507123" lon="10.7226903"><ele>142.4</ele><time>2026-04-19T08:36:58Z</time></trkpt><trkpt lat="43.4506453" lon="10.722591"><ele>143.0</ele><time>2026-04-19T08:36:59.997Z</time></trkpt><trkpt lat="43.4505804" lon="10.7224524"><ele>143.0</ele><time>2026-04-19T08:37:02.01Z</time></trkpt><trkpt lat="43.450498" lon="10.7223563"><ele>143.0</ele><time>2026-04-19T08:37:04.005Z</time></trkpt><trkpt lat="43.450369" lon="10.7223351"><ele>143.0</ele><time>2026-04-19T08:37:06.015Z</time></trkpt><trkpt lat="43.4502685" lon="10.7223121"><ele>143.0</ele><time>2026-04-19T08:37:06.996Z</time></trkpt><trkpt lat="43.4501467" lon="10.7223048"><ele>144.0</ele><time>2026-04-19T08:37:08Z</time></trkpt><trkpt lat="43.4500171" lon="10.7223165"><ele>145.0</ele><time>2026-04-19T08:37:09.006Z</time></trkpt><trkpt lat="43.4498702" lon="10.7223218"><ele>146.0</ele><time>2026-04-19T08:37:10.006Z</time></trkpt><trkpt lat="43.4497382" lon="10.722318"><ele>147.0</ele><time>2026-04-19T08:37:10.995Z</time></trkpt><trkpt lat="43.4496141" lon="10.7223004"><ele>149.16666666666666</ele><time>2026-04-19T08:37:11.996Z</time></trkpt><trkpt lat="43.449515" lon="10.7222694"><ele>151.33333333333334</ele><time>2026-04-19T08:37:13.008Z</time></trkpt><trkpt lat="43.4494238" lon="10.7222303"><ele>153.5</ele><time>2026-04-19T08:37:13.998Z</time></trkpt><trkpt lat="43.4493532" lon="10.7221856"><ele>155.66666666666669</ele><time>2026-04-19T08:37:15.004Z</time></trkpt><trkpt lat="43.4492931" lon="10.722132"><ele>157.83333333333334</ele><time>2026-04-19T08:37:16.003Z</time></trkpt><trkpt lat="43.4492275" lon="10.7220727"><ele>160.0</ele><time>2026-04-19T08:37:17.003Z</time></trkpt><trkpt lat="43.4491643" lon="10.7220117"><ele>160.0</ele><time>2026-04-19T08:37:18.001Z</time></trkpt><trkpt lat="43.4490961" lon="10.7219629"><ele>160.0</ele><time>2026-04-19T08:37:19.011Z</time></trkpt><trkpt lat="43.449031" lon="10.7219279"><ele>160.0</ele><time>2026-04-19T08:37:20Z</time></trkpt><trkpt lat="43.4489548" lon="10.7219109"><ele>160.0</ele><time>2026-04-19T08:37:21.004Z</time></trkpt><trkpt lat="43.4488639" lon="10.7219311"><ele>160.0</ele><time>2026-04-19T08:37:22.002Z</time></trkpt><trkpt lat="43.4487911" lon="10.7219678"><ele>160.0</ele><time>2026-04-19T08:37:23.016Z</time></trkpt><trkpt lat="43.4487275" lon="10.7220422"><ele>161.6</ele><time>2026-04-19T08:37:24.006Z</time></trkpt><trkpt lat="43.4486461" lon="10.7221209"><ele>163.2</ele><time>2026-04-19T08:37:25.003Z</time></trkpt><trkpt lat="43.4485534" lon="10.7222043"><ele>164.8</ele><time>2026-04-19T08:37:25.998Z</time></trkpt><trkpt lat="43.4484609" lon="10.7222818"><ele>166.4</ele><time>2026-04-19T08:37:27.006Z</time></trkpt><trkpt lat="43.4483795" lon="10.7223456"><ele>168.0</ele><time>2026-04-19T08:37:28.003Z</time></trkpt><trkpt lat="43.4482902" lon="10.7223895"><ele>168.0</ele><time>2026-04-19T08:37:28.999Z</time></trkpt><trkpt lat="43.4482016" lon="10.7224309"><ele>168.0</ele><time>2026-04-19T08:37:30.006Z</time></trkpt><trkpt lat="43.4481195" lon="10.7224783"><ele>168.0</ele><time>2026-04-19T08:37:30.998Z</time></trkpt><trkpt lat="43.4480564" lon="10.7225535"><ele>168.0</ele><time>2026-04-19T08:37:31.996Z</time></trkpt><trkpt lat="43.4480109" lon="10.7226303"><ele>168.0</ele><time>2026-04-19T08:37:33Z</time></trkpt><trkpt lat="43.4479881" lon="10.7227167"><ele>168.0</ele><time>2026-04-19T08:37:33.998Z</time></trkpt><trkpt lat="43.4479689" lon="10.7228117"><ele>168.42857142857142</ele><time>2026-04-19T08:37:34.997Z</time></trkpt><trkpt lat="43.4479683" lon="10.7229065"><ele>168.85714285714286</ele><time>2026-04-19T08:37:36.015Z</time></trkpt><trkpt lat="43.4479613" lon="10.7229935"><ele>169.28571428571428</ele><time>2026-04-19T08:37:37.003Z</time></trkpt><trkpt lat="43.4479469" lon="10.7230808"><ele>169.71428571428572</ele><time>2026-04-19T08:37:37.995Z</time></trkpt><trkpt lat="43.4478885" lon="10.7231629"><ele>170.14285714285714</ele><time>2026-04-19T08:37:40.008Z</time></trkpt><trkpt lat="43.4478165" lon="10.7232234"><ele>170.57142857142856</ele><time>2026-04-19T08:37:43.003Z</time></trkpt><trkpt lat="43.4477459" lon="10.7232668"><ele>171.0</ele><time>2026-04-19T08:37:47.008Z</time></trkpt><trkpt lat="43.4476816" lon="10.7233144"><ele>171.66666666666666</ele><time>2026-04-19T08:37:49.012Z</time></trkpt><trkpt lat="43.447617" lon="10.7233665"><ele>172.33333333333334</ele><time>2026-04-19T08:37:50.998Z</time></trkpt><trkpt lat="43.4475527" lon="10.7234322"><ele>173.0</ele><time>2026-04-19T08:37:52.998Z</time></trkpt><trkpt lat="43.4474793" lon="10.7234688"><ele>173.66666666666669</ele><time>2026-04-19T08:37:55.008Z</time></trkpt><trkpt lat="43.4474072" lon="10.723478"><ele>174.33333333333334</ele><time>2026-04-19T08:37:56.995Z</time></trkpt><trkpt lat="43.4473263" lon="10.7234956"><ele>175.0</ele><time>2026-04-19T08:37:59.013Z</time></trkpt><trkpt lat="43.4472596" lon="10.7234972"><ele>175.0</ele><time>2026-04-19T08:38:01.011Z</time></trkpt><trkpt lat="43.4471752" lon="10.7234861"><ele>175.0</ele><time>2026-04-19T08:38:04.002Z</time></trkpt><trkpt lat="43.4470905" lon="10.7234739"><ele>175.0</ele><time>2026-04-19T08:38:07.002Z</time></trkpt><trkpt lat="43.447004" lon="10.723478"><ele>175.0</ele><time>2026-04-19T08:38:10.008Z</time></trkpt><trkpt lat="43.4469341" lon="10.7234988"><ele>175.0</ele><time>2026-04-19T08:38:12.001Z</time></trkpt><trkpt lat="43.4468696" lon="10.723527"><ele>175.0</ele><time>2026-04-19T08:38:14.012Z</time></trkpt><trkpt lat="43.4467941" lon="10.7235597"><ele>175.66666666666669</ele><time>2026-04-19T08:38:16.003Z</time></trkpt><trkpt lat="43.4467123" lon="10.7235674"><ele>176.33333333333334</ele><time>2026-04-19T08:38:18.007Z</time></trkpt><trkpt lat="43.4466434" lon="10.7235381"><ele>177.0</ele><time>2026-04-19T08:38:20.006Z</time></trkpt><trkpt lat="43.4465744" lon="10.7235001"><ele>177.66666666666666</ele><time>2026-04-19T08:38:22.004Z</time></trkpt><trkpt lat="43.4464974" lon="10.723472"><ele>178.33333333333331</ele><time>2026-04-19T08:38:24.009Z</time></trkpt><trkpt lat="43.4464147" lon="10.7234764"><ele>179.0</ele><time>2026-04-19T08:38:26.005Z</time></trkpt><trkpt lat="43.4463417" lon="10.7233825"><ele>179.5</ele><time>2026-04-19T08:38:30.007Z</time></trkpt><trkpt lat="43.4463094" lon="10.7232871"><ele>180.0</ele><time>2026-04-19T08:38:31.01Z</time></trkpt><trkpt lat="43.4462761" lon="10.7231909"><ele>180.5</ele><time>2026-04-19T08:38:32.004Z</time></trkpt><trkpt lat="43.4462347" lon="10.7230738"><ele>181.0</ele><time>2026-04-19T08:38:32.998Z</time></trkpt><trkpt lat="43.4461969" lon="10.7229598"><ele>181.5</ele><time>2026-04-19T08:38:34.009Z</time></trkpt><trkpt lat="43.4461526" lon="10.7228371"><ele>182.0</ele><time>2026-04-19T08:38:35.004Z</time></trkpt><trkpt lat="43.4461053" lon="10.7227075"><ele>183.6</ele><time>2026-04-19T08:38:36.004Z</time></trkpt><trkpt lat="43.4460556" lon="10.7225799"><ele>185.2</ele><time>2026-04-19T08:38:36.999Z</time></trkpt><trkpt lat="43.445996" lon="10.7224486"><ele>186.8</ele><time>2026-04-19T08:38:38.012Z</time></trkpt><trkpt lat="43.4459265" lon="10.72233"><ele>188.4</ele><time>2026-04-19T08:38:38.998Z</time></trkpt><trkpt lat="43.4458545" lon="10.7222126"><ele>190.0</ele><time>2026-04-19T08:38:40.001Z</time></trkpt><trkpt lat="43.4457761" lon="10.7221047"><ele>190.0</ele><time>2026-04-19T08:38:41.003Z</time></trkpt><trkpt lat="43.4457025" lon="10.7219962"><ele>190.0</ele><time>2026-04-19T08:38:42.003Z</time></trkpt><trkpt lat="43.4456375" lon="10.7218823"><ele>190.0</ele><time>2026-04-19T08:38:43.002Z</time></trkpt><trkpt lat="43.4455902" lon="10.7217622"><ele>190.0</ele><time>2026-04-19T08:38:44.004Z</time></trkpt><trkpt lat="43.4455595" lon="10.7216233"><ele>190.0</ele><time>2026-04-19T08:38:45.003Z</time></trkpt><trkpt lat="43.445543" lon="10.7214844"><ele>190.0</ele><time>2026-04-19T08:38:45.992Z</time></trkpt><trkpt lat="43.4455338" lon="10.7213449"><ele>190.0</ele><time>2026-04-19T08:38:47.003Z</time></trkpt><trkpt lat="43.4455335" lon="10.7212137"><ele>190.0</ele><time>2026-04-19T08:38:48.004Z</time></trkpt><trkpt lat="43.4455529" lon="10.7210812"><ele>190.0</ele><time>2026-04-19T08:38:48.999Z</time></trkpt><trkpt lat="43.4455766" lon="10.7209531"><ele>190.0</ele><time>2026-04-19T08:38:49.999Z</time></trkpt><trkpt lat="43.445606" lon="10.7208237"><ele>191.2</ele><time>2026-04-19T08:38:51.006Z</time></trkpt><trkpt lat="43.4456301" lon="10.7206939"><ele>192.4</ele><time>2026-04-19T08:38:52.007Z</time></trkpt><trkpt lat="43.4456474" lon="10.720561"><ele>193.60000000000002</ele><time>2026-04-19T08:38:53.005Z</time></trkpt><trkpt lat="43.4456463" lon="10.7204265"><ele>194.8</ele><time>2026-04-19T08:38:53.996Z</time></trkpt><trkpt lat="43.445628" lon="10.7203055"><ele>196.0</ele><time>2026-04-19T08:38:54.997Z</time></trkpt><trkpt lat="43.4455911" lon="10.7201848"><ele>196.0</ele><time>2026-04-19T08:38:56.003Z</time></trkpt><trkpt lat="43.4455274" lon="10.7200737"><ele>196.0</ele><time>2026-04-19T08:38:57.007Z</time></trkpt><trkpt lat="43.445456" lon="10.7199941"><ele>196.0</ele><time>2026-04-19T08:38:58Z</time></trkpt><trkpt lat="43.4453639" lon="10.7199486"><ele>196.0</ele><time>2026-04-19T08:38:58.996Z</time></trkpt><trkpt lat="43.4452708" lon="10.7199608"><ele>196.0</ele><time>2026-04-19T08:39:00.01Z</time></trkpt><trkpt lat="43.4451798" lon="10.7200201"><ele>197.4</ele><time>2026-04-19T08:39:01.002Z</time></trkpt><trkpt lat="43.4450904" lon="10.7200983"><ele>198.8</ele><time>2026-04-19T08:39:01.996Z</time></trkpt><trkpt lat="43.4449969" lon="10.7201725"><ele>200.20000000000002</ele><time>2026-04-19T08:39:03.001Z</time></trkpt><trkpt lat="43.4449071" lon="10.7202602"><ele>201.60000000000002</ele><time>2026-04-19T08:39:04.01Z</time></trkpt><trkpt lat="43.4448269" lon="10.720364"><ele>203.0</ele><time>2026-04-19T08:39:05.007Z</time></trkpt><trkpt lat="43.4447747" lon="10.7204989"><ele>203.0</ele><time>2026-04-19T08:39:06.005Z</time></trkpt><trkpt lat="43.444726" lon="10.7206324"><ele>203.0</ele><time>2026-04-19T08:39:07.008Z</time></trkpt><trkpt lat="43.4446725" lon="10.720755"><ele>203.0</ele><time>2026-04-19T08:39:07.996Z</time></trkpt><trkpt lat="43.4445996" lon="10.7208528"><ele>203.0</ele><time>2026-04-19T08:39:09.003Z</time></trkpt><trkpt lat="43.4444968" lon="10.7209106"><ele>203.0</ele><time>2026-04-19T08:39:09.997Z</time></trkpt><trkpt lat="43.4443843" lon="10.7209735"><ele>206.5</ele><time>2026-04-19T08:39:10.998Z</time></trkpt><trkpt lat="43.4442713" lon="10.7210171"><ele>210.0</ele><time>2026-04-19T08:39:12.003Z</time></trkpt><trkpt lat="43.4441486" lon="10.7210441"><ele>213.5</ele><time>2026-04-19T08:39:12.995Z</time></trkpt><trkpt lat="43.4440161" lon="10.7210512"><ele>217.0</ele><time>2026-04-19T08:39:13.994Z</time></trkpt><trkpt lat="43.4438863" lon="10.7210581"><ele>217.75</ele><time>2026-04-19T08:39:15Z</time></trkpt><trkpt lat="43.4437537" lon="10.721082"><ele>218.5</ele><time>2026-04-19T08:39:16.001Z</time></trkpt><trkpt lat="43.4436273" lon="10.7211241"><ele>219.25</ele><time>2026-04-19T08:39:17.007Z</time></trkpt><trkpt lat="43.4435072" lon="10.7211952"><ele>220.0</ele><time>2026-04-19T08:39:17.987Z</time></trkpt><trkpt lat="43.4433891" lon="10.7212957"><ele>220.0</ele><time>2026-04-19T08:39:18.984Z</time></trkpt><trkpt lat="43.4432701" lon="10.7213976"><ele>220.0</ele><time>2026-04-19T08:39:20.007Z</time></trkpt><trkpt lat="43.4431405" lon="10.7214868"><ele>220.0</ele><time>2026-04-19T08:39:20.998Z</time></trkpt><trkpt lat="43.4430112" lon="10.7215677"><ele>220.0</ele><time>2026-04-19T08:39:21.998Z</time></trkpt><trkpt lat="43.4428837" lon="10.7216319"><ele>220.25</ele><time>2026-04-19T08:39:23.008Z</time></trkpt><trkpt lat="43.4427501" lon="10.7216896"><ele>220.5</ele><time>2026-04-19T08:39:24.011Z</time></trkpt><trkpt lat="43.4426198" lon="10.7217556"><ele>220.75</ele><time>2026-04-19T08:39:25.01Z</time></trkpt><trkpt lat="43.4425084" lon="10.7218379"><ele>221.0</ele><time>2026-04-19T08:39:25.995Z</time></trkpt><trkpt lat="43.4424261" lon="10.7219202"><ele>221.0</ele><time>2026-04-19T08:39:26.997Z</time></trkpt><trkpt lat="43.4423515" lon="10.7219838"><ele>221.00000000000003</ele><time>2026-04-19T08:39:27.997Z</time></trkpt><trkpt lat="43.442249" lon="10.7219775"><ele>221.00000000000003</ele><time>2026-04-19T08:39:30Z</time></trkpt><trkpt lat="43.4422426" lon="10.7218486"><ele>221.0</ele><time>2026-04-19T08:39:32.004Z</time></trkpt><trkpt lat="43.4422798" lon="10.7217471"><ele>221.0</ele><time>2026-04-19T08:39:32.993Z</time></trkpt><trkpt lat="43.442323" lon="10.7216316"><ele>223.0</ele><time>2026-04-19T08:39:33.999Z</time></trkpt><trkpt lat="43.4423495" lon="10.7214874"><ele>225.0</ele><time>2026-04-19T08:39:35.003Z</time></trkpt><trkpt lat="43.4423709" lon="10.7213228"><ele>227.0</ele><time>2026-04-19T08:39:35.996Z</time></trkpt><trkpt lat="43.4423986" lon="10.7211613"><ele>229.0</ele><time>2026-04-19T08:39:37.002Z</time></trkpt><trkpt lat="43.4424401" lon="10.7210087"><ele>231.5</ele><time>2026-04-19T08:39:37.999Z</time></trkpt><trkpt lat="43.4425201" lon="10.7208601"><ele>234.0</ele><time>2026-04-19T08:39:38.987Z</time></trkpt><trkpt lat="43.4426166" lon="10.7207423"><ele>236.5</ele><time>2026-04-19T08:39:39.999Z</time></trkpt><trkpt lat="43.442714" lon="10.7206189"><ele>239.0</ele><time>2026-04-19T08:39:40.992Z</time></trkpt><trkpt lat="43.4427965" lon="10.720482"><ele>239.00000000000003</ele><time>2026-04-19T08:39:41.999Z</time></trkpt><trkpt lat="43.4428626" lon="10.7203388"><ele>239.0</ele><time>2026-04-19T08:39:43.011Z</time></trkpt><trkpt lat="43.4429015" lon="10.720208"><ele>239.0</ele><time>2026-04-19T08:39:43.997Z</time></trkpt><trkpt lat="43.4429148" lon="10.7201067"><ele>239.0</ele><time>2026-04-19T08:39:44.999Z</time></trkpt><trkpt lat="43.4428823" lon="10.7200219"><ele>239.00000000000003</ele><time>2026-04-19T08:39:45.995Z</time></trkpt><trkpt lat="43.4428196" lon="10.7199666"><ele>239.0</ele><time>2026-04-19T08:39:47.001Z</time></trkpt><trkpt lat="43.4427474" lon="10.7199587"><ele>239.6</ele><time>2026-04-19T08:39:47.997Z</time></trkpt><trkpt lat="43.4426674" lon="10.7199744"><ele>240.2</ele><time>2026-04-19T08:39:48.986Z</time></trkpt><trkpt lat="43.4425708" lon="10.7199969"><ele>240.79999999999998</ele><time>2026-04-19T08:39:49.993Z</time></trkpt><trkpt lat="43.4424604" lon="10.7200344"><ele>241.39999999999998</ele><time>2026-04-19T08:39:51.003Z</time></trkpt><trkpt lat="43.442345" lon="10.7200817"><ele>242.0</ele><time>2026-04-19T08:39:51.997Z</time></trkpt><trkpt lat="43.4422257" lon="10.7201279"><ele>243.75</ele><time>2026-04-19T08:39:53.004Z</time></trkpt><trkpt lat="43.4421029" lon="10.7201815"><ele>245.5</ele><time>2026-04-19T08:39:54.002Z</time></trkpt><trkpt lat="43.4419788" lon="10.7202136"><ele>247.25</ele><time>2026-04-19T08:39:54.992Z</time></trkpt><trkpt lat="43.4418528" lon="10.7202302"><ele>249.0</ele><time>2026-04-19T08:39:56.006Z</time></trkpt><trkpt lat="43.4417334" lon="10.7202148"><ele>249.0</ele><time>2026-04-19T08:39:56.996Z</time></trkpt><trkpt lat="43.4416078" lon="10.7201637"><ele>249.0</ele><time>2026-04-19T08:39:57.996Z</time></trkpt><trkpt lat="43.4414918" lon="10.7200643"><ele>249.0</ele><time>2026-04-19T08:39:59.008Z</time></trkpt><trkpt lat="43.4413871" lon="10.7199362"><ele>249.0</ele><time>2026-04-19T08:40:00.012Z</time></trkpt><trkpt lat="43.4412761" lon="10.7198136"><ele>250.5</ele><time>2026-04-19T08:40:01Z</time></trkpt><trkpt lat="43.4411552" lon="10.7197"><ele>252.0</ele><time>2026-04-19T08:40:01.994Z</time></trkpt><trkpt lat="43.4410161" lon="10.7196085"><ele>253.5</ele><time>2026-04-19T08:40:02.998Z</time></trkpt><trkpt lat="43.4408847" lon="10.7195222"><ele>255.0</ele><time>2026-04-19T08:40:03.996Z</time></trkpt><trkpt lat="43.4407689" lon="10.7194603"><ele>255.0</ele><time>2026-04-19T08:40:05.001Z</time></trkpt><trkpt lat="43.4406584" lon="10.7194377"><ele>255.0</ele><time>2026-04-19T08:40:05.991Z</time></trkpt><trkpt lat="43.4405436" lon="10.7194551"><ele>255.0</ele><time>2026-04-19T08:40:07Z</time></trkpt><trkpt lat="43.44043" lon="10.71951"><ele>255.0</ele><time>2026-04-19T08:40:08.003Z</time></trkpt><trkpt lat="43.4403232" lon="10.7196"><ele>256.8</ele><time>2026-04-19T08:40:09.009Z</time></trkpt><trkpt lat="43.4402211" lon="10.7196772"><ele>258.6</ele><time>2026-04-19T08:40:10.002Z</time></trkpt><trkpt lat="43.4401199" lon="10.7197122"><ele>260.4</ele><time>2026-04-19T08:40:10.993Z</time></trkpt><trkpt lat="43.4400086" lon="10.719716"><ele>262.2</ele><time>2026-04-19T08:40:11.987Z</time></trkpt><trkpt lat="43.4399028" lon="10.719671"><ele>264.0</ele><time>2026-04-19T08:40:13.008Z</time></trkpt><trkpt lat="43.4398006" lon="10.7195994"><ele>264.0</ele><time>2026-04-19T08:40:13.986Z</time></trkpt><trkpt lat="43.4397144" lon="10.7194756"><ele>264.0</ele><time>2026-04-19T08:40:14.996Z</time></trkpt><trkpt lat="43.4396182" lon="10.7193539"><ele>264.0</ele><time>2026-04-19T08:40:15.994Z</time></trkpt><trkpt lat="43.4394948" lon="10.7192471"><ele>264.0</ele><time>2026-04-19T08:40:17Z</time></trkpt><trkpt lat="43.4393697" lon="10.7191764"><ele>268.75</ele><time>2026-04-19T08:40:17.997Z</time></trkpt><trkpt lat="43.4392338" lon="10.7191431"><ele>273.5</ele><time>2026-04-19T08:40:19Z</time></trkpt><trkpt lat="43.4391002" lon="10.7191439"><ele>278.25</ele><time>2026-04-19T08:40:19.997Z</time></trkpt><trkpt lat="43.4389622" lon="10.7191776"><ele>283.0</ele><time>2026-04-19T08:40:20.997Z</time></trkpt><trkpt lat="43.4388229" lon="10.7192197"><ele>284.75</ele><time>2026-04-19T08:40:21.996Z</time></trkpt><trkpt lat="43.4386801" lon="10.7192343"><ele>286.5</ele><time>2026-04-19T08:40:22.995Z</time></trkpt><trkpt lat="43.4385215" lon="10.7192318"><ele>288.25</ele><time>2026-04-19T08:40:23.992Z</time></trkpt><trkpt lat="43.4383819" lon="10.7192148"><ele>290.0</ele><time>2026-04-19T08:40:24.999Z</time></trkpt><trkpt lat="43.4382612" lon="10.7192053"><ele>290.0</ele><time>2026-04-19T08:40:25.986Z</time></trkpt><trkpt lat="43.4381692" lon="10.7192011"><ele>290.0</ele><time>2026-04-19T08:40:26.996Z</time></trkpt><trkpt lat="43.4380861" lon="10.7192535"><ele>290.0</ele><time>2026-04-19T08:40:27.993Z</time></trkpt><trkpt lat="43.4380239" lon="10.7193381"><ele>290.0</ele><time>2026-04-19T08:40:28.987Z</time></trkpt><trkpt lat="43.4379851" lon="10.7194873"><ele>290.0</ele><time>2026-04-19T08:40:29.995Z</time></trkpt><trkpt lat="43.4379756" lon="10.7196496"><ele>288.75</ele><time>2026-04-19T08:40:30.996Z</time></trkpt><trkpt lat="43.437996" lon="10.7198258"><ele>287.5</ele><time>2026-04-19T08:40:31.996Z</time></trkpt><trkpt lat="43.4380242" lon="10.7200076"><ele>286.25</ele><time>2026-04-19T08:40:32.997Z</time></trkpt><trkpt lat="43.4380361" lon="10.7201847"><ele>285.0</ele><time>2026-04-19T08:40:34.006Z</time></trkpt><trkpt lat="43.4380327" lon="10.7203678"><ele>285.0</ele><time>2026-04-19T08:40:34.998Z</time></trkpt><trkpt lat="43.4380052" lon="10.7205518"><ele>285.0</ele><time>2026-04-19T08:40:36.014Z</time></trkpt><trkpt lat="43.4379678" lon="10.7207173"><ele>285.0</ele><time>2026-04-19T08:40:37.005Z</time></trkpt><trkpt lat="43.4379128" lon="10.720852"><ele>285.0</ele><time>2026-04-19T08:40:37.999Z</time></trkpt><trkpt lat="43.4378455" lon="10.7209634"><ele>286.0</ele><time>2026-04-19T08:40:38.996Z</time></trkpt><trkpt lat="43.4377637" lon="10.7210479"><ele>287.0</ele><time>2026-04-19T08:40:39.996Z</time></trkpt><trkpt lat="43.4376571" lon="10.7211126"><ele>288.0</ele><time>2026-04-19T08:40:40.999Z</time></trkpt><trkpt lat="43.4375525" lon="10.7211477"><ele>289.0</ele><time>2026-04-19T08:40:41.99Z</time></trkpt><trkpt lat="43.4374388" lon="10.7211704"><ele>290.0</ele><time>2026-04-19T08:40:43.003Z</time></trkpt><trkpt lat="43.4373252" lon="10.7212043"><ele>290.0</ele><time>2026-04-19T08:40:44.001Z</time></trkpt><trkpt lat="43.4372148" lon="10.7212564"><ele>290.0</ele><time>2026-04-19T08:40:45.011Z</time></trkpt><trkpt lat="43.4371043" lon="10.721334"><ele>290.0</ele><time>2026-04-19T08:40:46Z</time></trkpt><trkpt lat="43.4370237" lon="10.721458"><ele>290.0</ele><time>2026-04-19T08:40:47.002Z</time></trkpt><trkpt lat="43.4369552" lon="10.7216024"><ele>293.25</ele><time>2026-04-19T08:40:48.01Z</time></trkpt><trkpt lat="43.4368918" lon="10.7217565"><ele>296.5</ele><time>2026-04-19T08:40:48.998Z</time></trkpt><trkpt lat="43.4368326" lon="10.7219282"><ele>299.75</ele><time>2026-04-19T08:40:49.998Z</time></trkpt><trkpt lat="43.4367729" lon="10.7220758"><ele>303.0</ele><time>2026-04-19T08:40:50.997Z</time></trkpt><trkpt lat="43.4367217" lon="10.7221959"><ele>303.0</ele><time>2026-04-19T08:40:52.005Z</time></trkpt><trkpt lat="43.4366673" lon="10.722303"><ele>303.0</ele><time>2026-04-19T08:40:52.999Z</time></trkpt><trkpt lat="43.4365819" lon="10.7223777"><ele>303.0</ele><time>2026-04-19T08:40:54Z</time></trkpt><trkpt lat="43.4364831" lon="10.7224081"><ele>303.0</ele><time>2026-04-19T08:40:55.002Z</time></trkpt><trkpt lat="43.4363871" lon="10.7224294"><ele>303.0</ele><time>2026-04-19T08:40:55.994Z</time></trkpt><trkpt lat="43.4362896" lon="10.7224428"><ele>305.1666666666667</ele><time>2026-04-19T08:40:57.004Z</time></trkpt><trkpt lat="43.436199" lon="10.7224651"><ele>307.3333333333333</ele><time>2026-04-19T08:40:58.001Z</time></trkpt><trkpt lat="43.4361024" lon="10.7224843"><ele>309.5</ele><time>2026-04-19T08:40:58.999Z</time></trkpt><trkpt lat="43.4360198" lon="10.7225309"><ele>311.66666666666663</ele><time>2026-04-19T08:41:00.004Z</time></trkpt><trkpt lat="43.4359583" lon="10.7226096"><ele>313.8333333333333</ele><time>2026-04-19T08:41:00.998Z</time></trkpt><trkpt lat="43.4359234" lon="10.7227024"><ele>316.0</ele><time>2026-04-19T08:41:02.005Z</time></trkpt><trkpt lat="43.4358896" lon="10.7228312"><ele>316.0</ele><time>2026-04-19T08:41:03.007Z</time></trkpt><trkpt lat="43.4358743" lon="10.722964"><ele>316.0</ele><time>2026-04-19T08:41:04.004Z</time></trkpt><trkpt lat="43.4358689" lon="10.7230948"><ele>316.0</ele><time>2026-04-19T08:41:05.003Z</time></trkpt><trkpt lat="43.4358466" lon="10.7231941"><ele>316.0</ele><time>2026-04-19T08:41:06.003Z</time></trkpt><trkpt lat="43.4358338" lon="10.7232826"><ele>316.0</ele><time>2026-04-19T08:41:07.002Z</time></trkpt><trkpt lat="43.4357432" lon="10.7233758"><ele>316.0</ele><time>2026-04-19T08:41:09.006Z</time></trkpt><trkpt lat="43.4356645" lon="10.7233631"><ele>316.0</ele><time>2026-04-19T08:41:09.986Z</time></trkpt><trkpt lat="43.4355995" lon="10.7233493"><ele>316.0</ele><time>2026-04-19T08:41:11.006Z</time></trkpt><trkpt lat="43.4355211" lon="10.7233139"><ele>316.0</ele><time>2026-04-19T08:41:12.999Z</time></trkpt><trkpt lat="43.435457" lon="10.7233904"><ele>316.0</ele><time>2026-04-19T08:41:15.994Z</time></trkpt><trkpt lat="43.435465" lon="10.7235002"><ele>316.0</ele><time>2026-04-19T08:41:17.996Z</time></trkpt><trkpt lat="43.4354732" lon="10.7236376"><ele>316.0</ele><time>2026-04-19T08:41:20.001Z</time></trkpt><trkpt lat="43.4355359" lon="10.7235967"><ele>316.0</ele><time>2026-04-19T08:41:25.991Z</time></trkpt><trkpt lat="43.4354795" lon="10.7235234"><ele>316.0</ele><time>2026-04-19T08:41:27.992Z</time></trkpt><trkpt lat="43.43539" lon="10.7234261"><ele>316.0</ele><time>2026-04-19T08:41:29.996Z</time></trkpt><trkpt lat="43.4353366" lon="10.723368"><ele>316.0</ele><time>2026-04-19T08:41:30.998Z</time></trkpt><trkpt lat="43.4352415" lon="10.7232786"><ele>316.0</ele><time>2026-04-19T08:41:33.011Z</time></trkpt><trkpt lat="43.4351799" lon="10.7231606"><ele>319.0</ele><time>2026-04-19T08:41:35.001Z</time></trkpt><trkpt lat="43.4351871" lon="10.7230489"><ele>322.0</ele><time>2026-04-19T08:41:36.993Z</time></trkpt><trkpt lat="43.4351803" lon="10.7228585"><ele>325.0</ele><time>2026-04-19T08:41:38.994Z</time></trkpt><trkpt lat="43.4351465" lon="10.7227308"><ele>328.0</ele><time>2026-04-19T08:41:40.003Z</time></trkpt><trkpt lat="43.435132" lon="10.7225995"><ele>331.0</ele><time>2026-04-19T08:41:40.985Z</time></trkpt><trkpt lat="43.4351123" lon="10.7224684"><ele>332.6</ele><time>2026-04-19T08:41:41.992Z</time></trkpt><trkpt lat="43.4351008" lon="10.7223368"><ele>334.20000000000005</ele><time>2026-04-19T08:41:43.005Z</time></trkpt><trkpt lat="43.4350944" lon="10.722205"><ele>335.79999999999995</ele><time>2026-04-19T08:41:43.998Z</time></trkpt><trkpt lat="43.4350853" lon="10.7220935"><ele>337.4</ele><time>2026-04-19T08:41:45Z</time></trkpt><trkpt lat="43.4350928" lon="10.7220036"><ele>339.0</ele><time>2026-04-19T08:41:46.003Z</time></trkpt><trkpt lat="43.4351644" lon="10.7218788"><ele>340.6</ele><time>2026-04-19T08:41:48.005Z</time></trkpt><trkpt lat="43.435268" lon="10.7217539"><ele>342.2</ele><time>2026-04-19T08:41:49.996Z</time></trkpt><trkpt lat="43.4352856" lon="10.7216327"><ele>343.8</ele><time>2026-04-19T08:41:50.996Z</time></trkpt><trkpt lat="43.435302" lon="10.7214842"><ele>345.40000000000003</ele><time>2026-04-19T08:41:51.998Z</time></trkpt><trkpt lat="43.4353054" lon="10.7213508"><ele>347.0</ele><time>2026-04-19T08:41:53.001Z</time></trkpt><trkpt lat="43.4353154" lon="10.721251"><ele>347.0</ele><time>2026-04-19T08:41:54.005Z</time></trkpt><trkpt lat="43.4353105" lon="10.7211046"><ele>347.0</ele><time>2026-04-19T08:41:56.008Z</time></trkpt><trkpt lat="43.4352676" lon="10.7210319"><ele>347.0</ele><time>2026-04-19T08:41:57.006Z</time></trkpt><trkpt lat="43.4352158" lon="10.7209251"><ele>347.0</ele><time>2026-04-19T08:41:57.995Z</time></trkpt><trkpt lat="43.4351866" lon="10.7208154"><ele>347.0</ele><time>2026-04-19T08:41:59.006Z</time></trkpt><trkpt lat="43.4351976" lon="10.7206785"><ele>348.40000000000003</ele><time>2026-04-19T08:42:00.007Z</time></trkpt><trkpt lat="43.4351961" lon="10.7205408"><ele>349.8</ele><time>2026-04-19T08:42:01.002Z</time></trkpt><trkpt lat="43.4351836" lon="10.7204087"><ele>351.2</ele><time>2026-04-19T08:42:01.997Z</time></trkpt><trkpt lat="43.4351615" lon="10.7202817"><ele>352.6</ele><time>2026-04-19T08:42:03.007Z</time></trkpt><trkpt lat="43.4351458" lon="10.7201432"><ele>354.0</ele><time>2026-04-19T08:42:03.994Z</time></trkpt><trkpt lat="43.4351392" lon="10.7199986"><ele>354.6</ele><time>2026-04-19T08:42:04.997Z</time></trkpt><trkpt lat="43.4351463" lon="10.71986"><ele>355.2</ele><time>2026-04-19T08:42:06.009Z</time></trkpt><trkpt lat="43.4351866" lon="10.7197392"><ele>355.8</ele><time>2026-04-19T08:42:07.003Z</time></trkpt><trkpt lat="43.4352306" lon="10.7196241"><ele>356.40000000000003</ele><time>2026-04-19T08:42:08Z</time></trkpt><trkpt lat="43.4352587" lon="10.7194959"><ele>357.0</ele><time>2026-04-19T08:42:09.01Z</time></trkpt><trkpt lat="43.4352442" lon="10.7193534"><ele>358.40000000000003</ele><time>2026-04-19T08:42:10.012Z</time></trkpt><trkpt lat="43.4352216" lon="10.7192088"><ele>359.8</ele><time>2026-04-19T08:42:11Z</time></trkpt><trkpt lat="43.435183" lon="10.7190521"><ele>361.2</ele><time>2026-04-19T08:42:12.001Z</time></trkpt><trkpt lat="43.4351445" lon="10.7189122"><ele>362.6</ele><time>2026-04-19T08:42:12.998Z</time></trkpt><trkpt lat="43.4351134" lon="10.7187739"><ele>364.0</ele><time>2026-04-19T08:42:14.002Z</time></trkpt><trkpt lat="43.435079" lon="10.7186359"><ele>365.0</ele><time>2026-04-19T08:42:14.99Z</time></trkpt><trkpt lat="43.4350421" lon="10.7185002"><ele>366.0</ele><time>2026-04-19T08:42:15.996Z</time></trkpt><trkpt lat="43.4349957" lon="10.7183599"><ele>367.0</ele><time>2026-04-19T08:42:16.999Z</time></trkpt><trkpt lat="43.4349484" lon="10.7182162"><ele>368.0</ele><time>2026-04-19T08:42:17.998Z</time></trkpt><trkpt lat="43.434909" lon="10.7180719"><ele>369.0</ele><time>2026-04-19T08:42:19.011Z</time></trkpt><trkpt lat="43.434868" lon="10.7179246"><ele>369.0</ele><time>2026-04-19T08:42:20.002Z</time></trkpt><trkpt lat="43.4348214" lon="10.7177849"><ele>369.0</ele><time>2026-04-19T08:42:21.004Z</time></trkpt><trkpt lat="43.4347655" lon="10.7176481"><ele>369.0</ele><time>2026-04-19T08:42:22.003Z</time></trkpt><trkpt lat="43.4347153" lon="10.7175097"><ele>369.0</ele><time>2026-04-19T08:42:22.996Z</time></trkpt><trkpt lat="43.4346733" lon="10.7173655"><ele>372.4</ele><time>2026-04-19T08:42:23.996Z</time></trkpt><trkpt lat="43.4346302" lon="10.7172242"><ele>375.79999999999995</ele><time>2026-04-19T08:42:24.998Z</time></trkpt><trkpt lat="43.4346014" lon="10.7170872"><ele>379.20000000000005</ele><time>2026-04-19T08:42:26.001Z</time></trkpt><trkpt lat="43.4345918" lon="10.7169483"><ele>382.6</ele><time>2026-04-19T08:42:27.002Z</time></trkpt><trkpt lat="43.4345871" lon="10.7168317"><ele>386.0</ele><time>2026-04-19T08:42:28.008Z</time></trkpt><trkpt lat="43.4345746" lon="10.716734"><ele>387.0</ele><time>2026-04-19T08:42:28.992Z</time></trkpt><trkpt lat="43.4345435" lon="10.7166225"><ele>388.0</ele><time>2026-04-19T08:42:30.001Z</time></trkpt><trkpt lat="43.4344863" lon="10.7165129"><ele>389.0</ele><time>2026-04-19T08:42:30.996Z</time></trkpt><trkpt lat="43.4344328" lon="10.7163907"><ele>390.0</ele><time>2026-04-19T08:42:31.999Z</time></trkpt><trkpt lat="43.4343678" lon="10.7162792"><ele>391.0</ele><time>2026-04-19T08:42:33.002Z</time></trkpt><trkpt lat="43.4343098" lon="10.7161728"><ele>391.0</ele><time>2026-04-19T08:42:34.006Z</time></trkpt><trkpt lat="43.4342488" lon="10.7160703"><ele>391.0</ele><time>2026-04-19T08:42:35.012Z</time></trkpt><trkpt lat="43.4341772" lon="10.7159874"><ele>391.0</ele><time>2026-04-19T08:42:36.008Z</time></trkpt><trkpt lat="43.4340884" lon="10.7159339"><ele>391.0</ele><time>2026-04-19T08:42:37.005Z</time></trkpt><trkpt lat="43.4339803" lon="10.7159052"><ele>391.0</ele><time>2026-04-19T08:42:38Z</time></trkpt><trkpt lat="43.4338673" lon="10.7158722"><ele>394.25</ele><time>2026-04-19T08:42:38.996Z</time></trkpt><trkpt lat="43.4337535" lon="10.7158317"><ele>397.5</ele><time>2026-04-19T08:42:39.989Z</time></trkpt><trkpt lat="43.4336394" lon="10.7157894"><ele>400.75</ele><time>2026-04-19T08:42:40.999Z</time></trkpt><trkpt lat="43.4335186" lon="10.7157577"><ele>404.0</ele><time>2026-04-19T08:42:41.998Z</time></trkpt><trkpt lat="43.4334016" lon="10.7157235"><ele>404.0</ele><time>2026-04-19T08:42:43Z</time></trkpt><trkpt lat="43.4333029" lon="10.7156979"><ele>404.0</ele><time>2026-04-19T08:42:44.012Z</time></trkpt><trkpt lat="43.4332098" lon="10.7156709"><ele>404.0</ele><time>2026-04-19T08:42:44.998Z</time></trkpt><trkpt lat="43.4331102" lon="10.7156235"><ele>404.0</ele><time>2026-04-19T08:42:45.999Z</time></trkpt><trkpt lat="43.4330094" lon="10.7155561"><ele>404.0</ele><time>2026-04-19T08:42:46.996Z</time></trkpt><trkpt lat="43.4329019" lon="10.7154744"><ele>405.0</ele><time>2026-04-19T08:42:47.999Z</time></trkpt><trkpt lat="43.4327945" lon="10.7153803"><ele>406.0</ele><time>2026-04-19T08:42:49.007Z</time></trkpt><trkpt lat="43.4326928" lon="10.7152592"><ele>407.0</ele><time>2026-04-19T08:42:50.004Z</time></trkpt><trkpt lat="43.4325969" lon="10.7151357"><ele>408.0</ele><time>2026-04-19T08:42:51.008Z</time></trkpt><trkpt lat="43.4325041" lon="10.7150038"><ele>408.0</ele><time>2026-04-19T08:42:52.01Z</time></trkpt><trkpt lat="43.4324138" lon="10.7148724"><ele>408.0</ele><time>2026-04-19T08:42:52.988Z</time></trkpt><trkpt lat="43.432326" lon="10.7147445"><ele>408.0</ele><time>2026-04-19T08:42:53.987Z</time></trkpt><trkpt lat="43.4322329" lon="10.714618"><ele>408.0</ele><time>2026-04-19T08:42:54.999Z</time></trkpt><trkpt lat="43.4321272" lon="10.7145105"><ele>409.5</ele><time>2026-04-19T08:42:55.994Z</time></trkpt><trkpt lat="43.4320164" lon="10.7144215"><ele>411.0</ele><time>2026-04-19T08:42:56.996Z</time></trkpt><trkpt lat="43.4319198" lon="10.7143222"><ele>412.5</ele><time>2026-04-19T08:42:58.002Z</time></trkpt><trkpt lat="43.4318427" lon="10.7142288"><ele>414.0</ele><time>2026-04-19T08:42:58.994Z</time></trkpt><trkpt lat="43.4317595" lon="10.7141194"><ele>414.0</ele><time>2026-04-19T08:43:00.002Z</time></trkpt><trkpt lat="43.4316803" lon="10.7140081"><ele>414.0</ele><time>2026-04-19T08:43:01.007Z</time></trkpt><trkpt lat="43.4316223" lon="10.7139263"><ele>414.0</ele><time>2026-04-19T08:43:01.997Z</time></trkpt><trkpt lat="43.4315704" lon="10.7138679"><ele>414.0</ele><time>2026-04-19T08:43:03.015Z</time></trkpt><trkpt lat="43.4314877" lon="10.7139046"><ele>414.0</ele><time>2026-04-19T08:43:05.006Z</time></trkpt><trkpt lat="43.4314112" lon="10.7140029"><ele>414.0</ele><time>2026-04-19T08:43:07.001Z</time></trkpt><trkpt lat="43.4313686" lon="10.7140823"><ele>414.0</ele><time>2026-04-19T08:43:08.003Z</time></trkpt><trkpt lat="43.431325" lon="10.7141628"><ele>414.0</ele><time>2026-04-19T08:43:09.003Z</time></trkpt><trkpt lat="43.431273" lon="10.7142472"><ele>414.0</ele><time>2026-04-19T08:43:10.001Z</time></trkpt><trkpt lat="43.4312135" lon="10.7143434"><ele>414.0</ele><time>2026-04-19T08:43:11.007Z</time></trkpt><trkpt lat="43.4311632" lon="10.7144322"><ele>414.0</ele><time>2026-04-19T08:43:11.998Z</time></trkpt><trkpt lat="43.4311073" lon="10.7145267"><ele>417.1666666666667</ele><time>2026-04-19T08:43:13.001Z</time></trkpt><trkpt lat="43.4310443" lon="10.7146302"><ele>420.33333333333337</ele><time>2026-04-19T08:43:13.995Z</time></trkpt><trkpt lat="43.430983" lon="10.7147167"><ele>423.5</ele><time>2026-04-19T08:43:15Z</time></trkpt><trkpt lat="43.4309299" lon="10.7147826"><ele>426.6666666666667</ele><time>2026-04-19T08:43:16.002Z</time></trkpt><trkpt lat="43.430861" lon="10.714827"><ele>429.83333333333337</ele><time>2026-04-19T08:43:17.006Z</time></trkpt><trkpt lat="43.4307907" lon="10.7148531"><ele>433.0</ele><time>2026-04-19T08:43:18.001Z</time></trkpt><trkpt lat="43.430692" lon="10.7148751"><ele>433.0</ele><time>2026-04-19T08:43:19.002Z</time></trkpt><trkpt lat="43.4305789" lon="10.7148913"><ele>433.0</ele><time>2026-04-19T08:43:19.996Z</time></trkpt><trkpt lat="43.4304501" lon="10.7149075"><ele>433.0</ele><time>2026-04-19T08:43:21Z</time></trkpt><trkpt lat="43.4303137" lon="10.7149142"><ele>433.0</ele><time>2026-04-19T08:43:21.997Z</time></trkpt><trkpt lat="43.4301845" lon="10.7149229"><ele>434.4</ele><time>2026-04-19T08:43:22.998Z</time></trkpt><trkpt lat="43.430077" lon="10.7149382"><ele>435.79999999999995</ele><time>2026-04-19T08:43:24.002Z</time></trkpt><trkpt lat="43.429982" lon="10.7149752"><ele>437.2</ele><time>2026-04-19T08:43:25.004Z</time></trkpt><trkpt lat="43.4298869" lon="10.7150309"><ele>438.6</ele><time>2026-04-19T08:43:26.004Z</time></trkpt><trkpt lat="43.4297991" lon="10.7151033"><ele>440.0</ele><time>2026-04-19T08:43:27.008Z</time></trkpt><trkpt lat="43.4297099" lon="10.7151788"><ele>442.5</ele><time>2026-04-19T08:43:28.004Z</time></trkpt><trkpt lat="43.4296197" lon="10.7152642"><ele>445.0</ele><time>2026-04-19T08:43:28.998Z</time></trkpt><trkpt lat="43.4295064" lon="10.715357"><ele>447.5</ele><time>2026-04-19T08:43:30Z</time></trkpt><trkpt lat="43.4293753" lon="10.7154613"><ele>450.0</ele><time>2026-04-19T08:43:31.006Z</time></trkpt><trkpt lat="43.4292408" lon="10.7155623"><ele>450.0</ele><time>2026-04-19T08:43:32.014Z</time></trkpt><trkpt lat="43.4291334" lon="10.7156649"><ele>450.0</ele><time>2026-04-19T08:43:33.003Z</time></trkpt><trkpt lat="43.4290501" lon="10.7157426"><ele>450.0</ele><time>2026-04-19T08:43:34.008Z</time></trkpt><trkpt lat="43.4289702" lon="10.7157596"><ele>450.0</ele><time>2026-04-19T08:43:35.008Z</time></trkpt><trkpt lat="43.4288853" lon="10.7157232"><ele>450.0</ele><time>2026-04-19T08:43:36Z</time></trkpt><trkpt lat="43.4287785" lon="10.7156332"><ele>450.5</ele><time>2026-04-19T08:43:36.99Z</time></trkpt><trkpt lat="43.4286545" lon="10.7155284"><ele>451.0</ele><time>2026-04-19T08:43:38.003Z</time></trkpt><trkpt lat="43.4285343" lon="10.715409"><ele>451.5</ele><time>2026-04-19T08:43:39.012Z</time></trkpt><trkpt lat="43.4284164" lon="10.7152883"><ele>452.0</ele><time>2026-04-19T08:43:40.005Z</time></trkpt><trkpt lat="43.4282994" lon="10.7151499"><ele>452.0</ele><time>2026-04-19T08:43:41.006Z</time></trkpt><trkpt lat="43.4281699" lon="10.715031"><ele>452.0</ele><time>2026-04-19T08:43:41.999Z</time></trkpt><trkpt lat="43.4280365" lon="10.7149307"><ele>452.0</ele><time>2026-04-19T08:43:42.99Z</time></trkpt><trkpt lat="43.4278948" lon="10.714844"><ele>452.5</ele><time>2026-04-19T08:43:44.002Z</time></trkpt><trkpt lat="43.4277546" lon="10.7147671"><ele>453.0</ele><time>2026-04-19T08:43:44.995Z</time></trkpt><trkpt lat="43.4276234" lon="10.7146807"><ele>453.5</ele><time>2026-04-19T08:43:45.992Z</time></trkpt><trkpt lat="43.427505" lon="10.7145882"><ele>454.0</ele><time>2026-04-19T08:43:47.004Z</time></trkpt><trkpt lat="43.4274007" lon="10.7144802"><ele>454.2</ele><time>2026-04-19T08:43:47.992Z</time></trkpt><trkpt lat="43.427292" lon="10.714384"><ele>454.4</ele><time>2026-04-19T08:43:48.993Z</time></trkpt><trkpt lat="43.4272018" lon="10.7143271"><ele>454.6</ele><time>2026-04-19T08:43:49.993Z</time></trkpt><trkpt lat="43.4271006" lon="10.7143158"><ele>454.8</ele><time>2026-04-19T08:43:51.002Z</time></trkpt><trkpt lat="43.4270032" lon="10.7143375"><ele>455.0</ele><time>2026-04-19T08:43:52Z</time></trkpt><trkpt lat="43.426903" lon="10.7143798"><ele>456.2</ele><time>2026-04-19T08:43:52.992Z</time></trkpt><trkpt lat="43.4268031" lon="10.7144237"><ele>457.4</ele><time>2026-04-19T08:43:54.003Z</time></trkpt><trkpt lat="43.4267032" lon="10.7144712"><ele>458.6</ele><time>2026-04-19T08:43:54.998Z</time></trkpt><trkpt lat="43.4265916" lon="10.7145093"><ele>459.8</ele><time>2026-04-19T08:43:55.993Z</time></trkpt><trkpt lat="43.4264921" lon="10.7145486"><ele>461.0</ele><time>2026-04-19T08:43:56.987Z</time></trkpt><trkpt lat="43.4264283" lon="10.7146131"><ele>461.0</ele><time>2026-04-19T08:43:57.998Z</time></trkpt><trkpt lat="43.4263765" lon="10.714708"><ele>461.0</ele><time>2026-04-19T08:43:58.989Z</time></trkpt><trkpt lat="43.4263338" lon="10.7148201"><ele>461.0</ele><time>2026-04-19T08:43:59.996Z</time></trkpt><trkpt lat="43.4262803" lon="10.7149288"><ele>461.0</ele><time>2026-04-19T08:44:00.991Z</time></trkpt><trkpt lat="43.4262116" lon="10.7150359"><ele>461.0</ele><time>2026-04-19T08:44:02.005Z</time></trkpt><trkpt lat="43.4261436" lon="10.7150904"><ele>462.99999999999994</ele><time>2026-04-19T08:44:03.001Z</time></trkpt><trkpt lat="43.4260709" lon="10.7150881"><ele>465.0</ele><time>2026-04-19T08:44:04.003Z</time></trkpt><trkpt lat="43.4260107" lon="10.7150513"><ele>467.0</ele><time>2026-04-19T08:44:04.999Z</time></trkpt><trkpt lat="43.4259516" lon="10.7149967"><ele>469.0</ele><time>2026-04-19T08:44:05.995Z</time></trkpt><trkpt lat="43.4258778" lon="10.7148959"><ele>470.99999999999994</ele><time>2026-04-19T08:44:06.997Z</time></trkpt><trkpt lat="43.4257884" lon="10.7147851"><ele>473.0</ele><time>2026-04-19T08:44:07.999Z</time></trkpt><trkpt lat="43.4257024" lon="10.7146862"><ele>473.0</ele><time>2026-04-19T08:44:09Z</time></trkpt><trkpt lat="43.4256126" lon="10.7146286"><ele>472.99999999999994</ele><time>2026-04-19T08:44:10.013Z</time></trkpt><trkpt lat="43.4255102" lon="10.7145971"><ele>472.99999999999994</ele><time>2026-04-19T08:44:11.012Z</time></trkpt><trkpt lat="43.4254148" lon="10.7145862"><ele>473.0</ele><time>2026-04-19T08:44:12.014Z</time></trkpt><trkpt lat="43.4253124" lon="10.7145861"><ele>473.0</ele><time>2026-04-19T08:44:13.006Z</time></trkpt><trkpt lat="43.4252041" lon="10.7146022"><ele>474.16666666666663</ele><time>2026-04-19T08:44:14.009Z</time></trkpt><trkpt lat="43.4250991" lon="10.7146235"><ele>475.3333333333333</ele><time>2026-04-19T08:44:15.012Z</time></trkpt><trkpt lat="43.4250062" lon="10.7146512"><ele>476.5</ele><time>2026-04-19T08:44:16.001Z</time></trkpt><trkpt lat="43.4249298" lon="10.7146592"><ele>477.66666666666663</ele><time>2026-04-19T08:44:16.996Z</time></trkpt><trkpt lat="43.4248678" lon="10.7146762"><ele>478.8333333333333</ele><time>2026-04-19T08:44:18.003Z</time></trkpt><trkpt lat="43.4248018" lon="10.7146818"><ele>480.0</ele><time>2026-04-19T08:44:20.007Z</time></trkpt><trkpt lat="43.4247363" lon="10.7146005"><ele>480.0</ele><time>2026-04-19T08:45:28.008Z</time></trkpt><trkpt lat="43.4247057" lon="10.7144707"><ele>480.0</ele><time>2026-04-19T08:45:29.993Z</time></trkpt><trkpt lat="43.4246813" lon="10.7143208"><ele>480.0</ele><time>2026-04-19T08:45:32.003Z</time></trkpt><trkpt lat="43.42467" lon="10.7142297"><ele>480.0</ele><time>2026-04-19T08:45:33.011Z</time></trkpt><trkpt lat="43.4246581" lon="10.7141271"><ele>480.0</ele><time>2026-04-19T08:45:34.015Z</time></trkpt><trkpt lat="43.4246386" lon="10.7140167"><ele>480.0</ele><time>2026-04-19T08:45:35.012Z</time></trkpt><trkpt lat="43.4245998" lon="10.713902"><ele>483.3333333333333</ele><time>2026-04-19T08:45:36.012Z</time></trkpt><trkpt lat="43.4245696" lon="10.7137801"><ele>486.66666666666663</ele><time>2026-04-19T08:45:37.011Z</time></trkpt><trkpt lat="43.4245502" lon="10.7136657"><ele>490.0</ele><time>2026-04-19T08:45:38.013Z</time></trkpt><trkpt lat="43.4245459" lon="10.7135595"><ele>493.3333333333333</ele><time>2026-04-19T08:45:39.009Z</time></trkpt><trkpt lat="43.4245356" lon="10.713453"><ele>496.66666666666663</ele><time>2026-04-19T08:45:40.013Z</time></trkpt><trkpt lat="43.4245267" lon="10.7133569"><ele>500.0</ele><time>2026-04-19T08:45:41.003Z</time></trkpt><trkpt lat="43.4244984" lon="10.7132086"><ele>502.2</ele><time>2026-04-19T08:45:43.001Z</time></trkpt><trkpt lat="43.4244588" lon="10.7130487"><ele>504.4</ele><time>2026-04-19T08:45:45.021Z</time></trkpt><trkpt lat="43.4244367" lon="10.712957"><ele>506.6</ele><time>2026-04-19T08:45:45.995Z</time></trkpt><trkpt lat="43.4244247" lon="10.7128441"><ele>508.8</ele><time>2026-04-19T08:45:47.004Z</time></trkpt><trkpt lat="43.4244011" lon="10.7127119"><ele>511.0</ele><time>2026-04-19T08:45:47.998Z</time></trkpt><trkpt lat="43.4243704" lon="10.7125743"><ele>512.4</ele><time>2026-04-19T08:45:49.005Z</time></trkpt><trkpt lat="43.4243405" lon="10.7124292"><ele>513.8</ele><time>2026-04-19T08:45:50.012Z</time></trkpt><trkpt lat="43.4243146" lon="10.7122841"><ele>515.1999999999999</ele><time>2026-04-19T08:45:51.004Z</time></trkpt><trkpt lat="43.4242949" lon="10.7121614"><ele>516.6</ele><time>2026-04-19T08:45:52Z</time></trkpt><trkpt lat="43.4242831" lon="10.7120497"><ele>518.0</ele><time>2026-04-19T08:45:53.006Z</time></trkpt><trkpt lat="43.4242524" lon="10.7119736"><ele>518.0</ele><time>2026-04-19T08:45:54.013Z</time></trkpt><trkpt lat="43.4241886" lon="10.7119247"><ele>518.0</ele><time>2026-04-19T08:45:55.006Z</time></trkpt><trkpt lat="43.4241286" lon="10.7118593"><ele>518.0</ele><time>2026-04-19T08:45:56.007Z</time></trkpt><trkpt lat="43.4240748" lon="10.7117739"><ele>518.0</ele><time>2026-04-19T08:45:57Z</time></trkpt><trkpt lat="43.4240397" lon="10.7116941"><ele>518.0</ele><time>2026-04-19T08:45:58.011Z</time></trkpt><trkpt lat="43.4239937" lon="10.7116302"><ele>518.0</ele><time>2026-04-19T08:45:59.005Z</time></trkpt><trkpt lat="43.4239059" lon="10.7115893"><ele>518.8</ele><time>2026-04-19T08:46:01.007Z</time></trkpt><trkpt lat="43.4238209" lon="10.7116796"><ele>519.5999999999999</ele><time>2026-04-19T08:46:03.008Z</time></trkpt><trkpt lat="43.4237008" lon="10.7117092"><ele>520.4000000000001</ele><time>2026-04-19T08:46:05.009Z</time></trkpt><trkpt lat="43.4236274" lon="10.7116941"><ele>521.2</ele><time>2026-04-19T08:46:06.003Z</time></trkpt><trkpt lat="43.4235547" lon="10.7116734"><ele>522.0</ele><time>2026-04-19T08:46:07.012Z</time></trkpt><trkpt lat="43.4234753" lon="10.7116636"><ele>524.6</ele><time>2026-04-19T08:46:08.009Z</time></trkpt><trkpt lat="43.4233972" lon="10.7116536"><ele>527.2</ele><time>2026-04-19T08:46:09.008Z</time></trkpt><trkpt lat="43.4233115" lon="10.7116292"><ele>529.8</ele><time>2026-04-19T08:46:10.005Z</time></trkpt><trkpt lat="43.423225" lon="10.7115783"><ele>532.4</ele><time>2026-04-19T08:46:11.011Z</time></trkpt><trkpt lat="43.4231398" lon="10.7114774"><ele>535.0</ele><time>2026-04-19T08:46:12.003Z</time></trkpt><trkpt lat="43.4230633" lon="10.7113974"><ele>535.0</ele><time>2026-04-19T08:46:12.989Z</time></trkpt><trkpt lat="43.4229992" lon="10.711326"><ele>535.0</ele><time>2026-04-19T08:46:14Z</time></trkpt><trkpt lat="43.4229262" lon="10.7112736"><ele>535.0</ele><time>2026-04-19T08:46:14.999Z</time></trkpt><trkpt lat="43.4228529" lon="10.7112358"><ele>535.0</ele><time>2026-04-19T08:46:15.996Z</time></trkpt><trkpt lat="43.4227689" lon="10.7112103"><ele>535.0</ele><time>2026-04-19T08:46:17.007Z</time></trkpt><trkpt lat="43.4226852" lon="10.7112037"><ele>535.0</ele><time>2026-04-19T08:46:18.001Z</time></trkpt><trkpt lat="43.4226051" lon="10.7112013"><ele>535.4</ele><time>2026-04-19T08:46:18.993Z</time></trkpt><trkpt lat="43.4225036" lon="10.7111806"><ele>535.8</ele><time>2026-04-19T08:46:20.006Z</time></trkpt><trkpt lat="43.4223948" lon="10.7111502"><ele>536.2</ele><time>2026-04-19T08:46:20.991Z</time></trkpt><trkpt lat="43.422298" lon="10.7111249"><ele>536.6</ele><time>2026-04-19T08:46:22.012Z</time></trkpt><trkpt lat="43.4222127" lon="10.7111031"><ele>537.0</ele><time>2026-04-19T08:46:23Z</time></trkpt><trkpt lat="43.4221228" lon="10.7111114"><ele>538.0</ele><time>2026-04-19T08:46:24.006Z</time></trkpt><trkpt lat="43.4220325" lon="10.7111468"><ele>539.0</ele><time>2026-04-19T08:46:25.002Z</time></trkpt><trkpt lat="43.421937" lon="10.7111757"><ele>540.0</ele><time>2026-04-19T08:46:25.996Z</time></trkpt><trkpt lat="43.4218416" lon="10.7111948"><ele>541.0</ele><time>2026-04-19T08:46:27.002Z</time></trkpt><trkpt lat="43.4217314" lon="10.7112086"><ele>542.0</ele><time>2026-04-19T08:46:28.005Z</time></trkpt><trkpt lat="43.421623" lon="10.7112111"><ele>542.0</ele><time>2026-04-19T08:46:29.005Z</time></trkpt><trkpt lat="43.4215366" lon="10.7112034"><ele>542.0</ele><time>2026-04-19T08:46:30.005Z</time></trkpt><trkpt lat="43.4214475" lon="10.711187"><ele>542.0</ele><time>2026-04-19T08:46:31.004Z</time></trkpt><trkpt lat="43.4213626" lon="10.7111571"><ele>542.0</ele><time>2026-04-19T08:46:32.001Z</time></trkpt><trkpt lat="43.4212757" lon="10.7111035"><ele>542.0</ele><time>2026-04-19T08:46:33.004Z</time></trkpt><trkpt lat="43.4211915" lon="10.7110262"><ele>543.8000000000001</ele><time>2026-04-19T08:46:34.014Z</time></trkpt><trkpt lat="43.4211085" lon="10.7109396"><ele>545.6</ele><time>2026-04-19T08:46:35Z</time></trkpt><trkpt lat="43.421018" lon="10.7108494"><ele>547.4000000000001</ele><time>2026-04-19T08:46:36.001Z</time></trkpt><trkpt lat="43.4209462" lon="10.7107497"><ele>549.2</ele><time>2026-04-19T08:46:37.005Z</time></trkpt><trkpt lat="43.4208979" lon="10.7106809"><ele>551.0</ele><time>2026-04-19T08:46:38.01Z</time></trkpt><trkpt lat="43.4208559" lon="10.710591"><ele>551.0</ele><time>2026-04-19T08:46:40.01Z</time></trkpt><trkpt lat="43.4208256" lon="10.7104674"><ele>551.0</ele><time>2026-04-19T08:46:43.007Z</time></trkpt><trkpt lat="43.4207671" lon="10.7103348"><ele>551.0</ele><time>2026-04-19T08:46:44.995Z</time></trkpt><trkpt lat="43.4207165" lon="10.7102751"><ele>551.0</ele><time>2026-04-19T08:46:45.999Z</time></trkpt><trkpt lat="43.4206176" lon="10.7101828"><ele>551.0</ele><time>2026-04-19T08:46:47.994Z</time></trkpt><trkpt lat="43.4205257" lon="10.7101033"><ele>551.0</ele><time>2026-04-19T08:46:50.002Z</time></trkpt><trkpt lat="43.420421" lon="10.7100582"><ele>551.0</ele><time>2026-04-19T08:46:52.001Z</time></trkpt><trkpt lat="43.4203451" lon="10.7100244"><ele>551.0</ele><time>2026-04-19T08:46:52.992Z</time></trkpt><trkpt lat="43.4202683" lon="10.7099658"><ele>551.0</ele><time>2026-04-19T08:46:53.996Z</time></trkpt><trkpt lat="43.4201978" lon="10.7099112"><ele>551.0</ele><time>2026-04-19T08:46:54.993Z</time></trkpt><trkpt lat="43.4201301" lon="10.7098657"><ele>551.0</ele><time>2026-04-19T08:46:56.004Z</time></trkpt><trkpt lat="43.4200762" lon="10.7098099"><ele>551.0</ele><time>2026-04-19T08:46:56.988Z</time></trkpt><trkpt lat="43.420005" lon="10.7097004"><ele>551.0</ele><time>2026-04-19T08:46:59.007Z</time></trkpt><trkpt lat="43.4199461" lon="10.7095932"><ele>551.0</ele><time>2026-04-19T08:47:01.004Z</time></trkpt><trkpt lat="43.4198715" lon="10.7094999"><ele>551.0</ele><time>2026-04-19T08:47:03Z</time></trkpt><trkpt lat="43.4197577" lon="10.7094359"><ele>551.0</ele><time>2026-04-19T08:47:05Z</time></trkpt><trkpt lat="43.4196935" lon="10.7093719"><ele>550.2</ele><time>2026-04-19T08:47:06.001Z</time></trkpt><trkpt lat="43.4196197" lon="10.7093027"><ele>549.4000000000001</ele><time>2026-04-19T08:47:06.999Z</time></trkpt><trkpt lat="43.4195415" lon="10.7091999"><ele>548.6</ele><time>2026-04-19T08:47:07.997Z</time></trkpt><trkpt lat="43.4194687" lon="10.7090996"><ele>547.8000000000001</ele><time>2026-04-19T08:47:09Z</time></trkpt><trkpt lat="43.4194171" lon="10.7090186"><ele>547.0</ele><time>2026-04-19T08:47:09.997Z</time></trkpt><trkpt lat="43.4193459" lon="10.7088933"><ele>547.0</ele><time>2026-04-19T08:47:12.003Z</time></trkpt><trkpt lat="43.4193043" lon="10.7088273"><ele>547.0</ele><time>2026-04-19T08:47:13.007Z</time></trkpt><trkpt lat="43.4192591" lon="10.7087581"><ele>547.0</ele><time>2026-04-19T08:47:14.002Z</time></trkpt><trkpt lat="43.4192357" lon="10.7086639"><ele>547.0</ele><time>2026-04-19T08:47:14.991Z</time></trkpt><trkpt lat="43.4192216" lon="10.7085524"><ele>547.0</ele><time>2026-04-19T08:47:16.009Z</time></trkpt><trkpt lat="43.4192091" lon="10.7084394"><ele>547.0</ele><time>2026-04-19T08:47:17.001Z</time></trkpt><trkpt lat="43.4191902" lon="10.7083478"><ele>547.0</ele><time>2026-04-19T08:47:18.001Z</time></trkpt><trkpt lat="43.419143" lon="10.7082244"><ele>548.2</ele><time>2026-04-19T08:47:20.999Z</time></trkpt><trkpt lat="43.4190879" lon="10.7080872"><ele>549.4000000000001</ele><time>2026-04-19T08:47:22.996Z</time></trkpt><trkpt lat="43.4190458" lon="10.7079666"><ele>550.5999999999999</ele><time>2026-04-19T08:47:23.992Z</time></trkpt><trkpt lat="43.418992" lon="10.7078183"><ele>551.8</ele><time>2026-04-19T08:47:25.003Z</time></trkpt><trkpt lat="43.4189556" lon="10.7076704"><ele>553.0</ele><time>2026-04-19T08:47:26Z</time></trkpt><trkpt lat="43.4189149" lon="10.7075506"><ele>553.6</ele><time>2026-04-19T08:47:27.007Z</time></trkpt><trkpt lat="43.4188675" lon="10.7074343"><ele>554.1999999999999</ele><time>2026-04-19T08:47:28Z</time></trkpt><trkpt lat="43.4188175" lon="10.7073316"><ele>554.8</ele><time>2026-04-19T08:47:29.001Z</time></trkpt><trkpt lat="43.4187555" lon="10.7072402"><ele>555.4</ele><time>2026-04-19T08:47:30.009Z</time></trkpt><trkpt lat="43.4186743" lon="10.7071574"><ele>556.0</ele><time>2026-04-19T08:47:30.996Z</time></trkpt><trkpt lat="43.4185992" lon="10.707075"><ele>554.1666666666667</ele><time>2026-04-19T08:47:32.002Z</time></trkpt><trkpt lat="43.4185316" lon="10.7070033"><ele>552.3333333333334</ele><time>2026-04-19T08:47:33.007Z</time></trkpt><trkpt lat="43.4184663" lon="10.7069517"><ele>550.5</ele><time>2026-04-19T08:47:34.002Z</time></trkpt><trkpt lat="43.4184087" lon="10.7069003"><ele>548.6666666666666</ele><time>2026-04-19T08:47:35.003Z</time></trkpt><trkpt lat="43.4183433" lon="10.7068346"><ele>546.8333333333333</ele><time>2026-04-19T08:47:36.011Z</time></trkpt><trkpt lat="43.4182664" lon="10.7067569"><ele>545.0</ele><time>2026-04-19T08:47:36.996Z</time></trkpt><trkpt lat="43.4181987" lon="10.7067139"><ele>545.0</ele><time>2026-04-19T08:47:38.005Z</time></trkpt><trkpt lat="43.4181265" lon="10.7066826"><ele>545.0</ele><time>2026-04-19T08:47:39.004Z</time></trkpt><trkpt lat="43.4180404" lon="10.7066519"><ele>545.0</ele><time>2026-04-19T08:47:39.994Z</time></trkpt><trkpt lat="43.4179353" lon="10.706613"><ele>545.0</ele><time>2026-04-19T08:47:41.001Z</time></trkpt><trkpt lat="43.4178364" lon="10.7065618"><ele>545.0</ele><time>2026-04-19T08:47:42.004Z</time></trkpt><trkpt lat="43.4177371" lon="10.7065011"><ele>544.0</ele><time>2026-04-19T08:47:43.002Z</time></trkpt><trkpt lat="43.417645" lon="10.7064266"><ele>543.0</ele><time>2026-04-19T08:47:44.008Z</time></trkpt><trkpt lat="43.417588" lon="10.7063625"><ele>542.0</ele><time>2026-04-19T08:47:45.001Z</time></trkpt><trkpt lat="43.4175056" lon="10.7062614"><ele>541.0</ele><time>2026-04-19T08:47:46.994Z</time></trkpt><trkpt lat="43.4174202" lon="10.7061646"><ele>540.0</ele><time>2026-04-19T08:47:48.992Z</time></trkpt><trkpt lat="43.4173535" lon="10.7061487"><ele>540.0</ele><time>2026-04-19T08:47:50.998Z</time></trkpt><trkpt lat="43.4173036" lon="10.706059"><ele>540.0</ele><time>2026-04-19T08:47:54.995Z</time></trkpt><trkpt lat="43.4172161" lon="10.7059646"><ele>540.0</ele><time>2026-04-19T08:47:56.998Z</time></trkpt><trkpt lat="43.4171853" lon="10.7060501"><ele>540.0</ele><time>2026-04-19T08:48:03.995Z</time></trkpt><trkpt lat="43.4171191" lon="10.7061038"><ele>540.0</ele><time>2026-04-19T08:48:07.992Z</time></trkpt><trkpt lat="43.4170469" lon="10.706102"><ele>540.0</ele><time>2026-04-19T08:48:28.999Z</time></trkpt><trkpt lat="43.4169133" lon="10.706082"><ele>540.6666666666666</ele><time>2026-04-19T08:48:31.003Z</time></trkpt><trkpt lat="43.4168143" lon="10.7060743"><ele>541.3333333333334</ele><time>2026-04-19T08:48:32.006Z</time></trkpt><trkpt lat="43.4167237" lon="10.706034"><ele>542.0</ele><time>2026-04-19T08:48:33.002Z</time></trkpt><trkpt lat="43.4166327" lon="10.7059651"><ele>542.6666666666667</ele><time>2026-04-19T08:48:35.002Z</time></trkpt><trkpt lat="43.4165789" lon="10.7059188"><ele>543.3333333333334</ele><time>2026-04-19T08:48:37.005Z</time></trkpt><trkpt lat="43.4165279" lon="10.7058668"><ele>544.0</ele><time>2026-04-19T08:48:40.003Z</time></trkpt><trkpt lat="43.416452" lon="10.7057601"><ele>544.0</ele><time>2026-04-19T08:48:41.992Z</time></trkpt><trkpt lat="43.4164075" lon="10.7056913"><ele>544.0</ele><time>2026-04-19T08:48:42.998Z</time></trkpt><trkpt lat="43.4163704" lon="10.7056111"><ele>544.0</ele><time>2026-04-19T08:48:44.004Z</time></trkpt><trkpt lat="43.416351" lon="10.7054562"><ele>544.0</ele><time>2026-04-19T08:48:46.004Z</time></trkpt><trkpt lat="43.4163785" lon="10.7053763"><ele>544.0</ele><time>2026-04-19T08:48:47.004Z</time></trkpt><trkpt lat="43.4164125" lon="10.7052256"><ele>544.0</ele><time>2026-04-19T08:48:48.995Z</time></trkpt><trkpt lat="43.4163831" lon="10.7051289"><ele>543.8333333333334</ele><time>2026-04-19T08:48:50.991Z</time></trkpt><trkpt lat="43.4163419" lon="10.7050354"><ele>543.6666666666667</ele><time>2026-04-19T08:48:52.993Z</time></trkpt><trkpt lat="43.4162876" lon="10.7049033"><ele>543.5</ele><time>2026-04-19T08:48:55.002Z</time></trkpt><trkpt lat="43.4162531" lon="10.7048141"><ele>543.3333333333334</ele><time>2026-04-19T08:48:56.011Z</time></trkpt><trkpt lat="43.4162242" lon="10.7047234"><ele>543.1666666666666</ele><time>2026-04-19T08:48:57.011Z</time></trkpt><trkpt lat="43.4161885" lon="10.7046426"><ele>543.0</ele><time>2026-04-19T08:48:58.001Z</time></trkpt><trkpt lat="43.4161332" lon="10.7045994"><ele>543.3333333333334</ele><time>2026-04-19T08:49:00.002Z</time></trkpt><trkpt lat="43.4160737" lon="10.7045521"><ele>543.6666666666666</ele><time>2026-04-19T08:49:03.005Z</time></trkpt><trkpt lat="43.416024" lon="10.7044768"><ele>544.0</ele><time>2026-04-19T08:49:04.018Z</time></trkpt><trkpt lat="43.415987" lon="10.7043888"><ele>544.3333333333333</ele><time>2026-04-19T08:49:04.993Z</time></trkpt><trkpt lat="43.4159533" lon="10.7042779"><ele>544.6666666666666</ele><time>2026-04-19T08:49:05.996Z</time></trkpt><trkpt lat="43.4159298" lon="10.7041705"><ele>545.0</ele><time>2026-04-19T08:49:06.998Z</time></trkpt><trkpt lat="43.4158844" lon="10.7040969"><ele>546.5</ele><time>2026-04-19T08:49:07.999Z</time></trkpt><trkpt lat="43.4157879" lon="10.7040111"><ele>548.0</ele><time>2026-04-19T08:49:10Z</time></trkpt><trkpt lat="43.4157069" lon="10.7039214"><ele>549.5</ele><time>2026-04-19T08:49:12.008Z</time></trkpt><trkpt lat="43.4156341" lon="10.7038199"><ele>551.0</ele><time>2026-04-19T08:49:13.997Z</time></trkpt><trkpt lat="43.4155572" lon="10.703679"><ele>551.0</ele><time>2026-04-19T08:49:15.996Z</time></trkpt><trkpt lat="43.4155022" lon="10.703589"><ele>551.0</ele><time>2026-04-19T08:49:17.002Z</time></trkpt><trkpt lat="43.4154397" lon="10.7035024"><ele>551.0</ele><time>2026-04-19T08:49:17.998Z</time></trkpt><trkpt lat="43.4153696" lon="10.7034186"><ele>551.0</ele><time>2026-04-19T08:49:19.013Z</time></trkpt><trkpt lat="43.4153014" lon="10.7033128"><ele>551.0</ele><time>2026-04-19T08:49:20.013Z</time></trkpt><trkpt lat="43.4152421" lon="10.7031979"><ele>552.0</ele><time>2026-04-19T08:49:21.001Z</time></trkpt><trkpt lat="43.4151904" lon="10.7031097"><ele>553.0</ele><time>2026-04-19T08:49:21.993Z</time></trkpt><trkpt lat="43.4151457" lon="10.7030349"><ele>554.0</ele><time>2026-04-19T08:49:23.007Z</time></trkpt><trkpt lat="43.4150885" lon="10.7029444"><ele>555.0</ele><time>2026-04-19T08:49:24.009Z</time></trkpt><trkpt lat="43.4150328" lon="10.7028472"><ele>556.0</ele><time>2026-04-19T08:49:25Z</time></trkpt><trkpt lat="43.4149811" lon="10.7027588"><ele>557.0</ele><time>2026-04-19T08:49:26.004Z</time></trkpt><trkpt lat="43.4149345" lon="10.7026973"><ele>558.0</ele><time>2026-04-19T08:49:27.006Z</time></trkpt><trkpt lat="43.4148614" lon="10.7025959"><ele>559.0</ele><time>2026-04-19T08:49:29.001Z</time></trkpt><trkpt lat="43.4147423" lon="10.7025161"><ele>560.0</ele><time>2026-04-19T08:49:31.01Z</time></trkpt><trkpt lat="43.4146816" lon="10.7024701"><ele>561.0</ele><time>2026-04-19T08:49:32.006Z</time></trkpt><trkpt lat="43.4146215" lon="10.7024103"><ele>562.0</ele><time>2026-04-19T08:49:33.016Z</time></trkpt><trkpt lat="43.4145573" lon="10.7023493"><ele>562.0</ele><time>2026-04-19T08:49:33.997Z</time></trkpt><trkpt lat="43.4144947" lon="10.7022845"><ele>562.0</ele><time>2026-04-19T08:49:35.009Z</time></trkpt><trkpt lat="43.4144115" lon="10.7022401"><ele>562.0</ele><time>2026-04-19T08:49:35.997Z</time></trkpt><trkpt lat="43.4143437" lon="10.7021875"><ele>562.0</ele><time>2026-04-19T08:49:37.002Z</time></trkpt><trkpt lat="43.41428" lon="10.7021641"><ele>562.0</ele><time>2026-04-19T08:49:38.004Z</time></trkpt><trkpt lat="43.4142093" lon="10.7020736"><ele>562.0</ele><time>2026-04-19T08:49:39.992Z</time></trkpt><trkpt lat="43.4141817" lon="10.7019909"><ele>564.0</ele><time>2026-04-19T08:49:41.999Z</time></trkpt><trkpt lat="43.4141555" lon="10.7019095"><ele>566.0</ele><time>2026-04-19T08:49:59.005Z</time></trkpt><trkpt lat="43.4141479" lon="10.7018094"><ele>568.0</ele><time>2026-04-19T08:50:02Z</time></trkpt><trkpt lat="43.4141512" lon="10.7017"><ele>570.0</ele><time>2026-04-19T08:50:03.999Z</time></trkpt><trkpt lat="43.4141258" lon="10.7015406"><ele>572.0</ele><time>2026-04-19T08:50:06.009Z</time></trkpt><trkpt lat="43.4141175" lon="10.7013745"><ele>572.0</ele><time>2026-04-19T08:50:08.012Z</time></trkpt><trkpt lat="43.4140967" lon="10.7012225"><ele>572.0</ele><time>2026-04-19T08:50:10Z</time></trkpt><trkpt lat="43.4140768" lon="10.701083"><ele>572.0</ele><time>2026-04-19T08:50:11.999Z</time></trkpt><trkpt lat="43.4140059" lon="10.700973"><ele>572.0</ele><time>2026-04-19T08:50:13.997Z</time></trkpt><trkpt lat="43.413921" lon="10.7008733"><ele>572.0</ele><time>2026-04-19T08:50:16Z</time></trkpt><trkpt lat="43.4138445" lon="10.7007662"><ele>572.8000000000001</ele><time>2026-04-19T08:50:17.996Z</time></trkpt><trkpt lat="43.41382" lon="10.7006367"><ele>573.6</ele><time>2026-04-19T08:50:20Z</time></trkpt><trkpt lat="43.4137931" lon="10.7005004"><ele>574.4000000000001</ele><time>2026-04-19T08:50:21.999Z</time></trkpt><trkpt lat="43.413707" lon="10.7004582"><ele>575.2</ele><time>2026-04-19T08:50:23.993Z</time></trkpt><trkpt lat="43.4136062" lon="10.7003939"><ele>576.0</ele><time>2026-04-19T08:50:26.013Z</time></trkpt><trkpt lat="43.4135491" lon="10.7003496"><ele>576.0</ele><time>2026-04-19T08:50:27.008Z</time></trkpt><trkpt lat="43.413504" lon="10.7002886"><ele>576.0</ele><time>2026-04-19T08:50:27.996Z</time></trkpt><trkpt lat="43.4134281" lon="10.7002093"><ele>576.0</ele><time>2026-04-19T08:50:29.996Z</time></trkpt><trkpt lat="43.4133475" lon="10.7001657"><ele>576.0</ele><time>2026-04-19T08:50:32.01Z</time></trkpt><trkpt lat="43.4132779" lon="10.7001301"><ele>576.0</ele><time>2026-04-19T08:50:33.005Z</time></trkpt><trkpt lat="43.4131896" lon="10.7000771"><ele>576.0</ele><time>2026-04-19T08:50:34.002Z</time></trkpt><trkpt lat="43.4130973" lon="10.7000087"><ele>577.6</ele><time>2026-04-19T08:50:35.017Z</time></trkpt><trkpt lat="43.4130029" lon="10.6999419"><ele>579.2</ele><time>2026-04-19T08:50:35.993Z</time></trkpt><trkpt lat="43.4129028" lon="10.6998834"><ele>580.8</ele><time>2026-04-19T08:50:37.001Z</time></trkpt><trkpt lat="43.4128108" lon="10.6998238"><ele>582.4</ele><time>2026-04-19T08:50:38.007Z</time></trkpt><trkpt lat="43.4127239" lon="10.6997803"><ele>584.0</ele><time>2026-04-19T08:50:39.01Z</time></trkpt><trkpt lat="43.4126637" lon="10.6997475"><ele>584.5</ele><time>2026-04-19T08:50:40.014Z</time></trkpt><trkpt lat="43.4125381" lon="10.6997288"><ele>585.0</ele><time>2026-04-19T08:50:42.001Z</time></trkpt><trkpt lat="43.4124319" lon="10.6997061"><ele>585.5</ele><time>2026-04-19T08:50:43.998Z</time></trkpt><trkpt lat="43.412356" lon="10.6995926"><ele>586.0</ele><time>2026-04-19T08:50:45.999Z</time></trkpt><trkpt lat="43.4122781" lon="10.6994947"><ele>587.4</ele><time>2026-04-19T08:50:48Z</time></trkpt><trkpt lat="43.412171" lon="10.6993993"><ele>588.8</ele><time>2026-04-19T08:50:50Z</time></trkpt><trkpt lat="43.4121217" lon="10.6993436"><ele>590.1999999999999</ele><time>2026-04-19T08:50:51.018Z</time></trkpt><trkpt lat="43.4120783" lon="10.6992789"><ele>591.6</ele><time>2026-04-19T08:50:52.001Z</time></trkpt><trkpt lat="43.4119978" lon="10.6991519"><ele>593.0</ele><time>2026-04-19T08:50:54.006Z</time></trkpt><trkpt lat="43.4119495" lon="10.6990272"><ele>593.6666666666666</ele><time>2026-04-19T08:50:56.004Z</time></trkpt><trkpt lat="43.4118928" lon="10.6989059"><ele>594.3333333333333</ele><time>2026-04-19T08:50:57.99Z</time></trkpt><trkpt lat="43.4118313" lon="10.6988537"><ele>595.0</ele><time>2026-04-19T08:50:59.001Z</time></trkpt><trkpt lat="43.4117399" lon="10.6988144"><ele>595.6666666666666</ele><time>2026-04-19T08:50:59.994Z</time></trkpt><trkpt lat="43.4116384" lon="10.6988022"><ele>596.3333333333334</ele><time>2026-04-19T08:51:00.994Z</time></trkpt><trkpt lat="43.4115677" lon="10.6988177"><ele>597.0</ele><time>2026-04-19T08:51:02.002Z</time></trkpt><trkpt lat="43.4114422" lon="10.6988998"><ele>597.0</ele><time>2026-04-19T08:51:04.004Z</time></trkpt><trkpt lat="43.4113618" lon="10.6989342"><ele>597.0</ele><time>2026-04-19T08:51:05.001Z</time></trkpt><trkpt lat="43.4112821" lon="10.6989631"><ele>597.0</ele><time>2026-04-19T08:51:05.995Z</time></trkpt><trkpt lat="43.4111872" lon="10.6989739"><ele>597.0</ele><time>2026-04-19T08:51:06.995Z</time></trkpt><trkpt lat="43.4110866" lon="10.6989853"><ele>597.0</ele><time>2026-04-19T08:51:07.994Z</time></trkpt><trkpt lat="43.4110059" lon="10.6989894"><ele>597.0</ele><time>2026-04-19T08:51:09.005Z</time></trkpt><trkpt lat="43.4109268" lon="10.6990026"><ele>597.8000000000001</ele><time>2026-04-19T08:51:10.012Z</time></trkpt><trkpt lat="43.4108381" lon="10.6990265"><ele>598.6</ele><time>2026-04-19T08:51:10.998Z</time></trkpt><trkpt lat="43.4107596" lon="10.6990466"><ele>599.4000000000001</ele><time>2026-04-19T08:51:11.998Z</time></trkpt><trkpt lat="43.4106728" lon="10.699072"><ele>600.2</ele><time>2026-04-19T08:51:14.005Z</time></trkpt><trkpt lat="43.4105745" lon="10.6990807"><ele>601.0</ele><time>2026-04-19T08:51:16.006Z</time></trkpt><trkpt lat="43.4104677" lon="10.6990641"><ele>601.6</ele><time>2026-04-19T08:51:18Z</time></trkpt><trkpt lat="43.4103716" lon="10.6989968"><ele>602.2</ele><time>2026-04-19T08:51:20.007Z</time></trkpt><trkpt lat="43.410299" lon="10.6989056"><ele>602.8</ele><time>2026-04-19T08:51:22.002Z</time></trkpt><trkpt lat="43.4102287" lon="10.6988707"><ele>603.4</ele><time>2026-04-19T08:51:25Z</time></trkpt><trkpt lat="43.4101337" lon="10.6988889"><ele>604.0</ele><time>2026-04-19T08:51:26.999Z</time></trkpt><trkpt lat="43.4100114" lon="10.6989355"><ele>604.0</ele><time>2026-04-19T08:51:28.991Z</time></trkpt><trkpt lat="43.4099464" lon="10.6989396"><ele>604.0</ele><time>2026-04-19T08:51:30.005Z</time></trkpt><trkpt lat="43.4098779" lon="10.6989186"><ele>604.0</ele><time>2026-04-19T08:51:30.995Z</time></trkpt><trkpt lat="43.4097904" lon="10.6988288"><ele>604.0</ele><time>2026-04-19T08:51:33.007Z</time></trkpt><trkpt lat="43.4097413" lon="10.6987725"><ele>604.0</ele><time>2026-04-19T08:51:34.002Z</time></trkpt><trkpt lat="43.4096621" lon="10.6987184"><ele>604.0</ele><time>2026-04-19T08:51:36.001Z</time></trkpt><trkpt lat="43.4095737" lon="10.6987309"><ele>604.3333333333334</ele><time>2026-04-19T08:51:39.011Z</time></trkpt><trkpt lat="43.4094487" lon="10.6987103"><ele>604.6666666666667</ele><time>2026-04-19T08:51:41.009Z</time></trkpt><trkpt lat="43.409371" lon="10.6986835"><ele>605.0</ele><time>2026-04-19T08:51:42.015Z</time></trkpt><trkpt lat="43.4092959" lon="10.6986472"><ele>605.3333333333334</ele><time>2026-04-19T08:51:42.999Z</time></trkpt><trkpt lat="43.4092343" lon="10.6986223"><ele>605.6666666666666</ele><time>2026-04-19T08:51:44.003Z</time></trkpt><trkpt lat="43.4091467" lon="10.6986192"><ele>606.0</ele><time>2026-04-19T08:51:45.999Z</time></trkpt><trkpt lat="43.40908" lon="10.6986582"><ele>606.0</ele><time>2026-04-19T09:01:46.003Z</time></trkpt><trkpt lat="43.4090187" lon="10.6986956"><ele>606.0</ele><time>2026-04-19T09:01:48.996Z</time></trkpt><trkpt lat="43.4089483" lon="10.6987991"><ele>606.0</ele><time>2026-04-19T09:01:51.015Z</time></trkpt><trkpt lat="43.4088932" lon="10.6989426"><ele>606.0</ele><time>2026-04-19T09:01:53.033Z</time></trkpt><trkpt lat="43.4088721" lon="10.6990323"><ele>606.0</ele><time>2026-04-19T09:01:54.005Z</time></trkpt><trkpt lat="43.4088513" lon="10.6991294"><ele>606.0</ele><time>2026-04-19T09:01:55.01Z</time></trkpt><trkpt lat="43.408836" lon="10.6992401"><ele>605.0</ele><time>2026-04-19T09:01:56.008Z</time></trkpt><trkpt lat="43.4088225" lon="10.699346"><ele>604.0</ele><time>2026-04-19T09:01:57Z</time></trkpt><trkpt lat="43.4087975" lon="10.6994491"><ele>603.0</ele><time>2026-04-19T09:01:58.015Z</time></trkpt><trkpt lat="43.4087671" lon="10.6995505"><ele>602.0</ele><time>2026-04-19T09:01:59.002Z</time></trkpt><trkpt lat="43.4087214" lon="10.6996417"><ele>601.0</ele><time>2026-04-19T09:01:59.998Z</time></trkpt><trkpt lat="43.4086636" lon="10.6997012"><ele>600.0</ele><time>2026-04-19T09:02:01.012Z</time></trkpt><trkpt lat="43.4085902" lon="10.6997626"><ele>600.0</ele><time>2026-04-19T09:02:02.012Z</time></trkpt><trkpt lat="43.408509" lon="10.6998167"><ele>600.0</ele><time>2026-04-19T09:02:03.015Z</time></trkpt><trkpt lat="43.4084276" lon="10.6998984"><ele>600.0</ele><time>2026-04-19T09:02:04.007Z</time></trkpt><trkpt lat="43.4083525" lon="10.699998"><ele>600.0</ele><time>2026-04-19T09:02:05.009Z</time></trkpt><trkpt lat="43.4082838" lon="10.7001137"><ele>600.0</ele><time>2026-04-19T09:02:06.01Z</time></trkpt><trkpt lat="43.4082136" lon="10.7002197"><ele>599.4</ele><time>2026-04-19T09:02:07.005Z</time></trkpt><trkpt lat="43.4081455" lon="10.7003263"><ele>598.8</ele><time>2026-04-19T09:02:08.007Z</time></trkpt><trkpt lat="43.4080817" lon="10.7004268"><ele>598.2</ele><time>2026-04-19T09:02:09.001Z</time></trkpt><trkpt lat="43.4080102" lon="10.7005243"><ele>597.6</ele><time>2026-04-19T09:02:10.003Z</time></trkpt><trkpt lat="43.4079349" lon="10.7006189"><ele>597.0</ele><time>2026-04-19T09:02:11.013Z</time></trkpt><trkpt lat="43.4078694" lon="10.7007063"><ele>595.4</ele><time>2026-04-19T09:02:12.005Z</time></trkpt><trkpt lat="43.4077991" lon="10.7007936"><ele>593.8000000000001</ele><time>2026-04-19T09:02:12.998Z</time></trkpt><trkpt lat="43.407729" lon="10.7008773"><ele>592.2</ele><time>2026-04-19T09:02:13.999Z</time></trkpt><trkpt lat="43.4076573" lon="10.7009656"><ele>590.6</ele><time>2026-04-19T09:02:15.031Z</time></trkpt><trkpt lat="43.4075928" lon="10.7010718"><ele>589.0</ele><time>2026-04-19T09:02:15.999Z</time></trkpt><trkpt lat="43.4075145" lon="10.7011645"><ele>588.8</ele><time>2026-04-19T09:02:17.003Z</time></trkpt><trkpt lat="43.4074432" lon="10.7012479"><ele>588.5999999999999</ele><time>2026-04-19T09:02:18.008Z</time></trkpt><trkpt lat="43.4073609" lon="10.7013054"><ele>588.4</ele><time>2026-04-19T09:02:19.002Z</time></trkpt><trkpt lat="43.4072688" lon="10.7013533"><ele>588.1999999999999</ele><time>2026-04-19T09:02:20.015Z</time></trkpt><trkpt lat="43.4071776" lon="10.7013932"><ele>588.0</ele><time>2026-04-19T09:02:21.005Z</time></trkpt><trkpt lat="43.4070906" lon="10.7014477"><ele>586.8</ele><time>2026-04-19T09:02:22.008Z</time></trkpt><trkpt lat="43.4070249" lon="10.701527"><ele>585.5999999999999</ele><time>2026-04-19T09:02:22.999Z</time></trkpt><trkpt lat="43.4069749" lon="10.7016178"><ele>584.4000000000001</ele><time>2026-04-19T09:02:24.002Z</time></trkpt><trkpt lat="43.4069302" lon="10.7017259"><ele>583.2</ele><time>2026-04-19T09:02:25.014Z</time></trkpt><trkpt lat="43.4068879" lon="10.70184"><ele>582.0</ele><time>2026-04-19T09:02:26.005Z</time></trkpt><trkpt lat="43.4068321" lon="10.701954"><ele>582.0</ele><time>2026-04-19T09:02:27.001Z</time></trkpt><trkpt lat="43.4067621" lon="10.7020642"><ele>582.0</ele><time>2026-04-19T09:02:27.997Z</time></trkpt><trkpt lat="43.4066765" lon="10.7021711"><ele>582.0</ele><time>2026-04-19T09:02:29.001Z</time></trkpt><trkpt lat="43.4065889" lon="10.7022828"><ele>582.0</ele><time>2026-04-19T09:02:30.006Z</time></trkpt><trkpt lat="43.4064997" lon="10.702402"><ele>582.0</ele><time>2026-04-19T09:02:31.006Z</time></trkpt><trkpt lat="43.4064161" lon="10.7025248"><ele>582.0</ele><time>2026-04-19T09:02:32.001Z</time></trkpt><trkpt lat="43.406341" lon="10.7026397"><ele>582.0</ele><time>2026-04-19T09:02:33.001Z</time></trkpt><trkpt lat="43.4062758" lon="10.7027397"><ele>582.0</ele><time>2026-04-19T09:02:34.006Z</time></trkpt><trkpt lat="43.4062154" lon="10.70284"><ele>582.0</ele><time>2026-04-19T09:02:34.998Z</time></trkpt><trkpt lat="43.4061449" lon="10.7029312"><ele>582.2</ele><time>2026-04-19T09:02:35.996Z</time></trkpt><trkpt lat="43.4060791" lon="10.7030296"><ele>582.4000000000001</ele><time>2026-04-19T09:02:37.005Z</time></trkpt><trkpt lat="43.4060093" lon="10.7031184"><ele>582.5999999999999</ele><time>2026-04-19T09:02:38.01Z</time></trkpt><trkpt lat="43.4059266" lon="10.7031973"><ele>582.8</ele><time>2026-04-19T09:02:39.048Z</time></trkpt><trkpt lat="43.4058286" lon="10.7032626"><ele>583.0</ele><time>2026-04-19T09:02:40.012Z</time></trkpt><trkpt lat="43.4057245" lon="10.70332"><ele>583.0</ele><time>2026-04-19T09:02:41.009Z</time></trkpt><trkpt lat="43.4056175" lon="10.7033814"><ele>583.0</ele><time>2026-04-19T09:02:42.007Z</time></trkpt><trkpt lat="43.4055116" lon="10.7034645"><ele>583.0</ele><time>2026-04-19T09:02:43.004Z</time></trkpt><trkpt lat="43.4054258" lon="10.7035423"><ele>583.0</ele><time>2026-04-19T09:02:44.002Z</time></trkpt><trkpt lat="43.4053601" lon="10.7036283"><ele>583.0</ele><time>2026-04-19T09:02:45.005Z</time></trkpt><trkpt lat="43.4053141" lon="10.7037423"><ele>582.6</ele><time>2026-04-19T09:02:45.998Z</time></trkpt><trkpt lat="43.4052851" lon="10.7038634"><ele>582.1999999999999</ele><time>2026-04-19T09:02:46.993Z</time></trkpt><trkpt lat="43.4052607" lon="10.7040001"><ele>581.8</ele><time>2026-04-19T09:02:48.005Z</time></trkpt><trkpt lat="43.4052377" lon="10.7041315"><ele>581.4</ele><time>2026-04-19T09:02:49.007Z</time></trkpt><trkpt lat="43.4052046" lon="10.7042615"><ele>581.0</ele><time>2026-04-19T09:02:49.997Z</time></trkpt><trkpt lat="43.4051608" lon="10.7043829"><ele>582.6</ele><time>2026-04-19T09:02:51.011Z</time></trkpt><trkpt lat="43.4050998" lon="10.7044763"><ele>584.2</ele><time>2026-04-19T09:02:51.999Z</time></trkpt><trkpt lat="43.4050168" lon="10.7045512"><ele>585.8</ele><time>2026-04-19T09:02:52.993Z</time></trkpt><trkpt lat="43.4049304" lon="10.7045912"><ele>587.4</ele><time>2026-04-19T09:02:54.002Z</time></trkpt><trkpt lat="43.4048421" lon="10.7046257"><ele>589.0</ele><time>2026-04-19T09:02:55.011Z</time></trkpt><trkpt lat="43.4047574" lon="10.7046575"><ele>589.0</ele><time>2026-04-19T09:02:56.008Z</time></trkpt><trkpt lat="43.4046777" lon="10.7046937"><ele>589.0</ele><time>2026-04-19T09:02:57.002Z</time></trkpt><trkpt lat="43.4046023" lon="10.7047262"><ele>589.0</ele><time>2026-04-19T09:02:58.005Z</time></trkpt><trkpt lat="43.4045306" lon="10.7047626"><ele>589.0</ele><time>2026-04-19T09:02:59.001Z</time></trkpt><trkpt lat="43.4044596" lon="10.7048051"><ele>589.0</ele><time>2026-04-19T09:03:00.04Z</time></trkpt><trkpt lat="43.4043834" lon="10.7048536"><ele>589.0</ele><time>2026-04-19T09:03:01.007Z</time></trkpt><trkpt lat="43.404297" lon="10.7049026"><ele>587.4</ele><time>2026-04-19T09:03:02.017Z</time></trkpt><trkpt lat="43.4041997" lon="10.7049332"><ele>585.8</ele><time>2026-04-19T09:03:03.006Z</time></trkpt><trkpt lat="43.4040961" lon="10.7049631"><ele>584.2</ele><time>2026-04-19T09:03:04.004Z</time></trkpt><trkpt lat="43.4039949" lon="10.7050001"><ele>582.6</ele><time>2026-04-19T09:03:05.01Z</time></trkpt><trkpt lat="43.4038989" lon="10.7050406"><ele>581.0</ele><time>2026-04-19T09:03:06.004Z</time></trkpt><trkpt lat="43.4037993" lon="10.7050942"><ele>579.2</ele><time>2026-04-19T09:03:07.032Z</time></trkpt><trkpt lat="43.4037019" lon="10.7051374"><ele>577.4000000000001</ele><time>2026-04-19T09:03:08.008Z</time></trkpt><trkpt lat="43.4036017" lon="10.7051834"><ele>575.6</ele><time>2026-04-19T09:03:09.013Z</time></trkpt><trkpt lat="43.4034973" lon="10.7052044"><ele>573.8000000000001</ele><time>2026-04-19T09:03:09.993Z</time></trkpt><trkpt lat="43.403397" lon="10.7052146"><ele>572.0</ele><time>2026-04-19T09:03:10.99Z</time></trkpt><trkpt lat="43.403297" lon="10.7052235"><ele>570.6</ele><time>2026-04-19T09:03:12.016Z</time></trkpt><trkpt lat="43.403199" lon="10.7052612"><ele>569.2</ele><time>2026-04-19T09:03:13.003Z</time></trkpt><trkpt lat="43.4031078" lon="10.7053132"><ele>567.8</ele><time>2026-04-19T09:03:13.999Z</time></trkpt><trkpt lat="43.4030128" lon="10.7053825"><ele>566.4</ele><time>2026-04-19T09:03:15.006Z</time></trkpt><trkpt lat="43.4029301" lon="10.7054662"><ele>565.0</ele><time>2026-04-19T09:03:16.001Z</time></trkpt><trkpt lat="43.402846" lon="10.705568"><ele>565.0</ele><time>2026-04-19T09:03:17.014Z</time></trkpt><trkpt lat="43.4027646" lon="10.7056743"><ele>565.0</ele><time>2026-04-19T09:03:18.003Z</time></trkpt><trkpt lat="43.4026884" lon="10.7057913"><ele>565.0</ele><time>2026-04-19T09:03:18.999Z</time></trkpt><trkpt lat="43.4026073" lon="10.7059136"><ele>565.0</ele><time>2026-04-19T09:03:20.006Z</time></trkpt><trkpt lat="43.402521" lon="10.7060496"><ele>563.75</ele><time>2026-04-19T09:03:21Z</time></trkpt><trkpt lat="43.4024279" lon="10.7061902"><ele>562.5</ele><time>2026-04-19T09:03:21.991Z</time></trkpt><trkpt lat="43.4023309" lon="10.7063143"><ele>561.25</ele><time>2026-04-19T09:03:23.002Z</time></trkpt><trkpt lat="43.4022267" lon="10.7064213"><ele>560.0</ele><time>2026-04-19T09:03:24.018Z</time></trkpt><trkpt lat="43.4021206" lon="10.706521"><ele>560.0</ele><time>2026-04-19T09:03:25.004Z</time></trkpt><trkpt lat="43.4020145" lon="10.7066218"><ele>560.0</ele><time>2026-04-19T09:03:26.016Z</time></trkpt><trkpt lat="43.4019068" lon="10.7067232"><ele>560.0</ele><time>2026-04-19T09:03:27.006Z</time></trkpt><trkpt lat="43.4017972" lon="10.7068272"><ele>560.0</ele><time>2026-04-19T09:03:28.007Z</time></trkpt><trkpt lat="43.4016935" lon="10.7069439"><ele>559.75</ele><time>2026-04-19T09:03:28.999Z</time></trkpt><trkpt lat="43.4016057" lon="10.7070642"><ele>559.5</ele><time>2026-04-19T09:03:30.005Z</time></trkpt><trkpt lat="43.401508" lon="10.7071826"><ele>559.25</ele><time>2026-04-19T09:03:31.002Z</time></trkpt><trkpt lat="43.4014076" lon="10.7072755"><ele>559.0</ele><time>2026-04-19T09:03:31.994Z</time></trkpt><trkpt lat="43.4013051" lon="10.7073323"><ele>559.0</ele><time>2026-04-19T09:03:33.007Z</time></trkpt><trkpt lat="43.4011903" lon="10.7073923"><ele>559.0</ele><time>2026-04-19T09:03:34.005Z</time></trkpt><trkpt lat="43.4010839" lon="10.7074488"><ele>559.0</ele><time>2026-04-19T09:03:35.001Z</time></trkpt><trkpt lat="43.4009788" lon="10.707515"><ele>559.0</ele><time>2026-04-19T09:03:36.042Z</time></trkpt><trkpt lat="43.4008929" lon="10.7076061"><ele>559.0</ele><time>2026-04-19T09:03:37.004Z</time></trkpt><trkpt lat="43.4008064" lon="10.7077019"><ele>559.0</ele><time>2026-04-19T09:03:37.997Z</time></trkpt><trkpt lat="43.4007141" lon="10.7078008"><ele>559.0</ele><time>2026-04-19T09:03:39.01Z</time></trkpt><trkpt lat="43.4006241" lon="10.7078889"><ele>559.0</ele><time>2026-04-19T09:03:40Z</time></trkpt><trkpt lat="43.4005288" lon="10.7079785"><ele>557.75</ele><time>2026-04-19T09:03:41.007Z</time></trkpt><trkpt lat="43.4004434" lon="10.7080656"><ele>556.5</ele><time>2026-04-19T09:03:41.997Z</time></trkpt><trkpt lat="43.4003658" lon="10.7081582"><ele>555.25</ele><time>2026-04-19T09:03:43.009Z</time></trkpt><trkpt lat="43.4002937" lon="10.7082774"><ele>554.0</ele><time>2026-04-19T09:03:44.044Z</time></trkpt><trkpt lat="43.4002282" lon="10.7084374"><ele>555.0</ele><time>2026-04-19T09:03:45.01Z</time></trkpt><trkpt lat="43.4001683" lon="10.708599"><ele>556.0</ele><time>2026-04-19T09:03:46.008Z</time></trkpt><trkpt lat="43.400108" lon="10.7087482"><ele>557.0</ele><time>2026-04-19T09:03:47.007Z</time></trkpt><trkpt lat="43.4000317" lon="10.7089007"><ele>558.0</ele><time>2026-04-19T09:03:48.003Z</time></trkpt><trkpt lat="43.3999436" lon="10.7090335"><ele>558.0</ele><time>2026-04-19T09:03:49.007Z</time></trkpt><trkpt lat="43.3998602" lon="10.7091691"><ele>558.0</ele><time>2026-04-19T09:03:49.994Z</time></trkpt><trkpt lat="43.3997809" lon="10.7092812"><ele>558.0</ele><time>2026-04-19T09:03:51.005Z</time></trkpt><trkpt lat="43.3997116" lon="10.709367"><ele>558.0</ele><time>2026-04-19T09:03:52.012Z</time></trkpt><trkpt lat="43.3996353" lon="10.7094242"><ele>558.0</ele><time>2026-04-19T09:03:53.068Z</time></trkpt><trkpt lat="43.399537" lon="10.709442"><ele>559.1999999999999</ele><time>2026-04-19T09:03:53.996Z</time></trkpt><trkpt lat="43.3994346" lon="10.7094653"><ele>560.4</ele><time>2026-04-19T09:03:55.015Z</time></trkpt><trkpt lat="43.3993319" lon="10.7095154"><ele>561.5999999999999</ele><time>2026-04-19T09:03:55.996Z</time></trkpt><trkpt lat="43.3992382" lon="10.709594"><ele>562.8</ele><time>2026-04-19T09:03:56.999Z</time></trkpt><trkpt lat="43.3991467" lon="10.7097019"><ele>564.0</ele><time>2026-04-19T09:03:58.005Z</time></trkpt><trkpt lat="43.399054" lon="10.7098283"><ele>564.0</ele><time>2026-04-19T09:03:59.009Z</time></trkpt><trkpt lat="43.398966" lon="10.7099556"><ele>564.0</ele><time>2026-04-19T09:04:00.004Z</time></trkpt><trkpt lat="43.3988639" lon="10.7100889"><ele>564.0</ele><time>2026-04-19T09:04:01.017Z</time></trkpt><trkpt lat="43.3987588" lon="10.7102209"><ele>564.0</ele><time>2026-04-19T09:04:02.012Z</time></trkpt><trkpt lat="43.3986414" lon="10.7103391"><ele>564.0</ele><time>2026-04-19T09:04:02.999Z</time></trkpt><trkpt lat="43.3985369" lon="10.7104233"><ele>564.0</ele><time>2026-04-19T09:04:04.005Z</time></trkpt><trkpt lat="43.3984302" lon="10.7104563"><ele>564.0</ele><time>2026-04-19T09:04:04.999Z</time></trkpt><trkpt lat="43.3983207" lon="10.7104477"><ele>564.0</ele><time>2026-04-19T09:04:05.998Z</time></trkpt><trkpt lat="43.3982046" lon="10.7104276"><ele>564.0</ele><time>2026-04-19T09:04:06.999Z</time></trkpt><trkpt lat="43.3980948" lon="10.7103787"><ele>564.0</ele><time>2026-04-19T09:04:07.998Z</time></trkpt><trkpt lat="43.3979683" lon="10.7103071"><ele>564.0</ele><time>2026-04-19T09:04:08.994Z</time></trkpt><trkpt lat="43.3978475" lon="10.7102323"><ele>564.0</ele><time>2026-04-19T09:04:10.047Z</time></trkpt><trkpt lat="43.3977092" lon="10.7101538"><ele>561.25</ele><time>2026-04-19T09:04:11.003Z</time></trkpt><trkpt lat="43.3975696" lon="10.7100713"><ele>558.5</ele><time>2026-04-19T09:04:12.017Z</time></trkpt><trkpt lat="43.3974444" lon="10.7099984"><ele>555.75</ele><time>2026-04-19T09:04:13Z</time></trkpt><trkpt lat="43.3973223" lon="10.7099404"><ele>553.0</ele><time>2026-04-19T09:04:13.998Z</time></trkpt><trkpt lat="43.3972137" lon="10.709883"><ele>552.4</ele><time>2026-04-19T09:04:15.007Z</time></trkpt><trkpt lat="43.397112" lon="10.7098475"><ele>551.8</ele><time>2026-04-19T09:04:16.011Z</time></trkpt><trkpt lat="43.3970195" lon="10.7098441"><ele>551.2</ele><time>2026-04-19T09:04:17.003Z</time></trkpt><trkpt lat="43.39693" lon="10.7098821"><ele>550.6</ele><time>2026-04-19T09:04:18.001Z</time></trkpt><trkpt lat="43.3968369" lon="10.709972"><ele>550.0</ele><time>2026-04-19T09:04:19.007Z</time></trkpt><trkpt lat="43.3967504" lon="10.7100877"><ele>550.0</ele><time>2026-04-19T09:04:20.016Z</time></trkpt><trkpt lat="43.3966737" lon="10.7102136"><ele>550.0</ele><time>2026-04-19T09:04:21.003Z</time></trkpt><trkpt lat="43.3965948" lon="10.7103602"><ele>550.0</ele><time>2026-04-19T09:04:22.023Z</time></trkpt><trkpt lat="43.3965332" lon="10.7105239"><ele>550.0</ele><time>2026-04-19T09:04:23.008Z</time></trkpt><trkpt lat="43.3964901" lon="10.7107086"><ele>550.75</ele><time>2026-04-19T09:04:23.992Z</time></trkpt><trkpt lat="43.3964526" lon="10.7108877"><ele>551.5</ele><time>2026-04-19T09:04:25.001Z</time></trkpt><trkpt lat="43.3963993" lon="10.7110455"><ele>552.25</ele><time>2026-04-19T09:04:25.998Z</time></trkpt><trkpt lat="43.3963141" lon="10.7111966"><ele>553.0</ele><time>2026-04-19T09:04:27.012Z</time></trkpt><trkpt lat="43.396225" lon="10.7113469"><ele>553.0</ele><time>2026-04-19T09:04:27.992Z</time></trkpt><trkpt lat="43.396131" lon="10.7114978"><ele>553.0</ele><time>2026-04-19T09:04:28.995Z</time></trkpt><trkpt lat="43.3960442" lon="10.7116501"><ele>553.0</ele><time>2026-04-19T09:04:30.003Z</time></trkpt><trkpt lat="43.3959628" lon="10.711805"><ele>553.0</ele><time>2026-04-19T09:04:31.002Z</time></trkpt><trkpt lat="43.3958961" lon="10.7119561"><ele>555.0</ele><time>2026-04-19T09:04:32.006Z</time></trkpt><trkpt lat="43.3958439" lon="10.7120904"><ele>557.0</ele><time>2026-04-19T09:04:33.035Z</time></trkpt><trkpt lat="43.3957818" lon="10.7122085"><ele>559.0</ele><time>2026-04-19T09:04:34Z</time></trkpt><trkpt lat="43.395708" lon="10.7123082"><ele>561.0</ele><time>2026-04-19T09:04:35.002Z</time></trkpt><trkpt lat="43.395611" lon="10.7123812"><ele>563.0</ele><time>2026-04-19T09:04:35.997Z</time></trkpt><trkpt lat="43.3955062" lon="10.712425"><ele>561.0</ele><time>2026-04-19T09:04:37.001Z</time></trkpt><trkpt lat="43.3953944" lon="10.7124771"><ele>559.0</ele><time>2026-04-19T09:04:37.99Z</time></trkpt><trkpt lat="43.395282" lon="10.7125264"><ele>557.0</ele><time>2026-04-19T09:04:39.001Z</time></trkpt><trkpt lat="43.3951703" lon="10.7125938"><ele>555.0</ele><time>2026-04-19T09:04:40.007Z</time></trkpt><trkpt lat="43.3950595" lon="10.7126758"><ele>556.25</ele><time>2026-04-19T09:04:40.989Z</time></trkpt><trkpt lat="43.3949603" lon="10.7127914"><ele>557.5</ele><time>2026-04-19T09:04:42.004Z</time></trkpt><trkpt lat="43.3948969" lon="10.7129486"><ele>558.75</ele><time>2026-04-19T09:04:42.995Z</time></trkpt><trkpt lat="43.3948322" lon="10.7130997"><ele>560.0</ele><time>2026-04-19T09:04:44Z</time></trkpt><trkpt lat="43.3947731" lon="10.7132751"><ele>560.0</ele><time>2026-04-19T09:04:44.99Z</time></trkpt><trkpt lat="43.3947318" lon="10.7134616"><ele>560.0</ele><time>2026-04-19T09:04:46.001Z</time></trkpt><trkpt lat="43.3946868" lon="10.7136421"><ele>560.0</ele><time>2026-04-19T09:04:46.998Z</time></trkpt><trkpt lat="43.394644" lon="10.7138308"><ele>560.0</ele><time>2026-04-19T09:04:47.995Z</time></trkpt><trkpt lat="43.3945974" lon="10.7140196"><ele>557.75</ele><time>2026-04-19T09:04:48.999Z</time></trkpt><trkpt lat="43.3945516" lon="10.7142093"><ele>555.5</ele><time>2026-04-19T09:04:49.996Z</time></trkpt><trkpt lat="43.3945028" lon="10.7144022"><ele>553.25</ele><time>2026-04-19T09:04:50.998Z</time></trkpt><trkpt lat="43.3944485" lon="10.714597"><ele>551.0</ele><time>2026-04-19T09:04:51.997Z</time></trkpt><trkpt lat="43.3943972" lon="10.7147815"><ele>551.0</ele><time>2026-04-19T09:04:52.995Z</time></trkpt><trkpt lat="43.3943394" lon="10.7149422"><ele>551.0</ele><time>2026-04-19T09:04:53.992Z</time></trkpt><trkpt lat="43.3942837" lon="10.7150836"><ele>551.0</ele><time>2026-04-19T09:04:54.997Z</time></trkpt><trkpt lat="43.3942074" lon="10.715211"><ele>551.0</ele><time>2026-04-19T09:04:56.007Z</time></trkpt><trkpt lat="43.3941064" lon="10.7153326"><ele>551.25</ele><time>2026-04-19T09:04:57.002Z</time></trkpt><trkpt lat="43.3939942" lon="10.7154562"><ele>551.5</ele><time>2026-04-19T09:04:58.007Z</time></trkpt><trkpt lat="43.393875" lon="10.7155787"><ele>551.75</ele><time>2026-04-19T09:04:59.008Z</time></trkpt><trkpt lat="43.3937626" lon="10.7157066"><ele>552.0</ele><time>2026-04-19T09:05:00.005Z</time></trkpt><trkpt lat="43.3936557" lon="10.7158431"><ele>553.25</ele><time>2026-04-19T09:05:01.001Z</time></trkpt><trkpt lat="43.3935731" lon="10.7159949"><ele>554.5</ele><time>2026-04-19T09:05:02.003Z</time></trkpt><trkpt lat="43.3935133" lon="10.7161631"><ele>555.75</ele><time>2026-04-19T09:05:02.987Z</time></trkpt><trkpt lat="43.3934799" lon="10.7163648"><ele>557.0</ele><time>2026-04-19T09:05:03.991Z</time></trkpt><trkpt lat="43.393455" lon="10.7165831"><ele>557.3333333333333</ele><time>2026-04-19T09:05:04.998Z</time></trkpt><trkpt lat="43.3934296" lon="10.716806"><ele>557.6666666666666</ele><time>2026-04-19T09:05:06.007Z</time></trkpt><trkpt lat="43.3934034" lon="10.7170207"><ele>558.0</ele><time>2026-04-19T09:05:07.012Z</time></trkpt><trkpt lat="43.3933779" lon="10.7172314"><ele>558.0</ele><time>2026-04-19T09:05:08.013Z</time></trkpt><trkpt lat="43.3933469" lon="10.7174265"><ele>558.0</ele><time>2026-04-19T09:05:09.01Z</time></trkpt><trkpt lat="43.3933079" lon="10.7176304"><ele>558.0</ele><time>2026-04-19T09:05:09.997Z</time></trkpt><trkpt lat="43.3932633" lon="10.7178305"><ele>556.3333333333334</ele><time>2026-04-19T09:05:11.023Z</time></trkpt><trkpt lat="43.3932081" lon="10.718034"><ele>554.6666666666667</ele><time>2026-04-19T09:05:12Z</time></trkpt><trkpt lat="43.3931457" lon="10.7182286"><ele>553.0</ele><time>2026-04-19T09:05:13.01Z</time></trkpt><trkpt lat="43.3930776" lon="10.7184276"><ele>552.3333333333334</ele><time>2026-04-19T09:05:13.998Z</time></trkpt><trkpt lat="43.3930036" lon="10.7186319"><ele>551.6666666666666</ele><time>2026-04-19T09:05:15Z</time></trkpt><trkpt lat="43.392923" lon="10.7188228"><ele>551.0</ele><time>2026-04-19T09:05:16.04Z</time></trkpt><trkpt lat="43.3928464" lon="10.719008"><ele>551.0</ele><time>2026-04-19T09:05:17.011Z</time></trkpt><trkpt lat="43.3927665" lon="10.7191756"><ele>551.0</ele><time>2026-04-19T09:05:18.004Z</time></trkpt><trkpt lat="43.392682" lon="10.7193441"><ele>551.0</ele><time>2026-04-19T09:05:19.003Z</time></trkpt><trkpt lat="43.3925862" lon="10.7194988"><ele>551.0</ele><time>2026-04-19T09:05:20.002Z</time></trkpt><trkpt lat="43.3924962" lon="10.7196515"><ele>548.6666666666666</ele><time>2026-04-19T09:05:21Z</time></trkpt><trkpt lat="43.3924011" lon="10.7198068"><ele>546.3333333333334</ele><time>2026-04-19T09:05:22.006Z</time></trkpt><trkpt lat="43.3923034" lon="10.719968"><ele>544.0</ele><time>2026-04-19T09:05:23.008Z</time></trkpt><trkpt lat="43.3922211" lon="10.7201469"><ele>539.0</ele><time>2026-04-19T09:05:24.021Z</time></trkpt><trkpt lat="43.3921511" lon="10.7203545"><ele>534.0</ele><time>2026-04-19T09:05:25Z</time></trkpt><trkpt lat="43.3920822" lon="10.7205702"><ele>529.0</ele><time>2026-04-19T09:05:26.003Z</time></trkpt><trkpt lat="43.392018" lon="10.7207792"><ele>529.0</ele><time>2026-04-19T09:05:27.017Z</time></trkpt><trkpt lat="43.39196" lon="10.7209743"><ele>529.0</ele><time>2026-04-19T09:05:28.004Z</time></trkpt><trkpt lat="43.3919085" lon="10.7211508"><ele>529.0</ele><time>2026-04-19T09:05:28.991Z</time></trkpt><trkpt lat="43.3918689" lon="10.7213096"><ele>529.0</ele><time>2026-04-19T09:05:30.002Z</time></trkpt><trkpt lat="43.3918395" lon="10.7214757"><ele>528.75</ele><time>2026-04-19T09:05:31.005Z</time></trkpt><trkpt lat="43.3918395" lon="10.721646"><ele>528.5</ele><time>2026-04-19T09:05:32.003Z</time></trkpt><trkpt lat="43.3918584" lon="10.7218367"><ele>528.25</ele><time>2026-04-19T09:05:33.013Z</time></trkpt><trkpt lat="43.3918955" lon="10.7220306"><ele>528.0</ele><time>2026-04-19T09:05:34.006Z</time></trkpt><trkpt lat="43.3919324" lon="10.7222485"><ele>526.6666666666666</ele><time>2026-04-19T09:05:35.004Z</time></trkpt><trkpt lat="43.3919642" lon="10.7224634"><ele>525.3333333333333</ele><time>2026-04-19T09:05:36.004Z</time></trkpt><trkpt lat="43.3919975" lon="10.7226592"><ele>524.0</ele><time>2026-04-19T09:05:37.026Z</time></trkpt><trkpt lat="43.392028" lon="10.7228556"><ele>522.0</ele><time>2026-04-19T09:05:37.997Z</time></trkpt><trkpt lat="43.3920646" lon="10.7230471"><ele>520.0</ele><time>2026-04-19T09:05:38.996Z</time></trkpt><trkpt lat="43.3921215" lon="10.7232408"><ele>518.0</ele><time>2026-04-19T09:05:39.998Z</time></trkpt><trkpt lat="43.3921979" lon="10.7234485"><ele>515.6666666666666</ele><time>2026-04-19T09:05:41.001Z</time></trkpt><trkpt lat="43.3922791" lon="10.7236465"><ele>513.3333333333334</ele><time>2026-04-19T09:05:42.001Z</time></trkpt><trkpt lat="43.3923609" lon="10.7238389"><ele>511.0</ele><time>2026-04-19T09:05:42.995Z</time></trkpt><trkpt lat="43.3924477" lon="10.7240352"><ele>511.0</ele><time>2026-04-19T09:05:44.002Z</time></trkpt><trkpt lat="43.3925392" lon="10.7242227"><ele>511.0</ele><time>2026-04-19T09:05:44.998Z</time></trkpt><trkpt lat="43.3926331" lon="10.7244006"><ele>511.0</ele><time>2026-04-19T09:05:46.001Z</time></trkpt><trkpt lat="43.3927215" lon="10.7245677"><ele>510.5</ele><time>2026-04-19T09:05:47.002Z</time></trkpt><trkpt lat="43.3928041" lon="10.7247344"><ele>510.0</ele><time>2026-04-19T09:05:48.014Z</time></trkpt><trkpt lat="43.3928703" lon="10.7249025"><ele>509.5</ele><time>2026-04-19T09:05:49.002Z</time></trkpt><trkpt lat="43.3929211" lon="10.7250812"><ele>509.0</ele><time>2026-04-19T09:05:50.009Z</time></trkpt><trkpt lat="43.3929571" lon="10.7252422"><ele>509.0</ele><time>2026-04-19T09:05:50.996Z</time></trkpt><trkpt lat="43.3929899" lon="10.7253898"><ele>509.0</ele><time>2026-04-19T09:05:52.018Z</time></trkpt><trkpt lat="43.393019" lon="10.7255267"><ele>509.0</ele><time>2026-04-19T09:05:52.997Z</time></trkpt><trkpt lat="43.3930296" lon="10.7256693"><ele>509.0</ele><time>2026-04-19T09:05:54Z</time></trkpt><trkpt lat="43.3930139" lon="10.7257919"><ele>509.0</ele><time>2026-04-19T09:05:55Z</time></trkpt><trkpt lat="43.3929719" lon="10.7259186"><ele>509.0</ele><time>2026-04-19T09:05:55.992Z</time></trkpt><trkpt lat="43.3929211" lon="10.7260529"><ele>509.0</ele><time>2026-04-19T09:05:56.996Z</time></trkpt><trkpt lat="43.3928553" lon="10.7261955"><ele>509.0</ele><time>2026-04-19T09:05:57.994Z</time></trkpt><trkpt lat="43.3927854" lon="10.7263392"><ele>509.0</ele><time>2026-04-19T09:05:59.019Z</time></trkpt><trkpt lat="43.3927246" lon="10.7264865"><ele>510.75</ele><time>2026-04-19T09:05:59.999Z</time></trkpt><trkpt lat="43.3926699" lon="10.7266387"><ele>512.5</ele><time>2026-04-19T09:06:00.996Z</time></trkpt><trkpt lat="43.3926137" lon="10.7267941"><ele>514.25</ele><time>2026-04-19T09:06:01.992Z</time></trkpt><trkpt lat="43.3925543" lon="10.726949"><ele>516.0</ele><time>2026-04-19T09:06:03.002Z</time></trkpt><trkpt lat="43.3925038" lon="10.7271081"><ele>518.25</ele><time>2026-04-19T09:06:03.987Z</time></trkpt><trkpt lat="43.3924638" lon="10.7272763"><ele>520.5</ele><time>2026-04-19T09:06:04.994Z</time></trkpt><trkpt lat="43.3924266" lon="10.7274608"><ele>522.75</ele><time>2026-04-19T09:06:05.996Z</time></trkpt><trkpt lat="43.3923936" lon="10.7276526"><ele>525.0</ele><time>2026-04-19T09:06:06.992Z</time></trkpt><trkpt lat="43.3923546" lon="10.7278504"><ele>525.5</ele><time>2026-04-19T09:06:08.015Z</time></trkpt><trkpt lat="43.3923056" lon="10.7280153"><ele>526.0</ele><time>2026-04-19T09:06:08.993Z</time></trkpt><trkpt lat="43.3922392" lon="10.7281594"><ele>526.5</ele><time>2026-04-19T09:06:09.998Z</time></trkpt><trkpt lat="43.3921684" lon="10.7282986"><ele>527.0</ele><time>2026-04-19T09:06:10.989Z</time></trkpt><trkpt lat="43.3921189" lon="10.728448"><ele>528.25</ele><time>2026-04-19T09:06:12.01Z</time></trkpt><trkpt lat="43.3920993" lon="10.7286102"><ele>529.5</ele><time>2026-04-19T09:06:13.004Z</time></trkpt><trkpt lat="43.3920965" lon="10.7287953"><ele>530.75</ele><time>2026-04-19T09:06:13.993Z</time></trkpt><trkpt lat="43.3920998" lon="10.7289864"><ele>532.0</ele><time>2026-04-19T09:06:15Z</time></trkpt><trkpt lat="43.3920983" lon="10.7291878"><ele>533.0</ele><time>2026-04-19T09:06:16Z</time></trkpt><trkpt lat="43.3920924" lon="10.7293959"><ele>534.0</ele><time>2026-04-19T09:06:17.002Z</time></trkpt><trkpt lat="43.3920719" lon="10.7296144"><ele>535.0</ele><time>2026-04-19T09:06:18.01Z</time></trkpt><trkpt lat="43.3920496" lon="10.7298321"><ele>535.0</ele><time>2026-04-19T09:06:19.007Z</time></trkpt><trkpt lat="43.3920237" lon="10.7300367"><ele>535.0</ele><time>2026-04-19T09:06:19.995Z</time></trkpt><trkpt lat="43.391998" lon="10.7302192"><ele>535.0</ele><time>2026-04-19T09:06:20.996Z</time></trkpt><trkpt lat="43.3919644" lon="10.7303758"><ele>535.0</ele><time>2026-04-19T09:06:21.997Z</time></trkpt><trkpt lat="43.3919382" lon="10.7305192"><ele>534.75</ele><time>2026-04-19T09:06:22.991Z</time></trkpt><trkpt lat="43.3919099" lon="10.730684"><ele>534.5</ele><time>2026-04-19T09:06:23.996Z</time></trkpt><trkpt lat="43.391881" lon="10.7308693"><ele>534.25</ele><time>2026-04-19T09:06:24.995Z</time></trkpt><trkpt lat="43.391845" lon="10.7310668"><ele>534.0</ele><time>2026-04-19T09:06:25.994Z</time></trkpt><trkpt lat="43.3918052" lon="10.731271"><ele>532.6666666666666</ele><time>2026-04-19T09:06:26.996Z</time></trkpt><trkpt lat="43.391763" lon="10.7314895"><ele>531.3333333333333</ele><time>2026-04-19T09:06:28.004Z</time></trkpt><trkpt lat="43.3917146" lon="10.731708"><ele>530.0</ele><time>2026-04-19T09:06:28.991Z</time></trkpt><trkpt lat="43.3916655" lon="10.7319146"><ele>529.5</ele><time>2026-04-19T09:06:29.999Z</time></trkpt><trkpt lat="43.3916132" lon="10.7320985"><ele>529.0</ele><time>2026-04-19T09:06:30.996Z</time></trkpt><trkpt lat="43.3915601" lon="10.7322659"><ele>528.5</ele><time>2026-04-19T09:06:31.998Z</time></trkpt><trkpt lat="43.3915085" lon="10.732428"><ele>528.0</ele><time>2026-04-19T09:06:32.991Z</time></trkpt><trkpt lat="43.3914568" lon="10.7325814"><ele>526.75</ele><time>2026-04-19T09:06:34.002Z</time></trkpt><trkpt lat="43.3914018" lon="10.7327238"><ele>525.5</ele><time>2026-04-19T09:06:35Z</time></trkpt><trkpt lat="43.3913356" lon="10.7328518"><ele>524.25</ele><time>2026-04-19T09:06:36Z</time></trkpt><trkpt lat="43.3912695" lon="10.7329779"><ele>523.0</ele><time>2026-04-19T09:06:37.002Z</time></trkpt><trkpt lat="43.3911936" lon="10.7331082"><ele>519.75</ele><time>2026-04-19T09:06:37.996Z</time></trkpt><trkpt lat="43.3911042" lon="10.7332495"><ele>516.5</ele><time>2026-04-19T09:06:39.008Z</time></trkpt><trkpt lat="43.3910012" lon="10.7333928"><ele>513.25</ele><time>2026-04-19T09:06:39.999Z</time></trkpt><trkpt lat="43.3908913" lon="10.7335407"><ele>510.0</ele><time>2026-04-19T09:06:40.994Z</time></trkpt><trkpt lat="43.3907872" lon="10.7336914"><ele>510.0</ele><time>2026-04-19T09:06:41.996Z</time></trkpt><trkpt lat="43.3906924" lon="10.7338268"><ele>510.0</ele><time>2026-04-19T09:06:42.996Z</time></trkpt><trkpt lat="43.3906049" lon="10.7339693"><ele>510.0</ele><time>2026-04-19T09:06:43.991Z</time></trkpt><trkpt lat="43.3905263" lon="10.7341151"><ele>510.0</ele><time>2026-04-19T09:06:44.999Z</time></trkpt><trkpt lat="43.3904398" lon="10.7342505"><ele>507.0</ele><time>2026-04-19T09:06:45.995Z</time></trkpt><trkpt lat="43.3903589" lon="10.7343713"><ele>504.0</ele><time>2026-04-19T09:06:47.009Z</time></trkpt><trkpt lat="43.3902765" lon="10.7344949"><ele>501.0</ele><time>2026-04-19T09:06:48.007Z</time></trkpt><trkpt lat="43.3901991" lon="10.734607"><ele>498.0</ele><time>2026-04-19T09:06:49.011Z</time></trkpt><trkpt lat="43.390124" lon="10.734718"><ele>498.0</ele><time>2026-04-19T09:06:50.022Z</time></trkpt><trkpt lat="43.3900487" lon="10.734825"><ele>497.99999999999994</ele><time>2026-04-19T09:06:50.992Z</time></trkpt><trkpt lat="43.3899792" lon="10.7349243"><ele>497.99999999999994</ele><time>2026-04-19T09:06:51.991Z</time></trkpt><trkpt lat="43.389915" lon="10.735011"><ele>498.0</ele><time>2026-04-19T09:06:53Z</time></trkpt><trkpt lat="43.3898611" lon="10.7350895"><ele>498.0</ele><time>2026-04-19T09:06:53.999Z</time></trkpt><trkpt lat="43.3898257" lon="10.7351882"><ele>496.79999999999995</ele><time>2026-04-19T09:06:55.014Z</time></trkpt><trkpt lat="43.3898057" lon="10.7352917"><ele>495.59999999999997</ele><time>2026-04-19T09:06:56.004Z</time></trkpt><trkpt lat="43.389825" lon="10.7353993"><ele>494.40000000000003</ele><time>2026-04-19T09:06:57.007Z</time></trkpt><trkpt lat="43.389857" lon="10.7355279"><ele>493.20000000000005</ele><time>2026-04-19T09:06:58Z</time></trkpt><trkpt lat="43.3898968" lon="10.7356738"><ele>492.0</ele><time>2026-04-19T09:06:59.001Z</time></trkpt><trkpt lat="43.3899588" lon="10.7358199"><ele>492.0</ele><time>2026-04-19T09:06:59.993Z</time></trkpt><trkpt lat="43.3900428" lon="10.7359569"><ele>492.00000000000006</ele><time>2026-04-19T09:07:01.027Z</time></trkpt><trkpt lat="43.3901216" lon="10.7360736"><ele>492.00000000000006</ele><time>2026-04-19T09:07:01.992Z</time></trkpt><trkpt lat="43.3901961" lon="10.7361768"><ele>492.0</ele><time>2026-04-19T09:07:03Z</time></trkpt><trkpt lat="43.3902766" lon="10.7362494"><ele>492.0</ele><time>2026-04-19T09:07:03.991Z</time></trkpt><trkpt lat="43.3903544" lon="10.7362863"><ele>490.0</ele><time>2026-04-19T09:07:05Z</time></trkpt><trkpt lat="43.3904365" lon="10.7362887"><ele>488.0</ele><time>2026-04-19T09:07:05.991Z</time></trkpt><trkpt lat="43.3905036" lon="10.7362464"><ele>486.0</ele><time>2026-04-19T09:07:07.003Z</time></trkpt><trkpt lat="43.3905792" lon="10.7361721"><ele>484.0</ele><time>2026-04-19T09:07:07.993Z</time></trkpt><trkpt lat="43.3906608" lon="10.7361204"><ele>482.0</ele><time>2026-04-19T09:07:09.004Z</time></trkpt><trkpt lat="43.3907572" lon="10.7361221"><ele>480.0</ele><time>2026-04-19T09:07:09.998Z</time></trkpt><trkpt lat="43.3908469" lon="10.7361809"><ele>480.0</ele><time>2026-04-19T09:07:11.002Z</time></trkpt><trkpt lat="43.3909389" lon="10.7362586"><ele>480.0</ele><time>2026-04-19T09:07:11.994Z</time></trkpt><trkpt lat="43.3910376" lon="10.7362838"><ele>480.0</ele><time>2026-04-19T09:07:12.999Z</time></trkpt><trkpt lat="43.3911303" lon="10.7362696"><ele>480.0</ele><time>2026-04-19T09:07:13.992Z</time></trkpt><trkpt lat="43.391233" lon="10.736267"><ele>480.0</ele><time>2026-04-19T09:07:14.998Z</time></trkpt><trkpt lat="43.3913275" lon="10.7362806"><ele>481.0</ele><time>2026-04-19T09:07:15.995Z</time></trkpt><trkpt lat="43.3914176" lon="10.736302"><ele>482.0</ele><time>2026-04-19T09:07:17Z</time></trkpt><trkpt lat="43.3915019" lon="10.7363261"><ele>483.0</ele><time>2026-04-19T09:07:18.034Z</time></trkpt><trkpt lat="43.3915838" lon="10.7363544"><ele>484.0</ele><time>2026-04-19T09:07:18.994Z</time></trkpt><trkpt lat="43.3916524" lon="10.7364111"><ele>485.0</ele><time>2026-04-19T09:07:19.993Z</time></trkpt><trkpt lat="43.3917151" lon="10.7364989"><ele>486.0</ele><time>2026-04-19T09:07:20.993Z</time></trkpt><trkpt lat="43.3917544" lon="10.7366354"><ele>486.0</ele><time>2026-04-19T09:07:21.996Z</time></trkpt><trkpt lat="43.3917703" lon="10.7367861"><ele>486.0</ele><time>2026-04-19T09:07:22.993Z</time></trkpt><trkpt lat="43.3917792" lon="10.7369399"><ele>486.0</ele><time>2026-04-19T09:07:23.986Z</time></trkpt><trkpt lat="43.3917649" lon="10.7371024"><ele>486.0</ele><time>2026-04-19T09:07:24.995Z</time></trkpt><trkpt lat="43.3917351" lon="10.7372661"><ele>484.20000000000005</ele><time>2026-04-19T09:07:25.983Z</time></trkpt><trkpt lat="43.3916966" lon="10.7374201"><ele>482.40000000000003</ele><time>2026-04-19T09:07:26.99Z</time></trkpt><trkpt lat="43.3916579" lon="10.7375669"><ele>480.6</ele><time>2026-04-19T09:07:27.995Z</time></trkpt><trkpt lat="43.3916301" lon="10.7377099"><ele>478.8</ele><time>2026-04-19T09:07:28.989Z</time></trkpt><trkpt lat="43.3916115" lon="10.7378558"><ele>477.0</ele><time>2026-04-19T09:07:29.997Z</time></trkpt><trkpt lat="43.3916026" lon="10.7379916"><ele>475.20000000000005</ele><time>2026-04-19T09:07:30.987Z</time></trkpt><trkpt lat="43.391614" lon="10.7381425"><ele>473.40000000000003</ele><time>2026-04-19T09:07:31.997Z</time></trkpt><trkpt lat="43.3916339" lon="10.7382838"><ele>471.59999999999997</ele><time>2026-04-19T09:07:33Z</time></trkpt><trkpt lat="43.3916422" lon="10.7384268"><ele>469.79999999999995</ele><time>2026-04-19T09:07:33.985Z</time></trkpt><trkpt lat="43.3916549" lon="10.7385579"><ele>468.0</ele><time>2026-04-19T09:07:34.991Z</time></trkpt><trkpt lat="43.3916465" lon="10.7386749"><ele>467.3333333333333</ele><time>2026-04-19T09:07:35.994Z</time></trkpt><trkpt lat="43.3916322" lon="10.7387943"><ele>466.66666666666663</ele><time>2026-04-19T09:07:36.999Z</time></trkpt><trkpt lat="43.3916151" lon="10.7389015"><ele>466.0</ele><time>2026-04-19T09:07:38.007Z</time></trkpt><trkpt lat="43.3916031" lon="10.7390156"><ele>465.3333333333333</ele><time>2026-04-19T09:07:38.997Z</time></trkpt><trkpt lat="43.3915886" lon="10.7391381"><ele>464.66666666666663</ele><time>2026-04-19T09:07:40.001Z</time></trkpt><trkpt lat="43.3915579" lon="10.7392507"><ele>464.0</ele><time>2026-04-19T09:07:40.999Z</time></trkpt><trkpt lat="43.391528" lon="10.7393429"><ele>463.66666666666663</ele><time>2026-04-19T09:07:41.998Z</time></trkpt><trkpt lat="43.391493" lon="10.7394185"><ele>463.3333333333333</ele><time>2026-04-19T09:07:43.008Z</time></trkpt><trkpt lat="43.3914169" lon="10.7395496"><ele>463.0</ele><time>2026-04-19T09:07:44.999Z</time></trkpt><trkpt lat="43.3913574" lon="10.7395962"><ele>462.66666666666663</ele><time>2026-04-19T09:07:45.999Z</time></trkpt><trkpt lat="43.3912916" lon="10.739619"><ele>462.3333333333333</ele><time>2026-04-19T09:07:46.996Z</time></trkpt><trkpt lat="43.3912041" lon="10.7396781"><ele>462.0</ele><time>2026-04-19T09:07:49.009Z</time></trkpt><trkpt lat="43.3911533" lon="10.7397879"><ele>460.6</ele><time>2026-04-19T09:07:50.998Z</time></trkpt><trkpt lat="43.391178" lon="10.7398744"><ele>459.20000000000005</ele><time>2026-04-19T09:07:51.991Z</time></trkpt><trkpt lat="43.3912097" lon="10.7399773"><ele>457.8</ele><time>2026-04-19T09:07:52.992Z</time></trkpt><trkpt lat="43.3912591" lon="10.7400919"><ele>456.4</ele><time>2026-04-19T09:07:53.998Z</time></trkpt><trkpt lat="43.391303" lon="10.7402292"><ele>455.0</ele><time>2026-04-19T09:07:55.006Z</time></trkpt><trkpt lat="43.3913438" lon="10.7403675"><ele>455.0</ele><time>2026-04-19T09:07:55.99Z</time></trkpt><trkpt lat="43.3913921" lon="10.7405079"><ele>455.0</ele><time>2026-04-19T09:07:57.016Z</time></trkpt><trkpt lat="43.3914347" lon="10.740626"><ele>455.0</ele><time>2026-04-19T09:07:58Z</time></trkpt><trkpt lat="43.391477" lon="10.7407473"><ele>455.0</ele><time>2026-04-19T09:07:58.999Z</time></trkpt><trkpt lat="43.3915347" lon="10.7408745"><ele>455.0</ele><time>2026-04-19T09:08:00.006Z</time></trkpt><trkpt lat="43.3916007" lon="10.7409922"><ele>452.99999999999994</ele><time>2026-04-19T09:08:01.007Z</time></trkpt><trkpt lat="43.3916822" lon="10.7410766"><ele>451.0</ele><time>2026-04-19T09:08:01.997Z</time></trkpt><trkpt lat="43.3917635" lon="10.7411395"><ele>449.0</ele><time>2026-04-19T09:08:02.997Z</time></trkpt><trkpt lat="43.3918337" lon="10.741205"><ele>447.0</ele><time>2026-04-19T09:08:03.998Z</time></trkpt><trkpt lat="43.3918863" lon="10.7412777"><ele>444.99999999999994</ele><time>2026-04-19T09:08:04.999Z</time></trkpt><trkpt lat="43.3919222" lon="10.7413769"><ele>443.0</ele><time>2026-04-19T09:08:05.998Z</time></trkpt><trkpt lat="43.3919204" lon="10.7414987"><ele>443.0</ele><time>2026-04-19T09:08:06.997Z</time></trkpt><trkpt lat="43.391885" lon="10.7416558"><ele>443.0</ele><time>2026-04-19T09:08:07.988Z</time></trkpt><trkpt lat="43.3918625" lon="10.7418182"><ele>443.0</ele><time>2026-04-19T09:08:09.001Z</time></trkpt><trkpt lat="43.3918348" lon="10.741989"><ele>443.0</ele><time>2026-04-19T09:08:09.988Z</time></trkpt><trkpt lat="43.3918071" lon="10.742177"><ele>441.75</ele><time>2026-04-19T09:08:11.018Z</time></trkpt><trkpt lat="43.3917836" lon="10.7423594"><ele>440.5</ele><time>2026-04-19T09:08:11.988Z</time></trkpt><trkpt lat="43.391773" lon="10.7425478"><ele>439.25</ele><time>2026-04-19T09:08:12.994Z</time></trkpt><trkpt lat="43.3917644" lon="10.7427221"><ele>438.0</ele><time>2026-04-19T09:08:13.994Z</time></trkpt><trkpt lat="43.3917556" lon="10.7428896"><ele>437.2</ele><time>2026-04-19T09:08:14.995Z</time></trkpt><trkpt lat="43.391744" lon="10.7430529"><ele>436.4</ele><time>2026-04-19T09:08:15.995Z</time></trkpt><trkpt lat="43.3917499" lon="10.743199"><ele>435.59999999999997</ele><time>2026-04-19T09:08:17.023Z</time></trkpt><trkpt lat="43.391759" lon="10.7433169"><ele>434.79999999999995</ele><time>2026-04-19T09:08:17.987Z</time></trkpt><trkpt lat="43.391729" lon="10.7434317"><ele>434.0</ele><time>2026-04-19T09:08:19.996Z</time></trkpt><trkpt lat="43.3916096" lon="10.7433844"><ele>434.0</ele><time>2026-04-19T09:08:22.018Z</time></trkpt><trkpt lat="43.3915624" lon="10.7432721"><ele>434.0</ele><time>2026-04-19T09:08:22.989Z</time></trkpt><trkpt lat="43.3915524" lon="10.7431299"><ele>434.0</ele><time>2026-04-19T09:08:24.002Z</time></trkpt><trkpt lat="43.3915537" lon="10.7429715"><ele>434.0</ele><time>2026-04-19T09:08:25.003Z</time></trkpt><trkpt lat="43.3915451" lon="10.7428385"><ele>434.0</ele><time>2026-04-19T09:08:26.003Z</time></trkpt><trkpt lat="43.3915245" lon="10.7427413"><ele>434.0</ele><time>2026-04-19T09:08:26.993Z</time></trkpt><trkpt lat="43.3914438" lon="10.7426807"><ele>434.0</ele><time>2026-04-19T09:08:29.002Z</time></trkpt><trkpt lat="43.3913865" lon="10.7428054"><ele>434.0</ele><time>2026-04-19T09:08:31.008Z</time></trkpt><trkpt lat="43.3913817" lon="10.742908"><ele>434.0</ele><time>2026-04-19T09:08:31.998Z</time></trkpt><trkpt lat="43.3913726" lon="10.7430603"><ele>434.0</ele><time>2026-04-19T09:08:32.993Z</time></trkpt><trkpt lat="43.3913648" lon="10.743224"><ele>434.0</ele><time>2026-04-19T09:08:33.991Z</time></trkpt><trkpt lat="43.3913715" lon="10.7434053"><ele>434.0</ele><time>2026-04-19T09:08:34.985Z</time></trkpt><trkpt lat="43.3914011" lon="10.7435933"><ele>434.0</ele><time>2026-04-19T09:08:36.02Z</time></trkpt><trkpt lat="43.3914487" lon="10.7437593"><ele>434.0</ele><time>2026-04-19T09:08:37.004Z</time></trkpt><trkpt lat="43.3915067" lon="10.7439127"><ele>431.66666666666663</ele><time>2026-04-19T09:08:37.991Z</time></trkpt><trkpt lat="43.391555" lon="10.7440399"><ele>429.3333333333333</ele><time>2026-04-19T09:08:39.004Z</time></trkpt><trkpt lat="43.3915921" lon="10.7441469"><ele>427.0</ele><time>2026-04-19T09:08:40.007Z</time></trkpt><trkpt lat="43.3916164" lon="10.7442367"><ele>424.66666666666663</ele><time>2026-04-19T09:08:40.983Z</time></trkpt><trkpt lat="43.3916547" lon="10.7443573"><ele>422.3333333333333</ele><time>2026-04-19T09:08:42.992Z</time></trkpt><trkpt lat="43.3916792" lon="10.7444383"><ele>420.0</ele><time>2026-04-19T09:08:44.015Z</time></trkpt><trkpt lat="43.3917117" lon="10.7445407"><ele>416.0</ele><time>2026-04-19T09:08:44.992Z</time></trkpt><trkpt lat="43.391769" lon="10.7446696"><ele>412.0</ele><time>2026-04-19T09:08:45.997Z</time></trkpt><trkpt lat="43.3918529" lon="10.7447998"><ele>408.0</ele><time>2026-04-19T09:08:46.997Z</time></trkpt><trkpt lat="43.3919369" lon="10.744943"><ele>404.0</ele><time>2026-04-19T09:08:48.005Z</time></trkpt><trkpt lat="43.392025" lon="10.7450734"><ele>404.0</ele><time>2026-04-19T09:08:49.011Z</time></trkpt><trkpt lat="43.3921083" lon="10.7452012"><ele>404.0</ele><time>2026-04-19T09:08:49.994Z</time></trkpt><trkpt lat="43.3921701" lon="10.7453219"><ele>404.0</ele><time>2026-04-19T09:08:51Z</time></trkpt><trkpt lat="43.3921794" lon="10.7454627"><ele>404.0</ele><time>2026-04-19T09:08:51.992Z</time></trkpt><trkpt lat="43.3921545" lon="10.7456066"><ele>404.0</ele><time>2026-04-19T09:08:52.98Z</time></trkpt><trkpt lat="43.3921079" lon="10.7457458"><ele>403.75</ele><time>2026-04-19T09:08:53.99Z</time></trkpt><trkpt lat="43.3920354" lon="10.7458919"><ele>403.5</ele><time>2026-04-19T09:08:54.989Z</time></trkpt><trkpt lat="43.3919598" lon="10.7460177"><ele>403.25</ele><time>2026-04-19T09:08:55.985Z</time></trkpt><trkpt lat="43.391871" lon="10.7461433"><ele>403.0</ele><time>2026-04-19T09:08:56.99Z</time></trkpt><trkpt lat="43.3917912" lon="10.746261"><ele>403.0</ele><time>2026-04-19T09:08:57.996Z</time></trkpt><trkpt lat="43.3917137" lon="10.7463915"><ele>403.0</ele><time>2026-04-19T09:08:58.992Z</time></trkpt><trkpt lat="43.3916407" lon="10.7465281"><ele>403.0</ele><time>2026-04-19T09:09:00.001Z</time></trkpt><trkpt lat="43.3915828" lon="10.7466775"><ele>403.0</ele><time>2026-04-19T09:09:00.996Z</time></trkpt><trkpt lat="43.3915478" lon="10.7468249"><ele>402.75</ele><time>2026-04-19T09:09:01.997Z</time></trkpt><trkpt lat="43.3915214" lon="10.7469744"><ele>402.5</ele><time>2026-04-19T09:09:03.004Z</time></trkpt><trkpt lat="43.3915031" lon="10.7471335"><ele>402.25</ele><time>2026-04-19T09:09:04.01Z</time></trkpt><trkpt lat="43.3914947" lon="10.7472937"><ele>402.0</ele><time>2026-04-19T09:09:04.995Z</time></trkpt><trkpt lat="43.391499" lon="10.7474425"><ele>402.0</ele><time>2026-04-19T09:09:05.996Z</time></trkpt><trkpt lat="43.3915334" lon="10.7475864"><ele>402.0</ele><time>2026-04-19T09:09:07.005Z</time></trkpt><trkpt lat="43.3915943" lon="10.7477265"><ele>402.0</ele><time>2026-04-19T09:09:07.991Z</time></trkpt><trkpt lat="43.3916614" lon="10.7478531"><ele>402.0</ele><time>2026-04-19T09:09:08.996Z</time></trkpt><trkpt lat="43.3917484" lon="10.7479671"><ele>400.40000000000003</ele><time>2026-04-19T09:09:09.992Z</time></trkpt><trkpt lat="43.3918352" lon="10.7480531"><ele>398.8</ele><time>2026-04-19T09:09:11Z</time></trkpt><trkpt lat="43.391928" lon="10.7481393"><ele>397.2</ele><time>2026-04-19T09:09:12Z</time></trkpt><trkpt lat="43.3920118" lon="10.7482271"><ele>395.6</ele><time>2026-04-19T09:09:13Z</time></trkpt><trkpt lat="43.3920883" lon="10.7483235"><ele>394.0</ele><time>2026-04-19T09:09:14.004Z</time></trkpt><trkpt lat="43.3921476" lon="10.7484386"><ele>394.6</ele><time>2026-04-19T09:09:15.022Z</time></trkpt><trkpt lat="43.3921858" lon="10.7485684"><ele>395.2</ele><time>2026-04-19T09:09:16.005Z</time></trkpt><trkpt lat="43.3922195" lon="10.7486926"><ele>395.8</ele><time>2026-04-19T09:09:16.997Z</time></trkpt><trkpt lat="43.3922527" lon="10.7488162"><ele>396.40000000000003</ele><time>2026-04-19T09:09:17.996Z</time></trkpt><trkpt lat="43.3922837" lon="10.7489276"><ele>397.0</ele><time>2026-04-19T09:09:19Z</time></trkpt><trkpt lat="43.3923176" lon="10.7490339"><ele>397.00000000000006</ele><time>2026-04-19T09:09:19.994Z</time></trkpt><trkpt lat="43.3923503" lon="10.7491323"><ele>397.0</ele><time>2026-04-19T09:09:20.995Z</time></trkpt><trkpt lat="43.3923774" lon="10.7492353"><ele>397.0</ele><time>2026-04-19T09:09:21.999Z</time></trkpt><trkpt lat="43.3924044" lon="10.7493383"><ele>397.0</ele><time>2026-04-19T09:09:22.992Z</time></trkpt><trkpt lat="43.3924313" lon="10.749439"><ele>397.00000000000006</ele><time>2026-04-19T09:09:24.01Z</time></trkpt><trkpt lat="43.392463" lon="10.7495405"><ele>397.0</ele><time>2026-04-19T09:09:24.991Z</time></trkpt><trkpt lat="43.3924871" lon="10.7496436"><ele>396.50000000000006</ele><time>2026-04-19T09:09:26.002Z</time></trkpt><trkpt lat="43.3925274" lon="10.7497136"><ele>396.0</ele><time>2026-04-19T09:09:26.998Z</time></trkpt><trkpt lat="43.3925764" lon="10.7497809"><ele>395.5</ele><time>2026-04-19T09:09:28Z</time></trkpt><trkpt lat="43.3926232" lon="10.7498446"><ele>395.0</ele><time>2026-04-19T09:09:29.001Z</time></trkpt><trkpt lat="43.3927062" lon="10.749909"><ele>394.50000000000006</ele><time>2026-04-19T09:09:31.002Z</time></trkpt><trkpt lat="43.3928285" lon="10.7498859"><ele>394.0</ele><time>2026-04-19T09:09:32.992Z</time></trkpt><trkpt lat="43.3929149" lon="10.7498616"><ele>394.0</ele><time>2026-04-19T09:09:33.996Z</time></trkpt><trkpt lat="43.3930048" lon="10.7498122"><ele>394.0</ele><time>2026-04-19T09:09:34.986Z</time></trkpt><trkpt lat="43.3930982" lon="10.7497451"><ele>394.0</ele><time>2026-04-19T09:09:36.009Z</time></trkpt><trkpt lat="43.3931842" lon="10.7496271"><ele>394.0</ele><time>2026-04-19T09:09:36.99Z</time></trkpt><trkpt lat="43.3932307" lon="10.7494722"><ele>394.0</ele><time>2026-04-19T09:09:37.994Z</time></trkpt><trkpt lat="43.3932897" lon="10.7493292"><ele>392.5</ele><time>2026-04-19T09:09:38.997Z</time></trkpt><trkpt lat="43.3933472" lon="10.7491839"><ele>391.0</ele><time>2026-04-19T09:09:39.993Z</time></trkpt><trkpt lat="43.3934058" lon="10.7490316"><ele>389.5</ele><time>2026-04-19T09:09:41.009Z</time></trkpt><trkpt lat="43.3934739" lon="10.7488836"><ele>388.0</ele><time>2026-04-19T09:09:41.995Z</time></trkpt><trkpt lat="43.3935578" lon="10.7487629"><ele>388.0</ele><time>2026-04-19T09:09:43.022Z</time></trkpt><trkpt lat="43.3936537" lon="10.7486713"><ele>388.0</ele><time>2026-04-19T09:09:44.002Z</time></trkpt><trkpt lat="43.3937585" lon="10.748608"><ele>388.0</ele><time>2026-04-19T09:09:45.005Z</time></trkpt><trkpt lat="43.3938656" lon="10.7485869"><ele>388.0</ele><time>2026-04-19T09:09:45.988Z</time></trkpt><trkpt lat="43.3939952" lon="10.7485929"><ele>387.0</ele><time>2026-04-19T09:09:46.991Z</time></trkpt><trkpt lat="43.3941154" lon="10.7486041"><ele>386.0</ele><time>2026-04-19T09:09:47.991Z</time></trkpt><trkpt lat="43.3942405" lon="10.748594"><ele>385.0</ele><time>2026-04-19T09:09:49.005Z</time></trkpt><trkpt lat="43.3943448" lon="10.7485587"><ele>384.0</ele><time>2026-04-19T09:09:49.995Z</time></trkpt><trkpt lat="43.3944372" lon="10.7484888"><ele>384.0</ele><time>2026-04-19T09:09:51.005Z</time></trkpt><trkpt lat="43.3945166" lon="10.74842"><ele>384.0</ele><time>2026-04-19T09:09:51.985Z</time></trkpt><trkpt lat="43.3946003" lon="10.7483629"><ele>384.0</ele><time>2026-04-19T09:09:52.991Z</time></trkpt><trkpt lat="43.3946914" lon="10.7483454"><ele>384.0</ele><time>2026-04-19T09:09:53.994Z</time></trkpt><trkpt lat="43.3948003" lon="10.7483916"><ele>384.0</ele><time>2026-04-19T09:09:54.998Z</time></trkpt><trkpt lat="43.3949108" lon="10.7484442"><ele>384.0</ele><time>2026-04-19T09:09:55.995Z</time></trkpt><trkpt lat="43.3950123" lon="10.7485226"><ele>384.0</ele><time>2026-04-19T09:09:57.03Z</time></trkpt><trkpt lat="43.3951246" lon="10.748609"><ele>384.0</ele><time>2026-04-19T09:09:57.993Z</time></trkpt><trkpt lat="43.3952254" lon="10.7487191"><ele>384.0</ele><time>2026-04-19T09:09:58.999Z</time></trkpt><trkpt lat="43.3953203" lon="10.7488469"><ele>381.0</ele><time>2026-04-19T09:09:59.997Z</time></trkpt><trkpt lat="43.3954099" lon="10.7489747"><ele>378.0</ele><time>2026-04-19T09:10:00.996Z</time></trkpt><trkpt lat="43.3955005" lon="10.7490974"><ele>375.0</ele><time>2026-04-19T09:10:01.995Z</time></trkpt><trkpt lat="43.3955948" lon="10.749205"><ele>372.0</ele><time>2026-04-19T09:10:02.991Z</time></trkpt><trkpt lat="43.3956812" lon="10.7492922"><ele>372.0</ele><time>2026-04-19T09:10:04.011Z</time></trkpt><trkpt lat="43.3957736" lon="10.7493372"><ele>372.0</ele><time>2026-04-19T09:10:04.996Z</time></trkpt><trkpt lat="43.3958769" lon="10.749337"><ele>372.0</ele><time>2026-04-19T09:10:06Z</time></trkpt><trkpt lat="43.3959866" lon="10.7493167"><ele>372.0</ele><time>2026-04-19T09:10:06.996Z</time></trkpt><trkpt lat="43.3961055" lon="10.7492665"><ele>372.0</ele><time>2026-04-19T09:10:07.993Z</time></trkpt><trkpt lat="43.3962292" lon="10.749217"><ele>369.5</ele><time>2026-04-19T09:10:08.995Z</time></trkpt><trkpt lat="43.3963613" lon="10.7491706"><ele>367.0</ele><time>2026-04-19T09:10:09.997Z</time></trkpt><trkpt lat="43.3964932" lon="10.7491175"><ele>364.5</ele><time>2026-04-19T09:10:10.99Z</time></trkpt><trkpt lat="43.3966309" lon="10.7490629"><ele>362.0</ele><time>2026-04-19T09:10:11.994Z</time></trkpt><trkpt lat="43.3967776" lon="10.7490105"><ele>362.0</ele><time>2026-04-19T09:10:12.999Z</time></trkpt><trkpt lat="43.3969197" lon="10.7489556"><ele>362.0</ele><time>2026-04-19T09:10:13.995Z</time></trkpt><trkpt lat="43.397062" lon="10.7489054"><ele>362.0</ele><time>2026-04-19T09:10:14.995Z</time></trkpt><trkpt lat="43.3971965" lon="10.7488629"><ele>362.0</ele><time>2026-04-19T09:10:15.986Z</time></trkpt><trkpt lat="43.3973219" lon="10.748822"><ele>360.20000000000005</ele><time>2026-04-19T09:10:16.997Z</time></trkpt><trkpt lat="43.3974295" lon="10.7487859"><ele>358.4</ele><time>2026-04-19T09:10:17.994Z</time></trkpt><trkpt lat="43.3975175" lon="10.7487432"><ele>356.6</ele><time>2026-04-19T09:10:18.991Z</time></trkpt><trkpt lat="43.3975796" lon="10.7487144"><ele>354.79999999999995</ele><time>2026-04-19T09:10:19.99Z</time></trkpt><trkpt lat="43.3976738" lon="10.7487766"><ele>353.0</ele><time>2026-04-19T09:10:21.989Z</time></trkpt><trkpt lat="43.3976656" lon="10.7489117"><ele>353.0</ele><time>2026-04-19T09:10:24Z</time></trkpt><trkpt lat="43.3976052" lon="10.7489579"><ele>353.0</ele><time>2026-04-19T09:10:24.989Z</time></trkpt><trkpt lat="43.3975107" lon="10.7490001"><ele>353.0</ele><time>2026-04-19T09:10:26.003Z</time></trkpt><trkpt lat="43.39741" lon="10.7490475"><ele>353.0</ele><time>2026-04-19T09:10:27Z</time></trkpt><trkpt lat="43.3972964" lon="10.7491004"><ele>353.0</ele><time>2026-04-19T09:10:27.994Z</time></trkpt><trkpt lat="43.3971853" lon="10.7491613"><ele>354.5</ele><time>2026-04-19T09:10:29.017Z</time></trkpt><trkpt lat="43.3970887" lon="10.7492196"><ele>356.0</ele><time>2026-04-19T09:10:29.995Z</time></trkpt><trkpt lat="43.3970144" lon="10.7492661"><ele>357.5</ele><time>2026-04-19T09:10:31.001Z</time></trkpt><trkpt lat="43.3969517" lon="10.7493241"><ele>359.0</ele><time>2026-04-19T09:10:31.999Z</time></trkpt><trkpt lat="43.3969404" lon="10.749475"><ele>360.5</ele><time>2026-04-19T09:10:33.984Z</time></trkpt><trkpt lat="43.3969923" lon="10.7495404"><ele>362.0</ele><time>2026-04-19T09:10:34.994Z</time></trkpt><trkpt lat="43.3970669" lon="10.7495545"><ele>359.75</ele><time>2026-04-19T09:10:35.984Z</time></trkpt><trkpt lat="43.3971493" lon="10.7495195"><ele>357.5</ele><time>2026-04-19T09:10:36.993Z</time></trkpt><trkpt lat="43.3972532" lon="10.7494793"><ele>355.25</ele><time>2026-04-19T09:10:37.992Z</time></trkpt><trkpt lat="43.3973796" lon="10.7494154"><ele>353.0</ele><time>2026-04-19T09:10:39.02Z</time></trkpt><trkpt lat="43.3975277" lon="10.7493488"><ele>353.0</ele><time>2026-04-19T09:10:40.001Z</time></trkpt><trkpt lat="43.3976713" lon="10.7492938"><ele>353.0</ele><time>2026-04-19T09:10:41.003Z</time></trkpt><trkpt lat="43.3978203" lon="10.7492365"><ele>353.0</ele><time>2026-04-19T09:10:42.011Z</time></trkpt><trkpt lat="43.3979786" lon="10.7491735"><ele>347.0</ele><time>2026-04-19T09:10:43.001Z</time></trkpt><trkpt lat="43.398143" lon="10.7491037"><ele>341.0</ele><time>2026-04-19T09:10:43.99Z</time></trkpt><trkpt lat="43.3983061" lon="10.7490057"><ele>335.0</ele><time>2026-04-19T09:10:44.995Z</time></trkpt><trkpt lat="43.3984675" lon="10.7489045"><ele>335.0</ele><time>2026-04-19T09:10:45.988Z</time></trkpt><trkpt lat="43.3986307" lon="10.7487814"><ele>335.0</ele><time>2026-04-19T09:10:46.987Z</time></trkpt><trkpt lat="43.3987788" lon="10.7486579"><ele>335.0</ele><time>2026-04-19T09:10:48.008Z</time></trkpt><trkpt lat="43.3989092" lon="10.7485291"><ele>334.25</ele><time>2026-04-19T09:10:48.988Z</time></trkpt><trkpt lat="43.3990143" lon="10.7483922"><ele>333.5</ele><time>2026-04-19T09:10:49.99Z</time></trkpt><trkpt lat="43.3990997" lon="10.7482412"><ele>332.75</ele><time>2026-04-19T09:10:50.99Z</time></trkpt><trkpt lat="43.3991638" lon="10.7480971"><ele>332.0</ele><time>2026-04-19T09:10:51.996Z</time></trkpt><trkpt lat="43.3992258" lon="10.7480113"><ele>332.0</ele><time>2026-04-19T09:10:52.999Z</time></trkpt><trkpt lat="43.3993002" lon="10.7479714"><ele>332.0</ele><time>2026-04-19T09:10:53.995Z</time></trkpt><trkpt lat="43.3993893" lon="10.747973"><ele>332.0</ele><time>2026-04-19T09:10:55Z</time></trkpt><trkpt lat="43.399474" lon="10.7480068"><ele>332.0</ele><time>2026-04-19T09:10:55.998Z</time></trkpt><trkpt lat="43.3995504" lon="10.7481083"><ele>332.0</ele><time>2026-04-19T09:10:57.002Z</time></trkpt><trkpt lat="43.399606" lon="10.7483068"><ele>328.75</ele><time>2026-04-19T09:10:57.989Z</time></trkpt><trkpt lat="43.3996705" lon="10.7485105"><ele>325.5</ele><time>2026-04-19T09:10:59.005Z</time></trkpt><trkpt lat="43.3997281" lon="10.7486969"><ele>322.25</ele><time>2026-04-19T09:10:59.995Z</time></trkpt><trkpt lat="43.3997901" lon="10.7488469"><ele>319.0</ele><time>2026-04-19T09:11:00.992Z</time></trkpt><trkpt lat="43.3998607" lon="10.7489686"><ele>316.75</ele><time>2026-04-19T09:11:02.004Z</time></trkpt><trkpt lat="43.3999395" lon="10.7490721"><ele>314.5</ele><time>2026-04-19T09:11:02.983Z</time></trkpt><trkpt lat="43.4000365" lon="10.7491298"><ele>312.25</ele><time>2026-04-19T09:11:03.999Z</time></trkpt><trkpt lat="43.4001506" lon="10.7491719"><ele>310.0</ele><time>2026-04-19T09:11:04.998Z</time></trkpt><trkpt lat="43.4002738" lon="10.7492004"><ele>310.0</ele><time>2026-04-19T09:11:05.994Z</time></trkpt><trkpt lat="43.4004094" lon="10.7491895"><ele>310.0</ele><time>2026-04-19T09:11:06.997Z</time></trkpt><trkpt lat="43.4005442" lon="10.7491543"><ele>310.0</ele><time>2026-04-19T09:11:07.996Z</time></trkpt><trkpt lat="43.4006828" lon="10.7490924"><ele>310.0</ele><time>2026-04-19T09:11:08.997Z</time></trkpt><trkpt lat="43.4008177" lon="10.7489894"><ele>309.66666666666663</ele><time>2026-04-19T09:11:10.006Z</time></trkpt><trkpt lat="43.4009205" lon="10.7488432"><ele>309.3333333333333</ele><time>2026-04-19T09:11:11.027Z</time></trkpt><trkpt lat="43.4010086" lon="10.7486649"><ele>309.0</ele><time>2026-04-19T09:11:11.997Z</time></trkpt><trkpt lat="43.4010993" lon="10.7484864"><ele>309.0</ele><time>2026-04-19T09:11:13.004Z</time></trkpt><trkpt lat="43.4011851" lon="10.7483552"><ele>309.0</ele><time>2026-04-19T09:11:14.008Z</time></trkpt><trkpt lat="43.4012888" lon="10.7482444"><ele>309.0</ele><time>2026-04-19T09:11:15.007Z</time></trkpt><trkpt lat="43.4013891" lon="10.7481631"><ele>309.0</ele><time>2026-04-19T09:11:16.019Z</time></trkpt><trkpt lat="43.401494" lon="10.7480959"><ele>306.75</ele><time>2026-04-19T09:11:16.996Z</time></trkpt><trkpt lat="43.4016033" lon="10.7480541"><ele>304.5</ele><time>2026-04-19T09:11:18.002Z</time></trkpt><trkpt lat="43.4017234" lon="10.7480508"><ele>302.25</ele><time>2026-04-19T09:11:19.009Z</time></trkpt><trkpt lat="43.401847" lon="10.748077"><ele>300.0</ele><time>2026-04-19T09:11:19.998Z</time></trkpt><trkpt lat="43.4019656" lon="10.7481245"><ele>300.0</ele><time>2026-04-19T09:11:21.002Z</time></trkpt><trkpt lat="43.4020923" lon="10.7481895"><ele>300.0</ele><time>2026-04-19T09:11:21.999Z</time></trkpt><trkpt lat="43.4022114" lon="10.7482803"><ele>300.0</ele><time>2026-04-19T09:11:22.996Z</time></trkpt><trkpt lat="43.4022866" lon="10.7484102"><ele>300.0</ele><time>2026-04-19T09:11:24.003Z</time></trkpt><trkpt lat="43.402351" lon="10.7485504"><ele>298.75</ele><time>2026-04-19T09:11:24.999Z</time></trkpt><trkpt lat="43.4024203" lon="10.7487094"><ele>297.5</ele><time>2026-04-19T09:11:25.985Z</time></trkpt><trkpt lat="43.4024826" lon="10.7488728"><ele>296.25</ele><time>2026-04-19T09:11:26.999Z</time></trkpt><trkpt lat="43.4025727" lon="10.7490218"><ele>295.0</ele><time>2026-04-19T09:11:28.008Z</time></trkpt><trkpt lat="43.4026758" lon="10.749154"><ele>295.0</ele><time>2026-04-19T09:11:29.003Z</time></trkpt><trkpt lat="43.4027876" lon="10.7492484"><ele>295.0</ele><time>2026-04-19T09:11:29.991Z</time></trkpt><trkpt lat="43.4029" lon="10.7493213"><ele>295.0</ele><time>2026-04-19T09:11:30.994Z</time></trkpt><trkpt lat="43.403021" lon="10.7493747"><ele>295.0</ele><time>2026-04-19T09:11:32.009Z</time></trkpt><trkpt lat="43.4031483" lon="10.7494059"><ele>293.25</ele><time>2026-04-19T09:11:33Z</time></trkpt><trkpt lat="43.4032753" lon="10.7494396"><ele>291.5</ele><time>2026-04-19T09:11:34.007Z</time></trkpt><trkpt lat="43.403385" lon="10.7495274"><ele>289.75</ele><time>2026-04-19T09:11:35.002Z</time></trkpt><trkpt lat="43.4034916" lon="10.7496602"><ele>288.0</ele><time>2026-04-19T09:11:36.009Z</time></trkpt><trkpt lat="43.4035754" lon="10.7498311"><ele>288.0</ele><time>2026-04-19T09:11:36.998Z</time></trkpt><trkpt lat="43.4036644" lon="10.7499911"><ele>288.0</ele><time>2026-04-19T09:11:38.003Z</time></trkpt><trkpt lat="43.4037591" lon="10.7501381"><ele>288.0</ele><time>2026-04-19T09:11:39.006Z</time></trkpt><trkpt lat="43.4038626" lon="10.7502605"><ele>288.0</ele><time>2026-04-19T09:11:40Z</time></trkpt><trkpt lat="43.4039593" lon="10.7503719"><ele>287.5</ele><time>2026-04-19T09:11:40.998Z</time></trkpt><trkpt lat="43.4040208" lon="10.7505092"><ele>287.0</ele><time>2026-04-19T09:11:41.995Z</time></trkpt><trkpt lat="43.4040506" lon="10.7506549"><ele>286.5</ele><time>2026-04-19T09:11:43.003Z</time></trkpt><trkpt lat="43.4040676" lon="10.7508163"><ele>286.0</ele><time>2026-04-19T09:11:43.995Z</time></trkpt><trkpt lat="43.4040671" lon="10.7509824"><ele>284.0</ele><time>2026-04-19T09:11:44.988Z</time></trkpt><trkpt lat="43.4040738" lon="10.7511548"><ele>282.0</ele><time>2026-04-19T09:11:46.009Z</time></trkpt><trkpt lat="43.4040843" lon="10.7513374"><ele>280.0</ele><time>2026-04-19T09:11:46.993Z</time></trkpt><trkpt lat="43.4041006" lon="10.7515269"><ele>278.0</ele><time>2026-04-19T09:11:47.999Z</time></trkpt><trkpt lat="43.4041131" lon="10.7517231"><ele>276.25</ele><time>2026-04-19T09:11:49.011Z</time></trkpt><trkpt lat="43.4041226" lon="10.7519163"><ele>274.5</ele><time>2026-04-19T09:11:49.999Z</time></trkpt><trkpt lat="43.4041331" lon="10.7521113"><ele>272.75</ele><time>2026-04-19T09:11:51.006Z</time></trkpt><trkpt lat="43.4041475" lon="10.7523121"><ele>271.0</ele><time>2026-04-19T09:11:52.005Z</time></trkpt><trkpt lat="43.4041771" lon="10.7525123"><ele>269.25</ele><time>2026-04-19T09:11:53.011Z</time></trkpt><trkpt lat="43.4042298" lon="10.752708"><ele>267.5</ele><time>2026-04-19T09:11:54.001Z</time></trkpt><trkpt lat="43.4042944" lon="10.7528893"><ele>265.75</ele><time>2026-04-19T09:11:54.997Z</time></trkpt><trkpt lat="43.4043679" lon="10.7530511"><ele>264.0</ele><time>2026-04-19T09:11:55.993Z</time></trkpt><trkpt lat="43.4044359" lon="10.7532063"><ele>264.0</ele><time>2026-04-19T09:11:57.001Z</time></trkpt><trkpt lat="43.4045166" lon="10.7533584"><ele>264.0</ele><time>2026-04-19T09:11:57.999Z</time></trkpt><trkpt lat="43.4046084" lon="10.7534923"><ele>264.0</ele><time>2026-04-19T09:11:59.001Z</time></trkpt><trkpt lat="43.4047149" lon="10.7536177"><ele>264.0</ele><time>2026-04-19T09:12:00.027Z</time></trkpt><trkpt lat="43.404819" lon="10.7537282"><ele>262.75</ele><time>2026-04-19T09:12:01.003Z</time></trkpt><trkpt lat="43.4049247" lon="10.7537965"><ele>261.5</ele><time>2026-04-19T09:12:01.994Z</time></trkpt><trkpt lat="43.4050361" lon="10.7538472"><ele>260.25</ele><time>2026-04-19T09:12:02.997Z</time></trkpt><trkpt lat="43.4051587" lon="10.7538651"><ele>259.0</ele><time>2026-04-19T09:12:03.999Z</time></trkpt><trkpt lat="43.4052781" lon="10.7538867"><ele>259.0</ele><time>2026-04-19T09:12:04.997Z</time></trkpt><trkpt lat="43.4053866" lon="10.7539369"><ele>259.0</ele><time>2026-04-19T09:12:06.004Z</time></trkpt><trkpt lat="43.4054983" lon="10.7540153"><ele>259.0</ele><time>2026-04-19T09:12:06.997Z</time></trkpt><trkpt lat="43.4055874" lon="10.7541255"><ele>259.0</ele><time>2026-04-19T09:12:07.997Z</time></trkpt><trkpt lat="43.4056786" lon="10.754254"><ele>257.75</ele><time>2026-04-19T09:12:08.997Z</time></trkpt><trkpt lat="43.4057394" lon="10.7544305"><ele>256.5</ele><time>2026-04-19T09:12:09.989Z</time></trkpt><trkpt lat="43.405779" lon="10.7545876"><ele>255.25</ele><time>2026-04-19T09:12:10.993Z</time></trkpt><trkpt lat="43.4058219" lon="10.7547328"><ele>254.0</ele><time>2026-04-19T09:12:12.001Z</time></trkpt><trkpt lat="43.4058643" lon="10.754862"><ele>254.0</ele><time>2026-04-19T09:12:12.998Z</time></trkpt><trkpt lat="43.4059117" lon="10.7549753"><ele>253.99999999999997</ele><time>2026-04-19T09:12:14.003Z</time></trkpt><trkpt lat="43.4059637" lon="10.7550682"><ele>253.99999999999997</ele><time>2026-04-19T09:12:14.998Z</time></trkpt><trkpt lat="43.4060307" lon="10.7551542"><ele>254.0</ele><time>2026-04-19T09:12:16.007Z</time></trkpt><trkpt lat="43.4061106" lon="10.7552383"><ele>254.0</ele><time>2026-04-19T09:12:16.999Z</time></trkpt><trkpt lat="43.4061943" lon="10.7553097"><ele>252.39999999999998</ele><time>2026-04-19T09:12:18Z</time></trkpt><trkpt lat="43.4062647" lon="10.7553638"><ele>250.79999999999998</ele><time>2026-04-19T09:12:18.999Z</time></trkpt><trkpt lat="43.4063439" lon="10.75545"><ele>249.20000000000002</ele><time>2026-04-19T09:12:21.007Z</time></trkpt><trkpt lat="43.406381" lon="10.7555567"><ele>247.60000000000002</ele><time>2026-04-19T09:12:23.991Z</time></trkpt><trkpt lat="43.4064431" lon="10.7555711"><ele>246.0</ele><time>2026-04-19T09:12:25.991Z</time></trkpt><trkpt lat="43.4065815" lon="10.7554981"><ele>246.0</ele><time>2026-04-19T09:12:28.005Z</time></trkpt><trkpt lat="43.406657" lon="10.7554582"><ele>246.00000000000003</ele><time>2026-04-19T09:12:29Z</time></trkpt><trkpt lat="43.4067442" lon="10.7554152"><ele>246.00000000000003</ele><time>2026-04-19T09:12:29.986Z</time></trkpt><trkpt lat="43.4068346" lon="10.7553616"><ele>246.0</ele><time>2026-04-19T09:12:30.998Z</time></trkpt><trkpt lat="43.4069268" lon="10.7553036"><ele>246.0</ele><time>2026-04-19T09:12:31.989Z</time></trkpt><trkpt lat="43.4070294" lon="10.7552357"><ele>249.5</ele><time>2026-04-19T09:12:32.998Z</time></trkpt><trkpt lat="43.4071342" lon="10.7551623"><ele>253.0</ele><time>2026-04-19T09:12:33.993Z</time></trkpt><trkpt lat="43.4072415" lon="10.7550882"><ele>256.5</ele><time>2026-04-19T09:12:35.006Z</time></trkpt><trkpt lat="43.4073542" lon="10.7550224"><ele>260.0</ele><time>2026-04-19T09:12:35.999Z</time></trkpt><trkpt lat="43.4074808" lon="10.7549513"><ele>260.0</ele><time>2026-04-19T09:12:36.998Z</time></trkpt><trkpt lat="43.4076062" lon="10.7548781"><ele>260.0</ele><time>2026-04-19T09:12:38.003Z</time></trkpt><trkpt lat="43.4077305" lon="10.7548034"><ele>260.0</ele><time>2026-04-19T09:12:38.998Z</time></trkpt><trkpt lat="43.407859" lon="10.7547283"><ele>260.0</ele><time>2026-04-19T09:12:39.999Z</time></trkpt><trkpt lat="43.4079898" lon="10.7546492"><ele>261.75</ele><time>2026-04-19T09:12:40.983Z</time></trkpt><trkpt lat="43.408117" lon="10.7545811"><ele>263.5</ele><time>2026-04-19T09:12:42.031Z</time></trkpt><trkpt lat="43.4082444" lon="10.7545031"><ele>265.25</ele><time>2026-04-19T09:12:43.008Z</time></trkpt><trkpt lat="43.4083768" lon="10.7544262"><ele>267.0</ele><time>2026-04-19T09:12:44.001Z</time></trkpt><trkpt lat="43.4084991" lon="10.7543429"><ele>267.0</ele><time>2026-04-19T09:12:45.007Z</time></trkpt><trkpt lat="43.4086235" lon="10.7542707"><ele>267.0</ele><time>2026-04-19T09:12:45.997Z</time></trkpt><trkpt lat="43.4087539" lon="10.7541906"><ele>267.0</ele><time>2026-04-19T09:12:46.995Z</time></trkpt><trkpt lat="43.4088789" lon="10.7541162"><ele>267.0</ele><time>2026-04-19T09:12:47.991Z</time></trkpt><trkpt lat="43.4090035" lon="10.754073"><ele>264.8</ele><time>2026-04-19T09:12:49.002Z</time></trkpt><trkpt lat="43.4091278" lon="10.7540585"><ele>262.6</ele><time>2026-04-19T09:12:49.996Z</time></trkpt><trkpt lat="43.409248" lon="10.7540502"><ele>260.40000000000003</ele><time>2026-04-19T09:12:50.995Z</time></trkpt><trkpt lat="43.4093519" lon="10.7540461"><ele>258.2</ele><time>2026-04-19T09:12:51.989Z</time></trkpt><trkpt lat="43.4094514" lon="10.7540273"><ele>256.0</ele><time>2026-04-19T09:12:52.987Z</time></trkpt><trkpt lat="43.4095718" lon="10.7540046"><ele>254.25</ele><time>2026-04-19T09:12:54Z</time></trkpt><trkpt lat="43.4096915" lon="10.7539711"><ele>252.5</ele><time>2026-04-19T09:12:55.003Z</time></trkpt><trkpt lat="43.4098059" lon="10.7539174"><ele>250.75</ele><time>2026-04-19T09:12:55.996Z</time></trkpt><trkpt lat="43.4099072" lon="10.7538541"><ele>249.0</ele><time>2026-04-19T09:12:56.998Z</time></trkpt><trkpt lat="43.410001" lon="10.753767"><ele>249.0</ele><time>2026-04-19T09:12:58.026Z</time></trkpt><trkpt lat="43.4100922" lon="10.7536757"><ele>248.99999999999997</ele><time>2026-04-19T09:12:58.994Z</time></trkpt><trkpt lat="43.4101826" lon="10.7535919"><ele>248.99999999999997</ele><time>2026-04-19T09:12:59.995Z</time></trkpt><trkpt lat="43.4102748" lon="10.753511"><ele>249.0</ele><time>2026-04-19T09:13:00.986Z</time></trkpt><trkpt lat="43.4103826" lon="10.7534617"><ele>249.0</ele><time>2026-04-19T09:13:01.999Z</time></trkpt><trkpt lat="43.4105152" lon="10.7534419"><ele>248.0</ele><time>2026-04-19T09:13:03Z</time></trkpt><trkpt lat="43.4106519" lon="10.7534465"><ele>247.0</ele><time>2026-04-19T09:13:03.992Z</time></trkpt><trkpt lat="43.4107991" lon="10.7534573"><ele>246.0</ele><time>2026-04-19T09:13:05.003Z</time></trkpt><trkpt lat="43.4109322" lon="10.7534718"><ele>245.0</ele><time>2026-04-19T09:13:05.999Z</time></trkpt><trkpt lat="43.4110616" lon="10.753475"><ele>245.0</ele><time>2026-04-19T09:13:06.998Z</time></trkpt><trkpt lat="43.4111943" lon="10.7534533"><ele>245.0</ele><time>2026-04-19T09:13:07.996Z</time></trkpt><trkpt lat="43.4113391" lon="10.7533917"><ele>245.0</ele><time>2026-04-19T09:13:09.005Z</time></trkpt><trkpt lat="43.411484" lon="10.7533261"><ele>245.0</ele><time>2026-04-19T09:13:10.006Z</time></trkpt><trkpt lat="43.4116406" lon="10.7532768"><ele>243.33333333333334</ele><time>2026-04-19T09:13:10.997Z</time></trkpt><trkpt lat="43.4118003" lon="10.753255"><ele>241.66666666666669</ele><time>2026-04-19T09:13:11.991Z</time></trkpt><trkpt lat="43.4119593" lon="10.7532599"><ele>240.0</ele><time>2026-04-19T09:13:12.998Z</time></trkpt><trkpt lat="43.4121251" lon="10.7532826"><ele>238.66666666666669</ele><time>2026-04-19T09:13:13.999Z</time></trkpt><trkpt lat="43.4122966" lon="10.7533059"><ele>237.33333333333334</ele><time>2026-04-19T09:13:15.004Z</time></trkpt><trkpt lat="43.412474" lon="10.7533267"><ele>236.0</ele><time>2026-04-19T09:13:16.026Z</time></trkpt><trkpt lat="43.4126535" lon="10.7533421"><ele>236.0</ele><time>2026-04-19T09:13:16.993Z</time></trkpt><trkpt lat="43.412834" lon="10.7533509"><ele>236.0</ele><time>2026-04-19T09:13:17.994Z</time></trkpt><trkpt lat="43.4130039" lon="10.7533577"><ele>236.0</ele><time>2026-04-19T09:13:18.991Z</time></trkpt><trkpt lat="43.4131654" lon="10.7533651"><ele>235.75</ele><time>2026-04-19T09:13:20.002Z</time></trkpt><trkpt lat="43.4133054" lon="10.7533713"><ele>235.5</ele><time>2026-04-19T09:13:20.996Z</time></trkpt><trkpt lat="43.4134341" lon="10.7533796"><ele>235.25</ele><time>2026-04-19T09:13:22.004Z</time></trkpt><trkpt lat="43.4135466" lon="10.7533884"><ele>235.0</ele><time>2026-04-19T09:13:23Z</time></trkpt><trkpt lat="43.4136355" lon="10.7533981"><ele>234.99999999999997</ele><time>2026-04-19T09:13:24Z</time></trkpt><trkpt lat="43.4137116" lon="10.7534016"><ele>235.0</ele><time>2026-04-19T09:13:24.992Z</time></trkpt><trkpt lat="43.4137805" lon="10.7533978"><ele>235.0</ele><time>2026-04-19T09:13:25.992Z</time></trkpt><trkpt lat="43.413848" lon="10.7533872"><ele>235.0</ele><time>2026-04-19T09:13:26.993Z</time></trkpt><trkpt lat="43.4139162" lon="10.7533674"><ele>234.99999999999997</ele><time>2026-04-19T09:13:27.997Z</time></trkpt><trkpt lat="43.413978" lon="10.7533317"><ele>235.0</ele><time>2026-04-19T09:13:29.005Z</time></trkpt><trkpt lat="43.4140862" lon="10.7532506"><ele>234.66666666666666</ele><time>2026-04-19T09:13:31.009Z</time></trkpt><trkpt lat="43.414144" lon="10.7532126"><ele>234.33333333333331</ele><time>2026-04-19T09:13:31.997Z</time></trkpt><trkpt lat="43.4142166" lon="10.7531854"><ele>234.0</ele><time>2026-04-19T09:13:33.003Z</time></trkpt><trkpt lat="43.414296" lon="10.753184"><ele>233.66666666666669</ele><time>2026-04-19T09:13:33.995Z</time></trkpt><trkpt lat="43.4143843" lon="10.7531935"><ele>233.33333333333334</ele><time>2026-04-19T09:13:34.996Z</time></trkpt><trkpt lat="43.4144735" lon="10.7532086"><ele>233.0</ele><time>2026-04-19T09:13:36Z</time></trkpt><trkpt lat="43.4145717" lon="10.7532257"><ele>231.0</ele><time>2026-04-19T09:13:37.009Z</time></trkpt><trkpt lat="43.4146736" lon="10.7532535"><ele>229.0</ele><time>2026-04-19T09:13:38.024Z</time></trkpt><trkpt lat="43.4147776" lon="10.7532664"><ele>227.0</ele><time>2026-04-19T09:13:38.989Z</time></trkpt><trkpt lat="43.4149022" lon="10.7532681"><ele>225.0</ele><time>2026-04-19T09:13:39.993Z</time></trkpt><trkpt lat="43.4150332" lon="10.753261"><ele>225.0</ele><time>2026-04-19T09:13:41.012Z</time></trkpt><trkpt lat="43.4151673" lon="10.7532585"><ele>225.0</ele><time>2026-04-19T09:13:42.001Z</time></trkpt><trkpt lat="43.4152954" lon="10.7532624"><ele>225.0</ele><time>2026-04-19T09:13:43.024Z</time></trkpt><trkpt lat="43.4154196" lon="10.7532894"><ele>225.0</ele><time>2026-04-19T09:13:44.009Z</time></trkpt><trkpt lat="43.4155308" lon="10.7533516"><ele>223.25</ele><time>2026-04-19T09:13:44.999Z</time></trkpt><trkpt lat="43.4156314" lon="10.7534405"><ele>221.5</ele><time>2026-04-19T09:13:45.999Z</time></trkpt><trkpt lat="43.4157359" lon="10.7535595"><ele>219.75</ele><time>2026-04-19T09:13:46.993Z</time></trkpt><trkpt lat="43.4158418" lon="10.7536959"><ele>218.0</ele><time>2026-04-19T09:13:47.998Z</time></trkpt><trkpt lat="43.4159568" lon="10.7538329"><ele>216.66666666666669</ele><time>2026-04-19T09:13:48.986Z</time></trkpt><trkpt lat="43.416078" lon="10.7539699"><ele>215.33333333333331</ele><time>2026-04-19T09:13:50.034Z</time></trkpt><trkpt lat="43.4162045" lon="10.7540895"><ele>214.0</ele><time>2026-04-19T09:13:51.001Z</time></trkpt><trkpt lat="43.4163253" lon="10.7541986"><ele>213.0</ele><time>2026-04-19T09:13:51.999Z</time></trkpt><trkpt lat="43.4164412" lon="10.7543055"><ele>212.0</ele><time>2026-04-19T09:13:53.002Z</time></trkpt><trkpt lat="43.4165518" lon="10.754415"><ele>211.0</ele><time>2026-04-19T09:13:53.999Z</time></trkpt><trkpt lat="43.416658" lon="10.7545221"><ele>210.0</ele><time>2026-04-19T09:13:55.001Z</time></trkpt><trkpt lat="43.4167538" lon="10.7546273"><ele>208.4</ele><time>2026-04-19T09:13:55.991Z</time></trkpt><trkpt lat="43.4168451" lon="10.754729"><ele>206.8</ele><time>2026-04-19T09:13:56.995Z</time></trkpt><trkpt lat="43.4169236" lon="10.7548201"><ele>205.2</ele><time>2026-04-19T09:13:58.009Z</time></trkpt><trkpt lat="43.4169922" lon="10.7549022"><ele>203.6</ele><time>2026-04-19T09:13:59.004Z</time></trkpt><trkpt lat="43.4170559" lon="10.7549944"><ele>202.0</ele><time>2026-04-19T09:14:00.002Z</time></trkpt><trkpt lat="43.4171035" lon="10.7550822"><ele>202.0</ele><time>2026-04-19T09:14:00.999Z</time></trkpt><trkpt lat="43.4171261" lon="10.7551639"><ele>202.0</ele><time>2026-04-19T09:14:02.001Z</time></trkpt><trkpt lat="43.4170859" lon="10.7553246"><ele>202.0</ele><time>2026-04-19T09:14:04.008Z</time></trkpt><trkpt lat="43.417024" lon="10.7554244"><ele>202.0</ele><time>2026-04-19T09:14:04.99Z</time></trkpt><trkpt lat="43.4169405" lon="10.7555368"><ele>202.0</ele><time>2026-04-19T09:14:05.999Z</time></trkpt><trkpt lat="43.4168587" lon="10.7556409"><ele>199.99999999999997</ele><time>2026-04-19T09:14:06.994Z</time></trkpt><trkpt lat="43.4167912" lon="10.7557376"><ele>198.0</ele><time>2026-04-19T09:14:07.998Z</time></trkpt><trkpt lat="43.4167372" lon="10.7558233"><ele>196.0</ele><time>2026-04-19T09:14:09.003Z</time></trkpt><trkpt lat="43.4167011" lon="10.7559019"><ele>194.0</ele><time>2026-04-19T09:14:10.003Z</time></trkpt><trkpt lat="43.4166963" lon="10.7560683"><ele>192.0</ele><time>2026-04-19T09:14:12.004Z</time></trkpt><trkpt lat="43.4167477" lon="10.7561389"><ele>190.0</ele><time>2026-04-19T09:14:12.995Z</time></trkpt><trkpt lat="43.4168255" lon="10.7562088"><ele>188.4</ele><time>2026-04-19T09:14:14.031Z</time></trkpt><trkpt lat="43.4169175" lon="10.7562939"><ele>186.8</ele><time>2026-04-19T09:14:14.995Z</time></trkpt><trkpt lat="43.4169995" lon="10.7563866"><ele>185.2</ele><time>2026-04-19T09:14:15.994Z</time></trkpt><trkpt lat="43.4170701" lon="10.7564801"><ele>183.6</ele><time>2026-04-19T09:14:16.997Z</time></trkpt><trkpt lat="43.4171328" lon="10.7565781"><ele>182.0</ele><time>2026-04-19T09:14:17.995Z</time></trkpt><trkpt lat="43.41719" lon="10.7566934"><ele>181.75</ele><time>2026-04-19T09:14:19.003Z</time></trkpt><trkpt lat="43.4172233" lon="10.7568242"><ele>181.5</ele><time>2026-04-19T09:14:19.991Z</time></trkpt><trkpt lat="43.4172373" lon="10.7569843"><ele>181.25</ele><time>2026-04-19T09:14:20.996Z</time></trkpt><trkpt lat="43.4172462" lon="10.7571624"><ele>181.0</ele><time>2026-04-19T09:14:21.998Z</time></trkpt><trkpt lat="43.417256" lon="10.7573407"><ele>180.25</ele><time>2026-04-19T09:14:23.004Z</time></trkpt><trkpt lat="43.4172602" lon="10.7575334"><ele>179.5</ele><time>2026-04-19T09:14:23.998Z</time></trkpt><trkpt lat="43.4172766" lon="10.7577186"><ele>178.75</ele><time>2026-04-19T09:14:25.003Z</time></trkpt><trkpt lat="43.417289" lon="10.7578842"><ele>178.0</ele><time>2026-04-19T09:14:25.998Z</time></trkpt><trkpt lat="43.4172792" lon="10.7580433"><ele>178.0</ele><time>2026-04-19T09:14:27.007Z</time></trkpt><trkpt lat="43.4172552" lon="10.7581891"><ele>178.0</ele><time>2026-04-19T09:14:27.99Z</time></trkpt><trkpt lat="43.417198" lon="10.7583314"><ele>178.0</ele><time>2026-04-19T09:14:29.017Z</time></trkpt><trkpt lat="43.4171214" lon="10.758455"><ele>178.0</ele><time>2026-04-19T09:14:29.989Z</time></trkpt><trkpt lat="43.4170535" lon="10.7585845"><ele>177.25</ele><time>2026-04-19T09:14:30.998Z</time></trkpt><trkpt lat="43.4169944" lon="10.7587393"><ele>176.5</ele><time>2026-04-19T09:14:31.994Z</time></trkpt><trkpt lat="43.4169445" lon="10.7589199"><ele>175.75</ele><time>2026-04-19T09:14:32.996Z</time></trkpt><trkpt lat="43.4169166" lon="10.7591083"><ele>175.0</ele><time>2026-04-19T09:14:34.012Z</time></trkpt><trkpt lat="43.4168957" lon="10.7593004"><ele>174.0</ele><time>2026-04-19T09:14:35Z</time></trkpt><trkpt lat="43.4168695" lon="10.7595226"><ele>173.0</ele><time>2026-04-19T09:14:36.033Z</time></trkpt><trkpt lat="43.4168473" lon="10.7597258"><ele>172.0</ele><time>2026-04-19T09:14:37Z</time></trkpt><trkpt lat="43.4168129" lon="10.7599255"><ele>172.0</ele><time>2026-04-19T09:14:38Z</time></trkpt><trkpt lat="43.4167812" lon="10.7601342"><ele>172.0</ele><time>2026-04-19T09:14:38.994Z</time></trkpt><trkpt lat="43.4167507" lon="10.7603432"><ele>172.0</ele><time>2026-04-19T09:14:39.992Z</time></trkpt><trkpt lat="43.4167133" lon="10.7605611"><ele>171.0</ele><time>2026-04-19T09:14:40.994Z</time></trkpt><trkpt lat="43.4166632" lon="10.7607787"><ele>170.0</ele><time>2026-04-19T09:14:41.996Z</time></trkpt><trkpt lat="43.4166025" lon="10.760996"><ele>169.0</ele><time>2026-04-19T09:14:43.024Z</time></trkpt><trkpt lat="43.4165336" lon="10.7612045"><ele>167.66666666666669</ele><time>2026-04-19T09:14:44.001Z</time></trkpt><trkpt lat="43.4164623" lon="10.7614011"><ele>166.33333333333334</ele><time>2026-04-19T09:14:44.998Z</time></trkpt><trkpt lat="43.4163942" lon="10.7616039"><ele>165.0</ele><time>2026-04-19T09:14:46.001Z</time></trkpt><trkpt lat="43.4163258" lon="10.7618256"><ele>166.66666666666666</ele><time>2026-04-19T09:14:46.999Z</time></trkpt><trkpt lat="43.4162619" lon="10.7620606"><ele>168.33333333333331</ele><time>2026-04-19T09:14:47.998Z</time></trkpt><trkpt lat="43.4162018" lon="10.7622954"><ele>170.0</ele><time>2026-04-19T09:14:48.995Z</time></trkpt><trkpt lat="43.4161418" lon="10.7625451"><ele>170.66666666666666</ele><time>2026-04-19T09:14:49.995Z</time></trkpt><trkpt lat="43.416085" lon="10.7627818"><ele>171.33333333333334</ele><time>2026-04-19T09:14:50.998Z</time></trkpt><trkpt lat="43.416032" lon="10.7630217"><ele>172.0</ele><time>2026-04-19T09:14:52Z</time></trkpt><trkpt lat="43.4159807" lon="10.7632522"><ele>172.0</ele><time>2026-04-19T09:14:52.991Z</time></trkpt><trkpt lat="43.4159303" lon="10.763479"><ele>172.0</ele><time>2026-04-19T09:14:53.992Z</time></trkpt><trkpt lat="43.4158783" lon="10.763706"><ele>172.0</ele><time>2026-04-19T09:14:55.005Z</time></trkpt><trkpt lat="43.4158226" lon="10.763931"><ele>172.0</ele><time>2026-04-19T09:14:55.996Z</time></trkpt><trkpt lat="43.4157597" lon="10.7641484"><ele>172.0</ele><time>2026-04-19T09:14:56.998Z</time></trkpt><trkpt lat="43.4156918" lon="10.764358"><ele>172.0</ele><time>2026-04-19T09:14:58.003Z</time></trkpt><trkpt lat="43.4156179" lon="10.7645437"><ele>171.75</ele><time>2026-04-19T09:14:58.999Z</time></trkpt><trkpt lat="43.4155476" lon="10.7647137"><ele>171.5</ele><time>2026-04-19T09:14:59.999Z</time></trkpt><trkpt lat="43.4154798" lon="10.7648829"><ele>171.25</ele><time>2026-04-19T09:15:00.99Z</time></trkpt><trkpt lat="43.4154214" lon="10.7650505"><ele>171.0</ele><time>2026-04-19T09:15:02.005Z</time></trkpt><trkpt lat="43.4153603" lon="10.7652147"><ele>168.25</ele><time>2026-04-19T09:15:02.998Z</time></trkpt><trkpt lat="43.4152986" lon="10.7653892"><ele>165.5</ele><time>2026-04-19T09:15:04.006Z</time></trkpt><trkpt lat="43.4152436" lon="10.7655778"><ele>162.75</ele><time>2026-04-19T09:15:05.004Z</time></trkpt><trkpt lat="43.415191" lon="10.7657826"><ele>160.0</ele><time>2026-04-19T09:15:06Z</time></trkpt><trkpt lat="43.4151381" lon="10.765993"><ele>159.5</ele><time>2026-04-19T09:15:06.995Z</time></trkpt><trkpt lat="43.4150839" lon="10.7662034"><ele>159.0</ele><time>2026-04-19T09:15:07.995Z</time></trkpt><trkpt lat="43.4150265" lon="10.7663915"><ele>158.5</ele><time>2026-04-19T09:15:08.997Z</time></trkpt><trkpt lat="43.4149738" lon="10.7665664"><ele>158.0</ele><time>2026-04-19T09:15:10.008Z</time></trkpt><trkpt lat="43.4149238" lon="10.7667318"><ele>156.5</ele><time>2026-04-19T09:15:10.996Z</time></trkpt><trkpt lat="43.414881" lon="10.7668891"><ele>155.0</ele><time>2026-04-19T09:15:12.003Z</time></trkpt><trkpt lat="43.4148416" lon="10.7670435"><ele>153.5</ele><time>2026-04-19T09:15:12.994Z</time></trkpt><trkpt lat="43.414803" lon="10.7672005"><ele>152.0</ele><time>2026-04-19T09:15:13.999Z</time></trkpt><trkpt lat="43.4147704" lon="10.7673546"><ele>152.0</ele><time>2026-04-19T09:15:14.997Z</time></trkpt><trkpt lat="43.4147584" lon="10.7675074"><ele>152.0</ele><time>2026-04-19T09:15:15.989Z</time></trkpt><trkpt lat="43.4147603" lon="10.7676781"><ele>152.0</ele><time>2026-04-19T09:15:16.995Z</time></trkpt><trkpt lat="43.4147832" lon="10.7678234"><ele>152.0</ele><time>2026-04-19T09:15:17.996Z</time></trkpt><trkpt lat="43.4148377" lon="10.7679612"><ele>150.0</ele><time>2026-04-19T09:15:18.995Z</time></trkpt><trkpt lat="43.4149181" lon="10.768128"><ele>148.0</ele><time>2026-04-19T09:15:19.993Z</time></trkpt><trkpt lat="43.4149995" lon="10.7683039"><ele>146.0</ele><time>2026-04-19T09:15:21.002Z</time></trkpt><trkpt lat="43.4150743" lon="10.768479"><ele>144.0</ele><time>2026-04-19T09:15:21.999Z</time></trkpt><trkpt lat="43.4151452" lon="10.7686471"><ele>141.66666666666666</ele><time>2026-04-19T09:15:23.005Z</time></trkpt><trkpt lat="43.4152287" lon="10.7688192"><ele>139.33333333333331</ele><time>2026-04-19T09:15:24.006Z</time></trkpt><trkpt lat="43.4153306" lon="10.7689886"><ele>137.0</ele><time>2026-04-19T09:15:24.992Z</time></trkpt><trkpt lat="43.4154409" lon="10.7691596"><ele>136.0</ele><time>2026-04-19T09:15:25.996Z</time></trkpt><trkpt lat="43.4155465" lon="10.7693383"><ele>135.0</ele><time>2026-04-19T09:15:27.006Z</time></trkpt><trkpt lat="43.4156425" lon="10.7695147"><ele>134.0</ele><time>2026-04-19T09:15:28.004Z</time></trkpt><trkpt lat="43.4157258" lon="10.7696817"><ele>134.0</ele><time>2026-04-19T09:15:28.987Z</time></trkpt><trkpt lat="43.4158089" lon="10.7698283"><ele>134.0</ele><time>2026-04-19T09:15:30.001Z</time></trkpt><trkpt lat="43.4159029" lon="10.7699614"><ele>134.0</ele><time>2026-04-19T09:15:31.004Z</time></trkpt><trkpt lat="43.4160253" lon="10.7700754"><ele>134.0</ele><time>2026-04-19T09:15:32.001Z</time></trkpt><trkpt lat="43.4161613" lon="10.7701704"><ele>134.0</ele><time>2026-04-19T09:15:32.999Z</time></trkpt><trkpt lat="43.4162891" lon="10.7702526"><ele>134.0</ele><time>2026-04-19T09:15:33.998Z</time></trkpt><trkpt lat="43.4163769" lon="10.7703481"><ele>134.0</ele><time>2026-04-19T09:15:34.999Z</time></trkpt><trkpt lat="43.4164622" lon="10.770467"><ele>134.0</ele><time>2026-04-19T09:15:35.999Z</time></trkpt><trkpt lat="43.4165179" lon="10.7706206"><ele>134.0</ele><time>2026-04-19T09:15:36.994Z</time></trkpt><trkpt lat="43.4165652" lon="10.7708061"><ele>134.0</ele><time>2026-04-19T09:15:37.993Z</time></trkpt><trkpt lat="43.4166093" lon="10.7709935"><ele>134.0</ele><time>2026-04-19T09:15:39.002Z</time></trkpt><trkpt lat="43.4166399" lon="10.7711762"><ele>134.0</ele><time>2026-04-19T09:15:39.993Z</time></trkpt><trkpt lat="43.4166605" lon="10.7713513"><ele>134.0</ele><time>2026-04-19T09:15:41.004Z</time></trkpt><trkpt lat="43.4166577" lon="10.7715141"><ele>134.0</ele><time>2026-04-19T09:15:42.006Z</time></trkpt><trkpt lat="43.4166185" lon="10.771702"><ele>134.0</ele><time>2026-04-19T09:15:42.996Z</time></trkpt><trkpt lat="43.4165714" lon="10.7719068"><ele>134.0</ele><time>2026-04-19T09:15:44Z</time></trkpt><trkpt lat="43.416528" lon="10.7721077"><ele>134.0</ele><time>2026-04-19T09:15:45.002Z</time></trkpt><trkpt lat="43.4165144" lon="10.7723082"><ele>134.0</ele><time>2026-04-19T09:15:45.997Z</time></trkpt><trkpt lat="43.4165158" lon="10.7724904"><ele>134.0</ele><time>2026-04-19T09:15:46.999Z</time></trkpt><trkpt lat="43.416522" lon="10.7726406"><ele>134.0</ele><time>2026-04-19T09:15:48.008Z</time></trkpt><trkpt lat="43.4165331" lon="10.772752"><ele>133.8</ele><time>2026-04-19T09:15:49Z</time></trkpt><trkpt lat="43.4165332" lon="10.7728441"><ele>133.60000000000002</ele><time>2026-04-19T09:15:50.002Z</time></trkpt><trkpt lat="43.4165371" lon="10.7729586"><ele>133.4</ele><time>2026-04-19T09:15:52.011Z</time></trkpt><trkpt lat="43.4164678" lon="10.7731151"><ele>133.20000000000002</ele><time>2026-04-19T09:15:53.991Z</time></trkpt><trkpt lat="43.4164075" lon="10.7732022"><ele>133.0</ele><time>2026-04-19T09:15:55.008Z</time></trkpt><trkpt lat="43.4163465" lon="10.7733179"><ele>132.75</ele><time>2026-04-19T09:15:55.993Z</time></trkpt><trkpt lat="43.4162676" lon="10.7734494"><ele>132.5</ele><time>2026-04-19T09:15:57.002Z</time></trkpt><trkpt lat="43.4161604" lon="10.7735694"><ele>132.25</ele><time>2026-04-19T09:15:58Z</time></trkpt><trkpt lat="43.4160156" lon="10.7736942"><ele>132.0</ele><time>2026-04-19T09:15:59.008Z</time></trkpt><trkpt lat="43.4158548" lon="10.7737643"><ele>132.0</ele><time>2026-04-19T09:16:00.002Z</time></trkpt><trkpt lat="43.4156842" lon="10.7738268"><ele>132.0</ele><time>2026-04-19T09:16:00.994Z</time></trkpt><trkpt lat="43.4154964" lon="10.7738992"><ele>132.0</ele><time>2026-04-19T09:16:02Z</time></trkpt><trkpt lat="43.4153135" lon="10.773985"><ele>133.33333333333334</ele><time>2026-04-19T09:16:03.004Z</time></trkpt><trkpt lat="43.4151236" lon="10.7740717"><ele>134.66666666666669</ele><time>2026-04-19T09:16:04Z</time></trkpt><trkpt lat="43.4149451" lon="10.7741542"><ele>136.0</ele><time>2026-04-19T09:16:04.99Z</time></trkpt><trkpt lat="43.4147802" lon="10.7742159"><ele>136.33333333333334</ele><time>2026-04-19T09:16:06.005Z</time></trkpt><trkpt lat="43.4146289" lon="10.7742348"><ele>136.66666666666666</ele><time>2026-04-19T09:16:06.987Z</time></trkpt><trkpt lat="43.4144843" lon="10.7742026"><ele>137.0</ele><time>2026-04-19T09:16:08.045Z</time></trkpt><trkpt lat="43.4143296" lon="10.7741195"><ele>137.0</ele><time>2026-04-19T09:16:09.015Z</time></trkpt><trkpt lat="43.4141728" lon="10.7740077"><ele>137.0</ele><time>2026-04-19T09:16:10.009Z</time></trkpt><trkpt lat="43.4140094" lon="10.7738949"><ele>137.0</ele><time>2026-04-19T09:16:10.997Z</time></trkpt><trkpt lat="43.413845" lon="10.7737721"><ele>136.66666666666666</ele><time>2026-04-19T09:16:11.993Z</time></trkpt><trkpt lat="43.4136744" lon="10.7736507"><ele>136.33333333333334</ele><time>2026-04-19T09:16:12.99Z</time></trkpt><trkpt lat="43.4135033" lon="10.7735294"><ele>136.0</ele><time>2026-04-19T09:16:14.007Z</time></trkpt><trkpt lat="43.4133359" lon="10.7734195"><ele>137.0</ele><time>2026-04-19T09:16:14.994Z</time></trkpt><trkpt lat="43.4131746" lon="10.7733192"><ele>138.0</ele><time>2026-04-19T09:16:16.015Z</time></trkpt><trkpt lat="43.41302" lon="10.7732447"><ele>139.0</ele><time>2026-04-19T09:16:16.993Z</time></trkpt><trkpt lat="43.4128774" lon="10.7731793"><ele>139.0</ele><time>2026-04-19T09:16:17.989Z</time></trkpt><trkpt lat="43.4127368" lon="10.7731344"><ele>139.0</ele><time>2026-04-19T09:16:18.999Z</time></trkpt><trkpt lat="43.4126105" lon="10.7731393"><ele>139.0</ele><time>2026-04-19T09:16:19.994Z</time></trkpt><trkpt lat="43.412485" lon="10.7731953"><ele>139.0</ele><time>2026-04-19T09:16:21.013Z</time></trkpt><trkpt lat="43.4123647" lon="10.7733024"><ele>139.0</ele><time>2026-04-19T09:16:22.002Z</time></trkpt><trkpt lat="43.4122534" lon="10.7734225"><ele>139.0</ele><time>2026-04-19T09:16:23.01Z</time></trkpt><trkpt lat="43.4121169" lon="10.7735366"><ele>139.0</ele><time>2026-04-19T09:16:24.009Z</time></trkpt><trkpt lat="43.41196" lon="10.7736312"><ele>138.33333333333334</ele><time>2026-04-19T09:16:24.995Z</time></trkpt><trkpt lat="43.41181" lon="10.7736946"><ele>137.66666666666666</ele><time>2026-04-19T09:16:25.996Z</time></trkpt><trkpt lat="43.4116515" lon="10.7737206"><ele>137.0</ele><time>2026-04-19T09:16:26.988Z</time></trkpt><trkpt lat="43.4114769" lon="10.7737186"><ele>137.66666666666666</ele><time>2026-04-19T09:16:27.996Z</time></trkpt><trkpt lat="43.4112941" lon="10.7736733"><ele>138.33333333333334</ele><time>2026-04-19T09:16:29.004Z</time></trkpt><trkpt lat="43.4111049" lon="10.7736361"><ele>139.0</ele><time>2026-04-19T09:16:30.003Z</time></trkpt><trkpt lat="43.4109114" lon="10.7736223"><ele>139.0</ele><time>2026-04-19T09:16:30.989Z</time></trkpt><trkpt lat="43.4107154" lon="10.7736233"><ele>139.0</ele><time>2026-04-19T09:16:32.016Z</time></trkpt><trkpt lat="43.4105402" lon="10.7736022"><ele>139.0</ele><time>2026-04-19T09:16:33.002Z</time></trkpt><trkpt lat="43.4103846" lon="10.7735622"><ele>139.0</ele><time>2026-04-19T09:16:34.013Z</time></trkpt><trkpt lat="43.4102445" lon="10.7735115"><ele>139.0</ele><time>2026-04-19T09:16:35.003Z</time></trkpt><trkpt lat="43.4101164" lon="10.7734671"><ele>139.0</ele><time>2026-04-19T09:16:35.995Z</time></trkpt><trkpt lat="43.4099911" lon="10.7734781"><ele>139.0</ele><time>2026-04-19T09:16:36.999Z</time></trkpt><trkpt lat="43.4098816" lon="10.7735403"><ele>139.0</ele><time>2026-04-19T09:16:37.998Z</time></trkpt><trkpt lat="43.4097679" lon="10.7736595"><ele>139.0</ele><time>2026-04-19T09:16:39Z</time></trkpt><trkpt lat="43.4096853" lon="10.7738094"><ele>139.0</ele><time>2026-04-19T09:16:40.001Z</time></trkpt><trkpt lat="43.4096431" lon="10.7739725"><ele>139.0</ele><time>2026-04-19T09:16:40.997Z</time></trkpt><trkpt lat="43.4096168" lon="10.774151"><ele>140.66666666666669</ele><time>2026-04-19T09:16:42.03Z</time></trkpt><trkpt lat="43.4095613" lon="10.7743282"><ele>142.33333333333334</ele><time>2026-04-19T09:16:43.001Z</time></trkpt><trkpt lat="43.4094758" lon="10.7744991"><ele>144.0</ele><time>2026-04-19T09:16:44.012Z</time></trkpt><trkpt lat="43.4093642" lon="10.774657"><ele>144.0</ele><time>2026-04-19T09:16:44.997Z</time></trkpt><trkpt lat="43.4092285" lon="10.7747842"><ele>144.0</ele><time>2026-04-19T09:16:45.991Z</time></trkpt><trkpt lat="43.4090828" lon="10.7749045"><ele>144.0</ele><time>2026-04-19T09:16:46.988Z</time></trkpt><trkpt lat="43.4089294" lon="10.7750102"><ele>143.33333333333334</ele><time>2026-04-19T09:16:48Z</time></trkpt><trkpt lat="43.4087694" lon="10.7751099"><ele>142.66666666666669</ele><time>2026-04-19T09:16:48.988Z</time></trkpt><trkpt lat="43.4086077" lon="10.7751929"><ele>142.0</ele><time>2026-04-19T09:16:49.991Z</time></trkpt><trkpt lat="43.4084411" lon="10.7752635"><ele>142.0</ele><time>2026-04-19T09:16:50.993Z</time></trkpt><trkpt lat="43.4082703" lon="10.7753228"><ele>142.0</ele><time>2026-04-19T09:16:51.987Z</time></trkpt><trkpt lat="43.4080945" lon="10.7753691"><ele>142.0</ele><time>2026-04-19T09:16:52.995Z</time></trkpt><trkpt lat="43.4079095" lon="10.7753939"><ele>143.0</ele><time>2026-04-19T09:16:53.998Z</time></trkpt><trkpt lat="43.4077215" lon="10.7754075"><ele>144.0</ele><time>2026-04-19T09:16:55.009Z</time></trkpt><trkpt lat="43.4075324" lon="10.7754135"><ele>145.0</ele><time>2026-04-19T09:16:55.993Z</time></trkpt><trkpt lat="43.407347" lon="10.7754277"><ele>145.0</ele><time>2026-04-19T09:16:57.002Z</time></trkpt><trkpt lat="43.4071636" lon="10.7754669"><ele>145.0</ele><time>2026-04-19T09:16:58.011Z</time></trkpt><trkpt lat="43.4069963" lon="10.775514"><ele>145.0</ele><time>2026-04-19T09:16:59.005Z</time></trkpt><trkpt lat="43.4068384" lon="10.7755559"><ele>145.33333333333334</ele><time>2026-04-19T09:16:59.989Z</time></trkpt><trkpt lat="43.4066861" lon="10.7755706"><ele>145.66666666666666</ele><time>2026-04-19T09:17:01.001Z</time></trkpt><trkpt lat="43.4065239" lon="10.7755554"><ele>146.0</ele><time>2026-04-19T09:17:02.001Z</time></trkpt><trkpt lat="43.4063569" lon="10.7755157"><ele>145.66666666666666</ele><time>2026-04-19T09:17:02.998Z</time></trkpt><trkpt lat="43.40619" lon="10.7754575"><ele>145.33333333333334</ele><time>2026-04-19T09:17:04.004Z</time></trkpt><trkpt lat="43.4060268" lon="10.7753833"><ele>145.0</ele><time>2026-04-19T09:17:05.009Z</time></trkpt><trkpt lat="43.4058613" lon="10.7752976"><ele>145.0</ele><time>2026-04-19T09:17:05.993Z</time></trkpt><trkpt lat="43.4056987" lon="10.7752168"><ele>145.0</ele><time>2026-04-19T09:17:07.014Z</time></trkpt><trkpt lat="43.4055318" lon="10.7751336"><ele>145.0</ele><time>2026-04-19T09:17:08Z</time></trkpt><trkpt lat="43.4053666" lon="10.7750505"><ele>146.66666666666669</ele><time>2026-04-19T09:17:08.996Z</time></trkpt><trkpt lat="43.4052073" lon="10.7749696"><ele>148.33333333333334</ele><time>2026-04-19T09:17:09.993Z</time></trkpt><trkpt lat="43.4050485" lon="10.7748962"><ele>150.0</ele><time>2026-04-19T09:17:10.998Z</time></trkpt><trkpt lat="43.4048942" lon="10.7748205"><ele>150.0</ele><time>2026-04-19T09:17:12Z</time></trkpt><trkpt lat="43.4047427" lon="10.7747418"><ele>150.0</ele><time>2026-04-19T09:17:12.991Z</time></trkpt><trkpt lat="43.4045902" lon="10.7746666"><ele>150.0</ele><time>2026-04-19T09:17:13.99Z</time></trkpt><trkpt lat="43.4044293" lon="10.7746157"><ele>150.0</ele><time>2026-04-19T09:17:14.992Z</time></trkpt><trkpt lat="43.4042614" lon="10.7745909"><ele>150.0</ele><time>2026-04-19T09:17:15.993Z</time></trkpt><trkpt lat="43.4040905" lon="10.7745951"><ele>150.0</ele><time>2026-04-19T09:17:16.996Z</time></trkpt><trkpt lat="43.4039223" lon="10.7746507"><ele>152.66666666666666</ele><time>2026-04-19T09:17:17.999Z</time></trkpt><trkpt lat="43.4037628" lon="10.7747547"><ele>155.33333333333331</ele><time>2026-04-19T09:17:18.999Z</time></trkpt><trkpt lat="43.4036038" lon="10.7748619"><ele>158.0</ele><time>2026-04-19T09:17:20.007Z</time></trkpt><trkpt lat="43.403443" lon="10.7749582"><ele>158.0</ele><time>2026-04-19T09:17:20.992Z</time></trkpt><trkpt lat="43.403288" lon="10.7750549"><ele>158.0</ele><time>2026-04-19T09:17:22.009Z</time></trkpt><trkpt lat="43.4031485" lon="10.7751435"><ele>158.0</ele><time>2026-04-19T09:17:23.005Z</time></trkpt><trkpt lat="43.403005" lon="10.7752333"><ele>158.0</ele><time>2026-04-19T09:17:24.006Z</time></trkpt><trkpt lat="43.4028688" lon="10.7753138"><ele>158.0</ele><time>2026-04-19T09:17:24.986Z</time></trkpt><trkpt lat="43.4027415" lon="10.7754002"><ele>158.0</ele><time>2026-04-19T09:17:26.015Z</time></trkpt><trkpt lat="43.402626" lon="10.7755009"><ele>158.0</ele><time>2026-04-19T09:17:26.993Z</time></trkpt><trkpt lat="43.4025264" lon="10.7756256"><ele>158.0</ele><time>2026-04-19T09:17:28Z</time></trkpt><trkpt lat="43.4024449" lon="10.775787"><ele>158.0</ele><time>2026-04-19T09:17:29.004Z</time></trkpt><trkpt lat="43.4023873" lon="10.7759663"><ele>158.0</ele><time>2026-04-19T09:17:29.995Z</time></trkpt><trkpt lat="43.4023623" lon="10.7761663"><ele>158.0</ele><time>2026-04-19T09:17:30.991Z</time></trkpt><trkpt lat="43.4023384" lon="10.776372"><ele>158.0</ele><time>2026-04-19T09:17:31.984Z</time></trkpt><trkpt lat="43.4023084" lon="10.7765893"><ele>158.0</ele><time>2026-04-19T09:17:33.019Z</time></trkpt><trkpt lat="43.4022687" lon="10.7768104"><ele>158.0</ele><time>2026-04-19T09:17:33.998Z</time></trkpt><trkpt lat="43.4022143" lon="10.7770338"><ele>160.0</ele><time>2026-04-19T09:17:35.002Z</time></trkpt><trkpt lat="43.4021549" lon="10.7772661"><ele>162.0</ele><time>2026-04-19T09:17:36.002Z</time></trkpt><trkpt lat="43.4021026" lon="10.7775057"><ele>164.0</ele><time>2026-04-19T09:17:36.992Z</time></trkpt><trkpt lat="43.4020621" lon="10.7777561"><ele>164.66666666666666</ele><time>2026-04-19T09:17:37.988Z</time></trkpt><trkpt lat="43.4020355" lon="10.7780103"><ele>165.33333333333334</ele><time>2026-04-19T09:17:38.998Z</time></trkpt><trkpt lat="43.4020211" lon="10.7782721"><ele>166.0</ele><time>2026-04-19T09:17:40.007Z</time></trkpt><trkpt lat="43.4020129" lon="10.7785391"><ele>166.33333333333334</ele><time>2026-04-19T09:17:40.992Z</time></trkpt><trkpt lat="43.4020201" lon="10.7788123"><ele>166.66666666666666</ele><time>2026-04-19T09:17:41.998Z</time></trkpt><trkpt lat="43.402036" lon="10.7790776"><ele>167.0</ele><time>2026-04-19T09:17:42.987Z</time></trkpt><trkpt lat="43.4020486" lon="10.779343"><ele>166.66666666666666</ele><time>2026-04-19T09:17:43.986Z</time></trkpt><trkpt lat="43.4020557" lon="10.7795893"><ele>166.33333333333334</ele><time>2026-04-19T09:17:44.993Z</time></trkpt><trkpt lat="43.4020556" lon="10.7798202"><ele>166.0</ele><time>2026-04-19T09:17:45.993Z</time></trkpt><trkpt lat="43.4020443" lon="10.780031"><ele>165.66666666666669</ele><time>2026-04-19T09:17:47.016Z</time></trkpt><trkpt lat="43.4020238" lon="10.7802374"><ele>165.33333333333334</ele><time>2026-04-19T09:17:47.999Z</time></trkpt><trkpt lat="43.4019988" lon="10.7804468"><ele>165.0</ele><time>2026-04-19T09:17:48.986Z</time></trkpt><trkpt lat="43.40197" lon="10.7806652"><ele>165.0</ele><time>2026-04-19T09:17:49.993Z</time></trkpt><trkpt lat="43.4019436" lon="10.7808889"><ele>165.0</ele><time>2026-04-19T09:17:51Z</time></trkpt><trkpt lat="43.4019159" lon="10.7811167"><ele>165.0</ele><time>2026-04-19T09:17:52.02Z</time></trkpt><trkpt lat="43.401894" lon="10.7813337"><ele>165.0</ele><time>2026-04-19T09:17:53.002Z</time></trkpt><trkpt lat="43.4018791" lon="10.7815363"><ele>165.0</ele><time>2026-04-19T09:17:53.998Z</time></trkpt><trkpt lat="43.4018706" lon="10.7817259"><ele>165.0</ele><time>2026-04-19T09:17:54.999Z</time></trkpt><trkpt lat="43.4018753" lon="10.7818943"><ele>165.0</ele><time>2026-04-19T09:17:56.006Z</time></trkpt><trkpt lat="43.4018845" lon="10.7820619"><ele>164.8</ele><time>2026-04-19T09:17:56.999Z</time></trkpt><trkpt lat="43.401902" lon="10.782216"><ele>164.6</ele><time>2026-04-19T09:17:57.99Z</time></trkpt><trkpt lat="43.4019167" lon="10.7823579"><ele>164.39999999999998</ele><time>2026-04-19T09:17:59.007Z</time></trkpt><trkpt lat="43.4019239" lon="10.7824845"><ele>164.2</ele><time>2026-04-19T09:17:59.996Z</time></trkpt><trkpt lat="43.4019353" lon="10.7825793"><ele>164.0</ele><time>2026-04-19T09:18:01.002Z</time></trkpt><trkpt lat="43.4019485" lon="10.7827343"><ele>163.5</ele><time>2026-04-19T09:18:02.999Z</time></trkpt><trkpt lat="43.4019318" lon="10.7828714"><ele>163.0</ele><time>2026-04-19T09:18:04.996Z</time></trkpt><trkpt lat="43.4019005" lon="10.7830198"><ele>162.5</ele><time>2026-04-19T09:18:07.008Z</time></trkpt><trkpt lat="43.40188" lon="10.783109"><ele>162.0</ele><time>2026-04-19T09:18:08.002Z</time></trkpt><trkpt lat="43.401867" lon="10.7831981"><ele>161.5</ele><time>2026-04-19T09:18:08.996Z</time></trkpt><trkpt lat="43.4018672" lon="10.7832904"><ele>161.0</ele><time>2026-04-19T09:18:09.992Z</time></trkpt><trkpt lat="43.4018765" lon="10.7833834"><ele>161.0</ele><time>2026-04-19T09:18:10.995Z</time></trkpt><trkpt lat="43.4019097" lon="10.7835108"><ele>161.0</ele><time>2026-04-19T09:18:13.002Z</time></trkpt><trkpt lat="43.4019782" lon="10.7835081"><ele>161.0</ele><time>2026-04-19T09:29:18.033Z</time></trkpt><trkpt lat="43.4020419" lon="10.7835463"><ele>161.0</ele><time>2026-04-19T09:29:21.994Z</time></trkpt><trkpt lat="43.4020549" lon="10.7837001"><ele>161.0</ele><time>2026-04-19T09:29:23.999Z</time></trkpt><trkpt lat="43.4020567" lon="10.7838034"><ele>161.0</ele><time>2026-04-19T09:29:24.995Z</time></trkpt><trkpt lat="43.4020645" lon="10.7839042"><ele>160.4</ele><time>2026-04-19T09:29:26.008Z</time></trkpt><trkpt lat="43.4020849" lon="10.7840129"><ele>159.8</ele><time>2026-04-19T09:29:27.004Z</time></trkpt><trkpt lat="43.4021049" lon="10.7841355"><ele>159.20000000000002</ele><time>2026-04-19T09:29:27.999Z</time></trkpt><trkpt lat="43.4021198" lon="10.7842783"><ele>158.60000000000002</ele><time>2026-04-19T09:29:28.99Z</time></trkpt><trkpt lat="43.4021458" lon="10.7844329"><ele>158.0</ele><time>2026-04-19T09:29:30.001Z</time></trkpt><trkpt lat="43.4021831" lon="10.7846086"><ele>160.0</ele><time>2026-04-19T09:29:30.994Z</time></trkpt><trkpt lat="43.4022285" lon="10.7847965"><ele>162.0</ele><time>2026-04-19T09:29:31.999Z</time></trkpt><trkpt lat="43.4022739" lon="10.7850061"><ele>164.0</ele><time>2026-04-19T09:29:33.028Z</time></trkpt><trkpt lat="43.402327" lon="10.7852147"><ele>164.0</ele><time>2026-04-19T09:29:33.994Z</time></trkpt><trkpt lat="43.4023849" lon="10.7854403"><ele>164.0</ele><time>2026-04-19T09:29:35.006Z</time></trkpt><trkpt lat="43.4024489" lon="10.7856756"><ele>164.0</ele><time>2026-04-19T09:29:35.99Z</time></trkpt><trkpt lat="43.4025087" lon="10.7859188"><ele>164.66666666666666</ele><time>2026-04-19T09:29:36.988Z</time></trkpt><trkpt lat="43.40257" lon="10.7861552"><ele>165.33333333333334</ele><time>2026-04-19T09:29:37.999Z</time></trkpt><trkpt lat="43.402629" lon="10.7863949"><ele>166.0</ele><time>2026-04-19T09:29:39.004Z</time></trkpt><trkpt lat="43.4026877" lon="10.7866249"><ele>166.66666666666669</ele><time>2026-04-19T09:29:39.993Z</time></trkpt><trkpt lat="43.4027444" lon="10.7868468"><ele>167.33333333333334</ele><time>2026-04-19T09:29:41.065Z</time></trkpt><trkpt lat="43.4027962" lon="10.7870589"><ele>168.0</ele><time>2026-04-19T09:29:41.992Z</time></trkpt><trkpt lat="43.4028454" lon="10.7872617"><ele>168.0</ele><time>2026-04-19T09:29:43.005Z</time></trkpt><trkpt lat="43.4028732" lon="10.7874273"><ele>168.0</ele><time>2026-04-19T09:29:43.991Z</time></trkpt><trkpt lat="43.4029009" lon="10.7875764"><ele>168.0</ele><time>2026-04-19T09:29:44.992Z</time></trkpt><trkpt lat="43.4029206" lon="10.7876986"><ele>168.0</ele><time>2026-04-19T09:29:45.994Z</time></trkpt><trkpt lat="43.4029388" lon="10.7878089"><ele>168.0</ele><time>2026-04-19T09:29:47.001Z</time></trkpt><trkpt lat="43.402986" lon="10.7878901"><ele>170.0</ele><time>2026-04-19T09:29:48Z</time></trkpt><trkpt lat="43.4030535" lon="10.7879581"><ele>172.0</ele><time>2026-04-19T09:29:48.999Z</time></trkpt><trkpt lat="43.4031414" lon="10.7880286"><ele>174.0</ele><time>2026-04-19T09:29:49.995Z</time></trkpt><trkpt lat="43.4032324" lon="10.7881317"><ele>176.0</ele><time>2026-04-19T09:29:51.027Z</time></trkpt><trkpt lat="43.4033206" lon="10.7882674"><ele>178.0</ele><time>2026-04-19T09:29:52.004Z</time></trkpt><trkpt lat="43.403414" lon="10.7884306"><ele>180.33333333333334</ele><time>2026-04-19T09:29:53.002Z</time></trkpt><trkpt lat="43.4035007" lon="10.7886191"><ele>182.66666666666666</ele><time>2026-04-19T09:29:54.013Z</time></trkpt><trkpt lat="43.4035913" lon="10.7888128"><ele>185.0</ele><time>2026-04-19T09:29:54.992Z</time></trkpt><trkpt lat="43.4036848" lon="10.7890167"><ele>185.0</ele><time>2026-04-19T09:29:55.99Z</time></trkpt><trkpt lat="43.4037844" lon="10.7892283"><ele>185.0</ele><time>2026-04-19T09:29:56.986Z</time></trkpt><trkpt lat="43.4038719" lon="10.789454"><ele>185.0</ele><time>2026-04-19T09:29:57.994Z</time></trkpt><trkpt lat="43.4039514" lon="10.7896906"><ele>185.0</ele><time>2026-04-19T09:29:59.005Z</time></trkpt><trkpt lat="43.4040236" lon="10.7899249"><ele>185.0</ele><time>2026-04-19T09:30:00.002Z</time></trkpt><trkpt lat="43.4041049" lon="10.7901605"><ele>185.0</ele><time>2026-04-19T09:30:01.003Z</time></trkpt><trkpt lat="43.404214" lon="10.790369"><ele>186.66666666666666</ele><time>2026-04-19T09:30:02.003Z</time></trkpt><trkpt lat="43.4043477" lon="10.7905466"><ele>188.33333333333334</ele><time>2026-04-19T09:30:02.99Z</time></trkpt><trkpt lat="43.4044944" lon="10.7907102"><ele>190.0</ele><time>2026-04-19T09:30:03.993Z</time></trkpt><trkpt lat="43.4046392" lon="10.7908782"><ele>192.0</ele><time>2026-04-19T09:30:05.018Z</time></trkpt><trkpt lat="43.4047798" lon="10.7910568"><ele>194.0</ele><time>2026-04-19T09:30:05.992Z</time></trkpt><trkpt lat="43.4049038" lon="10.7912458"><ele>196.0</ele><time>2026-04-19T09:30:07.005Z</time></trkpt><trkpt lat="43.4050156" lon="10.7914347"><ele>196.0</ele><time>2026-04-19T09:30:08.011Z</time></trkpt><trkpt lat="43.405119" lon="10.7915981"><ele>196.0</ele><time>2026-04-19T09:30:08.997Z</time></trkpt><trkpt lat="43.4052189" lon="10.7917366"><ele>196.0</ele><time>2026-04-19T09:30:10.015Z</time></trkpt><trkpt lat="43.4053172" lon="10.7918567"><ele>196.0</ele><time>2026-04-19T09:30:10.996Z</time></trkpt><trkpt lat="43.4053847" lon="10.7919836"><ele>197.0</ele><time>2026-04-19T09:30:11.992Z</time></trkpt><trkpt lat="43.4054177" lon="10.7921314"><ele>198.0</ele><time>2026-04-19T09:30:13.005Z</time></trkpt><trkpt lat="43.4054272" lon="10.792292"><ele>199.0</ele><time>2026-04-19T09:30:13.992Z</time></trkpt><trkpt lat="43.4054202" lon="10.7924812"><ele>200.0</ele><time>2026-04-19T09:30:15.006Z</time></trkpt><trkpt lat="43.4054258" lon="10.7926752"><ele>200.0</ele><time>2026-04-19T09:30:16.009Z</time></trkpt><trkpt lat="43.4054674" lon="10.792868"><ele>200.0</ele><time>2026-04-19T09:30:17.003Z</time></trkpt><trkpt lat="43.4055455" lon="10.7930436"><ele>200.0</ele><time>2026-04-19T09:30:18.014Z</time></trkpt><trkpt lat="43.4056458" lon="10.7931996"><ele>200.0</ele><time>2026-04-19T09:30:19.011Z</time></trkpt><trkpt lat="43.405744" lon="10.7933247"><ele>200.0</ele><time>2026-04-19T09:30:19.999Z</time></trkpt><trkpt lat="43.4058799" lon="10.7933978"><ele>200.0</ele><time>2026-04-19T09:30:20.996Z</time></trkpt><trkpt lat="43.4060183" lon="10.7934186"><ele>200.0</ele><time>2026-04-19T09:30:22.02Z</time></trkpt><trkpt lat="43.4061772" lon="10.7934159"><ele>200.0</ele><time>2026-04-19T09:30:23.002Z</time></trkpt><trkpt lat="43.4063407" lon="10.7934143"><ele>201.33333333333334</ele><time>2026-04-19T09:30:23.993Z</time></trkpt><trkpt lat="43.4065078" lon="10.7934283"><ele>202.66666666666669</ele><time>2026-04-19T09:30:24.994Z</time></trkpt><trkpt lat="43.4066717" lon="10.7934627"><ele>204.0</ele><time>2026-04-19T09:30:25.993Z</time></trkpt><trkpt lat="43.4068273" lon="10.7935405"><ele>205.66666666666669</ele><time>2026-04-19T09:30:27.012Z</time></trkpt><trkpt lat="43.4069688" lon="10.7936565"><ele>207.33333333333334</ele><time>2026-04-19T09:30:28.004Z</time></trkpt><trkpt lat="43.4070938" lon="10.7938241"><ele>209.0</ele><time>2026-04-19T09:30:29.019Z</time></trkpt><trkpt lat="43.4072078" lon="10.7940071"><ele>209.0</ele><time>2026-04-19T09:30:30.011Z</time></trkpt><trkpt lat="43.407309" lon="10.7942074"><ele>209.0</ele><time>2026-04-19T09:30:31Z</time></trkpt><trkpt lat="43.4073916" lon="10.7944225"><ele>209.0</ele><time>2026-04-19T09:30:31.989Z</time></trkpt><trkpt lat="43.4074506" lon="10.7946685"><ele>206.66666666666669</ele><time>2026-04-19T09:30:33.001Z</time></trkpt><trkpt lat="43.4074977" lon="10.7949252"><ele>204.33333333333331</ele><time>2026-04-19T09:30:34.004Z</time></trkpt><trkpt lat="43.407543" lon="10.7951769"><ele>202.0</ele><time>2026-04-19T09:30:34.998Z</time></trkpt><trkpt lat="43.407593" lon="10.7954014"><ele>201.0</ele><time>2026-04-19T09:30:36.002Z</time></trkpt><trkpt lat="43.4076382" lon="10.7956079"><ele>200.0</ele><time>2026-04-19T09:30:37.002Z</time></trkpt><trkpt lat="43.4076863" lon="10.7957781"><ele>199.0</ele><time>2026-04-19T09:30:37.988Z</time></trkpt><trkpt lat="43.4077428" lon="10.7959003"><ele>198.0</ele><time>2026-04-19T09:30:38.995Z</time></trkpt><trkpt lat="43.4078201" lon="10.7959798"><ele>199.0</ele><time>2026-04-19T09:30:39.998Z</time></trkpt><trkpt lat="43.407923" lon="10.7960096"><ele>200.0</ele><time>2026-04-19T09:30:41.031Z</time></trkpt><trkpt lat="43.4080378" lon="10.7959994"><ele>201.0</ele><time>2026-04-19T09:30:42.008Z</time></trkpt><trkpt lat="43.4081561" lon="10.7959683"><ele>202.0</ele><time>2026-04-19T09:30:43.009Z</time></trkpt><trkpt lat="43.4082653" lon="10.7959148"><ele>202.0</ele><time>2026-04-19T09:30:43.992Z</time></trkpt><trkpt lat="43.4083479" lon="10.7958775"><ele>202.0</ele><time>2026-04-19T09:30:44.991Z</time></trkpt><trkpt lat="43.4084549" lon="10.7958789"><ele>202.0</ele><time>2026-04-19T09:30:46.989Z</time></trkpt><trkpt lat="43.4085534" lon="10.7959075"><ele>202.0</ele><time>2026-04-19T09:30:48.985Z</time></trkpt><trkpt lat="43.4086222" lon="10.7958418"><ele>202.0</ele><time>2026-04-19T09:30:50.993Z</time></trkpt><trkpt lat="43.4086556" lon="10.795719"><ele>202.0</ele><time>2026-04-19T09:30:52.999Z</time></trkpt><trkpt lat="43.4086768" lon="10.7955494"><ele>202.0</ele><time>2026-04-19T09:30:54.993Z</time></trkpt><trkpt lat="43.4086694" lon="10.7954207"><ele>202.0</ele><time>2026-04-19T09:30:55.986Z</time></trkpt><trkpt lat="43.408652" lon="10.7952797"><ele>202.0</ele><time>2026-04-19T09:30:56.996Z</time></trkpt><trkpt lat="43.4086237" lon="10.7951305"><ele>202.0</ele><time>2026-04-19T09:30:57.987Z</time></trkpt><trkpt lat="43.4085973" lon="10.7949798"><ele>203.0</ele><time>2026-04-19T09:30:59.027Z</time></trkpt><trkpt lat="43.408571" lon="10.7948129"><ele>204.0</ele><time>2026-04-19T09:30:59.99Z</time></trkpt><trkpt lat="43.4085402" lon="10.7946402"><ele>205.0</ele><time>2026-04-19T09:31:01.011Z</time></trkpt><trkpt lat="43.4085153" lon="10.7944679"><ele>206.0</ele><time>2026-04-19T09:31:02.001Z</time></trkpt><trkpt lat="43.4085049" lon="10.7942744"><ele>207.0</ele><time>2026-04-19T09:31:02.99Z</time></trkpt><trkpt lat="43.4085104" lon="10.7940852"><ele>208.0</ele><time>2026-04-19T09:31:03.988Z</time></trkpt><trkpt lat="43.4085176" lon="10.793907"><ele>209.0</ele><time>2026-04-19T09:31:04.99Z</time></trkpt><trkpt lat="43.4085161" lon="10.7937354"><ele>210.0</ele><time>2026-04-19T09:31:06.009Z</time></trkpt><trkpt lat="43.4085192" lon="10.793578"><ele>210.0</ele><time>2026-04-19T09:31:06.995Z</time></trkpt><trkpt lat="43.4085109" lon="10.7934546"><ele>210.0</ele><time>2026-04-19T09:31:07.989Z</time></trkpt><trkpt lat="43.4084736" lon="10.7933475"><ele>210.0</ele><time>2026-04-19T09:31:08.992Z</time></trkpt><trkpt lat="43.4084198" lon="10.793253"><ele>210.0</ele><time>2026-04-19T09:31:09.983Z</time></trkpt><trkpt lat="43.4083555" lon="10.793134"><ele>210.0</ele><time>2026-04-19T09:31:10.987Z</time></trkpt><trkpt lat="43.4082827" lon="10.7930111"><ele>210.0</ele><time>2026-04-19T09:31:11.985Z</time></trkpt><trkpt lat="43.4082281" lon="10.7928709"><ele>210.0</ele><time>2026-04-19T09:31:12.997Z</time></trkpt><trkpt lat="43.4081992" lon="10.7927234"><ele>210.0</ele><time>2026-04-19T09:31:13.994Z</time></trkpt><trkpt lat="43.4081854" lon="10.7925596"><ele>210.0</ele><time>2026-04-19T09:31:14.981Z</time></trkpt><trkpt lat="43.4081923" lon="10.7923908"><ele>210.0</ele><time>2026-04-19T09:31:15.995Z</time></trkpt><trkpt lat="43.4082072" lon="10.7922247"><ele>210.0</ele><time>2026-04-19T09:31:17.01Z</time></trkpt><trkpt lat="43.4082191" lon="10.792063"><ele>210.0</ele><time>2026-04-19T09:31:18Z</time></trkpt><trkpt lat="43.4082585" lon="10.7919174"><ele>210.0</ele><time>2026-04-19T09:31:18.991Z</time></trkpt><trkpt lat="43.4083222" lon="10.7917842"><ele>210.75</ele><time>2026-04-19T09:31:20.001Z</time></trkpt><trkpt lat="43.4084032" lon="10.7916524"><ele>211.5</ele><time>2026-04-19T09:31:20.996Z</time></trkpt><trkpt lat="43.4084994" lon="10.7915314"><ele>212.25</ele><time>2026-04-19T09:31:21.987Z</time></trkpt><trkpt lat="43.4085823" lon="10.7914096"><ele>213.0</ele><time>2026-04-19T09:31:23.001Z</time></trkpt><trkpt lat="43.4086445" lon="10.7912848"><ele>213.0</ele><time>2026-04-19T09:31:23.986Z</time></trkpt><trkpt lat="43.4086925" lon="10.7911515"><ele>213.0</ele><time>2026-04-19T09:31:25.027Z</time></trkpt><trkpt lat="43.408739" lon="10.7910073"><ele>213.0</ele><time>2026-04-19T09:31:26.005Z</time></trkpt><trkpt lat="43.4087839" lon="10.7908546"><ele>213.0</ele><time>2026-04-19T09:31:26.993Z</time></trkpt><trkpt lat="43.4088225" lon="10.7906973"><ele>211.75</ele><time>2026-04-19T09:31:27.998Z</time></trkpt><trkpt lat="43.4088586" lon="10.7905292"><ele>210.5</ele><time>2026-04-19T09:31:29Z</time></trkpt><trkpt lat="43.4089049" lon="10.7903615"><ele>209.25</ele><time>2026-04-19T09:31:30.004Z</time></trkpt><trkpt lat="43.408948" lon="10.7902067"><ele>208.0</ele><time>2026-04-19T09:31:30.991Z</time></trkpt><trkpt lat="43.4089911" lon="10.7900675"><ele>208.0</ele><time>2026-04-19T09:31:31.999Z</time></trkpt><trkpt lat="43.4090289" lon="10.7899418"><ele>208.0</ele><time>2026-04-19T09:31:33.017Z</time></trkpt><trkpt lat="43.4090656" lon="10.7898043"><ele>208.0</ele><time>2026-04-19T09:31:33.987Z</time></trkpt><trkpt lat="43.4091056" lon="10.7896672"><ele>208.0</ele><time>2026-04-19T09:31:34.992Z</time></trkpt><trkpt lat="43.4091609" lon="10.7895585"><ele>208.0</ele><time>2026-04-19T09:31:35.993Z</time></trkpt><trkpt lat="43.4092317" lon="10.7894723"><ele>208.0</ele><time>2026-04-19T09:31:37.002Z</time></trkpt><trkpt lat="43.4093086" lon="10.7894229"><ele>208.0</ele><time>2026-04-19T09:31:37.982Z</time></trkpt><trkpt lat="43.4093938" lon="10.7893703"><ele>208.0</ele><time>2026-04-19T09:31:39.005Z</time></trkpt><trkpt lat="43.4094842" lon="10.7893096"><ele>208.0</ele><time>2026-04-19T09:31:40.006Z</time></trkpt><trkpt lat="43.4095752" lon="10.7892382"><ele>208.0</ele><time>2026-04-19T09:31:40.999Z</time></trkpt><trkpt lat="43.4096671" lon="10.7891852"><ele>208.4</ele><time>2026-04-19T09:31:42.002Z</time></trkpt><trkpt lat="43.4097544" lon="10.7891698"><ele>208.8</ele><time>2026-04-19T09:31:42.987Z</time></trkpt><trkpt lat="43.4098348" lon="10.789198"><ele>209.2</ele><time>2026-04-19T09:31:44.005Z</time></trkpt><trkpt lat="43.4099225" lon="10.789248"><ele>209.6</ele><time>2026-04-19T09:31:44.987Z</time></trkpt><trkpt lat="43.4100155" lon="10.7893166"><ele>210.0</ele><time>2026-04-19T09:31:46.007Z</time></trkpt><trkpt lat="43.410113" lon="10.7893941"><ele>210.25</ele><time>2026-04-19T09:31:46.995Z</time></trkpt><trkpt lat="43.410211" lon="10.7894702"><ele>210.5</ele><time>2026-04-19T09:31:47.99Z</time></trkpt><trkpt lat="43.4103118" lon="10.7895506"><ele>210.75</ele><time>2026-04-19T09:31:49.004Z</time></trkpt><trkpt lat="43.410415" lon="10.7896394"><ele>211.0</ele><time>2026-04-19T09:31:49.999Z</time></trkpt><trkpt lat="43.410524" lon="10.7897268"><ele>211.0</ele><time>2026-04-19T09:31:51.002Z</time></trkpt><trkpt lat="43.4106349" lon="10.7898225"><ele>211.0</ele><time>2026-04-19T09:31:52Z</time></trkpt><trkpt lat="43.4107403" lon="10.7899217"><ele>211.0</ele><time>2026-04-19T09:31:52.999Z</time></trkpt><trkpt lat="43.4108394" lon="10.7900153"><ele>211.0</ele><time>2026-04-19T09:31:54.022Z</time></trkpt><trkpt lat="43.4109404" lon="10.7901023"><ele>209.4</ele><time>2026-04-19T09:31:55.007Z</time></trkpt><trkpt lat="43.4110391" lon="10.7901882"><ele>207.8</ele><time>2026-04-19T09:31:55.991Z</time></trkpt><trkpt lat="43.4111359" lon="10.7902608"><ele>206.20000000000002</ele><time>2026-04-19T09:31:56.995Z</time></trkpt><trkpt lat="43.411223" lon="10.7903273"><ele>204.60000000000002</ele><time>2026-04-19T09:31:57.997Z</time></trkpt><trkpt lat="43.411312" lon="10.7903757"><ele>203.0</ele><time>2026-04-19T09:31:58.998Z</time></trkpt><trkpt lat="43.4113877" lon="10.790403"><ele>203.0</ele><time>2026-04-19T09:31:59.994Z</time></trkpt><trkpt lat="43.411454" lon="10.7904007"><ele>203.0</ele><time>2026-04-19T09:32:00.998Z</time></trkpt><trkpt lat="43.4115224" lon="10.7903644"><ele>203.0</ele><time>2026-04-19T09:32:02.005Z</time></trkpt><trkpt lat="43.41161" lon="10.7902995"><ele>203.0</ele><time>2026-04-19T09:32:02.984Z</time></trkpt><trkpt lat="43.4117059" lon="10.7902191"><ele>203.0</ele><time>2026-04-19T09:32:04Z</time></trkpt><trkpt lat="43.4117906" lon="10.7901491"><ele>204.2</ele><time>2026-04-19T09:32:05.005Z</time></trkpt><trkpt lat="43.4118554" lon="10.790065"><ele>205.4</ele><time>2026-04-19T09:32:05.98Z</time></trkpt><trkpt lat="43.4118998" lon="10.7899641"><ele>206.6</ele><time>2026-04-19T09:32:06.995Z</time></trkpt><trkpt lat="43.4119298" lon="10.7898307"><ele>207.79999999999998</ele><time>2026-04-19T09:32:07.995Z</time></trkpt><trkpt lat="43.4119469" lon="10.7896808"><ele>209.0</ele><time>2026-04-19T09:32:08.992Z</time></trkpt><trkpt lat="43.4119629" lon="10.7895163"><ele>209.0</ele><time>2026-04-19T09:32:10.015Z</time></trkpt><trkpt lat="43.4119838" lon="10.7893562"><ele>209.0</ele><time>2026-04-19T09:32:11Z</time></trkpt><trkpt lat="43.4119971" lon="10.7891825"><ele>209.0</ele><time>2026-04-19T09:32:11.991Z</time></trkpt><trkpt lat="43.4120046" lon="10.789005"><ele>209.0</ele><time>2026-04-19T09:32:12.988Z</time></trkpt><trkpt lat="43.4120198" lon="10.7888342"><ele>209.5</ele><time>2026-04-19T09:32:13.988Z</time></trkpt><trkpt lat="43.4120278" lon="10.7886723"><ele>210.0</ele><time>2026-04-19T09:32:14.99Z</time></trkpt><trkpt lat="43.4120404" lon="10.78852"><ele>210.5</ele><time>2026-04-19T09:32:15.984Z</time></trkpt><trkpt lat="43.4120635" lon="10.7883669"><ele>211.0</ele><time>2026-04-19T09:32:16.988Z</time></trkpt><trkpt lat="43.4121104" lon="10.7882217"><ele>206.5</ele><time>2026-04-19T09:32:17.997Z</time></trkpt><trkpt lat="43.412176" lon="10.7880778"><ele>202.0</ele><time>2026-04-19T09:32:18.985Z</time></trkpt><trkpt lat="43.4122479" lon="10.7879369"><ele>197.5</ele><time>2026-04-19T09:32:19.995Z</time></trkpt><trkpt lat="43.4123138" lon="10.7878095"><ele>193.0</ele><time>2026-04-19T09:32:20.987Z</time></trkpt><trkpt lat="43.412364" lon="10.7876876"><ele>192.8</ele><time>2026-04-19T09:32:21.994Z</time></trkpt><trkpt lat="43.4123765" lon="10.7875567"><ele>192.60000000000002</ele><time>2026-04-19T09:32:22.995Z</time></trkpt><trkpt lat="43.4123698" lon="10.7874212"><ele>192.39999999999998</ele><time>2026-04-19T09:32:23.981Z</time></trkpt><trkpt lat="43.4123597" lon="10.7872851"><ele>192.2</ele><time>2026-04-19T09:32:24.993Z</time></trkpt><trkpt lat="43.4123675" lon="10.7871547"><ele>192.0</ele><time>2026-04-19T09:32:25.993Z</time></trkpt><trkpt lat="43.4124029" lon="10.7870413"><ele>192.0</ele><time>2026-04-19T09:32:26.993Z</time></trkpt><trkpt lat="43.4124581" lon="10.7869595"><ele>192.0</ele><time>2026-04-19T09:32:27.991Z</time></trkpt><trkpt lat="43.4125423" lon="10.786891"><ele>192.0</ele><time>2026-04-19T09:32:28.991Z</time></trkpt><trkpt lat="43.4126414" lon="10.7868095"><ele>192.0</ele><time>2026-04-19T09:32:29.991Z</time></trkpt><trkpt lat="43.412748" lon="10.7867178"><ele>192.0</ele><time>2026-04-19T09:32:30.999Z</time></trkpt><trkpt lat="43.4128604" lon="10.7866144"><ele>193.25</ele><time>2026-04-19T09:32:31.99Z</time></trkpt><trkpt lat="43.4129842" lon="10.7865166"><ele>194.5</ele><time>2026-04-19T09:32:32.994Z</time></trkpt><trkpt lat="43.4131049" lon="10.786421"><ele>195.75</ele><time>2026-04-19T09:32:33.989Z</time></trkpt><trkpt lat="43.4132029" lon="10.7863394"><ele>197.0</ele><time>2026-04-19T09:32:34.988Z</time></trkpt><trkpt lat="43.4132888" lon="10.7862803"><ele>194.8</ele><time>2026-04-19T09:32:35.989Z</time></trkpt><trkpt lat="43.4133763" lon="10.7862473"><ele>192.6</ele><time>2026-04-19T09:32:36.995Z</time></trkpt><trkpt lat="43.4134598" lon="10.7862398"><ele>190.4</ele><time>2026-04-19T09:32:37.985Z</time></trkpt><trkpt lat="43.4135618" lon="10.7862588"><ele>188.20000000000002</ele><time>2026-04-19T09:32:38.987Z</time></trkpt><trkpt lat="43.4136844" lon="10.7862773"><ele>186.0</ele><time>2026-04-19T09:32:40.001Z</time></trkpt><trkpt lat="43.4138068" lon="10.7862859"><ele>184.75</ele><time>2026-04-19T09:32:40.989Z</time></trkpt><trkpt lat="43.4139314" lon="10.786271"><ele>183.5</ele><time>2026-04-19T09:32:41.986Z</time></trkpt><trkpt lat="43.4140666" lon="10.7862415"><ele>182.25</ele><time>2026-04-19T09:32:43Z</time></trkpt><trkpt lat="43.4142033" lon="10.7862152"><ele>181.0</ele><time>2026-04-19T09:32:43.987Z</time></trkpt><trkpt lat="43.4143363" lon="10.7862019"><ele>181.0</ele><time>2026-04-19T09:32:44.98Z</time></trkpt><trkpt lat="43.414467" lon="10.7861868"><ele>181.0</ele><time>2026-04-19T09:32:45.994Z</time></trkpt><trkpt lat="43.4145843" lon="10.7861869"><ele>181.0</ele><time>2026-04-19T09:32:46.995Z</time></trkpt><trkpt lat="43.4147083" lon="10.7862026"><ele>181.0</ele><time>2026-04-19T09:32:47.99Z</time></trkpt><trkpt lat="43.4148316" lon="10.7862277"><ele>180.75</ele><time>2026-04-19T09:32:49Z</time></trkpt><trkpt lat="43.4149599" lon="10.7862588"><ele>180.5</ele><time>2026-04-19T09:32:50.001Z</time></trkpt><trkpt lat="43.4150947" lon="10.7862856"><ele>180.25</ele><time>2026-04-19T09:32:50.99Z</time></trkpt><trkpt lat="43.4152286" lon="10.786316"><ele>180.0</ele><time>2026-04-19T09:32:51.995Z</time></trkpt><trkpt lat="43.4153471" lon="10.7863505"><ele>180.0</ele><time>2026-04-19T09:32:53.006Z</time></trkpt><trkpt lat="43.4154567" lon="10.7863784"><ele>180.0</ele><time>2026-04-19T09:32:53.99Z</time></trkpt><trkpt lat="43.4155627" lon="10.7864067"><ele>180.0</ele><time>2026-04-19T09:32:54.995Z</time></trkpt><trkpt lat="43.4156613" lon="10.7864304"><ele>180.0</ele><time>2026-04-19T09:32:56.003Z</time></trkpt><trkpt lat="43.4157475" lon="10.7864483"><ele>180.0</ele><time>2026-04-19T09:32:56.99Z</time></trkpt><trkpt lat="43.4158326" lon="10.7864652"><ele>180.83333333333334</ele><time>2026-04-19T09:32:58.01Z</time></trkpt><trkpt lat="43.4159082" lon="10.7864787"><ele>181.66666666666666</ele><time>2026-04-19T09:32:58.993Z</time></trkpt><trkpt lat="43.4159907" lon="10.7864974"><ele>182.5</ele><time>2026-04-19T09:32:59.992Z</time></trkpt><trkpt lat="43.4160742" lon="10.7865162"><ele>183.33333333333331</ele><time>2026-04-19T09:33:01.005Z</time></trkpt><trkpt lat="43.4161624" lon="10.7865424"><ele>184.16666666666666</ele><time>2026-04-19T09:33:01.989Z</time></trkpt><trkpt lat="43.4162561" lon="10.7865728"><ele>185.0</ele><time>2026-04-19T09:33:02.998Z</time></trkpt><trkpt lat="43.4163531" lon="10.7866191"><ele>184.25</ele><time>2026-04-19T09:33:04Z</time></trkpt><trkpt lat="43.4164479" lon="10.7866697"><ele>183.5</ele><time>2026-04-19T09:33:04.999Z</time></trkpt><trkpt lat="43.4165502" lon="10.7867394"><ele>182.75</ele><time>2026-04-19T09:33:06.004Z</time></trkpt><trkpt lat="43.4166577" lon="10.7868157"><ele>182.0</ele><time>2026-04-19T09:33:06.992Z</time></trkpt><trkpt lat="43.4167707" lon="10.7869064"><ele>182.0</ele><time>2026-04-19T09:33:07.991Z</time></trkpt><trkpt lat="43.4168846" lon="10.7870051"><ele>182.0</ele><time>2026-04-19T09:33:08.994Z</time></trkpt><trkpt lat="43.4170062" lon="10.787105"><ele>182.0</ele><time>2026-04-19T09:33:10.002Z</time></trkpt><trkpt lat="43.4171357" lon="10.7872024"><ele>182.0</ele><time>2026-04-19T09:33:10.997Z</time></trkpt><trkpt lat="43.417269" lon="10.7873008"><ele>184.5</ele><time>2026-04-19T09:33:12Z</time></trkpt><trkpt lat="43.4173982" lon="10.7873873"><ele>187.0</ele><time>2026-04-19T09:33:13.01Z</time></trkpt><trkpt lat="43.4175297" lon="10.7874604"><ele>189.5</ele><time>2026-04-19T09:33:13.995Z</time></trkpt><trkpt lat="43.4176694" lon="10.7875327"><ele>192.0</ele><time>2026-04-19T09:33:14.998Z</time></trkpt><trkpt lat="43.4178056" lon="10.7875993"><ele>192.0</ele><time>2026-04-19T09:33:15.989Z</time></trkpt><trkpt lat="43.4179373" lon="10.7876594"><ele>192.0</ele><time>2026-04-19T09:33:16.996Z</time></trkpt><trkpt lat="43.418053" lon="10.7877231"><ele>192.0</ele><time>2026-04-19T09:33:17.994Z</time></trkpt><trkpt lat="43.4181465" lon="10.7878323"><ele>192.0</ele><time>2026-04-19T09:33:18.998Z</time></trkpt><trkpt lat="43.41822" lon="10.7879864"><ele>192.5</ele><time>2026-04-19T09:33:19.991Z</time></trkpt><trkpt lat="43.4182973" lon="10.7881306"><ele>193.0</ele><time>2026-04-19T09:33:20.994Z</time></trkpt><trkpt lat="43.4183837" lon="10.7882641"><ele>193.5</ele><time>2026-04-19T09:33:22Z</time></trkpt><trkpt lat="43.4184811" lon="10.7883928"><ele>194.0</ele><time>2026-04-19T09:33:23.002Z</time></trkpt><trkpt lat="43.4185834" lon="10.7884881"><ele>193.0</ele><time>2026-04-19T09:33:23.994Z</time></trkpt><trkpt lat="43.4187116" lon="10.7885631"><ele>192.0</ele><time>2026-04-19T09:33:24.991Z</time></trkpt><trkpt lat="43.4188538" lon="10.7886117"><ele>191.0</ele><time>2026-04-19T09:33:26.002Z</time></trkpt><trkpt lat="43.4190035" lon="10.7886564"><ele>190.0</ele><time>2026-04-19T09:33:26.992Z</time></trkpt><trkpt lat="43.4191588" lon="10.7887124"><ele>190.0</ele><time>2026-04-19T09:33:27.998Z</time></trkpt><trkpt lat="43.4193069" lon="10.7887814"><ele>190.0</ele><time>2026-04-19T09:33:29.002Z</time></trkpt><trkpt lat="43.4194492" lon="10.7888825"><ele>190.0</ele><time>2026-04-19T09:33:29.994Z</time></trkpt><trkpt lat="43.4195922" lon="10.7890044"><ele>191.33333333333334</ele><time>2026-04-19T09:33:31.022Z</time></trkpt><trkpt lat="43.4197468" lon="10.7891409"><ele>192.66666666666669</ele><time>2026-04-19T09:33:32.009Z</time></trkpt><trkpt lat="43.419913" lon="10.7892903"><ele>194.0</ele><time>2026-04-19T09:33:33.001Z</time></trkpt><trkpt lat="43.4200825" lon="10.7894382"><ele>194.0</ele><time>2026-04-19T09:33:33.994Z</time></trkpt><trkpt lat="43.420262" lon="10.7895791"><ele>194.0</ele><time>2026-04-19T09:33:34.992Z</time></trkpt><trkpt lat="43.4204397" lon="10.789725"><ele>194.0</ele><time>2026-04-19T09:33:36Z</time></trkpt><trkpt lat="43.4206111" lon="10.7898731"><ele>195.66666666666669</ele><time>2026-04-19T09:33:36.985Z</time></trkpt><trkpt lat="43.4207713" lon="10.7900001"><ele>197.33333333333331</ele><time>2026-04-19T09:33:38.023Z</time></trkpt><trkpt lat="43.4209297" lon="10.7901208"><ele>199.0</ele><time>2026-04-19T09:33:39.006Z</time></trkpt><trkpt lat="43.421099" lon="10.7902473"><ele>200.33333333333331</ele><time>2026-04-19T09:33:39.995Z</time></trkpt><trkpt lat="43.4212693" lon="10.7903705"><ele>201.66666666666669</ele><time>2026-04-19T09:33:40.999Z</time></trkpt><trkpt lat="43.4214384" lon="10.790491"><ele>203.0</ele><time>2026-04-19T09:33:42.001Z</time></trkpt><trkpt lat="43.4215909" lon="10.7906098"><ele>203.0</ele><time>2026-04-19T09:33:42.996Z</time></trkpt><trkpt lat="43.4217401" lon="10.7907202"><ele>203.0</ele><time>2026-04-19T09:33:43.993Z</time></trkpt><trkpt lat="43.4218919" lon="10.7908169"><ele>203.0</ele><time>2026-04-19T09:33:45.002Z</time></trkpt><trkpt lat="43.4220323" lon="10.7909104"><ele>201.25</ele><time>2026-04-19T09:33:45.987Z</time></trkpt><trkpt lat="43.4221631" lon="10.7909849"><ele>199.5</ele><time>2026-04-19T09:33:46.996Z</time></trkpt><trkpt lat="43.4222807" lon="10.7910606"><ele>197.75</ele><time>2026-04-19T09:33:47.992Z</time></trkpt><trkpt lat="43.4223815" lon="10.7911432"><ele>196.0</ele><time>2026-04-19T09:33:48.991Z</time></trkpt><trkpt lat="43.4224778" lon="10.7912273"><ele>195.5</ele><time>2026-04-19T09:33:49.998Z</time></trkpt><trkpt lat="43.4225755" lon="10.7913148"><ele>195.0</ele><time>2026-04-19T09:33:51.001Z</time></trkpt><trkpt lat="43.4226876" lon="10.7913957"><ele>194.5</ele><time>2026-04-19T09:33:52.005Z</time></trkpt><trkpt lat="43.4228005" lon="10.7914677"><ele>194.0</ele><time>2026-04-19T09:33:53.025Z</time></trkpt><trkpt lat="43.4229085" lon="10.7915391"><ele>194.2</ele><time>2026-04-19T09:33:53.992Z</time></trkpt><trkpt lat="43.4230085" lon="10.791598"><ele>194.39999999999998</ele><time>2026-04-19T09:33:54.991Z</time></trkpt><trkpt lat="43.4231116" lon="10.7916368"><ele>194.6</ele><time>2026-04-19T09:33:55.986Z</time></trkpt><trkpt lat="43.4232177" lon="10.7916681"><ele>194.8</ele><time>2026-04-19T09:33:56.987Z</time></trkpt><trkpt lat="43.4233203" lon="10.7917044"><ele>195.0</ele><time>2026-04-19T09:33:58Z</time></trkpt><trkpt lat="43.4234085" lon="10.7917545"><ele>195.0</ele><time>2026-04-19T09:33:58.993Z</time></trkpt><trkpt lat="43.4234813" lon="10.7918105"><ele>195.0</ele><time>2026-04-19T09:34:00.029Z</time></trkpt><trkpt lat="43.4235662" lon="10.7918875"><ele>195.0</ele><time>2026-04-19T09:34:00.996Z</time></trkpt><trkpt lat="43.4236517" lon="10.7919826"><ele>195.0</ele><time>2026-04-19T09:34:01.989Z</time></trkpt><trkpt lat="43.4237528" lon="10.7920888"><ele>195.0</ele><time>2026-04-19T09:34:02.991Z</time></trkpt><trkpt lat="43.4238591" lon="10.79217"><ele>195.0</ele><time>2026-04-19T09:34:03.995Z</time></trkpt><trkpt lat="43.4239848" lon="10.7922405"><ele>195.0</ele><time>2026-04-19T09:34:04.991Z</time></trkpt><trkpt lat="43.4241183" lon="10.7923013"><ele>195.0</ele><time>2026-04-19T09:34:05.991Z</time></trkpt><trkpt lat="43.4242426" lon="10.7923608"><ele>195.0</ele><time>2026-04-19T09:34:07.008Z</time></trkpt><trkpt lat="43.4243462" lon="10.7924301"><ele>195.0</ele><time>2026-04-19T09:34:07.994Z</time></trkpt><trkpt lat="43.4244401" lon="10.7925405"><ele>195.0</ele><time>2026-04-19T09:34:09.003Z</time></trkpt><trkpt lat="43.424542" lon="10.7926807"><ele>195.0</ele><time>2026-04-19T09:34:09.999Z</time></trkpt><trkpt lat="43.4246492" lon="10.7928233"><ele>195.0</ele><time>2026-04-19T09:34:11.007Z</time></trkpt><trkpt lat="43.4247704" lon="10.792961"><ele>195.33333333333331</ele><time>2026-04-19T09:34:12.005Z</time></trkpt><trkpt lat="43.4249018" lon="10.7931066"><ele>195.66666666666666</ele><time>2026-04-19T09:34:12.999Z</time></trkpt><trkpt lat="43.4250282" lon="10.793245"><ele>196.0</ele><time>2026-04-19T09:34:14.012Z</time></trkpt><trkpt lat="43.4251271" lon="10.7933502"><ele>195.99999999999997</ele><time>2026-04-19T09:34:14.99Z</time></trkpt><trkpt lat="43.425203" lon="10.7934231"><ele>196.0</ele><time>2026-04-19T09:34:15.992Z</time></trkpt><trkpt lat="43.4252731" lon="10.7934519"><ele>196.0</ele><time>2026-04-19T09:34:17Z</time></trkpt><trkpt lat="43.4253575" lon="10.7934604"><ele>196.0</ele><time>2026-04-19T09:34:37.991Z</time></trkpt><trkpt lat="43.4254412" lon="10.7933726"><ele>195.99999999999997</ele><time>2026-04-19T09:34:39.984Z</time></trkpt><trkpt lat="43.4254796" lon="10.7932964"><ele>196.0</ele><time>2026-04-19T09:34:40.994Z</time></trkpt><trkpt lat="43.4255123" lon="10.7932054"><ele>195.4</ele><time>2026-04-19T09:34:41.983Z</time></trkpt><trkpt lat="43.4255483" lon="10.7931023"><ele>194.8</ele><time>2026-04-19T09:34:43.026Z</time></trkpt><trkpt lat="43.4255882" lon="10.7929914"><ele>194.20000000000002</ele><time>2026-04-19T09:34:44.006Z</time></trkpt><trkpt lat="43.4256368" lon="10.7928647"><ele>193.60000000000002</ele><time>2026-04-19T09:34:44.992Z</time></trkpt><trkpt lat="43.4256934" lon="10.7927284"><ele>193.0</ele><time>2026-04-19T09:34:46.002Z</time></trkpt><trkpt lat="43.4257496" lon="10.7925845"><ele>193.0</ele><time>2026-04-19T09:34:46.991Z</time></trkpt><trkpt lat="43.425811" lon="10.7924248"><ele>193.0</ele><time>2026-04-19T09:34:48.012Z</time></trkpt><trkpt lat="43.4258786" lon="10.7922675"><ele>193.0</ele><time>2026-04-19T09:34:48.987Z</time></trkpt><trkpt lat="43.4259503" lon="10.7921074"><ele>193.0</ele><time>2026-04-19T09:34:49.986Z</time></trkpt><trkpt lat="43.4260163" lon="10.7919557"><ele>192.5</ele><time>2026-04-19T09:34:50.999Z</time></trkpt><trkpt lat="43.4260849" lon="10.7918049"><ele>192.0</ele><time>2026-04-19T09:34:51.992Z</time></trkpt><trkpt lat="43.4261565" lon="10.7916434"><ele>191.5</ele><time>2026-04-19T09:34:53.008Z</time></trkpt><trkpt lat="43.4262224" lon="10.7914674"><ele>191.0</ele><time>2026-04-19T09:34:53.996Z</time></trkpt><trkpt lat="43.4262714" lon="10.7912878"><ele>189.0</ele><time>2026-04-19T09:34:55.008Z</time></trkpt><trkpt lat="43.4263149" lon="10.7910941"><ele>187.0</ele><time>2026-04-19T09:34:55.998Z</time></trkpt><trkpt lat="43.4263658" lon="10.7908985"><ele>185.0</ele><time>2026-04-19T09:34:56.998Z</time></trkpt><trkpt lat="43.4264071" lon="10.7906949"><ele>185.0</ele><time>2026-04-19T09:34:57.989Z</time></trkpt><trkpt lat="43.4264367" lon="10.7904933"><ele>185.0</ele><time>2026-04-19T09:34:58.993Z</time></trkpt><trkpt lat="43.426457" lon="10.7903101"><ele>185.0</ele><time>2026-04-19T09:34:59.994Z</time></trkpt><trkpt lat="43.4264758" lon="10.7901435"><ele>185.0</ele><time>2026-04-19T09:35:00.987Z</time></trkpt><trkpt lat="43.4265053" lon="10.789993"><ele>185.6</ele><time>2026-04-19T09:35:01.987Z</time></trkpt><trkpt lat="43.4265485" lon="10.7898726"><ele>186.2</ele><time>2026-04-19T09:35:02.996Z</time></trkpt><trkpt lat="43.4266032" lon="10.7897455"><ele>186.8</ele><time>2026-04-19T09:35:04.007Z</time></trkpt><trkpt lat="43.4266533" lon="10.7896092"><ele>187.4</ele><time>2026-04-19T09:35:05.008Z</time></trkpt><trkpt lat="43.4267066" lon="10.7894656"><ele>188.0</ele><time>2026-04-19T09:35:05.994Z</time></trkpt><trkpt lat="43.4267501" lon="10.7893217"><ele>188.60000000000002</ele><time>2026-04-19T09:35:06.984Z</time></trkpt><trkpt lat="43.4267979" lon="10.7891896"><ele>189.20000000000002</ele><time>2026-04-19T09:35:08.002Z</time></trkpt><trkpt lat="43.4268348" lon="10.7890757"><ele>189.8</ele><time>2026-04-19T09:35:08.99Z</time></trkpt><trkpt lat="43.4268587" lon="10.7889627"><ele>190.4</ele><time>2026-04-19T09:35:09.995Z</time></trkpt><trkpt lat="43.4268851" lon="10.7888414"><ele>191.0</ele><time>2026-04-19T09:35:11Z</time></trkpt><trkpt lat="43.4269017" lon="10.788698"><ele>191.0</ele><time>2026-04-19T09:35:11.992Z</time></trkpt><trkpt lat="43.4269163" lon="10.7885574"><ele>191.0</ele><time>2026-04-19T09:35:13.002Z</time></trkpt><trkpt lat="43.4269383" lon="10.788414"><ele>191.0</ele><time>2026-04-19T09:35:14.004Z</time></trkpt><trkpt lat="43.4269744" lon="10.7882751"><ele>191.0</ele><time>2026-04-19T09:35:14.991Z</time></trkpt><trkpt lat="43.427028" lon="10.7881246"><ele>191.0</ele><time>2026-04-19T09:35:15.994Z</time></trkpt><trkpt lat="43.4270927" lon="10.7879781"><ele>191.25</ele><time>2026-04-19T09:35:16.998Z</time></trkpt><trkpt lat="43.4271654" lon="10.7878391"><ele>191.5</ele><time>2026-04-19T09:35:18.006Z</time></trkpt><trkpt lat="43.4272506" lon="10.7876892"><ele>191.75</ele><time>2026-04-19T09:35:18.994Z</time></trkpt><trkpt lat="43.4273333" lon="10.7875481"><ele>192.0</ele><time>2026-04-19T09:35:20.002Z</time></trkpt><trkpt lat="43.4274302" lon="10.7874074"><ele>194.0</ele><time>2026-04-19T09:35:20.988Z</time></trkpt><trkpt lat="43.4275188" lon="10.7872999"><ele>196.0</ele><time>2026-04-19T09:35:21.99Z</time></trkpt><trkpt lat="43.4275988" lon="10.7872114"><ele>198.0</ele><time>2026-04-19T09:35:22.996Z</time></trkpt><trkpt lat="43.4276739" lon="10.7871532"><ele>200.0</ele><time>2026-04-19T09:35:23.996Z</time></trkpt><trkpt lat="43.4277606" lon="10.7871173"><ele>202.0</ele><time>2026-04-19T09:35:24.995Z</time></trkpt><trkpt lat="43.4278612" lon="10.7870851"><ele>202.0</ele><time>2026-04-19T09:35:25.996Z</time></trkpt><trkpt lat="43.4279723" lon="10.7870396"><ele>202.0</ele><time>2026-04-19T09:35:26.995Z</time></trkpt><trkpt lat="43.4280926" lon="10.7869904"><ele>202.0</ele><time>2026-04-19T09:35:28.02Z</time></trkpt><trkpt lat="43.4282205" lon="10.7869366"><ele>202.0</ele><time>2026-04-19T09:35:28.993Z</time></trkpt><trkpt lat="43.4283466" lon="10.7868909"><ele>203.0</ele><time>2026-04-19T09:35:29.998Z</time></trkpt><trkpt lat="43.4284611" lon="10.7868443"><ele>204.0</ele><time>2026-04-19T09:35:30.994Z</time></trkpt><trkpt lat="43.428565" lon="10.7868198"><ele>205.0</ele><time>2026-04-19T09:35:31.991Z</time></trkpt><trkpt lat="43.4286576" lon="10.7868225"><ele>206.0</ele><time>2026-04-19T09:35:32.989Z</time></trkpt><trkpt lat="43.4287452" lon="10.7868625"><ele>207.0</ele><time>2026-04-19T09:35:33.985Z</time></trkpt><trkpt lat="43.4288188" lon="10.7869372"><ele>208.25</ele><time>2026-04-19T09:35:34.989Z</time></trkpt><trkpt lat="43.4289002" lon="10.7870278"><ele>209.5</ele><time>2026-04-19T09:35:35.99Z</time></trkpt><trkpt lat="43.4290039" lon="10.7871348"><ele>210.75</ele><time>2026-04-19T09:35:36.985Z</time></trkpt><trkpt lat="43.4291076" lon="10.78722"><ele>212.0</ele><time>2026-04-19T09:35:37.99Z</time></trkpt><trkpt lat="43.4292108" lon="10.7872728"><ele>212.0</ele><time>2026-04-19T09:35:38.991Z</time></trkpt><trkpt lat="43.4293222" lon="10.7873107"><ele>212.0</ele><time>2026-04-19T09:35:39.992Z</time></trkpt><trkpt lat="43.4294513" lon="10.7873402"><ele>212.0</ele><time>2026-04-19T09:35:40.997Z</time></trkpt><trkpt lat="43.4295915" lon="10.7873566"><ele>212.0</ele><time>2026-04-19T09:35:41.985Z</time></trkpt><trkpt lat="43.4297198" lon="10.7873805"><ele>210.8</ele><time>2026-04-19T09:35:43.022Z</time></trkpt><trkpt lat="43.4298341" lon="10.7873945"><ele>209.6</ele><time>2026-04-19T09:35:43.993Z</time></trkpt><trkpt lat="43.4299374" lon="10.7874051"><ele>208.4</ele><time>2026-04-19T09:35:44.987Z</time></trkpt><trkpt lat="43.4300327" lon="10.7874212"><ele>207.20000000000002</ele><time>2026-04-19T09:35:45.998Z</time></trkpt><trkpt lat="43.4301284" lon="10.7874632"><ele>206.0</ele><time>2026-04-19T09:35:46.989Z</time></trkpt><trkpt lat="43.4302306" lon="10.7875299"><ele>206.0</ele><time>2026-04-19T09:35:48.013Z</time></trkpt><trkpt lat="43.4303331" lon="10.7876173"><ele>206.0</ele><time>2026-04-19T09:35:48.998Z</time></trkpt><trkpt lat="43.4304354" lon="10.7877097"><ele>206.0</ele><time>2026-04-19T09:35:49.998Z</time></trkpt><trkpt lat="43.4305435" lon="10.7877925"><ele>206.0</ele><time>2026-04-19T09:35:50.99Z</time></trkpt><trkpt lat="43.4306461" lon="10.7878427"><ele>203.75</ele><time>2026-04-19T09:35:51.999Z</time></trkpt><trkpt lat="43.4307484" lon="10.7878742"><ele>201.5</ele><time>2026-04-19T09:35:52.989Z</time></trkpt><trkpt lat="43.4308648" lon="10.7878489"><ele>199.25</ele><time>2026-04-19T09:35:53.995Z</time></trkpt><trkpt lat="43.4309949" lon="10.7878215"><ele>197.0</ele><time>2026-04-19T09:35:55.026Z</time></trkpt><trkpt lat="43.4311549" lon="10.7877742"><ele>197.33333333333334</ele><time>2026-04-19T09:35:55.996Z</time></trkpt><trkpt lat="43.431317" lon="10.7877305"><ele>197.66666666666669</ele><time>2026-04-19T09:35:56.99Z</time></trkpt><trkpt lat="43.4314736" lon="10.7876798"><ele>198.0</ele><time>2026-04-19T09:35:57.995Z</time></trkpt><trkpt lat="43.4316169" lon="10.7876385"><ele>198.0</ele><time>2026-04-19T09:35:59.005Z</time></trkpt><trkpt lat="43.4317513" lon="10.7875971"><ele>198.0</ele><time>2026-04-19T09:35:59.995Z</time></trkpt><trkpt lat="43.4318622" lon="10.787555"><ele>198.0</ele><time>2026-04-19T09:36:00.985Z</time></trkpt><trkpt lat="43.431965" lon="10.7874925"><ele>198.0</ele><time>2026-04-19T09:36:01.993Z</time></trkpt><trkpt lat="43.4320626" lon="10.7874131"><ele>196.83333333333334</ele><time>2026-04-19T09:36:02.994Z</time></trkpt><trkpt lat="43.4321423" lon="10.7873473"><ele>195.66666666666666</ele><time>2026-04-19T09:36:04.024Z</time></trkpt><trkpt lat="43.4322091" lon="10.7872884"><ele>194.5</ele><time>2026-04-19T09:36:04.989Z</time></trkpt><trkpt lat="43.4322668" lon="10.7872257"><ele>193.33333333333331</ele><time>2026-04-19T09:36:05.997Z</time></trkpt><trkpt lat="43.4323198" lon="10.7871469"><ele>192.16666666666666</ele><time>2026-04-19T09:36:06.996Z</time></trkpt><trkpt lat="43.4323757" lon="10.7870508"><ele>191.0</ele><time>2026-04-19T09:36:07.996Z</time></trkpt><trkpt lat="43.432424" lon="10.7869219"><ele>191.0</ele><time>2026-04-19T09:36:09.003Z</time></trkpt><trkpt lat="43.4324892" lon="10.7867966"><ele>191.0</ele><time>2026-04-19T09:36:09.99Z</time></trkpt><trkpt lat="43.4325617" lon="10.7866758"><ele>191.0</ele><time>2026-04-19T09:36:10.995Z</time></trkpt><trkpt lat="43.4326392" lon="10.7865417"><ele>191.0</ele><time>2026-04-19T09:36:11.991Z</time></trkpt><trkpt lat="43.4327267" lon="10.7864097"><ele>191.0</ele><time>2026-04-19T09:36:12.997Z</time></trkpt><trkpt lat="43.4328261" lon="10.7862762"><ele>191.0</ele><time>2026-04-19T09:36:13.992Z</time></trkpt><trkpt lat="43.4329339" lon="10.7861365"><ele>191.0</ele><time>2026-04-19T09:36:14.992Z</time></trkpt><trkpt lat="43.4330424" lon="10.7859971"><ele>191.0</ele><time>2026-04-19T09:36:15.989Z</time></trkpt><trkpt lat="43.4331503" lon="10.7858578"><ele>189.5</ele><time>2026-04-19T09:36:16.995Z</time></trkpt><trkpt lat="43.4332405" lon="10.7857257"><ele>188.0</ele><time>2026-04-19T09:36:18.002Z</time></trkpt><trkpt lat="43.4333378" lon="10.7855996"><ele>186.5</ele><time>2026-04-19T09:36:18.985Z</time></trkpt><trkpt lat="43.4334468" lon="10.7854841"><ele>185.0</ele><time>2026-04-19T09:36:19.993Z</time></trkpt><trkpt lat="43.4335692" lon="10.7853718"><ele>185.0</ele><time>2026-04-19T09:36:20.995Z</time></trkpt><trkpt lat="43.4336898" lon="10.7852585"><ele>185.0</ele><time>2026-04-19T09:36:21.985Z</time></trkpt><trkpt lat="43.433808" lon="10.7851391"><ele>185.0</ele><time>2026-04-19T09:36:22.988Z</time></trkpt><trkpt lat="43.4339217" lon="10.785022"><ele>185.0</ele><time>2026-04-19T09:36:23.989Z</time></trkpt><trkpt lat="43.4340349" lon="10.7849"><ele>181.0</ele><time>2026-04-19T09:36:24.991Z</time></trkpt><trkpt lat="43.4341488" lon="10.7847591"><ele>177.0</ele><time>2026-04-19T09:36:25.997Z</time></trkpt><trkpt lat="43.4342533" lon="10.7846009"><ele>173.0</ele><time>2026-04-19T09:36:26.99Z</time></trkpt><trkpt lat="43.4343625" lon="10.7844188"><ele>172.33333333333331</ele><time>2026-04-19T09:36:27.988Z</time></trkpt><trkpt lat="43.434467" lon="10.7842236"><ele>171.66666666666666</ele><time>2026-04-19T09:36:28.992Z</time></trkpt><trkpt lat="43.4345846" lon="10.7840297"><ele>171.0</ele><time>2026-04-19T09:36:29.998Z</time></trkpt><trkpt lat="43.4346993" lon="10.7838419"><ele>169.66666666666666</ele><time>2026-04-19T09:36:31.007Z</time></trkpt><trkpt lat="43.4348155" lon="10.783675"><ele>168.33333333333331</ele><time>2026-04-19T09:36:31.99Z</time></trkpt><trkpt lat="43.4349226" lon="10.7834899"><ele>167.0</ele><time>2026-04-19T09:36:33.026Z</time></trkpt><trkpt lat="43.435024" lon="10.7833083"><ele>167.0</ele><time>2026-04-19T09:36:33.988Z</time></trkpt><trkpt lat="43.4351253" lon="10.7831391"><ele>167.0</ele><time>2026-04-19T09:36:34.996Z</time></trkpt><trkpt lat="43.4352141" lon="10.7829621"><ele>167.0</ele><time>2026-04-19T09:36:35.993Z</time></trkpt><trkpt lat="43.4352937" lon="10.7827832"><ele>166.66666666666666</ele><time>2026-04-19T09:36:36.994Z</time></trkpt><trkpt lat="43.4353808" lon="10.7826054"><ele>166.33333333333334</ele><time>2026-04-19T09:36:38Z</time></trkpt><trkpt lat="43.4354599" lon="10.7824285"><ele>166.0</ele><time>2026-04-19T09:36:39.003Z</time></trkpt><trkpt lat="43.4355533" lon="10.7822532"><ele>167.0</ele><time>2026-04-19T09:36:40.001Z</time></trkpt><trkpt lat="43.4356607" lon="10.7820826"><ele>168.0</ele><time>2026-04-19T09:36:40.985Z</time></trkpt><trkpt lat="43.4357835" lon="10.7819301"><ele>169.0</ele><time>2026-04-19T09:36:41.996Z</time></trkpt><trkpt lat="43.4359056" lon="10.7817886"><ele>169.0</ele><time>2026-04-19T09:36:42.993Z</time></trkpt><trkpt lat="43.4360302" lon="10.7816447"><ele>169.0</ele><time>2026-04-19T09:36:44.001Z</time></trkpt><trkpt lat="43.4361529" lon="10.7814964"><ele>169.0</ele><time>2026-04-19T09:36:44.991Z</time></trkpt><trkpt lat="43.4362662" lon="10.7813429"><ele>167.33333333333334</ele><time>2026-04-19T09:36:45.997Z</time></trkpt><trkpt lat="43.4363814" lon="10.7811954"><ele>165.66666666666666</ele><time>2026-04-19T09:36:46.995Z</time></trkpt><trkpt lat="43.4364995" lon="10.7810391"><ele>164.0</ele><time>2026-04-19T09:36:48.002Z</time></trkpt><trkpt lat="43.4366179" lon="10.7808797"><ele>164.0</ele><time>2026-04-19T09:36:48.994Z</time></trkpt><trkpt lat="43.4367354" lon="10.7807063"><ele>164.0</ele><time>2026-04-19T09:36:49.995Z</time></trkpt><trkpt lat="43.4368479" lon="10.7805269"><ele>164.0</ele><time>2026-04-19T09:36:50.99Z</time></trkpt><trkpt lat="43.436957" lon="10.7803574"><ele>164.0</ele><time>2026-04-19T09:36:52.034Z</time></trkpt><trkpt lat="43.4370504" lon="10.7802075"><ele>164.0</ele><time>2026-04-19T09:36:52.994Z</time></trkpt><trkpt lat="43.4371328" lon="10.7800784"><ele>164.0</ele><time>2026-04-19T09:36:53.995Z</time></trkpt><trkpt lat="43.4372176" lon="10.7799849"><ele>164.0</ele><time>2026-04-19T09:36:54.989Z</time></trkpt><trkpt lat="43.4373045" lon="10.7799269"><ele>162.83333333333331</ele><time>2026-04-19T09:36:55.996Z</time></trkpt><trkpt lat="43.437394" lon="10.7798922"><ele>161.66666666666666</ele><time>2026-04-19T09:36:57.004Z</time></trkpt><trkpt lat="43.437474" lon="10.7798851"><ele>160.5</ele><time>2026-04-19T09:36:57.992Z</time></trkpt><trkpt lat="43.4375554" lon="10.7798944"><ele>159.33333333333334</ele><time>2026-04-19T09:36:59.002Z</time></trkpt><trkpt lat="43.4376386" lon="10.779932"><ele>158.16666666666669</ele><time>2026-04-19T09:37:00.006Z</time></trkpt><trkpt lat="43.4377208" lon="10.7799708"><ele>157.0</ele><time>2026-04-19T09:37:00.99Z</time></trkpt><trkpt lat="43.4378018" lon="10.7800067"><ele>157.0</ele><time>2026-04-19T09:37:01.996Z</time></trkpt><trkpt lat="43.43788" lon="10.7800517"><ele>157.0</ele><time>2026-04-19T09:37:03.01Z</time></trkpt><trkpt lat="43.4379533" lon="10.7800999"><ele>157.0</ele><time>2026-04-19T09:37:04.005Z</time></trkpt><trkpt lat="43.4380287" lon="10.7801465"><ele>157.0</ele><time>2026-04-19T09:37:05.018Z</time></trkpt><trkpt lat="43.4381014" lon="10.7801883"><ele>157.0</ele><time>2026-04-19T09:37:05.994Z</time></trkpt><trkpt lat="43.4381814" lon="10.7802348"><ele>157.0</ele><time>2026-04-19T09:37:06.986Z</time></trkpt><trkpt lat="43.4382651" lon="10.7802781"><ele>156.2</ele><time>2026-04-19T09:37:07.996Z</time></trkpt><trkpt lat="43.4383581" lon="10.7803251"><ele>155.39999999999998</ele><time>2026-04-19T09:37:09.001Z</time></trkpt><trkpt lat="43.4384527" lon="10.780386"><ele>154.60000000000002</ele><time>2026-04-19T09:37:09.992Z</time></trkpt><trkpt lat="43.4385484" lon="10.7804402"><ele>153.8</ele><time>2026-04-19T09:37:10.996Z</time></trkpt><trkpt lat="43.4386527" lon="10.7804944"><ele>153.0</ele><time>2026-04-19T09:37:11.996Z</time></trkpt><trkpt lat="43.4387618" lon="10.7805577"><ele>152.75</ele><time>2026-04-19T09:37:12.994Z</time></trkpt><trkpt lat="43.4388752" lon="10.7806179"><ele>152.5</ele><time>2026-04-19T09:37:13.998Z</time></trkpt><trkpt lat="43.4389922" lon="10.7806687"><ele>152.25</ele><time>2026-04-19T09:37:14.991Z</time></trkpt><trkpt lat="43.4391239" lon="10.7807019"><ele>152.0</ele><time>2026-04-19T09:37:16.019Z</time></trkpt><trkpt lat="43.4392703" lon="10.7807246"><ele>152.0</ele><time>2026-04-19T09:37:16.992Z</time></trkpt><trkpt lat="43.4394214" lon="10.7807329"><ele>152.0</ele><time>2026-04-19T09:37:17.999Z</time></trkpt><trkpt lat="43.4395808" lon="10.780752"><ele>152.0</ele><time>2026-04-19T09:37:18.996Z</time></trkpt><trkpt lat="43.4397491" lon="10.7807702"><ele>151.0</ele><time>2026-04-19T09:37:20.004Z</time></trkpt><trkpt lat="43.4399166" lon="10.7807863"><ele>150.0</ele><time>2026-04-19T09:37:20.992Z</time></trkpt><trkpt lat="43.4400877" lon="10.7808005"><ele>149.0</ele><time>2026-04-19T09:37:21.993Z</time></trkpt><trkpt lat="43.4402579" lon="10.7808131"><ele>149.0</ele><time>2026-04-19T09:37:22.995Z</time></trkpt><trkpt lat="43.4404324" lon="10.7808281"><ele>149.0</ele><time>2026-04-19T09:37:23.996Z</time></trkpt><trkpt lat="43.4406062" lon="10.7808448"><ele>149.0</ele><time>2026-04-19T09:37:24.997Z</time></trkpt><trkpt lat="43.4407742" lon="10.7808626"><ele>150.0</ele><time>2026-04-19T09:37:25.992Z</time></trkpt><trkpt lat="43.4409353" lon="10.7808841"><ele>151.0</ele><time>2026-04-19T09:37:27.006Z</time></trkpt><trkpt lat="43.4410813" lon="10.7808971"><ele>152.0</ele><time>2026-04-19T09:37:27.989Z</time></trkpt><trkpt lat="43.4412104" lon="10.780899"><ele>153.0</ele><time>2026-04-19T09:37:29.006Z</time></trkpt><trkpt lat="43.4413225" lon="10.7809008"><ele>153.8</ele><time>2026-04-19T09:37:29.992Z</time></trkpt><trkpt lat="43.4414261" lon="10.7808711"><ele>154.60000000000002</ele><time>2026-04-19T09:37:30.998Z</time></trkpt><trkpt lat="43.4415208" lon="10.7808056"><ele>155.39999999999998</ele><time>2026-04-19T09:37:32.001Z</time></trkpt><trkpt lat="43.4416122" lon="10.7807191"><ele>156.2</ele><time>2026-04-19T09:37:33.004Z</time></trkpt><trkpt lat="43.4417084" lon="10.7806296"><ele>157.0</ele><time>2026-04-19T09:37:33.99Z</time></trkpt><trkpt lat="43.4418041" lon="10.7805627"><ele>157.0</ele><time>2026-04-19T09:37:34.991Z</time></trkpt><trkpt lat="43.4418927" lon="10.7805148"><ele>157.0</ele><time>2026-04-19T09:37:36.001Z</time></trkpt><trkpt lat="43.4419747" lon="10.7804949"><ele>157.0</ele><time>2026-04-19T09:37:36.995Z</time></trkpt><trkpt lat="43.4420562" lon="10.7805205"><ele>157.0</ele><time>2026-04-19T09:37:37.987Z</time></trkpt><trkpt lat="43.4421582" lon="10.780587"><ele>157.0</ele><time>2026-04-19T09:37:38.996Z</time></trkpt><trkpt lat="43.4422639" lon="10.7806491"><ele>155.0</ele><time>2026-04-19T09:37:39.996Z</time></trkpt><trkpt lat="43.4423535" lon="10.7807107"><ele>153.0</ele><time>2026-04-19T09:37:40.994Z</time></trkpt><trkpt lat="43.442443" lon="10.780754"><ele>151.0</ele><time>2026-04-19T09:37:41.997Z</time></trkpt><trkpt lat="43.4425244" lon="10.7807715"><ele>149.0</ele><time>2026-04-19T09:37:43.009Z</time></trkpt><trkpt lat="43.4426126" lon="10.7807512"><ele>147.0</ele><time>2026-04-19T09:37:44.001Z</time></trkpt><trkpt lat="43.4426985" lon="10.7806941"><ele>147.0</ele><time>2026-04-19T09:37:45.002Z</time></trkpt><trkpt lat="43.4427967" lon="10.7806015"><ele>147.0</ele><time>2026-04-19T09:37:45.993Z</time></trkpt><trkpt lat="43.4428961" lon="10.7804829"><ele>147.0</ele><time>2026-04-19T09:37:46.98Z</time></trkpt><trkpt lat="43.4430052" lon="10.7803607"><ele>147.0</ele><time>2026-04-19T09:37:47.985Z</time></trkpt><trkpt lat="43.4431225" lon="10.7802449"><ele>144.75</ele><time>2026-04-19T09:37:48.986Z</time></trkpt><trkpt lat="43.443237" lon="10.7801259"><ele>142.5</ele><time>2026-04-19T09:37:49.987Z</time></trkpt><trkpt lat="43.4433626" lon="10.7800076"><ele>140.25</ele><time>2026-04-19T09:37:50.993Z</time></trkpt><trkpt lat="43.4434878" lon="10.7798881"><ele>138.0</ele><time>2026-04-19T09:37:51.99Z</time></trkpt><trkpt lat="43.4436188" lon="10.7797609"><ele>138.0</ele><time>2026-04-19T09:37:52.99Z</time></trkpt><trkpt lat="43.4437354" lon="10.7796396"><ele>138.0</ele><time>2026-04-19T09:37:53.998Z</time></trkpt><trkpt lat="43.4438405" lon="10.7795266"><ele>138.0</ele><time>2026-04-19T09:37:54.996Z</time></trkpt><trkpt lat="43.4439508" lon="10.7794224"><ele>138.0</ele><time>2026-04-19T09:37:56.006Z</time></trkpt><trkpt lat="43.4440506" lon="10.7793184"><ele>136.25</ele><time>2026-04-19T09:37:57.001Z</time></trkpt><trkpt lat="43.4441498" lon="10.7792308"><ele>134.5</ele><time>2026-04-19T09:37:58.006Z</time></trkpt><trkpt lat="43.4442386" lon="10.7791473"><ele>132.75</ele><time>2026-04-19T09:37:59Z</time></trkpt><trkpt lat="43.4443365" lon="10.7790681"><ele>131.0</ele><time>2026-04-19T09:37:59.999Z</time></trkpt><trkpt lat="43.444436" lon="10.7789865"><ele>131.0</ele><time>2026-04-19T09:38:01Z</time></trkpt><trkpt lat="43.4445447" lon="10.7789042"><ele>131.0</ele><time>2026-04-19T09:38:01.996Z</time></trkpt><trkpt lat="43.4446526" lon="10.7788215"><ele>131.0</ele><time>2026-04-19T09:38:02.999Z</time></trkpt><trkpt lat="43.4447628" lon="10.7787407"><ele>131.0</ele><time>2026-04-19T09:38:03.991Z</time></trkpt><trkpt lat="43.4448697" lon="10.7786562"><ele>129.6</ele><time>2026-04-19T09:38:04.995Z</time></trkpt><trkpt lat="43.4449714" lon="10.7785721"><ele>128.2</ele><time>2026-04-19T09:38:05.996Z</time></trkpt><trkpt lat="43.4450682" lon="10.7785084"><ele>126.80000000000001</ele><time>2026-04-19T09:38:07.007Z</time></trkpt><trkpt lat="43.4451543" lon="10.7784365"><ele>125.4</ele><time>2026-04-19T09:38:07.993Z</time></trkpt><trkpt lat="43.445244" lon="10.778361"><ele>124.0</ele><time>2026-04-19T09:38:08.994Z</time></trkpt><trkpt lat="43.4453267" lon="10.7783056"><ele>123.6</ele><time>2026-04-19T09:38:10.003Z</time></trkpt><trkpt lat="43.4454191" lon="10.7782819"><ele>123.2</ele><time>2026-04-19T09:38:10.985Z</time></trkpt><trkpt lat="43.4455119" lon="10.778296"><ele>122.79999999999998</ele><time>2026-04-19T09:38:12Z</time></trkpt><trkpt lat="43.4456285" lon="10.7783274"><ele>122.39999999999999</ele><time>2026-04-19T09:38:12.997Z</time></trkpt><trkpt lat="43.4457354" lon="10.7783751"><ele>122.0</ele><time>2026-04-19T09:38:13.998Z</time></trkpt><trkpt lat="43.4458587" lon="10.7784315"><ele>122.25</ele><time>2026-04-19T09:38:14.987Z</time></trkpt><trkpt lat="43.4459829" lon="10.7784856"><ele>122.5</ele><time>2026-04-19T09:38:15.992Z</time></trkpt><trkpt lat="43.4461093" lon="10.7785423"><ele>122.75</ele><time>2026-04-19T09:38:16.989Z</time></trkpt><trkpt lat="43.4462423" lon="10.7785925"><ele>123.0</ele><time>2026-04-19T09:38:17.999Z</time></trkpt><trkpt lat="43.446378" lon="10.7786493"><ele>123.0</ele><time>2026-04-19T09:38:18.994Z</time></trkpt><trkpt lat="43.4465156" lon="10.778688"><ele>123.0</ele><time>2026-04-19T09:38:19.995Z</time></trkpt><trkpt lat="43.4466535" lon="10.7787078"><ele>123.0</ele><time>2026-04-19T09:38:20.98Z</time></trkpt><trkpt lat="43.4467732" lon="10.7787148"><ele>123.0</ele><time>2026-04-19T09:38:21.987Z</time></trkpt><trkpt lat="43.4468931" lon="10.7787212"><ele>123.0</ele><time>2026-04-19T09:38:22.989Z</time></trkpt><trkpt lat="43.4470202" lon="10.7787358"><ele>123.0</ele><time>2026-04-19T09:38:23.985Z</time></trkpt><trkpt lat="43.4471509" lon="10.7787698"><ele>123.0</ele><time>2026-04-19T09:38:25.002Z</time></trkpt><trkpt lat="43.4472873" lon="10.7788116"><ele>123.0</ele><time>2026-04-19T09:38:25.992Z</time></trkpt><trkpt lat="43.4474122" lon="10.7788638"><ele>123.75</ele><time>2026-04-19T09:38:26.994Z</time></trkpt><trkpt lat="43.4475303" lon="10.7789131"><ele>124.5</ele><time>2026-04-19T09:38:27.988Z</time></trkpt><trkpt lat="43.447641" lon="10.7789546"><ele>125.25</ele><time>2026-04-19T09:38:29.018Z</time></trkpt><trkpt lat="43.4477405" lon="10.7789847"><ele>126.0</ele><time>2026-04-19T09:38:29.993Z</time></trkpt><trkpt lat="43.4478582" lon="10.7789909"><ele>124.0</ele><time>2026-04-19T09:38:30.999Z</time></trkpt><trkpt lat="43.447989" lon="10.778953"><ele>122.0</ele><time>2026-04-19T09:38:31.99Z</time></trkpt><trkpt lat="43.4481263" lon="10.7789134"><ele>120.0</ele><time>2026-04-19T09:38:32.987Z</time></trkpt><trkpt lat="43.4482862" lon="10.7788584"><ele>118.0</ele><time>2026-04-19T09:38:33.997Z</time></trkpt><trkpt lat="43.4484606" lon="10.7788056"><ele>118.0</ele><time>2026-04-19T09:38:34.988Z</time></trkpt><trkpt lat="43.4486402" lon="10.778754"><ele>118.0</ele><time>2026-04-19T09:38:35.988Z</time></trkpt><trkpt lat="43.4488276" lon="10.7786878"><ele>118.0</ele><time>2026-04-19T09:38:36.991Z</time></trkpt><trkpt lat="43.4490179" lon="10.7786215"><ele>116.66666666666667</ele><time>2026-04-19T09:38:37.987Z</time></trkpt><trkpt lat="43.4492166" lon="10.778555"><ele>115.33333333333334</ele><time>2026-04-19T09:38:38.99Z</time></trkpt><trkpt lat="43.4494096" lon="10.7784893"><ele>114.0</ele><time>2026-04-19T09:38:39.992Z</time></trkpt><trkpt lat="43.4495942" lon="10.778432"><ele>116.33333333333334</ele><time>2026-04-19T09:38:40.995Z</time></trkpt><trkpt lat="43.4497741" lon="10.7783779"><ele>118.66666666666667</ele><time>2026-04-19T09:38:41.988Z</time></trkpt><trkpt lat="43.4499398" lon="10.7783154"><ele>121.0</ele><time>2026-04-19T09:38:43.005Z</time></trkpt><trkpt lat="43.4500922" lon="10.7782518"><ele>121.0</ele><time>2026-04-19T09:38:43.988Z</time></trkpt><trkpt lat="43.4502371" lon="10.7782037"><ele>121.0</ele><time>2026-04-19T09:38:44.994Z</time></trkpt><trkpt lat="43.4503827" lon="10.7781533"><ele>121.0</ele><time>2026-04-19T09:38:45.992Z</time></trkpt><trkpt lat="43.4505239" lon="10.7781167"><ele>121.0</ele><time>2026-04-19T09:38:47Z</time></trkpt><trkpt lat="43.4506394" lon="10.7780858"><ele>123.75</ele><time>2026-04-19T09:38:47.988Z</time></trkpt><trkpt lat="43.4507478" lon="10.7780622"><ele>126.5</ele><time>2026-04-19T09:38:48.993Z</time></trkpt><trkpt lat="43.4508566" lon="10.7780594"><ele>129.25</ele><time>2026-04-19T09:38:49.992Z</time></trkpt><trkpt lat="43.4509727" lon="10.7780868"><ele>132.0</ele><time>2026-04-19T09:38:50.997Z</time></trkpt><trkpt lat="43.4510895" lon="10.7781247"><ele>132.0</ele><time>2026-04-19T09:38:51.993Z</time></trkpt><trkpt lat="43.4512206" lon="10.7781639"><ele>132.0</ele><time>2026-04-19T09:38:53.004Z</time></trkpt><trkpt lat="43.4513567" lon="10.7782101"><ele>132.0</ele><time>2026-04-19T09:38:53.996Z</time></trkpt><trkpt lat="43.4514979" lon="10.7782569"><ele>132.0</ele><time>2026-04-19T09:38:54.995Z</time></trkpt><trkpt lat="43.4516281" lon="10.7782968"><ele>132.0</ele><time>2026-04-19T09:38:55.997Z</time></trkpt><trkpt lat="43.4517416" lon="10.7783367"><ele>132.0</ele><time>2026-04-19T09:38:57.012Z</time></trkpt><trkpt lat="43.4518342" lon="10.778376"><ele>132.0</ele><time>2026-04-19T09:38:57.993Z</time></trkpt><trkpt lat="43.4519193" lon="10.7784025"><ele>132.0</ele><time>2026-04-19T09:38:58.999Z</time></trkpt><trkpt lat="43.4519932" lon="10.7784198"><ele>132.0</ele><time>2026-04-19T09:38:59.999Z</time></trkpt><trkpt lat="43.4521144" lon="10.7783629"><ele>130.5</ele><time>2026-04-19T09:39:01.998Z</time></trkpt><trkpt lat="43.452188" lon="10.7783064"><ele>129.0</ele><time>2026-04-19T09:39:02.998Z</time></trkpt><trkpt lat="43.452259" lon="10.7782546"><ele>127.5</ele><time>2026-04-19T09:39:03.996Z</time></trkpt><trkpt lat="43.4523195" lon="10.7782163"><ele>126.0</ele><time>2026-04-19T09:39:04.992Z</time></trkpt><trkpt lat="43.4524059" lon="10.7781727"><ele>124.5</ele><time>2026-04-19T09:39:07.009Z</time></trkpt><trkpt lat="43.4524738" lon="10.7782341"><ele>123.0</ele><time>2026-04-19T09:39:09.016Z</time></trkpt><trkpt lat="43.452499" lon="10.7783832"><ele>123.0</ele><time>2026-04-19T09:39:10.998Z</time></trkpt><trkpt lat="43.4524974" lon="10.7785052"><ele>123.00000000000001</ele><time>2026-04-19T09:39:11.99Z</time></trkpt><trkpt lat="43.4524922" lon="10.7786346"><ele>123.00000000000001</ele><time>2026-04-19T09:39:13Z</time></trkpt><trkpt lat="43.4524861" lon="10.77878"><ele>123.0</ele><time>2026-04-19T09:39:13.988Z</time></trkpt><trkpt lat="43.4524861" lon="10.7789313"><ele>123.0</ele><time>2026-04-19T09:39:15.006Z</time></trkpt><trkpt lat="43.4525098" lon="10.7790903"><ele>123.5</ele><time>2026-04-19T09:39:15.994Z</time></trkpt><trkpt lat="43.4525474" lon="10.7792634"><ele>124.0</ele><time>2026-04-19T09:39:17.002Z</time></trkpt><trkpt lat="43.4525931" lon="10.77944"><ele>124.5</ele><time>2026-04-19T09:39:17.987Z</time></trkpt><trkpt lat="43.4526559" lon="10.7796185"><ele>125.0</ele><time>2026-04-19T09:39:18.992Z</time></trkpt><trkpt lat="43.4527337" lon="10.7797899"><ele>125.0</ele><time>2026-04-19T09:39:20.007Z</time></trkpt><trkpt lat="43.4528113" lon="10.7799637"><ele>125.0</ele><time>2026-04-19T09:39:20.985Z</time></trkpt><trkpt lat="43.4528849" lon="10.7801367"><ele>125.0</ele><time>2026-04-19T09:39:21.992Z</time></trkpt><trkpt lat="43.4529544" lon="10.780304"><ele>125.0</ele><time>2026-04-19T09:39:22.983Z</time></trkpt><trkpt lat="43.4530157" lon="10.7804419"><ele>125.0</ele><time>2026-04-19T09:39:23.984Z</time></trkpt><trkpt lat="43.4530731" lon="10.7805629"><ele>125.0</ele><time>2026-04-19T09:39:24.993Z</time></trkpt><trkpt lat="43.4531215" lon="10.7806715"><ele>125.0</ele><time>2026-04-19T09:39:25.996Z</time></trkpt><trkpt lat="43.4531728" lon="10.7807869"><ele>125.0</ele><time>2026-04-19T09:39:26.99Z</time></trkpt><trkpt lat="43.4532391" lon="10.7809039"><ele>125.0</ele><time>2026-04-19T09:39:28Z</time></trkpt><trkpt lat="43.4533226" lon="10.7810184"><ele>125.75</ele><time>2026-04-19T09:39:28.998Z</time></trkpt><trkpt lat="43.4534266" lon="10.7811044"><ele>126.5</ele><time>2026-04-19T09:39:29.986Z</time></trkpt><trkpt lat="43.4535484" lon="10.7811718"><ele>127.25</ele><time>2026-04-19T09:39:30.992Z</time></trkpt><trkpt lat="43.4536852" lon="10.7812155"><ele>128.0</ele><time>2026-04-19T09:39:31.989Z</time></trkpt><trkpt lat="43.4538136" lon="10.7812575"><ele>126.25</ele><time>2026-04-19T09:39:32.99Z</time></trkpt><trkpt lat="43.4539391" lon="10.781296"><ele>124.5</ele><time>2026-04-19T09:39:33.984Z</time></trkpt><trkpt lat="43.4540713" lon="10.7813295"><ele>122.75</ele><time>2026-04-19T09:39:34.99Z</time></trkpt><trkpt lat="43.4542036" lon="10.7813487"><ele>121.0</ele><time>2026-04-19T09:39:35.999Z</time></trkpt><trkpt lat="43.4543238" lon="10.7813609"><ele>121.0</ele><time>2026-04-19T09:39:36.997Z</time></trkpt><trkpt lat="43.4544388" lon="10.7813477"><ele>121.0</ele><time>2026-04-19T09:39:38.002Z</time></trkpt><trkpt lat="43.4545509" lon="10.7813287"><ele>121.0</ele><time>2026-04-19T09:39:38.99Z</time></trkpt><trkpt lat="43.4546427" lon="10.7812882"><ele>121.0</ele><time>2026-04-19T09:39:39.984Z</time></trkpt><trkpt lat="43.454727" lon="10.7812229"><ele>121.0</ele><time>2026-04-19T09:39:40.993Z</time></trkpt><trkpt lat="43.4548145" lon="10.7811328"><ele>120.19999999999999</ele><time>2026-04-19T09:39:41.992Z</time></trkpt><trkpt lat="43.4549009" lon="10.7810292"><ele>119.39999999999999</ele><time>2026-04-19T09:39:42.986Z</time></trkpt><trkpt lat="43.4549745" lon="10.7809403"><ele>118.6</ele><time>2026-04-19T09:39:43.983Z</time></trkpt><trkpt lat="43.4550546" lon="10.7808614"><ele>117.8</ele><time>2026-04-19T09:39:44.995Z</time></trkpt><trkpt lat="43.4551368" lon="10.7807899"><ele>117.0</ele><time>2026-04-19T09:39:46.012Z</time></trkpt><trkpt lat="43.4552111" lon="10.7807359"><ele>114.8</ele><time>2026-04-19T09:39:46.985Z</time></trkpt><trkpt lat="43.4552882" lon="10.7807138"><ele>112.6</ele><time>2026-04-19T09:39:48.001Z</time></trkpt><trkpt lat="43.4553828" lon="10.7807245"><ele>110.39999999999999</ele><time>2026-04-19T09:39:48.989Z</time></trkpt><trkpt lat="43.4554816" lon="10.7807761"><ele>108.19999999999999</ele><time>2026-04-19T09:39:49.986Z</time></trkpt><trkpt lat="43.4555908" lon="10.7808394"><ele>106.0</ele><time>2026-04-19T09:39:50.986Z</time></trkpt><trkpt lat="43.4557032" lon="10.7809042"><ele>106.0</ele><time>2026-04-19T09:39:51.997Z</time></trkpt><trkpt lat="43.4558228" lon="10.7809703"><ele>106.0</ele><time>2026-04-19T09:39:53.016Z</time></trkpt><trkpt lat="43.4559409" lon="10.7810349"><ele>106.0</ele><time>2026-04-19T09:39:53.998Z</time></trkpt><trkpt lat="43.4560534" lon="10.7810954"><ele>106.0</ele><time>2026-04-19T09:39:54.988Z</time></trkpt><trkpt lat="43.4561482" lon="10.7811454"><ele>106.00000000000001</ele><time>2026-04-19T09:39:55.993Z</time></trkpt><trkpt lat="43.4562261" lon="10.7812033"><ele>106.0</ele><time>2026-04-19T09:39:56.991Z</time></trkpt><trkpt lat="43.4562984" lon="10.7812782"><ele>106.0</ele><time>2026-04-19T09:39:57.993Z</time></trkpt><trkpt lat="43.4563603" lon="10.7813667"><ele>106.0</ele><time>2026-04-19T09:39:58.999Z</time></trkpt><trkpt lat="43.4564054" lon="10.7814636"><ele>106.00000000000001</ele><time>2026-04-19T09:39:59.994Z</time></trkpt><trkpt lat="43.4564388" lon="10.7815593"><ele>106.0</ele><time>2026-04-19T09:40:01.019Z</time></trkpt><trkpt lat="43.456462" lon="10.7816525"><ele>102.4</ele><time>2026-04-19T09:40:01.991Z</time></trkpt><trkpt lat="43.4565126" lon="10.7817309"><ele>98.8</ele><time>2026-04-19T09:40:02.986Z</time></trkpt><trkpt lat="43.4565947" lon="10.7817784"><ele>95.2</ele><time>2026-04-19T09:40:03.988Z</time></trkpt><trkpt lat="43.4566842" lon="10.7817946"><ele>91.60000000000001</ele><time>2026-04-19T09:40:04.99Z</time></trkpt><trkpt lat="43.456788" lon="10.7817983"><ele>88.0</ele><time>2026-04-19T09:40:05.994Z</time></trkpt><trkpt lat="43.4568977" lon="10.7817962"><ele>88.0</ele><time>2026-04-19T09:40:06.995Z</time></trkpt><trkpt lat="43.456995" lon="10.7818043"><ele>88.0</ele><time>2026-04-19T09:40:08.003Z</time></trkpt><trkpt lat="43.457073" lon="10.7818157"><ele>88.0</ele><time>2026-04-19T09:40:09.004Z</time></trkpt><trkpt lat="43.4571446" lon="10.7818367"><ele>88.0</ele><time>2026-04-19T09:40:09.992Z</time></trkpt><trkpt lat="43.4572132" lon="10.7818339"><ele>88.0</ele><time>2026-04-19T09:40:10.997Z</time></trkpt><trkpt lat="43.4572813" lon="10.7818315"><ele>88.0</ele><time>2026-04-19T09:40:11.987Z</time></trkpt><trkpt lat="43.4573488" lon="10.7818317"><ele>87.71428571428572</ele><time>2026-04-19T09:40:12.988Z</time></trkpt><trkpt lat="43.4574165" lon="10.7818432"><ele>87.42857142857143</ele><time>2026-04-19T09:40:13.999Z</time></trkpt><trkpt lat="43.4574935" lon="10.7818752"><ele>87.14285714285714</ele><time>2026-04-19T09:40:14.992Z</time></trkpt><trkpt lat="43.4575545" lon="10.7819389"><ele>86.85714285714286</ele><time>2026-04-19T09:40:15.995Z</time></trkpt><trkpt lat="43.4575965" lon="10.7820039"><ele>86.57142857142857</ele><time>2026-04-19T09:40:17.019Z</time></trkpt><trkpt lat="43.4576487" lon="10.7820862"><ele>86.28571428571429</ele><time>2026-04-19T09:40:18.991Z</time></trkpt><trkpt lat="43.4577212" lon="10.7821105"><ele>86.0</ele><time>2026-04-19T09:40:21.99Z</time></trkpt><trkpt lat="43.4577841" lon="10.7820556"><ele>85.25</ele><time>2026-04-19T09:40:22.987Z</time></trkpt><trkpt lat="43.4578558" lon="10.7819772"><ele>84.5</ele><time>2026-04-19T09:40:23.993Z</time></trkpt><trkpt lat="43.4579374" lon="10.7818793"><ele>83.75</ele><time>2026-04-19T09:40:25.023Z</time></trkpt><trkpt lat="43.4580324" lon="10.7817813"><ele>83.0</ele><time>2026-04-19T09:40:26.003Z</time></trkpt><trkpt lat="43.4581367" lon="10.78167"><ele>83.0</ele><time>2026-04-19T09:40:27.012Z</time></trkpt><trkpt lat="43.4582548" lon="10.781555"><ele>83.0</ele><time>2026-04-19T09:40:27.994Z</time></trkpt><trkpt lat="43.4583866" lon="10.7814243"><ele>83.0</ele><time>2026-04-19T09:40:28.999Z</time></trkpt><trkpt lat="43.4585206" lon="10.7812823"><ele>83.0</ele><time>2026-04-19T09:40:29.99Z</time></trkpt><trkpt lat="43.4586594" lon="10.7811309"><ele>83.0</ele><time>2026-04-19T09:40:30.986Z</time></trkpt><trkpt lat="43.4588074" lon="10.7809779"><ele>83.0</ele><time>2026-04-19T09:40:31.987Z</time></trkpt><trkpt lat="43.458956" lon="10.7808226"><ele>82.66666666666667</ele><time>2026-04-19T09:40:32.991Z</time></trkpt><trkpt lat="43.4591046" lon="10.7806692"><ele>82.33333333333333</ele><time>2026-04-19T09:40:33.984Z</time></trkpt><trkpt lat="43.4592532" lon="10.7805142"><ele>82.0</ele><time>2026-04-19T09:40:34.979Z</time></trkpt><trkpt lat="43.4594002" lon="10.7803646"><ele>82.0</ele><time>2026-04-19T09:40:35.99Z</time></trkpt><trkpt lat="43.4595417" lon="10.7802151"><ele>82.0</ele><time>2026-04-19T09:40:36.992Z</time></trkpt><trkpt lat="43.459683" lon="10.780058"><ele>82.0</ele><time>2026-04-19T09:40:37.994Z</time></trkpt><trkpt lat="43.4598278" lon="10.7799132"><ele>82.66666666666666</ele><time>2026-04-19T09:40:39.008Z</time></trkpt><trkpt lat="43.4599713" lon="10.7797622"><ele>83.33333333333333</ele><time>2026-04-19T09:40:39.985Z</time></trkpt><trkpt lat="43.4601125" lon="10.7796084"><ele>84.0</ele><time>2026-04-19T09:40:40.991Z</time></trkpt><trkpt lat="43.4602589" lon="10.7794556"><ele>84.33333333333333</ele><time>2026-04-19T09:40:41.993Z</time></trkpt><trkpt lat="43.4604026" lon="10.779304"><ele>84.66666666666666</ele><time>2026-04-19T09:40:43.002Z</time></trkpt><trkpt lat="43.4605483" lon="10.7791504"><ele>85.0</ele><time>2026-04-19T09:40:43.991Z</time></trkpt><trkpt lat="43.4606978" lon="10.7789991"><ele>85.0</ele><time>2026-04-19T09:40:44.997Z</time></trkpt><trkpt lat="43.4608473" lon="10.7788432"><ele>85.0</ele><time>2026-04-19T09:40:45.988Z</time></trkpt><trkpt lat="43.4609974" lon="10.7786845"><ele>85.0</ele><time>2026-04-19T09:40:46.993Z</time></trkpt><trkpt lat="43.4611472" lon="10.7785235"><ele>84.33333333333333</ele><time>2026-04-19T09:40:48.003Z</time></trkpt><trkpt lat="43.4612974" lon="10.7783725"><ele>83.66666666666667</ele><time>2026-04-19T09:40:49.001Z</time></trkpt><trkpt lat="43.4614429" lon="10.7782354"><ele>83.0</ele><time>2026-04-19T09:40:49.998Z</time></trkpt><trkpt lat="43.4615863" lon="10.7781118"><ele>83.0</ele><time>2026-04-19T09:40:50.996Z</time></trkpt><trkpt lat="43.4617259" lon="10.7779995"><ele>83.0</ele><time>2026-04-19T09:40:51.989Z</time></trkpt><trkpt lat="43.4618711" lon="10.7778865"><ele>83.0</ele><time>2026-04-19T09:40:52.986Z</time></trkpt><trkpt lat="43.4620183" lon="10.7777769"><ele>83.0</ele><time>2026-04-19T09:40:53.998Z</time></trkpt><trkpt lat="43.4621631" lon="10.7776641"><ele>83.0</ele><time>2026-04-19T09:40:54.987Z</time></trkpt><trkpt lat="43.4623082" lon="10.7775502"><ele>83.0</ele><time>2026-04-19T09:40:56.012Z</time></trkpt><trkpt lat="43.4624523" lon="10.7774363"><ele>83.0</ele><time>2026-04-19T09:40:56.996Z</time></trkpt><trkpt lat="43.4625992" lon="10.7773187"><ele>83.0</ele><time>2026-04-19T09:40:57.997Z</time></trkpt><trkpt lat="43.462749" lon="10.777196"><ele>83.0</ele><time>2026-04-19T09:40:58.988Z</time></trkpt><trkpt lat="43.4628992" lon="10.7770815"><ele>82.33333333333334</ele><time>2026-04-19T09:40:59.999Z</time></trkpt><trkpt lat="43.4630538" lon="10.7769685"><ele>81.66666666666667</ele><time>2026-04-19T09:41:00.99Z</time></trkpt><trkpt lat="43.4632077" lon="10.7768475"><ele>81.0</ele><time>2026-04-19T09:41:01.987Z</time></trkpt><trkpt lat="43.4633622" lon="10.7767255"><ele>81.0</ele><time>2026-04-19T09:41:02.991Z</time></trkpt><trkpt lat="43.4635219" lon="10.7765937"><ele>81.0</ele><time>2026-04-19T09:41:03.995Z</time></trkpt><trkpt lat="43.4636875" lon="10.7764629"><ele>81.0</ele><time>2026-04-19T09:41:04.987Z</time></trkpt><trkpt lat="43.4638577" lon="10.7763269"><ele>80.33333333333333</ele><time>2026-04-19T09:41:06Z</time></trkpt><trkpt lat="43.4640289" lon="10.7761947"><ele>79.66666666666666</ele><time>2026-04-19T09:41:07.016Z</time></trkpt><trkpt lat="43.4642009" lon="10.7760645"><ele>79.0</ele><time>2026-04-19T09:41:07.998Z</time></trkpt><trkpt lat="43.4643751" lon="10.7759285"><ele>79.0</ele><time>2026-04-19T09:41:09.006Z</time></trkpt><trkpt lat="43.4645515" lon="10.7757942"><ele>79.0</ele><time>2026-04-19T09:41:09.992Z</time></trkpt><trkpt lat="43.4647267" lon="10.7756523"><ele>79.0</ele><time>2026-04-19T09:41:10.993Z</time></trkpt><trkpt lat="43.4649063" lon="10.7755114"><ele>79.0</ele><time>2026-04-19T09:41:11.993Z</time></trkpt><trkpt lat="43.465075" lon="10.7753695"><ele>79.0</ele><time>2026-04-19T09:41:12.998Z</time></trkpt><trkpt lat="43.4652353" lon="10.7752372"><ele>79.0</ele><time>2026-04-19T09:41:13.99Z</time></trkpt><trkpt lat="43.465392" lon="10.7751075"><ele>78.66666666666666</ele><time>2026-04-19T09:41:14.998Z</time></trkpt><trkpt lat="43.4655457" lon="10.7749839"><ele>78.33333333333333</ele><time>2026-04-19T09:41:15.996Z</time></trkpt><trkpt lat="43.4657202" lon="10.7748715"><ele>78.0</ele><time>2026-04-19T09:41:16.988Z</time></trkpt><trkpt lat="43.4659011" lon="10.7747671"><ele>78.0</ele><time>2026-04-19T09:41:18.004Z</time></trkpt><trkpt lat="43.4660867" lon="10.7746874"><ele>78.0</ele><time>2026-04-19T09:41:19.003Z</time></trkpt><trkpt lat="43.4662813" lon="10.7746258"><ele>78.0</ele><time>2026-04-19T09:41:20.029Z</time></trkpt><trkpt lat="43.4664744" lon="10.774569"><ele>77.66666666666667</ele><time>2026-04-19T09:41:20.999Z</time></trkpt><trkpt lat="43.4666666" lon="10.7745148"><ele>77.33333333333334</ele><time>2026-04-19T09:41:21.989Z</time></trkpt><trkpt lat="43.4668572" lon="10.774466"><ele>77.0</ele><time>2026-04-19T09:41:22.989Z</time></trkpt><trkpt lat="43.4670492" lon="10.7744022"><ele>79.0</ele><time>2026-04-19T09:41:23.998Z</time></trkpt><trkpt lat="43.4672377" lon="10.7743421"><ele>81.0</ele><time>2026-04-19T09:41:24.995Z</time></trkpt><trkpt lat="43.4674168" lon="10.774278"><ele>83.0</ele><time>2026-04-19T09:41:25.994Z</time></trkpt><trkpt lat="43.4675849" lon="10.7742154"><ele>83.0</ele><time>2026-04-19T09:41:26.988Z</time></trkpt><trkpt lat="43.4677411" lon="10.774134"><ele>83.0</ele><time>2026-04-19T09:41:28.001Z</time></trkpt><trkpt lat="43.4678876" lon="10.7740268"><ele>83.0</ele><time>2026-04-19T09:41:29.002Z</time></trkpt><trkpt lat="43.4680207" lon="10.773888"><ele>84.0</ele><time>2026-04-19T09:41:29.99Z</time></trkpt><trkpt lat="43.4681617" lon="10.773754"><ele>85.0</ele><time>2026-04-19T09:41:31.005Z</time></trkpt><trkpt lat="43.4683007" lon="10.7736067"><ele>86.0</ele><time>2026-04-19T09:41:32.004Z</time></trkpt><trkpt lat="43.4684399" lon="10.7734589"><ele>86.0</ele><time>2026-04-19T09:41:33Z</time></trkpt><trkpt lat="43.4685856" lon="10.7733057"><ele>86.0</ele><time>2026-04-19T09:41:33.994Z</time></trkpt><trkpt lat="43.4687357" lon="10.7731512"><ele>86.0</ele><time>2026-04-19T09:41:34.983Z</time></trkpt><trkpt lat="43.4688832" lon="10.7729959"><ele>84.66666666666667</ele><time>2026-04-19T09:41:35.987Z</time></trkpt><trkpt lat="43.4690371" lon="10.7728403"><ele>83.33333333333333</ele><time>2026-04-19T09:41:36.993Z</time></trkpt><trkpt lat="43.4691908" lon="10.7726788"><ele>82.0</ele><time>2026-04-19T09:41:37.987Z</time></trkpt><trkpt lat="43.4693454" lon="10.7725117"><ele>82.0</ele><time>2026-04-19T09:41:38.992Z</time></trkpt><trkpt lat="43.4695046" lon="10.7723461"><ele>82.0</ele><time>2026-04-19T09:41:39.994Z</time></trkpt><trkpt lat="43.4696643" lon="10.7721759"><ele>82.0</ele><time>2026-04-19T09:41:41.01Z</time></trkpt><trkpt lat="43.4698207" lon="10.7720115"><ele>82.33333333333333</ele><time>2026-04-19T09:41:41.995Z</time></trkpt><trkpt lat="43.4699715" lon="10.7718363"><ele>82.66666666666667</ele><time>2026-04-19T09:41:43.002Z</time></trkpt><trkpt lat="43.4701258" lon="10.7716565"><ele>83.0</ele><time>2026-04-19T09:41:44.008Z</time></trkpt><trkpt lat="43.4702782" lon="10.7714751"><ele>83.0</ele><time>2026-04-19T09:41:44.995Z</time></trkpt><trkpt lat="43.4704372" lon="10.7712938"><ele>83.0</ele><time>2026-04-19T09:41:45.994Z</time></trkpt><trkpt lat="43.4705916" lon="10.7711153"><ele>83.0</ele><time>2026-04-19T09:41:46.99Z</time></trkpt><trkpt lat="43.4707484" lon="10.7709394"><ele>81.66666666666667</ele><time>2026-04-19T09:41:48.003Z</time></trkpt><trkpt lat="43.4708975" lon="10.7707397"><ele>80.33333333333333</ele><time>2026-04-19T09:41:48.995Z</time></trkpt><trkpt lat="43.4710401" lon="10.770542"><ele>79.0</ele><time>2026-04-19T09:41:49.988Z</time></trkpt><trkpt lat="43.4711682" lon="10.7703292"><ele>77.66666666666666</ele><time>2026-04-19T09:41:50.992Z</time></trkpt><trkpt lat="43.4712915" lon="10.7701154"><ele>76.33333333333333</ele><time>2026-04-19T09:41:51.997Z</time></trkpt><trkpt lat="43.4714113" lon="10.7699004"><ele>75.0</ele><time>2026-04-19T09:41:52.999Z</time></trkpt><trkpt lat="43.4715194" lon="10.7696911"><ele>75.0</ele><time>2026-04-19T09:41:54Z</time></trkpt><trkpt lat="43.4716218" lon="10.7694986"><ele>75.0</ele><time>2026-04-19T09:41:54.984Z</time></trkpt><trkpt lat="43.4717116" lon="10.7692958"><ele>75.0</ele><time>2026-04-19T09:41:55.995Z</time></trkpt><trkpt lat="43.4717872" lon="10.7690895"><ele>76.0</ele><time>2026-04-19T09:41:57.002Z</time></trkpt><trkpt lat="43.4718534" lon="10.7688614"><ele>77.0</ele><time>2026-04-19T09:41:57.999Z</time></trkpt><trkpt lat="43.4719148" lon="10.7686364"><ele>78.0</ele><time>2026-04-19T09:41:59.008Z</time></trkpt><trkpt lat="43.4719749" lon="10.7684039"><ele>78.0</ele><time>2026-04-19T09:41:59.998Z</time></trkpt><trkpt lat="43.4720411" lon="10.7681879"><ele>78.0</ele><time>2026-04-19T09:42:00.984Z</time></trkpt><trkpt lat="43.4720961" lon="10.7679747"><ele>78.0</ele><time>2026-04-19T09:42:01.993Z</time></trkpt><trkpt lat="43.4721588" lon="10.7677627"><ele>77.33333333333333</ele><time>2026-04-19T09:42:02.991Z</time></trkpt><trkpt lat="43.4722244" lon="10.7675451"><ele>76.66666666666666</ele><time>2026-04-19T09:42:03.999Z</time></trkpt><trkpt lat="43.4722819" lon="10.7673217"><ele>76.0</ele><time>2026-04-19T09:42:04.997Z</time></trkpt><trkpt lat="43.4723403" lon="10.7670999"><ele>76.0</ele><time>2026-04-19T09:42:05.992Z</time></trkpt><trkpt lat="43.4724044" lon="10.7668667"><ele>76.0</ele><time>2026-04-19T09:42:07.024Z</time></trkpt><trkpt lat="43.4724673" lon="10.7666313"><ele>76.0</ele><time>2026-04-19T09:42:07.994Z</time></trkpt><trkpt lat="43.4725287" lon="10.7663934"><ele>76.0</ele><time>2026-04-19T09:42:09Z</time></trkpt><trkpt lat="43.4725981" lon="10.7661472"><ele>76.0</ele><time>2026-04-19T09:42:10.023Z</time></trkpt><trkpt lat="43.4726695" lon="10.7659115"><ele>76.0</ele><time>2026-04-19T09:42:11.008Z</time></trkpt><trkpt lat="43.4727401" lon="10.7656711"><ele>76.66666666666666</ele><time>2026-04-19T09:42:11.993Z</time></trkpt><trkpt lat="43.4728053" lon="10.7654305"><ele>77.33333333333333</ele><time>2026-04-19T09:42:13.002Z</time></trkpt><trkpt lat="43.4728594" lon="10.7651835"><ele>78.0</ele><time>2026-04-19T09:42:13.997Z</time></trkpt><trkpt lat="43.4729145" lon="10.76495"><ele>78.33333333333333</ele><time>2026-04-19T09:42:14.989Z</time></trkpt><trkpt lat="43.4729436" lon="10.7647209"><ele>78.66666666666666</ele><time>2026-04-19T09:42:15.99Z</time></trkpt><trkpt lat="43.4729653" lon="10.7645036"><ele>79.0</ele><time>2026-04-19T09:42:16.99Z</time></trkpt><trkpt lat="43.4729837" lon="10.7642994"><ele>79.0</ele><time>2026-04-19T09:42:18.024Z</time></trkpt><trkpt lat="43.4730005" lon="10.7641143"><ele>79.0</ele><time>2026-04-19T09:42:18.997Z</time></trkpt><trkpt lat="43.4730075" lon="10.7639401"><ele>79.0</ele><time>2026-04-19T09:42:19.999Z</time></trkpt><trkpt lat="43.4730193" lon="10.7637876"><ele>79.0</ele><time>2026-04-19T09:42:20.991Z</time></trkpt><trkpt lat="43.4730288" lon="10.7636552"><ele>79.0</ele><time>2026-04-19T09:42:21.998Z</time></trkpt><trkpt lat="43.4730403" lon="10.7635563"><ele>79.0</ele><time>2026-04-19T09:42:22.996Z</time></trkpt><trkpt lat="43.4730555" lon="10.7634406"><ele>79.0</ele><time>2026-04-19T09:42:25.003Z</time></trkpt><trkpt lat="43.4730844" lon="10.7633379"><ele>79.0</ele><time>2026-04-19T09:42:35.997Z</time></trkpt><trkpt lat="43.473063" lon="10.76321"><ele>79.0</ele><time>2026-04-19T09:42:38.998Z</time></trkpt><trkpt lat="43.4730852" lon="10.7630381"><ele>79.80000000000001</ele><time>2026-04-19T09:42:40.988Z</time></trkpt><trkpt lat="43.4731041" lon="10.7629262"><ele>80.60000000000001</ele><time>2026-04-19T09:42:41.994Z</time></trkpt><trkpt lat="43.4731358" lon="10.7628251"><ele>81.4</ele><time>2026-04-19T09:42:42.991Z</time></trkpt><trkpt lat="43.4731905" lon="10.7627233"><ele>82.2</ele><time>2026-04-19T09:42:43.998Z</time></trkpt><trkpt lat="43.4732697" lon="10.7626461"><ele>83.0</ele><time>2026-04-19T09:42:44.996Z</time></trkpt><trkpt lat="43.4733671" lon="10.7625778"><ele>84.5</ele><time>2026-04-19T09:42:45.996Z</time></trkpt><trkpt lat="43.4734787" lon="10.7624976"><ele>86.0</ele><time>2026-04-19T09:42:46.992Z</time></trkpt><trkpt lat="43.4736091" lon="10.7623953"><ele>87.5</ele><time>2026-04-19T09:42:47.992Z</time></trkpt><trkpt lat="43.4737472" lon="10.7622869"><ele>89.0</ele><time>2026-04-19T09:42:48.996Z</time></trkpt><trkpt lat="43.4738947" lon="10.7621733"><ele>89.0</ele><time>2026-04-19T09:42:49.989Z</time></trkpt><trkpt lat="43.4740495" lon="10.7620533"><ele>89.0</ele><time>2026-04-19T09:42:51.021Z</time></trkpt><trkpt lat="43.4741906" lon="10.7619283"><ele>89.0</ele><time>2026-04-19T09:42:51.993Z</time></trkpt><trkpt lat="43.4743182" lon="10.7618019"><ele>90.5</ele><time>2026-04-19T09:42:52.992Z</time></trkpt><trkpt lat="43.474446" lon="10.7616914"><ele>92.0</ele><time>2026-04-19T09:42:53.999Z</time></trkpt><trkpt lat="43.4745747" lon="10.7615817"><ele>93.5</ele><time>2026-04-19T09:42:54.993Z</time></trkpt><trkpt lat="43.4747028" lon="10.7614862"><ele>95.0</ele><time>2026-04-19T09:42:55.987Z</time></trkpt><trkpt lat="43.4748271" lon="10.7613973"><ele>95.0</ele><time>2026-04-19T09:42:56.993Z</time></trkpt><trkpt lat="43.4749452" lon="10.7612942"><ele>95.0</ele><time>2026-04-19T09:42:58Z</time></trkpt><trkpt lat="43.4750384" lon="10.761175"><ele>95.0</ele><time>2026-04-19T09:42:58.988Z</time></trkpt><trkpt lat="43.4751205" lon="10.7610406"><ele>95.0</ele><time>2026-04-19T09:42:59.99Z</time></trkpt><trkpt lat="43.4751805" lon="10.7609041"><ele>98.0</ele><time>2026-04-19T09:43:00.992Z</time></trkpt><trkpt lat="43.4752205" lon="10.7607456"><ele>101.0</ele><time>2026-04-19T09:43:01.991Z</time></trkpt><trkpt lat="43.4752462" lon="10.7605772"><ele>104.0</ele><time>2026-04-19T09:43:02.981Z</time></trkpt><trkpt lat="43.4752622" lon="10.7603944"><ele>107.0</ele><time>2026-04-19T09:43:03.99Z</time></trkpt><trkpt lat="43.4752603" lon="10.7602239"><ele>107.99999999999999</ele><time>2026-04-19T09:43:04.989Z</time></trkpt><trkpt lat="43.4752577" lon="10.7600778"><ele>109.0</ele><time>2026-04-19T09:43:06.001Z</time></trkpt><trkpt lat="43.4752559" lon="10.7599595"><ele>110.0</ele><time>2026-04-19T09:43:06.995Z</time></trkpt><trkpt lat="43.4752501" lon="10.7598509"><ele>111.0</ele><time>2026-04-19T09:43:07.992Z</time></trkpt><trkpt lat="43.4752426" lon="10.7597445"><ele>111.99999999999999</ele><time>2026-04-19T09:43:08.998Z</time></trkpt><trkpt lat="43.4752335" lon="10.7596231"><ele>113.0</ele><time>2026-04-19T09:43:10Z</time></trkpt><trkpt lat="43.4752247" lon="10.7594966"><ele>112.99999999999999</ele><time>2026-04-19T09:43:10.998Z</time></trkpt><trkpt lat="43.4752206" lon="10.759378"><ele>113.0</ele><time>2026-04-19T09:43:12.005Z</time></trkpt><trkpt lat="43.4752132" lon="10.7592572"><ele>113.0</ele><time>2026-04-19T09:43:13.016Z</time></trkpt><trkpt lat="43.4752003" lon="10.7591316"><ele>113.0</ele><time>2026-04-19T09:43:13.998Z</time></trkpt><trkpt lat="43.4751928" lon="10.7590045"><ele>112.99999999999999</ele><time>2026-04-19T09:43:15.005Z</time></trkpt><trkpt lat="43.4751791" lon="10.7588824"><ele>113.0</ele><time>2026-04-19T09:43:16.003Z</time></trkpt><trkpt lat="43.4751587" lon="10.7587649"><ele>113.33333333333333</ele><time>2026-04-19T09:43:16.992Z</time></trkpt><trkpt lat="43.4751365" lon="10.7586445"><ele>113.66666666666666</ele><time>2026-04-19T09:43:18.013Z</time></trkpt><trkpt lat="43.4751171" lon="10.75853"><ele>114.0</ele><time>2026-04-19T09:43:18.983Z</time></trkpt><trkpt lat="43.4750981" lon="10.7584166"><ele>114.33333333333334</ele><time>2026-04-19T09:43:19.995Z</time></trkpt><trkpt lat="43.4750696" lon="10.7583069"><ele>114.66666666666667</ele><time>2026-04-19T09:43:20.991Z</time></trkpt><trkpt lat="43.4750223" lon="10.7581964"><ele>115.0</ele><time>2026-04-19T09:43:21.988Z</time></trkpt><trkpt lat="43.4749711" lon="10.7580839"><ele>115.5</ele><time>2026-04-19T09:43:22.994Z</time></trkpt><trkpt lat="43.474901" lon="10.7579819"><ele>116.0</ele><time>2026-04-19T09:43:23.987Z</time></trkpt><trkpt lat="43.4748174" lon="10.7578834"><ele>116.5</ele><time>2026-04-19T09:43:25.02Z</time></trkpt><trkpt lat="43.4747186" lon="10.7577988"><ele>117.0</ele><time>2026-04-19T09:43:25.992Z</time></trkpt><trkpt lat="43.4746156" lon="10.7576986"><ele>119.75</ele><time>2026-04-19T09:43:27.003Z</time></trkpt><trkpt lat="43.4745053" lon="10.7575954"><ele>122.5</ele><time>2026-04-19T09:43:27.983Z</time></trkpt><trkpt lat="43.4743933" lon="10.7574866"><ele>125.25</ele><time>2026-04-19T09:43:28.993Z</time></trkpt><trkpt lat="43.4742834" lon="10.7573638"><ele>128.0</ele><time>2026-04-19T09:43:29.998Z</time></trkpt><trkpt lat="43.4741737" lon="10.7572438"><ele>128.0</ele><time>2026-04-19T09:43:31.001Z</time></trkpt><trkpt lat="43.4740744" lon="10.757132"><ele>128.0</ele><time>2026-04-19T09:43:32.02Z</time></trkpt><trkpt lat="43.4739824" lon="10.7570253"><ele>128.0</ele><time>2026-04-19T09:43:32.991Z</time></trkpt><trkpt lat="43.4738949" lon="10.7569189"><ele>128.0</ele><time>2026-04-19T09:43:33.988Z</time></trkpt><trkpt lat="43.4738169" lon="10.7568055"><ele>127.5</ele><time>2026-04-19T09:43:34.994Z</time></trkpt><trkpt lat="43.4737478" lon="10.7566713"><ele>127.0</ele><time>2026-04-19T09:43:35.996Z</time></trkpt><trkpt lat="43.4736873" lon="10.7565298"><ele>126.5</ele><time>2026-04-19T09:43:36.999Z</time></trkpt><trkpt lat="43.4736325" lon="10.7563724"><ele>126.0</ele><time>2026-04-19T09:43:38.01Z</time></trkpt><trkpt lat="43.4735779" lon="10.7562104"><ele>126.0</ele><time>2026-04-19T09:43:38.998Z</time></trkpt><trkpt lat="43.4735285" lon="10.7560476"><ele>126.0</ele><time>2026-04-19T09:43:40.013Z</time></trkpt><trkpt lat="43.4734797" lon="10.7558778"><ele>126.0</ele><time>2026-04-19T09:43:41.004Z</time></trkpt><trkpt lat="43.4734312" lon="10.7557138"><ele>126.0</ele><time>2026-04-19T09:43:41.987Z</time></trkpt><trkpt lat="43.4733728" lon="10.7555329"><ele>126.0</ele><time>2026-04-19T09:43:42.99Z</time></trkpt><trkpt lat="43.4733022" lon="10.7553425"><ele>126.0</ele><time>2026-04-19T09:43:43.995Z</time></trkpt><trkpt lat="43.4732301" lon="10.7551594"><ele>126.0</ele><time>2026-04-19T09:43:44.999Z</time></trkpt><trkpt lat="43.4731565" lon="10.7549775"><ele>126.0</ele><time>2026-04-19T09:43:46.002Z</time></trkpt><trkpt lat="43.473079" lon="10.7547936"><ele>126.0</ele><time>2026-04-19T09:43:46.99Z</time></trkpt><trkpt lat="43.4730095" lon="10.7546068"><ele>126.0</ele><time>2026-04-19T09:43:48.016Z</time></trkpt><trkpt lat="43.4729414" lon="10.7544272"><ele>125.75</ele><time>2026-04-19T09:43:48.984Z</time></trkpt><trkpt lat="43.4728801" lon="10.7542463"><ele>125.5</ele><time>2026-04-19T09:43:50.018Z</time></trkpt><trkpt lat="43.4728382" lon="10.7540762"><ele>125.25</ele><time>2026-04-19T09:43:50.989Z</time></trkpt><trkpt lat="43.4727982" lon="10.7539165"><ele>125.0</ele><time>2026-04-19T09:43:51.992Z</time></trkpt><trkpt lat="43.4727579" lon="10.7537582"><ele>125.0</ele><time>2026-04-19T09:43:52.999Z</time></trkpt><trkpt lat="43.472715" lon="10.7536017"><ele>125.0</ele><time>2026-04-19T09:43:53.978Z</time></trkpt><trkpt lat="43.4726798" lon="10.75346"><ele>125.0</ele><time>2026-04-19T09:43:55.002Z</time></trkpt><trkpt lat="43.4726352" lon="10.7533276"><ele>125.0</ele><time>2026-04-19T09:43:55.995Z</time></trkpt><trkpt lat="43.4725948" lon="10.7531926"><ele>125.0</ele><time>2026-04-19T09:43:57.037Z</time></trkpt><trkpt lat="43.472553" lon="10.7530485"><ele>125.25</ele><time>2026-04-19T09:43:57.994Z</time></trkpt><trkpt lat="43.4725102" lon="10.7528818"><ele>125.5</ele><time>2026-04-19T09:43:58.991Z</time></trkpt><trkpt lat="43.4724744" lon="10.7526999"><ele>125.75</ele><time>2026-04-19T09:44:00.001Z</time></trkpt><trkpt lat="43.4724324" lon="10.7525269"><ele>126.0</ele><time>2026-04-19T09:44:00.996Z</time></trkpt><trkpt lat="43.4723813" lon="10.7523428"><ele>126.0</ele><time>2026-04-19T09:44:01.988Z</time></trkpt><trkpt lat="43.4723263" lon="10.7521831"><ele>126.0</ele><time>2026-04-19T09:44:03Z</time></trkpt><trkpt lat="43.4722752" lon="10.7520307"><ele>126.0</ele><time>2026-04-19T09:44:04.006Z</time></trkpt><trkpt lat="43.4722344" lon="10.7518933"><ele>126.0</ele><time>2026-04-19T09:44:04.991Z</time></trkpt><trkpt lat="43.4721897" lon="10.7517508"><ele>125.5</ele><time>2026-04-19T09:44:05.996Z</time></trkpt><trkpt lat="43.4721451" lon="10.7516012"><ele>125.0</ele><time>2026-04-19T09:44:06.994Z</time></trkpt><trkpt lat="43.4721128" lon="10.7514341"><ele>124.5</ele><time>2026-04-19T09:44:08.004Z</time></trkpt><trkpt lat="43.4720831" lon="10.7512688"><ele>124.0</ele><time>2026-04-19T09:44:08.991Z</time></trkpt><trkpt lat="43.472046" lon="10.7511115"><ele>123.75</ele><time>2026-04-19T09:44:09.994Z</time></trkpt><trkpt lat="43.4720053" lon="10.7509692"><ele>123.5</ele><time>2026-04-19T09:44:10.997Z</time></trkpt><trkpt lat="43.471962" lon="10.7508329"><ele>123.25</ele><time>2026-04-19T09:44:12.027Z</time></trkpt><trkpt lat="43.4719202" lon="10.7506851"><ele>123.0</ele><time>2026-04-19T09:44:12.997Z</time></trkpt><trkpt lat="43.4718827" lon="10.7505303"><ele>123.0</ele><time>2026-04-19T09:44:14.001Z</time></trkpt><trkpt lat="43.4718425" lon="10.75039"><ele>123.0</ele><time>2026-04-19T09:44:14.989Z</time></trkpt><trkpt lat="43.4718068" lon="10.7502523"><ele>123.0</ele><time>2026-04-19T09:44:15.992Z</time></trkpt><trkpt lat="43.4717614" lon="10.750105"><ele>123.0</ele><time>2026-04-19T09:44:16.98Z</time></trkpt><trkpt lat="43.4717017" lon="10.7499366"><ele>123.0</ele><time>2026-04-19T09:44:17.981Z</time></trkpt><trkpt lat="43.4716391" lon="10.7497631"><ele>123.0</ele><time>2026-04-19T09:44:18.988Z</time></trkpt><trkpt lat="43.4715677" lon="10.7495857"><ele>123.0</ele><time>2026-04-19T09:44:19.988Z</time></trkpt><trkpt lat="43.4714984" lon="10.7494114"><ele>123.0</ele><time>2026-04-19T09:44:20.988Z</time></trkpt><trkpt lat="43.4714283" lon="10.7492368"><ele>122.5</ele><time>2026-04-19T09:44:21.989Z</time></trkpt><trkpt lat="43.4713534" lon="10.7490691"><ele>122.0</ele><time>2026-04-19T09:44:22.995Z</time></trkpt><trkpt lat="43.4712752" lon="10.7489089"><ele>121.5</ele><time>2026-04-19T09:44:23.997Z</time></trkpt><trkpt lat="43.4711941" lon="10.7487756"><ele>121.0</ele><time>2026-04-19T09:44:25Z</time></trkpt><trkpt lat="43.471088" lon="10.7486608"><ele>121.25</ele><time>2026-04-19T09:44:26.001Z</time></trkpt><trkpt lat="43.4709654" lon="10.7485668"><ele>121.5</ele><time>2026-04-19T09:44:26.999Z</time></trkpt><trkpt lat="43.4708353" lon="10.7484756"><ele>121.75</ele><time>2026-04-19T09:44:27.99Z</time></trkpt><trkpt lat="43.4707024" lon="10.7483958"><ele>122.0</ele><time>2026-04-19T09:44:28.987Z</time></trkpt><trkpt lat="43.4705796" lon="10.7483187"><ele>122.0</ele><time>2026-04-19T09:44:29.993Z</time></trkpt><trkpt lat="43.4704533" lon="10.7482454"><ele>122.0</ele><time>2026-04-19T09:44:30.99Z</time></trkpt><trkpt lat="43.4703299" lon="10.7481669"><ele>122.0</ele><time>2026-04-19T09:44:31.994Z</time></trkpt><trkpt lat="43.4702023" lon="10.74808"><ele>122.0</ele><time>2026-04-19T09:44:32.997Z</time></trkpt><trkpt lat="43.470077" lon="10.747991"><ele>121.75</ele><time>2026-04-19T09:44:33.995Z</time></trkpt><trkpt lat="43.4699503" lon="10.7478989"><ele>121.5</ele><time>2026-04-19T09:44:35Z</time></trkpt><trkpt lat="43.4698275" lon="10.7477998"><ele>121.25</ele><time>2026-04-19T09:44:36.014Z</time></trkpt><trkpt lat="43.4697061" lon="10.7476946"><ele>121.0</ele><time>2026-04-19T09:44:36.992Z</time></trkpt><trkpt lat="43.4695874" lon="10.7475877"><ele>122.75</ele><time>2026-04-19T09:44:37.998Z</time></trkpt><trkpt lat="43.4694676" lon="10.7474777"><ele>124.5</ele><time>2026-04-19T09:44:38.996Z</time></trkpt><trkpt lat="43.469345" lon="10.747369"><ele>126.25</ele><time>2026-04-19T09:44:39.993Z</time></trkpt><trkpt lat="43.4692203" lon="10.7472588"><ele>128.0</ele><time>2026-04-19T09:44:40.99Z</time></trkpt><trkpt lat="43.4690975" lon="10.7471504"><ele>128.0</ele><time>2026-04-19T09:44:41.999Z</time></trkpt><trkpt lat="43.468976" lon="10.7470478"><ele>128.0</ele><time>2026-04-19T09:44:43.008Z</time></trkpt><trkpt lat="43.4688599" lon="10.7469359"><ele>128.0</ele><time>2026-04-19T09:44:43.999Z</time></trkpt><trkpt lat="43.4687712" lon="10.7468116"><ele>128.0</ele><time>2026-04-19T09:44:44.992Z</time></trkpt><trkpt lat="43.4686966" lon="10.7466651"><ele>129.75</ele><time>2026-04-19T09:44:45.992Z</time></trkpt><trkpt lat="43.4686354" lon="10.7465044"><ele>131.5</ele><time>2026-04-19T09:44:46.999Z</time></trkpt><trkpt lat="43.4685837" lon="10.7463225"><ele>133.25</ele><time>2026-04-19T09:44:47.997Z</time></trkpt><trkpt lat="43.4685351" lon="10.7461359"><ele>135.0</ele><time>2026-04-19T09:44:48.996Z</time></trkpt><trkpt lat="43.4684853" lon="10.7459488"><ele>135.0</ele><time>2026-04-19T09:44:49.992Z</time></trkpt><trkpt lat="43.4684404" lon="10.7457621"><ele>135.0</ele><time>2026-04-19T09:44:50.994Z</time></trkpt><trkpt lat="43.468402" lon="10.7455903"><ele>135.0</ele><time>2026-04-19T09:44:52Z</time></trkpt><trkpt lat="43.4683603" lon="10.7454412"><ele>135.0</ele><time>2026-04-19T09:44:52.994Z</time></trkpt><trkpt lat="43.4683092" lon="10.745298"><ele>134.0</ele><time>2026-04-19T09:44:54.006Z</time></trkpt><trkpt lat="43.4682394" lon="10.745161"><ele>133.0</ele><time>2026-04-19T09:44:54.989Z</time></trkpt><trkpt lat="43.468162" lon="10.7450483"><ele>132.0</ele><time>2026-04-19T09:44:55.993Z</time></trkpt><trkpt lat="43.4681024" lon="10.7449799"><ele>131.0</ele><time>2026-04-19T09:44:56.996Z</time></trkpt><trkpt lat="43.4680399" lon="10.7449051"><ele>130.0</ele><time>2026-04-19T09:44:59.002Z</time></trkpt><trkpt lat="43.4679509" lon="10.7448452"><ele>131.66666666666669</ele><time>2026-04-19T09:45:08.994Z</time></trkpt><trkpt lat="43.4678873" lon="10.744803"><ele>133.33333333333334</ele><time>2026-04-19T09:45:09.993Z</time></trkpt><trkpt lat="43.4678161" lon="10.7447491"><ele>135.0</ele><time>2026-04-19T09:45:10.996Z</time></trkpt><trkpt lat="43.4677424" lon="10.7446958"><ele>136.66666666666666</ele><time>2026-04-19T09:45:12.002Z</time></trkpt><trkpt lat="43.4676747" lon="10.7446493"><ele>138.33333333333331</ele><time>2026-04-19T09:45:13.006Z</time></trkpt><trkpt lat="43.4676137" lon="10.7446074"><ele>140.0</ele><time>2026-04-19T09:45:14.005Z</time></trkpt><trkpt lat="43.4675072" lon="10.7445422"><ele>140.0</ele><time>2026-04-19T09:45:16Z</time></trkpt><trkpt lat="43.4674286" lon="10.7444873"><ele>140.0</ele><time>2026-04-19T09:45:18.016Z</time></trkpt><trkpt lat="43.4673687" lon="10.7444396"><ele>140.0</ele><time>2026-04-19T09:45:19.992Z</time></trkpt><trkpt lat="43.4673108" lon="10.7443758"><ele>140.0</ele><time>2026-04-19T09:45:21.994Z</time></trkpt><trkpt lat="43.4672514" lon="10.7442606"><ele>140.0</ele><time>2026-04-19T09:45:23.988Z</time></trkpt><trkpt lat="43.467232" lon="10.7441754"><ele>140.0</ele><time>2026-04-19T09:45:24.991Z</time></trkpt><trkpt lat="43.467223" lon="10.7440775"><ele>139.0</ele><time>2026-04-19T09:45:25.993Z</time></trkpt><trkpt lat="43.4672273" lon="10.7439718"><ele>138.0</ele><time>2026-04-19T09:45:26.998Z</time></trkpt><trkpt lat="43.4672439" lon="10.7438569"><ele>137.0</ele><time>2026-04-19T09:45:27.992Z</time></trkpt><trkpt lat="43.4672625" lon="10.7437296"><ele>136.0</ele><time>2026-04-19T09:45:29Z</time></trkpt><trkpt lat="43.4672808" lon="10.7435921"><ele>135.0</ele><time>2026-04-19T09:45:29.989Z</time></trkpt><trkpt lat="43.4672933" lon="10.743455"><ele>134.0</ele><time>2026-04-19T09:45:30.99Z</time></trkpt><trkpt lat="43.4673066" lon="10.7433129"><ele>133.0</ele><time>2026-04-19T09:45:32.002Z</time></trkpt><trkpt lat="43.467317" lon="10.7431744"><ele>132.0</ele><time>2026-04-19T09:45:32.991Z</time></trkpt><trkpt lat="43.4673341" lon="10.7430296"><ele>131.0</ele><time>2026-04-19T09:45:33.99Z</time></trkpt><trkpt lat="43.4673607" lon="10.7428833"><ele>130.0</ele><time>2026-04-19T09:45:34.994Z</time></trkpt><trkpt lat="43.467395" lon="10.7427381"><ele>130.75</ele><time>2026-04-19T09:45:35.998Z</time></trkpt><trkpt lat="43.467435" lon="10.742585"><ele>131.5</ele><time>2026-04-19T09:45:37.017Z</time></trkpt><trkpt lat="43.4674855" lon="10.7424384"><ele>132.25</ele><time>2026-04-19T09:45:37.997Z</time></trkpt><trkpt lat="43.4675385" lon="10.7422906"><ele>133.0</ele><time>2026-04-19T09:45:38.993Z</time></trkpt><trkpt lat="43.4675965" lon="10.7421342"><ele>133.0</ele><time>2026-04-19T09:45:39.997Z</time></trkpt><trkpt lat="43.4676544" lon="10.7419781"><ele>133.0</ele><time>2026-04-19T09:45:41Z</time></trkpt><trkpt lat="43.4677121" lon="10.74182"><ele>133.0</ele><time>2026-04-19T09:45:42.002Z</time></trkpt><trkpt lat="43.4677609" lon="10.7416693"><ele>133.0</ele><time>2026-04-19T09:45:42.991Z</time></trkpt><trkpt lat="43.4678158" lon="10.7415227"><ele>133.25</ele><time>2026-04-19T09:45:44Z</time></trkpt><trkpt lat="43.46788" lon="10.7413813"><ele>133.5</ele><time>2026-04-19T09:45:44.991Z</time></trkpt><trkpt lat="43.4679502" lon="10.7412549"><ele>133.75</ele><time>2026-04-19T09:45:45.996Z</time></trkpt><trkpt lat="43.4680257" lon="10.741131"><ele>134.0</ele><time>2026-04-19T09:45:46.995Z</time></trkpt><trkpt lat="43.4681072" lon="10.7410213"><ele>133.4</ele><time>2026-04-19T09:45:47.994Z</time></trkpt><trkpt lat="43.4681983" lon="10.740925"><ele>132.8</ele><time>2026-04-19T09:45:48.99Z</time></trkpt><trkpt lat="43.4682847" lon="10.7408322"><ele>132.2</ele><time>2026-04-19T09:45:49.989Z</time></trkpt><trkpt lat="43.4683531" lon="10.7407263"><ele>131.6</ele><time>2026-04-19T09:45:50.989Z</time></trkpt><trkpt lat="43.4684053" lon="10.7405941"><ele>131.0</ele><time>2026-04-19T09:45:51.996Z</time></trkpt><trkpt lat="43.4684374" lon="10.7404427"><ele>131.0</ele><time>2026-04-19T09:45:53.007Z</time></trkpt><trkpt lat="43.4684565" lon="10.740281"><ele>131.0</ele><time>2026-04-19T09:45:53.997Z</time></trkpt><trkpt lat="43.4684707" lon="10.7401275"><ele>131.0</ele><time>2026-04-19T09:45:54.994Z</time></trkpt><trkpt lat="43.4684813" lon="10.7399894"><ele>131.0</ele><time>2026-04-19T09:45:55.993Z</time></trkpt><trkpt lat="43.4684983" lon="10.7398505"><ele>131.0</ele><time>2026-04-19T09:45:56.995Z</time></trkpt><trkpt lat="43.4685184" lon="10.7397185"><ele>131.0</ele><time>2026-04-19T09:45:57.996Z</time></trkpt><trkpt lat="43.468527" lon="10.7395853"><ele>131.0</ele><time>2026-04-19T09:45:59Z</time></trkpt><trkpt lat="43.4685226" lon="10.7394602"><ele>131.0</ele><time>2026-04-19T09:45:59.992Z</time></trkpt><trkpt lat="43.4685003" lon="10.7393303"><ele>131.0</ele><time>2026-04-19T09:46:00.987Z</time></trkpt><trkpt lat="43.4684655" lon="10.7392235"><ele>131.0</ele><time>2026-04-19T09:46:01.994Z</time></trkpt><trkpt lat="43.4684228" lon="10.7391082"><ele>131.33333333333331</ele><time>2026-04-19T09:46:02.989Z</time></trkpt><trkpt lat="43.4683737" lon="10.7389993"><ele>131.66666666666666</ele><time>2026-04-19T09:46:03.987Z</time></trkpt><trkpt lat="43.4683139" lon="10.7389038"><ele>132.0</ele><time>2026-04-19T09:46:05.021Z</time></trkpt><trkpt lat="43.4682652" lon="10.7388102"><ele>132.33333333333334</ele><time>2026-04-19T09:46:05.989Z</time></trkpt><trkpt lat="43.4682282" lon="10.7387209"><ele>132.66666666666669</ele><time>2026-04-19T09:46:06.995Z</time></trkpt><trkpt lat="43.4682064" lon="10.7386389"><ele>133.0</ele><time>2026-04-19T09:46:07.994Z</time></trkpt><trkpt lat="43.4682106" lon="10.7384698"><ele>133.66666666666669</ele><time>2026-04-19T09:46:09.994Z</time></trkpt><trkpt lat="43.4682499" lon="10.7383928"><ele>134.33333333333334</ele><time>2026-04-19T09:46:10.994Z</time></trkpt><trkpt lat="43.4682959" lon="10.7383159"><ele>135.0</ele><time>2026-04-19T09:46:12Z</time></trkpt><trkpt lat="43.4683575" lon="10.7382514"><ele>135.66666666666666</ele><time>2026-04-19T09:46:12.99Z</time></trkpt><trkpt lat="43.4684266" lon="10.7381895"><ele>136.33333333333331</ele><time>2026-04-19T09:46:13.988Z</time></trkpt><trkpt lat="43.4685009" lon="10.738141"><ele>137.0</ele><time>2026-04-19T09:46:14.998Z</time></trkpt><trkpt lat="43.4685888" lon="10.738118"><ele>137.0</ele><time>2026-04-19T09:46:15.989Z</time></trkpt><trkpt lat="43.4686864" lon="10.7380991"><ele>137.0</ele><time>2026-04-19T09:46:16.993Z</time></trkpt><trkpt lat="43.468785" lon="10.738094"><ele>137.0</ele><time>2026-04-19T09:46:17.989Z</time></trkpt><trkpt lat="43.4688851" lon="10.7380889"><ele>137.0</ele><time>2026-04-19T09:46:18.993Z</time></trkpt><trkpt lat="43.468989" lon="10.7380728"><ele>137.0</ele><time>2026-04-19T09:46:19.991Z</time></trkpt><trkpt lat="43.4690889" lon="10.7380442"><ele>137.5</ele><time>2026-04-19T09:46:20.993Z</time></trkpt><trkpt lat="43.4691688" lon="10.738"><ele>138.0</ele><time>2026-04-19T09:46:22Z</time></trkpt><trkpt lat="43.4692398" lon="10.7379424"><ele>138.5</ele><time>2026-04-19T09:46:22.996Z</time></trkpt><trkpt lat="43.4693029" lon="10.7378686"><ele>139.0</ele><time>2026-04-19T09:46:23.997Z</time></trkpt><trkpt lat="43.4693683" lon="10.7377945"><ele>139.5</ele><time>2026-04-19T09:46:24.999Z</time></trkpt><trkpt lat="43.4694328" lon="10.7377016"><ele>140.0</ele><time>2026-04-19T09:46:25.991Z</time></trkpt><trkpt lat="43.4694876" lon="10.7376029"><ele>140.0</ele><time>2026-04-19T09:46:26.994Z</time></trkpt><trkpt lat="43.4695363" lon="10.7374942"><ele>140.0</ele><time>2026-04-19T09:46:27.998Z</time></trkpt><trkpt lat="43.4695861" lon="10.7373923"><ele>140.0</ele><time>2026-04-19T09:46:28.997Z</time></trkpt><trkpt lat="43.469638" lon="10.7372929"><ele>140.0</ele><time>2026-04-19T09:46:29.998Z</time></trkpt><trkpt lat="43.4696944" lon="10.7371968"><ele>140.0</ele><time>2026-04-19T09:46:31.025Z</time></trkpt><trkpt lat="43.469749" lon="10.7371054"><ele>140.0</ele><time>2026-04-19T09:46:32.002Z</time></trkpt><trkpt lat="43.4697961" lon="10.7370024"><ele>141.5</ele><time>2026-04-19T09:46:32.995Z</time></trkpt><trkpt lat="43.4698411" lon="10.7368968"><ele>143.0</ele><time>2026-04-19T09:46:34Z</time></trkpt><trkpt lat="43.4698798" lon="10.7367933"><ele>144.5</ele><time>2026-04-19T09:46:34.983Z</time></trkpt><trkpt lat="43.4699233" lon="10.7366937"><ele>146.0</ele><time>2026-04-19T09:46:36.013Z</time></trkpt><trkpt lat="43.4699659" lon="10.7365992"><ele>147.5</ele><time>2026-04-19T09:46:36.997Z</time></trkpt><trkpt lat="43.4700042" lon="10.7365002"><ele>149.0</ele><time>2026-04-19T09:46:37.998Z</time></trkpt><trkpt lat="43.4700389" lon="10.7364042"><ele>150.0</ele><time>2026-04-19T09:46:38.991Z</time></trkpt><trkpt lat="43.470078" lon="10.7363155"><ele>151.0</ele><time>2026-04-19T09:46:39.989Z</time></trkpt><trkpt lat="43.4701115" lon="10.7362354"><ele>152.0</ele><time>2026-04-19T09:46:40.982Z</time></trkpt><trkpt lat="43.4701554" lon="10.7361601"><ele>153.0</ele><time>2026-04-19T09:46:42.001Z</time></trkpt><trkpt lat="43.4701983" lon="10.7360794"><ele>154.0</ele><time>2026-04-19T09:46:42.995Z</time></trkpt><trkpt lat="43.4702374" lon="10.735985"><ele>155.0</ele><time>2026-04-19T09:46:43.991Z</time></trkpt><trkpt lat="43.4702731" lon="10.7358697"><ele>156.4</ele><time>2026-04-19T09:46:44.991Z</time></trkpt><trkpt lat="43.4702981" lon="10.7357433"><ele>157.8</ele><time>2026-04-19T09:46:46Z</time></trkpt><trkpt lat="43.4703124" lon="10.7355966"><ele>159.2</ele><time>2026-04-19T09:46:47.037Z</time></trkpt><trkpt lat="43.4703337" lon="10.7354495"><ele>160.6</ele><time>2026-04-19T09:46:47.996Z</time></trkpt><trkpt lat="43.4703591" lon="10.7352944"><ele>162.0</ele><time>2026-04-19T09:46:49.001Z</time></trkpt><trkpt lat="43.4703809" lon="10.73514"><ele>165.2</ele><time>2026-04-19T09:46:49.984Z</time></trkpt><trkpt lat="43.4704009" lon="10.7349875"><ele>168.39999999999998</ele><time>2026-04-19T09:46:51.002Z</time></trkpt><trkpt lat="43.470411" lon="10.7348382"><ele>171.60000000000002</ele><time>2026-04-19T09:46:51.998Z</time></trkpt><trkpt lat="43.4704096" lon="10.7346916"><ele>174.8</ele><time>2026-04-19T09:46:52.988Z</time></trkpt><trkpt lat="43.4703886" lon="10.7345562"><ele>178.0</ele><time>2026-04-19T09:46:54.004Z</time></trkpt><trkpt lat="43.4703635" lon="10.7344287"><ele>178.0</ele><time>2026-04-19T09:46:54.998Z</time></trkpt><trkpt lat="43.4703419" lon="10.7342925"><ele>178.0</ele><time>2026-04-19T09:46:56.007Z</time></trkpt><trkpt lat="43.4703261" lon="10.7341534"><ele>178.0</ele><time>2026-04-19T09:46:56.998Z</time></trkpt><trkpt lat="43.4703218" lon="10.7340219"><ele>178.0</ele><time>2026-04-19T09:46:58.006Z</time></trkpt><trkpt lat="43.4703351" lon="10.7338792"><ele>178.0</ele><time>2026-04-19T09:46:58.987Z</time></trkpt><trkpt lat="43.4703577" lon="10.733725"><ele>178.0</ele><time>2026-04-19T09:46:59.992Z</time></trkpt><trkpt lat="43.4703806" lon="10.733565"><ele>178.0</ele><time>2026-04-19T09:47:00.99Z</time></trkpt><trkpt lat="43.4703959" lon="10.7333953"><ele>178.0</ele><time>2026-04-19T09:47:02Z</time></trkpt><trkpt lat="43.4704092" lon="10.7332283"><ele>178.0</ele><time>2026-04-19T09:47:03.033Z</time></trkpt><trkpt lat="43.4704271" lon="10.7330569"><ele>177.0</ele><time>2026-04-19T09:47:03.997Z</time></trkpt><trkpt lat="43.470434" lon="10.732881"><ele>176.0</ele><time>2026-04-19T09:47:04.99Z</time></trkpt><trkpt lat="43.4704494" lon="10.7327127"><ele>175.0</ele><time>2026-04-19T09:47:06.009Z</time></trkpt><trkpt lat="43.4704764" lon="10.7325515"><ele>174.0</ele><time>2026-04-19T09:47:06.995Z</time></trkpt><trkpt lat="43.4705176" lon="10.7323882"><ele>177.25</ele><time>2026-04-19T09:47:07.998Z</time></trkpt><trkpt lat="43.4705527" lon="10.7322202"><ele>180.5</ele><time>2026-04-19T09:47:08.996Z</time></trkpt><trkpt lat="43.4705827" lon="10.7320504"><ele>183.75</ele><time>2026-04-19T09:47:09.985Z</time></trkpt><trkpt lat="43.4706036" lon="10.7318836"><ele>187.0</ele><time>2026-04-19T09:47:10.988Z</time></trkpt><trkpt lat="43.4706234" lon="10.7317241"><ele>188.8</ele><time>2026-04-19T09:47:11.999Z</time></trkpt><trkpt lat="43.4706454" lon="10.7315598"><ele>190.6</ele><time>2026-04-19T09:47:12.992Z</time></trkpt><trkpt lat="43.4706663" lon="10.7313961"><ele>192.4</ele><time>2026-04-19T09:47:14.007Z</time></trkpt><trkpt lat="43.4706842" lon="10.73125"><ele>194.20000000000002</ele><time>2026-04-19T09:47:14.99Z</time></trkpt><trkpt lat="43.4707054" lon="10.7311247"><ele>196.0</ele><time>2026-04-19T09:47:16.003Z</time></trkpt><trkpt lat="43.4707276" lon="10.731018"><ele>196.20000000000002</ele><time>2026-04-19T09:47:17Z</time></trkpt><trkpt lat="43.4707387" lon="10.7309173"><ele>196.4</ele><time>2026-04-19T09:47:17.989Z</time></trkpt><trkpt lat="43.4707446" lon="10.7307574"><ele>196.6</ele><time>2026-04-19T09:47:19.997Z</time></trkpt><trkpt lat="43.4707421" lon="10.7306699"><ele>196.8</ele><time>2026-04-19T09:47:20.992Z</time></trkpt><trkpt lat="43.4707268" lon="10.7305273"><ele>197.0</ele><time>2026-04-19T09:47:22.988Z</time></trkpt><trkpt lat="43.4706861" lon="10.7303985"><ele>197.0</ele><time>2026-04-19T09:47:24.997Z</time></trkpt><trkpt lat="43.4706475" lon="10.7302236"><ele>197.0</ele><time>2026-04-19T09:47:27.003Z</time></trkpt><trkpt lat="43.4706269" lon="10.7301288"><ele>197.0</ele><time>2026-04-19T09:47:27.989Z</time></trkpt><trkpt lat="43.4706048" lon="10.7300414"><ele>197.0</ele><time>2026-04-19T09:47:28.999Z</time></trkpt><trkpt lat="43.4705677" lon="10.7298799"><ele>197.0</ele><time>2026-04-19T09:47:31.036Z</time></trkpt><trkpt lat="43.4705276" lon="10.7297144"><ele>197.00000000000003</ele><time>2026-04-19T09:47:32.986Z</time></trkpt><trkpt lat="43.4705089" lon="10.7296214"><ele>197.0</ele><time>2026-04-19T09:47:33.99Z</time></trkpt><trkpt lat="43.4704957" lon="10.7295354"><ele>197.0</ele><time>2026-04-19T09:47:35.009Z</time></trkpt><trkpt lat="43.4704889" lon="10.7294152"><ele>197.0</ele><time>2026-04-19T09:47:37Z</time></trkpt><trkpt lat="43.4705033" lon="10.7293189"><ele>197.00000000000003</ele><time>2026-04-19T09:47:38.99Z</time></trkpt><trkpt lat="43.4705737" lon="10.7292"><ele>197.0</ele><time>2026-04-19T09:47:40.995Z</time></trkpt><trkpt lat="43.4706502" lon="10.7291303"><ele>198.39999999999998</ele><time>2026-04-19T09:47:42.02Z</time></trkpt><trkpt lat="43.4707274" lon="10.7290656"><ele>199.79999999999998</ele><time>2026-04-19T09:47:42.998Z</time></trkpt><trkpt lat="43.4708144" lon="10.7289925"><ele>201.2</ele><time>2026-04-19T09:47:43.996Z</time></trkpt><trkpt lat="43.4709046" lon="10.7289107"><ele>202.6</ele><time>2026-04-19T09:47:44.994Z</time></trkpt><trkpt lat="43.470997" lon="10.7288287"><ele>204.0</ele><time>2026-04-19T09:47:45.993Z</time></trkpt><trkpt lat="43.4710931" lon="10.7287573"><ele>204.0</ele><time>2026-04-19T09:47:47.014Z</time></trkpt><trkpt lat="43.4711793" lon="10.7286924"><ele>204.0</ele><time>2026-04-19T09:47:47.994Z</time></trkpt><trkpt lat="43.4712668" lon="10.7286482"><ele>204.0</ele><time>2026-04-19T09:47:49.008Z</time></trkpt><trkpt lat="43.4713581" lon="10.7286004"><ele>204.0</ele><time>2026-04-19T09:47:50.009Z</time></trkpt><trkpt lat="43.4714606" lon="10.7285512"><ele>204.0</ele><time>2026-04-19T09:47:50.999Z</time></trkpt><trkpt lat="43.471572" lon="10.7284989"><ele>204.2</ele><time>2026-04-19T09:47:51.998Z</time></trkpt><trkpt lat="43.4716717" lon="10.7284512"><ele>204.39999999999998</ele><time>2026-04-19T09:47:52.995Z</time></trkpt><trkpt lat="43.471755" lon="10.7284215"><ele>204.6</ele><time>2026-04-19T09:47:53.987Z</time></trkpt><trkpt lat="43.4718221" lon="10.7283972"><ele>204.8</ele><time>2026-04-19T09:47:54.98Z</time></trkpt><trkpt lat="43.4719177" lon="10.7283705"><ele>205.0</ele><time>2026-04-19T09:47:56.999Z</time></trkpt><trkpt lat="43.4720479" lon="10.7283856"><ele>204.8</ele><time>2026-04-19T09:47:59.003Z</time></trkpt><trkpt lat="43.4721229" lon="10.7283829"><ele>204.6</ele><time>2026-04-19T09:47:59.987Z</time></trkpt><trkpt lat="43.4722227" lon="10.7283667"><ele>204.39999999999998</ele><time>2026-04-19T09:48:00.991Z</time></trkpt><trkpt lat="43.4723287" lon="10.7283374"><ele>204.2</ele><time>2026-04-19T09:48:01.979Z</time></trkpt><trkpt lat="43.4724253" lon="10.7282824"><ele>204.0</ele><time>2026-04-19T09:48:02.987Z</time></trkpt><trkpt lat="43.4725218" lon="10.7282114"><ele>204.0</ele><time>2026-04-19T09:48:03.987Z</time></trkpt><trkpt lat="43.4726185" lon="10.728151"><ele>204.0</ele><time>2026-04-19T09:48:04.993Z</time></trkpt><trkpt lat="43.4727189" lon="10.7280927"><ele>204.0</ele><time>2026-04-19T09:48:05.997Z</time></trkpt><trkpt lat="43.4728125" lon="10.7280336"><ele>204.0</ele><time>2026-04-19T09:48:06.997Z</time></trkpt><trkpt lat="43.4729081" lon="10.7279641"><ele>204.0</ele><time>2026-04-19T09:48:07.995Z</time></trkpt><trkpt lat="43.473004" lon="10.7279084"><ele>203.6</ele><time>2026-04-19T09:48:08.998Z</time></trkpt><trkpt lat="43.4730987" lon="10.7278952"><ele>203.2</ele><time>2026-04-19T09:48:09.997Z</time></trkpt><trkpt lat="43.4731977" lon="10.7279237"><ele>202.79999999999998</ele><time>2026-04-19T09:48:10.992Z</time></trkpt><trkpt lat="43.4732995" lon="10.7279391"><ele>202.39999999999998</ele><time>2026-04-19T09:48:12.008Z</time></trkpt><trkpt lat="43.4734034" lon="10.7279607"><ele>202.0</ele><time>2026-04-19T09:48:13.002Z</time></trkpt><trkpt lat="43.473518" lon="10.7280009"><ele>202.0</ele><time>2026-04-19T09:48:14.004Z</time></trkpt><trkpt lat="43.4736295" lon="10.7280468"><ele>202.0</ele><time>2026-04-19T09:48:14.992Z</time></trkpt><trkpt lat="43.4737383" lon="10.7280819"><ele>202.0</ele><time>2026-04-19T09:48:16.004Z</time></trkpt><trkpt lat="43.4738541" lon="10.7281313"><ele>202.0</ele><time>2026-04-19T09:48:16.994Z</time></trkpt><trkpt lat="43.4739629" lon="10.7281829"><ele>204.25</ele><time>2026-04-19T09:48:18.011Z</time></trkpt><trkpt lat="43.4740785" lon="10.7282244"><ele>206.5</ele><time>2026-04-19T09:48:18.996Z</time></trkpt><trkpt lat="43.4741917" lon="10.7282635"><ele>208.75</ele><time>2026-04-19T09:48:20Z</time></trkpt><trkpt lat="43.4742997" lon="10.7283013"><ele>211.0</ele><time>2026-04-19T09:48:20.987Z</time></trkpt><trkpt lat="43.4744071" lon="10.728336"><ele>211.0</ele><time>2026-04-19T09:48:22.036Z</time></trkpt><trkpt lat="43.4745122" lon="10.7283639"><ele>211.0</ele><time>2026-04-19T09:48:22.988Z</time></trkpt><trkpt lat="43.4746164" lon="10.7283799"><ele>211.0</ele><time>2026-04-19T09:48:23.989Z</time></trkpt><trkpt lat="43.4747049" lon="10.7284162"><ele>211.0</ele><time>2026-04-19T09:48:24.995Z</time></trkpt><trkpt lat="43.4747838" lon="10.7284347"><ele>211.0</ele><time>2026-04-19T09:48:25.993Z</time></trkpt><trkpt lat="43.4748672" lon="10.7284406"><ele>211.49999999999997</ele><time>2026-04-19T09:48:26.999Z</time></trkpt><trkpt lat="43.4749549" lon="10.7284364"><ele>212.0</ele><time>2026-04-19T09:48:27.994Z</time></trkpt><trkpt lat="43.4750383" lon="10.7284262"><ele>212.5</ele><time>2026-04-19T09:48:28.983Z</time></trkpt><trkpt lat="43.4751225" lon="10.7284191"><ele>213.0</ele><time>2026-04-19T09:48:30.005Z</time></trkpt><trkpt lat="43.4752008" lon="10.7284211"><ele>213.49999999999997</ele><time>2026-04-19T09:48:30.995Z</time></trkpt><trkpt lat="43.4753104" lon="10.7284376"><ele>214.0</ele><time>2026-04-19T09:48:32.996Z</time></trkpt><trkpt lat="43.4754112" lon="10.7284922"><ele>213.79999999999998</ele><time>2026-04-19T09:48:34.986Z</time></trkpt><trkpt lat="43.4755029" lon="10.728549"><ele>213.59999999999997</ele><time>2026-04-19T09:48:36.995Z</time></trkpt><trkpt lat="43.4755936" lon="10.7286153"><ele>213.4</ele><time>2026-04-19T09:48:38.985Z</time></trkpt><trkpt lat="43.4757063" lon="10.7286631"><ele>213.2</ele><time>2026-04-19T09:48:41.009Z</time></trkpt><trkpt lat="43.4757781" lon="10.7286962"><ele>213.0</ele><time>2026-04-19T09:48:41.999Z</time></trkpt><trkpt lat="43.4758608" lon="10.7287352"><ele>211.83333333333334</ele><time>2026-04-19T09:48:42.99Z</time></trkpt><trkpt lat="43.4759447" lon="10.7287838"><ele>210.66666666666669</ele><time>2026-04-19T09:48:43.995Z</time></trkpt><trkpt lat="43.4760333" lon="10.7288308"><ele>209.5</ele><time>2026-04-19T09:48:44.999Z</time></trkpt><trkpt lat="43.4761182" lon="10.7288776"><ele>208.33333333333334</ele><time>2026-04-19T09:48:45.991Z</time></trkpt><trkpt lat="43.4762006" lon="10.7289329"><ele>207.16666666666669</ele><time>2026-04-19T09:48:46.995Z</time></trkpt><trkpt lat="43.4762686" lon="10.7289739"><ele>206.0</ele><time>2026-04-19T09:48:47.996Z</time></trkpt><trkpt lat="43.4763249" lon="10.7290169"><ele>206.00000000000003</ele><time>2026-04-19T09:48:48.986Z</time></trkpt><trkpt lat="43.4763836" lon="10.7290589"><ele>206.0</ele><time>2026-04-19T09:48:49.983Z</time></trkpt><trkpt lat="43.4764846" lon="10.7291428"><ele>206.0</ele><time>2026-04-19T09:48:51.996Z</time></trkpt><trkpt lat="43.4765463" lon="10.7291944"><ele>206.0</ele><time>2026-04-19T09:48:53.004Z</time></trkpt><trkpt lat="43.476608" lon="10.7292384"><ele>206.00000000000003</ele><time>2026-04-19T09:48:54.004Z</time></trkpt><trkpt lat="43.4766751" lon="10.7292806"><ele>206.0</ele><time>2026-04-19T09:48:54.989Z</time></trkpt><trkpt lat="43.4767534" lon="10.7293129"><ele>206.0</ele><time>2026-04-19T09:48:56.016Z</time></trkpt><trkpt lat="43.47684" lon="10.7293359"><ele>206.0</ele><time>2026-04-19T09:48:57Z</time></trkpt><trkpt lat="43.4769236" lon="10.7293616"><ele>206.0</ele><time>2026-04-19T09:48:57.995Z</time></trkpt><trkpt lat="43.4769979" lon="10.7293867"><ele>206.0</ele><time>2026-04-19T09:48:59Z</time></trkpt><trkpt lat="43.477092" lon="10.729488"><ele>206.0</ele><time>2026-04-19T09:49:00.996Z</time></trkpt><trkpt lat="43.4771017" lon="10.7295998"><ele>204.8</ele><time>2026-04-19T09:49:02.003Z</time></trkpt><trkpt lat="43.477118" lon="10.7297344"><ele>203.60000000000002</ele><time>2026-04-19T09:49:02.997Z</time></trkpt><trkpt lat="43.4771285" lon="10.7298605"><ele>202.4</ele><time>2026-04-19T09:49:04.008Z</time></trkpt><trkpt lat="43.4771478" lon="10.7300027"><ele>201.2</ele><time>2026-04-19T09:49:04.988Z</time></trkpt><trkpt lat="43.4771906" lon="10.7301536"><ele>200.0</ele><time>2026-04-19T09:49:05.993Z</time></trkpt><trkpt lat="43.4772483" lon="10.7302961"><ele>197.5</ele><time>2026-04-19T09:49:06.997Z</time></trkpt><trkpt lat="43.4772925" lon="10.7304445"><ele>195.0</ele><time>2026-04-19T09:49:08.006Z</time></trkpt><trkpt lat="43.4773321" lon="10.7306077"><ele>192.5</ele><time>2026-04-19T09:49:09.012Z</time></trkpt><trkpt lat="43.4773573" lon="10.7307685"><ele>190.0</ele><time>2026-04-19T09:49:10.006Z</time></trkpt><trkpt lat="43.4773682" lon="10.7309444"><ele>188.0</ele><time>2026-04-19T09:49:11.004Z</time></trkpt><trkpt lat="43.4773784" lon="10.7311249"><ele>186.0</ele><time>2026-04-19T09:49:12.019Z</time></trkpt><trkpt lat="43.477398" lon="10.7313075"><ele>184.0</ele><time>2026-04-19T09:49:13.001Z</time></trkpt><trkpt lat="43.4774329" lon="10.7314923"><ele>182.0</ele><time>2026-04-19T09:49:13.995Z</time></trkpt><trkpt lat="43.4774822" lon="10.7316615"><ele>182.0</ele><time>2026-04-19T09:49:15.003Z</time></trkpt><trkpt lat="43.4775478" lon="10.7318001"><ele>182.0</ele><time>2026-04-19T09:49:16.01Z</time></trkpt><trkpt lat="43.4776278" lon="10.7319047"><ele>182.0</ele><time>2026-04-19T09:49:16.996Z</time></trkpt><trkpt lat="43.4777196" lon="10.7319429"><ele>182.0</ele><time>2026-04-19T09:49:17.995Z</time></trkpt><trkpt lat="43.4778178" lon="10.7319332"><ele>182.0</ele><time>2026-04-19T09:49:18.993Z</time></trkpt><trkpt lat="43.4779261" lon="10.7318699"><ele>178.5</ele><time>2026-04-19T09:49:20.014Z</time></trkpt><trkpt lat="43.4780117" lon="10.7317498"><ele>175.0</ele><time>2026-04-19T09:49:20.996Z</time></trkpt><trkpt lat="43.4780823" lon="10.731596"><ele>171.5</ele><time>2026-04-19T09:49:22Z</time></trkpt><trkpt lat="43.4781332" lon="10.7314267"><ele>168.0</ele><time>2026-04-19T09:49:22.995Z</time></trkpt><trkpt lat="43.4781618" lon="10.731244"><ele>168.0</ele><time>2026-04-19T09:49:23.993Z</time></trkpt><trkpt lat="43.4781795" lon="10.7310698"><ele>168.0</ele><time>2026-04-19T09:49:24.991Z</time></trkpt><trkpt lat="43.4781961" lon="10.7309215"><ele>168.0</ele><time>2026-04-19T09:49:25.984Z</time></trkpt><trkpt lat="43.4782273" lon="10.7308117"><ele>168.0</ele><time>2026-04-19T09:49:26.99Z</time></trkpt><trkpt lat="43.4782714" lon="10.7307235"><ele>168.0</ele><time>2026-04-19T09:49:27.993Z</time></trkpt><trkpt lat="43.478343" lon="10.7306523"><ele>169.2</ele><time>2026-04-19T09:49:28.999Z</time></trkpt><trkpt lat="43.4784327" lon="10.7306238"><ele>170.4</ele><time>2026-04-19T09:49:29.998Z</time></trkpt><trkpt lat="43.4785255" lon="10.7306016"><ele>171.6</ele><time>2026-04-19T09:49:30.984Z</time></trkpt><trkpt lat="43.4786217" lon="10.7305736"><ele>172.79999999999998</ele><time>2026-04-19T09:49:31.984Z</time></trkpt><trkpt lat="43.4787229" lon="10.7305387"><ele>174.0</ele><time>2026-04-19T09:49:32.989Z</time></trkpt><trkpt lat="43.4788138" lon="10.7304925"><ele>174.0</ele><time>2026-04-19T09:49:33.989Z</time></trkpt><trkpt lat="43.478876" lon="10.730444"><ele>174.0</ele><time>2026-04-19T09:49:34.99Z</time></trkpt><trkpt lat="43.4789507" lon="10.7303974"><ele>174.0</ele><time>2026-04-19T09:49:36.992Z</time></trkpt><trkpt lat="43.4788763" lon="10.7303669"><ele>174.0</ele><time>2026-04-19T09:49:41.988Z</time></trkpt><trkpt lat="43.478764" lon="10.730463"><ele>174.0</ele><time>2026-04-19T09:49:43.996Z</time></trkpt><trkpt lat="43.4786802" lon="10.7304912"><ele>174.0</ele><time>2026-04-19T09:49:44.988Z</time></trkpt><trkpt lat="43.4785801" lon="10.730521"><ele>174.0</ele><time>2026-04-19T09:49:45.985Z</time></trkpt><trkpt lat="43.4784728" lon="10.7305539"><ele>174.0</ele><time>2026-04-19T09:49:46.984Z</time></trkpt><trkpt lat="43.4783651" lon="10.7305904"><ele>174.0</ele><time>2026-04-19T09:49:47.991Z</time></trkpt><trkpt lat="43.4782744" lon="10.7306605"><ele>174.0</ele><time>2026-04-19T09:49:48.987Z</time></trkpt><trkpt lat="43.4782068" lon="10.7307766"><ele>174.0</ele><time>2026-04-19T09:49:49.987Z</time></trkpt><trkpt lat="43.4781662" lon="10.7309202"><ele>174.0</ele><time>2026-04-19T09:49:50.983Z</time></trkpt><trkpt lat="43.4781613" lon="10.7310711"><ele>174.0</ele><time>2026-04-19T09:49:51.985Z</time></trkpt><trkpt lat="43.4781462" lon="10.7312251"><ele>174.0</ele><time>2026-04-19T09:49:52.99Z</time></trkpt><trkpt lat="43.478132" lon="10.7313542"><ele>174.0</ele><time>2026-04-19T09:49:53.989Z</time></trkpt><trkpt lat="43.4781036" lon="10.7314798"><ele>173.16666666666666</ele><time>2026-04-19T09:49:54.992Z</time></trkpt><trkpt lat="43.4780709" lon="10.7316069"><ele>172.33333333333334</ele><time>2026-04-19T09:49:55.998Z</time></trkpt><trkpt lat="43.4780183" lon="10.7317041"><ele>171.5</ele><time>2026-04-19T09:49:57.002Z</time></trkpt><trkpt lat="43.4779626" lon="10.7317779"><ele>170.66666666666669</ele><time>2026-04-19T09:49:57.994Z</time></trkpt><trkpt lat="43.4779024" lon="10.7318342"><ele>169.83333333333334</ele><time>2026-04-19T09:49:59Z</time></trkpt><trkpt lat="43.4778139" lon="10.7319048"><ele>169.0</ele><time>2026-04-19T09:50:00.991Z</time></trkpt><trkpt lat="43.4777703" lon="10.7319933"><ele>169.0</ele><time>2026-04-19T09:50:03.005Z</time></trkpt><trkpt lat="43.4777955" lon="10.7321864"><ele>169.0</ele><time>2026-04-19T09:50:04.99Z</time></trkpt><trkpt lat="43.4778131" lon="10.7323171"><ele>169.0</ele><time>2026-04-19T09:50:05.992Z</time></trkpt><trkpt lat="43.4778331" lon="10.7324402"><ele>169.0</ele><time>2026-04-19T09:50:06.993Z</time></trkpt><trkpt lat="43.4778507" lon="10.7325642"><ele>169.0</ele><time>2026-04-19T09:50:07.987Z</time></trkpt><trkpt lat="43.4778715" lon="10.7326777"><ele>167.79999999999998</ele><time>2026-04-19T09:50:09.006Z</time></trkpt><trkpt lat="43.4779136" lon="10.7327888"><ele>166.6</ele><time>2026-04-19T09:50:09.993Z</time></trkpt><trkpt lat="43.477975" lon="10.7329055"><ele>165.4</ele><time>2026-04-19T09:50:10.99Z</time></trkpt><trkpt lat="43.4780437" lon="10.7330245"><ele>164.2</ele><time>2026-04-19T09:50:11.991Z</time></trkpt><trkpt lat="43.4781076" lon="10.7331273"><ele>163.0</ele><time>2026-04-19T09:50:12.999Z</time></trkpt><trkpt lat="43.4781618" lon="10.7332281"><ele>163.0</ele><time>2026-04-19T09:50:13.993Z</time></trkpt><trkpt lat="43.4782154" lon="10.7333164"><ele>163.0</ele><time>2026-04-19T09:50:14.994Z</time></trkpt><trkpt lat="43.4782698" lon="10.7333753"><ele>163.0</ele><time>2026-04-19T09:50:15.994Z</time></trkpt><trkpt lat="43.47833" lon="10.7334147"><ele>163.0</ele><time>2026-04-19T09:50:16.988Z</time></trkpt><trkpt lat="43.4783895" lon="10.7334461"><ele>163.0</ele><time>2026-04-19T09:50:17.988Z</time></trkpt><trkpt lat="43.4784471" lon="10.7334998"><ele>163.0</ele><time>2026-04-19T09:50:18.986Z</time></trkpt><trkpt lat="43.4784803" lon="10.73358"><ele>163.0</ele><time>2026-04-19T09:50:19.991Z</time></trkpt><trkpt lat="43.4785097" lon="10.7336771"><ele>162.4</ele><time>2026-04-19T09:50:21.025Z</time></trkpt><trkpt lat="43.4785363" lon="10.7337806"><ele>161.8</ele><time>2026-04-19T09:50:21.994Z</time></trkpt><trkpt lat="43.4785714" lon="10.733895"><ele>161.2</ele><time>2026-04-19T09:50:22.993Z</time></trkpt><trkpt lat="43.4786147" lon="10.7340295"><ele>160.6</ele><time>2026-04-19T09:50:23.991Z</time></trkpt><trkpt lat="43.4786367" lon="10.7341772"><ele>160.0</ele><time>2026-04-19T09:50:24.986Z</time></trkpt><trkpt lat="43.4786387" lon="10.7343429"><ele>158.5</ele><time>2026-04-19T09:50:25.992Z</time></trkpt><trkpt lat="43.4786442" lon="10.734511"><ele>157.0</ele><time>2026-04-19T09:50:26.989Z</time></trkpt><trkpt lat="43.4786524" lon="10.7346692"><ele>155.5</ele><time>2026-04-19T09:50:27.99Z</time></trkpt><trkpt lat="43.4786736" lon="10.7348205"><ele>154.0</ele><time>2026-04-19T09:50:29.011Z</time></trkpt><trkpt lat="43.4786926" lon="10.7349662"><ele>154.0</ele><time>2026-04-19T09:50:29.995Z</time></trkpt><trkpt lat="43.4787185" lon="10.7351026"><ele>154.0</ele><time>2026-04-19T09:50:31.005Z</time></trkpt><trkpt lat="43.4787453" lon="10.7352374"><ele>154.0</ele><time>2026-04-19T09:50:32.001Z</time></trkpt><trkpt lat="43.4787728" lon="10.7353667"><ele>154.0</ele><time>2026-04-19T09:50:32.992Z</time></trkpt><trkpt lat="43.478797" lon="10.7354993"><ele>154.0</ele><time>2026-04-19T09:50:34Z</time></trkpt><trkpt lat="43.4788292" lon="10.7356375"><ele>150.0</ele><time>2026-04-19T09:50:34.986Z</time></trkpt><trkpt lat="43.478874" lon="10.7357801"><ele>146.0</ele><time>2026-04-19T09:50:35.988Z</time></trkpt><trkpt lat="43.4789336" lon="10.7359155"><ele>142.0</ele><time>2026-04-19T09:50:36.986Z</time></trkpt><trkpt lat="43.4790094" lon="10.7360352"><ele>138.0</ele><time>2026-04-19T09:50:38.004Z</time></trkpt><trkpt lat="43.4791053" lon="10.7361225"><ele>135.5</ele><time>2026-04-19T09:50:38.996Z</time></trkpt><trkpt lat="43.4792164" lon="10.7362023"><ele>133.0</ele><time>2026-04-19T09:50:39.987Z</time></trkpt><trkpt lat="43.479334" lon="10.7362748"><ele>130.5</ele><time>2026-04-19T09:50:40.994Z</time></trkpt><trkpt lat="43.4794527" lon="10.7363662"><ele>128.0</ele><time>2026-04-19T09:50:41.993Z</time></trkpt><trkpt lat="43.4795664" lon="10.7364735"><ele>126.75</ele><time>2026-04-19T09:50:42.994Z</time></trkpt><trkpt lat="43.4796647" lon="10.7365943"><ele>125.5</ele><time>2026-04-19T09:50:43.989Z</time></trkpt><trkpt lat="43.4797574" lon="10.7367092"><ele>124.25</ele><time>2026-04-19T09:50:44.999Z</time></trkpt><trkpt lat="43.4798531" lon="10.7368212"><ele>123.0</ele><time>2026-04-19T09:50:45.987Z</time></trkpt><trkpt lat="43.4799584" lon="10.7369259"><ele>122.5</ele><time>2026-04-19T09:50:46.992Z</time></trkpt><trkpt lat="43.4800702" lon="10.7370297"><ele>122.0</ele><time>2026-04-19T09:50:47.989Z</time></trkpt><trkpt lat="43.480187" lon="10.7371369"><ele>121.5</ele><time>2026-04-19T09:50:48.992Z</time></trkpt><trkpt lat="43.4803037" lon="10.7372391"><ele>121.0</ele><time>2026-04-19T09:50:49.996Z</time></trkpt><trkpt lat="43.4804103" lon="10.7373366"><ele>120.6</ele><time>2026-04-19T09:50:51.008Z</time></trkpt><trkpt lat="43.4804922" lon="10.7374211"><ele>120.19999999999999</ele><time>2026-04-19T09:50:51.992Z</time></trkpt><trkpt lat="43.4805632" lon="10.7375068"><ele>119.80000000000001</ele><time>2026-04-19T09:50:52.987Z</time></trkpt><trkpt lat="43.4806399" lon="10.7375692"><ele>119.4</ele><time>2026-04-19T09:50:54.011Z</time></trkpt><trkpt lat="43.4807366" lon="10.7376173"><ele>119.0</ele><time>2026-04-19T09:50:54.988Z</time></trkpt><trkpt lat="43.4808531" lon="10.7376314"><ele>119.0</ele><time>2026-04-19T09:50:56.029Z</time></trkpt><trkpt lat="43.4809754" lon="10.7376547"><ele>119.0</ele><time>2026-04-19T09:50:56.998Z</time></trkpt><trkpt lat="43.4811015" lon="10.7376749"><ele>119.0</ele><time>2026-04-19T09:50:58.027Z</time></trkpt><trkpt lat="43.4812285" lon="10.7376718"><ele>119.0</ele><time>2026-04-19T09:50:59.017Z</time></trkpt><trkpt lat="43.4813533" lon="10.7376584"><ele>118.0</ele><time>2026-04-19T09:50:59.991Z</time></trkpt><trkpt lat="43.4814848" lon="10.7376495"><ele>117.0</ele><time>2026-04-19T09:51:01.006Z</time></trkpt><trkpt lat="43.4816139" lon="10.7376538"><ele>116.0</ele><time>2026-04-19T09:51:01.998Z</time></trkpt><trkpt lat="43.4817435" lon="10.737676"><ele>115.0</ele><time>2026-04-19T09:51:03.015Z</time></trkpt><trkpt lat="43.481868" lon="10.7377178"><ele>114.25</ele><time>2026-04-19T09:51:03.992Z</time></trkpt><trkpt lat="43.4819829" lon="10.737776"><ele>113.5</ele><time>2026-04-19T09:51:04.994Z</time></trkpt><trkpt lat="43.4820848" lon="10.7378476"><ele>112.75</ele><time>2026-04-19T09:51:05.993Z</time></trkpt><trkpt lat="43.4821849" lon="10.737917"><ele>112.0</ele><time>2026-04-19T09:51:06.988Z</time></trkpt><trkpt lat="43.4822934" lon="10.7379866"><ele>110.75</ele><time>2026-04-19T09:51:07.998Z</time></trkpt><trkpt lat="43.4824181" lon="10.7380476"><ele>109.5</ele><time>2026-04-19T09:51:08.993Z</time></trkpt><trkpt lat="43.4825416" lon="10.7381044"><ele>108.25</ele><time>2026-04-19T09:51:10.013Z</time></trkpt><trkpt lat="43.4826658" lon="10.7381572"><ele>107.0</ele><time>2026-04-19T09:51:10.995Z</time></trkpt><trkpt lat="43.4827763" lon="10.7382395"><ele>107.0</ele><time>2026-04-19T09:51:11.989Z</time></trkpt><trkpt lat="43.48288" lon="10.7383687"><ele>107.0</ele><time>2026-04-19T09:51:12.983Z</time></trkpt><trkpt lat="43.4829951" lon="10.7385006"><ele>107.0</ele><time>2026-04-19T09:51:13.979Z</time></trkpt><trkpt lat="43.4831204" lon="10.7386374"><ele>107.0</ele><time>2026-04-19T09:51:14.978Z</time></trkpt><trkpt lat="43.483252" lon="10.7387829"><ele>105.66666666666666</ele><time>2026-04-19T09:51:15.985Z</time></trkpt><trkpt lat="43.4833883" lon="10.7389202"><ele>104.33333333333334</ele><time>2026-04-19T09:51:16.988Z</time></trkpt><trkpt lat="43.4835193" lon="10.7390519"><ele>103.0</ele><time>2026-04-19T09:51:17.984Z</time></trkpt><trkpt lat="43.4836441" lon="10.7391772"><ele>103.0</ele><time>2026-04-19T09:51:18.997Z</time></trkpt><trkpt lat="43.4837444" lon="10.739284"><ele>103.0</ele><time>2026-04-19T09:51:19.987Z</time></trkpt><trkpt lat="43.483835" lon="10.7393988"><ele>103.0</ele><time>2026-04-19T09:51:20.991Z</time></trkpt><trkpt lat="43.4839064" lon="10.739527"><ele>103.0</ele><time>2026-04-19T09:51:21.995Z</time></trkpt><trkpt lat="43.4839714" lon="10.7396677"><ele>101.75</ele><time>2026-04-19T09:51:22.994Z</time></trkpt><trkpt lat="43.4840042" lon="10.7398257"><ele>100.5</ele><time>2026-04-19T09:51:24.027Z</time></trkpt><trkpt lat="43.4840313" lon="10.7400015"><ele>99.25</ele><time>2026-04-19T09:51:24.985Z</time></trkpt><trkpt lat="43.4840505" lon="10.7401831"><ele>98.0</ele><time>2026-04-19T09:51:25.991Z</time></trkpt><trkpt lat="43.4840839" lon="10.7403448"><ele>97.75</ele><time>2026-04-19T09:51:27.003Z</time></trkpt><trkpt lat="43.4841277" lon="10.7404856"><ele>97.5</ele><time>2026-04-19T09:51:27.986Z</time></trkpt><trkpt lat="43.4841901" lon="10.7406215"><ele>97.25</ele><time>2026-04-19T09:51:29.031Z</time></trkpt><trkpt lat="43.4842844" lon="10.7407525"><ele>97.0</ele><time>2026-04-19T09:51:29.991Z</time></trkpt><trkpt lat="43.4843867" lon="10.7408837"><ele>97.0</ele><time>2026-04-19T09:51:30.993Z</time></trkpt><trkpt lat="43.4844908" lon="10.7410235"><ele>97.0</ele><time>2026-04-19T09:51:31.998Z</time></trkpt><trkpt lat="43.4845952" lon="10.7411702"><ele>97.0</ele><time>2026-04-19T09:51:32.995Z</time></trkpt><trkpt lat="43.4847005" lon="10.7413179"><ele>97.0</ele><time>2026-04-19T09:51:34.002Z</time></trkpt><trkpt lat="43.4848135" lon="10.7414676"><ele>96.25</ele><time>2026-04-19T09:51:34.998Z</time></trkpt><trkpt lat="43.484917" lon="10.7415989"><ele>95.5</ele><time>2026-04-19T09:51:35.987Z</time></trkpt><trkpt lat="43.4850079" lon="10.7417328"><ele>94.75</ele><time>2026-04-19T09:51:36.986Z</time></trkpt><trkpt lat="43.4850941" lon="10.7418541"><ele>94.0</ele><time>2026-04-19T09:51:37.983Z</time></trkpt><trkpt lat="43.4851973" lon="10.7419937"><ele>93.75</ele><time>2026-04-19T09:51:38.995Z</time></trkpt><trkpt lat="43.485309" lon="10.7421349"><ele>93.5</ele><time>2026-04-19T09:51:39.986Z</time></trkpt><trkpt lat="43.4854107" lon="10.7422558"><ele>93.25</ele><time>2026-04-19T09:51:40.995Z</time></trkpt><trkpt lat="43.485492" lon="10.7423711"><ele>93.0</ele><time>2026-04-19T09:51:41.99Z</time></trkpt><trkpt lat="43.4855695" lon="10.7424796"><ele>93.0</ele><time>2026-04-19T09:51:42.991Z</time></trkpt><trkpt lat="43.4856312" lon="10.7425696"><ele>93.0</ele><time>2026-04-19T09:51:43.986Z</time></trkpt><trkpt lat="43.4856851" lon="10.7426411"><ele>93.0</ele><time>2026-04-19T09:51:44.99Z</time></trkpt><trkpt lat="43.4857913" lon="10.7426772"><ele>93.0</ele><time>2026-04-19T09:51:46.999Z</time></trkpt><trkpt lat="43.4858562" lon="10.7426411"><ele>93.0</ele><time>2026-04-19T09:51:47.993Z</time></trkpt><trkpt lat="43.4859349" lon="10.742582"><ele>93.0</ele><time>2026-04-19T09:51:49.005Z</time></trkpt><trkpt lat="43.4860208" lon="10.7425353"><ele>93.0</ele><time>2026-04-19T09:51:49.995Z</time></trkpt><trkpt lat="43.4861015" lon="10.74248"><ele>93.0</ele><time>2026-04-19T09:51:51.006Z</time></trkpt><trkpt lat="43.4861834" lon="10.7424567"><ele>93.0</ele><time>2026-04-19T09:51:51.988Z</time></trkpt><trkpt lat="43.4862675" lon="10.7424717"><ele>93.0</ele><time>2026-04-19T09:51:52.99Z</time></trkpt><trkpt lat="43.4863449" lon="10.7425285"><ele>93.0</ele><time>2026-04-19T09:51:53.993Z</time></trkpt><trkpt lat="43.4864387" lon="10.7425628"><ele>93.0</ele><time>2026-04-19T09:51:54.986Z</time></trkpt><trkpt lat="43.4865346" lon="10.74261"><ele>92.25</ele><time>2026-04-19T09:51:56Z</time></trkpt><trkpt lat="43.4866402" lon="10.7426227"><ele>91.5</ele><time>2026-04-19T09:51:57.008Z</time></trkpt><trkpt lat="43.486761" lon="10.7426236"><ele>90.75</ele><time>2026-04-19T09:51:57.984Z</time></trkpt><trkpt lat="43.4868867" lon="10.7426058"><ele>90.0</ele><time>2026-04-19T09:51:58.991Z</time></trkpt><trkpt lat="43.4870063" lon="10.7425948"><ele>87.25</ele><time>2026-04-19T09:51:59.981Z</time></trkpt><trkpt lat="43.4871243" lon="10.7425844"><ele>84.5</ele><time>2026-04-19T09:52:01.005Z</time></trkpt><trkpt lat="43.4872421" lon="10.7425811"><ele>81.75</ele><time>2026-04-19T09:52:01.989Z</time></trkpt><trkpt lat="43.4873564" lon="10.7425737"><ele>79.0</ele><time>2026-04-19T09:52:02.983Z</time></trkpt><trkpt lat="43.4874679" lon="10.7425695"><ele>79.0</ele><time>2026-04-19T09:52:03.99Z</time></trkpt><trkpt lat="43.4875785" lon="10.7425654"><ele>79.0</ele><time>2026-04-19T09:52:05.001Z</time></trkpt><trkpt lat="43.4876878" lon="10.7425765"><ele>79.0</ele><time>2026-04-19T09:52:05.994Z</time></trkpt><trkpt lat="43.4877978" lon="10.7425939"><ele>79.0</ele><time>2026-04-19T09:52:06.989Z</time></trkpt><trkpt lat="43.4879061" lon="10.7426273"><ele>79.0</ele><time>2026-04-19T09:52:08.004Z</time></trkpt><trkpt lat="43.4880091" lon="10.7426567"><ele>77.8</ele><time>2026-04-19T09:52:09.003Z</time></trkpt><trkpt lat="43.488115" lon="10.7426918"><ele>76.60000000000001</ele><time>2026-04-19T09:52:10.018Z</time></trkpt><trkpt lat="43.4882065" lon="10.7427222"><ele>75.4</ele><time>2026-04-19T09:52:10.992Z</time></trkpt><trkpt lat="43.4882895" lon="10.7427478"><ele>74.2</ele><time>2026-04-19T09:52:12Z</time></trkpt><trkpt lat="43.4883574" lon="10.7427744"><ele>73.0</ele><time>2026-04-19T09:52:12.988Z</time></trkpt><trkpt lat="43.488444" lon="10.7428134"><ele>73.0</ele><time>2026-04-19T09:52:14.987Z</time></trkpt><trkpt lat="43.4885571" lon="10.7428218"><ele>73.0</ele><time>2026-04-19T09:52:16.985Z</time></trkpt><trkpt lat="43.4886243" lon="10.7427707"><ele>73.0</ele><time>2026-04-19T09:52:18.012Z</time></trkpt><trkpt lat="43.4887042" lon="10.7426831"><ele>73.0</ele><time>2026-04-19T09:52:18.992Z</time></trkpt><trkpt lat="43.4887952" lon="10.7425857"><ele>73.0</ele><time>2026-04-19T09:52:19.991Z</time></trkpt><trkpt lat="43.4889042" lon="10.7424833"><ele>72.0</ele><time>2026-04-19T09:52:20.99Z</time></trkpt><trkpt lat="43.4890256" lon="10.742373"><ele>71.0</ele><time>2026-04-19T09:52:21.997Z</time></trkpt><trkpt lat="43.4891607" lon="10.7422667"><ele>70.0</ele><time>2026-04-19T09:52:22.984Z</time></trkpt><trkpt lat="43.4893052" lon="10.7421661"><ele>70.0</ele><time>2026-04-19T09:52:23.989Z</time></trkpt><trkpt lat="43.4894602" lon="10.7420601"><ele>70.0</ele><time>2026-04-19T09:52:25.001Z</time></trkpt><trkpt lat="43.4896194" lon="10.7419593"><ele>70.0</ele><time>2026-04-19T09:52:25.993Z</time></trkpt><trkpt lat="43.4897673" lon="10.7418568"><ele>70.66666666666666</ele><time>2026-04-19T09:52:26.992Z</time></trkpt><trkpt lat="43.4899053" lon="10.7417551"><ele>71.33333333333333</ele><time>2026-04-19T09:52:27.989Z</time></trkpt><trkpt lat="43.4900444" lon="10.7416572"><ele>72.0</ele><time>2026-04-19T09:52:29.001Z</time></trkpt><trkpt lat="43.4901797" lon="10.74156"><ele>72.0</ele><time>2026-04-19T09:52:29.992Z</time></trkpt><trkpt lat="43.4903077" lon="10.7414501"><ele>72.0</ele><time>2026-04-19T09:52:30.979Z</time></trkpt><trkpt lat="43.490555" lon="10.7412088"><ele>71.33333333333333</ele><time>2026-04-19T09:52:32.998Z</time></trkpt><trkpt lat="43.4906868" lon="10.7410715"><ele>70.66666666666666</ele><time>2026-04-19T09:52:33.986Z</time></trkpt><trkpt lat="43.4908118" lon="10.7409191"><ele>70.0</ele><time>2026-04-19T09:52:34.998Z</time></trkpt><trkpt lat="43.4909364" lon="10.7407578"><ele>70.0</ele><time>2026-04-19T09:52:35.996Z</time></trkpt><trkpt lat="43.4910534" lon="10.740584"><ele>70.0</ele><time>2026-04-19T09:52:36.987Z</time></trkpt><trkpt lat="43.491166" lon="10.740397"><ele>70.0</ele><time>2026-04-19T09:52:38.006Z</time></trkpt><trkpt lat="43.4912735" lon="10.7402059"><ele>69.33333333333333</ele><time>2026-04-19T09:52:38.995Z</time></trkpt><trkpt lat="43.4913796" lon="10.7400017"><ele>68.66666666666667</ele><time>2026-04-19T09:52:39.999Z</time></trkpt><trkpt lat="43.4914818" lon="10.7398018"><ele>68.0</ele><time>2026-04-19T09:52:40.989Z</time></trkpt><trkpt lat="43.4915818" lon="10.7395919"><ele>68.66666666666667</ele><time>2026-04-19T09:52:41.985Z</time></trkpt><trkpt lat="43.4916794" lon="10.7393749"><ele>69.33333333333333</ele><time>2026-04-19T09:52:42.993Z</time></trkpt><trkpt lat="43.4917785" lon="10.7391542"><ele>70.0</ele><time>2026-04-19T09:52:43.996Z</time></trkpt><trkpt lat="43.4918822" lon="10.7389373"><ele>70.0</ele><time>2026-04-19T09:52:44.991Z</time></trkpt><trkpt lat="43.4919878" lon="10.7387141"><ele>70.0</ele><time>2026-04-19T09:52:45.995Z</time></trkpt><trkpt lat="43.4920991" lon="10.7385006"><ele>70.0</ele><time>2026-04-19T09:52:46.995Z</time></trkpt><trkpt lat="43.4922183" lon="10.7382857"><ele>69.66666666666666</ele><time>2026-04-19T09:52:47.987Z</time></trkpt><trkpt lat="43.4923449" lon="10.7380805"><ele>69.33333333333333</ele><time>2026-04-19T09:52:49.003Z</time></trkpt><trkpt lat="43.4924807" lon="10.7378855"><ele>69.0</ele><time>2026-04-19T09:52:49.997Z</time></trkpt><trkpt lat="43.4926252" lon="10.7377019"><ele>69.0</ele><time>2026-04-19T09:52:51.005Z</time></trkpt><trkpt lat="43.4927743" lon="10.73752"><ele>69.0</ele><time>2026-04-19T09:52:51.991Z</time></trkpt><trkpt lat="43.4929304" lon="10.7373372"><ele>69.0</ele><time>2026-04-19T09:52:52.986Z</time></trkpt><trkpt lat="43.4930935" lon="10.7371736"><ele>69.0</ele><time>2026-04-19T09:52:53.994Z</time></trkpt><trkpt lat="43.4932592" lon="10.7370193"><ele>69.0</ele><time>2026-04-19T09:52:55.001Z</time></trkpt><trkpt lat="43.4934282" lon="10.7368631"><ele>69.0</ele><time>2026-04-19T09:52:55.991Z</time></trkpt><trkpt lat="43.4935954" lon="10.7367134"><ele>69.33333333333333</ele><time>2026-04-19T09:52:57.012Z</time></trkpt><trkpt lat="43.4937649" lon="10.7365666"><ele>69.66666666666666</ele><time>2026-04-19T09:52:57.998Z</time></trkpt><trkpt lat="43.49393" lon="10.7364273"><ele>70.0</ele><time>2026-04-19T09:52:58.991Z</time></trkpt><trkpt lat="43.4940934" lon="10.7363046"><ele>70.0</ele><time>2026-04-19T09:53:00Z</time></trkpt><trkpt lat="43.4942583" lon="10.7361966"><ele>70.0</ele><time>2026-04-19T09:53:01.003Z</time></trkpt><trkpt lat="43.4944275" lon="10.7360971"><ele>70.0</ele><time>2026-04-19T09:53:01.988Z</time></trkpt><trkpt lat="43.4945995" lon="10.7360059"><ele>70.33333333333333</ele><time>2026-04-19T09:53:02.997Z</time></trkpt><trkpt lat="43.4947764" lon="10.7359228"><ele>70.66666666666667</ele><time>2026-04-19T09:53:04.002Z</time></trkpt><trkpt lat="43.4949544" lon="10.7358467"><ele>71.0</ele><time>2026-04-19T09:53:04.985Z</time></trkpt><trkpt lat="43.4951318" lon="10.7357705"><ele>71.0</ele><time>2026-04-19T09:53:05.996Z</time></trkpt><trkpt lat="43.4953079" lon="10.7356961"><ele>71.0</ele><time>2026-04-19T09:53:06.985Z</time></trkpt><trkpt lat="43.4954848" lon="10.7356133"><ele>71.0</ele><time>2026-04-19T09:53:07.996Z</time></trkpt><trkpt lat="43.4956591" lon="10.735515"><ele>70.0</ele><time>2026-04-19T09:53:08.994Z</time></trkpt><trkpt lat="43.4958297" lon="10.7354065"><ele>69.0</ele><time>2026-04-19T09:53:09.989Z</time></trkpt><trkpt lat="43.4960054" lon="10.7352807"><ele>68.0</ele><time>2026-04-19T09:53:10.979Z</time></trkpt><trkpt lat="43.4961747" lon="10.7351436"><ele>67.66666666666667</ele><time>2026-04-19T09:53:11.988Z</time></trkpt><trkpt lat="43.496334" lon="10.7349994"><ele>67.33333333333333</ele><time>2026-04-19T09:53:12.985Z</time></trkpt><trkpt lat="43.4964881" lon="10.7348473"><ele>67.0</ele><time>2026-04-19T09:53:13.996Z</time></trkpt><trkpt lat="43.4966418" lon="10.7346843"><ele>67.0</ele><time>2026-04-19T09:53:14.994Z</time></trkpt><trkpt lat="43.4967964" lon="10.7345223"><ele>67.0</ele><time>2026-04-19T09:53:15.99Z</time></trkpt><trkpt lat="43.4969544" lon="10.734359"><ele>67.0</ele><time>2026-04-19T09:53:17.004Z</time></trkpt><trkpt lat="43.4971142" lon="10.7342058"><ele>66.66666666666666</ele><time>2026-04-19T09:53:18.008Z</time></trkpt><trkpt lat="43.4972754" lon="10.7340599"><ele>66.33333333333333</ele><time>2026-04-19T09:53:19.013Z</time></trkpt><trkpt lat="43.4974452" lon="10.7339289"><ele>66.0</ele><time>2026-04-19T09:53:19.998Z</time></trkpt><trkpt lat="43.49762" lon="10.7338062"><ele>66.0</ele><time>2026-04-19T09:53:20.986Z</time></trkpt><trkpt lat="43.4977991" lon="10.733699"><ele>66.0</ele><time>2026-04-19T09:53:22.006Z</time></trkpt><trkpt lat="43.4979726" lon="10.7336108"><ele>66.0</ele><time>2026-04-19T09:53:22.992Z</time></trkpt><trkpt lat="43.4981408" lon="10.7335229"><ele>67.33333333333333</ele><time>2026-04-19T09:53:23.994Z</time></trkpt><trkpt lat="43.4983089" lon="10.7334361"><ele>68.66666666666666</ele><time>2026-04-19T09:53:24.981Z</time></trkpt><trkpt lat="43.4984804" lon="10.7333529"><ele>70.0</ele><time>2026-04-19T09:53:26.02Z</time></trkpt><trkpt lat="43.4986584" lon="10.7332637"><ele>69.33333333333333</ele><time>2026-04-19T09:53:26.998Z</time></trkpt><trkpt lat="43.4988339" lon="10.7331695"><ele>68.66666666666667</ele><time>2026-04-19T09:53:27.984Z</time></trkpt><trkpt lat="43.4990157" lon="10.7330776"><ele>68.0</ele><time>2026-04-19T09:53:28.981Z</time></trkpt><trkpt lat="43.4992" lon="10.7329882"><ele>68.0</ele><time>2026-04-19T09:53:30.005Z</time></trkpt><trkpt lat="43.4993813" lon="10.732896"><ele>68.0</ele><time>2026-04-19T09:53:30.998Z</time></trkpt><trkpt lat="43.4995551" lon="10.7327976"><ele>68.0</ele><time>2026-04-19T09:53:31.996Z</time></trkpt><trkpt lat="43.4997102" lon="10.7326813"><ele>67.66666666666667</ele><time>2026-04-19T09:53:32.979Z</time></trkpt><trkpt lat="43.4998569" lon="10.7325387"><ele>67.33333333333333</ele><time>2026-04-19T09:53:33.986Z</time></trkpt><trkpt lat="43.4999788" lon="10.7323612"><ele>67.0</ele><time>2026-04-19T09:53:34.989Z</time></trkpt><trkpt lat="43.5000915" lon="10.7321571"><ele>67.0</ele><time>2026-04-19T09:53:35.985Z</time></trkpt><trkpt lat="43.5001744" lon="10.7319328"><ele>67.0</ele><time>2026-04-19T09:53:36.996Z</time></trkpt><trkpt lat="43.5002382" lon="10.7316888"><ele>67.0</ele><time>2026-04-19T09:53:38.006Z</time></trkpt><trkpt lat="43.5002664" lon="10.7314392"><ele>67.0</ele><time>2026-04-19T09:53:38.991Z</time></trkpt><trkpt lat="43.5002679" lon="10.7311765"><ele>67.0</ele><time>2026-04-19T09:53:40Z</time></trkpt><trkpt lat="43.5002737" lon="10.7309172"><ele>67.0</ele><time>2026-04-19T09:53:40.997Z</time></trkpt><trkpt lat="43.5002675" lon="10.7306661"><ele>67.0</ele><time>2026-04-19T09:53:41.993Z</time></trkpt><trkpt lat="43.5002567" lon="10.7304238"><ele>67.0</ele><time>2026-04-19T09:53:43.001Z</time></trkpt><trkpt lat="43.5002405" lon="10.730197"><ele>67.0</ele><time>2026-04-19T09:53:43.991Z</time></trkpt><trkpt lat="43.5002246" lon="10.7299803"><ele>68.0</ele><time>2026-04-19T09:53:44.983Z</time></trkpt><trkpt lat="43.500202" lon="10.7297651"><ele>69.0</ele><time>2026-04-19T09:53:45.985Z</time></trkpt><trkpt lat="43.5001757" lon="10.729555"><ele>70.0</ele><time>2026-04-19T09:53:46.992Z</time></trkpt><trkpt lat="43.5001399" lon="10.7293459"><ele>70.0</ele><time>2026-04-19T09:53:47.987Z</time></trkpt><trkpt lat="43.5000917" lon="10.7291544"><ele>70.0</ele><time>2026-04-19T09:53:49.001Z</time></trkpt><trkpt lat="43.500048" lon="10.7289769"><ele>70.0</ele><time>2026-04-19T09:53:49.995Z</time></trkpt><trkpt lat="43.5000076" lon="10.7288082"><ele>70.0</ele><time>2026-04-19T09:53:50.987Z</time></trkpt><trkpt lat="43.4999677" lon="10.7286422"><ele>71.75</ele><time>2026-04-19T09:53:51.989Z</time></trkpt><trkpt lat="43.4999213" lon="10.7284827"><ele>73.5</ele><time>2026-04-19T09:53:52.992Z</time></trkpt><trkpt lat="43.4998761" lon="10.7283207"><ele>75.25</ele><time>2026-04-19T09:53:54.026Z</time></trkpt><trkpt lat="43.4998269" lon="10.7281627"><ele>77.0</ele><time>2026-04-19T09:53:54.994Z</time></trkpt><trkpt lat="43.4997722" lon="10.7280151"><ele>77.0</ele><time>2026-04-19T09:53:55.998Z</time></trkpt><trkpt lat="43.4997174" lon="10.727869"><ele>77.0</ele><time>2026-04-19T09:53:56.996Z</time></trkpt><trkpt lat="43.4996706" lon="10.7277347"><ele>77.0</ele><time>2026-04-19T09:53:57.986Z</time></trkpt><trkpt lat="43.499626" lon="10.7276116"><ele>77.0</ele><time>2026-04-19T09:53:58.989Z</time></trkpt><trkpt lat="43.4995764" lon="10.7274965"><ele>77.0</ele><time>2026-04-19T09:53:59.989Z</time></trkpt><trkpt lat="43.4995252" lon="10.7273704"><ele>76.0</ele><time>2026-04-19T09:54:00.997Z</time></trkpt><trkpt lat="43.4994718" lon="10.7272305"><ele>75.0</ele><time>2026-04-19T09:54:01.983Z</time></trkpt><trkpt lat="43.4994078" lon="10.7270777"><ele>74.0</ele><time>2026-04-19T09:54:02.994Z</time></trkpt><trkpt lat="43.4993367" lon="10.7269237"><ele>73.0</ele><time>2026-04-19T09:54:03.992Z</time></trkpt><trkpt lat="43.4992645" lon="10.7267583"><ele>73.0</ele><time>2026-04-19T09:54:05.024Z</time></trkpt><trkpt lat="43.4991943" lon="10.7265889"><ele>73.0</ele><time>2026-04-19T09:54:05.997Z</time></trkpt><trkpt lat="43.4991158" lon="10.7263981"><ele>73.0</ele><time>2026-04-19T09:54:06.988Z</time></trkpt><trkpt lat="43.4990338" lon="10.7262013"><ele>74.0</ele><time>2026-04-19T09:54:07.995Z</time></trkpt><trkpt lat="43.4989507" lon="10.7260005"><ele>75.0</ele><time>2026-04-19T09:54:08.991Z</time></trkpt><trkpt lat="43.4988656" lon="10.725796"><ele>76.0</ele><time>2026-04-19T09:54:09.997Z</time></trkpt><trkpt lat="43.4987796" lon="10.7255954"><ele>76.0</ele><time>2026-04-19T09:54:10.991Z</time></trkpt><trkpt lat="43.4987024" lon="10.7254043"><ele>76.0</ele><time>2026-04-19T09:54:11.99Z</time></trkpt><trkpt lat="43.4986335" lon="10.7252247"><ele>76.0</ele><time>2026-04-19T09:54:13.01Z</time></trkpt><trkpt lat="43.4985773" lon="10.7250426"><ele>76.0</ele><time>2026-04-19T09:54:14.002Z</time></trkpt><trkpt lat="43.4985484" lon="10.7248506"><ele>76.0</ele><time>2026-04-19T09:54:15.002Z</time></trkpt><trkpt lat="43.4985338" lon="10.7246558"><ele>76.0</ele><time>2026-04-19T09:54:15.988Z</time></trkpt><trkpt lat="43.4985346" lon="10.724448"><ele>76.0</ele><time>2026-04-19T09:54:16.996Z</time></trkpt><trkpt lat="43.4985408" lon="10.7242227"><ele>75.0</ele><time>2026-04-19T09:54:17.994Z</time></trkpt><trkpt lat="43.4985644" lon="10.7240062"><ele>74.0</ele><time>2026-04-19T09:54:18.993Z</time></trkpt><trkpt lat="43.4985996" lon="10.7237982"><ele>73.0</ele><time>2026-04-19T09:54:19.989Z</time></trkpt><trkpt lat="43.4986369" lon="10.7235985"><ele>71.75</ele><time>2026-04-19T09:54:20.987Z</time></trkpt><trkpt lat="43.4986732" lon="10.7234172"><ele>70.5</ele><time>2026-04-19T09:54:21.983Z</time></trkpt><trkpt lat="43.4987041" lon="10.7232486"><ele>69.25</ele><time>2026-04-19T09:54:22.988Z</time></trkpt><trkpt lat="43.498739" lon="10.7230944"><ele>68.0</ele><time>2026-04-19T09:54:24.007Z</time></trkpt><trkpt lat="43.4987686" lon="10.722952"><ele>68.0</ele><time>2026-04-19T09:54:25Z</time></trkpt><trkpt lat="43.4987944" lon="10.7228076"><ele>68.0</ele><time>2026-04-19T09:54:25.987Z</time></trkpt><trkpt lat="43.4988233" lon="10.7226625"><ele>68.0</ele><time>2026-04-19T09:54:26.992Z</time></trkpt><trkpt lat="43.4988503" lon="10.7225388"><ele>68.0</ele><time>2026-04-19T09:54:27.985Z</time></trkpt><trkpt lat="43.4988736" lon="10.7224206"><ele>68.0</ele><time>2026-04-19T09:54:28.994Z</time></trkpt><trkpt lat="43.498896" lon="10.7223079"><ele>68.0</ele><time>2026-04-19T09:54:29.991Z</time></trkpt><trkpt lat="43.4989225" lon="10.7221921"><ele>68.0</ele><time>2026-04-19T09:54:30.989Z</time></trkpt><trkpt lat="43.4989482" lon="10.7220816"><ele>68.0</ele><time>2026-04-19T09:54:32.015Z</time></trkpt><trkpt lat="43.4989705" lon="10.7219781"><ele>68.0</ele><time>2026-04-19T09:54:32.99Z</time></trkpt><trkpt lat="43.4989929" lon="10.7218808"><ele>68.0</ele><time>2026-04-19T09:54:33.995Z</time></trkpt><trkpt lat="43.4990188" lon="10.7217883"><ele>68.0</ele><time>2026-04-19T09:54:34.993Z</time></trkpt><trkpt lat="43.4990555" lon="10.7217088"><ele>68.33333333333334</ele><time>2026-04-19T09:54:35.999Z</time></trkpt><trkpt lat="43.4991097" lon="10.721635"><ele>68.66666666666667</ele><time>2026-04-19T09:54:37.008Z</time></trkpt><trkpt lat="43.4991724" lon="10.7215786"><ele>69.0</ele><time>2026-04-19T09:54:37.986Z</time></trkpt><trkpt lat="43.4992231" lon="10.7215115"><ele>69.33333333333333</ele><time>2026-04-19T09:54:38.995Z</time></trkpt><trkpt lat="43.4992496" lon="10.7214275"><ele>69.66666666666666</ele><time>2026-04-19T09:54:40.004Z</time></trkpt><trkpt lat="43.4991988" lon="10.7212514"><ele>70.0</ele><time>2026-04-19T09:54:41.99Z</time></trkpt><trkpt lat="43.4991368" lon="10.7211547"><ele>69.0</ele><time>2026-04-19T09:54:42.997Z</time></trkpt><trkpt lat="43.499079" lon="10.7210367"><ele>68.0</ele><time>2026-04-19T09:54:43.997Z</time></trkpt><trkpt lat="43.4990314" lon="10.720893"><ele>67.0</ele><time>2026-04-19T09:54:45.019Z</time></trkpt><trkpt lat="43.4989893" lon="10.7207173"><ele>66.0</ele><time>2026-04-19T09:54:45.986Z</time></trkpt><trkpt lat="43.4989684" lon="10.7205288"><ele>66.0</ele><time>2026-04-19T09:54:46.974Z</time></trkpt><trkpt lat="43.4989523" lon="10.7203129"><ele>66.0</ele><time>2026-04-19T09:54:47.983Z</time></trkpt><trkpt lat="43.4989341" lon="10.7200864"><ele>66.0</ele><time>2026-04-19T09:54:48.981Z</time></trkpt><trkpt lat="43.4989183" lon="10.7198527"><ele>66.33333333333333</ele><time>2026-04-19T09:54:49.997Z</time></trkpt><trkpt lat="43.4989014" lon="10.7196097"><ele>66.66666666666666</ele><time>2026-04-19T09:54:50.998Z</time></trkpt><trkpt lat="43.4988839" lon="10.7193691"><ele>67.0</ele><time>2026-04-19T09:54:51.987Z</time></trkpt><trkpt lat="43.4988685" lon="10.7191311"><ele>67.0</ele><time>2026-04-19T09:54:53.003Z</time></trkpt><trkpt lat="43.4988483" lon="10.7188947"><ele>67.0</ele><time>2026-04-19T09:54:53.986Z</time></trkpt><trkpt lat="43.4988317" lon="10.7186679"><ele>67.0</ele><time>2026-04-19T09:54:54.985Z</time></trkpt><trkpt lat="43.4988106" lon="10.7184496"><ele>67.0</ele><time>2026-04-19T09:54:55.995Z</time></trkpt><trkpt lat="43.4987786" lon="10.7182514"><ele>67.0</ele><time>2026-04-19T09:54:56.988Z</time></trkpt><trkpt lat="43.4987397" lon="10.7180457"><ele>67.0</ele><time>2026-04-19T09:54:57.995Z</time></trkpt><trkpt lat="43.4986776" lon="10.7178376"><ele>69.0</ele><time>2026-04-19T09:54:58.986Z</time></trkpt><trkpt lat="43.4986009" lon="10.7176447"><ele>71.0</ele><time>2026-04-19T09:54:59.993Z</time></trkpt><trkpt lat="43.4985089" lon="10.7174504"><ele>73.0</ele><time>2026-04-19T09:55:00.997Z</time></trkpt><trkpt lat="43.4983919" lon="10.7172549"><ele>73.0</ele><time>2026-04-19T09:55:01.995Z</time></trkpt><trkpt lat="43.4982635" lon="10.7170666"><ele>73.0</ele><time>2026-04-19T09:55:02.999Z</time></trkpt><trkpt lat="43.4981181" lon="10.7168763"><ele>73.0</ele><time>2026-04-19T09:55:03.997Z</time></trkpt><trkpt lat="43.4979578" lon="10.7166795"><ele>73.5</ele><time>2026-04-19T09:55:04.987Z</time></trkpt><trkpt lat="43.4977842" lon="10.7164702"><ele>74.0</ele><time>2026-04-19T09:55:05.993Z</time></trkpt><trkpt lat="43.497584" lon="10.7162594"><ele>80.5</ele><time>2026-04-19T09:55:06.995Z</time></trkpt><trkpt lat="43.4973683" lon="10.7160639"><ele>87.0</ele><time>2026-04-19T09:55:07.996Z</time></trkpt><trkpt lat="43.4971474" lon="10.7158835"><ele>82.0</ele><time>2026-04-19T09:55:09.004Z</time></trkpt><trkpt lat="43.4969356" lon="10.715693"><ele>77.0</ele><time>2026-04-19T09:55:09.998Z</time></trkpt><trkpt lat="43.4967354" lon="10.7154957"><ele>77.0</ele><time>2026-04-19T09:55:10.996Z</time></trkpt><trkpt lat="43.4965465" lon="10.7153218"><ele>77.0</ele><time>2026-04-19T09:55:11.992Z</time></trkpt><trkpt lat="43.4963577" lon="10.7151897"><ele>77.0</ele><time>2026-04-19T09:55:12.992Z</time></trkpt><trkpt lat="43.4961896" lon="10.7150658"><ele>76.0</ele><time>2026-04-19T09:55:13.994Z</time></trkpt><trkpt lat="43.4960342" lon="10.7149395"><ele>75.0</ele><time>2026-04-19T09:55:14.999Z</time></trkpt><trkpt lat="43.4958894" lon="10.7148151"><ele>74.0</ele><time>2026-04-19T09:55:15.987Z</time></trkpt><trkpt lat="43.4957401" lon="10.7147006"><ele>74.0</ele><time>2026-04-19T09:55:16.994Z</time></trkpt><trkpt lat="43.4955847" lon="10.7145976"><ele>74.0</ele><time>2026-04-19T09:55:17.984Z</time></trkpt><trkpt lat="43.4954198" lon="10.7145175"><ele>74.0</ele><time>2026-04-19T09:55:18.986Z</time></trkpt><trkpt lat="43.4952456" lon="10.714452"><ele>75.66666666666667</ele><time>2026-04-19T09:55:19.996Z</time></trkpt><trkpt lat="43.4950719" lon="10.7143955"><ele>77.33333333333333</ele><time>2026-04-19T09:55:20.995Z</time></trkpt><trkpt lat="43.4948935" lon="10.7143372"><ele>79.0</ele><time>2026-04-19T09:55:22.016Z</time></trkpt><trkpt lat="43.4947139" lon="10.7142779"><ele>78.0</ele><time>2026-04-19T09:55:22.999Z</time></trkpt><trkpt lat="43.4945343" lon="10.7142222"><ele>77.0</ele><time>2026-04-19T09:55:24.005Z</time></trkpt><trkpt lat="43.4943536" lon="10.7141583"><ele>76.0</ele><time>2026-04-19T09:55:24.994Z</time></trkpt><trkpt lat="43.4941737" lon="10.7140826"><ele>76.0</ele><time>2026-04-19T09:55:26.011Z</time></trkpt><trkpt lat="43.4939921" lon="10.7139858"><ele>76.0</ele><time>2026-04-19T09:55:26.99Z</time></trkpt><trkpt lat="43.4938113" lon="10.7138748"><ele>76.0</ele><time>2026-04-19T09:55:27.988Z</time></trkpt><trkpt lat="43.4936363" lon="10.713742"><ele>75.0</ele><time>2026-04-19T09:55:28.989Z</time></trkpt><trkpt lat="43.4934626" lon="10.7135828"><ele>74.0</ele><time>2026-04-19T09:55:30.004Z</time></trkpt><trkpt lat="43.4932886" lon="10.7134215"><ele>73.0</ele><time>2026-04-19T09:55:30.984Z</time></trkpt><trkpt lat="43.4931119" lon="10.7132481"><ele>73.33333333333333</ele><time>2026-04-19T09:55:31.994Z</time></trkpt><trkpt lat="43.4929407" lon="10.7130764"><ele>73.66666666666667</ele><time>2026-04-19T09:55:32.995Z</time></trkpt><trkpt lat="43.4927748" lon="10.7129122"><ele>74.0</ele><time>2026-04-19T09:55:33.991Z</time></trkpt><trkpt lat="43.4926168" lon="10.7127538"><ele>76.66666666666667</ele><time>2026-04-19T09:55:34.989Z</time></trkpt><trkpt lat="43.4924643" lon="10.7125769"><ele>79.33333333333333</ele><time>2026-04-19T09:55:35.991Z</time></trkpt><trkpt lat="43.4923338" lon="10.7123794"><ele>82.0</ele><time>2026-04-19T09:55:36.997Z</time></trkpt><trkpt lat="43.4922147" lon="10.7121625"><ele>82.0</ele><time>2026-04-19T09:55:37.992Z</time></trkpt><trkpt lat="43.4921062" lon="10.7119323"><ele>82.0</ele><time>2026-04-19T09:55:38.995Z</time></trkpt><trkpt lat="43.4919951" lon="10.711704"><ele>82.0</ele><time>2026-04-19T09:55:39.984Z</time></trkpt><trkpt lat="43.491882" lon="10.7114757"><ele>81.66666666666666</ele><time>2026-04-19T09:55:40.987Z</time></trkpt><trkpt lat="43.4917673" lon="10.7112507"><ele>81.33333333333333</ele><time>2026-04-19T09:55:42.017Z</time></trkpt><trkpt lat="43.4916547" lon="10.711031"><ele>81.0</ele><time>2026-04-19T09:55:42.989Z</time></trkpt><trkpt lat="43.4915452" lon="10.7108248"><ele>81.0</ele><time>2026-04-19T09:55:43.995Z</time></trkpt><trkpt lat="43.4914378" lon="10.7106338"><ele>81.0</ele><time>2026-04-19T09:55:44.991Z</time></trkpt><trkpt lat="43.4913363" lon="10.7104531"><ele>81.0</ele><time>2026-04-19T09:55:45.976Z</time></trkpt><trkpt lat="43.4912329" lon="10.7102822"><ele>80.66666666666667</ele><time>2026-04-19T09:55:46.988Z</time></trkpt><trkpt lat="43.4911087" lon="10.7101244"><ele>80.33333333333334</ele><time>2026-04-19T09:55:47.986Z</time></trkpt><trkpt lat="43.490979" lon="10.7099861"><ele>80.0</ele><time>2026-04-19T09:55:49.013Z</time></trkpt><trkpt lat="43.4908532" lon="10.7098635"><ele>80.0</ele><time>2026-04-19T09:55:49.986Z</time></trkpt><trkpt lat="43.4907355" lon="10.7097461"><ele>80.0</ele><time>2026-04-19T09:55:50.994Z</time></trkpt><trkpt lat="43.49062" lon="10.7096384"><ele>80.0</ele><time>2026-04-19T09:55:51.99Z</time></trkpt><trkpt lat="43.490507" lon="10.7095354"><ele>80.0</ele><time>2026-04-19T09:55:52.993Z</time></trkpt><trkpt lat="43.4904037" lon="10.7094339"><ele>80.6</ele><time>2026-04-19T09:55:53.987Z</time></trkpt><trkpt lat="43.4903055" lon="10.7093387"><ele>81.2</ele><time>2026-04-19T09:55:54.99Z</time></trkpt><trkpt lat="43.4902203" lon="10.7092315"><ele>81.80000000000001</ele><time>2026-04-19T09:55:56.029Z</time></trkpt><trkpt lat="43.4901461" lon="10.7091377"><ele>82.4</ele><time>2026-04-19T09:55:56.998Z</time></trkpt><trkpt lat="43.4900666" lon="10.7090476"><ele>83.0</ele><time>2026-04-19T09:55:57.981Z</time></trkpt><trkpt lat="43.4899805" lon="10.7089725"><ele>83.0</ele><time>2026-04-19T09:55:58.991Z</time></trkpt><trkpt lat="43.4898962" lon="10.7088999"><ele>83.0</ele><time>2026-04-19T09:55:59.992Z</time></trkpt><trkpt lat="43.4898228" lon="10.7088318"><ele>83.0</ele><time>2026-04-19T09:56:00.992Z</time></trkpt><trkpt lat="43.4897667" lon="10.7087533"><ele>83.0</ele><time>2026-04-19T09:56:01.994Z</time></trkpt><trkpt lat="43.4897251" lon="10.7086674"><ele>83.0</ele><time>2026-04-19T09:56:02.994Z</time></trkpt><trkpt lat="43.4897085" lon="10.7085534"><ele>83.0</ele><time>2026-04-19T09:56:03.987Z</time></trkpt><trkpt lat="43.4896997" lon="10.7084238"><ele>85.0</ele><time>2026-04-19T09:56:04.982Z</time></trkpt><trkpt lat="43.4897117" lon="10.7082861"><ele>87.0</ele><time>2026-04-19T09:56:06.002Z</time></trkpt><trkpt lat="43.4897386" lon="10.7081422"><ele>89.0</ele><time>2026-04-19T09:56:06.989Z</time></trkpt><trkpt lat="43.4897929" lon="10.7079945"><ele>91.0</ele><time>2026-04-19T09:56:07.992Z</time></trkpt><trkpt lat="43.4898618" lon="10.7078416"><ele>91.5</ele><time>2026-04-19T09:56:08.989Z</time></trkpt><trkpt lat="43.4899327" lon="10.7076834"><ele>92.0</ele><time>2026-04-19T09:56:09.999Z</time></trkpt><trkpt lat="43.4900071" lon="10.7075153"><ele>92.5</ele><time>2026-04-19T09:56:10.999Z</time></trkpt><trkpt lat="43.4900853" lon="10.7073491"><ele>93.0</ele><time>2026-04-19T09:56:11.998Z</time></trkpt><trkpt lat="43.490158" lon="10.7071857"><ele>93.0</ele><time>2026-04-19T09:56:12.994Z</time></trkpt><trkpt lat="43.4902323" lon="10.7070393"><ele>93.0</ele><time>2026-04-19T09:56:14.025Z</time></trkpt><trkpt lat="43.4903197" lon="10.7069062"><ele>93.0</ele><time>2026-04-19T09:56:15.007Z</time></trkpt><trkpt lat="43.4904136" lon="10.7067695"><ele>93.0</ele><time>2026-04-19T09:56:15.993Z</time></trkpt><trkpt lat="43.4905021" lon="10.7066234"><ele>94.5</ele><time>2026-04-19T09:56:16.991Z</time></trkpt><trkpt lat="43.4905669" lon="10.7064594"><ele>96.0</ele><time>2026-04-19T09:56:17.996Z</time></trkpt><trkpt lat="43.4906333" lon="10.7062753"><ele>97.5</ele><time>2026-04-19T09:56:19.007Z</time></trkpt><trkpt lat="43.4906978" lon="10.7060696"><ele>99.0</ele><time>2026-04-19T09:56:19.977Z</time></trkpt><trkpt lat="43.490755" lon="10.7058549"><ele>99.66666666666666</ele><time>2026-04-19T09:56:20.987Z</time></trkpt><trkpt lat="43.4908127" lon="10.7056377"><ele>100.33333333333333</ele><time>2026-04-19T09:56:21.992Z</time></trkpt><trkpt lat="43.4908699" lon="10.7054254"><ele>101.0</ele><time>2026-04-19T09:56:22.979Z</time></trkpt><trkpt lat="43.4909303" lon="10.7052196"><ele>101.66666666666666</ele><time>2026-04-19T09:56:24Z</time></trkpt><trkpt lat="43.4909864" lon="10.70502"><ele>102.33333333333334</ele><time>2026-04-19T09:56:24.986Z</time></trkpt><trkpt lat="43.4910452" lon="10.7048149"><ele>103.0</ele><time>2026-04-19T09:56:25.999Z</time></trkpt><trkpt lat="43.4911008" lon="10.7046065"><ele>103.33333333333334</ele><time>2026-04-19T09:56:27.001Z</time></trkpt><trkpt lat="43.4911521" lon="10.7043995"><ele>103.66666666666666</ele><time>2026-04-19T09:56:27.989Z</time></trkpt><trkpt lat="43.4912039" lon="10.7041874"><ele>104.0</ele><time>2026-04-19T09:56:29.017Z</time></trkpt><trkpt lat="43.4912572" lon="10.7039645"><ele>104.66666666666666</ele><time>2026-04-19T09:56:29.988Z</time></trkpt><trkpt lat="43.4913143" lon="10.703741"><ele>105.33333333333334</ele><time>2026-04-19T09:56:30.986Z</time></trkpt><trkpt lat="43.4913771" lon="10.7035108"><ele>106.0</ele><time>2026-04-19T09:56:31.996Z</time></trkpt><trkpt lat="43.4914414" lon="10.7032847"><ele>107.66666666666667</ele><time>2026-04-19T09:56:32.993Z</time></trkpt><trkpt lat="43.4915129" lon="10.7030602"><ele>109.33333333333334</ele><time>2026-04-19T09:56:33.998Z</time></trkpt><trkpt lat="43.491595" lon="10.7028398"><ele>111.0</ele><time>2026-04-19T09:56:34.992Z</time></trkpt><trkpt lat="43.4916838" lon="10.7026261"><ele>112.0</ele><time>2026-04-19T09:56:35.995Z</time></trkpt><trkpt lat="43.4917744" lon="10.702405"><ele>113.0</ele><time>2026-04-19T09:56:36.985Z</time></trkpt><trkpt lat="43.4918591" lon="10.7021802"><ele>114.0</ele><time>2026-04-19T09:56:37.99Z</time></trkpt><trkpt lat="43.4919334" lon="10.7019594"><ele>114.66666666666666</ele><time>2026-04-19T09:56:39Z</time></trkpt><trkpt lat="43.4919989" lon="10.7017341"><ele>115.33333333333333</ele><time>2026-04-19T09:56:39.998Z</time></trkpt><trkpt lat="43.4920538" lon="10.701533"><ele>116.0</ele><time>2026-04-19T09:56:40.994Z</time></trkpt><trkpt lat="43.4920974" lon="10.7013386"><ele>116.0</ele><time>2026-04-19T09:56:41.983Z</time></trkpt><trkpt lat="43.4921278" lon="10.7011512"><ele>116.0</ele><time>2026-04-19T09:56:42.994Z</time></trkpt><trkpt lat="43.492141" lon="10.7009363"><ele>116.0</ele><time>2026-04-19T09:56:43.987Z</time></trkpt><trkpt lat="43.4921378" lon="10.7007078"><ele>116.66666666666666</ele><time>2026-04-19T09:56:45.002Z</time></trkpt><trkpt lat="43.4921396" lon="10.7004796"><ele>117.33333333333334</ele><time>2026-04-19T09:56:45.99Z</time></trkpt><trkpt lat="43.4921318" lon="10.7002699"><ele>118.0</ele><time>2026-04-19T09:56:46.987Z</time></trkpt><trkpt lat="43.4921373" lon="10.7000733"><ele>119.0</ele><time>2026-04-19T09:56:48.008Z</time></trkpt><trkpt lat="43.4921626" lon="10.6999118"><ele>120.0</ele><time>2026-04-19T09:56:48.996Z</time></trkpt><trkpt lat="43.4922" lon="10.6997422"><ele>121.0</ele><time>2026-04-19T09:56:50.002Z</time></trkpt><trkpt lat="43.4922519" lon="10.6995815"><ele>122.0</ele><time>2026-04-19T09:56:50.989Z</time></trkpt><trkpt lat="43.4923194" lon="10.6994224"><ele>123.25</ele><time>2026-04-19T09:56:51.986Z</time></trkpt><trkpt lat="43.4923789" lon="10.6992681"><ele>124.5</ele><time>2026-04-19T09:56:52.983Z</time></trkpt><trkpt lat="43.4924091" lon="10.699105"><ele>125.75</ele><time>2026-04-19T09:56:53.983Z</time></trkpt><trkpt lat="43.492419" lon="10.6989239"><ele>127.0</ele><time>2026-04-19T09:56:55.016Z</time></trkpt><trkpt lat="43.4924487" lon="10.6987144"><ele>128.33333333333334</ele><time>2026-04-19T09:56:55.997Z</time></trkpt><trkpt lat="43.4924955" lon="10.6985031"><ele>129.66666666666666</ele><time>2026-04-19T09:56:56.988Z</time></trkpt><trkpt lat="43.4925463" lon="10.6982885"><ele>131.0</ele><time>2026-04-19T09:56:57.992Z</time></trkpt><trkpt lat="43.492615" lon="10.6980751"><ele>131.0</ele><time>2026-04-19T09:56:58.981Z</time></trkpt><trkpt lat="43.4926769" lon="10.6978652"><ele>131.0</ele><time>2026-04-19T09:56:59.99Z</time></trkpt><trkpt lat="43.4927363" lon="10.697665"><ele>131.0</ele><time>2026-04-19T09:57:00.981Z</time></trkpt><trkpt lat="43.4927896" lon="10.6974886"><ele>130.75</ele><time>2026-04-19T09:57:01.988Z</time></trkpt><trkpt lat="43.4928638" lon="10.6973406"><ele>130.5</ele><time>2026-04-19T09:57:02.994Z</time></trkpt><trkpt lat="43.4929551" lon="10.6972072"><ele>130.25</ele><time>2026-04-19T09:57:03.987Z</time></trkpt><trkpt lat="43.4930783" lon="10.6971029"><ele>130.0</ele><time>2026-04-19T09:57:04.989Z</time></trkpt><trkpt lat="43.4932017" lon="10.6969905"><ele>131.0</ele><time>2026-04-19T09:57:05.993Z</time></trkpt><trkpt lat="43.4933186" lon="10.6968789"><ele>132.0</ele><time>2026-04-19T09:57:06.984Z</time></trkpt><trkpt lat="43.4934271" lon="10.696768"><ele>133.0</ele><time>2026-04-19T09:57:07.991Z</time></trkpt><trkpt lat="43.4935468" lon="10.6966459"><ele>134.0</ele><time>2026-04-19T09:57:08.988Z</time></trkpt><trkpt lat="43.493674" lon="10.6965238"><ele>133.66666666666666</ele><time>2026-04-19T09:57:10.018Z</time></trkpt><trkpt lat="43.4938106" lon="10.6963879"><ele>133.33333333333334</ele><time>2026-04-19T09:57:11.006Z</time></trkpt><trkpt lat="43.4939413" lon="10.696253"><ele>133.0</ele><time>2026-04-19T09:57:11.988Z</time></trkpt><trkpt lat="43.4940602" lon="10.6961235"><ele>133.75</ele><time>2026-04-19T09:57:12.997Z</time></trkpt><trkpt lat="43.4941722" lon="10.6960051"><ele>134.5</ele><time>2026-04-19T09:57:14.002Z</time></trkpt><trkpt lat="43.4942828" lon="10.6958894"><ele>135.25</ele><time>2026-04-19T09:57:14.994Z</time></trkpt><trkpt lat="43.4943885" lon="10.695786"><ele>136.0</ele><time>2026-04-19T09:57:15.998Z</time></trkpt><trkpt lat="43.4945067" lon="10.6956835"><ele>136.75</ele><time>2026-04-19T09:57:16.991Z</time></trkpt><trkpt lat="43.4946178" lon="10.6955762"><ele>137.5</ele><time>2026-04-19T09:57:17.995Z</time></trkpt><trkpt lat="43.494716" lon="10.6954653"><ele>138.25</ele><time>2026-04-19T09:57:18.988Z</time></trkpt><trkpt lat="43.4948155" lon="10.6953687"><ele>139.0</ele><time>2026-04-19T09:57:19.991Z</time></trkpt><trkpt lat="43.494901" lon="10.6952763"><ele>140.0</ele><time>2026-04-19T09:57:20.986Z</time></trkpt><trkpt lat="43.4949906" lon="10.6951826"><ele>141.0</ele><time>2026-04-19T09:57:21.998Z</time></trkpt><trkpt lat="43.4950846" lon="10.69509"><ele>142.0</ele><time>2026-04-19T09:57:22.991Z</time></trkpt><trkpt lat="43.4951774" lon="10.6949971"><ele>143.0</ele><time>2026-04-19T09:57:23.989Z</time></trkpt><trkpt lat="43.495269" lon="10.6949028"><ele>143.0</ele><time>2026-04-19T09:57:24.991Z</time></trkpt><trkpt lat="43.495374" lon="10.6948179"><ele>143.0</ele><time>2026-04-19T09:57:25.984Z</time></trkpt><trkpt lat="43.4954763" lon="10.6947427"><ele>143.0</ele><time>2026-04-19T09:57:26.984Z</time></trkpt><trkpt lat="43.4955864" lon="10.6946841"><ele>143.0</ele><time>2026-04-19T09:57:27.983Z</time></trkpt><trkpt lat="43.4957088" lon="10.694645"><ele>141.25</ele><time>2026-04-19T09:57:28.998Z</time></trkpt><trkpt lat="43.4958351" lon="10.6946086"><ele>139.5</ele><time>2026-04-19T09:57:29.993Z</time></trkpt><trkpt lat="43.4959626" lon="10.6945709"><ele>137.75</ele><time>2026-04-19T09:57:30.989Z</time></trkpt><trkpt lat="43.4960863" lon="10.6945349"><ele>136.0</ele><time>2026-04-19T09:57:31.989Z</time></trkpt><trkpt lat="43.4962113" lon="10.6944972"><ele>136.25</ele><time>2026-04-19T09:57:32.992Z</time></trkpt><trkpt lat="43.4963431" lon="10.6944436"><ele>136.5</ele><time>2026-04-19T09:57:33.989Z</time></trkpt><trkpt lat="43.4964551" lon="10.6943686"><ele>136.75</ele><time>2026-04-19T09:57:34.999Z</time></trkpt><trkpt lat="43.4965522" lon="10.6942814"><ele>137.0</ele><time>2026-04-19T09:57:35.994Z</time></trkpt><trkpt lat="43.4966459" lon="10.6941817"><ele>139.5</ele><time>2026-04-19T09:57:36.992Z</time></trkpt><trkpt lat="43.496724" lon="10.6940553"><ele>142.0</ele><time>2026-04-19T09:57:37.987Z</time></trkpt><trkpt lat="43.4967708" lon="10.6938982"><ele>144.5</ele><time>2026-04-19T09:57:38.991Z</time></trkpt><trkpt lat="43.4968009" lon="10.6937255"><ele>147.0</ele><time>2026-04-19T09:57:39.981Z</time></trkpt><trkpt lat="43.4968321" lon="10.693524"><ele>147.0</ele><time>2026-04-19T09:57:40.987Z</time></trkpt><trkpt lat="43.4968647" lon="10.6933149"><ele>147.0</ele><time>2026-04-19T09:57:42Z</time></trkpt><trkpt lat="43.4968981" lon="10.6930994"><ele>147.0</ele><time>2026-04-19T09:57:42.991Z</time></trkpt><trkpt lat="43.4969333" lon="10.6928727"><ele>145.0</ele><time>2026-04-19T09:57:43.996Z</time></trkpt><trkpt lat="43.4969598" lon="10.6926675"><ele>143.0</ele><time>2026-04-19T09:57:44.984Z</time></trkpt><trkpt lat="43.4969868" lon="10.6924839"><ele>141.0</ele><time>2026-04-19T09:57:46.002Z</time></trkpt><trkpt lat="43.497009" lon="10.6923257"><ele>139.0</ele><time>2026-04-19T09:57:46.99Z</time></trkpt><trkpt lat="43.4970369" lon="10.6921715"><ele>139.0</ele><time>2026-04-19T09:57:48Z</time></trkpt><trkpt lat="43.4970587" lon="10.6920401"><ele>139.0</ele><time>2026-04-19T09:57:48.998Z</time></trkpt><trkpt lat="43.4970727" lon="10.6919171"><ele>139.0</ele><time>2026-04-19T09:57:49.982Z</time></trkpt><trkpt lat="43.4970892" lon="10.691776"><ele>139.0</ele><time>2026-04-19T09:57:50.988Z</time></trkpt><trkpt lat="43.4971106" lon="10.6916046"><ele>139.0</ele><time>2026-04-19T09:57:51.995Z</time></trkpt><trkpt lat="43.4971371" lon="10.6914244"><ele>139.25</ele><time>2026-04-19T09:57:53Z</time></trkpt><trkpt lat="43.4971585" lon="10.6912488"><ele>139.5</ele><time>2026-04-19T09:57:54Z</time></trkpt><trkpt lat="43.4971733" lon="10.691093"><ele>139.75</ele><time>2026-04-19T09:57:54.987Z</time></trkpt><trkpt lat="43.4971925" lon="10.6909485"><ele>140.0</ele><time>2026-04-19T09:57:55.986Z</time></trkpt><trkpt lat="43.497209" lon="10.6908101"><ele>140.2</ele><time>2026-04-19T09:57:56.987Z</time></trkpt><trkpt lat="43.4972263" lon="10.6906713"><ele>140.4</ele><time>2026-04-19T09:57:57.999Z</time></trkpt><trkpt lat="43.4972414" lon="10.6905322"><ele>140.6</ele><time>2026-04-19T09:57:58.985Z</time></trkpt><trkpt lat="43.497259" lon="10.6903863"><ele>140.8</ele><time>2026-04-19T09:57:59.987Z</time></trkpt><trkpt lat="43.497285" lon="10.6902299"><ele>141.0</ele><time>2026-04-19T09:58:00.994Z</time></trkpt><trkpt lat="43.4973066" lon="10.6900657"><ele>141.25</ele><time>2026-04-19T09:58:01.985Z</time></trkpt><trkpt lat="43.4973287" lon="10.6899107"><ele>141.5</ele><time>2026-04-19T09:58:02.982Z</time></trkpt><trkpt lat="43.4973545" lon="10.6897612"><ele>141.75</ele><time>2026-04-19T09:58:03.996Z</time></trkpt><trkpt lat="43.497377" lon="10.689602"><ele>142.0</ele><time>2026-04-19T09:58:04.988Z</time></trkpt><trkpt lat="43.497403" lon="10.6894299"><ele>142.0</ele><time>2026-04-19T09:58:06.004Z</time></trkpt><trkpt lat="43.4974342" lon="10.6892562"><ele>142.0</ele><time>2026-04-19T09:58:06.995Z</time></trkpt><trkpt lat="43.4974675" lon="10.6890828"><ele>142.0</ele><time>2026-04-19T09:58:08.001Z</time></trkpt><trkpt lat="43.4974922" lon="10.6888913"><ele>142.0</ele><time>2026-04-19T09:58:08.993Z</time></trkpt><trkpt lat="43.4975212" lon="10.6886884"><ele>142.33333333333334</ele><time>2026-04-19T09:58:09.985Z</time></trkpt><trkpt lat="43.4975499" lon="10.6884701"><ele>142.66666666666666</ele><time>2026-04-19T09:58:10.992Z</time></trkpt><trkpt lat="43.4975783" lon="10.6882476"><ele>143.0</ele><time>2026-04-19T09:58:11.989Z</time></trkpt><trkpt lat="43.4976054" lon="10.6880328"><ele>143.0</ele><time>2026-04-19T09:58:12.988Z</time></trkpt><trkpt lat="43.4976304" lon="10.6878314"><ele>143.0</ele><time>2026-04-19T09:58:13.98Z</time></trkpt><trkpt lat="43.4976576" lon="10.6876263"><ele>143.0</ele><time>2026-04-19T09:58:14.983Z</time></trkpt><trkpt lat="43.4976876" lon="10.6874161"><ele>143.75</ele><time>2026-04-19T09:58:15.972Z</time></trkpt><trkpt lat="43.4977141" lon="10.6872322"><ele>144.5</ele><time>2026-04-19T09:58:16.985Z</time></trkpt><trkpt lat="43.4977393" lon="10.6870649"><ele>145.25</ele><time>2026-04-19T09:58:17.991Z</time></trkpt><trkpt lat="43.4977729" lon="10.6869069"><ele>146.0</ele><time>2026-04-19T09:58:19.001Z</time></trkpt><trkpt lat="43.4978331" lon="10.6867411"><ele>146.25</ele><time>2026-04-19T09:58:19.994Z</time></trkpt><trkpt lat="43.497905" lon="10.686566"><ele>146.5</ele><time>2026-04-19T09:58:20.983Z</time></trkpt><trkpt lat="43.4979893" lon="10.6864007"><ele>146.75</ele><time>2026-04-19T09:58:21.985Z</time></trkpt><trkpt lat="43.4980721" lon="10.686228"><ele>147.0</ele><time>2026-04-19T09:58:23.019Z</time></trkpt><trkpt lat="43.4981533" lon="10.6860645"><ele>147.0</ele><time>2026-04-19T09:58:23.996Z</time></trkpt><trkpt lat="43.4982328" lon="10.6859011"><ele>147.0</ele><time>2026-04-19T09:58:24.995Z</time></trkpt><trkpt lat="43.4983015" lon="10.6857438"><ele>147.0</ele><time>2026-04-19T09:58:25.996Z</time></trkpt><trkpt lat="43.4983561" lon="10.6856035"><ele>147.0</ele><time>2026-04-19T09:58:26.99Z</time></trkpt><trkpt lat="43.4983947" lon="10.6854644"><ele>147.0</ele><time>2026-04-19T09:58:27.993Z</time></trkpt><trkpt lat="43.4984298" lon="10.6853288"><ele>147.0</ele><time>2026-04-19T09:58:28.992Z</time></trkpt><trkpt lat="43.4984371" lon="10.6851871"><ele>147.0</ele><time>2026-04-19T09:58:30.008Z</time></trkpt><trkpt lat="43.4984371" lon="10.6850288"><ele>147.0</ele><time>2026-04-19T09:58:30.993Z</time></trkpt><trkpt lat="43.4984207" lon="10.6848617"><ele>147.0</ele><time>2026-04-19T09:58:31.993Z</time></trkpt><trkpt lat="43.4983838" lon="10.6846951"><ele>148.5</ele><time>2026-04-19T09:58:32.988Z</time></trkpt><trkpt lat="43.4983365" lon="10.6845178"><ele>150.0</ele><time>2026-04-19T09:58:33.987Z</time></trkpt><trkpt lat="43.4982928" lon="10.684336"><ele>151.5</ele><time>2026-04-19T09:58:34.997Z</time></trkpt><trkpt lat="43.4982622" lon="10.6841611"><ele>153.0</ele><time>2026-04-19T09:58:35.99Z</time></trkpt><trkpt lat="43.4982311" lon="10.6839847"><ele>153.0</ele><time>2026-04-19T09:58:37.009Z</time></trkpt><trkpt lat="43.4982175" lon="10.683825"><ele>153.0</ele><time>2026-04-19T09:58:37.992Z</time></trkpt><trkpt lat="43.4982271" lon="10.6836579"><ele>153.0</ele><time>2026-04-19T09:58:38.987Z</time></trkpt><trkpt lat="43.4982529" lon="10.68348"><ele>153.0</ele><time>2026-04-19T09:58:39.985Z</time></trkpt><trkpt lat="43.4982866" lon="10.6832996"><ele>152.75</ele><time>2026-04-19T09:58:40.998Z</time></trkpt><trkpt lat="43.4983108" lon="10.6831288"><ele>152.5</ele><time>2026-04-19T09:58:41.99Z</time></trkpt><trkpt lat="43.4983344" lon="10.6829553"><ele>152.25</ele><time>2026-04-19T09:58:42.981Z</time></trkpt><trkpt lat="43.4983594" lon="10.6827881"><ele>152.0</ele><time>2026-04-19T09:58:43.981Z</time></trkpt><trkpt lat="43.4983958" lon="10.6826276"><ele>153.0</ele><time>2026-04-19T09:58:44.979Z</time></trkpt><trkpt lat="43.4984343" lon="10.682474"><ele>154.0</ele><time>2026-04-19T09:58:46.005Z</time></trkpt><trkpt lat="43.4984973" lon="10.6823327"><ele>155.0</ele><time>2026-04-19T09:58:46.982Z</time></trkpt><trkpt lat="43.4985843" lon="10.6822353"><ele>156.0</ele><time>2026-04-19T09:58:48.017Z</time></trkpt><trkpt lat="43.4986808" lon="10.6821525"><ele>154.25</ele><time>2026-04-19T09:58:48.984Z</time></trkpt><trkpt lat="43.4987928" lon="10.6820936"><ele>152.5</ele><time>2026-04-19T09:58:49.986Z</time></trkpt><trkpt lat="43.4989158" lon="10.682043"><ele>150.75</ele><time>2026-04-19T09:58:51.001Z</time></trkpt><trkpt lat="43.4990318" lon="10.6819972"><ele>149.0</ele><time>2026-04-19T09:58:51.989Z</time></trkpt><trkpt lat="43.4991521" lon="10.6819525"><ele>150.0</ele><time>2026-04-19T09:58:53.02Z</time></trkpt><trkpt lat="43.4992696" lon="10.6819091"><ele>151.0</ele><time>2026-04-19T09:58:53.988Z</time></trkpt><trkpt lat="43.499391" lon="10.6818674"><ele>152.0</ele><time>2026-04-19T09:58:55.004Z</time></trkpt><trkpt lat="43.4995086" lon="10.681823"><ele>153.0</ele><time>2026-04-19T09:58:55.989Z</time></trkpt><trkpt lat="43.499618" lon="10.681775"><ele>153.0</ele><time>2026-04-19T09:58:56.976Z</time></trkpt><trkpt lat="43.4997219" lon="10.6817354"><ele>153.0</ele><time>2026-04-19T09:58:57.978Z</time></trkpt><trkpt lat="43.4998235" lon="10.681697"><ele>153.0</ele><time>2026-04-19T09:58:58.978Z</time></trkpt><trkpt lat="43.4999162" lon="10.6816621"><ele>153.0</ele><time>2026-04-19T09:58:59.99Z</time></trkpt><trkpt lat="43.4999897" lon="10.6816196"><ele>153.0</ele><time>2026-04-19T09:59:00.987Z</time></trkpt><trkpt lat="43.5001112" lon="10.6815756"><ele>153.0</ele><time>2026-04-19T09:59:03.004Z</time></trkpt><trkpt lat="43.5002147" lon="10.6815256"><ele>153.0</ele><time>2026-04-19T09:59:04.988Z</time></trkpt><trkpt lat="43.500283" lon="10.6814991"><ele>153.0</ele><time>2026-04-19T09:59:05.988Z</time></trkpt><trkpt lat="43.5003727" lon="10.6814693"><ele>153.0</ele><time>2026-04-19T09:59:06.993Z</time></trkpt><trkpt lat="43.5004709" lon="10.6814375"><ele>153.0</ele><time>2026-04-19T09:59:07.992Z</time></trkpt><trkpt lat="43.5005774" lon="10.6814019"><ele>152.6</ele><time>2026-04-19T09:59:08.992Z</time></trkpt><trkpt lat="43.5006925" lon="10.6813791"><ele>152.20000000000002</ele><time>2026-04-19T09:59:09.984Z</time></trkpt><trkpt lat="43.5008024" lon="10.6813657"><ele>151.8</ele><time>2026-04-19T09:59:10.984Z</time></trkpt><trkpt lat="43.5009017" lon="10.6813507"><ele>151.4</ele><time>2026-04-19T09:59:11.991Z</time></trkpt><trkpt lat="43.5010003" lon="10.6813356"><ele>151.0</ele><time>2026-04-19T09:59:12.985Z</time></trkpt><trkpt lat="43.5010917" lon="10.6813252"><ele>151.0</ele><time>2026-04-19T09:59:14.027Z</time></trkpt><trkpt lat="43.5011693" lon="10.6813082"><ele>151.0</ele><time>2026-04-19T09:59:14.981Z</time></trkpt><trkpt lat="43.5012335" lon="10.6812843"><ele>151.0</ele><time>2026-04-19T09:59:15.99Z</time></trkpt><trkpt lat="43.50132" lon="10.6812461"><ele>151.0</ele><time>2026-04-19T09:59:17.984Z</time></trkpt><trkpt lat="43.5014012" lon="10.6811952"><ele>151.0</ele><time>2026-04-19T09:59:20.983Z</time></trkpt><trkpt lat="43.501488" lon="10.6811323"><ele>151.0</ele><time>2026-04-19T09:59:22.992Z</time></trkpt><trkpt lat="43.5016042" lon="10.6810224"><ele>150.83333333333334</ele><time>2026-04-19T09:59:24.989Z</time></trkpt><trkpt lat="43.5016687" lon="10.6809606"><ele>150.66666666666669</ele><time>2026-04-19T09:59:25.976Z</time></trkpt><trkpt lat="43.5017379" lon="10.6808751"><ele>150.5</ele><time>2026-04-19T09:59:26.978Z</time></trkpt><trkpt lat="43.5018014" lon="10.6807938"><ele>150.33333333333334</ele><time>2026-04-19T09:59:27.985Z</time></trkpt><trkpt lat="43.5018619" lon="10.6807192"><ele>150.16666666666666</ele><time>2026-04-19T09:59:28.983Z</time></trkpt><trkpt lat="43.5019152" lon="10.6806446"><ele>150.0</ele><time>2026-04-19T09:59:29.98Z</time></trkpt><trkpt lat="43.5019737" lon="10.6805647"><ele>150.0</ele><time>2026-04-19T09:59:30.987Z</time></trkpt><trkpt lat="43.5020389" lon="10.6804783"><ele>150.0</ele><time>2026-04-19T09:59:31.99Z</time></trkpt><trkpt lat="43.5021045" lon="10.6803897"><ele>150.0</ele><time>2026-04-19T09:59:32.988Z</time></trkpt><trkpt lat="43.502176" lon="10.6803017"><ele>150.0</ele><time>2026-04-19T09:59:33.987Z</time></trkpt><trkpt lat="43.5022524" lon="10.6802114"><ele>150.0</ele><time>2026-04-19T09:59:34.992Z</time></trkpt><trkpt lat="43.5023308" lon="10.6801164"><ele>148.75</ele><time>2026-04-19T09:59:35.992Z</time></trkpt><trkpt lat="43.5024198" lon="10.6800179"><ele>147.5</ele><time>2026-04-19T09:59:37.016Z</time></trkpt><trkpt lat="43.5025103" lon="10.6798982"><ele>146.25</ele><time>2026-04-19T09:59:37.983Z</time></trkpt><trkpt lat="43.5026003" lon="10.6797863"><ele>145.0</ele><time>2026-04-19T09:59:38.993Z</time></trkpt><trkpt lat="43.502689" lon="10.6796753"><ele>145.0</ele><time>2026-04-19T09:59:39.998Z</time></trkpt><trkpt lat="43.50278" lon="10.6795785"><ele>145.0</ele><time>2026-04-19T09:59:40.998Z</time></trkpt><trkpt lat="43.5028712" lon="10.6794904"><ele>145.0</ele><time>2026-04-19T09:59:42Z</time></trkpt><trkpt lat="43.502969" lon="10.6794157"><ele>145.0</ele><time>2026-04-19T09:59:42.992Z</time></trkpt><trkpt lat="43.5030711" lon="10.6793537"><ele>147.2</ele><time>2026-04-19T09:59:43.996Z</time></trkpt><trkpt lat="43.5031772" lon="10.679297"><ele>149.4</ele><time>2026-04-19T09:59:44.986Z</time></trkpt><trkpt lat="43.5032764" lon="10.6792439"><ele>151.6</ele><time>2026-04-19T09:59:45.996Z</time></trkpt><trkpt lat="43.5033746" lon="10.679194"><ele>153.8</ele><time>2026-04-19T09:59:46.986Z</time></trkpt><trkpt lat="43.5034669" lon="10.6791651"><ele>156.0</ele><time>2026-04-19T09:59:48.001Z</time></trkpt><trkpt lat="43.5035657" lon="10.6791639"><ele>156.0</ele><time>2026-04-19T09:59:49.014Z</time></trkpt><trkpt lat="43.5036739" lon="10.679181"><ele>156.0</ele><time>2026-04-19T09:59:49.993Z</time></trkpt><trkpt lat="43.5037699" lon="10.6791987"><ele>156.0</ele><time>2026-04-19T09:59:50.99Z</time></trkpt><trkpt lat="43.5038753" lon="10.6792294"><ele>156.0</ele><time>2026-04-19T09:59:51.984Z</time></trkpt><trkpt lat="43.5039846" lon="10.679263"><ele>156.0</ele><time>2026-04-19T09:59:52.986Z</time></trkpt><trkpt lat="43.5040927" lon="10.6792957"><ele>155.6</ele><time>2026-04-19T09:59:53.995Z</time></trkpt><trkpt lat="43.5042014" lon="10.679327"><ele>155.2</ele><time>2026-04-19T09:59:54.985Z</time></trkpt><trkpt lat="43.5043139" lon="10.6793638"><ele>154.8</ele><time>2026-04-19T09:59:55.997Z</time></trkpt><trkpt lat="43.504421" lon="10.6794035"><ele>154.4</ele><time>2026-04-19T09:59:56.984Z</time></trkpt><trkpt lat="43.5045086" lon="10.6794372"><ele>154.0</ele><time>2026-04-19T09:59:57.977Z</time></trkpt><trkpt lat="43.5045771" lon="10.6794554"><ele>154.0</ele><time>2026-04-19T09:59:58.985Z</time></trkpt><trkpt lat="43.5047101" lon="10.6794839"><ele>154.0</ele><time>2026-04-19T10:00:00.998Z</time></trkpt><trkpt lat="43.5047735" lon="10.679505"><ele>154.0</ele><time>2026-04-19T10:00:01.992Z</time></trkpt><trkpt lat="43.5048846" lon="10.6795689"><ele>154.0</ele><time>2026-04-19T10:00:03.977Z</time></trkpt><trkpt lat="43.5049882" lon="10.6795724"><ele>154.0</ele><time>2026-04-19T10:00:05.971Z</time></trkpt><trkpt lat="43.5050795" lon="10.6794765"><ele>153.4</ele><time>2026-04-19T10:00:07.989Z</time></trkpt><trkpt lat="43.5051255" lon="10.6793946"><ele>152.8</ele><time>2026-04-19T10:00:08.987Z</time></trkpt><trkpt lat="43.505175" lon="10.6792838"><ele>152.2</ele><time>2026-04-19T10:00:10Z</time></trkpt><trkpt lat="43.5052322" lon="10.6791699"><ele>151.6</ele><time>2026-04-19T10:00:10.987Z</time></trkpt><trkpt lat="43.5052824" lon="10.6790684"><ele>151.0</ele><time>2026-04-19T10:00:12.005Z</time></trkpt><trkpt lat="43.5053375" lon="10.6789582"><ele>151.0</ele><time>2026-04-19T10:00:12.988Z</time></trkpt><trkpt lat="43.5053959" lon="10.6788388"><ele>151.0</ele><time>2026-04-19T10:00:13.982Z</time></trkpt><trkpt lat="43.5054614" lon="10.6787018"><ele>151.0</ele><time>2026-04-19T10:00:14.99Z</time></trkpt><trkpt lat="43.5055264" lon="10.6785629"><ele>151.0</ele><time>2026-04-19T10:00:15.992Z</time></trkpt><trkpt lat="43.505581" lon="10.6784053"><ele>151.0</ele><time>2026-04-19T10:00:16.988Z</time></trkpt><trkpt lat="43.5056194" lon="10.6782265"><ele>151.0</ele><time>2026-04-19T10:00:17.992Z</time></trkpt><trkpt lat="43.5056468" lon="10.6780463"><ele>151.0</ele><time>2026-04-19T10:00:18.993Z</time></trkpt><trkpt lat="43.5056716" lon="10.6778711"><ele>151.0</ele><time>2026-04-19T10:00:20.016Z</time></trkpt><trkpt lat="43.5056929" lon="10.6777066"><ele>151.0</ele><time>2026-04-19T10:00:20.989Z</time></trkpt><trkpt lat="43.5057163" lon="10.6775451"><ele>151.0</ele><time>2026-04-19T10:00:21.992Z</time></trkpt><trkpt lat="43.505729" lon="10.6773788"><ele>151.0</ele><time>2026-04-19T10:00:22.991Z</time></trkpt><trkpt lat="43.5057326" lon="10.6772271"><ele>151.0</ele><time>2026-04-19T10:00:23.992Z</time></trkpt><trkpt lat="43.5057128" lon="10.6770777"><ele>150.8</ele><time>2026-04-19T10:00:24.988Z</time></trkpt><trkpt lat="43.5056919" lon="10.6769279"><ele>150.6</ele><time>2026-04-19T10:00:25.994Z</time></trkpt><trkpt lat="43.5056728" lon="10.6767876"><ele>150.4</ele><time>2026-04-19T10:00:26.988Z</time></trkpt><trkpt lat="43.5056585" lon="10.6766409"><ele>150.2</ele><time>2026-04-19T10:00:27.991Z</time></trkpt><trkpt lat="43.505656" lon="10.6764906"><ele>150.0</ele><time>2026-04-19T10:00:29.008Z</time></trkpt><trkpt lat="43.5056558" lon="10.676324"><ele>150.0</ele><time>2026-04-19T10:00:29.994Z</time></trkpt><trkpt lat="43.5056609" lon="10.6761571"><ele>150.0</ele><time>2026-04-19T10:00:30.98Z</time></trkpt><trkpt lat="43.5056653" lon="10.6759796"><ele>150.0</ele><time>2026-04-19T10:00:31.998Z</time></trkpt><trkpt lat="43.5056733" lon="10.6757997"><ele>150.0</ele><time>2026-04-19T10:00:32.989Z</time></trkpt><trkpt lat="43.5056909" lon="10.6756338"><ele>150.6</ele><time>2026-04-19T10:00:33.993Z</time></trkpt><trkpt lat="43.5057135" lon="10.6754879"><ele>151.2</ele><time>2026-04-19T10:00:34.992Z</time></trkpt><trkpt lat="43.505737" lon="10.6753614"><ele>151.8</ele><time>2026-04-19T10:00:36.004Z</time></trkpt><trkpt lat="43.5057492" lon="10.6752153"><ele>152.4</ele><time>2026-04-19T10:00:36.983Z</time></trkpt><trkpt lat="43.5057589" lon="10.6750408"><ele>153.0</ele><time>2026-04-19T10:00:37.989Z</time></trkpt><trkpt lat="43.5057665" lon="10.6748652"><ele>153.0</ele><time>2026-04-19T10:00:38.995Z</time></trkpt><trkpt lat="43.5057664" lon="10.6746728"><ele>153.0</ele><time>2026-04-19T10:00:39.989Z</time></trkpt><trkpt lat="43.5057643" lon="10.6744959"><ele>153.0</ele><time>2026-04-19T10:00:41.014Z</time></trkpt><trkpt lat="43.5057564" lon="10.6743366"><ele>153.0</ele><time>2026-04-19T10:00:42.002Z</time></trkpt><trkpt lat="43.5057271" lon="10.6742093"><ele>152.0</ele><time>2026-04-19T10:00:43Z</time></trkpt><trkpt lat="43.505685" lon="10.6740933"><ele>151.0</ele><time>2026-04-19T10:00:43.989Z</time></trkpt><trkpt lat="43.5056359" lon="10.6739569"><ele>150.0</ele><time>2026-04-19T10:00:44.995Z</time></trkpt><trkpt lat="43.5055816" lon="10.673791"><ele>149.0</ele><time>2026-04-19T10:00:45.976Z</time></trkpt><trkpt lat="43.5055439" lon="10.673611"><ele>147.0</ele><time>2026-04-19T10:00:47.005Z</time></trkpt><trkpt lat="43.5055193" lon="10.6734172"><ele>145.0</ele><time>2026-04-19T10:00:47.976Z</time></trkpt><trkpt lat="43.5055019" lon="10.6732135"><ele>143.0</ele><time>2026-04-19T10:00:48.997Z</time></trkpt><trkpt lat="43.5054873" lon="10.6729855"><ele>142.0</ele><time>2026-04-19T10:00:49.986Z</time></trkpt><trkpt lat="43.5054849" lon="10.6727714"><ele>141.0</ele><time>2026-04-19T10:00:50.978Z</time></trkpt><trkpt lat="43.5054873" lon="10.6725421"><ele>140.0</ele><time>2026-04-19T10:00:51.985Z</time></trkpt><trkpt lat="43.505477" lon="10.6723213"><ele>140.0</ele><time>2026-04-19T10:00:52.988Z</time></trkpt><trkpt lat="43.5054573" lon="10.6721061"><ele>140.0</ele><time>2026-04-19T10:00:53.99Z</time></trkpt><trkpt lat="43.5054363" lon="10.6719139"><ele>140.0</ele><time>2026-04-19T10:00:54.989Z</time></trkpt><trkpt lat="43.5054185" lon="10.671733"><ele>140.0</ele><time>2026-04-19T10:00:55.986Z</time></trkpt><trkpt lat="43.5053971" lon="10.6715489"><ele>138.5</ele><time>2026-04-19T10:00:56.988Z</time></trkpt><trkpt lat="43.5053733" lon="10.6713739"><ele>137.0</ele><time>2026-04-19T10:00:57.985Z</time></trkpt><trkpt lat="43.5053491" lon="10.6712029"><ele>135.5</ele><time>2026-04-19T10:00:58.984Z</time></trkpt><trkpt lat="43.505324" lon="10.6710548"><ele>134.0</ele><time>2026-04-19T10:00:59.986Z</time></trkpt><trkpt lat="43.5052977" lon="10.6709134"><ele>134.0</ele><time>2026-04-19T10:01:00.999Z</time></trkpt><trkpt lat="43.5052755" lon="10.6707509"><ele>134.0</ele><time>2026-04-19T10:01:01.998Z</time></trkpt><trkpt lat="43.5052531" lon="10.6705707"><ele>134.0</ele><time>2026-04-19T10:01:03Z</time></trkpt><trkpt lat="43.505232" lon="10.6703962"><ele>134.0</ele><time>2026-04-19T10:01:03.988Z</time></trkpt><trkpt lat="43.5052161" lon="10.6702378"><ele>133.4</ele><time>2026-04-19T10:01:04.988Z</time></trkpt><trkpt lat="43.505198" lon="10.6700864"><ele>132.8</ele><time>2026-04-19T10:01:05.988Z</time></trkpt><trkpt lat="43.5051827" lon="10.6699463"><ele>132.2</ele><time>2026-04-19T10:01:06.993Z</time></trkpt><trkpt lat="43.5051706" lon="10.6698109"><ele>131.6</ele><time>2026-04-19T10:01:08.006Z</time></trkpt><trkpt lat="43.5051634" lon="10.6696887"><ele>131.0</ele><time>2026-04-19T10:01:08.991Z</time></trkpt><trkpt lat="43.5051652" lon="10.6695819"><ele>131.0</ele><time>2026-04-19T10:01:10.004Z</time></trkpt><trkpt lat="43.5051717" lon="10.6694798"><ele>131.0</ele><time>2026-04-19T10:01:10.989Z</time></trkpt><trkpt lat="43.5051755" lon="10.6693841"><ele>131.0</ele><time>2026-04-19T10:01:11.991Z</time></trkpt><trkpt lat="43.5051717" lon="10.6692914"><ele>131.0</ele><time>2026-04-19T10:01:13.007Z</time></trkpt><trkpt lat="43.5051419" lon="10.6691493"><ele>131.0</ele><time>2026-04-19T10:01:14.979Z</time></trkpt><trkpt lat="43.5051331" lon="10.6690562"><ele>131.0</ele><time>2026-04-19T10:01:19.985Z</time></trkpt><trkpt lat="43.5050794" lon="10.6689599"><ele>130.4</ele><time>2026-04-19T10:01:35.003Z</time></trkpt><trkpt lat="43.5050422" lon="10.6688708"><ele>129.8</ele><time>2026-04-19T10:01:37Z</time></trkpt><trkpt lat="43.5050022" lon="10.6687624"><ele>129.20000000000002</ele><time>2026-04-19T10:01:38.996Z</time></trkpt><trkpt lat="43.5049742" lon="10.6686277"><ele>128.6</ele><time>2026-04-19T10:01:40.984Z</time></trkpt><trkpt lat="43.5049585" lon="10.6684865"><ele>128.0</ele><time>2026-04-19T10:01:42.98Z</time></trkpt><trkpt lat="43.5049461" lon="10.6683559"><ele>127.33333333333333</ele><time>2026-04-19T10:01:44.988Z</time></trkpt><trkpt lat="43.5049383" lon="10.6682403"><ele>126.66666666666666</ele><time>2026-04-19T10:01:46.998Z</time></trkpt><trkpt lat="43.5049245" lon="10.6681221"><ele>126.0</ele><time>2026-04-19T10:01:48.988Z</time></trkpt><trkpt lat="43.5048985" lon="10.6680099"><ele>125.33333333333334</ele><time>2026-04-19T10:01:50.987Z</time></trkpt><trkpt lat="43.50488" lon="10.6679136"><ele>124.66666666666667</ele><time>2026-04-19T10:01:54.002Z</time></trkpt><trkpt lat="43.5048641" lon="10.6678293"><ele>124.0</ele><time>2026-04-19T10:01:57.987Z</time></trkpt><trkpt lat="43.504858" lon="10.667736"><ele>123.50000000000001</ele><time>2026-04-19T10:02:01.033Z</time></trkpt><trkpt lat="43.5048371" lon="10.667627"><ele>123.0</ele><time>2026-04-19T10:02:02.985Z</time></trkpt><trkpt lat="43.5048217" lon="10.6674956"><ele>122.5</ele><time>2026-04-19T10:02:04.991Z</time></trkpt><trkpt lat="43.5047913" lon="10.6673333"><ele>122.0</ele><time>2026-04-19T10:02:06.993Z</time></trkpt><trkpt lat="43.5047714" lon="10.6672394"><ele>121.50000000000001</ele><time>2026-04-19T10:02:07.994Z</time></trkpt><trkpt lat="43.5047507" lon="10.6671391"><ele>121.0</ele><time>2026-04-19T10:02:08.986Z</time></trkpt><trkpt lat="43.5047339" lon="10.6670457"><ele>121.0</ele><time>2026-04-19T10:02:09.991Z</time></trkpt><trkpt lat="43.5047228" lon="10.6669554"><ele>121.0</ele><time>2026-04-19T10:02:10.992Z</time></trkpt><trkpt lat="43.5047089" lon="10.6668003"><ele>121.0</ele><time>2026-04-19T10:02:13.001Z</time></trkpt><trkpt lat="43.5047166" lon="10.6666874"><ele>121.0</ele><time>2026-04-19T10:02:14.992Z</time></trkpt><trkpt lat="43.5047564" lon="10.6665938"><ele>121.0</ele><time>2026-04-19T10:02:16.992Z</time></trkpt><trkpt lat="43.5048414" lon="10.6664926"><ele>120.00000000000001</ele><time>2026-04-19T10:02:18.992Z</time></trkpt><trkpt lat="43.5048982" lon="10.6664198"><ele>119.0</ele><time>2026-04-19T10:02:20.028Z</time></trkpt><trkpt lat="43.5049533" lon="10.6663268"><ele>118.0</ele><time>2026-04-19T10:02:20.99Z</time></trkpt><trkpt lat="43.5049784" lon="10.666218"><ele>117.0</ele><time>2026-04-19T10:02:21.988Z</time></trkpt><trkpt lat="43.5049912" lon="10.6661135"><ele>116.00000000000001</ele><time>2026-04-19T10:02:22.993Z</time></trkpt><trkpt lat="43.5049988" lon="10.6660239"><ele>115.0</ele><time>2026-04-19T10:02:23.984Z</time></trkpt><trkpt lat="43.5050127" lon="10.6659392"><ele>113.83333333333334</ele><time>2026-04-19T10:02:24.995Z</time></trkpt><trkpt lat="43.5050229" lon="10.6658342"><ele>112.66666666666667</ele><time>2026-04-19T10:02:25.994Z</time></trkpt><trkpt lat="43.5050383" lon="10.6656979"><ele>111.5</ele><time>2026-04-19T10:02:27.014Z</time></trkpt><trkpt lat="43.5050549" lon="10.6655675"><ele>110.33333333333334</ele><time>2026-04-19T10:02:27.994Z</time></trkpt><trkpt lat="43.5050685" lon="10.6654431"><ele>109.16666666666667</ele><time>2026-04-19T10:02:28.989Z</time></trkpt><trkpt lat="43.5050741" lon="10.665327"><ele>108.0</ele><time>2026-04-19T10:02:29.993Z</time></trkpt><trkpt lat="43.5050714" lon="10.6652161"><ele>106.2</ele><time>2026-04-19T10:02:30.994Z</time></trkpt><trkpt lat="43.5050645" lon="10.6651128"><ele>104.4</ele><time>2026-04-19T10:02:31.998Z</time></trkpt><trkpt lat="43.5050491" lon="10.6650043"><ele>102.60000000000001</ele><time>2026-04-19T10:02:32.998Z</time></trkpt><trkpt lat="43.505026" lon="10.6648853"><ele>100.80000000000001</ele><time>2026-04-19T10:02:33.991Z</time></trkpt><trkpt lat="43.505001" lon="10.6647388"><ele>99.0</ele><time>2026-04-19T10:02:35.011Z</time></trkpt><trkpt lat="43.5049721" lon="10.6645973"><ele>99.0</ele><time>2026-04-19T10:02:35.983Z</time></trkpt><trkpt lat="43.504949" lon="10.6644675"><ele>99.0</ele><time>2026-04-19T10:02:36.99Z</time></trkpt><trkpt lat="43.5049267" lon="10.664358"><ele>99.0</ele><time>2026-04-19T10:02:38.003Z</time></trkpt><trkpt lat="43.5049096" lon="10.6642493"><ele>99.0</ele><time>2026-04-19T10:02:38.993Z</time></trkpt><trkpt lat="43.5048928" lon="10.6641315"><ele>99.0</ele><time>2026-04-19T10:02:39.98Z</time></trkpt><trkpt lat="43.5048783" lon="10.6640013"><ele>99.0</ele><time>2026-04-19T10:02:41.001Z</time></trkpt><trkpt lat="43.5048636" lon="10.6638811"><ele>97.83333333333333</ele><time>2026-04-19T10:02:41.994Z</time></trkpt><trkpt lat="43.5048538" lon="10.6637613"><ele>96.66666666666667</ele><time>2026-04-19T10:02:42.988Z</time></trkpt><trkpt lat="43.5048476" lon="10.6636322"><ele>95.5</ele><time>2026-04-19T10:02:43.993Z</time></trkpt><trkpt lat="43.5048451" lon="10.6635047"><ele>94.33333333333334</ele><time>2026-04-19T10:02:44.997Z</time></trkpt><trkpt lat="43.50485" lon="10.6633997"><ele>93.16666666666667</ele><time>2026-04-19T10:02:45.983Z</time></trkpt><trkpt lat="43.5048714" lon="10.6632955"><ele>92.0</ele><time>2026-04-19T10:02:46.987Z</time></trkpt><trkpt lat="43.5049055" lon="10.6631846"><ele>90.6</ele><time>2026-04-19T10:02:47.986Z</time></trkpt><trkpt lat="43.5049372" lon="10.6630517"><ele>89.19999999999999</ele><time>2026-04-19T10:02:49.018Z</time></trkpt><trkpt lat="43.5049636" lon="10.6629097"><ele>87.8</ele><time>2026-04-19T10:02:49.989Z</time></trkpt><trkpt lat="43.5049788" lon="10.6627561"><ele>86.4</ele><time>2026-04-19T10:02:50.982Z</time></trkpt><trkpt lat="43.5049864" lon="10.6625847"><ele>85.0</ele><time>2026-04-19T10:02:51.985Z</time></trkpt><trkpt lat="43.5049976" lon="10.6624132"><ele>83.75</ele><time>2026-04-19T10:02:52.987Z</time></trkpt><trkpt lat="43.5050079" lon="10.6622324"><ele>82.5</ele><time>2026-04-19T10:02:53.99Z</time></trkpt><trkpt lat="43.5050117" lon="10.6620582"><ele>81.25</ele><time>2026-04-19T10:02:54.994Z</time></trkpt><trkpt lat="43.5050156" lon="10.6619077"><ele>80.0</ele><time>2026-04-19T10:02:55.992Z</time></trkpt><trkpt lat="43.5050133" lon="10.6617745"><ele>80.0</ele><time>2026-04-19T10:02:56.985Z</time></trkpt><trkpt lat="43.5050132" lon="10.6616409"><ele>80.0</ele><time>2026-04-19T10:02:57.989Z</time></trkpt><trkpt lat="43.5050133" lon="10.6615088"><ele>80.0</ele><time>2026-04-19T10:02:59.001Z</time></trkpt><trkpt lat="43.5049995" lon="10.6613938"><ele>80.0</ele><time>2026-04-19T10:02:59.996Z</time></trkpt><trkpt lat="43.504974" lon="10.6612679"><ele>80.0</ele><time>2026-04-19T10:03:00.983Z</time></trkpt><trkpt lat="43.5049543" lon="10.6611296"><ele>80.0</ele><time>2026-04-19T10:03:01.985Z</time></trkpt><trkpt lat="43.504934" lon="10.6609963"><ele>80.0</ele><time>2026-04-19T10:03:02.986Z</time></trkpt><trkpt lat="43.5049112" lon="10.6608543"><ele>80.0</ele><time>2026-04-19T10:03:03.982Z</time></trkpt><trkpt lat="43.5048942" lon="10.6607126"><ele>80.0</ele><time>2026-04-19T10:03:04.984Z</time></trkpt><trkpt lat="43.5048794" lon="10.6605825"><ele>80.0</ele><time>2026-04-19T10:03:05.986Z</time></trkpt><trkpt lat="43.5048665" lon="10.6604774"><ele>80.0</ele><time>2026-04-19T10:03:06.985Z</time></trkpt><trkpt lat="43.5048635" lon="10.6603882"><ele>80.0</ele><time>2026-04-19T10:03:07.985Z</time></trkpt><trkpt lat="43.5048888" lon="10.660293"><ele>80.0</ele><time>2026-04-19T10:03:10.024Z</time></trkpt><trkpt lat="43.5049468" lon="10.6602584"><ele>80.0</ele><time>2026-04-19T10:03:11.997Z</time></trkpt><trkpt lat="43.5050137" lon="10.6602525"><ele>80.0</ele><time>2026-04-19T10:03:12.985Z</time></trkpt><trkpt lat="43.5051031" lon="10.6602728"><ele>80.0</ele><time>2026-04-19T10:03:13.994Z</time></trkpt><trkpt lat="43.5052076" lon="10.6602834"><ele>80.0</ele><time>2026-04-19T10:03:14.988Z</time></trkpt><trkpt lat="43.5053246" lon="10.6602799"><ele>80.0</ele><time>2026-04-19T10:03:15.994Z</time></trkpt><trkpt lat="43.5054509" lon="10.6602823"><ele>80.0</ele><time>2026-04-19T10:03:16.992Z</time></trkpt><trkpt lat="43.5055601" lon="10.6602813"><ele>80.0</ele><time>2026-04-19T10:03:18.014Z</time></trkpt><trkpt lat="43.5056696" lon="10.6602738"><ele>80.0</ele><time>2026-04-19T10:03:18.987Z</time></trkpt><trkpt lat="43.5057756" lon="10.6602587"><ele>80.0</ele><time>2026-04-19T10:03:19.996Z</time></trkpt><trkpt lat="43.5058865" lon="10.6602182"><ele>80.0</ele><time>2026-04-19T10:03:20.988Z</time></trkpt><trkpt lat="43.5059914" lon="10.6601661"><ele>80.0</ele><time>2026-04-19T10:03:21.984Z</time></trkpt><trkpt lat="43.5060899" lon="10.660082"><ele>80.0</ele><time>2026-04-19T10:03:22.985Z</time></trkpt><trkpt lat="43.5061802" lon="10.6599748"><ele>79.0</ele><time>2026-04-19T10:03:24.017Z</time></trkpt><trkpt lat="43.5062682" lon="10.6598491"><ele>78.0</ele><time>2026-04-19T10:03:25.001Z</time></trkpt><trkpt lat="43.5063573" lon="10.6597112"><ele>77.0</ele><time>2026-04-19T10:03:26.002Z</time></trkpt><trkpt lat="43.5064531" lon="10.6595678"><ele>76.0</ele><time>2026-04-19T10:03:26.99Z</time></trkpt><trkpt lat="43.5065513" lon="10.6594183"><ele>76.0</ele><time>2026-04-19T10:03:27.99Z</time></trkpt><trkpt lat="43.5066589" lon="10.6592596"><ele>76.0</ele><time>2026-04-19T10:03:28.995Z</time></trkpt><trkpt lat="43.506779" lon="10.6591099"><ele>76.0</ele><time>2026-04-19T10:03:29.988Z</time></trkpt><trkpt lat="43.5069038" lon="10.6589731"><ele>76.0</ele><time>2026-04-19T10:03:30.981Z</time></trkpt><trkpt lat="43.5070313" lon="10.6588593"><ele>76.0</ele><time>2026-04-19T10:03:31.976Z</time></trkpt><trkpt lat="43.5071593" lon="10.6587495"><ele>76.0</ele><time>2026-04-19T10:03:32.983Z</time></trkpt><trkpt lat="43.5072848" lon="10.6586303"><ele>76.0</ele><time>2026-04-19T10:03:33.992Z</time></trkpt><trkpt lat="43.5074113" lon="10.6585095"><ele>76.0</ele><time>2026-04-19T10:03:34.981Z</time></trkpt><trkpt lat="43.5075421" lon="10.6583905"><ele>76.0</ele><time>2026-04-19T10:03:35.992Z</time></trkpt><trkpt lat="43.5076844" lon="10.6582625"><ele>76.0</ele><time>2026-04-19T10:03:36.991Z</time></trkpt><trkpt lat="43.5078241" lon="10.6581388"><ele>76.0</ele><time>2026-04-19T10:03:37.991Z</time></trkpt><trkpt lat="43.5079727" lon="10.6580103"><ele>76.0</ele><time>2026-04-19T10:03:38.993Z</time></trkpt><trkpt lat="43.5081235" lon="10.6578702"><ele>76.0</ele><time>2026-04-19T10:03:39.999Z</time></trkpt><trkpt lat="43.5082853" lon="10.657717"><ele>76.0</ele><time>2026-04-19T10:03:40.991Z</time></trkpt><trkpt lat="43.508457" lon="10.6575654"><ele>76.0</ele><time>2026-04-19T10:03:41.981Z</time></trkpt><trkpt lat="43.5086304" lon="10.6574155"><ele>76.0</ele><time>2026-04-19T10:03:42.99Z</time></trkpt><trkpt lat="43.5087865" lon="10.6572916"><ele>76.0</ele><time>2026-04-19T10:03:43.997Z</time></trkpt><trkpt lat="43.5089289" lon="10.6571891"><ele>76.0</ele><time>2026-04-19T10:03:44.991Z</time></trkpt><trkpt lat="43.5090702" lon="10.6570994"><ele>76.0</ele><time>2026-04-19T10:03:45.983Z</time></trkpt><trkpt lat="43.5092132" lon="10.6570329"><ele>76.0</ele><time>2026-04-19T10:03:46.985Z</time></trkpt><trkpt lat="43.5093415" lon="10.6569879"><ele>76.0</ele><time>2026-04-19T10:03:47.984Z</time></trkpt><trkpt lat="43.5094499" lon="10.6569555"><ele>76.0</ele><time>2026-04-19T10:03:49.022Z</time></trkpt><trkpt lat="43.5095417" lon="10.6569306"><ele>76.0</ele><time>2026-04-19T10:03:49.99Z</time></trkpt><trkpt lat="43.5096069" lon="10.6569001"><ele>76.0</ele><time>2026-04-19T10:03:50.986Z</time></trkpt><trkpt lat="43.5096745" lon="10.6568279"><ele>76.0</ele><time>2026-04-19T10:03:52.988Z</time></trkpt><trkpt lat="43.5096293" lon="10.6567321"><ele>76.0</ele><time>2026-04-19T10:03:54.995Z</time></trkpt><trkpt lat="43.5095639" lon="10.6567059"><ele>76.0</ele><time>2026-04-19T10:03:55.984Z</time></trkpt><trkpt lat="43.5094834" lon="10.6566927"><ele>76.0</ele><time>2026-04-19T10:03:57Z</time></trkpt><trkpt lat="43.509398" lon="10.6566683"><ele>76.33333333333333</ele><time>2026-04-19T10:03:57.987Z</time></trkpt><trkpt lat="43.5093077" lon="10.6566167"><ele>76.66666666666666</ele><time>2026-04-19T10:03:58.978Z</time></trkpt><trkpt lat="43.509225" lon="10.6565605"><ele>77.0</ele><time>2026-04-19T10:03:59.984Z</time></trkpt><trkpt lat="43.5091654" lon="10.6564825"><ele>77.33333333333333</ele><time>2026-04-19T10:04:00.978Z</time></trkpt><trkpt lat="43.5091256" lon="10.6563856"><ele>77.66666666666667</ele><time>2026-04-19T10:04:01.982Z</time></trkpt><trkpt lat="43.5091069" lon="10.6562703"><ele>78.0</ele><time>2026-04-19T10:04:02.983Z</time></trkpt><trkpt lat="43.5090834" lon="10.6561342"><ele>80.0</ele><time>2026-04-19T10:04:04.018Z</time></trkpt><trkpt lat="43.5090578" lon="10.6559912"><ele>82.0</ele><time>2026-04-19T10:04:04.99Z</time></trkpt><trkpt lat="43.5090159" lon="10.655849"><ele>84.0</ele><time>2026-04-19T10:04:05.984Z</time></trkpt><trkpt lat="43.5089646" lon="10.6557083"><ele>86.0</ele><time>2026-04-19T10:04:06.989Z</time></trkpt><trkpt lat="43.5088931" lon="10.6555776"><ele>86.0</ele><time>2026-04-19T10:04:07.984Z</time></trkpt><trkpt lat="43.5088006" lon="10.6554433"><ele>86.0</ele><time>2026-04-19T10:04:09.013Z</time></trkpt><trkpt lat="43.5087081" lon="10.6553027"><ele>86.0</ele><time>2026-04-19T10:04:09.988Z</time></trkpt><trkpt lat="43.5086107" lon="10.6551676"><ele>86.0</ele><time>2026-04-19T10:04:11.024Z</time></trkpt><trkpt lat="43.5085097" lon="10.6550306"><ele>88.75</ele><time>2026-04-19T10:04:12.014Z</time></trkpt><trkpt lat="43.5084091" lon="10.6549005"><ele>91.5</ele><time>2026-04-19T10:04:12.988Z</time></trkpt><trkpt lat="43.508303" lon="10.6547916"><ele>94.25</ele><time>2026-04-19T10:04:13.986Z</time></trkpt><trkpt lat="43.5081953" lon="10.6547077"><ele>97.0</ele><time>2026-04-19T10:04:14.991Z</time></trkpt><trkpt lat="43.5080616" lon="10.6546394"><ele>97.0</ele><time>2026-04-19T10:04:15.987Z</time></trkpt><trkpt lat="43.5079299" lon="10.6545832"><ele>97.0</ele><time>2026-04-19T10:04:16.983Z</time></trkpt><trkpt lat="43.5077966" lon="10.6545195"><ele>97.0</ele><time>2026-04-19T10:04:17.986Z</time></trkpt><trkpt lat="43.5076634" lon="10.6544551"><ele>97.0</ele><time>2026-04-19T10:04:19.005Z</time></trkpt><trkpt lat="43.507528" lon="10.6543834"><ele>98.0</ele><time>2026-04-19T10:04:19.989Z</time></trkpt><trkpt lat="43.5073987" lon="10.654287"><ele>99.0</ele><time>2026-04-19T10:04:20.997Z</time></trkpt><trkpt lat="43.5072779" lon="10.6541777"><ele>100.0</ele><time>2026-04-19T10:04:21.986Z</time></trkpt><trkpt lat="43.5071532" lon="10.6540467"><ele>101.0</ele><time>2026-04-19T10:04:22.992Z</time></trkpt><trkpt lat="43.5070395" lon="10.6539258"><ele>101.0</ele><time>2026-04-19T10:04:23.983Z</time></trkpt><trkpt lat="43.5069252" lon="10.6537997"><ele>101.0</ele><time>2026-04-19T10:04:25.018Z</time></trkpt><trkpt lat="43.506817" lon="10.6536628"><ele>101.0</ele><time>2026-04-19T10:04:25.991Z</time></trkpt><trkpt lat="43.5067113" lon="10.6535105"><ele>101.0</ele><time>2026-04-19T10:04:26.986Z</time></trkpt><trkpt lat="43.5065974" lon="10.653364"><ele>103.0</ele><time>2026-04-19T10:04:27.985Z</time></trkpt><trkpt lat="43.5064844" lon="10.6532097"><ele>105.0</ele><time>2026-04-19T10:04:28.988Z</time></trkpt><trkpt lat="43.5063736" lon="10.6530409"><ele>107.0</ele><time>2026-04-19T10:04:29.987Z</time></trkpt><trkpt lat="43.5062705" lon="10.652869"><ele>106.66666666666666</ele><time>2026-04-19T10:04:30.985Z</time></trkpt><trkpt lat="43.5061769" lon="10.6526714"><ele>106.33333333333334</ele><time>2026-04-19T10:04:31.992Z</time></trkpt><trkpt lat="43.5060931" lon="10.6524775"><ele>106.0</ele><time>2026-04-19T10:04:32.995Z</time></trkpt><trkpt lat="43.5060079" lon="10.652281"><ele>106.0</ele><time>2026-04-19T10:04:33.993Z</time></trkpt><trkpt lat="43.5059171" lon="10.6520821"><ele>106.0</ele><time>2026-04-19T10:04:34.985Z</time></trkpt><trkpt lat="43.5058275" lon="10.6518816"><ele>106.0</ele><time>2026-04-19T10:04:36.001Z</time></trkpt><trkpt lat="43.50574" lon="10.6516784"><ele>106.66666666666667</ele><time>2026-04-19T10:04:36.991Z</time></trkpt><trkpt lat="43.5056541" lon="10.6514788"><ele>107.33333333333334</ele><time>2026-04-19T10:04:37.994Z</time></trkpt><trkpt lat="43.5055584" lon="10.6512936"><ele>108.0</ele><time>2026-04-19T10:04:38.985Z</time></trkpt><trkpt lat="43.5054648" lon="10.6511082"><ele>108.0</ele><time>2026-04-19T10:04:39.992Z</time></trkpt><trkpt lat="43.5053709" lon="10.6509196"><ele>108.0</ele><time>2026-04-19T10:04:40.986Z</time></trkpt><trkpt lat="43.5052819" lon="10.65074"><ele>108.0</ele><time>2026-04-19T10:04:41.992Z</time></trkpt><trkpt lat="43.5051955" lon="10.6505546"><ele>108.0</ele><time>2026-04-19T10:04:42.998Z</time></trkpt><trkpt lat="43.505118" lon="10.6503622"><ele>108.0</ele><time>2026-04-19T10:04:43.977Z</time></trkpt><trkpt lat="43.5050533" lon="10.6501588"><ele>108.0</ele><time>2026-04-19T10:04:45.01Z</time></trkpt><trkpt lat="43.5050084" lon="10.649951"><ele>108.33333333333334</ele><time>2026-04-19T10:04:45.986Z</time></trkpt><trkpt lat="43.5049881" lon="10.6497372"><ele>108.66666666666667</ele><time>2026-04-19T10:04:46.985Z</time></trkpt><trkpt lat="43.5049753" lon="10.6495028"><ele>109.0</ele><time>2026-04-19T10:04:47.986Z</time></trkpt><trkpt lat="43.5049643" lon="10.6492659"><ele>109.75</ele><time>2026-04-19T10:04:48.983Z</time></trkpt><trkpt lat="43.5049591" lon="10.6490646"><ele>110.5</ele><time>2026-04-19T10:04:49.993Z</time></trkpt><trkpt lat="43.5049474" lon="10.6488834"><ele>111.25</ele><time>2026-04-19T10:04:50.984Z</time></trkpt><trkpt lat="43.5049209" lon="10.6487132"><ele>112.0</ele><time>2026-04-19T10:04:51.989Z</time></trkpt><trkpt lat="43.5048662" lon="10.6485626"><ele>112.75</ele><time>2026-04-19T10:04:52.986Z</time></trkpt><trkpt lat="43.504788" lon="10.6484088"><ele>113.5</ele><time>2026-04-19T10:04:53.986Z</time></trkpt><trkpt lat="43.504705" lon="10.6482389"><ele>114.25</ele><time>2026-04-19T10:04:54.991Z</time></trkpt><trkpt lat="43.5046232" lon="10.6480556"><ele>115.0</ele><time>2026-04-19T10:04:55.978Z</time></trkpt><trkpt lat="43.5045368" lon="10.647865"><ele>115.0</ele><time>2026-04-19T10:04:57.011Z</time></trkpt><trkpt lat="43.50445" lon="10.6476704"><ele>115.0</ele><time>2026-04-19T10:04:57.997Z</time></trkpt><trkpt lat="43.5043686" lon="10.6474688"><ele>115.0</ele><time>2026-04-19T10:04:58.983Z</time></trkpt><trkpt lat="43.5042873" lon="10.647277"><ele>115.0</ele><time>2026-04-19T10:04:59.987Z</time></trkpt><trkpt lat="43.5042171" lon="10.6470849"><ele>115.0</ele><time>2026-04-19T10:05:00.981Z</time></trkpt><trkpt lat="43.504153" lon="10.6468906"><ele>115.0</ele><time>2026-04-19T10:05:02.002Z</time></trkpt><trkpt lat="43.5040864" lon="10.6467028"><ele>116.75</ele><time>2026-04-19T10:05:02.986Z</time></trkpt><trkpt lat="43.5040212" lon="10.6465309"><ele>118.5</ele><time>2026-04-19T10:05:03.986Z</time></trkpt><trkpt lat="43.5039678" lon="10.6463906"><ele>120.25</ele><time>2026-04-19T10:05:04.98Z</time></trkpt><trkpt lat="43.5039227" lon="10.6462692"><ele>122.0</ele><time>2026-04-19T10:05:05.984Z</time></trkpt><trkpt lat="43.5038486" lon="10.6461578"><ele>123.25</ele><time>2026-04-19T10:05:06.985Z</time></trkpt><trkpt lat="43.5037539" lon="10.6460607"><ele>124.5</ele><time>2026-04-19T10:05:07.994Z</time></trkpt><trkpt lat="43.5036396" lon="10.6459644"><ele>125.75</ele><time>2026-04-19T10:05:08.993Z</time></trkpt><trkpt lat="43.5035277" lon="10.6458714"><ele>127.0</ele><time>2026-04-19T10:05:09.994Z</time></trkpt><trkpt lat="43.5034346" lon="10.6457773"><ele>127.39999999999999</ele><time>2026-04-19T10:05:10.984Z</time></trkpt><trkpt lat="43.5033557" lon="10.6456822"><ele>127.79999999999998</ele><time>2026-04-19T10:05:11.979Z</time></trkpt><trkpt lat="43.5032927" lon="10.6455686"><ele>128.2</ele><time>2026-04-19T10:05:12.986Z</time></trkpt><trkpt lat="43.5032556" lon="10.6454585"><ele>128.6</ele><time>2026-04-19T10:05:13.985Z</time></trkpt><trkpt lat="43.5032271" lon="10.6453223"><ele>129.0</ele><time>2026-04-19T10:05:14.985Z</time></trkpt><trkpt lat="43.5031864" lon="10.6448662"><ele>129.4</ele><time>2026-04-19T10:05:16.071Z</time></trkpt><trkpt lat="43.5031739" lon="10.6446984"><ele>129.8</ele><time>2026-04-19T10:05:17.075Z</time></trkpt><trkpt lat="43.5031601" lon="10.6445369"><ele>130.2</ele><time>2026-04-19T10:05:18.079Z</time></trkpt><trkpt lat="43.5031459" lon="10.6443932"><ele>130.6</ele><time>2026-04-19T10:05:19.067Z</time></trkpt><trkpt lat="43.5031326" lon="10.6442619"><ele>131.0</ele><time>2026-04-19T10:05:20.067Z</time></trkpt><trkpt lat="43.5031184" lon="10.6441131"><ele>131.0</ele><time>2026-04-19T10:05:21.081Z</time></trkpt><trkpt lat="43.503092" lon="10.6439609"><ele>131.0</ele><time>2026-04-19T10:05:22.086Z</time></trkpt><trkpt lat="43.5030506" lon="10.6438011"><ele>131.0</ele><time>2026-04-19T10:05:23.075Z</time></trkpt><trkpt lat="43.5029954" lon="10.6436388"><ele>131.0</ele><time>2026-04-19T10:05:24.08Z</time></trkpt><trkpt lat="43.502938" lon="10.6434753"><ele>131.5</ele><time>2026-04-19T10:05:25.076Z</time></trkpt><trkpt lat="43.5028752" lon="10.6433104"><ele>132.0</ele><time>2026-04-19T10:05:26.069Z</time></trkpt><trkpt lat="43.5028087" lon="10.6431459"><ele>132.5</ele><time>2026-04-19T10:05:27.07Z</time></trkpt><trkpt lat="43.5027368" lon="10.6429867"><ele>133.0</ele><time>2026-04-19T10:05:28.077Z</time></trkpt><trkpt lat="43.502666" lon="10.6428321"><ele>134.5</ele><time>2026-04-19T10:05:29.068Z</time></trkpt><trkpt lat="43.5025981" lon="10.6426692"><ele>136.0</ele><time>2026-04-19T10:05:30.074Z</time></trkpt><trkpt lat="43.5025359" lon="10.6425243"><ele>137.5</ele><time>2026-04-19T10:05:31.064Z</time></trkpt><trkpt lat="43.5024884" lon="10.6423824"><ele>139.0</ele><time>2026-04-19T10:05:32.064Z</time></trkpt><trkpt lat="43.5024492" lon="10.6422455"><ele>139.0</ele><time>2026-04-19T10:05:33.069Z</time></trkpt><trkpt lat="43.5024236" lon="10.6421216"><ele>139.0</ele><time>2026-04-19T10:05:34.075Z</time></trkpt><trkpt lat="43.5024233" lon="10.6420203"><ele>139.0</ele><time>2026-04-19T10:05:35.069Z</time></trkpt><trkpt lat="43.5024408" lon="10.6419365"><ele>139.0</ele><time>2026-04-19T10:05:36.081Z</time></trkpt><trkpt lat="43.5024807" lon="10.6418616"><ele>139.0</ele><time>2026-04-19T10:05:37.066Z</time></trkpt><trkpt lat="43.5025282" lon="10.6417772"><ele>139.0</ele><time>2026-04-19T10:05:38.069Z</time></trkpt><trkpt lat="43.5025622" lon="10.6416728"><ele>139.83333333333334</ele><time>2026-04-19T10:05:39.071Z</time></trkpt><trkpt lat="43.5025782" lon="10.6415474"><ele>140.66666666666669</ele><time>2026-04-19T10:05:40.059Z</time></trkpt><trkpt lat="43.5026002" lon="10.6414283"><ele>141.5</ele><time>2026-04-19T10:05:41.071Z</time></trkpt><trkpt lat="43.5026132" lon="10.6413174"><ele>142.33333333333334</ele><time>2026-04-19T10:05:42.067Z</time></trkpt><trkpt lat="43.5026103" lon="10.6412266"><ele>143.16666666666666</ele><time>2026-04-19T10:05:43.071Z</time></trkpt><trkpt lat="43.502558" lon="10.6410769"><ele>144.0</ele><time>2026-04-19T10:05:45.079Z</time></trkpt><trkpt lat="43.5024599" lon="10.6409734"><ele>145.0</ele><time>2026-04-19T10:05:47.082Z</time></trkpt><trkpt lat="43.5023955" lon="10.6409307"><ele>146.0</ele><time>2026-04-19T10:05:48.075Z</time></trkpt><trkpt lat="43.5022915" lon="10.6408278"><ele>147.0</ele><time>2026-04-19T10:05:50.076Z</time></trkpt><trkpt lat="43.5022513" lon="10.6407476"><ele>148.0</ele><time>2026-04-19T10:05:51.078Z</time></trkpt><trkpt lat="43.5022125" lon="10.6406535"><ele>149.0</ele><time>2026-04-19T10:05:52.081Z</time></trkpt><trkpt lat="43.5021688" lon="10.6405496"><ele>150.0</ele><time>2026-04-19T10:05:53.073Z</time></trkpt><trkpt lat="43.5021161" lon="10.6404481"><ele>152.33333333333334</ele><time>2026-04-19T10:05:54.08Z</time></trkpt><trkpt lat="43.5020697" lon="10.6403474"><ele>154.66666666666666</ele><time>2026-04-19T10:05:55.082Z</time></trkpt><trkpt lat="43.5020234" lon="10.6402683"><ele>157.0</ele><time>2026-04-19T10:05:56.076Z</time></trkpt><trkpt lat="43.5019772" lon="10.6402076"><ele>159.33333333333331</ele><time>2026-04-19T10:05:57.09Z</time></trkpt><trkpt lat="43.5019177" lon="10.6400983"><ele>161.66666666666666</ele><time>2026-04-19T10:05:59.081Z</time></trkpt><trkpt lat="43.5019402" lon="10.6399596"><ele>164.0</ele><time>2026-04-19T10:06:01.078Z</time></trkpt><trkpt lat="43.501956" lon="10.6398443"><ele>166.0</ele><time>2026-04-19T10:06:02.075Z</time></trkpt><trkpt lat="43.5019654" lon="10.6397243"><ele>168.0</ele><time>2026-04-19T10:06:03.08Z</time></trkpt><trkpt lat="43.5019788" lon="10.6395972"><ele>170.0</ele><time>2026-04-19T10:06:04.08Z</time></trkpt><trkpt lat="43.501993" lon="10.6394711"><ele>172.0</ele><time>2026-04-19T10:06:05.091Z</time></trkpt><trkpt lat="43.5020117" lon="10.6393421"><ele>174.0</ele><time>2026-04-19T10:06:06.088Z</time></trkpt><trkpt lat="43.5020355" lon="10.6392182"><ele>175.39999999999998</ele><time>2026-04-19T10:06:07.082Z</time></trkpt><trkpt lat="43.5020644" lon="10.6391004"><ele>176.8</ele><time>2026-04-19T10:06:08.072Z</time></trkpt><trkpt lat="43.5020906" lon="10.6389816"><ele>178.2</ele><time>2026-04-19T10:06:09.074Z</time></trkpt><trkpt lat="43.5021099" lon="10.638879"><ele>179.60000000000002</ele><time>2026-04-19T10:06:10.076Z</time></trkpt><trkpt lat="43.5020922" lon="10.6387241"><ele>181.0</ele><time>2026-04-19T10:06:12.086Z</time></trkpt><trkpt lat="43.5020437" lon="10.6386355"><ele>181.60000000000002</ele><time>2026-04-19T10:06:13.086Z</time></trkpt><trkpt lat="43.5019879" lon="10.6385334"><ele>182.2</ele><time>2026-04-19T10:06:14.092Z</time></trkpt><trkpt lat="43.5019426" lon="10.638431"><ele>182.8</ele><time>2026-04-19T10:06:15.079Z</time></trkpt><trkpt lat="43.5018743" lon="10.6383257"><ele>183.39999999999998</ele><time>2026-04-19T10:06:16.075Z</time></trkpt><trkpt lat="43.5018025" lon="10.6382309"><ele>184.0</ele><time>2026-04-19T10:06:17.077Z</time></trkpt><trkpt lat="43.5017464" lon="10.6381688"><ele>184.0</ele><time>2026-04-19T10:06:18.073Z</time></trkpt><trkpt lat="43.5016994" lon="10.6380912"><ele>184.0</ele><time>2026-04-19T10:06:20.081Z</time></trkpt><trkpt lat="43.5017065" lon="10.6379993"><ele>184.0</ele><time>2026-04-19T10:06:22.073Z</time></trkpt><trkpt lat="43.501748" lon="10.6379284"><ele>184.0</ele><time>2026-04-19T10:06:23.088Z</time></trkpt><trkpt lat="43.5018009" lon="10.6378458"><ele>184.0</ele><time>2026-04-19T10:06:24.084Z</time></trkpt><trkpt lat="43.5018779" lon="10.637753"><ele>184.0</ele><time>2026-04-19T10:06:25.105Z</time></trkpt><trkpt lat="43.5019607" lon="10.6376507"><ele>185.5</ele><time>2026-04-19T10:06:26.08Z</time></trkpt><trkpt lat="43.5020565" lon="10.6375402"><ele>187.0</ele><time>2026-04-19T10:06:27.081Z</time></trkpt><trkpt lat="43.5021586" lon="10.6374263"><ele>188.5</ele><time>2026-04-19T10:06:28.073Z</time></trkpt><trkpt lat="43.5022608" lon="10.6373068"><ele>190.0</ele><time>2026-04-19T10:06:29.078Z</time></trkpt><trkpt lat="43.5023614" lon="10.6371771"><ele>188.0</ele><time>2026-04-19T10:06:30.081Z</time></trkpt><trkpt lat="43.5024451" lon="10.637038"><ele>186.0</ele><time>2026-04-19T10:06:31.065Z</time></trkpt><trkpt lat="43.5025171" lon="10.636905"><ele>184.0</ele><time>2026-04-19T10:06:32.092Z</time></trkpt><trkpt lat="43.5025903" lon="10.6367922"><ele>182.0</ele><time>2026-04-19T10:06:33.079Z</time></trkpt><trkpt lat="43.502674" lon="10.6367119"><ele>182.0</ele><time>2026-04-19T10:06:34.085Z</time></trkpt><trkpt lat="43.5027704" lon="10.6366744"><ele>182.0</ele><time>2026-04-19T10:06:35.079Z</time></trkpt><trkpt lat="43.5028838" lon="10.6366743"><ele>182.0</ele><time>2026-04-19T10:06:36.075Z</time></trkpt><trkpt lat="43.5030039" lon="10.6366666"><ele>182.0</ele><time>2026-04-19T10:06:37.079Z</time></trkpt><trkpt lat="43.5031323" lon="10.6366145"><ele>179.5</ele><time>2026-04-19T10:06:38.07Z</time></trkpt><trkpt lat="43.5032542" lon="10.636542"><ele>177.0</ele><time>2026-04-19T10:06:39.08Z</time></trkpt><trkpt lat="43.5033813" lon="10.6364475"><ele>174.5</ele><time>2026-04-19T10:06:40.107Z</time></trkpt><trkpt lat="43.5035064" lon="10.6363444"><ele>172.0</ele><time>2026-04-19T10:06:41.088Z</time></trkpt><trkpt lat="43.5036184" lon="10.6362452"><ele>172.0</ele><time>2026-04-19T10:06:42.079Z</time></trkpt><trkpt lat="43.5037248" lon="10.636153"><ele>172.0</ele><time>2026-04-19T10:06:43.082Z</time></trkpt><trkpt lat="43.5038133" lon="10.6360323"><ele>172.0</ele><time>2026-04-19T10:06:44.082Z</time></trkpt><trkpt lat="43.5038637" lon="10.6358792"><ele>172.0</ele><time>2026-04-19T10:06:45.076Z</time></trkpt><trkpt lat="43.5039011" lon="10.6357173"><ele>171.16666666666669</ele><time>2026-04-19T10:06:46.08Z</time></trkpt><trkpt lat="43.5039281" lon="10.6355742"><ele>170.33333333333334</ele><time>2026-04-19T10:06:47.078Z</time></trkpt><trkpt lat="43.5039582" lon="10.6354684"><ele>169.5</ele><time>2026-04-19T10:06:48.082Z</time></trkpt><trkpt lat="43.5039957" lon="10.6353952"><ele>168.66666666666666</ele><time>2026-04-19T10:06:49.073Z</time></trkpt><trkpt lat="43.5040801" lon="10.6353006"><ele>167.83333333333331</ele><time>2026-04-19T10:06:51.079Z</time></trkpt><trkpt lat="43.504156" lon="10.6352884"><ele>167.0</ele><time>2026-04-19T10:06:52.081Z</time></trkpt><trkpt lat="43.5042428" lon="10.6353271"><ele>167.0</ele><time>2026-04-19T10:06:53.079Z</time></trkpt><trkpt lat="43.504323" lon="10.6354114"><ele>167.0</ele><time>2026-04-19T10:06:54.073Z</time></trkpt><trkpt lat="43.5044268" lon="10.6355057"><ele>167.0</ele><time>2026-04-19T10:06:55.081Z</time></trkpt><trkpt lat="43.5045311" lon="10.6356311"><ele>167.0</ele><time>2026-04-19T10:06:56.073Z</time></trkpt><trkpt lat="43.5046405" lon="10.6357618"><ele>164.33333333333331</ele><time>2026-04-19T10:06:57.092Z</time></trkpt><trkpt lat="43.5047503" lon="10.6359035"><ele>161.66666666666666</ele><time>2026-04-19T10:06:58.093Z</time></trkpt><trkpt lat="43.5048597" lon="10.6360579"><ele>159.0</ele><time>2026-04-19T10:06:59.083Z</time></trkpt><trkpt lat="43.5049536" lon="10.6362273"><ele>159.0</ele><time>2026-04-19T10:07:00.096Z</time></trkpt><trkpt lat="43.5050185" lon="10.6363975"><ele>159.0</ele><time>2026-04-19T10:07:01.074Z</time></trkpt><trkpt lat="43.5050595" lon="10.636563"><ele>159.0</ele><time>2026-04-19T10:07:02.07Z</time></trkpt><trkpt lat="43.505096" lon="10.636708"><ele>159.0</ele><time>2026-04-19T10:07:03.088Z</time></trkpt><trkpt lat="43.5051287" lon="10.6368148"><ele>159.0</ele><time>2026-04-19T10:07:04.081Z</time></trkpt><trkpt lat="43.5052044" lon="10.6368726"><ele>159.0</ele><time>2026-04-19T10:07:05.076Z</time></trkpt><trkpt lat="43.5053081" lon="10.6368737"><ele>159.0</ele><time>2026-04-19T10:07:06.094Z</time></trkpt><trkpt lat="43.5054029" lon="10.6368075"><ele>159.0</ele><time>2026-04-19T10:07:07.082Z</time></trkpt><trkpt lat="43.5054618" lon="10.6367158"><ele>159.0</ele><time>2026-04-19T10:07:08.073Z</time></trkpt><trkpt lat="43.5054892" lon="10.6365935"><ele>159.0</ele><time>2026-04-19T10:07:09.072Z</time></trkpt><trkpt lat="43.5054749" lon="10.6364548"><ele>159.0</ele><time>2026-04-19T10:07:10.074Z</time></trkpt><trkpt lat="43.5054158" lon="10.636296"><ele>159.0</ele><time>2026-04-19T10:07:11.087Z</time></trkpt><trkpt lat="43.5053275" lon="10.6361543"><ele>159.0</ele><time>2026-04-19T10:07:12.077Z</time></trkpt><trkpt lat="43.5052506" lon="10.636021"><ele>158.5</ele><time>2026-04-19T10:07:13.079Z</time></trkpt><trkpt lat="43.5052048" lon="10.6358901"><ele>158.0</ele><time>2026-04-19T10:07:14.076Z</time></trkpt><trkpt lat="43.5052011" lon="10.6357374"><ele>157.5</ele><time>2026-04-19T10:07:15.073Z</time></trkpt><trkpt lat="43.5052309" lon="10.635555"><ele>157.0</ele><time>2026-04-19T10:07:16.068Z</time></trkpt><trkpt lat="43.5052716" lon="10.6353719"><ele>155.66666666666669</ele><time>2026-04-19T10:07:17.076Z</time></trkpt><trkpt lat="43.5052865" lon="10.6351813"><ele>154.33333333333334</ele><time>2026-04-19T10:07:18.086Z</time></trkpt><trkpt lat="43.5052487" lon="10.6349779"><ele>153.0</ele><time>2026-04-19T10:07:19.08Z</time></trkpt><trkpt lat="43.5051917" lon="10.6347657"><ele>153.0</ele><time>2026-04-19T10:07:20.075Z</time></trkpt><trkpt lat="43.505147" lon="10.6345722"><ele>153.0</ele><time>2026-04-19T10:07:21.078Z</time></trkpt><trkpt lat="43.505132" lon="10.6343854"><ele>153.0</ele><time>2026-04-19T10:07:22.073Z</time></trkpt><trkpt lat="43.505134" lon="10.6342233"><ele>153.0</ele><time>2026-04-19T10:07:23.102Z</time></trkpt><trkpt lat="43.5051552" lon="10.634089"><ele>149.0</ele><time>2026-04-19T10:07:24.065Z</time></trkpt><trkpt lat="43.5051778" lon="10.6339818"><ele>149.0</ele><time>2026-04-19T10:07:25.078Z</time></trkpt><trkpt lat="43.5052111" lon="10.6339051"><ele>149.0</ele><time>2026-04-19T10:07:26.069Z</time></trkpt><trkpt lat="43.5052959" lon="10.6338161"><ele>149.0</ele><time>2026-04-19T10:07:28.068Z</time></trkpt><trkpt lat="43.5053704" lon="10.6337377"><ele>149.0</ele><time>2026-04-19T10:07:30.075Z</time></trkpt><trkpt lat="43.5054151" lon="10.6336743"><ele>142.0</ele><time>2026-04-19T10:07:32.07Z</time></trkpt></trkseg><trkseg><trkpt lat="43.5053127" lon="10.6337141"><ele>149.0</ele><time>2026-04-19T10:55:55.138Z</time></trkpt><trkpt lat="43.5052551" lon="10.6338032"><ele>149.0</ele><time>2026-04-19T10:55:59.131Z</time></trkpt><trkpt lat="43.5051906" lon="10.6337637"><ele>149.0</ele><time>2026-04-19T10:56:02.136Z</time></trkpt><trkpt lat="43.5051956" lon="10.6336021"><ele>149.0</ele><time>2026-04-19T10:56:03.147Z</time></trkpt><trkpt lat="43.5051904" lon="10.6334831"><ele>149.0</ele><time>2026-04-19T10:56:04.138Z</time></trkpt><trkpt lat="43.505177" lon="10.6333537"><ele>149.2</ele><time>2026-04-19T10:56:05.146Z</time></trkpt><trkpt lat="43.5051603" lon="10.6332192"><ele>149.4</ele><time>2026-04-19T10:56:06.132Z</time></trkpt><trkpt lat="43.505131" lon="10.6330777"><ele>149.6</ele><time>2026-04-19T10:56:07.134Z</time></trkpt><trkpt lat="43.505109" lon="10.6329357"><ele>149.8</ele><time>2026-04-19T10:56:08.136Z</time></trkpt><trkpt lat="43.5051045" lon="10.6328009"><ele>150.0</ele><time>2026-04-19T10:56:09.14Z</time></trkpt><trkpt lat="43.5051235" lon="10.6326903"><ele>149.4</ele><time>2026-04-19T10:56:10.139Z</time></trkpt><trkpt lat="43.5051747" lon="10.632591"><ele>148.8</ele><time>2026-04-19T10:56:11.13Z</time></trkpt><trkpt lat="43.5052502" lon="10.6325015"><ele>148.2</ele><time>2026-04-19T10:56:12.133Z</time></trkpt><trkpt lat="43.5053448" lon="10.6324261"><ele>147.6</ele><time>2026-04-19T10:56:13.135Z</time></trkpt><trkpt lat="43.5054484" lon="10.632372"><ele>147.0</ele><time>2026-04-19T10:56:14.133Z</time></trkpt><trkpt lat="43.505567" lon="10.6323085"><ele>145.25</ele><time>2026-04-19T10:56:15.137Z</time></trkpt><trkpt lat="43.5056924" lon="10.6322397"><ele>143.5</ele><time>2026-04-19T10:56:16.142Z</time></trkpt><trkpt lat="43.5058232" lon="10.6321739"><ele>141.75</ele><time>2026-04-19T10:56:17.136Z</time></trkpt><trkpt lat="43.5059611" lon="10.6321328"><ele>140.0</ele><time>2026-04-19T10:56:18.133Z</time></trkpt><trkpt lat="43.5061107" lon="10.6321234"><ele>140.0</ele><time>2026-04-19T10:56:19.15Z</time></trkpt><trkpt lat="43.5062656" lon="10.6321287"><ele>140.0</ele><time>2026-04-19T10:56:20.134Z</time></trkpt><trkpt lat="43.5064249" lon="10.6321613"><ele>140.0</ele><time>2026-04-19T10:56:21.139Z</time></trkpt><trkpt lat="43.5065799" lon="10.6321955"><ele>140.0</ele><time>2026-04-19T10:56:22.139Z</time></trkpt><trkpt lat="43.5067365" lon="10.6322375"><ele>140.0</ele><time>2026-04-19T10:56:23.141Z</time></trkpt><trkpt lat="43.5068959" lon="10.632279"><ele>140.0</ele><time>2026-04-19T10:56:24.139Z</time></trkpt><trkpt lat="43.507046" lon="10.6323266"><ele>139.25</ele><time>2026-04-19T10:56:25.139Z</time></trkpt><trkpt lat="43.5071799" lon="10.6324049"><ele>138.5</ele><time>2026-04-19T10:56:26.143Z</time></trkpt><trkpt lat="43.5072956" lon="10.6325214"><ele>137.75</ele><time>2026-04-19T10:56:27.132Z</time></trkpt><trkpt lat="43.5074086" lon="10.6326566"><ele>137.0</ele><time>2026-04-19T10:56:28.147Z</time></trkpt><trkpt lat="43.5075098" lon="10.6328186"><ele>137.0</ele><time>2026-04-19T10:56:29.129Z</time></trkpt><trkpt lat="43.5075746" lon="10.6329995"><ele>137.0</ele><time>2026-04-19T10:56:30.142Z</time></trkpt><trkpt lat="43.5076198" lon="10.6331619"><ele>137.0</ele><time>2026-04-19T10:56:31.132Z</time></trkpt><trkpt lat="43.5076674" lon="10.6332958"><ele>137.0</ele><time>2026-04-19T10:56:32.141Z</time></trkpt><trkpt lat="43.5077485" lon="10.6333666"><ele>137.0</ele><time>2026-04-19T10:56:33.144Z</time></trkpt><trkpt lat="43.5078468" lon="10.633393"><ele>137.0</ele><time>2026-04-19T10:56:34.139Z</time></trkpt><trkpt lat="43.5079344" lon="10.6333463"><ele>137.0</ele><time>2026-04-19T10:56:35.133Z</time></trkpt><trkpt lat="43.5080133" lon="10.6332709"><ele>137.0</ele><time>2026-04-19T10:56:36.134Z</time></trkpt><trkpt lat="43.5080963" lon="10.6331892"><ele>137.0</ele><time>2026-04-19T10:56:37.135Z</time></trkpt><trkpt lat="43.5081911" lon="10.6331457"><ele>138.2</ele><time>2026-04-19T10:56:38.136Z</time></trkpt><trkpt lat="43.5082819" lon="10.6331579"><ele>139.39999999999998</ele><time>2026-04-19T10:56:39.148Z</time></trkpt><trkpt lat="43.5083759" lon="10.6332265"><ele>140.60000000000002</ele><time>2026-04-19T10:56:40.154Z</time></trkpt><trkpt lat="43.5084661" lon="10.6333242"><ele>141.8</ele><time>2026-04-19T10:56:41.141Z</time></trkpt><trkpt lat="43.5085353" lon="10.6334631"><ele>143.0</ele><time>2026-04-19T10:56:42.137Z</time></trkpt><trkpt lat="43.5086117" lon="10.6336143"><ele>143.0</ele><time>2026-04-19T10:56:43.149Z</time></trkpt><trkpt lat="43.5086926" lon="10.6337793"><ele>143.0</ele><time>2026-04-19T10:56:44.156Z</time></trkpt><trkpt lat="43.5087967" lon="10.6339381"><ele>143.0</ele><time>2026-04-19T10:56:45.145Z</time></trkpt><trkpt lat="43.5089139" lon="10.6340804"><ele>143.0</ele><time>2026-04-19T10:56:46.136Z</time></trkpt><trkpt lat="43.5090406" lon="10.6342115"><ele>143.0</ele><time>2026-04-19T10:56:47.151Z</time></trkpt><trkpt lat="43.509175" lon="10.6343417"><ele>143.0</ele><time>2026-04-19T10:56:48.164Z</time></trkpt><trkpt lat="43.5093089" lon="10.6344703"><ele>142.0</ele><time>2026-04-19T10:56:49.138Z</time></trkpt><trkpt lat="43.5094396" lon="10.6345984"><ele>141.0</ele><time>2026-04-19T10:56:50.203Z</time></trkpt><trkpt lat="43.5095584" lon="10.6347111"><ele>140.0</ele><time>2026-04-19T10:56:51.146Z</time></trkpt><trkpt lat="43.5096685" lon="10.6348139"><ele>139.0</ele><time>2026-04-19T10:56:52.153Z</time></trkpt><trkpt lat="43.5097624" lon="10.6348878"><ele>139.0</ele><time>2026-04-19T10:56:53.131Z</time></trkpt><trkpt lat="43.5098398" lon="10.6349405"><ele>139.0</ele><time>2026-04-19T10:56:54.14Z</time></trkpt><trkpt lat="43.509898" lon="10.6349815"><ele>139.0</ele><time>2026-04-19T10:56:55.144Z</time></trkpt><trkpt lat="43.509985" lon="10.6349365"><ele>139.0</ele><time>2026-04-19T10:56:57.135Z</time></trkpt><trkpt lat="43.5100737" lon="10.6348907"><ele>139.0</ele><time>2026-04-19T10:56:59.136Z</time></trkpt><trkpt lat="43.5101393" lon="10.6348909"><ele>139.0</ele><time>2026-04-19T10:57:00.137Z</time></trkpt><trkpt lat="43.510216" lon="10.6348962"><ele>139.0</ele><time>2026-04-19T10:57:01.146Z</time></trkpt><trkpt lat="43.5102809" lon="10.634874"><ele>139.0</ele><time>2026-04-19T10:57:02.155Z</time></trkpt><trkpt lat="43.5103517" lon="10.6347522"><ele>139.0</ele><time>2026-04-19T10:57:04.14Z</time></trkpt><trkpt lat="43.5103393" lon="10.6345853"><ele>139.0</ele><time>2026-04-19T10:57:06.135Z</time></trkpt><trkpt lat="43.5103149" lon="10.634499"><ele>139.0</ele><time>2026-04-19T10:57:07.141Z</time></trkpt><trkpt lat="43.5102758" lon="10.634405"><ele>139.0</ele><time>2026-04-19T10:57:08.143Z</time></trkpt><trkpt lat="43.5102362" lon="10.6342962"><ele>141.4</ele><time>2026-04-19T10:57:09.142Z</time></trkpt><trkpt lat="43.5101888" lon="10.6341797"><ele>143.8</ele><time>2026-04-19T10:57:10.14Z</time></trkpt><trkpt lat="43.5101396" lon="10.6340636"><ele>146.2</ele><time>2026-04-19T10:57:11.145Z</time></trkpt><trkpt lat="43.5100896" lon="10.6339424"><ele>148.6</ele><time>2026-04-19T10:57:12.135Z</time></trkpt><trkpt lat="43.5100457" lon="10.6338266"><ele>151.0</ele><time>2026-04-19T10:57:13.146Z</time></trkpt><trkpt lat="43.5100078" lon="10.633724"><ele>152.5</ele><time>2026-04-19T10:57:14.128Z</time></trkpt><trkpt lat="43.5099805" lon="10.6336165"><ele>154.0</ele><time>2026-04-19T10:57:15.14Z</time></trkpt><trkpt lat="43.5099651" lon="10.6335093"><ele>155.5</ele><time>2026-04-19T10:57:16.133Z</time></trkpt><trkpt lat="43.5099602" lon="10.6333976"><ele>157.0</ele><time>2026-04-19T10:57:17.146Z</time></trkpt><trkpt lat="43.5099574" lon="10.6332773"><ele>158.5</ele><time>2026-04-19T10:57:18.136Z</time></trkpt><trkpt lat="43.5099443" lon="10.633168"><ele>160.0</ele><time>2026-04-19T10:57:19.137Z</time></trkpt><trkpt lat="43.5099191" lon="10.6330587"><ele>160.0</ele><time>2026-04-19T10:57:20.129Z</time></trkpt><trkpt lat="43.5098941" lon="10.6329769"><ele>160.0</ele><time>2026-04-19T10:57:21.134Z</time></trkpt><trkpt lat="43.5098399" lon="10.6328648"><ele>160.0</ele><time>2026-04-19T10:57:23.148Z</time></trkpt><trkpt lat="43.5098883" lon="10.632781"><ele>160.0</ele><time>2026-04-19T10:57:41.148Z</time></trkpt><trkpt lat="43.5099427" lon="10.632706"><ele>160.0</ele><time>2026-04-19T10:57:44.126Z</time></trkpt><trkpt lat="43.5099761" lon="10.6325848"><ele>160.0</ele><time>2026-04-19T10:57:47.132Z</time></trkpt><trkpt lat="43.5099631" lon="10.6324503"><ele>160.66666666666669</ele><time>2026-04-19T10:57:49.136Z</time></trkpt><trkpt lat="43.509939" lon="10.6323635"><ele>161.33333333333334</ele><time>2026-04-19T10:57:50.122Z</time></trkpt><trkpt lat="43.5099137" lon="10.6322526"><ele>162.0</ele><time>2026-04-19T10:57:51.127Z</time></trkpt><trkpt lat="43.5098863" lon="10.6321417"><ele>162.66666666666666</ele><time>2026-04-19T10:57:52.123Z</time></trkpt><trkpt lat="43.5098578" lon="10.6320246"><ele>163.33333333333331</ele><time>2026-04-19T10:57:53.145Z</time></trkpt><trkpt lat="43.509833" lon="10.6319009"><ele>164.0</ele><time>2026-04-19T10:57:54.128Z</time></trkpt><trkpt lat="43.5098045" lon="10.6317662"><ele>165.5</ele><time>2026-04-19T10:57:55.132Z</time></trkpt><trkpt lat="43.5097757" lon="10.6316363"><ele>167.0</ele><time>2026-04-19T10:57:56.136Z</time></trkpt><trkpt lat="43.5097418" lon="10.6315054"><ele>168.5</ele><time>2026-04-19T10:57:57.119Z</time></trkpt><trkpt lat="43.5097169" lon="10.6313944"><ele>170.0</ele><time>2026-04-19T10:57:58.13Z</time></trkpt><trkpt lat="43.5096991" lon="10.6313007"><ele>171.5</ele><time>2026-04-19T10:57:59.13Z</time></trkpt><trkpt lat="43.5096844" lon="10.6312156"><ele>173.0</ele><time>2026-04-19T10:58:00.131Z</time></trkpt><trkpt lat="43.5097127" lon="10.6310954"><ele>175.0</ele><time>2026-04-19T10:58:02.127Z</time></trkpt><trkpt lat="43.5098017" lon="10.6309665"><ele>177.0</ele><time>2026-04-19T10:58:04.134Z</time></trkpt><trkpt lat="43.5098608" lon="10.6308973"><ele>179.0</ele><time>2026-04-19T10:58:05.126Z</time></trkpt><trkpt lat="43.5099155" lon="10.6308231"><ele>181.0</ele><time>2026-04-19T10:58:06.138Z</time></trkpt><trkpt lat="43.5099547" lon="10.6307504"><ele>183.0</ele><time>2026-04-19T10:58:07.148Z</time></trkpt><trkpt lat="43.5099749" lon="10.6306462"><ele>185.0</ele><time>2026-04-19T10:58:09.126Z</time></trkpt><trkpt lat="43.5099293" lon="10.6305712"><ele>185.0</ele><time>2026-04-19T10:58:34.135Z</time></trkpt><trkpt lat="43.5098796" lon="10.6305173"><ele>185.0</ele><time>2026-04-19T10:58:36.118Z</time></trkpt><trkpt lat="43.5098385" lon="10.6304332"><ele>185.0</ele><time>2026-04-19T10:58:38.13Z</time></trkpt><trkpt lat="43.5097965" lon="10.6303548"><ele>185.0</ele><time>2026-04-19T10:58:40.128Z</time></trkpt><trkpt lat="43.509771" lon="10.6302404"><ele>185.0</ele><time>2026-04-19T10:58:42.123Z</time></trkpt><trkpt lat="43.5096884" lon="10.6301374"><ele>185.0</ele><time>2026-04-19T10:58:44.121Z</time></trkpt><trkpt lat="43.5096469" lon="10.6300609"><ele>185.33333333333331</ele><time>2026-04-19T10:58:45.132Z</time></trkpt><trkpt lat="43.5096029" lon="10.6299828"><ele>185.66666666666666</ele><time>2026-04-19T10:58:46.119Z</time></trkpt><trkpt lat="43.5095547" lon="10.6299009"><ele>186.0</ele><time>2026-04-19T10:58:47.14Z</time></trkpt><trkpt lat="43.5095089" lon="10.6298311"><ele>186.33333333333334</ele><time>2026-04-19T10:58:48.125Z</time></trkpt><trkpt lat="43.5094652" lon="10.629755"><ele>186.66666666666669</ele><time>2026-04-19T10:58:49.159Z</time></trkpt><trkpt lat="43.5093937" lon="10.6296189"><ele>187.0</ele><time>2026-04-19T10:58:51.136Z</time></trkpt><trkpt lat="43.509308" lon="10.6295619"><ele>189.6</ele><time>2026-04-19T10:58:53.129Z</time></trkpt><trkpt lat="43.5092148" lon="10.6296078"><ele>192.2</ele><time>2026-04-19T10:58:55.137Z</time></trkpt><trkpt lat="43.5091279" lon="10.6296746"><ele>194.8</ele><time>2026-04-19T10:58:57.145Z</time></trkpt><trkpt lat="43.5090623" lon="10.6296337"><ele>197.4</ele><time>2026-04-19T10:59:00.121Z</time></trkpt><trkpt lat="43.509046" lon="10.6295037"><ele>200.0</ele><time>2026-04-19T10:59:02.134Z</time></trkpt><trkpt lat="43.5089821" lon="10.6293873"><ele>202.50000000000003</ele><time>2026-04-19T10:59:04.118Z</time></trkpt><trkpt lat="43.508939" lon="10.6292679"><ele>205.0</ele><time>2026-04-19T10:59:06.125Z</time></trkpt><trkpt lat="43.5088955" lon="10.6291931"><ele>207.5</ele><time>2026-04-19T11:01:49.126Z</time></trkpt><trkpt lat="43.5089083" lon="10.6290801"><ele>210.0</ele><time>2026-04-19T11:01:51.148Z</time></trkpt><trkpt lat="43.5089556" lon="10.6289615"><ele>212.50000000000003</ele><time>2026-04-19T11:01:53.124Z</time></trkpt><trkpt lat="43.5090116" lon="10.6288529"><ele>215.0</ele><time>2026-04-19T11:01:55.123Z</time></trkpt><trkpt lat="43.508995" lon="10.6287035"><ele>216.8</ele><time>2026-04-19T11:01:57.127Z</time></trkpt><trkpt lat="43.5089516" lon="10.628563"><ele>218.6</ele><time>2026-04-19T11:01:59.13Z</time></trkpt><trkpt lat="43.5089085" lon="10.6284126"><ele>220.39999999999998</ele><time>2026-04-19T11:02:01.128Z</time></trkpt><trkpt lat="43.5088831" lon="10.6283166"><ele>222.2</ele><time>2026-04-19T11:02:02.127Z</time></trkpt><trkpt lat="43.5088482" lon="10.6282115"><ele>224.0</ele><time>2026-04-19T11:02:03.127Z</time></trkpt><trkpt lat="43.5088073" lon="10.6280867"><ele>224.0</ele><time>2026-04-19T11:02:04.127Z</time></trkpt><trkpt lat="43.5087569" lon="10.6279685"><ele>223.99999999999997</ele><time>2026-04-19T11:02:05.135Z</time></trkpt><trkpt lat="43.5087052" lon="10.6278533"><ele>223.99999999999997</ele><time>2026-04-19T11:02:06.14Z</time></trkpt><trkpt lat="43.5086611" lon="10.6277661"><ele>224.0</ele><time>2026-04-19T11:02:07.137Z</time></trkpt><trkpt lat="43.5086065" lon="10.6276743"><ele>224.0</ele><time>2026-04-19T11:02:09.131Z</time></trkpt><trkpt lat="43.5085036" lon="10.6276609"><ele>224.66666666666669</ele><time>2026-04-19T11:02:11.141Z</time></trkpt><trkpt lat="43.5084397" lon="10.6276895"><ele>225.33333333333334</ele><time>2026-04-19T11:02:12.125Z</time></trkpt><trkpt lat="43.5083713" lon="10.6277195"><ele>226.0</ele><time>2026-04-19T11:02:13.127Z</time></trkpt><trkpt lat="43.5083014" lon="10.6277656"><ele>226.66666666666669</ele><time>2026-04-19T11:02:14.126Z</time></trkpt><trkpt lat="43.5082296" lon="10.6278317"><ele>227.33333333333334</ele><time>2026-04-19T11:02:15.128Z</time></trkpt><trkpt lat="43.5081576" lon="10.6279132"><ele>228.0</ele><time>2026-04-19T11:02:16.136Z</time></trkpt><trkpt lat="43.5080893" lon="10.6279972"><ele>228.0</ele><time>2026-04-19T11:02:17.138Z</time></trkpt><trkpt lat="43.5080234" lon="10.6280479"><ele>228.0</ele><time>2026-04-19T11:02:18.136Z</time></trkpt><trkpt lat="43.5079428" lon="10.6280396"><ele>228.0</ele><time>2026-04-19T11:02:19.131Z</time></trkpt><trkpt lat="43.507876" lon="10.6280155"><ele>228.0</ele><time>2026-04-19T11:02:20.127Z</time></trkpt><trkpt lat="43.5078089" lon="10.6278934"><ele>228.0</ele><time>2026-04-19T11:02:22.127Z</time></trkpt><trkpt lat="43.507798" lon="10.6277968"><ele>228.0</ele><time>2026-04-19T11:02:23.122Z</time></trkpt><trkpt lat="43.5077774" lon="10.6276524"><ele>229.4</ele><time>2026-04-19T11:02:24.125Z</time></trkpt><trkpt lat="43.5077461" lon="10.6274994"><ele>230.8</ele><time>2026-04-19T11:02:25.133Z</time></trkpt><trkpt lat="43.5077005" lon="10.6273911"><ele>232.2</ele><time>2026-04-19T11:02:26.121Z</time></trkpt><trkpt lat="43.5076581" lon="10.6273206"><ele>233.6</ele><time>2026-04-19T11:02:27.138Z</time></trkpt><trkpt lat="43.5075431" lon="10.6272333"><ele>235.0</ele><time>2026-04-19T11:02:29.131Z</time></trkpt><trkpt lat="43.5074632" lon="10.6271825"><ele>234.99999999999997</ele><time>2026-04-19T11:02:30.12Z</time></trkpt><trkpt lat="43.5073958" lon="10.627128"><ele>235.0</ele><time>2026-04-19T11:02:31.135Z</time></trkpt><trkpt lat="43.5073437" lon="10.6270189"><ele>235.0</ele><time>2026-04-19T11:02:33.13Z</time></trkpt><trkpt lat="43.5073717" lon="10.6269312"><ele>235.0</ele><time>2026-04-19T11:02:35.135Z</time></trkpt><trkpt lat="43.5073995" lon="10.6268283"><ele>234.99999999999997</ele><time>2026-04-19T11:02:37.132Z</time></trkpt><trkpt lat="43.5073256" lon="10.6267135"><ele>235.0</ele><time>2026-04-19T11:02:39.137Z</time></trkpt><trkpt lat="43.5072602" lon="10.6266729"><ele>236.2</ele><time>2026-04-19T11:02:40.127Z</time></trkpt><trkpt lat="43.5072114" lon="10.6266028"><ele>237.4</ele><time>2026-04-19T11:02:41.133Z</time></trkpt><trkpt lat="43.5071874" lon="10.6264505"><ele>238.60000000000002</ele><time>2026-04-19T11:02:43.126Z</time></trkpt><trkpt lat="43.5071931" lon="10.6263297"><ele>239.8</ele><time>2026-04-19T11:02:44.136Z</time></trkpt><trkpt lat="43.5072121" lon="10.6261958"><ele>241.0</ele><time>2026-04-19T11:02:45.134Z</time></trkpt><trkpt lat="43.5072309" lon="10.6260603"><ele>242.0</ele><time>2026-04-19T11:02:46.13Z</time></trkpt><trkpt lat="43.5072454" lon="10.6259218"><ele>243.00000000000003</ele><time>2026-04-19T11:02:47.138Z</time></trkpt><trkpt lat="43.5072489" lon="10.6257817"><ele>244.00000000000003</ele><time>2026-04-19T11:02:48.137Z</time></trkpt><trkpt lat="43.5072382" lon="10.6256463"><ele>245.0</ele><time>2026-04-19T11:02:49.121Z</time></trkpt><trkpt lat="43.5072293" lon="10.6255126"><ele>246.0</ele><time>2026-04-19T11:02:50.118Z</time></trkpt><trkpt lat="43.5072185" lon="10.6253815"><ele>247.0</ele><time>2026-04-19T11:02:51.138Z</time></trkpt><trkpt lat="43.5072176" lon="10.6252585"><ele>248.00000000000003</ele><time>2026-04-19T11:02:52.135Z</time></trkpt><trkpt lat="43.5072242" lon="10.6251243"><ele>249.00000000000003</ele><time>2026-04-19T11:02:53.127Z</time></trkpt><trkpt lat="43.5072356" lon="10.6249801"><ele>250.0</ele><time>2026-04-19T11:02:54.121Z</time></trkpt><trkpt lat="43.5072405" lon="10.6248473"><ele>251.0</ele><time>2026-04-19T11:02:55.146Z</time></trkpt><trkpt lat="43.5072439" lon="10.6247286"><ele>251.00000000000003</ele><time>2026-04-19T11:02:56.131Z</time></trkpt><trkpt lat="43.5072281" lon="10.6246229"><ele>251.0</ele><time>2026-04-19T11:02:57.12Z</time></trkpt><trkpt lat="43.5072157" lon="10.624525"><ele>251.0</ele><time>2026-04-19T11:02:58.145Z</time></trkpt><trkpt lat="43.5071777" lon="10.6244304"><ele>251.0</ele><time>2026-04-19T11:02:59.128Z</time></trkpt><trkpt lat="43.5071218" lon="10.6243291"><ele>251.00000000000003</ele><time>2026-04-19T11:03:00.142Z</time></trkpt><trkpt lat="43.5070609" lon="10.6242139"><ele>251.0</ele><time>2026-04-19T11:03:01.123Z</time></trkpt><trkpt lat="43.5069902" lon="10.6240935"><ele>253.25</ele><time>2026-04-19T11:03:02.138Z</time></trkpt><trkpt lat="43.5069158" lon="10.6239657"><ele>255.5</ele><time>2026-04-19T11:03:03.131Z</time></trkpt><trkpt lat="43.5068442" lon="10.6238249"><ele>257.75</ele><time>2026-04-19T11:03:04.128Z</time></trkpt><trkpt lat="43.5067833" lon="10.6236828"><ele>260.0</ele><time>2026-04-19T11:03:05.124Z</time></trkpt><trkpt lat="43.5067267" lon="10.6235158"><ele>260.0</ele><time>2026-04-19T11:03:06.133Z</time></trkpt><trkpt lat="43.5066579" lon="10.6233528"><ele>260.0</ele><time>2026-04-19T11:03:07.119Z</time></trkpt><trkpt lat="43.5066005" lon="10.6231858"><ele>260.0</ele><time>2026-04-19T11:03:08.133Z</time></trkpt><trkpt lat="43.5065482" lon="10.6230227"><ele>260.0</ele><time>2026-04-19T11:03:09.127Z</time></trkpt><trkpt lat="43.5065062" lon="10.6228637"><ele>259.6666666666667</ele><time>2026-04-19T11:03:10.126Z</time></trkpt><trkpt lat="43.5064723" lon="10.6227606"><ele>259.33333333333337</ele><time>2026-04-19T11:03:11.121Z</time></trkpt><trkpt lat="43.5064317" lon="10.6226663"><ele>259.0</ele><time>2026-04-19T11:03:12.127Z</time></trkpt><trkpt lat="43.5063728" lon="10.6225559"><ele>258.6666666666667</ele><time>2026-04-19T11:03:13.134Z</time></trkpt><trkpt lat="43.5063136" lon="10.6224576"><ele>258.3333333333333</ele><time>2026-04-19T11:03:14.14Z</time></trkpt><trkpt lat="43.5062677" lon="10.622347"><ele>258.0</ele><time>2026-04-19T11:03:15.126Z</time></trkpt><trkpt lat="43.506231" lon="10.6222186"><ele>258.3333333333333</ele><time>2026-04-19T11:03:16.123Z</time></trkpt><trkpt lat="43.5061947" lon="10.6220907"><ele>258.6666666666667</ele><time>2026-04-19T11:03:17.136Z</time></trkpt><trkpt lat="43.5061757" lon="10.6219798"><ele>259.0</ele><time>2026-04-19T11:03:18.125Z</time></trkpt><trkpt lat="43.5061931" lon="10.6218836"><ele>259.33333333333337</ele><time>2026-04-19T11:03:19.121Z</time></trkpt><trkpt lat="43.5062307" lon="10.6217684"><ele>259.6666666666667</ele><time>2026-04-19T11:03:20.131Z</time></trkpt><trkpt lat="43.5062758" lon="10.6216458"><ele>260.0</ele><time>2026-04-19T11:03:21.122Z</time></trkpt><trkpt lat="43.5062997" lon="10.6215117"><ele>260.0</ele><time>2026-04-19T11:03:22.122Z</time></trkpt><trkpt lat="43.5063154" lon="10.6213858"><ele>260.0</ele><time>2026-04-19T11:03:23.13Z</time></trkpt><trkpt lat="43.5063135" lon="10.6212715"><ele>260.0</ele><time>2026-04-19T11:03:24.136Z</time></trkpt><trkpt lat="43.5062952" lon="10.6211635"><ele>260.0</ele><time>2026-04-19T11:03:25.136Z</time></trkpt><trkpt lat="43.5062788" lon="10.6210653"><ele>260.0</ele><time>2026-04-19T11:03:26.125Z</time></trkpt><trkpt lat="43.5062785" lon="10.6209476"><ele>260.0</ele><time>2026-04-19T11:03:27.129Z</time></trkpt><trkpt lat="43.5062797" lon="10.6208201"><ele>262.4</ele><time>2026-04-19T11:03:28.129Z</time></trkpt><trkpt lat="43.5062756" lon="10.6206755"><ele>264.8</ele><time>2026-04-19T11:03:29.118Z</time></trkpt><trkpt lat="43.5062601" lon="10.6205381"><ele>267.2</ele><time>2026-04-19T11:03:30.126Z</time></trkpt><trkpt lat="43.5062355" lon="10.6204237"><ele>269.6</ele><time>2026-04-19T11:03:31.125Z</time></trkpt><trkpt lat="43.5061838" lon="10.6202902"><ele>272.0</ele><time>2026-04-19T11:03:33.124Z</time></trkpt><trkpt lat="43.5062435" lon="10.6201778"><ele>274.1666666666667</ele><time>2026-04-19T11:03:35.124Z</time></trkpt><trkpt lat="43.5062994" lon="10.6200987"><ele>276.33333333333337</ele><time>2026-04-19T11:03:36.126Z</time></trkpt><trkpt lat="43.5063626" lon="10.6200276"><ele>278.5</ele><time>2026-04-19T11:03:37.126Z</time></trkpt><trkpt lat="43.5064334" lon="10.6199587"><ele>280.6666666666667</ele><time>2026-04-19T11:03:38.127Z</time></trkpt><trkpt lat="43.5065165" lon="10.6198971"><ele>282.8333333333333</ele><time>2026-04-19T11:03:39.128Z</time></trkpt><trkpt lat="43.5066008" lon="10.6198182"><ele>285.0</ele><time>2026-04-19T11:03:40.128Z</time></trkpt><trkpt lat="43.5066603" lon="10.6197317"><ele>285.0</ele><time>2026-04-19T11:03:41.128Z</time></trkpt><trkpt lat="43.5067009" lon="10.6196309"><ele>285.0</ele><time>2026-04-19T11:03:42.133Z</time></trkpt><trkpt lat="43.5067304" lon="10.6195185"><ele>285.0</ele><time>2026-04-19T11:03:43.112Z</time></trkpt><trkpt lat="43.5067734" lon="10.6194177"><ele>285.0</ele><time>2026-04-19T11:03:44.129Z</time></trkpt><trkpt lat="43.5068048" lon="10.6193372"><ele>285.0</ele><time>2026-04-19T11:03:45.129Z</time></trkpt><trkpt lat="43.5068212" lon="10.6192354"><ele>285.0</ele><time>2026-04-19T11:03:48.129Z</time></trkpt><trkpt lat="43.5067314" lon="10.6192547"><ele>285.8</ele><time>2026-04-19T11:03:51.127Z</time></trkpt><trkpt lat="43.5066138" lon="10.6193088"><ele>286.6</ele><time>2026-04-19T11:03:53.141Z</time></trkpt><trkpt lat="43.5065391" lon="10.6193296"><ele>287.4</ele><time>2026-04-19T11:03:54.126Z</time></trkpt><trkpt lat="43.5064482" lon="10.6193153"><ele>288.2</ele><time>2026-04-19T11:03:55.137Z</time></trkpt><trkpt lat="43.5063573" lon="10.6193126"><ele>289.0</ele><time>2026-04-19T11:03:56.122Z</time></trkpt><trkpt lat="43.5062591" lon="10.6193223"><ele>291.2</ele><time>2026-04-19T11:03:57.134Z</time></trkpt><trkpt lat="43.5061571" lon="10.619349"><ele>293.4</ele><time>2026-04-19T11:03:58.132Z</time></trkpt><trkpt lat="43.5060492" lon="10.6193905"><ele>295.6</ele><time>2026-04-19T11:03:59.134Z</time></trkpt><trkpt lat="43.5059436" lon="10.6194195"><ele>297.8</ele><time>2026-04-19T11:04:00.129Z</time></trkpt><trkpt lat="43.5058491" lon="10.6194465"><ele>300.0</ele><time>2026-04-19T11:04:01.132Z</time></trkpt><trkpt lat="43.5057687" lon="10.6194749"><ele>300.0</ele><time>2026-04-19T11:04:02.137Z</time></trkpt><trkpt lat="43.5056823" lon="10.6194713"><ele>300.0</ele><time>2026-04-19T11:04:03.135Z</time></trkpt><trkpt lat="43.5055845" lon="10.6194492"><ele>300.0</ele><time>2026-04-19T11:04:04.143Z</time></trkpt><trkpt lat="43.50549" lon="10.6194063"><ele>300.0</ele><time>2026-04-19T11:04:05.125Z</time></trkpt><trkpt lat="43.5053971" lon="10.6193723"><ele>300.0</ele><time>2026-04-19T11:04:06.126Z</time></trkpt><trkpt lat="43.5053166" lon="10.6193494"><ele>301.8</ele><time>2026-04-19T11:04:07.131Z</time></trkpt><trkpt lat="43.5052526" lon="10.6193427"><ele>303.6</ele><time>2026-04-19T11:04:08.133Z</time></trkpt><trkpt lat="43.5051609" lon="10.6194226"><ele>305.4</ele><time>2026-04-19T11:04:10.13Z</time></trkpt><trkpt lat="43.5050848" lon="10.6195925"><ele>307.2</ele><time>2026-04-19T11:04:12.129Z</time></trkpt><trkpt lat="43.5050508" lon="10.6196938"><ele>309.0</ele><time>2026-04-19T11:04:13.137Z</time></trkpt><trkpt lat="43.5050227" lon="10.6197821"><ele>309.0</ele><time>2026-04-19T11:04:14.124Z</time></trkpt><trkpt lat="43.504986" lon="10.6198547"><ele>309.0</ele><time>2026-04-19T11:04:15.129Z</time></trkpt><trkpt lat="43.5049323" lon="10.6199138"><ele>309.0</ele><time>2026-04-19T11:04:16.129Z</time></trkpt><trkpt lat="43.5048766" lon="10.619977"><ele>309.0</ele><time>2026-04-19T11:04:17.128Z</time></trkpt><trkpt lat="43.5048138" lon="10.6200399"><ele>309.0</ele><time>2026-04-19T11:04:18.136Z</time></trkpt><trkpt lat="43.5047556" lon="10.6201055"><ele>309.0</ele><time>2026-04-19T11:04:19.129Z</time></trkpt><trkpt lat="43.5046641" lon="10.6201731"><ele>309.4</ele><time>2026-04-19T11:04:21.125Z</time></trkpt><trkpt lat="43.5045556" lon="10.6201343"><ele>309.79999999999995</ele><time>2026-04-19T11:04:23.127Z</time></trkpt><trkpt lat="43.5044703" lon="10.6200139"><ele>310.20000000000005</ele><time>2026-04-19T11:04:25.134Z</time></trkpt><trkpt lat="43.504433" lon="10.6199228"><ele>310.6</ele><time>2026-04-19T11:04:26.135Z</time></trkpt><trkpt lat="43.5044003" lon="10.6198246"><ele>311.0</ele><time>2026-04-19T11:04:27.142Z</time></trkpt><trkpt lat="43.5043703" lon="10.6197253"><ele>311.0</ele><time>2026-04-19T11:04:28.133Z</time></trkpt><trkpt lat="43.5043447" lon="10.6196274"><ele>311.0</ele><time>2026-04-19T11:04:29.134Z</time></trkpt><trkpt lat="43.5043262" lon="10.619473"><ele>311.0</ele><time>2026-04-19T11:04:31.136Z</time></trkpt><trkpt lat="43.5043509" lon="10.6193532"><ele>311.0</ele><time>2026-04-19T11:04:33.135Z</time></trkpt><trkpt lat="43.5044169" lon="10.6192638"><ele>311.0</ele><time>2026-04-19T11:04:35.126Z</time></trkpt><trkpt lat="43.5044991" lon="10.6191376"><ele>311.2</ele><time>2026-04-19T11:04:37.14Z</time></trkpt><trkpt lat="43.5045476" lon="10.6190672"><ele>311.40000000000003</ele><time>2026-04-19T11:04:38.15Z</time></trkpt><trkpt lat="43.5045957" lon="10.6190054"><ele>311.6</ele><time>2026-04-19T11:04:39.134Z</time></trkpt><trkpt lat="43.5046996" lon="10.6189241"><ele>311.8</ele><time>2026-04-19T11:04:41.14Z</time></trkpt><trkpt lat="43.5047993" lon="10.6188389"><ele>312.0</ele><time>2026-04-19T11:04:43.131Z</time></trkpt><trkpt lat="43.5048459" lon="10.6187265"><ele>312.0</ele><time>2026-04-19T11:04:45.128Z</time></trkpt><trkpt lat="43.5048515" lon="10.6186388"><ele>318.0</ele><time>2026-04-19T11:04:47.134Z</time></trkpt></trkseg></trk></gpx>